<?xml version="1.0" encoding="UTF-8" standalone="no" ?>
<gpx xmlns="http://www.topografix.com/GPX/1/1" xmlns:xsi="http://www.w3.org/2001/XMLSchema-instance" xsi:schemaLocation="http://www.topografix.com/GPX/1/1 http://www.topografix.com/GPX/1/1/gpx.xsd" version="1.1" creator="VisuGPX - https://www.visugpx.com">
  <metadata>
    <name>ACME - Parcours Gravel 46km</name>
    <desc><![CDATA[Tracé Gravel à travers les 1000 Etangs de 46km
Ravitaillement à 12.5km (La Mer)
Bonne route !]]></desc>
  </metadata>
  <wpt lat="47.81646" lon="6.60434">
    <ele>464</ele>
    <name><![CDATA[Nourriture]]></name>
    <type><![CDATA[FOOD]]></type>
  </wpt>
  <trk>
    <name><![CDATA[ACME - Parcours Gravel 46km]]></name>
    <trkseg>
      <trkpt lat="47.7544" lon="6.58461">
        <ele>330.84</ele>
        <time>2025-04-30T05:56:16.000Z</time>
      </trkpt>
      <trkpt lat="47.75442" lon="6.58458">
        <ele>330.84</ele>
        <time>2025-04-30T05:56:16.001Z</time>
      </trkpt>
      <trkpt lat="47.75443" lon="6.58457">
        <ele>330.84</ele>
        <time>2025-04-30T05:56:16.002Z</time>
      </trkpt>
      <trkpt lat="47.75445" lon="6.58458">
        <ele>330.84</ele>
        <time>2025-04-30T05:56:16.003Z</time>
      </trkpt>
      <trkpt lat="47.75446" lon="6.58461">
        <ele>330.85</ele>
        <time>2025-04-30T05:56:16.005Z</time>
      </trkpt>
      <trkpt lat="47.75447" lon="6.58465">
        <ele>330.85</ele>
        <time>2025-04-30T05:56:16.007Z</time>
      </trkpt>
      <trkpt lat="47.75448" lon="6.58476">
        <ele>330.85</ele>
        <time>2025-04-30T05:56:16.011Z</time>
      </trkpt>
      <trkpt lat="47.75448" lon="6.58483">
        <ele>330.86</ele>
        <time>2025-04-30T05:56:16.016Z</time>
      </trkpt>
      <trkpt lat="47.75449" lon="6.58489">
        <ele>330.87</ele>
        <time>2025-04-30T05:56:16.022Z</time>
      </trkpt>
      <trkpt lat="47.75449" lon="6.58496">
        <ele>330.87</ele>
        <time>2025-04-30T05:56:16.029Z</time>
      </trkpt>
      <trkpt lat="47.75449" lon="6.58503">
        <ele>330.88</ele>
        <time>2025-04-30T05:56:16.037Z</time>
      </trkpt>
      <trkpt lat="47.7545" lon="6.58511">
        <ele>330.87</ele>
        <time>2025-04-30T05:56:16.046Z</time>
      </trkpt>
      <trkpt lat="47.7545" lon="6.58518">
        <ele>330.85</ele>
        <time>2025-04-30T05:56:16.056Z</time>
      </trkpt>
      <trkpt lat="47.7545" lon="6.58526">
        <ele>330.83</ele>
        <time>2025-04-30T05:56:16.067Z</time>
      </trkpt>
      <trkpt lat="47.75449" lon="6.58533">
        <ele>330.81</ele>
        <time>2025-04-30T05:56:16.079Z</time>
      </trkpt>
      <trkpt lat="47.75449" lon="6.58541">
        <ele>330.81</ele>
        <time>2025-04-30T05:56:16.092Z</time>
      </trkpt>
      <trkpt lat="47.7545" lon="6.58548">
        <ele>330.8</ele>
        <time>2025-04-30T05:56:16.107Z</time>
      </trkpt>
      <trkpt lat="47.7545" lon="6.58555">
        <ele>330.8</ele>
        <time>2025-04-30T05:56:16.123Z</time>
      </trkpt>
      <trkpt lat="47.75451" lon="6.58563">
        <ele>330.81</ele>
        <time>2025-04-30T05:56:16.140Z</time>
      </trkpt>
      <trkpt lat="47.75451" lon="6.5857">
        <ele>330.82</ele>
        <time>2025-04-30T05:56:16.158Z</time>
      </trkpt>
      <trkpt lat="47.75455" lon="6.58625">
        <ele>330.91</ele>
        <time>2025-04-30T05:56:16.184Z</time>
      </trkpt>
      <trkpt lat="47.75456" lon="6.58646">
        <ele>330.96</ele>
        <time>2025-04-30T05:56:16.213Z</time>
      </trkpt>
      <trkpt lat="47.75457" lon="6.58652">
        <ele>331.01</ele>
        <time>2025-04-30T05:56:16.243Z</time>
      </trkpt>
      <trkpt lat="47.75457" lon="6.58659">
        <ele>331.06</ele>
        <time>2025-04-30T05:56:16.274Z</time>
      </trkpt>
      <trkpt lat="47.75459" lon="6.58664">
        <ele>331.12</ele>
        <time>2025-04-30T05:56:16.306Z</time>
      </trkpt>
      <trkpt lat="47.75462" lon="6.58669">
        <ele>331.18</ele>
        <time>2025-04-30T05:56:16.338Z</time>
      </trkpt>
      <trkpt lat="47.75465" lon="6.58673">
        <ele>331.24</ele>
        <time>2025-04-30T05:56:16.371Z</time>
      </trkpt>
      <trkpt lat="47.75469" lon="6.58676">
        <ele>331.31</ele>
        <time>2025-04-30T05:56:16.405Z</time>
      </trkpt>
      <trkpt lat="47.75472" lon="6.58678">
        <ele>331.38</ele>
        <time>2025-04-30T05:56:16.440Z</time>
      </trkpt>
      <trkpt lat="47.75475" lon="6.5868">
        <ele>331.44</ele>
        <time>2025-04-30T05:56:16.476Z</time>
      </trkpt>
      <trkpt lat="47.75478" lon="6.5868">
        <ele>331.51</ele>
        <time>2025-04-30T05:56:16.512Z</time>
      </trkpt>
      <trkpt lat="47.75481" lon="6.5868">
        <ele>331.56</ele>
        <time>2025-04-30T05:56:16.549Z</time>
      </trkpt>
      <trkpt lat="47.75483" lon="6.5868">
        <ele>331.61</ele>
        <time>2025-04-30T05:56:16.586Z</time>
      </trkpt>
      <trkpt lat="47.75486" lon="6.5868">
        <ele>331.65</ele>
        <time>2025-04-30T05:56:16.624Z</time>
      </trkpt>
      <trkpt lat="47.75488" lon="6.5868">
        <ele>331.68</ele>
        <time>2025-04-30T05:56:16.662Z</time>
      </trkpt>
      <trkpt lat="47.755" lon="6.5868">
        <ele>331.72</ele>
        <time>2025-04-30T05:56:16.703Z</time>
      </trkpt>
      <trkpt lat="47.75524" lon="6.58682">
        <ele>331.76</ele>
        <time>2025-04-30T05:56:16.749Z</time>
      </trkpt>
      <trkpt lat="47.75529" lon="6.58684">
        <ele>331.77</ele>
        <time>2025-04-30T05:56:16.796Z</time>
      </trkpt>
      <trkpt lat="47.75533" lon="6.58685">
        <ele>331.78</ele>
        <time>2025-04-30T05:56:16.844Z</time>
      </trkpt>
      <trkpt lat="47.75551" lon="6.58695">
        <ele>331.77</ele>
        <time>2025-04-30T05:56:16.896Z</time>
      </trkpt>
      <trkpt lat="47.75562" lon="6.58703">
        <ele>331.76</ele>
        <time>2025-04-30T05:56:16.951Z</time>
      </trkpt>
      <trkpt lat="47.75575" lon="6.58715">
        <ele>331.75</ele>
        <time>2025-04-30T05:56:17.009Z</time>
      </trkpt>
      <trkpt lat="47.75579" lon="6.58719">
        <ele>331.74</ele>
        <time>2025-04-30T05:56:17.068Z</time>
      </trkpt>
      <trkpt lat="47.75583" lon="6.58724">
        <ele>331.72</ele>
        <time>2025-04-30T05:56:17.128Z</time>
      </trkpt>
      <trkpt lat="47.75599" lon="6.58743">
        <ele>331.69</ele>
        <time>2025-04-30T05:56:17.193Z</time>
      </trkpt>
      <trkpt lat="47.75603" lon="6.58747">
        <ele>331.67</ele>
        <time>2025-04-30T05:56:17.259Z</time>
      </trkpt>
      <trkpt lat="47.75606" lon="6.58751">
        <ele>331.65</ele>
        <time>2025-04-30T05:56:17.326Z</time>
      </trkpt>
      <trkpt lat="47.7561" lon="6.58756">
        <ele>331.64</ele>
        <time>2025-04-30T05:56:17.394Z</time>
      </trkpt>
      <trkpt lat="47.75614" lon="6.5876">
        <ele>331.63</ele>
        <time>2025-04-30T05:56:17.463Z</time>
      </trkpt>
      <trkpt lat="47.75618" lon="6.58765">
        <ele>331.63</ele>
        <time>2025-04-30T05:56:17.533Z</time>
      </trkpt>
      <trkpt lat="47.75626" lon="6.58775">
        <ele>331.64</ele>
        <time>2025-04-30T05:56:17.605Z</time>
      </trkpt>
      <trkpt lat="47.75629" lon="6.5878">
        <ele>331.66</ele>
        <time>2025-04-30T05:56:17.678Z</time>
      </trkpt>
      <trkpt lat="47.75632" lon="6.58786">
        <ele>331.68</ele>
        <time>2025-04-30T05:56:17.752Z</time>
      </trkpt>
      <trkpt lat="47.75635" lon="6.58792">
        <ele>331.71</ele>
        <time>2025-04-30T05:56:17.827Z</time>
      </trkpt>
      <trkpt lat="47.75636" lon="6.58799">
        <ele>331.75</ele>
        <time>2025-04-30T05:56:17.903Z</time>
      </trkpt>
      <trkpt lat="47.7564" lon="6.58819">
        <ele>331.82</ele>
        <time>2025-04-30T05:56:17.982Z</time>
      </trkpt>
      <trkpt lat="47.75641" lon="6.58827">
        <ele>331.89</ele>
        <time>2025-04-30T05:56:18.062Z</time>
      </trkpt>
      <trkpt lat="47.75642" lon="6.58834">
        <ele>331.96</ele>
        <time>2025-04-30T05:56:18.144Z</time>
      </trkpt>
      <trkpt lat="47.75643" lon="6.5884">
        <ele>332.04</ele>
        <time>2025-04-30T05:56:18.226Z</time>
      </trkpt>
      <trkpt lat="47.75644" lon="6.58847">
        <ele>332.11</ele>
        <time>2025-04-30T05:56:18.309Z</time>
      </trkpt>
      <trkpt lat="47.75645" lon="6.58853">
        <ele>332.18</ele>
        <time>2025-04-30T05:56:18.393Z</time>
      </trkpt>
      <trkpt lat="47.75652" lon="6.58879">
        <ele>332.23</ele>
        <time>2025-04-30T05:56:18.481Z</time>
      </trkpt>
      <trkpt lat="47.75654" lon="6.58885">
        <ele>332.3</ele>
        <time>2025-04-30T05:56:18.570Z</time>
      </trkpt>
      <trkpt lat="47.75656" lon="6.5889">
        <ele>332.37</ele>
        <time>2025-04-30T05:56:18.660Z</time>
      </trkpt>
      <trkpt lat="47.75657" lon="6.58897">
        <ele>332.46</ele>
        <time>2025-04-30T05:56:18.751Z</time>
      </trkpt>
      <trkpt lat="47.7566" lon="6.58908">
        <ele>332.55</ele>
        <time>2025-04-30T05:56:18.844Z</time>
      </trkpt>
      <trkpt lat="47.75662" lon="6.58913">
        <ele>332.65</ele>
        <time>2025-04-30T05:56:18.938Z</time>
      </trkpt>
      <trkpt lat="47.75665" lon="6.58918">
        <ele>332.75</ele>
        <time>2025-04-30T05:56:19.033Z</time>
      </trkpt>
      <trkpt lat="47.75668" lon="6.58921">
        <ele>332.87</ele>
        <time>2025-04-30T05:56:19.129Z</time>
      </trkpt>
      <trkpt lat="47.75672" lon="6.58923">
        <ele>333.01</ele>
        <time>2025-04-30T05:56:19.225Z</time>
      </trkpt>
      <trkpt lat="47.75675" lon="6.58925">
        <ele>333.16</ele>
        <time>2025-04-30T05:56:19.322Z</time>
      </trkpt>
      <trkpt lat="47.75677" lon="6.58925">
        <ele>333.33</ele>
        <time>2025-04-30T05:56:19.420Z</time>
      </trkpt>
      <trkpt lat="47.75681" lon="6.58926">
        <ele>333.51</ele>
        <time>2025-04-30T05:56:19.518Z</time>
      </trkpt>
      <trkpt lat="47.75685" lon="6.58928">
        <ele>333.71</ele>
        <time>2025-04-30T05:56:19.617Z</time>
      </trkpt>
      <trkpt lat="47.75688" lon="6.58929">
        <ele>333.93</ele>
        <time>2025-04-30T05:56:19.717Z</time>
      </trkpt>
      <trkpt lat="47.75704" lon="6.58933">
        <ele>334.16</ele>
        <time>2025-04-30T05:56:19.820Z</time>
      </trkpt>
      <trkpt lat="47.75722" lon="6.58935">
        <ele>334.45</ele>
        <time>2025-04-30T05:56:19.927Z</time>
      </trkpt>
      <trkpt lat="47.75728" lon="6.58936">
        <ele>334.75</ele>
        <time>2025-04-30T05:56:20.036Z</time>
      </trkpt>
      <trkpt lat="47.75733" lon="6.58937">
        <ele>335.07</ele>
        <time>2025-04-30T05:56:20.146Z</time>
      </trkpt>
      <trkpt lat="47.75737" lon="6.58937">
        <ele>335.42</ele>
        <time>2025-04-30T05:56:20.257Z</time>
      </trkpt>
      <trkpt lat="47.7574" lon="6.58938">
        <ele>335.78</ele>
        <time>2025-04-30T05:56:20.368Z</time>
      </trkpt>
      <trkpt lat="47.75746" lon="6.5894">
        <ele>336.18</ele>
        <time>2025-04-30T05:56:20.480Z</time>
      </trkpt>
      <trkpt lat="47.75753" lon="6.58944">
        <ele>336.61</ele>
        <time>2025-04-30T05:56:20.594Z</time>
      </trkpt>
      <trkpt lat="47.75758" lon="6.58947">
        <ele>337.05</ele>
        <time>2025-04-30T05:56:20.709Z</time>
      </trkpt>
      <trkpt lat="47.75768" lon="6.58955">
        <ele>337.55</ele>
        <time>2025-04-30T05:56:20.827Z</time>
      </trkpt>
      <trkpt lat="47.75773" lon="6.58959">
        <ele>338.04</ele>
        <time>2025-04-30T05:56:20.946Z</time>
      </trkpt>
      <trkpt lat="47.75776" lon="6.58961">
        <ele>338.54</ele>
        <time>2025-04-30T05:56:21.066Z</time>
      </trkpt>
      <trkpt lat="47.7578" lon="6.58964">
        <ele>339.05</ele>
        <time>2025-04-30T05:56:21.187Z</time>
      </trkpt>
      <trkpt lat="47.75783" lon="6.58965">
        <ele>339.57</ele>
        <time>2025-04-30T05:56:21.308Z</time>
      </trkpt>
      <trkpt lat="47.75786" lon="6.58965">
        <ele>340.09</ele>
        <time>2025-04-30T05:56:21.430Z</time>
      </trkpt>
      <trkpt lat="47.7579" lon="6.58966">
        <ele>340.63</ele>
        <time>2025-04-30T05:56:21.553Z</time>
      </trkpt>
      <trkpt lat="47.75796" lon="6.58968">
        <ele>341.19</ele>
        <time>2025-04-30T05:56:21.677Z</time>
      </trkpt>
      <trkpt lat="47.75801" lon="6.5897">
        <ele>341.75</ele>
        <time>2025-04-30T05:56:21.802Z</time>
      </trkpt>
      <trkpt lat="47.75805" lon="6.58972">
        <ele>342.31</ele>
        <time>2025-04-30T05:56:21.928Z</time>
      </trkpt>
      <trkpt lat="47.75812" lon="6.58975">
        <ele>342.89</ele>
        <time>2025-04-30T05:56:22.056Z</time>
      </trkpt>
      <trkpt lat="47.75814" lon="6.58976">
        <ele>343.44</ele>
        <time>2025-04-30T05:56:22.184Z</time>
      </trkpt>
      <trkpt lat="47.75824" lon="6.58983">
        <ele>344.04</ele>
        <time>2025-04-30T05:56:22.315Z</time>
      </trkpt>
      <trkpt lat="47.75826" lon="6.58985">
        <ele>344.59</ele>
        <time>2025-04-30T05:56:22.446Z</time>
      </trkpt>
      <trkpt lat="47.7583" lon="6.58989">
        <ele>345.15</ele>
        <time>2025-04-30T05:56:22.578Z</time>
      </trkpt>
      <trkpt lat="47.75837" lon="6.58995">
        <ele>345.73</ele>
        <time>2025-04-30T05:56:22.712Z</time>
      </trkpt>
      <trkpt lat="47.75841" lon="6.59">
        <ele>346.27</ele>
        <time>2025-04-30T05:56:22.847Z</time>
      </trkpt>
      <trkpt lat="47.75843" lon="6.59003">
        <ele>346.79</ele>
        <time>2025-04-30T05:56:22.983Z</time>
      </trkpt>
      <trkpt lat="47.75846" lon="6.59006">
        <ele>347.28</ele>
        <time>2025-04-30T05:56:23.119Z</time>
      </trkpt>
      <trkpt lat="47.75847" lon="6.59008">
        <ele>347.76</ele>
        <time>2025-04-30T05:56:23.256Z</time>
      </trkpt>
      <trkpt lat="47.75849" lon="6.5901">
        <ele>348.21</ele>
        <time>2025-04-30T05:56:23.393Z</time>
      </trkpt>
      <trkpt lat="47.7585" lon="6.59011">
        <ele>348.65</ele>
        <time>2025-04-30T05:56:23.531Z</time>
      </trkpt>
      <trkpt lat="47.75853" lon="6.59014">
        <ele>349.07</ele>
        <time>2025-04-30T05:56:23.669Z</time>
      </trkpt>
      <trkpt lat="47.75858" lon="6.59017">
        <ele>349.47</ele>
        <time>2025-04-30T05:56:23.809Z</time>
      </trkpt>
      <trkpt lat="47.75861" lon="6.59019">
        <ele>349.86</ele>
        <time>2025-04-30T05:56:23.949Z</time>
      </trkpt>
      <trkpt lat="47.75864" lon="6.59021">
        <ele>350.22</ele>
        <time>2025-04-30T05:56:24.090Z</time>
      </trkpt>
      <trkpt lat="47.75867" lon="6.59023">
        <ele>350.56</ele>
        <time>2025-04-30T05:56:24.232Z</time>
      </trkpt>
      <trkpt lat="47.75869" lon="6.59026">
        <ele>350.89</ele>
        <time>2025-04-30T05:56:24.374Z</time>
      </trkpt>
      <trkpt lat="47.75871" lon="6.5903">
        <ele>351.19</ele>
        <time>2025-04-30T05:56:24.517Z</time>
      </trkpt>
      <trkpt lat="47.75872" lon="6.59035">
        <ele>351.48</ele>
        <time>2025-04-30T05:56:24.661Z</time>
      </trkpt>
      <trkpt lat="47.75873" lon="6.5904">
        <ele>351.75</ele>
        <time>2025-04-30T05:56:24.805Z</time>
      </trkpt>
      <trkpt lat="47.75874" lon="6.59044">
        <ele>352</ele>
        <time>2025-04-30T05:56:24.950Z</time>
      </trkpt>
      <trkpt lat="47.75875" lon="6.59049">
        <ele>352.24</ele>
        <time>2025-04-30T05:56:25.096Z</time>
      </trkpt>
      <trkpt lat="47.75875" lon="6.59054">
        <ele>352.46</ele>
        <time>2025-04-30T05:56:25.242Z</time>
      </trkpt>
      <trkpt lat="47.75875" lon="6.59059">
        <ele>352.67</ele>
        <time>2025-04-30T05:56:25.389Z</time>
      </trkpt>
      <trkpt lat="47.75875" lon="6.59063">
        <ele>352.86</ele>
        <time>2025-04-30T05:56:25.537Z</time>
      </trkpt>
      <trkpt lat="47.75875" lon="6.59068">
        <ele>353.04</ele>
        <time>2025-04-30T05:56:25.685Z</time>
      </trkpt>
      <trkpt lat="47.75875" lon="6.59073">
        <ele>353.19</ele>
        <time>2025-04-30T05:56:25.834Z</time>
      </trkpt>
      <trkpt lat="47.75876" lon="6.59077">
        <ele>353.34</ele>
        <time>2025-04-30T05:56:25.984Z</time>
      </trkpt>
      <trkpt lat="47.75877" lon="6.59082">
        <ele>353.48</ele>
        <time>2025-04-30T05:56:26.135Z</time>
      </trkpt>
      <trkpt lat="47.75879" lon="6.59086">
        <ele>353.61</ele>
        <time>2025-04-30T05:56:26.286Z</time>
      </trkpt>
      <trkpt lat="47.75881" lon="6.59091">
        <ele>353.74</ele>
        <time>2025-04-30T05:56:26.438Z</time>
      </trkpt>
      <trkpt lat="47.75883" lon="6.59094">
        <ele>353.85</ele>
        <time>2025-04-30T05:56:26.591Z</time>
      </trkpt>
      <trkpt lat="47.75885" lon="6.59098">
        <ele>353.96</ele>
        <time>2025-04-30T05:56:26.744Z</time>
      </trkpt>
      <trkpt lat="47.75887" lon="6.591">
        <ele>354.06</ele>
        <time>2025-04-30T05:56:26.898Z</time>
      </trkpt>
      <trkpt lat="47.75889" lon="6.59102">
        <ele>354.15</ele>
        <time>2025-04-30T05:56:27.053Z</time>
      </trkpt>
      <trkpt lat="47.75892" lon="6.59104">
        <ele>354.24</ele>
        <time>2025-04-30T05:56:27.208Z</time>
      </trkpt>
      <trkpt lat="47.75895" lon="6.59104">
        <ele>354.32</ele>
        <time>2025-04-30T05:56:27.364Z</time>
      </trkpt>
      <trkpt lat="47.75899" lon="6.59105">
        <ele>354.39</ele>
        <time>2025-04-30T05:56:27.521Z</time>
      </trkpt>
      <trkpt lat="47.75903" lon="6.59105">
        <ele>354.46</ele>
        <time>2025-04-30T05:56:27.679Z</time>
      </trkpt>
      <trkpt lat="47.75906" lon="6.59106">
        <ele>354.52</ele>
        <time>2025-04-30T05:56:27.837Z</time>
      </trkpt>
      <trkpt lat="47.75911" lon="6.59109">
        <ele>354.58</ele>
        <time>2025-04-30T05:56:27.996Z</time>
      </trkpt>
      <trkpt lat="47.75914" lon="6.59112">
        <ele>354.63</ele>
        <time>2025-04-30T05:56:28.156Z</time>
      </trkpt>
      <trkpt lat="47.75917" lon="6.59115">
        <ele>354.68</ele>
        <time>2025-04-30T05:56:28.317Z</time>
      </trkpt>
      <trkpt lat="47.7592" lon="6.59118">
        <ele>354.72</ele>
        <time>2025-04-30T05:56:28.479Z</time>
      </trkpt>
      <trkpt lat="47.75923" lon="6.59121">
        <ele>354.76</ele>
        <time>2025-04-30T05:56:28.642Z</time>
      </trkpt>
      <trkpt lat="47.75926" lon="6.59123">
        <ele>354.8</ele>
        <time>2025-04-30T05:56:28.805Z</time>
      </trkpt>
      <trkpt lat="47.75929" lon="6.59125">
        <ele>354.82</ele>
        <time>2025-04-30T05:56:28.969Z</time>
      </trkpt>
      <trkpt lat="47.75931" lon="6.59128">
        <ele>354.84</ele>
        <time>2025-04-30T05:56:29.133Z</time>
      </trkpt>
      <trkpt lat="47.75933" lon="6.59132">
        <ele>354.87</ele>
        <time>2025-04-30T05:56:29.298Z</time>
      </trkpt>
      <trkpt lat="47.75935" lon="6.59135">
        <ele>354.88</ele>
        <time>2025-04-30T05:56:29.464Z</time>
      </trkpt>
      <trkpt lat="47.75937" lon="6.59139">
        <ele>354.9</ele>
        <time>2025-04-30T05:56:29.630Z</time>
      </trkpt>
      <trkpt lat="47.75938" lon="6.59143">
        <ele>354.92</ele>
        <time>2025-04-30T05:56:29.797Z</time>
      </trkpt>
      <trkpt lat="47.7594" lon="6.59147">
        <ele>354.94</ele>
        <time>2025-04-30T05:56:29.965Z</time>
      </trkpt>
      <trkpt lat="47.75942" lon="6.59151">
        <ele>354.96</ele>
        <time>2025-04-30T05:56:30.134Z</time>
      </trkpt>
      <trkpt lat="47.75943" lon="6.59155">
        <ele>354.98</ele>
        <time>2025-04-30T05:56:30.303Z</time>
      </trkpt>
      <trkpt lat="47.75944" lon="6.59158">
        <ele>355</ele>
        <time>2025-04-30T05:56:30.473Z</time>
      </trkpt>
      <trkpt lat="47.75944" lon="6.59161">
        <ele>355.02</ele>
        <time>2025-04-30T05:56:30.643Z</time>
      </trkpt>
      <trkpt lat="47.75945" lon="6.59163">
        <ele>355.05</ele>
        <time>2025-04-30T05:56:30.814Z</time>
      </trkpt>
      <trkpt lat="47.75947" lon="6.59166">
        <ele>355.08</ele>
        <time>2025-04-30T05:56:30.985Z</time>
      </trkpt>
      <trkpt lat="47.75949" lon="6.59166">
        <ele>355.1</ele>
        <time>2025-04-30T05:56:31.156Z</time>
      </trkpt>
      <trkpt lat="47.75952" lon="6.59165">
        <ele>355.13</ele>
        <time>2025-04-30T05:56:31.328Z</time>
      </trkpt>
      <trkpt lat="47.75954" lon="6.59163">
        <ele>355.16</ele>
        <time>2025-04-30T05:56:31.501Z</time>
      </trkpt>
      <trkpt lat="47.75955" lon="6.59159">
        <ele>355.2</ele>
        <time>2025-04-30T05:56:31.674Z</time>
      </trkpt>
      <trkpt lat="47.75958" lon="6.59155">
        <ele>355.23</ele>
        <time>2025-04-30T05:56:31.848Z</time>
      </trkpt>
      <trkpt lat="47.7596" lon="6.59151">
        <ele>355.28</ele>
        <time>2025-04-30T05:56:32.023Z</time>
      </trkpt>
      <trkpt lat="47.75962" lon="6.59148">
        <ele>355.34</ele>
        <time>2025-04-30T05:56:32.198Z</time>
      </trkpt>
      <trkpt lat="47.75964" lon="6.59144">
        <ele>355.4</ele>
        <time>2025-04-30T05:56:32.374Z</time>
      </trkpt>
      <trkpt lat="47.75967" lon="6.5914">
        <ele>355.48</ele>
        <time>2025-04-30T05:56:32.551Z</time>
      </trkpt>
      <trkpt lat="47.75969" lon="6.59136">
        <ele>355.56</ele>
        <time>2025-04-30T05:56:32.729Z</time>
      </trkpt>
      <trkpt lat="47.75971" lon="6.59133">
        <ele>355.65</ele>
        <time>2025-04-30T05:56:32.907Z</time>
      </trkpt>
      <trkpt lat="47.75973" lon="6.59129">
        <ele>355.74</ele>
        <time>2025-04-30T05:56:33.086Z</time>
      </trkpt>
      <trkpt lat="47.75976" lon="6.59125">
        <ele>355.85</ele>
        <time>2025-04-30T05:56:33.266Z</time>
      </trkpt>
      <trkpt lat="47.75978" lon="6.59121">
        <ele>355.97</ele>
        <time>2025-04-30T05:56:33.447Z</time>
      </trkpt>
      <trkpt lat="47.75981" lon="6.59117">
        <ele>356.09</ele>
        <time>2025-04-30T05:56:33.628Z</time>
      </trkpt>
      <trkpt lat="47.75984" lon="6.59113">
        <ele>356.24</ele>
        <time>2025-04-30T05:56:33.810Z</time>
      </trkpt>
      <trkpt lat="47.75988" lon="6.59109">
        <ele>356.4</ele>
        <time>2025-04-30T05:56:33.993Z</time>
      </trkpt>
      <trkpt lat="47.75991" lon="6.59105">
        <ele>356.57</ele>
        <time>2025-04-30T05:56:34.177Z</time>
      </trkpt>
      <trkpt lat="47.75995" lon="6.59101">
        <ele>356.75</ele>
        <time>2025-04-30T05:56:34.362Z</time>
      </trkpt>
      <trkpt lat="47.75999" lon="6.59099">
        <ele>356.94</ele>
        <time>2025-04-30T05:56:34.548Z</time>
      </trkpt>
      <trkpt lat="47.76003" lon="6.59096">
        <ele>357.13</ele>
        <time>2025-04-30T05:56:34.735Z</time>
      </trkpt>
      <trkpt lat="47.76006" lon="6.59094">
        <ele>357.34</ele>
        <time>2025-04-30T05:56:34.923Z</time>
      </trkpt>
      <trkpt lat="47.76011" lon="6.59094">
        <ele>357.56</ele>
        <time>2025-04-30T05:56:35.112Z</time>
      </trkpt>
      <trkpt lat="47.76016" lon="6.59095">
        <ele>357.8</ele>
        <time>2025-04-30T05:56:35.302Z</time>
      </trkpt>
      <trkpt lat="47.76021" lon="6.59099">
        <ele>358.03</ele>
        <time>2025-04-30T05:56:35.493Z</time>
      </trkpt>
      <trkpt lat="47.76025" lon="6.59103">
        <ele>358.27</ele>
        <time>2025-04-30T05:56:35.685Z</time>
      </trkpt>
      <trkpt lat="47.76028" lon="6.59109">
        <ele>358.52</ele>
        <time>2025-04-30T05:56:35.878Z</time>
      </trkpt>
      <trkpt lat="47.76031" lon="6.59115">
        <ele>358.76</ele>
        <time>2025-04-30T05:56:36.072Z</time>
      </trkpt>
      <trkpt lat="47.76033" lon="6.5912">
        <ele>359.01</ele>
        <time>2025-04-30T05:56:36.267Z</time>
      </trkpt>
      <trkpt lat="47.76036" lon="6.59126">
        <ele>359.26</ele>
        <time>2025-04-30T05:56:36.463Z</time>
      </trkpt>
      <trkpt lat="47.76038" lon="6.59129">
        <ele>359.52</ele>
        <time>2025-04-30T05:56:36.660Z</time>
      </trkpt>
      <trkpt lat="47.76041" lon="6.59133">
        <ele>359.77</ele>
        <time>2025-04-30T05:56:36.858Z</time>
      </trkpt>
      <trkpt lat="47.76044" lon="6.59136">
        <ele>360.02</ele>
        <time>2025-04-30T05:56:37.057Z</time>
      </trkpt>
      <trkpt lat="47.76047" lon="6.59139">
        <ele>360.26</ele>
        <time>2025-04-30T05:56:37.256Z</time>
      </trkpt>
      <trkpt lat="47.76051" lon="6.59141">
        <ele>360.49</ele>
        <time>2025-04-30T05:56:37.456Z</time>
      </trkpt>
      <trkpt lat="47.76054" lon="6.59143">
        <ele>360.72</ele>
        <time>2025-04-30T05:56:37.657Z</time>
      </trkpt>
      <trkpt lat="47.76057" lon="6.59145">
        <ele>360.93</ele>
        <time>2025-04-30T05:56:37.859Z</time>
      </trkpt>
      <trkpt lat="47.7606" lon="6.59146">
        <ele>361.14</ele>
        <time>2025-04-30T05:56:38.061Z</time>
      </trkpt>
      <trkpt lat="47.76065" lon="6.59144">
        <ele>361.31</ele>
        <time>2025-04-30T05:56:38.264Z</time>
      </trkpt>
      <trkpt lat="47.76069" lon="6.59141">
        <ele>361.48</ele>
        <time>2025-04-30T05:56:38.468Z</time>
      </trkpt>
      <trkpt lat="47.76071" lon="6.59138">
        <ele>361.61</ele>
        <time>2025-04-30T05:56:38.673Z</time>
      </trkpt>
      <trkpt lat="47.76073" lon="6.59136">
        <ele>361.73</ele>
        <time>2025-04-30T05:56:38.878Z</time>
      </trkpt>
      <trkpt lat="47.76074" lon="6.59134">
        <ele>361.83</ele>
        <time>2025-04-30T05:56:39.084Z</time>
      </trkpt>
      <trkpt lat="47.76075" lon="6.59131">
        <ele>361.9</ele>
        <time>2025-04-30T05:56:39.290Z</time>
      </trkpt>
      <trkpt lat="47.76074" lon="6.59129">
        <ele>361.94</ele>
        <time>2025-04-30T05:56:39.497Z</time>
      </trkpt>
      <trkpt lat="47.76073" lon="6.59127">
        <ele>361.96</ele>
        <time>2025-04-30T05:56:39.704Z</time>
      </trkpt>
      <trkpt lat="47.7607" lon="6.59119">
        <ele>361.94</ele>
        <time>2025-04-30T05:56:39.912Z</time>
      </trkpt>
      <trkpt lat="47.76067" lon="6.59103">
        <ele>361.88</ele>
        <time>2025-04-30T05:56:40.123Z</time>
      </trkpt>
      <trkpt lat="47.76067" lon="6.59097">
        <ele>361.83</ele>
        <time>2025-04-30T05:56:40.335Z</time>
      </trkpt>
      <trkpt lat="47.76067" lon="6.59092">
        <ele>361.76</ele>
        <time>2025-04-30T05:56:40.547Z</time>
      </trkpt>
      <trkpt lat="47.76067" lon="6.59086">
        <ele>361.66</ele>
        <time>2025-04-30T05:56:40.760Z</time>
      </trkpt>
      <trkpt lat="47.76067" lon="6.59082">
        <ele>361.55</ele>
        <time>2025-04-30T05:56:40.974Z</time>
      </trkpt>
      <trkpt lat="47.76067" lon="6.59078">
        <ele>361.42</ele>
        <time>2025-04-30T05:56:41.188Z</time>
      </trkpt>
      <trkpt lat="47.76068" lon="6.59073">
        <ele>361.27</ele>
        <time>2025-04-30T05:56:41.403Z</time>
      </trkpt>
      <trkpt lat="47.76066" lon="6.5907">
        <ele>361.09</ele>
        <time>2025-04-30T05:56:41.619Z</time>
      </trkpt>
      <trkpt lat="47.76065" lon="6.59067">
        <ele>360.89</ele>
        <time>2025-04-30T05:56:41.835Z</time>
      </trkpt>
      <trkpt lat="47.76063" lon="6.59066">
        <ele>360.68</ele>
        <time>2025-04-30T05:56:42.052Z</time>
      </trkpt>
      <trkpt lat="47.76063" lon="6.59065">
        <ele>360.45</ele>
        <time>2025-04-30T05:56:42.269Z</time>
      </trkpt>
      <trkpt lat="47.76062" lon="6.59065">
        <ele>360.21</ele>
        <time>2025-04-30T05:56:42.486Z</time>
      </trkpt>
      <trkpt lat="47.76062" lon="6.59065">
        <ele>359.94</ele>
        <time>2025-04-30T05:56:42.703Z</time>
      </trkpt>
      <trkpt lat="47.76056" lon="6.59055">
        <ele>359.65</ele>
        <time>2025-04-30T05:56:42.922Z</time>
      </trkpt>
      <trkpt lat="47.76052" lon="6.59047">
        <ele>359.36</ele>
        <time>2025-04-30T05:56:43.142Z</time>
      </trkpt>
      <trkpt lat="47.76052" lon="6.59042">
        <ele>359.05</ele>
        <time>2025-04-30T05:56:43.363Z</time>
      </trkpt>
      <trkpt lat="47.76052" lon="6.59037">
        <ele>358.72</ele>
        <time>2025-04-30T05:56:43.585Z</time>
      </trkpt>
      <trkpt lat="47.76051" lon="6.5903">
        <ele>358.37</ele>
        <time>2025-04-30T05:56:43.808Z</time>
      </trkpt>
      <trkpt lat="47.76049" lon="6.59022">
        <ele>358</ele>
        <time>2025-04-30T05:56:44.032Z</time>
      </trkpt>
      <trkpt lat="47.7605" lon="6.59019">
        <ele>357.62</ele>
        <time>2025-04-30T05:56:44.256Z</time>
      </trkpt>
      <trkpt lat="47.76051" lon="6.5901">
        <ele>357.22</ele>
        <time>2025-04-30T05:56:44.482Z</time>
      </trkpt>
      <trkpt lat="47.76052" lon="6.59006">
        <ele>356.81</ele>
        <time>2025-04-30T05:56:44.708Z</time>
      </trkpt>
      <trkpt lat="47.76054" lon="6.59002">
        <ele>356.38</ele>
        <time>2025-04-30T05:56:44.935Z</time>
      </trkpt>
      <trkpt lat="47.76057" lon="6.58997">
        <ele>355.96</ele>
        <time>2025-04-30T05:56:45.163Z</time>
      </trkpt>
      <trkpt lat="47.7606" lon="6.5899">
        <ele>355.5</ele>
        <time>2025-04-30T05:56:45.392Z</time>
      </trkpt>
      <trkpt lat="47.76061" lon="6.58983">
        <ele>355.04</ele>
        <time>2025-04-30T05:56:45.622Z</time>
      </trkpt>
      <trkpt lat="47.76067" lon="6.58971">
        <ele>354.56</ele>
        <time>2025-04-30T05:56:45.854Z</time>
      </trkpt>
      <trkpt lat="47.76069" lon="6.58964">
        <ele>354.08</ele>
        <time>2025-04-30T05:56:46.087Z</time>
      </trkpt>
      <trkpt lat="47.76071" lon="6.58956">
        <ele>353.59</ele>
        <time>2025-04-30T05:56:46.322Z</time>
      </trkpt>
      <trkpt lat="47.76074" lon="6.58949">
        <ele>353.1</ele>
        <time>2025-04-30T05:56:46.558Z</time>
      </trkpt>
      <trkpt lat="47.76074" lon="6.58935">
        <ele>352.58</ele>
        <time>2025-04-30T05:56:46.796Z</time>
      </trkpt>
      <trkpt lat="47.76072" lon="6.58928">
        <ele>352.08</ele>
        <time>2025-04-30T05:56:47.035Z</time>
      </trkpt>
      <trkpt lat="47.7607" lon="6.5892">
        <ele>351.57</ele>
        <time>2025-04-30T05:56:47.275Z</time>
      </trkpt>
      <trkpt lat="47.76068" lon="6.58911">
        <ele>351.07</ele>
        <time>2025-04-30T05:56:47.517Z</time>
      </trkpt>
      <trkpt lat="47.76065" lon="6.58904">
        <ele>350.57</ele>
        <time>2025-04-30T05:56:47.760Z</time>
      </trkpt>
      <trkpt lat="47.76064" lon="6.58899">
        <ele>350.08</ele>
        <time>2025-04-30T05:56:48.004Z</time>
      </trkpt>
      <trkpt lat="47.76063" lon="6.58894">
        <ele>349.6</ele>
        <time>2025-04-30T05:56:48.248Z</time>
      </trkpt>
      <trkpt lat="47.76063" lon="6.58889">
        <ele>349.11</ele>
        <time>2025-04-30T05:56:48.493Z</time>
      </trkpt>
      <trkpt lat="47.76062" lon="6.58884">
        <ele>348.64</ele>
        <time>2025-04-30T05:56:48.739Z</time>
      </trkpt>
      <trkpt lat="47.76062" lon="6.5888">
        <ele>348.17</ele>
        <time>2025-04-30T05:56:48.985Z</time>
      </trkpt>
      <trkpt lat="47.76064" lon="6.58869">
        <ele>347.69</ele>
        <time>2025-04-30T05:56:49.233Z</time>
      </trkpt>
      <trkpt lat="47.76066" lon="6.58862">
        <ele>347.24</ele>
        <time>2025-04-30T05:56:49.482Z</time>
      </trkpt>
      <trkpt lat="47.76067" lon="6.58859">
        <ele>346.81</ele>
        <time>2025-04-30T05:56:49.732Z</time>
      </trkpt>
      <trkpt lat="47.7607" lon="6.58843">
        <ele>346.37</ele>
        <time>2025-04-30T05:56:49.984Z</time>
      </trkpt>
      <trkpt lat="47.76069" lon="6.58833">
        <ele>345.96</ele>
        <time>2025-04-30T05:56:50.237Z</time>
      </trkpt>
      <trkpt lat="47.76068" lon="6.58828">
        <ele>345.57</ele>
        <time>2025-04-30T05:56:50.491Z</time>
      </trkpt>
      <trkpt lat="47.76066" lon="6.58822">
        <ele>345.2</ele>
        <time>2025-04-30T05:56:50.746Z</time>
      </trkpt>
      <trkpt lat="47.76062" lon="6.58812">
        <ele>344.83</ele>
        <time>2025-04-30T05:56:51.003Z</time>
      </trkpt>
      <trkpt lat="47.76059" lon="6.58809">
        <ele>344.51</ele>
        <time>2025-04-30T05:56:51.261Z</time>
      </trkpt>
      <trkpt lat="47.76056" lon="6.58807">
        <ele>344.23</ele>
        <time>2025-04-30T05:56:51.519Z</time>
      </trkpt>
      <trkpt lat="47.76054" lon="6.58805">
        <ele>343.97</ele>
        <time>2025-04-30T05:56:51.778Z</time>
      </trkpt>
      <trkpt lat="47.76051" lon="6.58803">
        <ele>343.74</ele>
        <time>2025-04-30T05:56:52.037Z</time>
      </trkpt>
      <trkpt lat="47.76051" lon="6.588">
        <ele>343.54</ele>
        <time>2025-04-30T05:56:52.297Z</time>
      </trkpt>
      <trkpt lat="47.76051" lon="6.58798">
        <ele>343.37</ele>
        <time>2025-04-30T05:56:52.557Z</time>
      </trkpt>
      <trkpt lat="47.76052" lon="6.58797">
        <ele>343.24</ele>
        <time>2025-04-30T05:56:52.817Z</time>
      </trkpt>
      <trkpt lat="47.76053" lon="6.58796">
        <ele>343.14</ele>
        <time>2025-04-30T05:56:53.078Z</time>
      </trkpt>
      <trkpt lat="47.76054" lon="6.58794">
        <ele>343.07</ele>
        <time>2025-04-30T05:56:53.339Z</time>
      </trkpt>
      <trkpt lat="47.76056" lon="6.58793">
        <ele>343.04</ele>
        <time>2025-04-30T05:56:53.600Z</time>
      </trkpt>
      <trkpt lat="47.76057" lon="6.58792">
        <ele>343.04</ele>
        <time>2025-04-30T05:56:53.862Z</time>
      </trkpt>
      <trkpt lat="47.76066" lon="6.58784">
        <ele>343.06</ele>
        <time>2025-04-30T05:56:54.126Z</time>
      </trkpt>
      <trkpt lat="47.76071" lon="6.58781">
        <ele>343.13</ele>
        <time>2025-04-30T05:56:54.391Z</time>
      </trkpt>
      <trkpt lat="47.76076" lon="6.58779">
        <ele>343.25</ele>
        <time>2025-04-30T05:56:54.657Z</time>
      </trkpt>
      <trkpt lat="47.76078" lon="6.58778">
        <ele>343.39</ele>
        <time>2025-04-30T05:56:54.924Z</time>
      </trkpt>
      <trkpt lat="47.7608" lon="6.58777">
        <ele>343.56</ele>
        <time>2025-04-30T05:56:55.191Z</time>
      </trkpt>
      <trkpt lat="47.76085" lon="6.58775">
        <ele>343.77</ele>
        <time>2025-04-30T05:56:55.459Z</time>
      </trkpt>
      <trkpt lat="47.76087" lon="6.58775">
        <ele>344</ele>
        <time>2025-04-30T05:56:55.728Z</time>
      </trkpt>
      <trkpt lat="47.76096" lon="6.58772">
        <ele>344.3</ele>
        <time>2025-04-30T05:56:55.999Z</time>
      </trkpt>
      <trkpt lat="47.76098" lon="6.58772">
        <ele>344.59</ele>
        <time>2025-04-30T05:56:56.270Z</time>
      </trkpt>
      <trkpt lat="47.76101" lon="6.58772">
        <ele>344.91</ele>
        <time>2025-04-30T05:56:56.542Z</time>
      </trkpt>
      <trkpt lat="47.76103" lon="6.58772">
        <ele>345.25</ele>
        <time>2025-04-30T05:56:56.814Z</time>
      </trkpt>
      <trkpt lat="47.76105" lon="6.58772">
        <ele>345.61</ele>
        <time>2025-04-30T05:56:57.086Z</time>
      </trkpt>
      <trkpt lat="47.76107" lon="6.58773">
        <ele>346</ele>
        <time>2025-04-30T05:56:57.359Z</time>
      </trkpt>
      <trkpt lat="47.76111" lon="6.58774">
        <ele>346.41</ele>
        <time>2025-04-30T05:56:57.633Z</time>
      </trkpt>
      <trkpt lat="47.76114" lon="6.58776">
        <ele>346.84</ele>
        <time>2025-04-30T05:56:57.908Z</time>
      </trkpt>
      <trkpt lat="47.76121" lon="6.58781">
        <ele>347.3</ele>
        <time>2025-04-30T05:56:58.184Z</time>
      </trkpt>
      <trkpt lat="47.76123" lon="6.58783">
        <ele>347.75</ele>
        <time>2025-04-30T05:56:58.461Z</time>
      </trkpt>
      <trkpt lat="47.76125" lon="6.58786">
        <ele>348.21</ele>
        <time>2025-04-30T05:56:58.738Z</time>
      </trkpt>
      <trkpt lat="47.76128" lon="6.58788">
        <ele>348.69</ele>
        <time>2025-04-30T05:56:59.016Z</time>
      </trkpt>
      <trkpt lat="47.76136" lon="6.58796">
        <ele>349.19</ele>
        <time>2025-04-30T05:56:59.296Z</time>
      </trkpt>
      <trkpt lat="47.76143" lon="6.58801">
        <ele>349.69</ele>
        <time>2025-04-30T05:56:59.578Z</time>
      </trkpt>
      <trkpt lat="47.76145" lon="6.58804">
        <ele>350.18</ele>
        <time>2025-04-30T05:56:59.860Z</time>
      </trkpt>
      <trkpt lat="47.76147" lon="6.58807">
        <ele>350.68</ele>
        <time>2025-04-30T05:57:00.143Z</time>
      </trkpt>
      <trkpt lat="47.7615" lon="6.58811">
        <ele>351.18</ele>
        <time>2025-04-30T05:57:00.427Z</time>
      </trkpt>
      <trkpt lat="47.76155" lon="6.58815">
        <ele>351.68</ele>
        <time>2025-04-30T05:57:00.712Z</time>
      </trkpt>
      <trkpt lat="47.76157" lon="6.58819">
        <ele>352.18</ele>
        <time>2025-04-30T05:57:00.998Z</time>
      </trkpt>
      <trkpt lat="47.76159" lon="6.58823">
        <ele>352.67</ele>
        <time>2025-04-30T05:57:01.285Z</time>
      </trkpt>
      <trkpt lat="47.76163" lon="6.58826">
        <ele>353.16</ele>
        <time>2025-04-30T05:57:01.572Z</time>
      </trkpt>
      <trkpt lat="47.76166" lon="6.58829">
        <ele>353.64</ele>
        <time>2025-04-30T05:57:01.860Z</time>
      </trkpt>
      <trkpt lat="47.76169" lon="6.58832">
        <ele>354.11</ele>
        <time>2025-04-30T05:57:02.149Z</time>
      </trkpt>
      <trkpt lat="47.76172" lon="6.58835">
        <ele>354.57</ele>
        <time>2025-04-30T05:57:02.439Z</time>
      </trkpt>
      <trkpt lat="47.76177" lon="6.5884">
        <ele>355.04</ele>
        <time>2025-04-30T05:57:02.730Z</time>
      </trkpt>
      <trkpt lat="47.7618" lon="6.58842">
        <ele>355.49</ele>
        <time>2025-04-30T05:57:03.022Z</time>
      </trkpt>
      <trkpt lat="47.76181" lon="6.58843">
        <ele>355.91</ele>
        <time>2025-04-30T05:57:03.314Z</time>
      </trkpt>
      <trkpt lat="47.76183" lon="6.58844">
        <ele>356.32</ele>
        <time>2025-04-30T05:57:03.607Z</time>
      </trkpt>
      <trkpt lat="47.76185" lon="6.58845">
        <ele>356.72</ele>
        <time>2025-04-30T05:57:03.900Z</time>
      </trkpt>
      <trkpt lat="47.7619" lon="6.58847">
        <ele>357.1</ele>
        <time>2025-04-30T05:57:04.194Z</time>
      </trkpt>
      <trkpt lat="47.76193" lon="6.58848">
        <ele>357.47</ele>
        <time>2025-04-30T05:57:04.489Z</time>
      </trkpt>
      <trkpt lat="47.76196" lon="6.58848">
        <ele>357.81</ele>
        <time>2025-04-30T05:57:04.784Z</time>
      </trkpt>
      <trkpt lat="47.76199" lon="6.58847">
        <ele>358.13</ele>
        <time>2025-04-30T05:57:05.080Z</time>
      </trkpt>
      <trkpt lat="47.76201" lon="6.58846">
        <ele>358.43</ele>
        <time>2025-04-30T05:57:05.376Z</time>
      </trkpt>
      <trkpt lat="47.76203" lon="6.58843">
        <ele>358.7</ele>
        <time>2025-04-30T05:57:05.673Z</time>
      </trkpt>
      <trkpt lat="47.76205" lon="6.58842">
        <ele>358.96</ele>
        <time>2025-04-30T05:57:05.971Z</time>
      </trkpt>
      <trkpt lat="47.76207" lon="6.5884">
        <ele>359.19</ele>
        <time>2025-04-30T05:57:06.269Z</time>
      </trkpt>
      <trkpt lat="47.76209" lon="6.58838">
        <ele>359.41</ele>
        <time>2025-04-30T05:57:06.567Z</time>
      </trkpt>
      <trkpt lat="47.76211" lon="6.58835">
        <ele>359.6</ele>
        <time>2025-04-30T05:57:06.866Z</time>
      </trkpt>
      <trkpt lat="47.76214" lon="6.58833">
        <ele>359.78</ele>
        <time>2025-04-30T05:57:07.166Z</time>
      </trkpt>
      <trkpt lat="47.76217" lon="6.58832">
        <ele>359.94</ele>
        <time>2025-04-30T05:57:07.466Z</time>
      </trkpt>
      <trkpt lat="47.7622" lon="6.58831">
        <ele>360.08</ele>
        <time>2025-04-30T05:57:07.767Z</time>
      </trkpt>
      <trkpt lat="47.76225" lon="6.58829">
        <ele>360.2</ele>
        <time>2025-04-30T05:57:08.069Z</time>
      </trkpt>
      <trkpt lat="47.76228" lon="6.58828">
        <ele>360.3</ele>
        <time>2025-04-30T05:57:08.372Z</time>
      </trkpt>
      <trkpt lat="47.76231" lon="6.58825">
        <ele>360.37</ele>
        <time>2025-04-30T05:57:08.676Z</time>
      </trkpt>
      <trkpt lat="47.76234" lon="6.58824">
        <ele>360.42</ele>
        <time>2025-04-30T05:57:08.980Z</time>
      </trkpt>
      <trkpt lat="47.76236" lon="6.58822">
        <ele>360.45</ele>
        <time>2025-04-30T05:57:09.285Z</time>
      </trkpt>
      <trkpt lat="47.76239" lon="6.58821">
        <ele>360.46</ele>
        <time>2025-04-30T05:57:09.591Z</time>
      </trkpt>
      <trkpt lat="47.76243" lon="6.58821">
        <ele>360.46</ele>
        <time>2025-04-30T05:57:09.897Z</time>
      </trkpt>
      <trkpt lat="47.76246" lon="6.58821">
        <ele>360.44</ele>
        <time>2025-04-30T05:57:10.204Z</time>
      </trkpt>
      <trkpt lat="47.76251" lon="6.58822">
        <ele>360.4</ele>
        <time>2025-04-30T05:57:10.512Z</time>
      </trkpt>
      <trkpt lat="47.76255" lon="6.58824">
        <ele>360.35</ele>
        <time>2025-04-30T05:57:10.821Z</time>
      </trkpt>
      <trkpt lat="47.76259" lon="6.58827">
        <ele>360.29</ele>
        <time>2025-04-30T05:57:11.131Z</time>
      </trkpt>
      <trkpt lat="47.76262" lon="6.5883">
        <ele>360.21</ele>
        <time>2025-04-30T05:57:11.442Z</time>
      </trkpt>
      <trkpt lat="47.76263" lon="6.58831">
        <ele>360.1</ele>
        <time>2025-04-30T05:57:11.753Z</time>
      </trkpt>
      <trkpt lat="47.76264" lon="6.58832">
        <ele>359.98</ele>
        <time>2025-04-30T05:57:12.064Z</time>
      </trkpt>
      <trkpt lat="47.76266" lon="6.58832">
        <ele>359.83</ele>
        <time>2025-04-30T05:57:12.376Z</time>
      </trkpt>
      <trkpt lat="47.76269" lon="6.58832">
        <ele>359.67</ele>
        <time>2025-04-30T05:57:12.688Z</time>
      </trkpt>
      <trkpt lat="47.76271" lon="6.5883">
        <ele>359.49</ele>
        <time>2025-04-30T05:57:13.001Z</time>
      </trkpt>
      <trkpt lat="47.76274" lon="6.58829">
        <ele>359.29</ele>
        <time>2025-04-30T05:57:13.314Z</time>
      </trkpt>
      <trkpt lat="47.76277" lon="6.58826">
        <ele>359.07</ele>
        <time>2025-04-30T05:57:13.628Z</time>
      </trkpt>
      <trkpt lat="47.7628" lon="6.5882">
        <ele>358.81</ele>
        <time>2025-04-30T05:57:13.943Z</time>
      </trkpt>
      <trkpt lat="47.76285" lon="6.58816">
        <ele>358.55</ele>
        <time>2025-04-30T05:57:14.260Z</time>
      </trkpt>
      <trkpt lat="47.7629" lon="6.58813">
        <ele>358.29</ele>
        <time>2025-04-30T05:57:14.578Z</time>
      </trkpt>
      <trkpt lat="47.76297" lon="6.58811">
        <ele>358.03</ele>
        <time>2025-04-30T05:57:14.897Z</time>
      </trkpt>
      <trkpt lat="47.76302" lon="6.58809">
        <ele>357.76</ele>
        <time>2025-04-30T05:57:15.217Z</time>
      </trkpt>
      <trkpt lat="47.76307" lon="6.58806">
        <ele>357.47</ele>
        <time>2025-04-30T05:57:15.538Z</time>
      </trkpt>
      <trkpt lat="47.76315" lon="6.58801">
        <ele>357.17</ele>
        <time>2025-04-30T05:57:15.861Z</time>
      </trkpt>
      <trkpt lat="47.76323" lon="6.58796">
        <ele>356.84</ele>
        <time>2025-04-30T05:57:16.186Z</time>
      </trkpt>
      <trkpt lat="47.76327" lon="6.58792">
        <ele>356.51</ele>
        <time>2025-04-30T05:57:16.512Z</time>
      </trkpt>
      <trkpt lat="47.76335" lon="6.58788">
        <ele>356.18</ele>
        <time>2025-04-30T05:57:16.840Z</time>
      </trkpt>
      <trkpt lat="47.76339" lon="6.58787">
        <ele>355.85</ele>
        <time>2025-04-30T05:57:17.169Z</time>
      </trkpt>
      <trkpt lat="47.76343" lon="6.58786">
        <ele>355.49</ele>
        <time>2025-04-30T05:57:17.499Z</time>
      </trkpt>
      <trkpt lat="47.76348" lon="6.58784">
        <ele>355.12</ele>
        <time>2025-04-30T05:57:17.830Z</time>
      </trkpt>
      <trkpt lat="47.7635" lon="6.58782">
        <ele>354.75</ele>
        <time>2025-04-30T05:57:18.161Z</time>
      </trkpt>
      <trkpt lat="47.76352" lon="6.5878">
        <ele>354.37</ele>
        <time>2025-04-30T05:57:18.493Z</time>
      </trkpt>
      <trkpt lat="47.76354" lon="6.58779">
        <ele>354</ele>
        <time>2025-04-30T05:57:18.825Z</time>
      </trkpt>
      <trkpt lat="47.76355" lon="6.58778">
        <ele>353.63</ele>
        <time>2025-04-30T05:57:19.158Z</time>
      </trkpt>
      <trkpt lat="47.76356" lon="6.58777">
        <ele>353.25</ele>
        <time>2025-04-30T05:57:19.491Z</time>
      </trkpt>
      <trkpt lat="47.76362" lon="6.58774">
        <ele>352.85</ele>
        <time>2025-04-30T05:57:19.825Z</time>
      </trkpt>
      <trkpt lat="47.76368" lon="6.58766">
        <ele>352.45</ele>
        <time>2025-04-30T05:57:20.161Z</time>
      </trkpt>
      <trkpt lat="47.76371" lon="6.58761">
        <ele>352.05</ele>
        <time>2025-04-30T05:57:20.498Z</time>
      </trkpt>
      <trkpt lat="47.76378" lon="6.58746">
        <ele>351.62</ele>
        <time>2025-04-30T05:57:20.838Z</time>
      </trkpt>
      <trkpt lat="47.76379" lon="6.58735">
        <ele>351.24</ele>
        <time>2025-04-30T05:57:21.179Z</time>
      </trkpt>
      <trkpt lat="47.76379" lon="6.58729">
        <ele>350.86</ele>
        <time>2025-04-30T05:57:21.521Z</time>
      </trkpt>
      <trkpt lat="47.76379" lon="6.58722">
        <ele>350.48</ele>
        <time>2025-04-30T05:57:21.864Z</time>
      </trkpt>
      <trkpt lat="47.76379" lon="6.58714">
        <ele>350.1</ele>
        <time>2025-04-30T05:57:22.208Z</time>
      </trkpt>
      <trkpt lat="47.76379" lon="6.58707">
        <ele>349.72</ele>
        <time>2025-04-30T05:57:22.553Z</time>
      </trkpt>
      <trkpt lat="47.76378" lon="6.58694">
        <ele>349.36</ele>
        <time>2025-04-30T05:57:22.900Z</time>
      </trkpt>
      <trkpt lat="47.76376" lon="6.58688">
        <ele>349</ele>
        <time>2025-04-30T05:57:23.248Z</time>
      </trkpt>
      <trkpt lat="47.76375" lon="6.58681">
        <ele>348.65</ele>
        <time>2025-04-30T05:57:23.597Z</time>
      </trkpt>
      <trkpt lat="47.76376" lon="6.58667">
        <ele>348.28</ele>
        <time>2025-04-30T05:57:23.948Z</time>
      </trkpt>
      <trkpt lat="47.76378" lon="6.5866">
        <ele>347.92</ele>
        <time>2025-04-30T05:57:24.300Z</time>
      </trkpt>
      <trkpt lat="47.76379" lon="6.58654">
        <ele>347.57</ele>
        <time>2025-04-30T05:57:24.653Z</time>
      </trkpt>
      <trkpt lat="47.76381" lon="6.58648">
        <ele>347.25</ele>
        <time>2025-04-30T05:57:25.007Z</time>
      </trkpt>
      <trkpt lat="47.76383" lon="6.58642">
        <ele>346.93</ele>
        <time>2025-04-30T05:57:25.362Z</time>
      </trkpt>
      <trkpt lat="47.76385" lon="6.58636">
        <ele>346.61</ele>
        <time>2025-04-30T05:57:25.718Z</time>
      </trkpt>
      <trkpt lat="47.76388" lon="6.58631">
        <ele>346.29</ele>
        <time>2025-04-30T05:57:26.075Z</time>
      </trkpt>
      <trkpt lat="47.76389" lon="6.58628">
        <ele>345.99</ele>
        <time>2025-04-30T05:57:26.433Z</time>
      </trkpt>
      <trkpt lat="47.7639" lon="6.58625">
        <ele>345.7</ele>
        <time>2025-04-30T05:57:26.791Z</time>
      </trkpt>
      <trkpt lat="47.7639" lon="6.58625">
        <ele>345.42</ele>
        <time>2025-04-30T05:57:27.149Z</time>
      </trkpt>
      <trkpt lat="47.76392" lon="6.5862">
        <ele>345.15</ele>
        <time>2025-04-30T05:57:27.508Z</time>
      </trkpt>
      <trkpt lat="47.76394" lon="6.58614">
        <ele>344.88</ele>
        <time>2025-04-30T05:57:27.868Z</time>
      </trkpt>
      <trkpt lat="47.76395" lon="6.58606">
        <ele>344.62</ele>
        <time>2025-04-30T05:57:28.229Z</time>
      </trkpt>
      <trkpt lat="47.76395" lon="6.58602">
        <ele>344.38</ele>
        <time>2025-04-30T05:57:28.591Z</time>
      </trkpt>
      <trkpt lat="47.76394" lon="6.58592">
        <ele>344.15</ele>
        <time>2025-04-30T05:57:28.954Z</time>
      </trkpt>
      <trkpt lat="47.76394" lon="6.58589">
        <ele>343.92</ele>
        <time>2025-04-30T05:57:29.317Z</time>
      </trkpt>
      <trkpt lat="47.76395" lon="6.58587">
        <ele>343.7</ele>
        <time>2025-04-30T05:57:29.681Z</time>
      </trkpt>
      <trkpt lat="47.76397" lon="6.58586">
        <ele>343.49</ele>
        <time>2025-04-30T05:57:30.045Z</time>
      </trkpt>
      <trkpt lat="47.76399" lon="6.58587">
        <ele>343.29</ele>
        <time>2025-04-30T05:57:30.410Z</time>
      </trkpt>
      <trkpt lat="47.76405" lon="6.58591">
        <ele>343.09</ele>
        <time>2025-04-30T05:57:30.776Z</time>
      </trkpt>
      <trkpt lat="47.76407" lon="6.58592">
        <ele>342.91</ele>
        <time>2025-04-30T05:57:31.143Z</time>
      </trkpt>
      <trkpt lat="47.76409" lon="6.58593">
        <ele>342.73</ele>
        <time>2025-04-30T05:57:31.510Z</time>
      </trkpt>
      <trkpt lat="47.76412" lon="6.58595">
        <ele>342.57</ele>
        <time>2025-04-30T05:57:31.878Z</time>
      </trkpt>
      <trkpt lat="47.76414" lon="6.58597">
        <ele>342.42</ele>
        <time>2025-04-30T05:57:32.246Z</time>
      </trkpt>
      <trkpt lat="47.76417" lon="6.58599">
        <ele>342.27</ele>
        <time>2025-04-30T05:57:32.615Z</time>
      </trkpt>
      <trkpt lat="47.76421" lon="6.58601">
        <ele>342.14</ele>
        <time>2025-04-30T05:57:32.985Z</time>
      </trkpt>
      <trkpt lat="47.76425" lon="6.58603">
        <ele>342.01</ele>
        <time>2025-04-30T05:57:33.356Z</time>
      </trkpt>
      <trkpt lat="47.7643" lon="6.58607">
        <ele>341.9</ele>
        <time>2025-04-30T05:57:33.728Z</time>
      </trkpt>
      <trkpt lat="47.76434" lon="6.58612">
        <ele>341.79</ele>
        <time>2025-04-30T05:57:34.101Z</time>
      </trkpt>
      <trkpt lat="47.76438" lon="6.58614">
        <ele>341.71</ele>
        <time>2025-04-30T05:57:34.475Z</time>
      </trkpt>
      <trkpt lat="47.76442" lon="6.58617">
        <ele>341.63</ele>
        <time>2025-04-30T05:57:34.850Z</time>
      </trkpt>
      <trkpt lat="47.76446" lon="6.58621">
        <ele>341.56</ele>
        <time>2025-04-30T05:57:35.226Z</time>
      </trkpt>
      <trkpt lat="47.7645" lon="6.58625">
        <ele>341.51</ele>
        <time>2025-04-30T05:57:35.603Z</time>
      </trkpt>
      <trkpt lat="47.76454" lon="6.58629">
        <ele>341.47</ele>
        <time>2025-04-30T05:57:35.981Z</time>
      </trkpt>
      <trkpt lat="47.76457" lon="6.58633">
        <ele>341.45</ele>
        <time>2025-04-30T05:57:36.360Z</time>
      </trkpt>
      <trkpt lat="47.76461" lon="6.58637">
        <ele>341.44</ele>
        <time>2025-04-30T05:57:36.740Z</time>
      </trkpt>
      <trkpt lat="47.76474" lon="6.58649">
        <ele>341.44</ele>
        <time>2025-04-30T05:57:37.123Z</time>
      </trkpt>
      <trkpt lat="47.76479" lon="6.58654">
        <ele>341.47</ele>
        <time>2025-04-30T05:57:37.507Z</time>
      </trkpt>
      <trkpt lat="47.76482" lon="6.58658">
        <ele>341.52</ele>
        <time>2025-04-30T05:57:37.892Z</time>
      </trkpt>
      <trkpt lat="47.76485" lon="6.58663">
        <ele>341.58</ele>
        <time>2025-04-30T05:57:38.278Z</time>
      </trkpt>
      <trkpt lat="47.76492" lon="6.58671">
        <ele>341.66</ele>
        <time>2025-04-30T05:57:38.666Z</time>
      </trkpt>
      <trkpt lat="47.76495" lon="6.58676">
        <ele>341.75</ele>
        <time>2025-04-30T05:57:39.055Z</time>
      </trkpt>
      <trkpt lat="47.76498" lon="6.5868">
        <ele>341.85</ele>
        <time>2025-04-30T05:57:39.445Z</time>
      </trkpt>
      <trkpt lat="47.76502" lon="6.58685">
        <ele>341.97</ele>
        <time>2025-04-30T05:57:39.836Z</time>
      </trkpt>
      <trkpt lat="47.76504" lon="6.58688">
        <ele>342.1</ele>
        <time>2025-04-30T05:57:40.228Z</time>
      </trkpt>
      <trkpt lat="47.76521" lon="6.58706">
        <ele>342.28</ele>
        <time>2025-04-30T05:57:40.624Z</time>
      </trkpt>
      <trkpt lat="47.76525" lon="6.58713">
        <ele>342.44</ele>
        <time>2025-04-30T05:57:41.022Z</time>
      </trkpt>
      <trkpt lat="47.76529" lon="6.58724">
        <ele>342.62</ele>
        <time>2025-04-30T05:57:41.421Z</time>
      </trkpt>
      <trkpt lat="47.7653" lon="6.58729">
        <ele>342.79</ele>
        <time>2025-04-30T05:57:41.821Z</time>
      </trkpt>
      <trkpt lat="47.76532" lon="6.58733">
        <ele>342.97</ele>
        <time>2025-04-30T05:57:42.222Z</time>
      </trkpt>
      <trkpt lat="47.76538" lon="6.58746">
        <ele>343.16</ele>
        <time>2025-04-30T05:57:42.625Z</time>
      </trkpt>
      <trkpt lat="47.76542" lon="6.5875">
        <ele>343.37</ele>
        <time>2025-04-30T05:57:43.029Z</time>
      </trkpt>
      <trkpt lat="47.76545" lon="6.58754">
        <ele>343.58</ele>
        <time>2025-04-30T05:57:43.434Z</time>
      </trkpt>
      <trkpt lat="47.7655" lon="6.58762">
        <ele>343.82</ele>
        <time>2025-04-30T05:57:43.841Z</time>
      </trkpt>
      <trkpt lat="47.76551" lon="6.58768">
        <ele>344.05</ele>
        <time>2025-04-30T05:57:44.249Z</time>
      </trkpt>
      <trkpt lat="47.76552" lon="6.58773">
        <ele>344.28</ele>
        <time>2025-04-30T05:57:44.657Z</time>
      </trkpt>
      <trkpt lat="47.76552" lon="6.58778">
        <ele>344.52</ele>
        <time>2025-04-30T05:57:45.066Z</time>
      </trkpt>
      <trkpt lat="47.76551" lon="6.58784">
        <ele>344.77</ele>
        <time>2025-04-30T05:57:45.476Z</time>
      </trkpt>
      <trkpt lat="47.76551" lon="6.58789">
        <ele>345.04</ele>
        <time>2025-04-30T05:57:45.887Z</time>
      </trkpt>
      <trkpt lat="47.76551" lon="6.58794">
        <ele>345.31</ele>
        <time>2025-04-30T05:57:46.298Z</time>
      </trkpt>
      <trkpt lat="47.76551" lon="6.58818">
        <ele>345.59</ele>
        <time>2025-04-30T05:57:46.713Z</time>
      </trkpt>
      <trkpt lat="47.76551" lon="6.5883">
        <ele>345.88</ele>
        <time>2025-04-30T05:57:47.130Z</time>
      </trkpt>
      <trkpt lat="47.76551" lon="6.58842">
        <ele>346.18</ele>
        <time>2025-04-30T05:57:47.548Z</time>
      </trkpt>
      <trkpt lat="47.76551" lon="6.58847">
        <ele>346.48</ele>
        <time>2025-04-30T05:57:47.967Z</time>
      </trkpt>
      <trkpt lat="47.76551" lon="6.58853">
        <ele>346.77</ele>
        <time>2025-04-30T05:57:48.387Z</time>
      </trkpt>
      <trkpt lat="47.7655" lon="6.5886">
        <ele>347.07</ele>
        <time>2025-04-30T05:57:48.808Z</time>
      </trkpt>
      <trkpt lat="47.7655" lon="6.58866">
        <ele>347.38</ele>
        <time>2025-04-30T05:57:49.230Z</time>
      </trkpt>
      <trkpt lat="47.7655" lon="6.58872">
        <ele>347.68</ele>
        <time>2025-04-30T05:57:49.653Z</time>
      </trkpt>
      <trkpt lat="47.7655" lon="6.58878">
        <ele>347.98</ele>
        <time>2025-04-30T05:57:50.077Z</time>
      </trkpt>
      <trkpt lat="47.76549" lon="6.58883">
        <ele>348.28</ele>
        <time>2025-04-30T05:57:50.501Z</time>
      </trkpt>
      <trkpt lat="47.76549" lon="6.5889">
        <ele>348.58</ele>
        <time>2025-04-30T05:57:50.926Z</time>
      </trkpt>
      <trkpt lat="47.76549" lon="6.58896">
        <ele>348.87</ele>
        <time>2025-04-30T05:57:51.352Z</time>
      </trkpt>
      <trkpt lat="47.76548" lon="6.58902">
        <ele>349.16</ele>
        <time>2025-04-30T05:57:51.779Z</time>
      </trkpt>
      <trkpt lat="47.76548" lon="6.58909">
        <ele>349.45</ele>
        <time>2025-04-30T05:57:52.207Z</time>
      </trkpt>
      <trkpt lat="47.76547" lon="6.58915">
        <ele>349.74</ele>
        <time>2025-04-30T05:57:52.636Z</time>
      </trkpt>
      <trkpt lat="47.76546" lon="6.5892">
        <ele>350.02</ele>
        <time>2025-04-30T05:57:53.066Z</time>
      </trkpt>
      <trkpt lat="47.76546" lon="6.58925">
        <ele>350.29</ele>
        <time>2025-04-30T05:57:53.496Z</time>
      </trkpt>
      <trkpt lat="47.76547" lon="6.5893">
        <ele>350.56</ele>
        <time>2025-04-30T05:57:53.927Z</time>
      </trkpt>
      <trkpt lat="47.76547" lon="6.58935">
        <ele>350.83</ele>
        <time>2025-04-30T05:57:54.359Z</time>
      </trkpt>
      <trkpt lat="47.76548" lon="6.5894">
        <ele>351.09</ele>
        <time>2025-04-30T05:57:54.792Z</time>
      </trkpt>
      <trkpt lat="47.76548" lon="6.58945">
        <ele>351.35</ele>
        <time>2025-04-30T05:57:55.225Z</time>
      </trkpt>
      <trkpt lat="47.7655" lon="6.58949">
        <ele>351.61</ele>
        <time>2025-04-30T05:57:55.659Z</time>
      </trkpt>
      <trkpt lat="47.76551" lon="6.58952">
        <ele>351.86</ele>
        <time>2025-04-30T05:57:56.093Z</time>
      </trkpt>
      <trkpt lat="47.76552" lon="6.58958">
        <ele>352.11</ele>
        <time>2025-04-30T05:57:56.528Z</time>
      </trkpt>
      <trkpt lat="47.76553" lon="6.58964">
        <ele>352.36</ele>
        <time>2025-04-30T05:57:56.964Z</time>
      </trkpt>
      <trkpt lat="47.76555" lon="6.5897">
        <ele>352.61</ele>
        <time>2025-04-30T05:57:57.401Z</time>
      </trkpt>
      <trkpt lat="47.76557" lon="6.58975">
        <ele>352.85</ele>
        <time>2025-04-30T05:57:57.839Z</time>
      </trkpt>
      <trkpt lat="47.7656" lon="6.58982">
        <ele>353.08</ele>
        <time>2025-04-30T05:57:58.278Z</time>
      </trkpt>
      <trkpt lat="47.76562" lon="6.58988">
        <ele>353.3</ele>
        <time>2025-04-30T05:57:58.718Z</time>
      </trkpt>
      <trkpt lat="47.76564" lon="6.58992">
        <ele>353.52</ele>
        <time>2025-04-30T05:57:59.159Z</time>
      </trkpt>
      <trkpt lat="47.76566" lon="6.58997">
        <ele>353.72</ele>
        <time>2025-04-30T05:57:59.601Z</time>
      </trkpt>
      <trkpt lat="47.76569" lon="6.59003">
        <ele>353.93</ele>
        <time>2025-04-30T05:58:00.044Z</time>
      </trkpt>
      <trkpt lat="47.7657" lon="6.59007">
        <ele>354.14</ele>
        <time>2025-04-30T05:58:00.487Z</time>
      </trkpt>
      <trkpt lat="47.76572" lon="6.59011">
        <ele>354.35</ele>
        <time>2025-04-30T05:58:00.931Z</time>
      </trkpt>
      <trkpt lat="47.76573" lon="6.59015">
        <ele>354.55</ele>
        <time>2025-04-30T05:58:01.376Z</time>
      </trkpt>
      <trkpt lat="47.76575" lon="6.5902">
        <ele>354.75</ele>
        <time>2025-04-30T05:58:01.822Z</time>
      </trkpt>
      <trkpt lat="47.76576" lon="6.59025">
        <ele>354.94</ele>
        <time>2025-04-30T05:58:02.268Z</time>
      </trkpt>
      <trkpt lat="47.76578" lon="6.59029">
        <ele>355.14</ele>
        <time>2025-04-30T05:58:02.715Z</time>
      </trkpt>
      <trkpt lat="47.76578" lon="6.59032">
        <ele>355.34</ele>
        <time>2025-04-30T05:58:03.163Z</time>
      </trkpt>
      <trkpt lat="47.7658" lon="6.59036">
        <ele>355.54</ele>
        <time>2025-04-30T05:58:03.611Z</time>
      </trkpt>
      <trkpt lat="47.76582" lon="6.59039">
        <ele>355.74</ele>
        <time>2025-04-30T05:58:04.060Z</time>
      </trkpt>
      <trkpt lat="47.76584" lon="6.59042">
        <ele>355.93</ele>
        <time>2025-04-30T05:58:04.509Z</time>
      </trkpt>
      <trkpt lat="47.76588" lon="6.59045">
        <ele>356.13</ele>
        <time>2025-04-30T05:58:04.959Z</time>
      </trkpt>
      <trkpt lat="47.7659" lon="6.5905">
        <ele>356.33</ele>
        <time>2025-04-30T05:58:05.410Z</time>
      </trkpt>
      <trkpt lat="47.76592" lon="6.59055">
        <ele>356.53</ele>
        <time>2025-04-30T05:58:05.862Z</time>
      </trkpt>
      <trkpt lat="47.76593" lon="6.59059">
        <ele>356.72</ele>
        <time>2025-04-30T05:58:06.315Z</time>
      </trkpt>
      <trkpt lat="47.76594" lon="6.59063">
        <ele>356.92</ele>
        <time>2025-04-30T05:58:06.768Z</time>
      </trkpt>
      <trkpt lat="47.76593" lon="6.59071">
        <ele>357.12</ele>
        <time>2025-04-30T05:58:07.222Z</time>
      </trkpt>
      <trkpt lat="47.76592" lon="6.5908">
        <ele>357.33</ele>
        <time>2025-04-30T05:58:07.678Z</time>
      </trkpt>
      <trkpt lat="47.76591" lon="6.59089">
        <ele>357.55</ele>
        <time>2025-04-30T05:58:08.135Z</time>
      </trkpt>
      <trkpt lat="47.7659" lon="6.59098">
        <ele>357.76</ele>
        <time>2025-04-30T05:58:08.593Z</time>
      </trkpt>
      <trkpt lat="47.76589" lon="6.59107">
        <ele>357.98</ele>
        <time>2025-04-30T05:58:09.053Z</time>
      </trkpt>
      <trkpt lat="47.76588" lon="6.59115">
        <ele>358.19</ele>
        <time>2025-04-30T05:58:09.514Z</time>
      </trkpt>
      <trkpt lat="47.76587" lon="6.59122">
        <ele>358.4</ele>
        <time>2025-04-30T05:58:09.976Z</time>
      </trkpt>
      <trkpt lat="47.76586" lon="6.59128">
        <ele>358.61</ele>
        <time>2025-04-30T05:58:10.439Z</time>
      </trkpt>
      <trkpt lat="47.76585" lon="6.59134">
        <ele>358.81</ele>
        <time>2025-04-30T05:58:10.903Z</time>
      </trkpt>
      <trkpt lat="47.76586" lon="6.59137">
        <ele>359</ele>
        <time>2025-04-30T05:58:11.367Z</time>
      </trkpt>
      <trkpt lat="47.76585" lon="6.59142">
        <ele>359.19</ele>
        <time>2025-04-30T05:58:11.832Z</time>
      </trkpt>
      <trkpt lat="47.76585" lon="6.59147">
        <ele>359.38</ele>
        <time>2025-04-30T05:58:12.298Z</time>
      </trkpt>
      <trkpt lat="47.76586" lon="6.59151">
        <ele>359.56</ele>
        <time>2025-04-30T05:58:12.764Z</time>
      </trkpt>
      <trkpt lat="47.76586" lon="6.59154">
        <ele>359.73</ele>
        <time>2025-04-30T05:58:13.231Z</time>
      </trkpt>
      <trkpt lat="47.76586" lon="6.59156">
        <ele>359.9</ele>
        <time>2025-04-30T05:58:13.698Z</time>
      </trkpt>
      <trkpt lat="47.76586" lon="6.59156">
        <ele>360.07</ele>
        <time>2025-04-30T05:58:14.165Z</time>
      </trkpt>
      <trkpt lat="47.76586" lon="6.59158">
        <ele>360.24</ele>
        <time>2025-04-30T05:58:14.632Z</time>
      </trkpt>
      <trkpt lat="47.76585" lon="6.59159">
        <ele>360.4</ele>
        <time>2025-04-30T05:58:15.099Z</time>
      </trkpt>
      <trkpt lat="47.76585" lon="6.59159">
        <ele>360.56</ele>
        <time>2025-04-30T05:58:15.566Z</time>
      </trkpt>
      <trkpt lat="47.76586" lon="6.5916">
        <ele>360.72</ele>
        <time>2025-04-30T05:58:16.034Z</time>
      </trkpt>
      <trkpt lat="47.76585" lon="6.5916">
        <ele>360.87</ele>
        <time>2025-04-30T05:58:16.502Z</time>
      </trkpt>
      <trkpt lat="47.76584" lon="6.59178">
        <ele>361.05</ele>
        <time>2025-04-30T05:58:16.972Z</time>
      </trkpt>
      <trkpt lat="47.76581" lon="6.59205">
        <ele>361.25</ele>
        <time>2025-04-30T05:58:17.446Z</time>
      </trkpt>
      <trkpt lat="47.76578" lon="6.59212">
        <ele>361.42</ele>
        <time>2025-04-30T05:58:17.921Z</time>
      </trkpt>
      <trkpt lat="47.76577" lon="6.59219">
        <ele>361.58</ele>
        <time>2025-04-30T05:58:18.397Z</time>
      </trkpt>
      <trkpt lat="47.76574" lon="6.59232">
        <ele>361.72</ele>
        <time>2025-04-30T05:58:18.875Z</time>
      </trkpt>
      <trkpt lat="47.76573" lon="6.59239">
        <ele>361.87</ele>
        <time>2025-04-30T05:58:19.354Z</time>
      </trkpt>
      <trkpt lat="47.76571" lon="6.5925">
        <ele>362.02</ele>
        <time>2025-04-30T05:58:19.835Z</time>
      </trkpt>
      <trkpt lat="47.76571" lon="6.59254">
        <ele>362.17</ele>
        <time>2025-04-30T05:58:20.317Z</time>
      </trkpt>
      <trkpt lat="47.7657" lon="6.59258">
        <ele>362.32</ele>
        <time>2025-04-30T05:58:20.799Z</time>
      </trkpt>
      <trkpt lat="47.7657" lon="6.59262">
        <ele>362.47</ele>
        <time>2025-04-30T05:58:21.282Z</time>
      </trkpt>
      <trkpt lat="47.7657" lon="6.59277">
        <ele>362.63</ele>
        <time>2025-04-30T05:58:21.767Z</time>
      </trkpt>
      <trkpt lat="47.76569" lon="6.59284">
        <ele>362.78</ele>
        <time>2025-04-30T05:58:22.253Z</time>
      </trkpt>
      <trkpt lat="47.76569" lon="6.59292">
        <ele>362.94</ele>
        <time>2025-04-30T05:58:22.740Z</time>
      </trkpt>
      <trkpt lat="47.76566" lon="6.593">
        <ele>363.12</ele>
        <time>2025-04-30T05:58:23.229Z</time>
      </trkpt>
      <trkpt lat="47.76564" lon="6.5931">
        <ele>363.29</ele>
        <time>2025-04-30T05:58:23.719Z</time>
      </trkpt>
      <trkpt lat="47.76564" lon="6.59314">
        <ele>363.47</ele>
        <time>2025-04-30T05:58:24.210Z</time>
      </trkpt>
      <trkpt lat="47.76564" lon="6.59321">
        <ele>363.64</ele>
        <time>2025-04-30T05:58:24.702Z</time>
      </trkpt>
      <trkpt lat="47.76563" lon="6.59329">
        <ele>363.83</ele>
        <time>2025-04-30T05:58:25.195Z</time>
      </trkpt>
      <trkpt lat="47.76563" lon="6.59336">
        <ele>364.02</ele>
        <time>2025-04-30T05:58:25.689Z</time>
      </trkpt>
      <trkpt lat="47.76558" lon="6.59347">
        <ele>364.22</ele>
        <time>2025-04-30T05:58:26.185Z</time>
      </trkpt>
      <trkpt lat="47.76549" lon="6.59357">
        <ele>364.44</ele>
        <time>2025-04-30T05:58:26.683Z</time>
      </trkpt>
      <trkpt lat="47.76546" lon="6.5936">
        <ele>364.68</ele>
        <time>2025-04-30T05:58:27.182Z</time>
      </trkpt>
      <trkpt lat="47.76541" lon="6.59365">
        <ele>364.92</ele>
        <time>2025-04-30T05:58:27.682Z</time>
      </trkpt>
      <trkpt lat="47.7654" lon="6.59371">
        <ele>365.18</ele>
        <time>2025-04-30T05:58:28.183Z</time>
      </trkpt>
      <trkpt lat="47.76538" lon="6.59382">
        <ele>365.47</ele>
        <time>2025-04-30T05:58:28.686Z</time>
      </trkpt>
      <trkpt lat="47.76535" lon="6.59392">
        <ele>365.77</ele>
        <time>2025-04-30T05:58:29.190Z</time>
      </trkpt>
      <trkpt lat="47.76534" lon="6.59396">
        <ele>366.07</ele>
        <time>2025-04-30T05:58:29.695Z</time>
      </trkpt>
      <trkpt lat="47.76532" lon="6.59405">
        <ele>366.39</ele>
        <time>2025-04-30T05:58:30.201Z</time>
      </trkpt>
      <trkpt lat="47.76532" lon="6.59409">
        <ele>366.72</ele>
        <time>2025-04-30T05:58:30.708Z</time>
      </trkpt>
      <trkpt lat="47.76529" lon="6.59416">
        <ele>367.06</ele>
        <time>2025-04-30T05:58:31.216Z</time>
      </trkpt>
      <trkpt lat="47.76527" lon="6.59422">
        <ele>367.43</ele>
        <time>2025-04-30T05:58:31.725Z</time>
      </trkpt>
      <trkpt lat="47.76527" lon="6.59426">
        <ele>367.8</ele>
        <time>2025-04-30T05:58:32.235Z</time>
      </trkpt>
      <trkpt lat="47.76525" lon="6.59435">
        <ele>368.19</ele>
        <time>2025-04-30T05:58:32.746Z</time>
      </trkpt>
      <trkpt lat="47.76524" lon="6.59439">
        <ele>368.59</ele>
        <time>2025-04-30T05:58:33.258Z</time>
      </trkpt>
      <trkpt lat="47.76522" lon="6.59442">
        <ele>369</ele>
        <time>2025-04-30T05:58:33.770Z</time>
      </trkpt>
      <trkpt lat="47.76521" lon="6.59446">
        <ele>369.42</ele>
        <time>2025-04-30T05:58:34.283Z</time>
      </trkpt>
      <trkpt lat="47.76519" lon="6.59452">
        <ele>369.85</ele>
        <time>2025-04-30T05:58:34.797Z</time>
      </trkpt>
      <trkpt lat="47.76516" lon="6.59458">
        <ele>370.3</ele>
        <time>2025-04-30T05:58:35.312Z</time>
      </trkpt>
      <trkpt lat="47.76515" lon="6.59463">
        <ele>370.75</ele>
        <time>2025-04-30T05:58:35.828Z</time>
      </trkpt>
      <trkpt lat="47.76515" lon="6.59467">
        <ele>371.21</ele>
        <time>2025-04-30T05:58:36.344Z</time>
      </trkpt>
      <trkpt lat="47.76515" lon="6.59472">
        <ele>371.68</ele>
        <time>2025-04-30T05:58:36.861Z</time>
      </trkpt>
      <trkpt lat="47.76515" lon="6.59477">
        <ele>372.15</ele>
        <time>2025-04-30T05:58:37.379Z</time>
      </trkpt>
      <trkpt lat="47.76516" lon="6.59483">
        <ele>372.63</ele>
        <time>2025-04-30T05:58:37.898Z</time>
      </trkpt>
      <trkpt lat="47.76517" lon="6.59488">
        <ele>373.12</ele>
        <time>2025-04-30T05:58:38.417Z</time>
      </trkpt>
      <trkpt lat="47.76517" lon="6.59492">
        <ele>373.6</ele>
        <time>2025-04-30T05:58:38.937Z</time>
      </trkpt>
      <trkpt lat="47.76517" lon="6.59496">
        <ele>374.09</ele>
        <time>2025-04-30T05:58:39.457Z</time>
      </trkpt>
      <trkpt lat="47.76517" lon="6.59501">
        <ele>374.58</ele>
        <time>2025-04-30T05:58:39.978Z</time>
      </trkpt>
      <trkpt lat="47.76516" lon="6.59508">
        <ele>375.07</ele>
        <time>2025-04-30T05:58:40.500Z</time>
      </trkpt>
      <trkpt lat="47.76515" lon="6.59519">
        <ele>375.56</ele>
        <time>2025-04-30T05:58:41.024Z</time>
      </trkpt>
      <trkpt lat="47.76515" lon="6.59524">
        <ele>376.04</ele>
        <time>2025-04-30T05:58:41.549Z</time>
      </trkpt>
      <trkpt lat="47.76514" lon="6.5953">
        <ele>376.5</ele>
        <time>2025-04-30T05:58:42.074Z</time>
      </trkpt>
      <trkpt lat="47.76513" lon="6.59534">
        <ele>376.97</ele>
        <time>2025-04-30T05:58:42.600Z</time>
      </trkpt>
      <trkpt lat="47.76509" lon="6.59541">
        <ele>377.42</ele>
        <time>2025-04-30T05:58:43.127Z</time>
      </trkpt>
      <trkpt lat="47.76507" lon="6.59543">
        <ele>377.85</ele>
        <time>2025-04-30T05:58:43.655Z</time>
      </trkpt>
      <trkpt lat="47.76506" lon="6.59544">
        <ele>378.26</ele>
        <time>2025-04-30T05:58:44.183Z</time>
      </trkpt>
      <trkpt lat="47.76506" lon="6.59553">
        <ele>378.68</ele>
        <time>2025-04-30T05:58:44.712Z</time>
      </trkpt>
      <trkpt lat="47.76505" lon="6.5956">
        <ele>379.08</ele>
        <time>2025-04-30T05:58:45.243Z</time>
      </trkpt>
      <trkpt lat="47.76504" lon="6.59568">
        <ele>379.46</ele>
        <time>2025-04-30T05:58:45.775Z</time>
      </trkpt>
      <trkpt lat="47.76506" lon="6.59573">
        <ele>379.82</ele>
        <time>2025-04-30T05:58:46.307Z</time>
      </trkpt>
      <trkpt lat="47.76506" lon="6.59579">
        <ele>380.16</ele>
        <time>2025-04-30T05:58:46.840Z</time>
      </trkpt>
      <trkpt lat="47.76507" lon="6.59582">
        <ele>380.47</ele>
        <time>2025-04-30T05:58:47.374Z</time>
      </trkpt>
      <trkpt lat="47.7651" lon="6.59585">
        <ele>380.75</ele>
        <time>2025-04-30T05:58:47.909Z</time>
      </trkpt>
      <trkpt lat="47.76512" lon="6.59588">
        <ele>381.01</ele>
        <time>2025-04-30T05:58:48.444Z</time>
      </trkpt>
      <trkpt lat="47.76514" lon="6.5959">
        <ele>381.24</ele>
        <time>2025-04-30T05:58:48.980Z</time>
      </trkpt>
      <trkpt lat="47.76515" lon="6.59592">
        <ele>381.44</ele>
        <time>2025-04-30T05:58:49.516Z</time>
      </trkpt>
      <trkpt lat="47.76516" lon="6.59595">
        <ele>381.62</ele>
        <time>2025-04-30T05:58:50.053Z</time>
      </trkpt>
      <trkpt lat="47.76513" lon="6.59604">
        <ele>381.78</ele>
        <time>2025-04-30T05:58:50.591Z</time>
      </trkpt>
      <trkpt lat="47.76511" lon="6.59617">
        <ele>381.92</ele>
        <time>2025-04-30T05:58:51.131Z</time>
      </trkpt>
      <trkpt lat="47.7651" lon="6.59621">
        <ele>382.01</ele>
        <time>2025-04-30T05:58:51.672Z</time>
      </trkpt>
      <trkpt lat="47.76511" lon="6.59629">
        <ele>382.07</ele>
        <time>2025-04-30T05:58:52.214Z</time>
      </trkpt>
      <trkpt lat="47.76511" lon="6.59635">
        <ele>382.09</ele>
        <time>2025-04-30T05:58:52.757Z</time>
      </trkpt>
      <trkpt lat="47.76512" lon="6.59637">
        <ele>382.07</ele>
        <time>2025-04-30T05:58:53.300Z</time>
      </trkpt>
      <trkpt lat="47.7651" lon="6.59641">
        <ele>382.03</ele>
        <time>2025-04-30T05:58:53.844Z</time>
      </trkpt>
      <trkpt lat="47.76511" lon="6.59644">
        <ele>381.95</ele>
        <time>2025-04-30T05:58:54.388Z</time>
      </trkpt>
      <trkpt lat="47.76512" lon="6.59646">
        <ele>381.83</ele>
        <time>2025-04-30T05:58:54.932Z</time>
      </trkpt>
      <trkpt lat="47.76513" lon="6.59649">
        <ele>381.68</ele>
        <time>2025-04-30T05:58:55.477Z</time>
      </trkpt>
      <trkpt lat="47.76515" lon="6.59658">
        <ele>381.5</ele>
        <time>2025-04-30T05:58:56.023Z</time>
      </trkpt>
      <trkpt lat="47.76517" lon="6.59662">
        <ele>381.29</ele>
        <time>2025-04-30T05:58:56.570Z</time>
      </trkpt>
      <trkpt lat="47.76519" lon="6.59667">
        <ele>381.04</ele>
        <time>2025-04-30T05:58:57.118Z</time>
      </trkpt>
      <trkpt lat="47.76521" lon="6.5967">
        <ele>380.76</ele>
        <time>2025-04-30T05:58:57.666Z</time>
      </trkpt>
      <trkpt lat="47.76524" lon="6.59677">
        <ele>380.44</ele>
        <time>2025-04-30T05:58:58.216Z</time>
      </trkpt>
      <trkpt lat="47.76527" lon="6.5968">
        <ele>380.09</ele>
        <time>2025-04-30T05:58:58.766Z</time>
      </trkpt>
      <trkpt lat="47.76528" lon="6.59683">
        <ele>379.72</ele>
        <time>2025-04-30T05:58:59.317Z</time>
      </trkpt>
      <trkpt lat="47.7653" lon="6.59686">
        <ele>379.32</ele>
        <time>2025-04-30T05:58:59.868Z</time>
      </trkpt>
      <trkpt lat="47.76534" lon="6.59694">
        <ele>378.89</ele>
        <time>2025-04-30T05:59:00.421Z</time>
      </trkpt>
      <trkpt lat="47.76536" lon="6.59698">
        <ele>378.44</ele>
        <time>2025-04-30T05:59:00.975Z</time>
      </trkpt>
      <trkpt lat="47.76539" lon="6.59702">
        <ele>377.95</ele>
        <time>2025-04-30T05:59:01.529Z</time>
      </trkpt>
      <trkpt lat="47.76541" lon="6.59707">
        <ele>377.45</ele>
        <time>2025-04-30T05:59:02.084Z</time>
      </trkpt>
      <trkpt lat="47.76544" lon="6.59712">
        <ele>376.92</ele>
        <time>2025-04-30T05:59:02.640Z</time>
      </trkpt>
      <trkpt lat="47.76554" lon="6.59718">
        <ele>376.33</ele>
        <time>2025-04-30T05:59:03.198Z</time>
      </trkpt>
      <trkpt lat="47.76558" lon="6.5972">
        <ele>375.76</ele>
        <time>2025-04-30T05:59:03.757Z</time>
      </trkpt>
      <trkpt lat="47.76563" lon="6.59721">
        <ele>375.19</ele>
        <time>2025-04-30T05:59:04.317Z</time>
      </trkpt>
      <trkpt lat="47.76576" lon="6.59721">
        <ele>374.6</ele>
        <time>2025-04-30T05:59:04.880Z</time>
      </trkpt>
      <trkpt lat="47.76583" lon="6.59721">
        <ele>374.03</ele>
        <time>2025-04-30T05:59:05.445Z</time>
      </trkpt>
      <trkpt lat="47.76592" lon="6.59722">
        <ele>373.45</ele>
        <time>2025-04-30T05:59:06.012Z</time>
      </trkpt>
      <trkpt lat="47.76602" lon="6.59724">
        <ele>372.87</ele>
        <time>2025-04-30T05:59:06.581Z</time>
      </trkpt>
      <trkpt lat="47.76612" lon="6.59726">
        <ele>372.29</ele>
        <time>2025-04-30T05:59:07.152Z</time>
      </trkpt>
      <trkpt lat="47.76619" lon="6.59727">
        <ele>371.73</ele>
        <time>2025-04-30T05:59:07.725Z</time>
      </trkpt>
      <trkpt lat="47.76626" lon="6.59729">
        <ele>371.19</ele>
        <time>2025-04-30T05:59:08.299Z</time>
      </trkpt>
      <trkpt lat="47.76632" lon="6.59734">
        <ele>370.67</ele>
        <time>2025-04-30T05:59:08.875Z</time>
      </trkpt>
      <trkpt lat="47.76638" lon="6.59737">
        <ele>370.15</ele>
        <time>2025-04-30T05:59:09.452Z</time>
      </trkpt>
      <trkpt lat="47.76644" lon="6.59742">
        <ele>369.65</ele>
        <time>2025-04-30T05:59:10.030Z</time>
      </trkpt>
      <trkpt lat="47.76657" lon="6.59748">
        <ele>369.17</ele>
        <time>2025-04-30T05:59:10.611Z</time>
      </trkpt>
      <trkpt lat="47.76661" lon="6.59751">
        <ele>368.71</ele>
        <time>2025-04-30T05:59:11.193Z</time>
      </trkpt>
      <trkpt lat="47.76667" lon="6.59754">
        <ele>368.27</ele>
        <time>2025-04-30T05:59:11.777Z</time>
      </trkpt>
      <trkpt lat="47.76672" lon="6.59755">
        <ele>367.85</ele>
        <time>2025-04-30T05:59:12.362Z</time>
      </trkpt>
      <trkpt lat="47.76678" lon="6.59755">
        <ele>367.46</ele>
        <time>2025-04-30T05:59:12.948Z</time>
      </trkpt>
      <trkpt lat="47.76684" lon="6.59752">
        <ele>367.1</ele>
        <time>2025-04-30T05:59:13.535Z</time>
      </trkpt>
      <trkpt lat="47.76689" lon="6.5975">
        <ele>366.76</ele>
        <time>2025-04-30T05:59:14.123Z</time>
      </trkpt>
      <trkpt lat="47.76695" lon="6.59745">
        <ele>366.44</ele>
        <time>2025-04-30T05:59:14.713Z</time>
      </trkpt>
      <trkpt lat="47.767" lon="6.59742">
        <ele>366.16</ele>
        <time>2025-04-30T05:59:15.304Z</time>
      </trkpt>
      <trkpt lat="47.76711" lon="6.59735">
        <ele>365.89</ele>
        <time>2025-04-30T05:59:15.898Z</time>
      </trkpt>
      <trkpt lat="47.76715" lon="6.59732">
        <ele>365.64</ele>
        <time>2025-04-30T05:59:16.493Z</time>
      </trkpt>
      <trkpt lat="47.7672" lon="6.59729">
        <ele>365.41</ele>
        <time>2025-04-30T05:59:17.089Z</time>
      </trkpt>
      <trkpt lat="47.76725" lon="6.59727">
        <ele>365.2</ele>
        <time>2025-04-30T05:59:17.686Z</time>
      </trkpt>
      <trkpt lat="47.7673" lon="6.59725">
        <ele>365.02</ele>
        <time>2025-04-30T05:59:18.284Z</time>
      </trkpt>
      <trkpt lat="47.7675" lon="6.59714">
        <ele>364.83</ele>
        <time>2025-04-30T05:59:18.887Z</time>
      </trkpt>
      <trkpt lat="47.76755" lon="6.59712">
        <ele>364.68</ele>
        <time>2025-04-30T05:59:19.491Z</time>
      </trkpt>
      <trkpt lat="47.76759" lon="6.59709">
        <ele>364.57</ele>
        <time>2025-04-30T05:59:20.096Z</time>
      </trkpt>
      <trkpt lat="47.76764" lon="6.59707">
        <ele>364.47</ele>
        <time>2025-04-30T05:59:20.702Z</time>
      </trkpt>
      <trkpt lat="47.76772" lon="6.59702">
        <ele>364.39</ele>
        <time>2025-04-30T05:59:21.310Z</time>
      </trkpt>
      <trkpt lat="47.76777" lon="6.597">
        <ele>364.33</ele>
        <time>2025-04-30T05:59:21.919Z</time>
      </trkpt>
      <trkpt lat="47.7678" lon="6.59697">
        <ele>364.29</ele>
        <time>2025-04-30T05:59:22.528Z</time>
      </trkpt>
      <trkpt lat="47.76783" lon="6.59695">
        <ele>364.27</ele>
        <time>2025-04-30T05:59:23.138Z</time>
      </trkpt>
      <trkpt lat="47.76785" lon="6.59694">
        <ele>364.26</ele>
        <time>2025-04-30T05:59:23.749Z</time>
      </trkpt>
      <trkpt lat="47.76787" lon="6.59691">
        <ele>364.27</ele>
        <time>2025-04-30T05:59:24.360Z</time>
      </trkpt>
      <trkpt lat="47.76788" lon="6.59687">
        <ele>364.3</ele>
        <time>2025-04-30T05:59:24.972Z</time>
      </trkpt>
      <trkpt lat="47.76789" lon="6.59684">
        <ele>364.34</ele>
        <time>2025-04-30T05:59:25.584Z</time>
      </trkpt>
      <trkpt lat="47.76792" lon="6.59679">
        <ele>364.39</ele>
        <time>2025-04-30T05:59:26.197Z</time>
      </trkpt>
      <trkpt lat="47.76793" lon="6.59676">
        <ele>364.45</ele>
        <time>2025-04-30T05:59:26.811Z</time>
      </trkpt>
      <trkpt lat="47.76795" lon="6.59672">
        <ele>364.52</ele>
        <time>2025-04-30T05:59:27.425Z</time>
      </trkpt>
      <trkpt lat="47.76798" lon="6.59661">
        <ele>364.6</ele>
        <time>2025-04-30T05:59:28.041Z</time>
      </trkpt>
      <trkpt lat="47.76802" lon="6.59648">
        <ele>364.68</ele>
        <time>2025-04-30T05:59:28.659Z</time>
      </trkpt>
      <trkpt lat="47.76804" lon="6.5964">
        <ele>364.77</ele>
        <time>2025-04-30T05:59:29.278Z</time>
      </trkpt>
      <trkpt lat="47.76814" lon="6.59617">
        <ele>364.87</ele>
        <time>2025-04-30T05:59:29.901Z</time>
      </trkpt>
      <trkpt lat="47.76817" lon="6.59611">
        <ele>364.96</ele>
        <time>2025-04-30T05:59:30.526Z</time>
      </trkpt>
      <trkpt lat="47.7682" lon="6.59605">
        <ele>365.04</ele>
        <time>2025-04-30T05:59:31.152Z</time>
      </trkpt>
      <trkpt lat="47.76822" lon="6.59598">
        <ele>365.12</ele>
        <time>2025-04-30T05:59:31.779Z</time>
      </trkpt>
      <trkpt lat="47.76829" lon="6.59579">
        <ele>365.24</ele>
        <time>2025-04-30T05:59:32.409Z</time>
      </trkpt>
      <trkpt lat="47.76851" lon="6.59549">
        <ele>365.35</ele>
        <time>2025-04-30T05:59:33.045Z</time>
      </trkpt>
      <trkpt lat="47.76857" lon="6.59544">
        <ele>365.44</ele>
        <time>2025-04-30T05:59:33.683Z</time>
      </trkpt>
      <trkpt lat="47.76861" lon="6.59537">
        <ele>365.56</ele>
        <time>2025-04-30T05:59:34.322Z</time>
      </trkpt>
      <trkpt lat="47.76879" lon="6.59512">
        <ele>365.71</ele>
        <time>2025-04-30T05:59:34.966Z</time>
      </trkpt>
      <trkpt lat="47.76891" lon="6.5949">
        <ele>365.81</ele>
        <time>2025-04-30T05:59:35.614Z</time>
      </trkpt>
      <trkpt lat="47.76897" lon="6.59483">
        <ele>365.91</ele>
        <time>2025-04-30T05:59:36.264Z</time>
      </trkpt>
      <trkpt lat="47.769" lon="6.59477">
        <ele>366.01</ele>
        <time>2025-04-30T05:59:36.915Z</time>
      </trkpt>
      <trkpt lat="47.76905" lon="6.59471">
        <ele>366.08</ele>
        <time>2025-04-30T05:59:37.567Z</time>
      </trkpt>
      <trkpt lat="47.76911" lon="6.5945">
        <ele>366.14</ele>
        <time>2025-04-30T05:59:38.223Z</time>
      </trkpt>
      <trkpt lat="47.76914" lon="6.59442">
        <ele>366.2</ele>
        <time>2025-04-30T05:59:38.880Z</time>
      </trkpt>
      <trkpt lat="47.76914" lon="6.59436">
        <ele>366.26</ele>
        <time>2025-04-30T05:59:39.538Z</time>
      </trkpt>
      <trkpt lat="47.76913" lon="6.59429">
        <ele>366.33</ele>
        <time>2025-04-30T05:59:40.197Z</time>
      </trkpt>
      <trkpt lat="47.76913" lon="6.59424">
        <ele>366.39</ele>
        <time>2025-04-30T05:59:40.857Z</time>
      </trkpt>
      <trkpt lat="47.76909" lon="6.5942">
        <ele>366.45</ele>
        <time>2025-04-30T05:59:41.518Z</time>
      </trkpt>
      <trkpt lat="47.76908" lon="6.59415">
        <ele>366.5</ele>
        <time>2025-04-30T05:59:42.179Z</time>
      </trkpt>
      <trkpt lat="47.76909" lon="6.5941">
        <ele>366.53</ele>
        <time>2025-04-30T05:59:42.841Z</time>
      </trkpt>
      <trkpt lat="47.76911" lon="6.59407">
        <ele>366.55</ele>
        <time>2025-04-30T05:59:43.504Z</time>
      </trkpt>
      <trkpt lat="47.76914" lon="6.59406">
        <ele>366.58</ele>
        <time>2025-04-30T05:59:44.167Z</time>
      </trkpt>
      <trkpt lat="47.76917" lon="6.59405">
        <ele>366.59</ele>
        <time>2025-04-30T05:59:44.831Z</time>
      </trkpt>
      <trkpt lat="47.76929" lon="6.59403">
        <ele>366.59</ele>
        <time>2025-04-30T05:59:45.498Z</time>
      </trkpt>
      <trkpt lat="47.76932" lon="6.59404">
        <ele>366.6</ele>
        <time>2025-04-30T05:59:46.165Z</time>
      </trkpt>
      <trkpt lat="47.76933" lon="6.59405">
        <ele>366.6</ele>
        <time>2025-04-30T05:59:46.833Z</time>
      </trkpt>
      <trkpt lat="47.76934" lon="6.59405">
        <ele>366.6</ele>
        <time>2025-04-30T05:59:47.501Z</time>
      </trkpt>
      <trkpt lat="47.76936" lon="6.59405">
        <ele>366.59</ele>
        <time>2025-04-30T05:59:48.169Z</time>
      </trkpt>
      <trkpt lat="47.76938" lon="6.59399">
        <ele>366.58</ele>
        <time>2025-04-30T05:59:48.838Z</time>
      </trkpt>
      <trkpt lat="47.76939" lon="6.59394">
        <ele>366.56</ele>
        <time>2025-04-30T05:59:49.508Z</time>
      </trkpt>
      <trkpt lat="47.76941" lon="6.5939">
        <ele>366.54</ele>
        <time>2025-04-30T05:59:50.179Z</time>
      </trkpt>
      <trkpt lat="47.76948" lon="6.59381">
        <ele>366.52</ele>
        <time>2025-04-30T05:59:50.852Z</time>
      </trkpt>
      <trkpt lat="47.7695" lon="6.59379">
        <ele>366.48</ele>
        <time>2025-04-30T05:59:51.525Z</time>
      </trkpt>
      <trkpt lat="47.76951" lon="6.59374">
        <ele>366.44</ele>
        <time>2025-04-30T05:59:52.199Z</time>
      </trkpt>
      <trkpt lat="47.76953" lon="6.59367">
        <ele>366.39</ele>
        <time>2025-04-30T05:59:52.874Z</time>
      </trkpt>
      <trkpt lat="47.76954" lon="6.59364">
        <ele>366.34</ele>
        <time>2025-04-30T05:59:53.549Z</time>
      </trkpt>
      <trkpt lat="47.76954" lon="6.59362">
        <ele>366.28</ele>
        <time>2025-04-30T05:59:54.225Z</time>
      </trkpt>
      <trkpt lat="47.76953" lon="6.59361">
        <ele>366.22</ele>
        <time>2025-04-30T05:59:54.901Z</time>
      </trkpt>
      <trkpt lat="47.76953" lon="6.59358">
        <ele>366.15</ele>
        <time>2025-04-30T05:59:55.578Z</time>
      </trkpt>
      <trkpt lat="47.76953" lon="6.59355">
        <ele>366.07</ele>
        <time>2025-04-30T05:59:56.255Z</time>
      </trkpt>
      <trkpt lat="47.76954" lon="6.59351">
        <ele>365.99</ele>
        <time>2025-04-30T05:59:56.933Z</time>
      </trkpt>
      <trkpt lat="47.76954" lon="6.59344">
        <ele>365.9</ele>
        <time>2025-04-30T05:59:57.612Z</time>
      </trkpt>
      <trkpt lat="47.76953" lon="6.59339">
        <ele>365.81</ele>
        <time>2025-04-30T05:59:58.291Z</time>
      </trkpt>
      <trkpt lat="47.76957" lon="6.59322">
        <ele>365.73</ele>
        <time>2025-04-30T05:59:58.973Z</time>
      </trkpt>
      <trkpt lat="47.76957" lon="6.59318">
        <ele>365.63</ele>
        <time>2025-04-30T05:59:59.655Z</time>
      </trkpt>
      <trkpt lat="47.76958" lon="6.59313">
        <ele>365.53</ele>
        <time>2025-04-30T06:00:00.338Z</time>
      </trkpt>
      <trkpt lat="47.76963" lon="6.59305">
        <ele>365.43</ele>
        <time>2025-04-30T06:00:01.023Z</time>
      </trkpt>
      <trkpt lat="47.76965" lon="6.593">
        <ele>365.32</ele>
        <time>2025-04-30T06:00:01.708Z</time>
      </trkpt>
      <trkpt lat="47.76966" lon="6.59298">
        <ele>365.21</ele>
        <time>2025-04-30T06:00:02.394Z</time>
      </trkpt>
      <trkpt lat="47.76965" lon="6.59295">
        <ele>365.08</ele>
        <time>2025-04-30T06:00:03.080Z</time>
      </trkpt>
      <trkpt lat="47.76968" lon="6.59288">
        <ele>364.96</ele>
        <time>2025-04-30T06:00:03.768Z</time>
      </trkpt>
      <trkpt lat="47.76969" lon="6.59281">
        <ele>364.83</ele>
        <time>2025-04-30T06:00:04.457Z</time>
      </trkpt>
      <trkpt lat="47.76977" lon="6.59271">
        <ele>364.71</ele>
        <time>2025-04-30T06:00:05.148Z</time>
      </trkpt>
      <trkpt lat="47.76979" lon="6.59267">
        <ele>364.59</ele>
        <time>2025-04-30T06:00:05.840Z</time>
      </trkpt>
      <trkpt lat="47.76981" lon="6.59265">
        <ele>364.48</ele>
        <time>2025-04-30T06:00:06.532Z</time>
      </trkpt>
      <trkpt lat="47.76981" lon="6.59262">
        <ele>364.36</ele>
        <time>2025-04-30T06:00:07.224Z</time>
      </trkpt>
      <trkpt lat="47.76982" lon="6.59259">
        <ele>364.24</ele>
        <time>2025-04-30T06:00:07.917Z</time>
      </trkpt>
      <trkpt lat="47.76984" lon="6.59258">
        <ele>364.14</ele>
        <time>2025-04-30T06:00:08.610Z</time>
      </trkpt>
      <trkpt lat="47.76996" lon="6.59244">
        <ele>364.02</ele>
        <time>2025-04-30T06:00:09.307Z</time>
      </trkpt>
      <trkpt lat="47.76997" lon="6.59241">
        <ele>363.92</ele>
        <time>2025-04-30T06:00:10.004Z</time>
      </trkpt>
      <trkpt lat="47.76999" lon="6.59239">
        <ele>363.83</ele>
        <time>2025-04-30T06:00:10.702Z</time>
      </trkpt>
      <trkpt lat="47.77004" lon="6.59232">
        <ele>363.74</ele>
        <time>2025-04-30T06:00:11.401Z</time>
      </trkpt>
      <trkpt lat="47.77008" lon="6.59224">
        <ele>363.65</ele>
        <time>2025-04-30T06:00:12.102Z</time>
      </trkpt>
      <trkpt lat="47.77018" lon="6.59209">
        <ele>363.57</ele>
        <time>2025-04-30T06:00:12.806Z</time>
      </trkpt>
      <trkpt lat="47.7702" lon="6.59207">
        <ele>363.51</ele>
        <time>2025-04-30T06:00:13.510Z</time>
      </trkpt>
      <trkpt lat="47.77022" lon="6.59204">
        <ele>363.46</ele>
        <time>2025-04-30T06:00:14.215Z</time>
      </trkpt>
      <trkpt lat="47.77028" lon="6.59201">
        <ele>363.42</ele>
        <time>2025-04-30T06:00:14.921Z</time>
      </trkpt>
      <trkpt lat="47.7703" lon="6.59198">
        <ele>363.4</ele>
        <time>2025-04-30T06:00:15.628Z</time>
      </trkpt>
      <trkpt lat="47.77036" lon="6.59193">
        <ele>363.39</ele>
        <time>2025-04-30T06:00:16.336Z</time>
      </trkpt>
      <trkpt lat="47.77054" lon="6.59173">
        <ele>363.43</ele>
        <time>2025-04-30T06:00:17.049Z</time>
      </trkpt>
      <trkpt lat="47.77059" lon="6.59163">
        <ele>363.44</ele>
        <time>2025-04-30T06:00:17.764Z</time>
      </trkpt>
      <trkpt lat="47.77061" lon="6.59158">
        <ele>363.48</ele>
        <time>2025-04-30T06:00:18.480Z</time>
      </trkpt>
      <trkpt lat="47.77061" lon="6.59153">
        <ele>363.52</ele>
        <time>2025-04-30T06:00:19.196Z</time>
      </trkpt>
      <trkpt lat="47.7706" lon="6.59148">
        <ele>363.57</ele>
        <time>2025-04-30T06:00:19.913Z</time>
      </trkpt>
      <trkpt lat="47.77057" lon="6.59136">
        <ele>363.62</ele>
        <time>2025-04-30T06:00:20.632Z</time>
      </trkpt>
      <trkpt lat="47.77054" lon="6.5913">
        <ele>363.71</ele>
        <time>2025-04-30T06:00:21.352Z</time>
      </trkpt>
      <trkpt lat="47.7705" lon="6.59125">
        <ele>363.8</ele>
        <time>2025-04-30T06:00:22.073Z</time>
      </trkpt>
      <trkpt lat="47.77048" lon="6.59121">
        <ele>363.92</ele>
        <time>2025-04-30T06:00:22.795Z</time>
      </trkpt>
      <trkpt lat="47.7704" lon="6.59114">
        <ele>364.03</ele>
        <time>2025-04-30T06:00:23.519Z</time>
      </trkpt>
      <trkpt lat="47.77037" lon="6.59109">
        <ele>364.2</ele>
        <time>2025-04-30T06:00:24.244Z</time>
      </trkpt>
      <trkpt lat="47.77033" lon="6.59107">
        <ele>364.39</ele>
        <time>2025-04-30T06:00:24.970Z</time>
      </trkpt>
      <trkpt lat="47.77014" lon="6.59081">
        <ele>364.63</ele>
        <time>2025-04-30T06:00:25.701Z</time>
      </trkpt>
      <trkpt lat="47.77012" lon="6.59075">
        <ele>364.88</ele>
        <time>2025-04-30T06:00:26.433Z</time>
      </trkpt>
      <trkpt lat="47.77011" lon="6.59069">
        <ele>365.16</ele>
        <time>2025-04-30T06:00:27.166Z</time>
      </trkpt>
      <trkpt lat="47.7701" lon="6.59058">
        <ele>365.48</ele>
        <time>2025-04-30T06:00:27.901Z</time>
      </trkpt>
      <trkpt lat="47.77009" lon="6.59055">
        <ele>365.78</ele>
        <time>2025-04-30T06:00:28.636Z</time>
      </trkpt>
      <trkpt lat="47.77011" lon="6.59051">
        <ele>366.12</ele>
        <time>2025-04-30T06:00:29.372Z</time>
      </trkpt>
      <trkpt lat="47.77014" lon="6.5905">
        <ele>366.47</ele>
        <time>2025-04-30T06:00:30.109Z</time>
      </trkpt>
      <trkpt lat="47.77015" lon="6.59049">
        <ele>366.83</ele>
        <time>2025-04-30T06:00:30.846Z</time>
      </trkpt>
      <trkpt lat="47.77017" lon="6.59048">
        <ele>367.21</ele>
        <time>2025-04-30T06:00:31.583Z</time>
      </trkpt>
      <trkpt lat="47.77019" lon="6.59048">
        <ele>367.6</ele>
        <time>2025-04-30T06:00:32.321Z</time>
      </trkpt>
      <trkpt lat="47.77022" lon="6.59048">
        <ele>368.01</ele>
        <time>2025-04-30T06:00:33.059Z</time>
      </trkpt>
      <trkpt lat="47.77024" lon="6.59047">
        <ele>368.44</ele>
        <time>2025-04-30T06:00:33.798Z</time>
      </trkpt>
      <trkpt lat="47.77026" lon="6.59044">
        <ele>368.88</ele>
        <time>2025-04-30T06:00:34.537Z</time>
      </trkpt>
      <trkpt lat="47.77028" lon="6.59043">
        <ele>369.33</ele>
        <time>2025-04-30T06:00:35.277Z</time>
      </trkpt>
      <trkpt lat="47.77033" lon="6.59041">
        <ele>369.8</ele>
        <time>2025-04-30T06:00:36.018Z</time>
      </trkpt>
      <trkpt lat="47.77038" lon="6.59029">
        <ele>370.32</ele>
        <time>2025-04-30T06:00:36.761Z</time>
      </trkpt>
      <trkpt lat="47.77039" lon="6.59026">
        <ele>370.78</ele>
        <time>2025-04-30T06:00:37.504Z</time>
      </trkpt>
      <trkpt lat="47.7704" lon="6.59023">
        <ele>371.25</ele>
        <time>2025-04-30T06:00:38.248Z</time>
      </trkpt>
      <trkpt lat="47.7704" lon="6.59018">
        <ele>371.72</ele>
        <time>2025-04-30T06:00:38.993Z</time>
      </trkpt>
      <trkpt lat="47.77042" lon="6.59014">
        <ele>372.18</ele>
        <time>2025-04-30T06:00:39.738Z</time>
      </trkpt>
      <trkpt lat="47.77042" lon="6.5901">
        <ele>372.64</ele>
        <time>2025-04-30T06:00:40.484Z</time>
      </trkpt>
      <trkpt lat="47.77043" lon="6.59004">
        <ele>373.1</ele>
        <time>2025-04-30T06:00:41.231Z</time>
      </trkpt>
      <trkpt lat="47.77046" lon="6.58998">
        <ele>373.56</ele>
        <time>2025-04-30T06:00:41.979Z</time>
      </trkpt>
      <trkpt lat="47.77047" lon="6.58994">
        <ele>374.01</ele>
        <time>2025-04-30T06:00:42.727Z</time>
      </trkpt>
      <trkpt lat="47.77049" lon="6.58989">
        <ele>374.46</ele>
        <time>2025-04-30T06:00:43.476Z</time>
      </trkpt>
      <trkpt lat="47.77054" lon="6.58976">
        <ele>374.9</ele>
        <time>2025-04-30T06:00:44.227Z</time>
      </trkpt>
      <trkpt lat="47.77056" lon="6.58968">
        <ele>375.32</ele>
        <time>2025-04-30T06:00:44.980Z</time>
      </trkpt>
      <trkpt lat="47.77057" lon="6.5896">
        <ele>375.7</ele>
        <time>2025-04-30T06:00:45.734Z</time>
      </trkpt>
      <trkpt lat="47.7706" lon="6.5895">
        <ele>376.06</ele>
        <time>2025-04-30T06:00:46.489Z</time>
      </trkpt>
      <trkpt lat="47.77063" lon="6.58941">
        <ele>376.41</ele>
        <time>2025-04-30T06:00:47.246Z</time>
      </trkpt>
      <trkpt lat="47.77068" lon="6.58933">
        <ele>376.76</ele>
        <time>2025-04-30T06:00:48.005Z</time>
      </trkpt>
      <trkpt lat="47.77073" lon="6.58926">
        <ele>377.09</ele>
        <time>2025-04-30T06:00:48.765Z</time>
      </trkpt>
      <trkpt lat="47.77079" lon="6.58919">
        <ele>377.38</ele>
        <time>2025-04-30T06:00:49.527Z</time>
      </trkpt>
      <trkpt lat="47.77085" lon="6.58914">
        <ele>377.66</ele>
        <time>2025-04-30T06:00:50.290Z</time>
      </trkpt>
      <trkpt lat="47.77088" lon="6.58911">
        <ele>377.93</ele>
        <time>2025-04-30T06:00:51.054Z</time>
      </trkpt>
      <trkpt lat="47.77093" lon="6.58909">
        <ele>378.19</ele>
        <time>2025-04-30T06:00:51.819Z</time>
      </trkpt>
      <trkpt lat="47.77097" lon="6.58906">
        <ele>378.44</ele>
        <time>2025-04-30T06:00:52.585Z</time>
      </trkpt>
      <trkpt lat="47.77102" lon="6.58904">
        <ele>378.66</ele>
        <time>2025-04-30T06:00:53.352Z</time>
      </trkpt>
      <trkpt lat="47.77104" lon="6.58902">
        <ele>378.86</ele>
        <time>2025-04-30T06:00:54.120Z</time>
      </trkpt>
      <trkpt lat="47.77106" lon="6.58902">
        <ele>379.04</ele>
        <time>2025-04-30T06:00:54.888Z</time>
      </trkpt>
      <trkpt lat="47.77108" lon="6.58902">
        <ele>379.19</ele>
        <time>2025-04-30T06:00:55.656Z</time>
      </trkpt>
      <trkpt lat="47.7711" lon="6.58901">
        <ele>379.32</ele>
        <time>2025-04-30T06:00:56.425Z</time>
      </trkpt>
      <trkpt lat="47.77116" lon="6.58897">
        <ele>379.43</ele>
        <time>2025-04-30T06:00:57.195Z</time>
      </trkpt>
      <trkpt lat="47.77119" lon="6.58895">
        <ele>379.51</ele>
        <time>2025-04-30T06:00:57.966Z</time>
      </trkpt>
      <trkpt lat="47.77121" lon="6.58893">
        <ele>379.57</ele>
        <time>2025-04-30T06:00:58.737Z</time>
      </trkpt>
      <trkpt lat="47.77127" lon="6.5889">
        <ele>379.6</ele>
        <time>2025-04-30T06:00:59.510Z</time>
      </trkpt>
      <trkpt lat="47.77132" lon="6.58885">
        <ele>379.61</ele>
        <time>2025-04-30T06:01:00.284Z</time>
      </trkpt>
      <trkpt lat="47.77138" lon="6.5888">
        <ele>379.58</ele>
        <time>2025-04-30T06:01:01.060Z</time>
      </trkpt>
      <trkpt lat="47.77139" lon="6.58878">
        <ele>379.52</ele>
        <time>2025-04-30T06:01:01.836Z</time>
      </trkpt>
      <trkpt lat="47.77141" lon="6.58877">
        <ele>379.43</ele>
        <time>2025-04-30T06:01:02.612Z</time>
      </trkpt>
      <trkpt lat="47.77144" lon="6.58877">
        <ele>379.32</ele>
        <time>2025-04-30T06:01:03.389Z</time>
      </trkpt>
      <trkpt lat="47.77147" lon="6.58877">
        <ele>379.18</ele>
        <time>2025-04-30T06:01:04.167Z</time>
      </trkpt>
      <trkpt lat="47.77149" lon="6.58878">
        <ele>379.01</ele>
        <time>2025-04-30T06:01:04.945Z</time>
      </trkpt>
      <trkpt lat="47.77152" lon="6.58877">
        <ele>378.8</ele>
        <time>2025-04-30T06:01:05.724Z</time>
      </trkpt>
      <trkpt lat="47.77156" lon="6.58874">
        <ele>378.55</ele>
        <time>2025-04-30T06:01:06.504Z</time>
      </trkpt>
      <trkpt lat="47.77159" lon="6.58874">
        <ele>378.28</ele>
        <time>2025-04-30T06:01:07.284Z</time>
      </trkpt>
      <trkpt lat="47.77161" lon="6.58874">
        <ele>377.97</ele>
        <time>2025-04-30T06:01:08.065Z</time>
      </trkpt>
      <trkpt lat="47.77165" lon="6.58874">
        <ele>377.63</ele>
        <time>2025-04-30T06:01:08.847Z</time>
      </trkpt>
      <trkpt lat="47.77172" lon="6.58871">
        <ele>377.26</ele>
        <time>2025-04-30T06:01:09.630Z</time>
      </trkpt>
      <trkpt lat="47.77177" lon="6.58869">
        <ele>376.86</ele>
        <time>2025-04-30T06:01:10.414Z</time>
      </trkpt>
      <trkpt lat="47.77185" lon="6.58865">
        <ele>376.42</ele>
        <time>2025-04-30T06:01:11.200Z</time>
      </trkpt>
      <trkpt lat="47.7719" lon="6.58862">
        <ele>375.95</ele>
        <time>2025-04-30T06:01:11.987Z</time>
      </trkpt>
      <trkpt lat="47.77199" lon="6.58853">
        <ele>375.43</ele>
        <time>2025-04-30T06:01:12.777Z</time>
      </trkpt>
      <trkpt lat="47.77203" lon="6.58846">
        <ele>374.89</ele>
        <time>2025-04-30T06:01:13.568Z</time>
      </trkpt>
      <trkpt lat="47.77209" lon="6.58837">
        <ele>374.32</ele>
        <time>2025-04-30T06:01:14.361Z</time>
      </trkpt>
      <trkpt lat="47.77213" lon="6.58827">
        <ele>373.72</ele>
        <time>2025-04-30T06:01:15.155Z</time>
      </trkpt>
      <trkpt lat="47.77222" lon="6.58808">
        <ele>373.03</ele>
        <time>2025-04-30T06:01:15.953Z</time>
      </trkpt>
      <trkpt lat="47.77226" lon="6.588">
        <ele>372.37</ele>
        <time>2025-04-30T06:01:16.752Z</time>
      </trkpt>
      <trkpt lat="47.77231" lon="6.58791">
        <ele>371.67</ele>
        <time>2025-04-30T06:01:17.553Z</time>
      </trkpt>
      <trkpt lat="47.77235" lon="6.58784">
        <ele>370.96</ele>
        <time>2025-04-30T06:01:18.355Z</time>
      </trkpt>
      <trkpt lat="47.77252" lon="6.58745">
        <ele>370.13</ele>
        <time>2025-04-30T06:01:19.164Z</time>
      </trkpt>
      <trkpt lat="47.77257" lon="6.5874">
        <ele>369.41</ele>
        <time>2025-04-30T06:01:19.974Z</time>
      </trkpt>
      <trkpt lat="47.77262" lon="6.58736">
        <ele>368.7</ele>
        <time>2025-04-30T06:01:20.785Z</time>
      </trkpt>
      <trkpt lat="47.77266" lon="6.58737">
        <ele>368</ele>
        <time>2025-04-30T06:01:21.597Z</time>
      </trkpt>
      <trkpt lat="47.77274" lon="6.58742">
        <ele>367.31</ele>
        <time>2025-04-30T06:01:22.411Z</time>
      </trkpt>
      <trkpt lat="47.77277" lon="6.58743">
        <ele>366.61</ele>
        <time>2025-04-30T06:01:23.226Z</time>
      </trkpt>
      <trkpt lat="47.7728" lon="6.58744">
        <ele>365.9</ele>
        <time>2025-04-30T06:01:24.041Z</time>
      </trkpt>
      <trkpt lat="47.77282" lon="6.58745">
        <ele>365.2</ele>
        <time>2025-04-30T06:01:24.857Z</time>
      </trkpt>
      <trkpt lat="47.77286" lon="6.58744">
        <ele>364.49</ele>
        <time>2025-04-30T06:01:25.674Z</time>
      </trkpt>
      <trkpt lat="47.77288" lon="6.58743">
        <ele>363.78</ele>
        <time>2025-04-30T06:01:26.491Z</time>
      </trkpt>
      <trkpt lat="47.77292" lon="6.58741">
        <ele>363.08</ele>
        <time>2025-04-30T06:01:27.309Z</time>
      </trkpt>
      <trkpt lat="47.77296" lon="6.58739">
        <ele>362.39</ele>
        <time>2025-04-30T06:01:28.128Z</time>
      </trkpt>
      <trkpt lat="47.77301" lon="6.58734">
        <ele>361.7</ele>
        <time>2025-04-30T06:01:28.948Z</time>
      </trkpt>
      <trkpt lat="47.77312" lon="6.58721">
        <ele>361</ele>
        <time>2025-04-30T06:01:29.771Z</time>
      </trkpt>
      <trkpt lat="47.77316" lon="6.58713">
        <ele>360.31</ele>
        <time>2025-04-30T06:01:30.596Z</time>
      </trkpt>
      <trkpt lat="47.77319" lon="6.58704">
        <ele>359.62</ele>
        <time>2025-04-30T06:01:31.422Z</time>
      </trkpt>
      <trkpt lat="47.77321" lon="6.58694">
        <ele>358.97</ele>
        <time>2025-04-30T06:01:32.250Z</time>
      </trkpt>
      <trkpt lat="47.77326" lon="6.58685">
        <ele>358.31</ele>
        <time>2025-04-30T06:01:33.080Z</time>
      </trkpt>
      <trkpt lat="47.77331" lon="6.58676">
        <ele>357.71</ele>
        <time>2025-04-30T06:01:33.911Z</time>
      </trkpt>
      <trkpt lat="47.77336" lon="6.5867">
        <ele>357.14</ele>
        <time>2025-04-30T06:01:34.743Z</time>
      </trkpt>
      <trkpt lat="47.77341" lon="6.58668">
        <ele>356.61</ele>
        <time>2025-04-30T06:01:35.577Z</time>
      </trkpt>
      <trkpt lat="47.77346" lon="6.58666">
        <ele>356.11</ele>
        <time>2025-04-30T06:01:36.412Z</time>
      </trkpt>
      <trkpt lat="47.77353" lon="6.58666">
        <ele>355.63</ele>
        <time>2025-04-30T06:01:37.248Z</time>
      </trkpt>
      <trkpt lat="47.77358" lon="6.58665">
        <ele>355.18</ele>
        <time>2025-04-30T06:01:38.085Z</time>
      </trkpt>
      <trkpt lat="47.77363" lon="6.58665">
        <ele>354.77</ele>
        <time>2025-04-30T06:01:38.923Z</time>
      </trkpt>
      <trkpt lat="47.77367" lon="6.58664">
        <ele>354.38</ele>
        <time>2025-04-30T06:01:39.762Z</time>
      </trkpt>
      <trkpt lat="47.77377" lon="6.58661">
        <ele>354.01</ele>
        <time>2025-04-30T06:01:40.603Z</time>
      </trkpt>
      <trkpt lat="47.77381" lon="6.58659">
        <ele>353.69</ele>
        <time>2025-04-30T06:01:41.445Z</time>
      </trkpt>
      <trkpt lat="47.77386" lon="6.58656">
        <ele>353.4</ele>
        <time>2025-04-30T06:01:42.288Z</time>
      </trkpt>
      <trkpt lat="47.7739" lon="6.58652">
        <ele>353.15</ele>
        <time>2025-04-30T06:01:43.133Z</time>
      </trkpt>
      <trkpt lat="47.77396" lon="6.5864">
        <ele>352.92</ele>
        <time>2025-04-30T06:01:43.980Z</time>
      </trkpt>
      <trkpt lat="47.77398" lon="6.58634">
        <ele>352.75</ele>
        <time>2025-04-30T06:01:44.828Z</time>
      </trkpt>
      <trkpt lat="47.774" lon="6.58628">
        <ele>352.6</ele>
        <time>2025-04-30T06:01:45.677Z</time>
      </trkpt>
      <trkpt lat="47.77403" lon="6.58621">
        <ele>352.5</ele>
        <time>2025-04-30T06:01:46.527Z</time>
      </trkpt>
      <trkpt lat="47.77405" lon="6.58613">
        <ele>352.44</ele>
        <time>2025-04-30T06:01:47.378Z</time>
      </trkpt>
      <trkpt lat="47.77403" lon="6.58596">
        <ele>352.43</ele>
        <time>2025-04-30T06:01:48.232Z</time>
      </trkpt>
      <trkpt lat="47.77401" lon="6.5859">
        <ele>352.45</ele>
        <time>2025-04-30T06:01:49.086Z</time>
      </trkpt>
      <trkpt lat="47.77397" lon="6.58585">
        <ele>352.5</ele>
        <time>2025-04-30T06:01:49.942Z</time>
      </trkpt>
      <trkpt lat="47.77392" lon="6.58581">
        <ele>352.58</ele>
        <time>2025-04-30T06:01:50.799Z</time>
      </trkpt>
      <trkpt lat="47.77384" lon="6.58574">
        <ele>352.7</ele>
        <time>2025-04-30T06:01:51.658Z</time>
      </trkpt>
      <trkpt lat="47.7738" lon="6.5857">
        <ele>352.85</ele>
        <time>2025-04-30T06:01:52.518Z</time>
      </trkpt>
      <trkpt lat="47.77368" lon="6.58559">
        <ele>353.04</ele>
        <time>2025-04-30T06:01:53.381Z</time>
      </trkpt>
      <trkpt lat="47.77366" lon="6.58555">
        <ele>353.25</ele>
        <time>2025-04-30T06:01:54.245Z</time>
      </trkpt>
      <trkpt lat="47.77364" lon="6.5855">
        <ele>353.48</ele>
        <time>2025-04-30T06:01:55.109Z</time>
      </trkpt>
      <trkpt lat="47.77362" lon="6.58545">
        <ele>353.74</ele>
        <time>2025-04-30T06:01:55.974Z</time>
      </trkpt>
      <trkpt lat="47.77361" lon="6.58541">
        <ele>354.03</ele>
        <time>2025-04-30T06:01:56.840Z</time>
      </trkpt>
      <trkpt lat="47.77361" lon="6.58536">
        <ele>354.33</ele>
        <time>2025-04-30T06:01:57.707Z</time>
      </trkpt>
      <trkpt lat="47.77362" lon="6.58532">
        <ele>354.65</ele>
        <time>2025-04-30T06:01:58.574Z</time>
      </trkpt>
      <trkpt lat="47.77364" lon="6.58529">
        <ele>354.98</ele>
        <time>2025-04-30T06:01:59.442Z</time>
      </trkpt>
      <trkpt lat="47.77368" lon="6.58527">
        <ele>355.32</ele>
        <time>2025-04-30T06:02:00.311Z</time>
      </trkpt>
      <trkpt lat="47.77371" lon="6.58526">
        <ele>355.68</ele>
        <time>2025-04-30T06:02:01.180Z</time>
      </trkpt>
      <trkpt lat="47.77383" lon="6.58527">
        <ele>356.05</ele>
        <time>2025-04-30T06:02:02.052Z</time>
      </trkpt>
      <trkpt lat="47.77387" lon="6.58528">
        <ele>356.43</ele>
        <time>2025-04-30T06:02:02.925Z</time>
      </trkpt>
      <trkpt lat="47.77392" lon="6.58529">
        <ele>356.81</ele>
        <time>2025-04-30T06:02:03.799Z</time>
      </trkpt>
      <trkpt lat="47.77413" lon="6.58536">
        <ele>357.26</ele>
        <time>2025-04-30T06:02:04.678Z</time>
      </trkpt>
      <trkpt lat="47.77422" lon="6.58541">
        <ele>357.67</ele>
        <time>2025-04-30T06:02:05.559Z</time>
      </trkpt>
      <trkpt lat="47.77436" lon="6.5855">
        <ele>358.05</ele>
        <time>2025-04-30T06:02:06.443Z</time>
      </trkpt>
      <trkpt lat="47.7746" lon="6.58559">
        <ele>358.43</ele>
        <time>2025-04-30T06:02:07.332Z</time>
      </trkpt>
      <trkpt lat="47.7747" lon="6.58561">
        <ele>358.82</ele>
        <time>2025-04-30T06:02:08.223Z</time>
      </trkpt>
      <trkpt lat="47.77511" lon="6.58567">
        <ele>359.27</ele>
        <time>2025-04-30T06:02:09.123Z</time>
      </trkpt>
      <trkpt lat="47.77516" lon="6.58569">
        <ele>359.71</ele>
        <time>2025-04-30T06:02:10.024Z</time>
      </trkpt>
      <trkpt lat="47.77525" lon="6.58568">
        <ele>360.16</ele>
        <time>2025-04-30T06:02:10.927Z</time>
      </trkpt>
      <trkpt lat="47.77529" lon="6.58565">
        <ele>360.57</ele>
        <time>2025-04-30T06:02:11.831Z</time>
      </trkpt>
      <trkpt lat="47.77532" lon="6.58561">
        <ele>360.97</ele>
        <time>2025-04-30T06:02:12.736Z</time>
      </trkpt>
      <trkpt lat="47.77535" lon="6.58556">
        <ele>361.37</ele>
        <time>2025-04-30T06:02:13.642Z</time>
      </trkpt>
      <trkpt lat="47.77537" lon="6.58551">
        <ele>361.76</ele>
        <time>2025-04-30T06:02:14.549Z</time>
      </trkpt>
      <trkpt lat="47.7754" lon="6.58545">
        <ele>362.15</ele>
        <time>2025-04-30T06:02:15.457Z</time>
      </trkpt>
      <trkpt lat="47.77542" lon="6.58539">
        <ele>362.52</ele>
        <time>2025-04-30T06:02:16.366Z</time>
      </trkpt>
      <trkpt lat="47.77544" lon="6.58533">
        <ele>362.88</ele>
        <time>2025-04-30T06:02:17.276Z</time>
      </trkpt>
      <trkpt lat="47.77545" lon="6.5852">
        <ele>363.24</ele>
        <time>2025-04-30T06:02:18.188Z</time>
      </trkpt>
      <trkpt lat="47.77544" lon="6.58513">
        <ele>363.58</ele>
        <time>2025-04-30T06:02:19.101Z</time>
      </trkpt>
      <trkpt lat="47.77544" lon="6.58506">
        <ele>363.89</ele>
        <time>2025-04-30T06:02:20.015Z</time>
      </trkpt>
      <trkpt lat="47.77543" lon="6.58499">
        <ele>364.19</ele>
        <time>2025-04-30T06:02:20.930Z</time>
      </trkpt>
      <trkpt lat="47.77542" lon="6.58493">
        <ele>364.48</ele>
        <time>2025-04-30T06:02:21.846Z</time>
      </trkpt>
      <trkpt lat="47.77541" lon="6.58479">
        <ele>364.74</ele>
        <time>2025-04-30T06:02:22.764Z</time>
      </trkpt>
      <trkpt lat="47.77539" lon="6.58464">
        <ele>365.01</ele>
        <time>2025-04-30T06:02:23.684Z</time>
      </trkpt>
      <trkpt lat="47.77538" lon="6.58456">
        <ele>365.28</ele>
        <time>2025-04-30T06:02:24.605Z</time>
      </trkpt>
      <trkpt lat="47.7754" lon="6.58441">
        <ele>365.53</ele>
        <time>2025-04-30T06:02:25.528Z</time>
      </trkpt>
      <trkpt lat="47.77542" lon="6.58433">
        <ele>365.78</ele>
        <time>2025-04-30T06:02:26.452Z</time>
      </trkpt>
      <trkpt lat="47.77544" lon="6.58426">
        <ele>366.03</ele>
        <time>2025-04-30T06:02:27.378Z</time>
      </trkpt>
      <trkpt lat="47.77546" lon="6.58419">
        <ele>366.27</ele>
        <time>2025-04-30T06:02:28.305Z</time>
      </trkpt>
      <trkpt lat="47.77549" lon="6.58404">
        <ele>366.52</ele>
        <time>2025-04-30T06:02:29.234Z</time>
      </trkpt>
      <trkpt lat="47.7755" lon="6.58396">
        <ele>366.76</ele>
        <time>2025-04-30T06:02:30.164Z</time>
      </trkpt>
      <trkpt lat="47.77551" lon="6.58389">
        <ele>367.01</ele>
        <time>2025-04-30T06:02:31.095Z</time>
      </trkpt>
      <trkpt lat="47.77553" lon="6.58382">
        <ele>367.26</ele>
        <time>2025-04-30T06:02:32.027Z</time>
      </trkpt>
      <trkpt lat="47.77555" lon="6.58376">
        <ele>367.5</ele>
        <time>2025-04-30T06:02:32.960Z</time>
      </trkpt>
      <trkpt lat="47.77558" lon="6.58372">
        <ele>367.74</ele>
        <time>2025-04-30T06:02:33.894Z</time>
      </trkpt>
      <trkpt lat="47.77561" lon="6.58371">
        <ele>367.97</ele>
        <time>2025-04-30T06:02:34.829Z</time>
      </trkpt>
      <trkpt lat="47.77564" lon="6.58372">
        <ele>368.2</ele>
        <time>2025-04-30T06:02:35.764Z</time>
      </trkpt>
      <trkpt lat="47.77566" lon="6.58375">
        <ele>368.43</ele>
        <time>2025-04-30T06:02:36.700Z</time>
      </trkpt>
      <trkpt lat="47.77569" lon="6.58378">
        <ele>368.66</ele>
        <time>2025-04-30T06:02:37.637Z</time>
      </trkpt>
      <trkpt lat="47.77575" lon="6.58385">
        <ele>368.91</ele>
        <time>2025-04-30T06:02:38.575Z</time>
      </trkpt>
      <trkpt lat="47.77577" lon="6.58389">
        <ele>369.14</ele>
        <time>2025-04-30T06:02:39.514Z</time>
      </trkpt>
      <trkpt lat="47.77581" lon="6.58396">
        <ele>369.37</ele>
        <time>2025-04-30T06:02:40.454Z</time>
      </trkpt>
      <trkpt lat="47.77583" lon="6.58399">
        <ele>369.61</ele>
        <time>2025-04-30T06:02:41.395Z</time>
      </trkpt>
      <trkpt lat="47.77585" lon="6.58402">
        <ele>369.84</ele>
        <time>2025-04-30T06:02:42.337Z</time>
      </trkpt>
      <trkpt lat="47.77587" lon="6.58404">
        <ele>370.08</ele>
        <time>2025-04-30T06:02:43.279Z</time>
      </trkpt>
      <trkpt lat="47.77589" lon="6.58407">
        <ele>370.32</ele>
        <time>2025-04-30T06:02:44.222Z</time>
      </trkpt>
      <trkpt lat="47.77591" lon="6.58409">
        <ele>370.56</ele>
        <time>2025-04-30T06:02:45.165Z</time>
      </trkpt>
      <trkpt lat="47.77593" lon="6.5841">
        <ele>370.81</ele>
        <time>2025-04-30T06:02:46.109Z</time>
      </trkpt>
      <trkpt lat="47.77595" lon="6.58411">
        <ele>371.05</ele>
        <time>2025-04-30T06:02:47.053Z</time>
      </trkpt>
      <trkpt lat="47.77596" lon="6.58413">
        <ele>371.3</ele>
        <time>2025-04-30T06:02:47.998Z</time>
      </trkpt>
      <trkpt lat="47.77598" lon="6.58415">
        <ele>371.55</ele>
        <time>2025-04-30T06:02:48.943Z</time>
      </trkpt>
      <trkpt lat="47.77601" lon="6.58415">
        <ele>371.81</ele>
        <time>2025-04-30T06:02:49.889Z</time>
      </trkpt>
      <trkpt lat="47.77602" lon="6.58416">
        <ele>372.06</ele>
        <time>2025-04-30T06:02:50.835Z</time>
      </trkpt>
      <trkpt lat="47.77604" lon="6.58418">
        <ele>372.32</ele>
        <time>2025-04-30T06:02:51.781Z</time>
      </trkpt>
      <trkpt lat="47.77605" lon="6.58418">
        <ele>372.57</ele>
        <time>2025-04-30T06:02:52.728Z</time>
      </trkpt>
      <trkpt lat="47.77607" lon="6.58417">
        <ele>372.83</ele>
        <time>2025-04-30T06:02:53.675Z</time>
      </trkpt>
      <trkpt lat="47.77608" lon="6.58417">
        <ele>373.09</ele>
        <time>2025-04-30T06:02:54.622Z</time>
      </trkpt>
      <trkpt lat="47.77611" lon="6.58415">
        <ele>373.37</ele>
        <time>2025-04-30T06:02:55.570Z</time>
      </trkpt>
      <trkpt lat="47.77613" lon="6.58414">
        <ele>373.63</ele>
        <time>2025-04-30T06:02:56.519Z</time>
      </trkpt>
      <trkpt lat="47.77615" lon="6.58414">
        <ele>373.89</ele>
        <time>2025-04-30T06:02:57.468Z</time>
      </trkpt>
      <trkpt lat="47.77616" lon="6.58412">
        <ele>374.15</ele>
        <time>2025-04-30T06:02:58.417Z</time>
      </trkpt>
      <trkpt lat="47.77617" lon="6.58411">
        <ele>374.41</ele>
        <time>2025-04-30T06:02:59.367Z</time>
      </trkpt>
      <trkpt lat="47.77618" lon="6.58409">
        <ele>374.67</ele>
        <time>2025-04-30T06:03:00.317Z</time>
      </trkpt>
      <trkpt lat="47.7762" lon="6.58407">
        <ele>374.93</ele>
        <time>2025-04-30T06:03:01.267Z</time>
      </trkpt>
      <trkpt lat="47.7762" lon="6.58405">
        <ele>375.19</ele>
        <time>2025-04-30T06:03:02.218Z</time>
      </trkpt>
      <trkpt lat="47.77621" lon="6.58402">
        <ele>375.44</ele>
        <time>2025-04-30T06:03:03.169Z</time>
      </trkpt>
      <trkpt lat="47.77623" lon="6.58398">
        <ele>375.7</ele>
        <time>2025-04-30T06:03:04.121Z</time>
      </trkpt>
      <trkpt lat="47.77625" lon="6.58396">
        <ele>375.95</ele>
        <time>2025-04-30T06:03:05.073Z</time>
      </trkpt>
      <trkpt lat="47.77625" lon="6.58394">
        <ele>376.19</ele>
        <time>2025-04-30T06:03:06.026Z</time>
      </trkpt>
      <trkpt lat="47.77628" lon="6.58394">
        <ele>376.44</ele>
        <time>2025-04-30T06:03:06.979Z</time>
      </trkpt>
      <trkpt lat="47.7763" lon="6.58391">
        <ele>376.69</ele>
        <time>2025-04-30T06:03:07.933Z</time>
      </trkpt>
      <trkpt lat="47.77632" lon="6.58388">
        <ele>376.92</ele>
        <time>2025-04-30T06:03:08.887Z</time>
      </trkpt>
      <trkpt lat="47.77633" lon="6.58385">
        <ele>377.15</ele>
        <time>2025-04-30T06:03:09.842Z</time>
      </trkpt>
      <trkpt lat="47.77635" lon="6.58382">
        <ele>377.38</ele>
        <time>2025-04-30T06:03:10.797Z</time>
      </trkpt>
      <trkpt lat="47.77636" lon="6.5838">
        <ele>377.6</ele>
        <time>2025-04-30T06:03:11.753Z</time>
      </trkpt>
      <trkpt lat="47.77637" lon="6.58376">
        <ele>377.82</ele>
        <time>2025-04-30T06:03:12.709Z</time>
      </trkpt>
      <trkpt lat="47.77638" lon="6.58372">
        <ele>378.04</ele>
        <time>2025-04-30T06:03:13.666Z</time>
      </trkpt>
      <trkpt lat="47.77638" lon="6.58368">
        <ele>378.24</ele>
        <time>2025-04-30T06:03:14.624Z</time>
      </trkpt>
      <trkpt lat="47.77636" lon="6.58362">
        <ele>378.43</ele>
        <time>2025-04-30T06:03:15.583Z</time>
      </trkpt>
      <trkpt lat="47.77634" lon="6.58357">
        <ele>378.61</ele>
        <time>2025-04-30T06:03:16.542Z</time>
      </trkpt>
      <trkpt lat="47.77633" lon="6.58353">
        <ele>378.79</ele>
        <time>2025-04-30T06:03:17.502Z</time>
      </trkpt>
      <trkpt lat="47.77633" lon="6.58349">
        <ele>378.97</ele>
        <time>2025-04-30T06:03:18.463Z</time>
      </trkpt>
      <trkpt lat="47.77633" lon="6.58345">
        <ele>379.14</ele>
        <time>2025-04-30T06:03:19.424Z</time>
      </trkpt>
      <trkpt lat="47.77634" lon="6.58341">
        <ele>379.31</ele>
        <time>2025-04-30T06:03:20.386Z</time>
      </trkpt>
      <trkpt lat="47.77635" lon="6.58337">
        <ele>379.47</ele>
        <time>2025-04-30T06:03:21.348Z</time>
      </trkpt>
      <trkpt lat="47.77637" lon="6.58333">
        <ele>379.63</ele>
        <time>2025-04-30T06:03:22.311Z</time>
      </trkpt>
      <trkpt lat="47.77638" lon="6.58329">
        <ele>379.79</ele>
        <time>2025-04-30T06:03:23.275Z</time>
      </trkpt>
      <trkpt lat="47.7764" lon="6.58325">
        <ele>379.94</ele>
        <time>2025-04-30T06:03:24.239Z</time>
      </trkpt>
      <trkpt lat="47.77642" lon="6.58321">
        <ele>380.08</ele>
        <time>2025-04-30T06:03:25.204Z</time>
      </trkpt>
      <trkpt lat="47.77644" lon="6.58318">
        <ele>380.21</ele>
        <time>2025-04-30T06:03:26.170Z</time>
      </trkpt>
      <trkpt lat="47.77646" lon="6.58314">
        <ele>380.34</ele>
        <time>2025-04-30T06:03:27.137Z</time>
      </trkpt>
      <trkpt lat="47.77648" lon="6.5831">
        <ele>380.45</ele>
        <time>2025-04-30T06:03:28.104Z</time>
      </trkpt>
      <trkpt lat="47.7765" lon="6.58306">
        <ele>380.56</ele>
        <time>2025-04-30T06:03:29.072Z</time>
      </trkpt>
      <trkpt lat="47.77651" lon="6.58302">
        <ele>380.67</ele>
        <time>2025-04-30T06:03:30.041Z</time>
      </trkpt>
      <trkpt lat="47.77652" lon="6.58298">
        <ele>380.76</ele>
        <time>2025-04-30T06:03:31.010Z</time>
      </trkpt>
      <trkpt lat="47.77654" lon="6.58295">
        <ele>380.85</ele>
        <time>2025-04-30T06:03:31.980Z</time>
      </trkpt>
      <trkpt lat="47.77655" lon="6.58291">
        <ele>380.93</ele>
        <time>2025-04-30T06:03:32.950Z</time>
      </trkpt>
      <trkpt lat="47.77656" lon="6.58288">
        <ele>381.01</ele>
        <time>2025-04-30T06:03:33.921Z</time>
      </trkpt>
      <trkpt lat="47.77657" lon="6.58281">
        <ele>381.07</ele>
        <time>2025-04-30T06:03:34.893Z</time>
      </trkpt>
      <trkpt lat="47.77658" lon="6.58277">
        <ele>381.13</ele>
        <time>2025-04-30T06:03:35.865Z</time>
      </trkpt>
      <trkpt lat="47.77659" lon="6.58274">
        <ele>381.18</ele>
        <time>2025-04-30T06:03:36.838Z</time>
      </trkpt>
      <trkpt lat="47.7766" lon="6.58271">
        <ele>381.23</ele>
        <time>2025-04-30T06:03:37.811Z</time>
      </trkpt>
      <trkpt lat="47.77662" lon="6.58264">
        <ele>381.27</ele>
        <time>2025-04-30T06:03:38.786Z</time>
      </trkpt>
      <trkpt lat="47.77664" lon="6.58262">
        <ele>381.3</ele>
        <time>2025-04-30T06:03:39.761Z</time>
      </trkpt>
      <trkpt lat="47.77665" lon="6.58259">
        <ele>381.32</ele>
        <time>2025-04-30T06:03:40.737Z</time>
      </trkpt>
      <trkpt lat="47.77666" lon="6.58256">
        <ele>381.34</ele>
        <time>2025-04-30T06:03:41.713Z</time>
      </trkpt>
      <trkpt lat="47.77666" lon="6.58253">
        <ele>381.36</ele>
        <time>2025-04-30T06:03:42.689Z</time>
      </trkpt>
      <trkpt lat="47.77666" lon="6.58249">
        <ele>381.37</ele>
        <time>2025-04-30T06:03:43.666Z</time>
      </trkpt>
      <trkpt lat="47.77667" lon="6.58245">
        <ele>381.39</ele>
        <time>2025-04-30T06:03:44.644Z</time>
      </trkpt>
      <trkpt lat="47.77668" lon="6.5824">
        <ele>381.4</ele>
        <time>2025-04-30T06:03:45.622Z</time>
      </trkpt>
      <trkpt lat="47.77675" lon="6.58223">
        <ele>381.41</ele>
        <time>2025-04-30T06:03:46.603Z</time>
      </trkpt>
      <trkpt lat="47.77679" lon="6.58212">
        <ele>381.41</ele>
        <time>2025-04-30T06:03:47.586Z</time>
      </trkpt>
      <trkpt lat="47.77683" lon="6.58204">
        <ele>381.42</ele>
        <time>2025-04-30T06:03:48.570Z</time>
      </trkpt>
      <trkpt lat="47.77685" lon="6.58203">
        <ele>381.42</ele>
        <time>2025-04-30T06:03:49.555Z</time>
      </trkpt>
      <trkpt lat="47.77686" lon="6.58202">
        <ele>381.42</ele>
        <time>2025-04-30T06:03:50.540Z</time>
      </trkpt>
      <trkpt lat="47.77688" lon="6.58199">
        <ele>381.42</ele>
        <time>2025-04-30T06:03:51.526Z</time>
      </trkpt>
      <trkpt lat="47.77689" lon="6.58197">
        <ele>381.41</ele>
        <time>2025-04-30T06:03:52.512Z</time>
      </trkpt>
      <trkpt lat="47.77689" lon="6.58195">
        <ele>381.41</ele>
        <time>2025-04-30T06:03:53.498Z</time>
      </trkpt>
      <trkpt lat="47.77688" lon="6.58192">
        <ele>381.4</ele>
        <time>2025-04-30T06:03:54.485Z</time>
      </trkpt>
      <trkpt lat="47.77687" lon="6.58189">
        <ele>381.38</ele>
        <time>2025-04-30T06:03:55.472Z</time>
      </trkpt>
      <trkpt lat="47.77686" lon="6.58187">
        <ele>381.37</ele>
        <time>2025-04-30T06:03:56.460Z</time>
      </trkpt>
      <trkpt lat="47.77683" lon="6.58185">
        <ele>381.35</ele>
        <time>2025-04-30T06:03:57.448Z</time>
      </trkpt>
      <trkpt lat="47.7768" lon="6.58184">
        <ele>381.32</ele>
        <time>2025-04-30T06:03:58.437Z</time>
      </trkpt>
      <trkpt lat="47.77678" lon="6.58183">
        <ele>381.3</ele>
        <time>2025-04-30T06:03:59.427Z</time>
      </trkpt>
      <trkpt lat="47.77675" lon="6.58181">
        <ele>381.27</ele>
        <time>2025-04-30T06:04:00.417Z</time>
      </trkpt>
      <trkpt lat="47.77672" lon="6.5818">
        <ele>381.24</ele>
        <time>2025-04-30T06:04:01.408Z</time>
      </trkpt>
      <trkpt lat="47.77669" lon="6.58178">
        <ele>381.21</ele>
        <time>2025-04-30T06:04:02.400Z</time>
      </trkpt>
      <trkpt lat="47.77665" lon="6.58176">
        <ele>381.18</ele>
        <time>2025-04-30T06:04:03.392Z</time>
      </trkpt>
      <trkpt lat="47.77662" lon="6.58175">
        <ele>381.15</ele>
        <time>2025-04-30T06:04:04.385Z</time>
      </trkpt>
      <trkpt lat="47.77659" lon="6.58173">
        <ele>381.12</ele>
        <time>2025-04-30T06:04:05.379Z</time>
      </trkpt>
      <trkpt lat="47.77656" lon="6.58172">
        <ele>381.08</ele>
        <time>2025-04-30T06:04:06.374Z</time>
      </trkpt>
      <trkpt lat="47.77652" lon="6.5817">
        <ele>381.04</ele>
        <time>2025-04-30T06:04:07.369Z</time>
      </trkpt>
      <trkpt lat="47.77648" lon="6.58168">
        <ele>381</ele>
        <time>2025-04-30T06:04:08.365Z</time>
      </trkpt>
      <trkpt lat="47.77645" lon="6.58164">
        <ele>380.95</ele>
        <time>2025-04-30T06:04:09.362Z</time>
      </trkpt>
      <trkpt lat="47.77644" lon="6.58159">
        <ele>380.91</ele>
        <time>2025-04-30T06:04:10.360Z</time>
      </trkpt>
      <trkpt lat="47.77644" lon="6.58154">
        <ele>380.86</ele>
        <time>2025-04-30T06:04:11.359Z</time>
      </trkpt>
      <trkpt lat="47.77645" lon="6.58149">
        <ele>380.8</ele>
        <time>2025-04-30T06:04:12.359Z</time>
      </trkpt>
      <trkpt lat="47.77647" lon="6.58145">
        <ele>380.75</ele>
        <time>2025-04-30T06:04:13.359Z</time>
      </trkpt>
      <trkpt lat="47.77649" lon="6.58141">
        <ele>380.7</ele>
        <time>2025-04-30T06:04:14.360Z</time>
      </trkpt>
      <trkpt lat="47.7765" lon="6.58137">
        <ele>380.64</ele>
        <time>2025-04-30T06:04:15.362Z</time>
      </trkpt>
      <trkpt lat="47.77652" lon="6.58133">
        <ele>380.58</ele>
        <time>2025-04-30T06:04:16.364Z</time>
      </trkpt>
      <trkpt lat="47.77654" lon="6.5813">
        <ele>380.53</ele>
        <time>2025-04-30T06:04:17.367Z</time>
      </trkpt>
      <trkpt lat="47.77656" lon="6.58124">
        <ele>380.47</ele>
        <time>2025-04-30T06:04:18.371Z</time>
      </trkpt>
      <trkpt lat="47.77659" lon="6.58119">
        <ele>380.41</ele>
        <time>2025-04-30T06:04:19.376Z</time>
      </trkpt>
      <trkpt lat="47.77662" lon="6.58112">
        <ele>380.36</ele>
        <time>2025-04-30T06:04:20.382Z</time>
      </trkpt>
      <trkpt lat="47.77665" lon="6.58106">
        <ele>380.3</ele>
        <time>2025-04-30T06:04:21.389Z</time>
      </trkpt>
      <trkpt lat="47.77668" lon="6.58099">
        <ele>380.23</ele>
        <time>2025-04-30T06:04:22.397Z</time>
      </trkpt>
      <trkpt lat="47.77671" lon="6.58093">
        <ele>380.16</ele>
        <time>2025-04-30T06:04:23.406Z</time>
      </trkpt>
      <trkpt lat="47.77674" lon="6.58087">
        <ele>380.09</ele>
        <time>2025-04-30T06:04:24.416Z</time>
      </trkpt>
      <trkpt lat="47.77677" lon="6.58081">
        <ele>380.01</ele>
        <time>2025-04-30T06:04:25.427Z</time>
      </trkpt>
      <trkpt lat="47.7768" lon="6.58075">
        <ele>379.94</ele>
        <time>2025-04-30T06:04:26.440Z</time>
      </trkpt>
      <trkpt lat="47.77683" lon="6.58069">
        <ele>379.86</ele>
        <time>2025-04-30T06:04:27.454Z</time>
      </trkpt>
      <trkpt lat="47.77685" lon="6.58063">
        <ele>379.79</ele>
        <time>2025-04-30T06:04:28.469Z</time>
      </trkpt>
      <trkpt lat="47.77688" lon="6.58056">
        <ele>379.71</ele>
        <time>2025-04-30T06:04:29.485Z</time>
      </trkpt>
      <trkpt lat="47.77695" lon="6.58041">
        <ele>379.62</ele>
        <time>2025-04-30T06:04:30.503Z</time>
      </trkpt>
      <trkpt lat="47.77699" lon="6.58034">
        <ele>379.56</ele>
        <time>2025-04-30T06:04:31.523Z</time>
      </trkpt>
      <trkpt lat="47.77712" lon="6.58014">
        <ele>379.48</ele>
        <time>2025-04-30T06:04:32.547Z</time>
      </trkpt>
      <trkpt lat="47.77715" lon="6.58007">
        <ele>379.43</ele>
        <time>2025-04-30T06:04:33.572Z</time>
      </trkpt>
      <trkpt lat="47.77733" lon="6.57973">
        <ele>379.37</ele>
        <time>2025-04-30T06:04:34.603Z</time>
      </trkpt>
      <trkpt lat="47.77736" lon="6.57968">
        <ele>379.34</ele>
        <time>2025-04-30T06:04:35.635Z</time>
      </trkpt>
      <trkpt lat="47.7774" lon="6.57962">
        <ele>379.32</ele>
        <time>2025-04-30T06:04:36.668Z</time>
      </trkpt>
      <trkpt lat="47.77743" lon="6.57957">
        <ele>379.31</ele>
        <time>2025-04-30T06:04:37.702Z</time>
      </trkpt>
      <trkpt lat="47.77747" lon="6.57952">
        <ele>379.31</ele>
        <time>2025-04-30T06:04:38.737Z</time>
      </trkpt>
      <trkpt lat="47.7775" lon="6.57947">
        <ele>379.31</ele>
        <time>2025-04-30T06:04:39.773Z</time>
      </trkpt>
      <trkpt lat="47.77753" lon="6.57942">
        <ele>379.31</ele>
        <time>2025-04-30T06:04:40.810Z</time>
      </trkpt>
      <trkpt lat="47.77756" lon="6.57937">
        <ele>379.34</ele>
        <time>2025-04-30T06:04:41.849Z</time>
      </trkpt>
      <trkpt lat="47.7776" lon="6.57931">
        <ele>379.36</ele>
        <time>2025-04-30T06:04:42.889Z</time>
      </trkpt>
      <trkpt lat="47.77764" lon="6.57927">
        <ele>379.4</ele>
        <time>2025-04-30T06:04:43.930Z</time>
      </trkpt>
      <trkpt lat="47.77768" lon="6.57922">
        <ele>379.43</ele>
        <time>2025-04-30T06:04:44.972Z</time>
      </trkpt>
      <trkpt lat="47.77781" lon="6.57908">
        <ele>379.49</ele>
        <time>2025-04-30T06:04:46.017Z</time>
      </trkpt>
      <trkpt lat="47.77786" lon="6.57904">
        <ele>379.55</ele>
        <time>2025-04-30T06:04:47.064Z</time>
      </trkpt>
      <trkpt lat="47.77793" lon="6.57901">
        <ele>379.61</ele>
        <time>2025-04-30T06:04:48.112Z</time>
      </trkpt>
      <trkpt lat="47.77805" lon="6.57897">
        <ele>379.68</ele>
        <time>2025-04-30T06:04:49.163Z</time>
      </trkpt>
      <trkpt lat="47.7781" lon="6.57893">
        <ele>379.74</ele>
        <time>2025-04-30T06:04:50.215Z</time>
      </trkpt>
      <trkpt lat="47.77815" lon="6.57889">
        <ele>379.81</ele>
        <time>2025-04-30T06:04:51.268Z</time>
      </trkpt>
      <trkpt lat="47.77823" lon="6.57879">
        <ele>379.91</ele>
        <time>2025-04-30T06:04:52.323Z</time>
      </trkpt>
      <trkpt lat="47.77825" lon="6.57873">
        <ele>379.98</ele>
        <time>2025-04-30T06:04:53.379Z</time>
      </trkpt>
      <trkpt lat="47.77827" lon="6.57866">
        <ele>380.05</ele>
        <time>2025-04-30T06:04:54.436Z</time>
      </trkpt>
      <trkpt lat="47.77829" lon="6.57858">
        <ele>380.12</ele>
        <time>2025-04-30T06:04:55.495Z</time>
      </trkpt>
      <trkpt lat="47.77831" lon="6.5785">
        <ele>380.19</ele>
        <time>2025-04-30T06:04:56.555Z</time>
      </trkpt>
      <trkpt lat="47.77832" lon="6.57841">
        <ele>380.27</ele>
        <time>2025-04-30T06:04:57.616Z</time>
      </trkpt>
      <trkpt lat="47.77834" lon="6.57833">
        <ele>380.35</ele>
        <time>2025-04-30T06:04:58.678Z</time>
      </trkpt>
      <trkpt lat="47.77835" lon="6.57825">
        <ele>380.42</ele>
        <time>2025-04-30T06:04:59.742Z</time>
      </trkpt>
      <trkpt lat="47.77835" lon="6.57817">
        <ele>380.49</ele>
        <time>2025-04-30T06:05:00.807Z</time>
      </trkpt>
      <trkpt lat="47.77835" lon="6.57809">
        <ele>380.55</ele>
        <time>2025-04-30T06:05:01.873Z</time>
      </trkpt>
      <trkpt lat="47.77834" lon="6.578">
        <ele>380.61</ele>
        <time>2025-04-30T06:05:02.940Z</time>
      </trkpt>
      <trkpt lat="47.77829" lon="6.57762">
        <ele>380.6</ele>
        <time>2025-04-30T06:05:04.013Z</time>
      </trkpt>
      <trkpt lat="47.77829" lon="6.5774">
        <ele>380.65</ele>
        <time>2025-04-30T06:05:05.089Z</time>
      </trkpt>
      <trkpt lat="47.7783" lon="6.5773">
        <ele>380.7</ele>
        <time>2025-04-30T06:05:06.166Z</time>
      </trkpt>
      <trkpt lat="47.77831" lon="6.5772">
        <ele>380.76</ele>
        <time>2025-04-30T06:05:07.245Z</time>
      </trkpt>
      <trkpt lat="47.77833" lon="6.5771">
        <ele>380.84</ele>
        <time>2025-04-30T06:05:08.325Z</time>
      </trkpt>
      <trkpt lat="47.77835" lon="6.57701">
        <ele>380.91</ele>
        <time>2025-04-30T06:05:09.407Z</time>
      </trkpt>
      <trkpt lat="47.77838" lon="6.57693">
        <ele>380.99</ele>
        <time>2025-04-30T06:05:10.490Z</time>
      </trkpt>
      <trkpt lat="47.77843" lon="6.57679">
        <ele>381.1</ele>
        <time>2025-04-30T06:05:11.575Z</time>
      </trkpt>
      <trkpt lat="47.77847" lon="6.57674">
        <ele>381.16</ele>
        <time>2025-04-30T06:05:12.661Z</time>
      </trkpt>
      <trkpt lat="47.7785" lon="6.57672">
        <ele>381.21</ele>
        <time>2025-04-30T06:05:13.748Z</time>
      </trkpt>
      <trkpt lat="47.77854" lon="6.5767">
        <ele>381.24</ele>
        <time>2025-04-30T06:05:14.836Z</time>
      </trkpt>
      <trkpt lat="47.77858" lon="6.57668">
        <ele>381.27</ele>
        <time>2025-04-30T06:05:15.925Z</time>
      </trkpt>
      <trkpt lat="47.77862" lon="6.57666">
        <ele>381.29</ele>
        <time>2025-04-30T06:05:17.015Z</time>
      </trkpt>
      <trkpt lat="47.77865" lon="6.57665">
        <ele>381.29</ele>
        <time>2025-04-30T06:05:18.106Z</time>
      </trkpt>
      <trkpt lat="47.77869" lon="6.57662">
        <ele>381.28</ele>
        <time>2025-04-30T06:05:19.197Z</time>
      </trkpt>
      <trkpt lat="47.77873" lon="6.57659">
        <ele>381.26</ele>
        <time>2025-04-30T06:05:20.289Z</time>
      </trkpt>
      <trkpt lat="47.77883" lon="6.57652">
        <ele>381.23</ele>
        <time>2025-04-30T06:05:21.384Z</time>
      </trkpt>
      <trkpt lat="47.77889" lon="6.57646">
        <ele>381.19</ele>
        <time>2025-04-30T06:05:22.480Z</time>
      </trkpt>
      <trkpt lat="47.77892" lon="6.57642">
        <ele>381.13</ele>
        <time>2025-04-30T06:05:23.577Z</time>
      </trkpt>
      <trkpt lat="47.77897" lon="6.57636">
        <ele>381.06</ele>
        <time>2025-04-30T06:05:24.676Z</time>
      </trkpt>
      <trkpt lat="47.779" lon="6.57632">
        <ele>380.98</ele>
        <time>2025-04-30T06:05:25.775Z</time>
      </trkpt>
      <trkpt lat="47.77904" lon="6.57629">
        <ele>380.89</ele>
        <time>2025-04-30T06:05:26.875Z</time>
      </trkpt>
      <trkpt lat="47.77931" lon="6.57607">
        <ele>380.77</ele>
        <time>2025-04-30T06:05:27.982Z</time>
      </trkpt>
      <trkpt lat="47.77959" lon="6.57581">
        <ele>380.61</ele>
        <time>2025-04-30T06:05:29.096Z</time>
      </trkpt>
      <trkpt lat="47.77965" lon="6.57569">
        <ele>380.46</ele>
        <time>2025-04-30T06:05:30.212Z</time>
      </trkpt>
      <trkpt lat="47.77982" lon="6.57554">
        <ele>380.27</ele>
        <time>2025-04-30T06:05:31.333Z</time>
      </trkpt>
      <trkpt lat="47.78006" lon="6.57542">
        <ele>380.11</ele>
        <time>2025-04-30T06:05:32.459Z</time>
      </trkpt>
      <trkpt lat="47.78011" lon="6.57538">
        <ele>379.96</ele>
        <time>2025-04-30T06:05:33.586Z</time>
      </trkpt>
      <trkpt lat="47.78026" lon="6.5752">
        <ele>379.82</ele>
        <time>2025-04-30T06:05:34.717Z</time>
      </trkpt>
      <trkpt lat="47.78035" lon="6.57509">
        <ele>379.65</ele>
        <time>2025-04-30T06:05:35.851Z</time>
      </trkpt>
      <trkpt lat="47.78064" lon="6.57466">
        <ele>379.5</ele>
        <time>2025-04-30T06:05:36.994Z</time>
      </trkpt>
      <trkpt lat="47.78077" lon="6.5745">
        <ele>379.3</ele>
        <time>2025-04-30T06:05:38.140Z</time>
      </trkpt>
      <trkpt lat="47.78083" lon="6.57443">
        <ele>379.11</ele>
        <time>2025-04-30T06:05:39.288Z</time>
      </trkpt>
      <trkpt lat="47.78094" lon="6.57433">
        <ele>378.91</ele>
        <time>2025-04-30T06:05:40.439Z</time>
      </trkpt>
      <trkpt lat="47.78098" lon="6.57425">
        <ele>378.71</ele>
        <time>2025-04-30T06:05:41.591Z</time>
      </trkpt>
      <trkpt lat="47.781" lon="6.57414">
        <ele>378.52</ele>
        <time>2025-04-30T06:05:42.745Z</time>
      </trkpt>
      <trkpt lat="47.78102" lon="6.57403">
        <ele>378.33</ele>
        <time>2025-04-30T06:05:43.900Z</time>
      </trkpt>
      <trkpt lat="47.78103" lon="6.57394">
        <ele>378.15</ele>
        <time>2025-04-30T06:05:45.057Z</time>
      </trkpt>
      <trkpt lat="47.78104" lon="6.57384">
        <ele>377.99</ele>
        <time>2025-04-30T06:05:46.215Z</time>
      </trkpt>
      <trkpt lat="47.78106" lon="6.57376">
        <ele>377.83</ele>
        <time>2025-04-30T06:05:47.374Z</time>
      </trkpt>
      <trkpt lat="47.78109" lon="6.57367">
        <ele>377.67</ele>
        <time>2025-04-30T06:05:48.535Z</time>
      </trkpt>
      <trkpt lat="47.78113" lon="6.57361">
        <ele>377.53</ele>
        <time>2025-04-30T06:05:49.697Z</time>
      </trkpt>
      <trkpt lat="47.78118" lon="6.57358">
        <ele>377.39</ele>
        <time>2025-04-30T06:05:50.860Z</time>
      </trkpt>
      <trkpt lat="47.78124" lon="6.57355">
        <ele>377.27</ele>
        <time>2025-04-30T06:05:52.025Z</time>
      </trkpt>
      <trkpt lat="47.7813" lon="6.57353">
        <ele>377.17</ele>
        <time>2025-04-30T06:05:53.191Z</time>
      </trkpt>
      <trkpt lat="47.78135" lon="6.57352">
        <ele>377.08</ele>
        <time>2025-04-30T06:05:54.358Z</time>
      </trkpt>
      <trkpt lat="47.78141" lon="6.57351">
        <ele>377.01</ele>
        <time>2025-04-30T06:05:55.526Z</time>
      </trkpt>
      <trkpt lat="47.78147" lon="6.5735">
        <ele>376.96</ele>
        <time>2025-04-30T06:05:56.696Z</time>
      </trkpt>
      <trkpt lat="47.78152" lon="6.57349">
        <ele>376.93</ele>
        <time>2025-04-30T06:05:57.867Z</time>
      </trkpt>
      <trkpt lat="47.78157" lon="6.57347">
        <ele>376.91</ele>
        <time>2025-04-30T06:05:59.039Z</time>
      </trkpt>
      <trkpt lat="47.78162" lon="6.57345">
        <ele>376.91</ele>
        <time>2025-04-30T06:06:00.212Z</time>
      </trkpt>
      <trkpt lat="47.78167" lon="6.57344">
        <ele>376.93</ele>
        <time>2025-04-30T06:06:01.386Z</time>
      </trkpt>
      <trkpt lat="47.78172" lon="6.57344">
        <ele>376.97</ele>
        <time>2025-04-30T06:06:02.561Z</time>
      </trkpt>
      <trkpt lat="47.78177" lon="6.57343">
        <ele>377.03</ele>
        <time>2025-04-30T06:06:03.737Z</time>
      </trkpt>
      <trkpt lat="47.78181" lon="6.57344">
        <ele>377.11</ele>
        <time>2025-04-30T06:06:04.914Z</time>
      </trkpt>
      <trkpt lat="47.78185" lon="6.57345">
        <ele>377.21</ele>
        <time>2025-04-30T06:06:06.092Z</time>
      </trkpt>
      <trkpt lat="47.78188" lon="6.57348">
        <ele>377.33</ele>
        <time>2025-04-30T06:06:07.271Z</time>
      </trkpt>
      <trkpt lat="47.78191" lon="6.5735">
        <ele>377.47</ele>
        <time>2025-04-30T06:06:08.450Z</time>
      </trkpt>
      <trkpt lat="47.78194" lon="6.57353">
        <ele>377.62</ele>
        <time>2025-04-30T06:06:09.630Z</time>
      </trkpt>
      <trkpt lat="47.78196" lon="6.57356">
        <ele>377.79</ele>
        <time>2025-04-30T06:06:10.811Z</time>
      </trkpt>
      <trkpt lat="47.78198" lon="6.57359">
        <ele>377.98</ele>
        <time>2025-04-30T06:06:11.992Z</time>
      </trkpt>
      <trkpt lat="47.782" lon="6.57363">
        <ele>378.18</ele>
        <time>2025-04-30T06:06:13.174Z</time>
      </trkpt>
      <trkpt lat="47.78203" lon="6.57368">
        <ele>378.4</ele>
        <time>2025-04-30T06:06:14.357Z</time>
      </trkpt>
      <trkpt lat="47.78205" lon="6.57372">
        <ele>378.64</ele>
        <time>2025-04-30T06:06:15.541Z</time>
      </trkpt>
      <trkpt lat="47.78208" lon="6.57376">
        <ele>378.88</ele>
        <time>2025-04-30T06:06:16.726Z</time>
      </trkpt>
      <trkpt lat="47.78219" lon="6.57392">
        <ele>379.16</ele>
        <time>2025-04-30T06:06:17.914Z</time>
      </trkpt>
      <trkpt lat="47.78222" lon="6.57402">
        <ele>379.43</ele>
        <time>2025-04-30T06:06:19.103Z</time>
      </trkpt>
      <trkpt lat="47.78223" lon="6.57414">
        <ele>379.72</ele>
        <time>2025-04-30T06:06:20.294Z</time>
      </trkpt>
      <trkpt lat="47.78223" lon="6.5742">
        <ele>380.02</ele>
        <time>2025-04-30T06:06:21.486Z</time>
      </trkpt>
      <trkpt lat="47.78223" lon="6.57426">
        <ele>380.32</ele>
        <time>2025-04-30T06:06:22.679Z</time>
      </trkpt>
      <trkpt lat="47.78222" lon="6.57432">
        <ele>380.64</ele>
        <time>2025-04-30T06:06:23.873Z</time>
      </trkpt>
      <trkpt lat="47.78222" lon="6.57438">
        <ele>380.96</ele>
        <time>2025-04-30T06:06:25.068Z</time>
      </trkpt>
      <trkpt lat="47.78222" lon="6.57442">
        <ele>381.29</ele>
        <time>2025-04-30T06:06:26.263Z</time>
      </trkpt>
      <trkpt lat="47.78223" lon="6.57447">
        <ele>381.62</ele>
        <time>2025-04-30T06:06:27.459Z</time>
      </trkpt>
      <trkpt lat="47.78223" lon="6.57452">
        <ele>381.96</ele>
        <time>2025-04-30T06:06:28.656Z</time>
      </trkpt>
      <trkpt lat="47.78223" lon="6.57457">
        <ele>382.31</ele>
        <time>2025-04-30T06:06:29.853Z</time>
      </trkpt>
      <trkpt lat="47.78224" lon="6.57462">
        <ele>382.66</ele>
        <time>2025-04-30T06:06:31.051Z</time>
      </trkpt>
      <trkpt lat="47.78224" lon="6.57467">
        <ele>383.02</ele>
        <time>2025-04-30T06:06:32.250Z</time>
      </trkpt>
      <trkpt lat="47.78225" lon="6.57473">
        <ele>383.37</ele>
        <time>2025-04-30T06:06:33.450Z</time>
      </trkpt>
      <trkpt lat="47.78227" lon="6.57482">
        <ele>383.74</ele>
        <time>2025-04-30T06:06:34.651Z</time>
      </trkpt>
      <trkpt lat="47.78229" lon="6.5749">
        <ele>384.12</ele>
        <time>2025-04-30T06:06:35.853Z</time>
      </trkpt>
      <trkpt lat="47.78229" lon="6.57496">
        <ele>384.48</ele>
        <time>2025-04-30T06:06:37.056Z</time>
      </trkpt>
      <trkpt lat="47.7823" lon="6.57503">
        <ele>384.85</ele>
        <time>2025-04-30T06:06:38.260Z</time>
      </trkpt>
      <trkpt lat="47.7823" lon="6.5751">
        <ele>385.22</ele>
        <time>2025-04-30T06:06:39.465Z</time>
      </trkpt>
      <trkpt lat="47.78231" lon="6.57516">
        <ele>385.58</ele>
        <time>2025-04-30T06:06:40.671Z</time>
      </trkpt>
      <trkpt lat="47.78232" lon="6.57521">
        <ele>385.93</ele>
        <time>2025-04-30T06:06:41.878Z</time>
      </trkpt>
      <trkpt lat="47.78234" lon="6.57524">
        <ele>386.27</ele>
        <time>2025-04-30T06:06:43.086Z</time>
      </trkpt>
      <trkpt lat="47.78239" lon="6.57527">
        <ele>386.61</ele>
        <time>2025-04-30T06:06:44.295Z</time>
      </trkpt>
      <trkpt lat="47.78242" lon="6.57531">
        <ele>386.94</ele>
        <time>2025-04-30T06:06:45.505Z</time>
      </trkpt>
      <trkpt lat="47.78247" lon="6.57533">
        <ele>387.26</ele>
        <time>2025-04-30T06:06:46.716Z</time>
      </trkpt>
      <trkpt lat="47.78252" lon="6.57535">
        <ele>387.58</ele>
        <time>2025-04-30T06:06:47.928Z</time>
      </trkpt>
      <trkpt lat="47.78257" lon="6.57536">
        <ele>387.88</ele>
        <time>2025-04-30T06:06:49.141Z</time>
      </trkpt>
      <trkpt lat="47.78262" lon="6.57538">
        <ele>388.18</ele>
        <time>2025-04-30T06:06:50.355Z</time>
      </trkpt>
      <trkpt lat="47.78267" lon="6.57541">
        <ele>388.47</ele>
        <time>2025-04-30T06:06:51.570Z</time>
      </trkpt>
      <trkpt lat="47.78271" lon="6.57544">
        <ele>388.75</ele>
        <time>2025-04-30T06:06:52.786Z</time>
      </trkpt>
      <trkpt lat="47.78275" lon="6.57548">
        <ele>389.02</ele>
        <time>2025-04-30T06:06:54.003Z</time>
      </trkpt>
      <trkpt lat="47.78278" lon="6.57551">
        <ele>389.27</ele>
        <time>2025-04-30T06:06:55.221Z</time>
      </trkpt>
      <trkpt lat="47.7828" lon="6.57554">
        <ele>389.52</ele>
        <time>2025-04-30T06:06:56.439Z</time>
      </trkpt>
      <trkpt lat="47.78285" lon="6.57557">
        <ele>389.75</ele>
        <time>2025-04-30T06:06:57.659Z</time>
      </trkpt>
      <trkpt lat="47.78287" lon="6.57558">
        <ele>389.96</ele>
        <time>2025-04-30T06:06:58.879Z</time>
      </trkpt>
      <trkpt lat="47.7829" lon="6.57559">
        <ele>390.16</ele>
        <time>2025-04-30T06:07:00.100Z</time>
      </trkpt>
      <trkpt lat="47.78293" lon="6.57558">
        <ele>390.34</ele>
        <time>2025-04-30T06:07:01.321Z</time>
      </trkpt>
      <trkpt lat="47.78296" lon="6.57557">
        <ele>390.51</ele>
        <time>2025-04-30T06:07:02.543Z</time>
      </trkpt>
      <trkpt lat="47.78299" lon="6.57557">
        <ele>390.66</ele>
        <time>2025-04-30T06:07:03.766Z</time>
      </trkpt>
      <trkpt lat="47.78306" lon="6.57559">
        <ele>390.82</ele>
        <time>2025-04-30T06:07:04.990Z</time>
      </trkpt>
      <trkpt lat="47.78312" lon="6.5756">
        <ele>390.95</ele>
        <time>2025-04-30T06:07:06.216Z</time>
      </trkpt>
      <trkpt lat="47.78315" lon="6.57561">
        <ele>391.07</ele>
        <time>2025-04-30T06:07:07.442Z</time>
      </trkpt>
      <trkpt lat="47.78317" lon="6.57561">
        <ele>391.17</ele>
        <time>2025-04-30T06:07:08.669Z</time>
      </trkpt>
      <trkpt lat="47.78319" lon="6.57561">
        <ele>391.25</ele>
        <time>2025-04-30T06:07:09.896Z</time>
      </trkpt>
      <trkpt lat="47.78322" lon="6.57561">
        <ele>391.33</ele>
        <time>2025-04-30T06:07:11.124Z</time>
      </trkpt>
      <trkpt lat="47.78332" lon="6.57558">
        <ele>391.39</ele>
        <time>2025-04-30T06:07:12.354Z</time>
      </trkpt>
      <trkpt lat="47.78337" lon="6.57557">
        <ele>391.44</ele>
        <time>2025-04-30T06:07:13.585Z</time>
      </trkpt>
      <trkpt lat="47.78339" lon="6.57556">
        <ele>391.47</ele>
        <time>2025-04-30T06:07:14.816Z</time>
      </trkpt>
      <trkpt lat="47.78343" lon="6.57554">
        <ele>391.49</ele>
        <time>2025-04-30T06:07:16.048Z</time>
      </trkpt>
      <trkpt lat="47.78345" lon="6.57552">
        <ele>391.49</ele>
        <time>2025-04-30T06:07:17.281Z</time>
      </trkpt>
      <trkpt lat="47.78349" lon="6.57549">
        <ele>391.48</ele>
        <time>2025-04-30T06:07:18.515Z</time>
      </trkpt>
      <trkpt lat="47.78353" lon="6.57548">
        <ele>391.46</ele>
        <time>2025-04-30T06:07:19.750Z</time>
      </trkpt>
      <trkpt lat="47.78357" lon="6.57548">
        <ele>391.44</ele>
        <time>2025-04-30T06:07:20.985Z</time>
      </trkpt>
      <trkpt lat="47.7836" lon="6.5755">
        <ele>391.42</ele>
        <time>2025-04-30T06:07:22.221Z</time>
      </trkpt>
      <trkpt lat="47.78364" lon="6.57553">
        <ele>391.39</ele>
        <time>2025-04-30T06:07:23.458Z</time>
      </trkpt>
      <trkpt lat="47.78366" lon="6.57557">
        <ele>391.36</ele>
        <time>2025-04-30T06:07:24.696Z</time>
      </trkpt>
      <trkpt lat="47.7837" lon="6.57565">
        <ele>391.33</ele>
        <time>2025-04-30T06:07:25.935Z</time>
      </trkpt>
      <trkpt lat="47.78373" lon="6.57574">
        <ele>391.31</ele>
        <time>2025-04-30T06:07:27.176Z</time>
      </trkpt>
      <trkpt lat="47.78375" lon="6.57584">
        <ele>391.28</ele>
        <time>2025-04-30T06:07:28.418Z</time>
      </trkpt>
      <trkpt lat="47.78379" lon="6.57594">
        <ele>391.26</ele>
        <time>2025-04-30T06:07:29.662Z</time>
      </trkpt>
      <trkpt lat="47.78381" lon="6.57601">
        <ele>391.23</ele>
        <time>2025-04-30T06:07:30.907Z</time>
      </trkpt>
      <trkpt lat="47.78386" lon="6.57608">
        <ele>391.19</ele>
        <time>2025-04-30T06:07:32.153Z</time>
      </trkpt>
      <trkpt lat="47.78391" lon="6.57612">
        <ele>391.14</ele>
        <time>2025-04-30T06:07:33.401Z</time>
      </trkpt>
      <trkpt lat="47.78396" lon="6.57613">
        <ele>391.08</ele>
        <time>2025-04-30T06:07:34.650Z</time>
      </trkpt>
      <trkpt lat="47.78401" lon="6.57612">
        <ele>391.01</ele>
        <time>2025-04-30T06:07:35.900Z</time>
      </trkpt>
      <trkpt lat="47.78407" lon="6.57612">
        <ele>390.94</ele>
        <time>2025-04-30T06:07:37.151Z</time>
      </trkpt>
      <trkpt lat="47.78412" lon="6.5761">
        <ele>390.88</ele>
        <time>2025-04-30T06:07:38.403Z</time>
      </trkpt>
      <trkpt lat="47.78418" lon="6.57608">
        <ele>390.81</ele>
        <time>2025-04-30T06:07:39.657Z</time>
      </trkpt>
      <trkpt lat="47.78424" lon="6.57604">
        <ele>390.76</ele>
        <time>2025-04-30T06:07:40.912Z</time>
      </trkpt>
      <trkpt lat="47.78429" lon="6.57599">
        <ele>390.71</ele>
        <time>2025-04-30T06:07:42.168Z</time>
      </trkpt>
      <trkpt lat="47.78442" lon="6.57593">
        <ele>390.65</ele>
        <time>2025-04-30T06:07:43.427Z</time>
      </trkpt>
      <trkpt lat="47.78454" lon="6.57586">
        <ele>390.61</ele>
        <time>2025-04-30T06:07:44.689Z</time>
      </trkpt>
      <trkpt lat="47.78467" lon="6.57581">
        <ele>390.62</ele>
        <time>2025-04-30T06:07:45.954Z</time>
      </trkpt>
      <trkpt lat="47.78472" lon="6.57579">
        <ele>390.63</ele>
        <time>2025-04-30T06:07:47.220Z</time>
      </trkpt>
      <trkpt lat="47.78475" lon="6.57579">
        <ele>390.66</ele>
        <time>2025-04-30T06:07:48.487Z</time>
      </trkpt>
      <trkpt lat="47.7848" lon="6.57578">
        <ele>390.69</ele>
        <time>2025-04-30T06:07:49.755Z</time>
      </trkpt>
      <trkpt lat="47.78485" lon="6.57577">
        <ele>390.74</ele>
        <time>2025-04-30T06:07:51.024Z</time>
      </trkpt>
      <trkpt lat="47.78494" lon="6.57575">
        <ele>390.8</ele>
        <time>2025-04-30T06:07:52.295Z</time>
      </trkpt>
      <trkpt lat="47.78497" lon="6.57574">
        <ele>390.87</ele>
        <time>2025-04-30T06:07:53.567Z</time>
      </trkpt>
      <trkpt lat="47.78501" lon="6.57574">
        <ele>390.95</ele>
        <time>2025-04-30T06:07:54.839Z</time>
      </trkpt>
      <trkpt lat="47.78503" lon="6.57574">
        <ele>391.04</ele>
        <time>2025-04-30T06:07:56.112Z</time>
      </trkpt>
      <trkpt lat="47.78505" lon="6.57573">
        <ele>391.15</ele>
        <time>2025-04-30T06:07:57.385Z</time>
      </trkpt>
      <trkpt lat="47.78508" lon="6.57572">
        <ele>391.26</ele>
        <time>2025-04-30T06:07:58.659Z</time>
      </trkpt>
      <trkpt lat="47.7851" lon="6.57571">
        <ele>391.4</ele>
        <time>2025-04-30T06:07:59.933Z</time>
      </trkpt>
      <trkpt lat="47.78513" lon="6.57569">
        <ele>391.54</ele>
        <time>2025-04-30T06:08:01.208Z</time>
      </trkpt>
      <trkpt lat="47.78519" lon="6.57568">
        <ele>391.7</ele>
        <time>2025-04-30T06:08:02.484Z</time>
      </trkpt>
      <trkpt lat="47.78521" lon="6.57569">
        <ele>391.87</ele>
        <time>2025-04-30T06:08:03.761Z</time>
      </trkpt>
      <trkpt lat="47.78525" lon="6.5757">
        <ele>392.05</ele>
        <time>2025-04-30T06:08:05.038Z</time>
      </trkpt>
      <trkpt lat="47.78527" lon="6.5757">
        <ele>392.23</ele>
        <time>2025-04-30T06:08:06.316Z</time>
      </trkpt>
      <trkpt lat="47.7853" lon="6.5757">
        <ele>392.43</ele>
        <time>2025-04-30T06:08:07.595Z</time>
      </trkpt>
      <trkpt lat="47.78533" lon="6.5757">
        <ele>392.64</ele>
        <time>2025-04-30T06:08:08.874Z</time>
      </trkpt>
      <trkpt lat="47.78537" lon="6.5757">
        <ele>392.85</ele>
        <time>2025-04-30T06:08:10.154Z</time>
      </trkpt>
      <trkpt lat="47.78543" lon="6.5757">
        <ele>393.08</ele>
        <time>2025-04-30T06:08:11.436Z</time>
      </trkpt>
      <trkpt lat="47.78549" lon="6.57572">
        <ele>393.31</ele>
        <time>2025-04-30T06:08:12.719Z</time>
      </trkpt>
      <trkpt lat="47.78555" lon="6.57572">
        <ele>393.54</ele>
        <time>2025-04-30T06:08:14.003Z</time>
      </trkpt>
      <trkpt lat="47.78564" lon="6.57573">
        <ele>393.79</ele>
        <time>2025-04-30T06:08:15.289Z</time>
      </trkpt>
      <trkpt lat="47.78569" lon="6.57572">
        <ele>394.03</ele>
        <time>2025-04-30T06:08:16.576Z</time>
      </trkpt>
      <trkpt lat="47.78572" lon="6.57571">
        <ele>394.27</ele>
        <time>2025-04-30T06:08:17.864Z</time>
      </trkpt>
      <trkpt lat="47.78575" lon="6.57572">
        <ele>394.5</ele>
        <time>2025-04-30T06:08:19.152Z</time>
      </trkpt>
      <trkpt lat="47.78578" lon="6.57572">
        <ele>394.74</ele>
        <time>2025-04-30T06:08:20.441Z</time>
      </trkpt>
      <trkpt lat="47.78582" lon="6.57572">
        <ele>394.97</ele>
        <time>2025-04-30T06:08:21.731Z</time>
      </trkpt>
      <trkpt lat="47.78585" lon="6.57573">
        <ele>395.2</ele>
        <time>2025-04-30T06:08:23.021Z</time>
      </trkpt>
      <trkpt lat="47.78588" lon="6.57574">
        <ele>395.43</ele>
        <time>2025-04-30T06:08:24.312Z</time>
      </trkpt>
      <trkpt lat="47.78592" lon="6.57574">
        <ele>395.66</ele>
        <time>2025-04-30T06:08:25.604Z</time>
      </trkpt>
      <trkpt lat="47.78596" lon="6.57574">
        <ele>395.88</ele>
        <time>2025-04-30T06:08:26.897Z</time>
      </trkpt>
      <trkpt lat="47.78599" lon="6.57573">
        <ele>396.09</ele>
        <time>2025-04-30T06:08:28.191Z</time>
      </trkpt>
      <trkpt lat="47.78602" lon="6.57572">
        <ele>396.3</ele>
        <time>2025-04-30T06:08:29.485Z</time>
      </trkpt>
      <trkpt lat="47.78605" lon="6.5757">
        <ele>396.49</ele>
        <time>2025-04-30T06:08:30.780Z</time>
      </trkpt>
      <trkpt lat="47.7861" lon="6.57569">
        <ele>396.68</ele>
        <time>2025-04-30T06:08:32.076Z</time>
      </trkpt>
      <trkpt lat="47.78614" lon="6.57568">
        <ele>396.86</ele>
        <time>2025-04-30T06:08:33.373Z</time>
      </trkpt>
      <trkpt lat="47.78619" lon="6.57567">
        <ele>397.04</ele>
        <time>2025-04-30T06:08:34.671Z</time>
      </trkpt>
      <trkpt lat="47.78622" lon="6.57566">
        <ele>397.2</ele>
        <time>2025-04-30T06:08:35.970Z</time>
      </trkpt>
      <trkpt lat="47.78627" lon="6.57566">
        <ele>397.35</ele>
        <time>2025-04-30T06:08:37.270Z</time>
      </trkpt>
      <trkpt lat="47.7863" lon="6.57565">
        <ele>397.48</ele>
        <time>2025-04-30T06:08:38.570Z</time>
      </trkpt>
      <trkpt lat="47.78633" lon="6.57564">
        <ele>397.6</ele>
        <time>2025-04-30T06:08:39.871Z</time>
      </trkpt>
      <trkpt lat="47.78636" lon="6.57563">
        <ele>397.7</ele>
        <time>2025-04-30T06:08:41.173Z</time>
      </trkpt>
      <trkpt lat="47.78639" lon="6.57563">
        <ele>397.8</ele>
        <time>2025-04-30T06:08:42.475Z</time>
      </trkpt>
      <trkpt lat="47.78643" lon="6.57564">
        <ele>397.89</ele>
        <time>2025-04-30T06:08:43.778Z</time>
      </trkpt>
      <trkpt lat="47.78647" lon="6.57566">
        <ele>397.96</ele>
        <time>2025-04-30T06:08:45.082Z</time>
      </trkpt>
      <trkpt lat="47.7865" lon="6.57567">
        <ele>398.02</ele>
        <time>2025-04-30T06:08:46.387Z</time>
      </trkpt>
      <trkpt lat="47.78653" lon="6.57568">
        <ele>398.07</ele>
        <time>2025-04-30T06:08:47.693Z</time>
      </trkpt>
      <trkpt lat="47.78657" lon="6.57569">
        <ele>398.1</ele>
        <time>2025-04-30T06:08:48.999Z</time>
      </trkpt>
      <trkpt lat="47.7866" lon="6.5757">
        <ele>398.13</ele>
        <time>2025-04-30T06:08:50.306Z</time>
      </trkpt>
      <trkpt lat="47.78663" lon="6.57571">
        <ele>398.14</ele>
        <time>2025-04-30T06:08:51.614Z</time>
      </trkpt>
      <trkpt lat="47.78666" lon="6.57572">
        <ele>398.14</ele>
        <time>2025-04-30T06:08:52.922Z</time>
      </trkpt>
      <trkpt lat="47.78669" lon="6.57571">
        <ele>398.14</ele>
        <time>2025-04-30T06:08:54.231Z</time>
      </trkpt>
      <trkpt lat="47.78671" lon="6.5757">
        <ele>398.12</ele>
        <time>2025-04-30T06:08:55.540Z</time>
      </trkpt>
      <trkpt lat="47.78674" lon="6.57569">
        <ele>398.09</ele>
        <time>2025-04-30T06:08:56.850Z</time>
      </trkpt>
      <trkpt lat="47.78677" lon="6.57567">
        <ele>398.05</ele>
        <time>2025-04-30T06:08:58.161Z</time>
      </trkpt>
      <trkpt lat="47.78681" lon="6.57564">
        <ele>398</ele>
        <time>2025-04-30T06:08:59.473Z</time>
      </trkpt>
      <trkpt lat="47.78685" lon="6.57561">
        <ele>397.94</ele>
        <time>2025-04-30T06:09:00.786Z</time>
      </trkpt>
      <trkpt lat="47.78689" lon="6.57558">
        <ele>397.87</ele>
        <time>2025-04-30T06:09:02.100Z</time>
      </trkpt>
      <trkpt lat="47.78694" lon="6.57555">
        <ele>397.81</ele>
        <time>2025-04-30T06:09:03.415Z</time>
      </trkpt>
      <trkpt lat="47.787" lon="6.57552">
        <ele>397.74</ele>
        <time>2025-04-30T06:09:04.731Z</time>
      </trkpt>
      <trkpt lat="47.78705" lon="6.57549">
        <ele>397.66</ele>
        <time>2025-04-30T06:09:06.048Z</time>
      </trkpt>
      <trkpt lat="47.78711" lon="6.57545">
        <ele>397.59</ele>
        <time>2025-04-30T06:09:07.367Z</time>
      </trkpt>
      <trkpt lat="47.78717" lon="6.57543">
        <ele>397.53</ele>
        <time>2025-04-30T06:09:08.687Z</time>
      </trkpt>
      <trkpt lat="47.78724" lon="6.5754">
        <ele>397.45</ele>
        <time>2025-04-30T06:09:10.009Z</time>
      </trkpt>
      <trkpt lat="47.78728" lon="6.57538">
        <ele>397.4</ele>
        <time>2025-04-30T06:09:11.331Z</time>
      </trkpt>
      <trkpt lat="47.78732" lon="6.57537">
        <ele>397.36</ele>
        <time>2025-04-30T06:09:12.654Z</time>
      </trkpt>
      <trkpt lat="47.78736" lon="6.57537">
        <ele>397.34</ele>
        <time>2025-04-30T06:09:13.978Z</time>
      </trkpt>
      <trkpt lat="47.78741" lon="6.57538">
        <ele>397.33</ele>
        <time>2025-04-30T06:09:15.303Z</time>
      </trkpt>
      <trkpt lat="47.78747" lon="6.57541">
        <ele>397.33</ele>
        <time>2025-04-30T06:09:16.630Z</time>
      </trkpt>
      <trkpt lat="47.78751" lon="6.57543">
        <ele>397.35</ele>
        <time>2025-04-30T06:09:17.957Z</time>
      </trkpt>
      <trkpt lat="47.78755" lon="6.57548">
        <ele>397.38</ele>
        <time>2025-04-30T06:09:19.286Z</time>
      </trkpt>
      <trkpt lat="47.78759" lon="6.57553">
        <ele>397.43</ele>
        <time>2025-04-30T06:09:20.616Z</time>
      </trkpt>
      <trkpt lat="47.78762" lon="6.57559">
        <ele>397.49</ele>
        <time>2025-04-30T06:09:21.947Z</time>
      </trkpt>
      <trkpt lat="47.78765" lon="6.57565">
        <ele>397.56</ele>
        <time>2025-04-30T06:09:23.279Z</time>
      </trkpt>
      <trkpt lat="47.78767" lon="6.5757">
        <ele>397.64</ele>
        <time>2025-04-30T06:09:24.612Z</time>
      </trkpt>
      <trkpt lat="47.78769" lon="6.57575">
        <ele>397.74</ele>
        <time>2025-04-30T06:09:25.946Z</time>
      </trkpt>
      <trkpt lat="47.78772" lon="6.57581">
        <ele>397.86</ele>
        <time>2025-04-30T06:09:27.281Z</time>
      </trkpt>
      <trkpt lat="47.78775" lon="6.57586">
        <ele>397.99</ele>
        <time>2025-04-30T06:09:28.617Z</time>
      </trkpt>
      <trkpt lat="47.78778" lon="6.57591">
        <ele>398.12</ele>
        <time>2025-04-30T06:09:29.954Z</time>
      </trkpt>
      <trkpt lat="47.78781" lon="6.57594">
        <ele>398.25</ele>
        <time>2025-04-30T06:09:31.291Z</time>
      </trkpt>
      <trkpt lat="47.78787" lon="6.57596">
        <ele>398.39</ele>
        <time>2025-04-30T06:09:32.630Z</time>
      </trkpt>
      <trkpt lat="47.78791" lon="6.57598">
        <ele>398.55</ele>
        <time>2025-04-30T06:09:33.970Z</time>
      </trkpt>
      <trkpt lat="47.78794" lon="6.57599">
        <ele>398.71</ele>
        <time>2025-04-30T06:09:35.310Z</time>
      </trkpt>
      <trkpt lat="47.78804" lon="6.57603">
        <ele>398.89</ele>
        <time>2025-04-30T06:09:36.652Z</time>
      </trkpt>
      <trkpt lat="47.78807" lon="6.57604">
        <ele>399.08</ele>
        <time>2025-04-30T06:09:37.995Z</time>
      </trkpt>
      <trkpt lat="47.78811" lon="6.57606">
        <ele>399.28</ele>
        <time>2025-04-30T06:09:39.339Z</time>
      </trkpt>
      <trkpt lat="47.78815" lon="6.57609">
        <ele>399.5</ele>
        <time>2025-04-30T06:09:40.684Z</time>
      </trkpt>
      <trkpt lat="47.78818" lon="6.57612">
        <ele>399.74</ele>
        <time>2025-04-30T06:09:42.030Z</time>
      </trkpt>
      <trkpt lat="47.78824" lon="6.57622">
        <ele>400.01</ele>
        <time>2025-04-30T06:09:43.378Z</time>
      </trkpt>
      <trkpt lat="47.78826" lon="6.57625">
        <ele>400.27</ele>
        <time>2025-04-30T06:09:44.726Z</time>
      </trkpt>
      <trkpt lat="47.78828" lon="6.57628">
        <ele>400.53</ele>
        <time>2025-04-30T06:09:46.075Z</time>
      </trkpt>
      <trkpt lat="47.78829" lon="6.57631">
        <ele>400.79</ele>
        <time>2025-04-30T06:09:47.425Z</time>
      </trkpt>
      <trkpt lat="47.78831" lon="6.57634">
        <ele>401.05</ele>
        <time>2025-04-30T06:09:48.775Z</time>
      </trkpt>
      <trkpt lat="47.78834" lon="6.57637">
        <ele>401.33</ele>
        <time>2025-04-30T06:09:50.126Z</time>
      </trkpt>
      <trkpt lat="47.78836" lon="6.57639">
        <ele>401.6</ele>
        <time>2025-04-30T06:09:51.477Z</time>
      </trkpt>
      <trkpt lat="47.78838" lon="6.57641">
        <ele>401.87</ele>
        <time>2025-04-30T06:09:52.829Z</time>
      </trkpt>
      <trkpt lat="47.7884" lon="6.57644">
        <ele>402.15</ele>
        <time>2025-04-30T06:09:54.181Z</time>
      </trkpt>
      <trkpt lat="47.78841" lon="6.57646">
        <ele>402.42</ele>
        <time>2025-04-30T06:09:55.534Z</time>
      </trkpt>
      <trkpt lat="47.78843" lon="6.57647">
        <ele>402.69</ele>
        <time>2025-04-30T06:09:56.887Z</time>
      </trkpt>
      <trkpt lat="47.78845" lon="6.57649">
        <ele>402.95</ele>
        <time>2025-04-30T06:09:58.241Z</time>
      </trkpt>
      <trkpt lat="47.78847" lon="6.5765">
        <ele>403.22</ele>
        <time>2025-04-30T06:09:59.595Z</time>
      </trkpt>
      <trkpt lat="47.78849" lon="6.57652">
        <ele>403.48</ele>
        <time>2025-04-30T06:10:00.950Z</time>
      </trkpt>
      <trkpt lat="47.78852" lon="6.57653">
        <ele>403.74</ele>
        <time>2025-04-30T06:10:02.305Z</time>
      </trkpt>
      <trkpt lat="47.78854" lon="6.57654">
        <ele>404</ele>
        <time>2025-04-30T06:10:03.661Z</time>
      </trkpt>
      <trkpt lat="47.78857" lon="6.57655">
        <ele>404.27</ele>
        <time>2025-04-30T06:10:05.017Z</time>
      </trkpt>
      <trkpt lat="47.78859" lon="6.57656">
        <ele>404.53</ele>
        <time>2025-04-30T06:10:06.374Z</time>
      </trkpt>
      <trkpt lat="47.78862" lon="6.57658">
        <ele>404.79</ele>
        <time>2025-04-30T06:10:07.732Z</time>
      </trkpt>
      <trkpt lat="47.78864" lon="6.5766">
        <ele>405.05</ele>
        <time>2025-04-30T06:10:09.090Z</time>
      </trkpt>
      <trkpt lat="47.78866" lon="6.57662">
        <ele>405.3</ele>
        <time>2025-04-30T06:10:10.449Z</time>
      </trkpt>
      <trkpt lat="47.78869" lon="6.57664">
        <ele>405.55</ele>
        <time>2025-04-30T06:10:11.808Z</time>
      </trkpt>
      <trkpt lat="47.78871" lon="6.57666">
        <ele>405.8</ele>
        <time>2025-04-30T06:10:13.168Z</time>
      </trkpt>
      <trkpt lat="47.78874" lon="6.57669">
        <ele>406.04</ele>
        <time>2025-04-30T06:10:14.529Z</time>
      </trkpt>
      <trkpt lat="47.78877" lon="6.57672">
        <ele>406.28</ele>
        <time>2025-04-30T06:10:15.890Z</time>
      </trkpt>
      <trkpt lat="47.78879" lon="6.57675">
        <ele>406.52</ele>
        <time>2025-04-30T06:10:17.252Z</time>
      </trkpt>
      <trkpt lat="47.78882" lon="6.57679">
        <ele>406.75</ele>
        <time>2025-04-30T06:10:18.615Z</time>
      </trkpt>
      <trkpt lat="47.78884" lon="6.57681">
        <ele>406.98</ele>
        <time>2025-04-30T06:10:19.978Z</time>
      </trkpt>
      <trkpt lat="47.78885" lon="6.57683">
        <ele>407.2</ele>
        <time>2025-04-30T06:10:21.342Z</time>
      </trkpt>
      <trkpt lat="47.78886" lon="6.57687">
        <ele>407.43</ele>
        <time>2025-04-30T06:10:22.706Z</time>
      </trkpt>
      <trkpt lat="47.78886" lon="6.57692">
        <ele>407.66</ele>
        <time>2025-04-30T06:10:24.071Z</time>
      </trkpt>
      <trkpt lat="47.78886" lon="6.57697">
        <ele>407.89</ele>
        <time>2025-04-30T06:10:25.437Z</time>
      </trkpt>
      <trkpt lat="47.78886" lon="6.57703">
        <ele>408.12</ele>
        <time>2025-04-30T06:10:26.804Z</time>
      </trkpt>
      <trkpt lat="47.78888" lon="6.57714">
        <ele>408.35</ele>
        <time>2025-04-30T06:10:28.172Z</time>
      </trkpt>
      <trkpt lat="47.78892" lon="6.57719">
        <ele>408.56</ele>
        <time>2025-04-30T06:10:29.541Z</time>
      </trkpt>
      <trkpt lat="47.78895" lon="6.57724">
        <ele>408.77</ele>
        <time>2025-04-30T06:10:30.911Z</time>
      </trkpt>
      <trkpt lat="47.78901" lon="6.5773">
        <ele>408.98</ele>
        <time>2025-04-30T06:10:32.283Z</time>
      </trkpt>
      <trkpt lat="47.78904" lon="6.57736">
        <ele>409.2</ele>
        <time>2025-04-30T06:10:33.656Z</time>
      </trkpt>
      <trkpt lat="47.78909" lon="6.57741">
        <ele>409.4</ele>
        <time>2025-04-30T06:10:35.030Z</time>
      </trkpt>
      <trkpt lat="47.78911" lon="6.57747">
        <ele>409.6</ele>
        <time>2025-04-30T06:10:36.405Z</time>
      </trkpt>
      <trkpt lat="47.78914" lon="6.57754">
        <ele>409.79</ele>
        <time>2025-04-30T06:10:37.781Z</time>
      </trkpt>
      <trkpt lat="47.78915" lon="6.57761">
        <ele>409.97</ele>
        <time>2025-04-30T06:10:39.158Z</time>
      </trkpt>
      <trkpt lat="47.78916" lon="6.57767">
        <ele>410.14</ele>
        <time>2025-04-30T06:10:40.536Z</time>
      </trkpt>
      <trkpt lat="47.78918" lon="6.57773">
        <ele>410.3</ele>
        <time>2025-04-30T06:10:41.915Z</time>
      </trkpt>
      <trkpt lat="47.78921" lon="6.57783">
        <ele>410.46</ele>
        <time>2025-04-30T06:10:43.296Z</time>
      </trkpt>
      <trkpt lat="47.78924" lon="6.57787">
        <ele>410.6</ele>
        <time>2025-04-30T06:10:44.678Z</time>
      </trkpt>
      <trkpt lat="47.78925" lon="6.57791">
        <ele>410.73</ele>
        <time>2025-04-30T06:10:46.060Z</time>
      </trkpt>
      <trkpt lat="47.78925" lon="6.57794">
        <ele>410.85</ele>
        <time>2025-04-30T06:10:47.443Z</time>
      </trkpt>
      <trkpt lat="47.78926" lon="6.57798">
        <ele>410.97</ele>
        <time>2025-04-30T06:10:48.826Z</time>
      </trkpt>
      <trkpt lat="47.78926" lon="6.57801">
        <ele>411.07</ele>
        <time>2025-04-30T06:10:50.210Z</time>
      </trkpt>
      <trkpt lat="47.78927" lon="6.57804">
        <ele>411.17</ele>
        <time>2025-04-30T06:10:51.594Z</time>
      </trkpt>
      <trkpt lat="47.78928" lon="6.57806">
        <ele>411.26</ele>
        <time>2025-04-30T06:10:52.979Z</time>
      </trkpt>
      <trkpt lat="47.78929" lon="6.57809">
        <ele>411.35</ele>
        <time>2025-04-30T06:10:54.364Z</time>
      </trkpt>
      <trkpt lat="47.78931" lon="6.5781">
        <ele>411.42</ele>
        <time>2025-04-30T06:10:55.750Z</time>
      </trkpt>
      <trkpt lat="47.78932" lon="6.57813">
        <ele>411.49</ele>
        <time>2025-04-30T06:10:57.136Z</time>
      </trkpt>
      <trkpt lat="47.78933" lon="6.57815">
        <ele>411.54</ele>
        <time>2025-04-30T06:10:58.522Z</time>
      </trkpt>
      <trkpt lat="47.78934" lon="6.57818">
        <ele>411.6</ele>
        <time>2025-04-30T06:10:59.909Z</time>
      </trkpt>
      <trkpt lat="47.78936" lon="6.5782">
        <ele>411.64</ele>
        <time>2025-04-30T06:11:01.296Z</time>
      </trkpt>
      <trkpt lat="47.78938" lon="6.57823">
        <ele>411.68</ele>
        <time>2025-04-30T06:11:02.684Z</time>
      </trkpt>
      <trkpt lat="47.7894" lon="6.57826">
        <ele>411.72</ele>
        <time>2025-04-30T06:11:04.073Z</time>
      </trkpt>
      <trkpt lat="47.78942" lon="6.5783">
        <ele>411.74</ele>
        <time>2025-04-30T06:11:05.462Z</time>
      </trkpt>
      <trkpt lat="47.78944" lon="6.57834">
        <ele>411.77</ele>
        <time>2025-04-30T06:11:06.852Z</time>
      </trkpt>
      <trkpt lat="47.78947" lon="6.57839">
        <ele>411.78</ele>
        <time>2025-04-30T06:11:08.243Z</time>
      </trkpt>
      <trkpt lat="47.7895" lon="6.57843">
        <ele>411.79</ele>
        <time>2025-04-30T06:11:09.635Z</time>
      </trkpt>
      <trkpt lat="47.78953" lon="6.57847">
        <ele>411.79</ele>
        <time>2025-04-30T06:11:11.028Z</time>
      </trkpt>
      <trkpt lat="47.78956" lon="6.57851">
        <ele>411.78</ele>
        <time>2025-04-30T06:11:12.422Z</time>
      </trkpt>
      <trkpt lat="47.78959" lon="6.57854">
        <ele>411.77</ele>
        <time>2025-04-30T06:11:13.816Z</time>
      </trkpt>
      <trkpt lat="47.78963" lon="6.57858">
        <ele>411.76</ele>
        <time>2025-04-30T06:11:15.211Z</time>
      </trkpt>
      <trkpt lat="47.78966" lon="6.5786">
        <ele>411.76</ele>
        <time>2025-04-30T06:11:16.607Z</time>
      </trkpt>
      <trkpt lat="47.78969" lon="6.57863">
        <ele>411.75</ele>
        <time>2025-04-30T06:11:18.004Z</time>
      </trkpt>
      <trkpt lat="47.78973" lon="6.57866">
        <ele>411.75</ele>
        <time>2025-04-30T06:11:19.402Z</time>
      </trkpt>
      <trkpt lat="47.78976" lon="6.57868">
        <ele>411.74</ele>
        <time>2025-04-30T06:11:20.801Z</time>
      </trkpt>
      <trkpt lat="47.78979" lon="6.5787">
        <ele>411.75</ele>
        <time>2025-04-30T06:11:22.200Z</time>
      </trkpt>
      <trkpt lat="47.78982" lon="6.57871">
        <ele>411.76</ele>
        <time>2025-04-30T06:11:23.600Z</time>
      </trkpt>
      <trkpt lat="47.78985" lon="6.5787">
        <ele>411.77</ele>
        <time>2025-04-30T06:11:25.001Z</time>
      </trkpt>
      <trkpt lat="47.78988" lon="6.57867">
        <ele>411.79</ele>
        <time>2025-04-30T06:11:26.402Z</time>
      </trkpt>
      <trkpt lat="47.7899" lon="6.57863">
        <ele>411.81</ele>
        <time>2025-04-30T06:11:27.804Z</time>
      </trkpt>
      <trkpt lat="47.78993" lon="6.57859">
        <ele>411.84</ele>
        <time>2025-04-30T06:11:29.207Z</time>
      </trkpt>
      <trkpt lat="47.78996" lon="6.57854">
        <ele>411.89</ele>
        <time>2025-04-30T06:11:30.611Z</time>
      </trkpt>
      <trkpt lat="47.78999" lon="6.57849">
        <ele>411.95</ele>
        <time>2025-04-30T06:11:32.016Z</time>
      </trkpt>
      <trkpt lat="47.79002" lon="6.57843">
        <ele>412.01</ele>
        <time>2025-04-30T06:11:33.422Z</time>
      </trkpt>
      <trkpt lat="47.79013" lon="6.57824">
        <ele>412.07</ele>
        <time>2025-04-30T06:11:34.832Z</time>
      </trkpt>
      <trkpt lat="47.79018" lon="6.5782">
        <ele>412.14</ele>
        <time>2025-04-30T06:11:36.243Z</time>
      </trkpt>
      <trkpt lat="47.79023" lon="6.57818">
        <ele>412.22</ele>
        <time>2025-04-30T06:11:37.655Z</time>
      </trkpt>
      <trkpt lat="47.79028" lon="6.57819">
        <ele>412.32</ele>
        <time>2025-04-30T06:11:39.068Z</time>
      </trkpt>
      <trkpt lat="47.79032" lon="6.5782">
        <ele>412.43</ele>
        <time>2025-04-30T06:11:40.482Z</time>
      </trkpt>
      <trkpt lat="47.79037" lon="6.57823">
        <ele>412.55</ele>
        <time>2025-04-30T06:11:41.897Z</time>
      </trkpt>
      <trkpt lat="47.7904" lon="6.57823">
        <ele>412.71</ele>
        <time>2025-04-30T06:11:43.313Z</time>
      </trkpt>
      <trkpt lat="47.79043" lon="6.57824">
        <ele>412.88</ele>
        <time>2025-04-30T06:11:44.729Z</time>
      </trkpt>
      <trkpt lat="47.79046" lon="6.57825">
        <ele>413.07</ele>
        <time>2025-04-30T06:11:46.146Z</time>
      </trkpt>
      <trkpt lat="47.79049" lon="6.57827">
        <ele>413.27</ele>
        <time>2025-04-30T06:11:47.564Z</time>
      </trkpt>
      <trkpt lat="47.79052" lon="6.57829">
        <ele>413.49</ele>
        <time>2025-04-30T06:11:48.982Z</time>
      </trkpt>
      <trkpt lat="47.79058" lon="6.57834">
        <ele>413.73</ele>
        <time>2025-04-30T06:11:50.402Z</time>
      </trkpt>
      <trkpt lat="47.79063" lon="6.5784">
        <ele>413.98</ele>
        <time>2025-04-30T06:11:51.823Z</time>
      </trkpt>
      <trkpt lat="47.79093" lon="6.5787">
        <ele>414.31</ele>
        <time>2025-04-30T06:11:53.252Z</time>
      </trkpt>
      <trkpt lat="47.791" lon="6.57879">
        <ele>414.65</ele>
        <time>2025-04-30T06:11:54.683Z</time>
      </trkpt>
      <trkpt lat="47.79103" lon="6.57887">
        <ele>414.99</ele>
        <time>2025-04-30T06:11:56.115Z</time>
      </trkpt>
      <trkpt lat="47.79104" lon="6.57891">
        <ele>415.32</ele>
        <time>2025-04-30T06:11:57.548Z</time>
      </trkpt>
      <trkpt lat="47.79106" lon="6.57895">
        <ele>415.67</ele>
        <time>2025-04-30T06:11:58.982Z</time>
      </trkpt>
      <trkpt lat="47.79109" lon="6.57899">
        <ele>416.02</ele>
        <time>2025-04-30T06:12:00.416Z</time>
      </trkpt>
      <trkpt lat="47.79113" lon="6.57907">
        <ele>416.41</ele>
        <time>2025-04-30T06:12:01.852Z</time>
      </trkpt>
      <trkpt lat="47.79114" lon="6.5791">
        <ele>416.78</ele>
        <time>2025-04-30T06:12:03.289Z</time>
      </trkpt>
      <trkpt lat="47.79115" lon="6.57914">
        <ele>417.15</ele>
        <time>2025-04-30T06:12:04.726Z</time>
      </trkpt>
      <trkpt lat="47.79117" lon="6.57919">
        <ele>417.54</ele>
        <time>2025-04-30T06:12:06.164Z</time>
      </trkpt>
      <trkpt lat="47.79118" lon="6.57924">
        <ele>417.93</ele>
        <time>2025-04-30T06:12:07.603Z</time>
      </trkpt>
      <trkpt lat="47.7912" lon="6.57934">
        <ele>418.34</ele>
        <time>2025-04-30T06:12:09.043Z</time>
      </trkpt>
      <trkpt lat="47.79127" lon="6.57963">
        <ele>418.79</ele>
        <time>2025-04-30T06:12:10.488Z</time>
      </trkpt>
      <trkpt lat="47.7913" lon="6.57974">
        <ele>419.18</ele>
        <time>2025-04-30T06:12:11.934Z</time>
      </trkpt>
      <trkpt lat="47.79136" lon="6.57987">
        <ele>419.55</ele>
        <time>2025-04-30T06:12:13.383Z</time>
      </trkpt>
      <trkpt lat="47.79138" lon="6.57992">
        <ele>419.91</ele>
        <time>2025-04-30T06:12:14.832Z</time>
      </trkpt>
      <trkpt lat="47.7914" lon="6.57997">
        <ele>420.26</ele>
        <time>2025-04-30T06:12:16.282Z</time>
      </trkpt>
      <trkpt lat="47.79142" lon="6.58001">
        <ele>420.6</ele>
        <time>2025-04-30T06:12:17.733Z</time>
      </trkpt>
      <trkpt lat="47.79145" lon="6.58005">
        <ele>420.93</ele>
        <time>2025-04-30T06:12:19.185Z</time>
      </trkpt>
      <trkpt lat="47.79146" lon="6.58009">
        <ele>421.25</ele>
        <time>2025-04-30T06:12:20.638Z</time>
      </trkpt>
      <trkpt lat="47.79148" lon="6.58013">
        <ele>421.56</ele>
        <time>2025-04-30T06:12:22.091Z</time>
      </trkpt>
      <trkpt lat="47.7915" lon="6.58016">
        <ele>421.85</ele>
        <time>2025-04-30T06:12:23.545Z</time>
      </trkpt>
      <trkpt lat="47.79152" lon="6.5802">
        <ele>422.13</ele>
        <time>2025-04-30T06:12:24.999Z</time>
      </trkpt>
      <trkpt lat="47.79154" lon="6.58023">
        <ele>422.4</ele>
        <time>2025-04-30T06:12:26.454Z</time>
      </trkpt>
      <trkpt lat="47.79156" lon="6.58027">
        <ele>422.66</ele>
        <time>2025-04-30T06:12:27.910Z</time>
      </trkpt>
      <trkpt lat="47.79158" lon="6.5803">
        <ele>422.89</ele>
        <time>2025-04-30T06:12:29.366Z</time>
      </trkpt>
      <trkpt lat="47.79161" lon="6.58034">
        <ele>423.11</ele>
        <time>2025-04-30T06:12:30.823Z</time>
      </trkpt>
      <trkpt lat="47.79163" lon="6.58036">
        <ele>423.31</ele>
        <time>2025-04-30T06:12:32.281Z</time>
      </trkpt>
      <trkpt lat="47.79166" lon="6.58038">
        <ele>423.5</ele>
        <time>2025-04-30T06:12:33.739Z</time>
      </trkpt>
      <trkpt lat="47.79171" lon="6.5804">
        <ele>423.67</ele>
        <time>2025-04-30T06:12:35.199Z</time>
      </trkpt>
      <trkpt lat="47.79174" lon="6.5804">
        <ele>423.82</ele>
        <time>2025-04-30T06:12:36.659Z</time>
      </trkpt>
      <trkpt lat="47.79176" lon="6.58039">
        <ele>423.96</ele>
        <time>2025-04-30T06:12:38.120Z</time>
      </trkpt>
      <trkpt lat="47.79178" lon="6.58038">
        <ele>424.09</ele>
        <time>2025-04-30T06:12:39.581Z</time>
      </trkpt>
      <trkpt lat="47.7918" lon="6.58037">
        <ele>424.21</ele>
        <time>2025-04-30T06:12:41.043Z</time>
      </trkpt>
      <trkpt lat="47.79182" lon="6.58036">
        <ele>424.32</ele>
        <time>2025-04-30T06:12:42.505Z</time>
      </trkpt>
      <trkpt lat="47.79184" lon="6.58036">
        <ele>424.42</ele>
        <time>2025-04-30T06:12:43.968Z</time>
      </trkpt>
      <trkpt lat="47.79186" lon="6.58035">
        <ele>424.51</ele>
        <time>2025-04-30T06:12:45.431Z</time>
      </trkpt>
      <trkpt lat="47.79188" lon="6.58035">
        <ele>424.59</ele>
        <time>2025-04-30T06:12:46.894Z</time>
      </trkpt>
      <trkpt lat="47.7919" lon="6.58033">
        <ele>424.67</ele>
        <time>2025-04-30T06:12:48.358Z</time>
      </trkpt>
      <trkpt lat="47.79192" lon="6.58031">
        <ele>424.73</ele>
        <time>2025-04-30T06:12:49.823Z</time>
      </trkpt>
      <trkpt lat="47.79194" lon="6.58027">
        <ele>424.79</ele>
        <time>2025-04-30T06:12:51.288Z</time>
      </trkpt>
      <trkpt lat="47.79195" lon="6.58024">
        <ele>424.83</ele>
        <time>2025-04-30T06:12:52.754Z</time>
      </trkpt>
      <trkpt lat="47.79196" lon="6.5802">
        <ele>424.88</ele>
        <time>2025-04-30T06:12:54.220Z</time>
      </trkpt>
      <trkpt lat="47.79198" lon="6.58018">
        <ele>424.93</ele>
        <time>2025-04-30T06:12:55.687Z</time>
      </trkpt>
      <trkpt lat="47.79199" lon="6.58015">
        <ele>424.98</ele>
        <time>2025-04-30T06:12:57.154Z</time>
      </trkpt>
      <trkpt lat="47.792" lon="6.58013">
        <ele>425.02</ele>
        <time>2025-04-30T06:12:58.622Z</time>
      </trkpt>
      <trkpt lat="47.79202" lon="6.5801">
        <ele>425.07</ele>
        <time>2025-04-30T06:13:00.090Z</time>
      </trkpt>
      <trkpt lat="47.79204" lon="6.58007">
        <ele>425.11</ele>
        <time>2025-04-30T06:13:01.559Z</time>
      </trkpt>
      <trkpt lat="47.79205" lon="6.58003">
        <ele>425.16</ele>
        <time>2025-04-30T06:13:03.028Z</time>
      </trkpt>
      <trkpt lat="47.79207" lon="6.57999">
        <ele>425.2</ele>
        <time>2025-04-30T06:13:04.498Z</time>
      </trkpt>
      <trkpt lat="47.7921" lon="6.57995">
        <ele>425.25</ele>
        <time>2025-04-30T06:13:05.969Z</time>
      </trkpt>
      <trkpt lat="47.79212" lon="6.57992">
        <ele>425.3</ele>
        <time>2025-04-30T06:13:07.441Z</time>
      </trkpt>
      <trkpt lat="47.79215" lon="6.5799">
        <ele>425.37</ele>
        <time>2025-04-30T06:13:08.913Z</time>
      </trkpt>
      <trkpt lat="47.79218" lon="6.57988">
        <ele>425.43</ele>
        <time>2025-04-30T06:13:10.386Z</time>
      </trkpt>
      <trkpt lat="47.79221" lon="6.57986">
        <ele>425.51</ele>
        <time>2025-04-30T06:13:11.860Z</time>
      </trkpt>
      <trkpt lat="47.79225" lon="6.57985">
        <ele>425.6</ele>
        <time>2025-04-30T06:13:13.334Z</time>
      </trkpt>
      <trkpt lat="47.79228" lon="6.57983">
        <ele>425.7</ele>
        <time>2025-04-30T06:13:14.809Z</time>
      </trkpt>
      <trkpt lat="47.79232" lon="6.57982">
        <ele>425.8</ele>
        <time>2025-04-30T06:13:16.285Z</time>
      </trkpt>
      <trkpt lat="47.79235" lon="6.57982">
        <ele>425.91</ele>
        <time>2025-04-30T06:13:17.762Z</time>
      </trkpt>
      <trkpt lat="47.79239" lon="6.57982">
        <ele>426.03</ele>
        <time>2025-04-30T06:13:19.240Z</time>
      </trkpt>
      <trkpt lat="47.79242" lon="6.57983">
        <ele>426.16</ele>
        <time>2025-04-30T06:13:20.718Z</time>
      </trkpt>
      <trkpt lat="47.79245" lon="6.57984">
        <ele>426.3</ele>
        <time>2025-04-30T06:13:22.197Z</time>
      </trkpt>
      <trkpt lat="47.79247" lon="6.57985">
        <ele>426.45</ele>
        <time>2025-04-30T06:13:23.677Z</time>
      </trkpt>
      <trkpt lat="47.7925" lon="6.57987">
        <ele>426.61</ele>
        <time>2025-04-30T06:13:25.157Z</time>
      </trkpt>
      <trkpt lat="47.79252" lon="6.5799">
        <ele>426.79</ele>
        <time>2025-04-30T06:13:26.638Z</time>
      </trkpt>
      <trkpt lat="47.79254" lon="6.57994">
        <ele>426.97</ele>
        <time>2025-04-30T06:13:28.119Z</time>
      </trkpt>
      <trkpt lat="47.79256" lon="6.57997">
        <ele>427.16</ele>
        <time>2025-04-30T06:13:29.601Z</time>
      </trkpt>
      <trkpt lat="47.79258" lon="6.58">
        <ele>427.36</ele>
        <time>2025-04-30T06:13:31.084Z</time>
      </trkpt>
      <trkpt lat="47.79259" lon="6.58004">
        <ele>427.56</ele>
        <time>2025-04-30T06:13:32.567Z</time>
      </trkpt>
      <trkpt lat="47.7926" lon="6.58007">
        <ele>427.76</ele>
        <time>2025-04-30T06:13:34.051Z</time>
      </trkpt>
      <trkpt lat="47.79262" lon="6.58011">
        <ele>427.97</ele>
        <time>2025-04-30T06:13:35.535Z</time>
      </trkpt>
      <trkpt lat="47.79262" lon="6.58014">
        <ele>428.19</ele>
        <time>2025-04-30T06:13:37.020Z</time>
      </trkpt>
      <trkpt lat="47.79263" lon="6.58018">
        <ele>428.41</ele>
        <time>2025-04-30T06:13:38.505Z</time>
      </trkpt>
      <trkpt lat="47.79264" lon="6.58021">
        <ele>428.63</ele>
        <time>2025-04-30T06:13:39.991Z</time>
      </trkpt>
      <trkpt lat="47.79264" lon="6.58025">
        <ele>428.85</ele>
        <time>2025-04-30T06:13:41.477Z</time>
      </trkpt>
      <trkpt lat="47.79264" lon="6.58029">
        <ele>429.08</ele>
        <time>2025-04-30T06:13:42.964Z</time>
      </trkpt>
      <trkpt lat="47.79263" lon="6.58033">
        <ele>429.3</ele>
        <time>2025-04-30T06:13:44.452Z</time>
      </trkpt>
      <trkpt lat="47.79263" lon="6.58037">
        <ele>429.53</ele>
        <time>2025-04-30T06:13:45.940Z</time>
      </trkpt>
      <trkpt lat="47.79263" lon="6.58041">
        <ele>429.75</ele>
        <time>2025-04-30T06:13:47.429Z</time>
      </trkpt>
      <trkpt lat="47.79263" lon="6.58045">
        <ele>429.97</ele>
        <time>2025-04-30T06:13:48.918Z</time>
      </trkpt>
      <trkpt lat="47.79262" lon="6.58049">
        <ele>430.19</ele>
        <time>2025-04-30T06:13:50.408Z</time>
      </trkpt>
      <trkpt lat="47.79262" lon="6.58052">
        <ele>430.4</ele>
        <time>2025-04-30T06:13:51.899Z</time>
      </trkpt>
      <trkpt lat="47.79261" lon="6.58056">
        <ele>430.61</ele>
        <time>2025-04-30T06:13:53.390Z</time>
      </trkpt>
      <trkpt lat="47.79261" lon="6.5806">
        <ele>430.82</ele>
        <time>2025-04-30T06:13:54.882Z</time>
      </trkpt>
      <trkpt lat="47.79261" lon="6.58064">
        <ele>431.02</ele>
        <time>2025-04-30T06:13:56.374Z</time>
      </trkpt>
      <trkpt lat="47.7926" lon="6.58068">
        <ele>431.22</ele>
        <time>2025-04-30T06:13:57.867Z</time>
      </trkpt>
      <trkpt lat="47.7926" lon="6.58072">
        <ele>431.41</ele>
        <time>2025-04-30T06:13:59.360Z</time>
      </trkpt>
      <trkpt lat="47.7926" lon="6.58075">
        <ele>431.59</ele>
        <time>2025-04-30T06:14:00.854Z</time>
      </trkpt>
      <trkpt lat="47.7926" lon="6.58079">
        <ele>431.77</ele>
        <time>2025-04-30T06:14:02.348Z</time>
      </trkpt>
      <trkpt lat="47.7926" lon="6.58083">
        <ele>431.95</ele>
        <time>2025-04-30T06:14:03.843Z</time>
      </trkpt>
      <trkpt lat="47.79261" lon="6.58087">
        <ele>432.13</ele>
        <time>2025-04-30T06:14:05.339Z</time>
      </trkpt>
      <trkpt lat="47.79261" lon="6.58091">
        <ele>432.29</ele>
        <time>2025-04-30T06:14:06.835Z</time>
      </trkpt>
      <trkpt lat="47.79262" lon="6.58095">
        <ele>432.45</ele>
        <time>2025-04-30T06:14:08.332Z</time>
      </trkpt>
      <trkpt lat="47.79262" lon="6.58098">
        <ele>432.6</ele>
        <time>2025-04-30T06:14:09.829Z</time>
      </trkpt>
      <trkpt lat="47.79263" lon="6.58102">
        <ele>432.75</ele>
        <time>2025-04-30T06:14:11.327Z</time>
      </trkpt>
      <trkpt lat="47.79263" lon="6.58105">
        <ele>432.9</ele>
        <time>2025-04-30T06:14:12.825Z</time>
      </trkpt>
      <trkpt lat="47.79264" lon="6.58109">
        <ele>433.04</ele>
        <time>2025-04-30T06:14:14.324Z</time>
      </trkpt>
      <trkpt lat="47.79266" lon="6.58112">
        <ele>433.18</ele>
        <time>2025-04-30T06:14:15.823Z</time>
      </trkpt>
      <trkpt lat="47.79267" lon="6.58115">
        <ele>433.32</ele>
        <time>2025-04-30T06:14:17.323Z</time>
      </trkpt>
      <trkpt lat="47.79269" lon="6.58118">
        <ele>433.45</ele>
        <time>2025-04-30T06:14:18.824Z</time>
      </trkpt>
      <trkpt lat="47.79271" lon="6.58121">
        <ele>433.58</ele>
        <time>2025-04-30T06:14:20.325Z</time>
      </trkpt>
      <trkpt lat="47.79273" lon="6.58124">
        <ele>433.71</ele>
        <time>2025-04-30T06:14:21.827Z</time>
      </trkpt>
      <trkpt lat="47.79274" lon="6.58128">
        <ele>433.84</ele>
        <time>2025-04-30T06:14:23.329Z</time>
      </trkpt>
      <trkpt lat="47.79277" lon="6.5813">
        <ele>433.96</ele>
        <time>2025-04-30T06:14:24.832Z</time>
      </trkpt>
      <trkpt lat="47.79279" lon="6.58133">
        <ele>434.08</ele>
        <time>2025-04-30T06:14:26.335Z</time>
      </trkpt>
      <trkpt lat="47.7928" lon="6.58135">
        <ele>434.2</ele>
        <time>2025-04-30T06:14:27.839Z</time>
      </trkpt>
      <trkpt lat="47.79283" lon="6.5814">
        <ele>434.32</ele>
        <time>2025-04-30T06:14:29.344Z</time>
      </trkpt>
      <trkpt lat="47.79285" lon="6.58143">
        <ele>434.44</ele>
        <time>2025-04-30T06:14:30.850Z</time>
      </trkpt>
      <trkpt lat="47.79287" lon="6.58146">
        <ele>434.56</ele>
        <time>2025-04-30T06:14:32.356Z</time>
      </trkpt>
      <trkpt lat="47.79289" lon="6.58149">
        <ele>434.68</ele>
        <time>2025-04-30T06:14:33.863Z</time>
      </trkpt>
      <trkpt lat="47.79292" lon="6.58152">
        <ele>434.79</ele>
        <time>2025-04-30T06:14:35.370Z</time>
      </trkpt>
      <trkpt lat="47.79294" lon="6.58156">
        <ele>434.91</ele>
        <time>2025-04-30T06:14:36.878Z</time>
      </trkpt>
      <trkpt lat="47.79295" lon="6.58158">
        <ele>435.03</ele>
        <time>2025-04-30T06:14:38.387Z</time>
      </trkpt>
      <trkpt lat="47.79298" lon="6.58163">
        <ele>435.15</ele>
        <time>2025-04-30T06:14:39.896Z</time>
      </trkpt>
      <trkpt lat="47.793" lon="6.58166">
        <ele>435.28</ele>
        <time>2025-04-30T06:14:41.406Z</time>
      </trkpt>
      <trkpt lat="47.79302" lon="6.58169">
        <ele>435.4</ele>
        <time>2025-04-30T06:14:42.917Z</time>
      </trkpt>
      <trkpt lat="47.79304" lon="6.58172">
        <ele>435.54</ele>
        <time>2025-04-30T06:14:44.428Z</time>
      </trkpt>
      <trkpt lat="47.79306" lon="6.58176">
        <ele>435.68</ele>
        <time>2025-04-30T06:14:45.940Z</time>
      </trkpt>
      <trkpt lat="47.79307" lon="6.58179">
        <ele>435.83</ele>
        <time>2025-04-30T06:14:47.453Z</time>
      </trkpt>
      <trkpt lat="47.79309" lon="6.58183">
        <ele>435.98</ele>
        <time>2025-04-30T06:14:48.966Z</time>
      </trkpt>
      <trkpt lat="47.7931" lon="6.58185">
        <ele>436.13</ele>
        <time>2025-04-30T06:14:50.480Z</time>
      </trkpt>
      <trkpt lat="47.79311" lon="6.58186">
        <ele>436.29</ele>
        <time>2025-04-30T06:14:51.994Z</time>
      </trkpt>
      <trkpt lat="47.79313" lon="6.58189">
        <ele>436.45</ele>
        <time>2025-04-30T06:14:53.508Z</time>
      </trkpt>
      <trkpt lat="47.79313" lon="6.58191">
        <ele>436.62</ele>
        <time>2025-04-30T06:14:55.023Z</time>
      </trkpt>
      <trkpt lat="47.79314" lon="6.58194">
        <ele>436.8</ele>
        <time>2025-04-30T06:14:56.538Z</time>
      </trkpt>
      <trkpt lat="47.79315" lon="6.58196">
        <ele>436.98</ele>
        <time>2025-04-30T06:14:58.054Z</time>
      </trkpt>
      <trkpt lat="47.79317" lon="6.58198">
        <ele>437.17</ele>
        <time>2025-04-30T06:14:59.570Z</time>
      </trkpt>
      <trkpt lat="47.79319" lon="6.58199">
        <ele>437.37</ele>
        <time>2025-04-30T06:15:01.087Z</time>
      </trkpt>
      <trkpt lat="47.79322" lon="6.582">
        <ele>437.58</ele>
        <time>2025-04-30T06:15:02.604Z</time>
      </trkpt>
      <trkpt lat="47.79325" lon="6.58203">
        <ele>437.79</ele>
        <time>2025-04-30T06:15:04.122Z</time>
      </trkpt>
      <trkpt lat="47.79326" lon="6.58204">
        <ele>438</ele>
        <time>2025-04-30T06:15:05.640Z</time>
      </trkpt>
      <trkpt lat="47.79329" lon="6.58207">
        <ele>438.23</ele>
        <time>2025-04-30T06:15:07.159Z</time>
      </trkpt>
      <trkpt lat="47.79331" lon="6.58209">
        <ele>438.46</ele>
        <time>2025-04-30T06:15:08.679Z</time>
      </trkpt>
      <trkpt lat="47.79335" lon="6.58212">
        <ele>438.69</ele>
        <time>2025-04-30T06:15:10.199Z</time>
      </trkpt>
      <trkpt lat="47.79337" lon="6.58215">
        <ele>438.93</ele>
        <time>2025-04-30T06:15:11.720Z</time>
      </trkpt>
      <trkpt lat="47.7934" lon="6.58218">
        <ele>439.18</ele>
        <time>2025-04-30T06:15:13.242Z</time>
      </trkpt>
      <trkpt lat="47.79343" lon="6.58221">
        <ele>439.43</ele>
        <time>2025-04-30T06:15:14.765Z</time>
      </trkpt>
      <trkpt lat="47.79346" lon="6.58223">
        <ele>439.68</ele>
        <time>2025-04-30T06:15:16.288Z</time>
      </trkpt>
      <trkpt lat="47.7935" lon="6.58227">
        <ele>439.94</ele>
        <time>2025-04-30T06:15:17.812Z</time>
      </trkpt>
      <trkpt lat="47.79353" lon="6.58231">
        <ele>440.2</ele>
        <time>2025-04-30T06:15:19.337Z</time>
      </trkpt>
      <trkpt lat="47.79356" lon="6.58235">
        <ele>440.46</ele>
        <time>2025-04-30T06:15:20.863Z</time>
      </trkpt>
      <trkpt lat="47.79359" lon="6.58239">
        <ele>440.72</ele>
        <time>2025-04-30T06:15:22.390Z</time>
      </trkpt>
      <trkpt lat="47.79361" lon="6.58242">
        <ele>440.98</ele>
        <time>2025-04-30T06:15:23.918Z</time>
      </trkpt>
      <trkpt lat="47.79364" lon="6.58246">
        <ele>441.24</ele>
        <time>2025-04-30T06:15:25.446Z</time>
      </trkpt>
      <trkpt lat="47.79367" lon="6.5825">
        <ele>441.49</ele>
        <time>2025-04-30T06:15:26.975Z</time>
      </trkpt>
      <trkpt lat="47.7937" lon="6.58253">
        <ele>441.74</ele>
        <time>2025-04-30T06:15:28.505Z</time>
      </trkpt>
      <trkpt lat="47.79373" lon="6.58256">
        <ele>441.99</ele>
        <time>2025-04-30T06:15:30.036Z</time>
      </trkpt>
      <trkpt lat="47.79377" lon="6.5826">
        <ele>442.23</ele>
        <time>2025-04-30T06:15:31.568Z</time>
      </trkpt>
      <trkpt lat="47.79379" lon="6.58263">
        <ele>442.46</ele>
        <time>2025-04-30T06:15:33.101Z</time>
      </trkpt>
      <trkpt lat="47.79383" lon="6.58266">
        <ele>442.69</ele>
        <time>2025-04-30T06:15:34.635Z</time>
      </trkpt>
      <trkpt lat="47.79388" lon="6.58271">
        <ele>442.92</ele>
        <time>2025-04-30T06:15:36.170Z</time>
      </trkpt>
      <trkpt lat="47.7939" lon="6.58275">
        <ele>443.15</ele>
        <time>2025-04-30T06:15:37.705Z</time>
      </trkpt>
      <trkpt lat="47.79392" lon="6.58277">
        <ele>443.36</ele>
        <time>2025-04-30T06:15:39.241Z</time>
      </trkpt>
      <trkpt lat="47.79396" lon="6.58281">
        <ele>443.58</ele>
        <time>2025-04-30T06:15:40.778Z</time>
      </trkpt>
      <trkpt lat="47.79401" lon="6.58284">
        <ele>443.76</ele>
        <time>2025-04-30T06:15:42.316Z</time>
      </trkpt>
      <trkpt lat="47.79405" lon="6.58286">
        <ele>443.94</ele>
        <time>2025-04-30T06:15:43.855Z</time>
      </trkpt>
      <trkpt lat="47.79411" lon="6.58288">
        <ele>444.11</ele>
        <time>2025-04-30T06:15:45.395Z</time>
      </trkpt>
      <trkpt lat="47.79414" lon="6.5829">
        <ele>444.29</ele>
        <time>2025-04-30T06:15:46.936Z</time>
      </trkpt>
      <trkpt lat="47.79416" lon="6.58293">
        <ele>444.46</ele>
        <time>2025-04-30T06:15:48.478Z</time>
      </trkpt>
      <trkpt lat="47.79416" lon="6.58296">
        <ele>444.64</ele>
        <time>2025-04-30T06:15:50.020Z</time>
      </trkpt>
      <trkpt lat="47.79416" lon="6.58301">
        <ele>444.81</ele>
        <time>2025-04-30T06:15:51.563Z</time>
      </trkpt>
      <trkpt lat="47.79417" lon="6.58317">
        <ele>444.99</ele>
        <time>2025-04-30T06:15:53.108Z</time>
      </trkpt>
      <trkpt lat="47.79418" lon="6.58322">
        <ele>445.16</ele>
        <time>2025-04-30T06:15:54.654Z</time>
      </trkpt>
      <trkpt lat="47.7942" lon="6.58332">
        <ele>445.32</ele>
        <time>2025-04-30T06:15:56.202Z</time>
      </trkpt>
      <trkpt lat="47.79435" lon="6.58372">
        <ele>445.46</ele>
        <time>2025-04-30T06:15:57.756Z</time>
      </trkpt>
      <trkpt lat="47.79449" lon="6.58396">
        <ele>445.64</ele>
        <time>2025-04-30T06:15:59.315Z</time>
      </trkpt>
      <trkpt lat="47.7945" lon="6.58401">
        <ele>445.8</ele>
        <time>2025-04-30T06:16:00.874Z</time>
      </trkpt>
      <trkpt lat="47.7945" lon="6.58407">
        <ele>445.95</ele>
        <time>2025-04-30T06:16:02.434Z</time>
      </trkpt>
      <trkpt lat="47.79449" lon="6.58412">
        <ele>446.11</ele>
        <time>2025-04-30T06:16:03.995Z</time>
      </trkpt>
      <trkpt lat="47.79449" lon="6.58418">
        <ele>446.25</ele>
        <time>2025-04-30T06:16:05.557Z</time>
      </trkpt>
      <trkpt lat="47.79448" lon="6.58423">
        <ele>446.38</ele>
        <time>2025-04-30T06:16:07.120Z</time>
      </trkpt>
      <trkpt lat="47.79447" lon="6.58429">
        <ele>446.5</ele>
        <time>2025-04-30T06:16:08.683Z</time>
      </trkpt>
      <trkpt lat="47.79446" lon="6.58433">
        <ele>446.62</ele>
        <time>2025-04-30T06:16:10.247Z</time>
      </trkpt>
      <trkpt lat="47.79444" lon="6.58438">
        <ele>446.73</ele>
        <time>2025-04-30T06:16:11.812Z</time>
      </trkpt>
      <trkpt lat="47.79443" lon="6.58442">
        <ele>446.84</ele>
        <time>2025-04-30T06:16:13.378Z</time>
      </trkpt>
      <trkpt lat="47.79441" lon="6.58446">
        <ele>446.95</ele>
        <time>2025-04-30T06:16:14.944Z</time>
      </trkpt>
      <trkpt lat="47.79439" lon="6.58453">
        <ele>447.04</ele>
        <time>2025-04-30T06:16:16.511Z</time>
      </trkpt>
      <trkpt lat="47.79439" lon="6.58456">
        <ele>447.13</ele>
        <time>2025-04-30T06:16:18.079Z</time>
      </trkpt>
      <trkpt lat="47.79438" lon="6.58461">
        <ele>447.2</ele>
        <time>2025-04-30T06:16:19.648Z</time>
      </trkpt>
      <trkpt lat="47.79438" lon="6.58464">
        <ele>447.27</ele>
        <time>2025-04-30T06:16:21.217Z</time>
      </trkpt>
      <trkpt lat="47.79437" lon="6.58467">
        <ele>447.33</ele>
        <time>2025-04-30T06:16:22.786Z</time>
      </trkpt>
      <trkpt lat="47.79436" lon="6.58475">
        <ele>447.39</ele>
        <time>2025-04-30T06:16:24.357Z</time>
      </trkpt>
      <trkpt lat="47.79435" lon="6.58479">
        <ele>447.43</ele>
        <time>2025-04-30T06:16:25.928Z</time>
      </trkpt>
      <trkpt lat="47.79434" lon="6.58482">
        <ele>447.47</ele>
        <time>2025-04-30T06:16:27.500Z</time>
      </trkpt>
      <trkpt lat="47.79433" lon="6.58486">
        <ele>447.5</ele>
        <time>2025-04-30T06:16:29.072Z</time>
      </trkpt>
      <trkpt lat="47.79429" lon="6.58492">
        <ele>447.52</ele>
        <time>2025-04-30T06:16:30.646Z</time>
      </trkpt>
      <trkpt lat="47.79427" lon="6.58495">
        <ele>447.53</ele>
        <time>2025-04-30T06:16:32.220Z</time>
      </trkpt>
      <trkpt lat="47.79424" lon="6.585">
        <ele>447.54</ele>
        <time>2025-04-30T06:16:33.795Z</time>
      </trkpt>
      <trkpt lat="47.79423" lon="6.58503">
        <ele>447.53</ele>
        <time>2025-04-30T06:16:35.371Z</time>
      </trkpt>
      <trkpt lat="47.79423" lon="6.58505">
        <ele>447.51</ele>
        <time>2025-04-30T06:16:36.947Z</time>
      </trkpt>
      <trkpt lat="47.79424" lon="6.58508">
        <ele>447.48</ele>
        <time>2025-04-30T06:16:38.523Z</time>
      </trkpt>
      <trkpt lat="47.79424" lon="6.58509">
        <ele>447.44</ele>
        <time>2025-04-30T06:16:40.100Z</time>
      </trkpt>
      <trkpt lat="47.79425" lon="6.58511">
        <ele>447.38</ele>
        <time>2025-04-30T06:16:41.677Z</time>
      </trkpt>
      <trkpt lat="47.79426" lon="6.58511">
        <ele>447.32</ele>
        <time>2025-04-30T06:16:43.254Z</time>
      </trkpt>
      <trkpt lat="47.79427" lon="6.58511">
        <ele>447.25</ele>
        <time>2025-04-30T06:16:44.831Z</time>
      </trkpt>
      <trkpt lat="47.79427" lon="6.58511">
        <ele>447.16</ele>
        <time>2025-04-30T06:16:46.408Z</time>
      </trkpt>
      <trkpt lat="47.79428" lon="6.58512">
        <ele>447.07</ele>
        <time>2025-04-30T06:16:47.986Z</time>
      </trkpt>
      <trkpt lat="47.79429" lon="6.58513">
        <ele>446.97</ele>
        <time>2025-04-30T06:16:49.564Z</time>
      </trkpt>
      <trkpt lat="47.7943" lon="6.58513">
        <ele>446.86</ele>
        <time>2025-04-30T06:16:51.142Z</time>
      </trkpt>
      <trkpt lat="47.79431" lon="6.58514">
        <ele>446.74</ele>
        <time>2025-04-30T06:16:52.720Z</time>
      </trkpt>
      <trkpt lat="47.79433" lon="6.58516">
        <ele>446.61</ele>
        <time>2025-04-30T06:16:54.299Z</time>
      </trkpt>
      <trkpt lat="47.79436" lon="6.58517">
        <ele>446.47</ele>
        <time>2025-04-30T06:16:55.878Z</time>
      </trkpt>
      <trkpt lat="47.79437" lon="6.58517">
        <ele>446.32</ele>
        <time>2025-04-30T06:16:57.458Z</time>
      </trkpt>
      <trkpt lat="47.79439" lon="6.58516">
        <ele>446.16</ele>
        <time>2025-04-30T06:16:59.038Z</time>
      </trkpt>
      <trkpt lat="47.79441" lon="6.58516">
        <ele>446</ele>
        <time>2025-04-30T06:17:00.619Z</time>
      </trkpt>
      <trkpt lat="47.79444" lon="6.58515">
        <ele>445.84</ele>
        <time>2025-04-30T06:17:02.200Z</time>
      </trkpt>
      <trkpt lat="47.79447" lon="6.58516">
        <ele>445.67</ele>
        <time>2025-04-30T06:17:03.782Z</time>
      </trkpt>
      <trkpt lat="47.79449" lon="6.58518">
        <ele>445.49</ele>
        <time>2025-04-30T06:17:05.364Z</time>
      </trkpt>
      <trkpt lat="47.79451" lon="6.58519">
        <ele>445.31</ele>
        <time>2025-04-30T06:17:06.947Z</time>
      </trkpt>
      <trkpt lat="47.79454" lon="6.5852">
        <ele>445.12</ele>
        <time>2025-04-30T06:17:08.530Z</time>
      </trkpt>
      <trkpt lat="47.79457" lon="6.58521">
        <ele>444.92</ele>
        <time>2025-04-30T06:17:10.114Z</time>
      </trkpt>
      <trkpt lat="47.79459" lon="6.5852">
        <ele>444.73</ele>
        <time>2025-04-30T06:17:11.698Z</time>
      </trkpt>
      <trkpt lat="47.79461" lon="6.58518">
        <ele>444.53</ele>
        <time>2025-04-30T06:17:13.283Z</time>
      </trkpt>
      <trkpt lat="47.79463" lon="6.58516">
        <ele>444.34</ele>
        <time>2025-04-30T06:17:14.869Z</time>
      </trkpt>
      <trkpt lat="47.79465" lon="6.58509">
        <ele>444.13</ele>
        <time>2025-04-30T06:17:16.456Z</time>
      </trkpt>
      <trkpt lat="47.79466" lon="6.58506">
        <ele>443.93</ele>
        <time>2025-04-30T06:17:18.043Z</time>
      </trkpt>
      <trkpt lat="47.79468" lon="6.58504">
        <ele>443.73</ele>
        <time>2025-04-30T06:17:19.631Z</time>
      </trkpt>
      <trkpt lat="47.79469" lon="6.58504">
        <ele>443.53</ele>
        <time>2025-04-30T06:17:21.219Z</time>
      </trkpt>
      <trkpt lat="47.7947" lon="6.58505">
        <ele>443.34</ele>
        <time>2025-04-30T06:17:22.807Z</time>
      </trkpt>
      <trkpt lat="47.79471" lon="6.58507">
        <ele>443.16</ele>
        <time>2025-04-30T06:17:24.395Z</time>
      </trkpt>
      <trkpt lat="47.79471" lon="6.5851">
        <ele>442.97</ele>
        <time>2025-04-30T06:17:25.984Z</time>
      </trkpt>
      <trkpt lat="47.79472" lon="6.58513">
        <ele>442.79</ele>
        <time>2025-04-30T06:17:27.573Z</time>
      </trkpt>
      <trkpt lat="47.79474" lon="6.58517">
        <ele>442.61</ele>
        <time>2025-04-30T06:17:29.163Z</time>
      </trkpt>
      <trkpt lat="47.7948" lon="6.58539">
        <ele>442.41</ele>
        <time>2025-04-30T06:17:30.757Z</time>
      </trkpt>
      <trkpt lat="47.79481" lon="6.58543">
        <ele>442.24</ele>
        <time>2025-04-30T06:17:32.351Z</time>
      </trkpt>
      <trkpt lat="47.79491" lon="6.5857">
        <ele>442.06</ele>
        <time>2025-04-30T06:17:33.950Z</time>
      </trkpt>
      <trkpt lat="47.79501" lon="6.58598">
        <ele>441.89</ele>
        <time>2025-04-30T06:17:35.553Z</time>
      </trkpt>
      <trkpt lat="47.79502" lon="6.58605">
        <ele>441.73</ele>
        <time>2025-04-30T06:17:37.157Z</time>
      </trkpt>
      <trkpt lat="47.79503" lon="6.58609">
        <ele>441.57</ele>
        <time>2025-04-30T06:17:38.762Z</time>
      </trkpt>
      <trkpt lat="47.79504" lon="6.58612">
        <ele>441.42</ele>
        <time>2025-04-30T06:17:40.367Z</time>
      </trkpt>
      <trkpt lat="47.79504" lon="6.58616">
        <ele>441.27</ele>
        <time>2025-04-30T06:17:41.973Z</time>
      </trkpt>
      <trkpt lat="47.79504" lon="6.58619">
        <ele>441.13</ele>
        <time>2025-04-30T06:17:43.579Z</time>
      </trkpt>
      <trkpt lat="47.79504" lon="6.58622">
        <ele>440.99</ele>
        <time>2025-04-30T06:17:45.186Z</time>
      </trkpt>
      <trkpt lat="47.79504" lon="6.58624">
        <ele>440.85</ele>
        <time>2025-04-30T06:17:46.793Z</time>
      </trkpt>
      <trkpt lat="47.79505" lon="6.58626">
        <ele>440.71</ele>
        <time>2025-04-30T06:17:48.400Z</time>
      </trkpt>
      <trkpt lat="47.79506" lon="6.58629">
        <ele>440.57</ele>
        <time>2025-04-30T06:17:50.008Z</time>
      </trkpt>
      <trkpt lat="47.79507" lon="6.58632">
        <ele>440.44</ele>
        <time>2025-04-30T06:17:51.616Z</time>
      </trkpt>
      <trkpt lat="47.79509" lon="6.58641">
        <ele>440.31</ele>
        <time>2025-04-30T06:17:53.226Z</time>
      </trkpt>
      <trkpt lat="47.79512" lon="6.58645">
        <ele>440.18</ele>
        <time>2025-04-30T06:17:54.837Z</time>
      </trkpt>
      <trkpt lat="47.79513" lon="6.58649">
        <ele>440.06</ele>
        <time>2025-04-30T06:17:56.448Z</time>
      </trkpt>
      <trkpt lat="47.79514" lon="6.58652">
        <ele>439.93</ele>
        <time>2025-04-30T06:17:58.060Z</time>
      </trkpt>
      <trkpt lat="47.7952" lon="6.58663">
        <ele>439.82</ele>
        <time>2025-04-30T06:17:59.674Z</time>
      </trkpt>
      <trkpt lat="47.79524" lon="6.58666">
        <ele>439.69</ele>
        <time>2025-04-30T06:18:01.289Z</time>
      </trkpt>
      <trkpt lat="47.79528" lon="6.58668">
        <ele>439.56</ele>
        <time>2025-04-30T06:18:02.904Z</time>
      </trkpt>
      <trkpt lat="47.79533" lon="6.58669">
        <ele>439.42</ele>
        <time>2025-04-30T06:18:04.521Z</time>
      </trkpt>
      <trkpt lat="47.79537" lon="6.58671">
        <ele>439.29</ele>
        <time>2025-04-30T06:18:06.139Z</time>
      </trkpt>
      <trkpt lat="47.79541" lon="6.58673">
        <ele>439.16</ele>
        <time>2025-04-30T06:18:07.757Z</time>
      </trkpt>
      <trkpt lat="47.79545" lon="6.58674">
        <ele>439.03</ele>
        <time>2025-04-30T06:18:09.376Z</time>
      </trkpt>
      <trkpt lat="47.79553" lon="6.58676">
        <ele>438.9</ele>
        <time>2025-04-30T06:18:10.997Z</time>
      </trkpt>
      <trkpt lat="47.79556" lon="6.58676">
        <ele>438.77</ele>
        <time>2025-04-30T06:18:12.619Z</time>
      </trkpt>
      <trkpt lat="47.7956" lon="6.58676">
        <ele>438.64</ele>
        <time>2025-04-30T06:18:14.241Z</time>
      </trkpt>
      <trkpt lat="47.79564" lon="6.58676">
        <ele>438.51</ele>
        <time>2025-04-30T06:18:15.864Z</time>
      </trkpt>
      <trkpt lat="47.79567" lon="6.58674">
        <ele>438.39</ele>
        <time>2025-04-30T06:18:17.488Z</time>
      </trkpt>
      <trkpt lat="47.79569" lon="6.5867">
        <ele>438.26</ele>
        <time>2025-04-30T06:18:19.113Z</time>
      </trkpt>
      <trkpt lat="47.79572" lon="6.58666">
        <ele>438.13</ele>
        <time>2025-04-30T06:18:20.739Z</time>
      </trkpt>
      <trkpt lat="47.79575" lon="6.58663">
        <ele>438.01</ele>
        <time>2025-04-30T06:18:22.365Z</time>
      </trkpt>
      <trkpt lat="47.79579" lon="6.5866">
        <ele>437.89</ele>
        <time>2025-04-30T06:18:23.992Z</time>
      </trkpt>
      <trkpt lat="47.79583" lon="6.58658">
        <ele>437.77</ele>
        <time>2025-04-30T06:18:25.620Z</time>
      </trkpt>
      <trkpt lat="47.79588" lon="6.58657">
        <ele>437.66</ele>
        <time>2025-04-30T06:18:27.249Z</time>
      </trkpt>
      <trkpt lat="47.79593" lon="6.58656">
        <ele>437.55</ele>
        <time>2025-04-30T06:18:28.879Z</time>
      </trkpt>
      <trkpt lat="47.79597" lon="6.58655">
        <ele>437.45</ele>
        <time>2025-04-30T06:18:30.510Z</time>
      </trkpt>
      <trkpt lat="47.79601" lon="6.58654">
        <ele>437.35</ele>
        <time>2025-04-30T06:18:32.142Z</time>
      </trkpt>
      <trkpt lat="47.79605" lon="6.58653">
        <ele>437.26</ele>
        <time>2025-04-30T06:18:33.775Z</time>
      </trkpt>
      <trkpt lat="47.79609" lon="6.58651">
        <ele>437.18</ele>
        <time>2025-04-30T06:18:35.409Z</time>
      </trkpt>
      <trkpt lat="47.79615" lon="6.58648">
        <ele>437.09</ele>
        <time>2025-04-30T06:18:37.044Z</time>
      </trkpt>
      <trkpt lat="47.79619" lon="6.58647">
        <ele>437.02</ele>
        <time>2025-04-30T06:18:38.680Z</time>
      </trkpt>
      <trkpt lat="47.79622" lon="6.58645">
        <ele>436.96</ele>
        <time>2025-04-30T06:18:40.317Z</time>
      </trkpt>
      <trkpt lat="47.79628" lon="6.58642">
        <ele>436.92</ele>
        <time>2025-04-30T06:18:41.955Z</time>
      </trkpt>
      <trkpt lat="47.79633" lon="6.58635">
        <ele>436.88</ele>
        <time>2025-04-30T06:18:43.595Z</time>
      </trkpt>
      <trkpt lat="47.79636" lon="6.58631">
        <ele>436.85</ele>
        <time>2025-04-30T06:18:45.236Z</time>
      </trkpt>
      <trkpt lat="47.79638" lon="6.58626">
        <ele>436.83</ele>
        <time>2025-04-30T06:18:46.877Z</time>
      </trkpt>
      <trkpt lat="47.79639" lon="6.58622">
        <ele>436.81</ele>
        <time>2025-04-30T06:18:48.519Z</time>
      </trkpt>
      <trkpt lat="47.7964" lon="6.58616">
        <ele>436.8</ele>
        <time>2025-04-30T06:18:50.162Z</time>
      </trkpt>
      <trkpt lat="47.79642" lon="6.5861">
        <ele>436.8</ele>
        <time>2025-04-30T06:18:51.806Z</time>
      </trkpt>
      <trkpt lat="47.79648" lon="6.58593">
        <ele>436.81</ele>
        <time>2025-04-30T06:18:53.453Z</time>
      </trkpt>
      <trkpt lat="47.79652" lon="6.58581">
        <ele>436.84</ele>
        <time>2025-04-30T06:18:55.102Z</time>
      </trkpt>
      <trkpt lat="47.79655" lon="6.58577">
        <ele>436.87</ele>
        <time>2025-04-30T06:18:56.752Z</time>
      </trkpt>
      <trkpt lat="47.79659" lon="6.58573">
        <ele>436.9</ele>
        <time>2025-04-30T06:18:58.403Z</time>
      </trkpt>
      <trkpt lat="47.79662" lon="6.58571">
        <ele>436.94</ele>
        <time>2025-04-30T06:19:00.054Z</time>
      </trkpt>
      <trkpt lat="47.79666" lon="6.5857">
        <ele>436.99</ele>
        <time>2025-04-30T06:19:01.706Z</time>
      </trkpt>
      <trkpt lat="47.7967" lon="6.58568">
        <ele>437.04</ele>
        <time>2025-04-30T06:19:03.359Z</time>
      </trkpt>
      <trkpt lat="47.79674" lon="6.58567">
        <ele>437.1</ele>
        <time>2025-04-30T06:19:05.013Z</time>
      </trkpt>
      <trkpt lat="47.79677" lon="6.58565">
        <ele>437.16</ele>
        <time>2025-04-30T06:19:06.668Z</time>
      </trkpt>
      <trkpt lat="47.79681" lon="6.58564">
        <ele>437.22</ele>
        <time>2025-04-30T06:19:08.323Z</time>
      </trkpt>
      <trkpt lat="47.79684" lon="6.58562">
        <ele>437.28</ele>
        <time>2025-04-30T06:19:09.979Z</time>
      </trkpt>
      <trkpt lat="47.79688" lon="6.58558">
        <ele>437.36</ele>
        <time>2025-04-30T06:19:11.636Z</time>
      </trkpt>
      <trkpt lat="47.79691" lon="6.58555">
        <ele>437.43</ele>
        <time>2025-04-30T06:19:13.294Z</time>
      </trkpt>
      <trkpt lat="47.79694" lon="6.58551">
        <ele>437.51</ele>
        <time>2025-04-30T06:19:14.953Z</time>
      </trkpt>
      <trkpt lat="47.79696" lon="6.58546">
        <ele>437.6</ele>
        <time>2025-04-30T06:19:16.613Z</time>
      </trkpt>
      <trkpt lat="47.79698" lon="6.58541">
        <ele>437.69</ele>
        <time>2025-04-30T06:19:18.273Z</time>
      </trkpt>
      <trkpt lat="47.79699" lon="6.58536">
        <ele>437.79</ele>
        <time>2025-04-30T06:19:19.934Z</time>
      </trkpt>
      <trkpt lat="47.79699" lon="6.5853">
        <ele>437.89</ele>
        <time>2025-04-30T06:19:21.596Z</time>
      </trkpt>
      <trkpt lat="47.79699" lon="6.58525">
        <ele>438</ele>
        <time>2025-04-30T06:19:23.259Z</time>
      </trkpt>
      <trkpt lat="47.79698" lon="6.5852">
        <ele>438.1</ele>
        <time>2025-04-30T06:19:24.923Z</time>
      </trkpt>
      <trkpt lat="47.79698" lon="6.58514">
        <ele>438.21</ele>
        <time>2025-04-30T06:19:26.587Z</time>
      </trkpt>
      <trkpt lat="47.79698" lon="6.58508">
        <ele>438.33</ele>
        <time>2025-04-30T06:19:28.252Z</time>
      </trkpt>
      <trkpt lat="47.79696" lon="6.58489">
        <ele>438.44</ele>
        <time>2025-04-30T06:19:29.920Z</time>
      </trkpt>
      <trkpt lat="47.79696" lon="6.58485">
        <ele>438.57</ele>
        <time>2025-04-30T06:19:31.589Z</time>
      </trkpt>
      <trkpt lat="47.79696" lon="6.5848">
        <ele>438.7</ele>
        <time>2025-04-30T06:19:33.258Z</time>
      </trkpt>
      <trkpt lat="47.79696" lon="6.58476">
        <ele>438.83</ele>
        <time>2025-04-30T06:19:34.928Z</time>
      </trkpt>
      <trkpt lat="47.79697" lon="6.5847">
        <ele>438.97</ele>
        <time>2025-04-30T06:19:36.599Z</time>
      </trkpt>
      <trkpt lat="47.79699" lon="6.58459">
        <ele>439.1</ele>
        <time>2025-04-30T06:19:38.271Z</time>
      </trkpt>
      <trkpt lat="47.79702" lon="6.5845">
        <ele>439.24</ele>
        <time>2025-04-30T06:19:39.945Z</time>
      </trkpt>
      <trkpt lat="47.79704" lon="6.58447">
        <ele>439.38</ele>
        <time>2025-04-30T06:19:41.619Z</time>
      </trkpt>
      <trkpt lat="47.79706" lon="6.58443">
        <ele>439.51</ele>
        <time>2025-04-30T06:19:43.294Z</time>
      </trkpt>
      <trkpt lat="47.79708" lon="6.58438">
        <ele>439.65</ele>
        <time>2025-04-30T06:19:44.970Z</time>
      </trkpt>
      <trkpt lat="47.79711" lon="6.58423">
        <ele>439.78</ele>
        <time>2025-04-30T06:19:46.648Z</time>
      </trkpt>
      <trkpt lat="47.79712" lon="6.58418">
        <ele>439.92</ele>
        <time>2025-04-30T06:19:48.327Z</time>
      </trkpt>
      <trkpt lat="47.79714" lon="6.58413">
        <ele>440.05</ele>
        <time>2025-04-30T06:19:50.007Z</time>
      </trkpt>
      <trkpt lat="47.79715" lon="6.58397">
        <ele>440.17</ele>
        <time>2025-04-30T06:19:51.689Z</time>
      </trkpt>
      <trkpt lat="47.79714" lon="6.58387">
        <ele>440.3</ele>
        <time>2025-04-30T06:19:53.373Z</time>
      </trkpt>
      <trkpt lat="47.7971" lon="6.5838">
        <ele>440.43</ele>
        <time>2025-04-30T06:19:55.058Z</time>
      </trkpt>
      <trkpt lat="47.79707" lon="6.5838">
        <ele>440.54</ele>
        <time>2025-04-30T06:19:56.744Z</time>
      </trkpt>
      <trkpt lat="47.79704" lon="6.58379">
        <ele>440.64</ele>
        <time>2025-04-30T06:19:58.430Z</time>
      </trkpt>
      <trkpt lat="47.79702" lon="6.58375">
        <ele>440.74</ele>
        <time>2025-04-30T06:20:00.117Z</time>
      </trkpt>
      <trkpt lat="47.79702" lon="6.58371">
        <ele>440.82</ele>
        <time>2025-04-30T06:20:01.804Z</time>
      </trkpt>
      <trkpt lat="47.79703" lon="6.58367">
        <ele>440.89</ele>
        <time>2025-04-30T06:20:03.492Z</time>
      </trkpt>
      <trkpt lat="47.79704" lon="6.58362">
        <ele>440.95</ele>
        <time>2025-04-30T06:20:05.181Z</time>
      </trkpt>
      <trkpt lat="47.79706" lon="6.58358">
        <ele>440.99</ele>
        <time>2025-04-30T06:20:06.870Z</time>
      </trkpt>
      <trkpt lat="47.79707" lon="6.58353">
        <ele>441.01</ele>
        <time>2025-04-30T06:20:08.560Z</time>
      </trkpt>
      <trkpt lat="47.79721" lon="6.58315">
        <ele>441.03</ele>
        <time>2025-04-30T06:20:10.256Z</time>
      </trkpt>
      <trkpt lat="47.79724" lon="6.58309">
        <ele>441.01</ele>
        <time>2025-04-30T06:20:11.953Z</time>
      </trkpt>
      <trkpt lat="47.79736" lon="6.58286">
        <ele>440.96</ele>
        <time>2025-04-30T06:20:13.655Z</time>
      </trkpt>
      <trkpt lat="47.7974" lon="6.58281">
        <ele>440.91</ele>
        <time>2025-04-30T06:20:15.358Z</time>
      </trkpt>
      <trkpt lat="47.79746" lon="6.58272">
        <ele>440.82</ele>
        <time>2025-04-30T06:20:17.063Z</time>
      </trkpt>
      <trkpt lat="47.79748" lon="6.58267">
        <ele>440.7</ele>
        <time>2025-04-30T06:20:18.769Z</time>
      </trkpt>
      <trkpt lat="47.7975" lon="6.58262">
        <ele>440.56</ele>
        <time>2025-04-30T06:20:20.475Z</time>
      </trkpt>
      <trkpt lat="47.79751" lon="6.58257">
        <ele>440.4</ele>
        <time>2025-04-30T06:20:22.182Z</time>
      </trkpt>
      <trkpt lat="47.79753" lon="6.58252">
        <ele>440.21</ele>
        <time>2025-04-30T06:20:23.890Z</time>
      </trkpt>
      <trkpt lat="47.79754" lon="6.58248">
        <ele>439.99</ele>
        <time>2025-04-30T06:20:25.599Z</time>
      </trkpt>
      <trkpt lat="47.79756" lon="6.58244">
        <ele>439.74</ele>
        <time>2025-04-30T06:20:27.308Z</time>
      </trkpt>
      <trkpt lat="47.79758" lon="6.5824">
        <ele>439.45</ele>
        <time>2025-04-30T06:20:29.018Z</time>
      </trkpt>
      <trkpt lat="47.79759" lon="6.58236">
        <ele>439.14</ele>
        <time>2025-04-30T06:20:30.729Z</time>
      </trkpt>
      <trkpt lat="47.79761" lon="6.58231">
        <ele>438.8</ele>
        <time>2025-04-30T06:20:32.440Z</time>
      </trkpt>
      <trkpt lat="47.79764" lon="6.5822">
        <ele>438.44</ele>
        <time>2025-04-30T06:20:34.153Z</time>
      </trkpt>
      <trkpt lat="47.79766" lon="6.5821">
        <ele>438.04</ele>
        <time>2025-04-30T06:20:35.868Z</time>
      </trkpt>
      <trkpt lat="47.79768" lon="6.58206">
        <ele>437.6</ele>
        <time>2025-04-30T06:20:37.583Z</time>
      </trkpt>
      <trkpt lat="47.7977" lon="6.58201">
        <ele>437.13</ele>
        <time>2025-04-30T06:20:39.299Z</time>
      </trkpt>
      <trkpt lat="47.79772" lon="6.58195">
        <ele>436.63</ele>
        <time>2025-04-30T06:20:41.016Z</time>
      </trkpt>
      <trkpt lat="47.79776" lon="6.58181">
        <ele>436.1</ele>
        <time>2025-04-30T06:20:42.735Z</time>
      </trkpt>
      <trkpt lat="47.79778" lon="6.58177">
        <ele>435.53</ele>
        <time>2025-04-30T06:20:44.455Z</time>
      </trkpt>
      <trkpt lat="47.7978" lon="6.58172">
        <ele>434.94</ele>
        <time>2025-04-30T06:20:46.176Z</time>
      </trkpt>
      <trkpt lat="47.79783" lon="6.58166">
        <ele>434.32</ele>
        <time>2025-04-30T06:20:47.898Z</time>
      </trkpt>
      <trkpt lat="47.79792" lon="6.58141">
        <ele>433.55</ele>
        <time>2025-04-30T06:20:49.624Z</time>
      </trkpt>
      <trkpt lat="47.79795" lon="6.58137">
        <ele>432.88</ele>
        <time>2025-04-30T06:20:51.351Z</time>
      </trkpt>
      <trkpt lat="47.79798" lon="6.58132">
        <ele>432.18</ele>
        <time>2025-04-30T06:20:53.079Z</time>
      </trkpt>
      <trkpt lat="47.7981" lon="6.58113">
        <ele>431.4</ele>
        <time>2025-04-30T06:20:54.811Z</time>
      </trkpt>
      <trkpt lat="47.79813" lon="6.58108">
        <ele>430.67</ele>
        <time>2025-04-30T06:20:56.544Z</time>
      </trkpt>
      <trkpt lat="47.79823" lon="6.58099">
        <ele>429.92</ele>
        <time>2025-04-30T06:20:58.279Z</time>
      </trkpt>
      <trkpt lat="47.79829" lon="6.58095">
        <ele>429.21</ele>
        <time>2025-04-30T06:21:00.016Z</time>
      </trkpt>
      <trkpt lat="47.79836" lon="6.58093">
        <ele>428.5</ele>
        <time>2025-04-30T06:21:01.754Z</time>
      </trkpt>
      <trkpt lat="47.79842" lon="6.5809">
        <ele>427.79</ele>
        <time>2025-04-30T06:21:03.494Z</time>
      </trkpt>
      <trkpt lat="47.79848" lon="6.58086">
        <ele>427.06</ele>
        <time>2025-04-30T06:21:05.235Z</time>
      </trkpt>
      <trkpt lat="47.79853" lon="6.58083">
        <ele>426.33</ele>
        <time>2025-04-30T06:21:06.977Z</time>
      </trkpt>
      <trkpt lat="47.79864" lon="6.58077">
        <ele>425.59</ele>
        <time>2025-04-30T06:21:08.722Z</time>
      </trkpt>
      <trkpt lat="47.7987" lon="6.58071">
        <ele>424.86</ele>
        <time>2025-04-30T06:21:10.468Z</time>
      </trkpt>
      <trkpt lat="47.79876" lon="6.58065">
        <ele>424.15</ele>
        <time>2025-04-30T06:21:12.216Z</time>
      </trkpt>
      <trkpt lat="47.79881" lon="6.58059">
        <ele>423.45</ele>
        <time>2025-04-30T06:21:13.965Z</time>
      </trkpt>
      <trkpt lat="47.79888" lon="6.5805">
        <ele>422.77</ele>
        <time>2025-04-30T06:21:15.716Z</time>
      </trkpt>
      <trkpt lat="47.79909" lon="6.58028">
        <ele>422.06</ele>
        <time>2025-04-30T06:21:17.473Z</time>
      </trkpt>
      <trkpt lat="47.79922" lon="6.58015">
        <ele>421.45</ele>
        <time>2025-04-30T06:21:19.233Z</time>
      </trkpt>
      <trkpt lat="47.79928" lon="6.58007">
        <ele>420.88</ele>
        <time>2025-04-30T06:21:20.995Z</time>
      </trkpt>
      <trkpt lat="47.79934" lon="6.58">
        <ele>420.34</ele>
        <time>2025-04-30T06:21:22.758Z</time>
      </trkpt>
      <trkpt lat="47.7994" lon="6.57995">
        <ele>419.83</ele>
        <time>2025-04-30T06:21:24.523Z</time>
      </trkpt>
      <trkpt lat="47.79945" lon="6.57991">
        <ele>419.36</ele>
        <time>2025-04-30T06:21:26.289Z</time>
      </trkpt>
      <trkpt lat="47.7995" lon="6.57991">
        <ele>418.92</ele>
        <time>2025-04-30T06:21:28.056Z</time>
      </trkpt>
      <trkpt lat="47.79953" lon="6.57993">
        <ele>418.5</ele>
        <time>2025-04-30T06:21:29.824Z</time>
      </trkpt>
      <trkpt lat="47.79956" lon="6.57998">
        <ele>418.12</ele>
        <time>2025-04-30T06:21:31.593Z</time>
      </trkpt>
      <trkpt lat="47.79958" lon="6.58004">
        <ele>417.77</ele>
        <time>2025-04-30T06:21:33.363Z</time>
      </trkpt>
      <trkpt lat="47.79961" lon="6.5801">
        <ele>417.45</ele>
        <time>2025-04-30T06:21:35.134Z</time>
      </trkpt>
      <trkpt lat="47.79967" lon="6.58022">
        <ele>417.16</ele>
        <time>2025-04-30T06:21:36.907Z</time>
      </trkpt>
      <trkpt lat="47.79972" lon="6.58033">
        <ele>416.92</ele>
        <time>2025-04-30T06:21:38.682Z</time>
      </trkpt>
      <trkpt lat="47.79977" lon="6.58043">
        <ele>416.72</ele>
        <time>2025-04-30T06:21:40.459Z</time>
      </trkpt>
      <trkpt lat="47.79981" lon="6.58047">
        <ele>416.55</ele>
        <time>2025-04-30T06:21:42.237Z</time>
      </trkpt>
      <trkpt lat="47.79985" lon="6.58049">
        <ele>416.41</ele>
        <time>2025-04-30T06:21:44.016Z</time>
      </trkpt>
      <trkpt lat="47.7999" lon="6.58049">
        <ele>416.31</ele>
        <time>2025-04-30T06:21:45.796Z</time>
      </trkpt>
      <trkpt lat="47.79994" lon="6.58049">
        <ele>416.25</ele>
        <time>2025-04-30T06:21:47.577Z</time>
      </trkpt>
      <trkpt lat="47.79999" lon="6.58051">
        <ele>416.22</ele>
        <time>2025-04-30T06:21:49.359Z</time>
      </trkpt>
      <trkpt lat="47.80002" lon="6.58056">
        <ele>416.23</ele>
        <time>2025-04-30T06:21:51.141Z</time>
      </trkpt>
      <trkpt lat="47.80003" lon="6.58063">
        <ele>416.28</ele>
        <time>2025-04-30T06:21:52.925Z</time>
      </trkpt>
      <trkpt lat="47.80003" lon="6.58069">
        <ele>416.36</ele>
        <time>2025-04-30T06:21:54.709Z</time>
      </trkpt>
      <trkpt lat="47.80006" lon="6.5809">
        <ele>416.47</ele>
        <time>2025-04-30T06:21:56.496Z</time>
      </trkpt>
      <trkpt lat="47.80007" lon="6.58097">
        <ele>416.61</ele>
        <time>2025-04-30T06:21:58.285Z</time>
      </trkpt>
      <trkpt lat="47.80025" lon="6.58152">
        <ele>416.81</ele>
        <time>2025-04-30T06:22:00.082Z</time>
      </trkpt>
      <trkpt lat="47.80028" lon="6.58165">
        <ele>417.02</ele>
        <time>2025-04-30T06:22:01.881Z</time>
      </trkpt>
      <trkpt lat="47.80029" lon="6.58172">
        <ele>417.27</ele>
        <time>2025-04-30T06:22:03.681Z</time>
      </trkpt>
      <trkpt lat="47.80032" lon="6.58186">
        <ele>417.55</ele>
        <time>2025-04-30T06:22:05.484Z</time>
      </trkpt>
      <trkpt lat="47.80035" lon="6.58211">
        <ele>417.87</ele>
        <time>2025-04-30T06:22:07.290Z</time>
      </trkpt>
      <trkpt lat="47.80037" lon="6.58217">
        <ele>418.2</ele>
        <time>2025-04-30T06:22:09.097Z</time>
      </trkpt>
      <trkpt lat="47.80039" lon="6.58224">
        <ele>418.56</ele>
        <time>2025-04-30T06:22:10.905Z</time>
      </trkpt>
      <trkpt lat="47.80041" lon="6.58231">
        <ele>418.96</ele>
        <time>2025-04-30T06:22:12.714Z</time>
      </trkpt>
      <trkpt lat="47.80043" lon="6.58236">
        <ele>419.37</ele>
        <time>2025-04-30T06:22:14.524Z</time>
      </trkpt>
      <trkpt lat="47.80045" lon="6.58242">
        <ele>419.81</ele>
        <time>2025-04-30T06:22:16.335Z</time>
      </trkpt>
      <trkpt lat="47.80047" lon="6.58248">
        <ele>420.27</ele>
        <time>2025-04-30T06:22:18.147Z</time>
      </trkpt>
      <trkpt lat="47.80048" lon="6.58254">
        <ele>420.75</ele>
        <time>2025-04-30T06:22:19.960Z</time>
      </trkpt>
      <trkpt lat="47.80048" lon="6.5826">
        <ele>421.24</ele>
        <time>2025-04-30T06:22:21.774Z</time>
      </trkpt>
      <trkpt lat="47.80048" lon="6.58265">
        <ele>421.75</ele>
        <time>2025-04-30T06:22:23.589Z</time>
      </trkpt>
      <trkpt lat="47.80048" lon="6.5827">
        <ele>422.28</ele>
        <time>2025-04-30T06:22:25.404Z</time>
      </trkpt>
      <trkpt lat="47.80049" lon="6.58275">
        <ele>422.82</ele>
        <time>2025-04-30T06:22:27.220Z</time>
      </trkpt>
      <trkpt lat="47.80049" lon="6.58281">
        <ele>423.38</ele>
        <time>2025-04-30T06:22:29.037Z</time>
      </trkpt>
      <trkpt lat="47.80049" lon="6.58287">
        <ele>423.94</ele>
        <time>2025-04-30T06:22:30.855Z</time>
      </trkpt>
      <trkpt lat="47.80049" lon="6.58292">
        <ele>424.5</ele>
        <time>2025-04-30T06:22:32.674Z</time>
      </trkpt>
      <trkpt lat="47.8005" lon="6.58298">
        <ele>425.08</ele>
        <time>2025-04-30T06:22:34.493Z</time>
      </trkpt>
      <trkpt lat="47.80049" lon="6.58303">
        <ele>425.66</ele>
        <time>2025-04-30T06:22:36.313Z</time>
      </trkpt>
      <trkpt lat="47.80049" lon="6.58309">
        <ele>426.24</ele>
        <time>2025-04-30T06:22:38.134Z</time>
      </trkpt>
      <trkpt lat="47.80049" lon="6.58315">
        <ele>426.83</ele>
        <time>2025-04-30T06:22:39.956Z</time>
      </trkpt>
      <trkpt lat="47.80049" lon="6.58321">
        <ele>427.41</ele>
        <time>2025-04-30T06:22:41.779Z</time>
      </trkpt>
      <trkpt lat="47.80049" lon="6.58328">
        <ele>428</ele>
        <time>2025-04-30T06:22:43.603Z</time>
      </trkpt>
      <trkpt lat="47.80049" lon="6.58335">
        <ele>428.59</ele>
        <time>2025-04-30T06:22:45.428Z</time>
      </trkpt>
      <trkpt lat="47.8005" lon="6.58342">
        <ele>429.17</ele>
        <time>2025-04-30T06:22:47.254Z</time>
      </trkpt>
      <trkpt lat="47.8005" lon="6.58348">
        <ele>429.75</ele>
        <time>2025-04-30T06:22:49.081Z</time>
      </trkpt>
      <trkpt lat="47.80051" lon="6.58355">
        <ele>430.33</ele>
        <time>2025-04-30T06:22:50.909Z</time>
      </trkpt>
      <trkpt lat="47.80051" lon="6.58363">
        <ele>430.92</ele>
        <time>2025-04-30T06:22:52.738Z</time>
      </trkpt>
      <trkpt lat="47.80051" lon="6.5837">
        <ele>431.47</ele>
        <time>2025-04-30T06:22:54.568Z</time>
      </trkpt>
      <trkpt lat="47.8005" lon="6.58376">
        <ele>432.01</ele>
        <time>2025-04-30T06:22:56.399Z</time>
      </trkpt>
      <trkpt lat="47.80049" lon="6.58381">
        <ele>432.54</ele>
        <time>2025-04-30T06:22:58.230Z</time>
      </trkpt>
      <trkpt lat="47.80049" lon="6.58386">
        <ele>433.06</ele>
        <time>2025-04-30T06:23:00.062Z</time>
      </trkpt>
      <trkpt lat="47.80048" lon="6.58391">
        <ele>433.58</ele>
        <time>2025-04-30T06:23:01.895Z</time>
      </trkpt>
      <trkpt lat="47.80048" lon="6.58396">
        <ele>434.07</ele>
        <time>2025-04-30T06:23:03.729Z</time>
      </trkpt>
      <trkpt lat="47.80047" lon="6.584">
        <ele>434.54</ele>
        <time>2025-04-30T06:23:05.563Z</time>
      </trkpt>
      <trkpt lat="47.80046" lon="6.58405">
        <ele>435.01</ele>
        <time>2025-04-30T06:23:07.398Z</time>
      </trkpt>
      <trkpt lat="47.80046" lon="6.5841">
        <ele>435.46</ele>
        <time>2025-04-30T06:23:09.234Z</time>
      </trkpt>
      <trkpt lat="47.80046" lon="6.58415">
        <ele>435.89</ele>
        <time>2025-04-30T06:23:11.070Z</time>
      </trkpt>
      <trkpt lat="47.80047" lon="6.58419">
        <ele>436.31</ele>
        <time>2025-04-30T06:23:12.907Z</time>
      </trkpt>
      <trkpt lat="47.80048" lon="6.58429">
        <ele>436.7</ele>
        <time>2025-04-30T06:23:14.745Z</time>
      </trkpt>
      <trkpt lat="47.80049" lon="6.58434">
        <ele>437.08</ele>
        <time>2025-04-30T06:23:16.584Z</time>
      </trkpt>
      <trkpt lat="47.8005" lon="6.5844">
        <ele>437.44</ele>
        <time>2025-04-30T06:23:18.424Z</time>
      </trkpt>
      <trkpt lat="47.80051" lon="6.58445">
        <ele>437.79</ele>
        <time>2025-04-30T06:23:20.265Z</time>
      </trkpt>
      <trkpt lat="47.80052" lon="6.58451">
        <ele>438.12</ele>
        <time>2025-04-30T06:23:22.107Z</time>
      </trkpt>
      <trkpt lat="47.80054" lon="6.58456">
        <ele>438.43</ele>
        <time>2025-04-30T06:23:23.950Z</time>
      </trkpt>
      <trkpt lat="47.80055" lon="6.58461">
        <ele>438.73</ele>
        <time>2025-04-30T06:23:25.793Z</time>
      </trkpt>
      <trkpt lat="47.80057" lon="6.58466">
        <ele>439.01</ele>
        <time>2025-04-30T06:23:27.637Z</time>
      </trkpt>
      <trkpt lat="47.80059" lon="6.58471">
        <ele>439.27</ele>
        <time>2025-04-30T06:23:29.482Z</time>
      </trkpt>
      <trkpt lat="47.80061" lon="6.58476">
        <ele>439.51</ele>
        <time>2025-04-30T06:23:31.328Z</time>
      </trkpt>
      <trkpt lat="47.80062" lon="6.58481">
        <ele>439.75</ele>
        <time>2025-04-30T06:23:33.175Z</time>
      </trkpt>
      <trkpt lat="47.80064" lon="6.58487">
        <ele>439.97</ele>
        <time>2025-04-30T06:23:35.023Z</time>
      </trkpt>
      <trkpt lat="47.80067" lon="6.58493">
        <ele>440.15</ele>
        <time>2025-04-30T06:23:36.872Z</time>
      </trkpt>
      <trkpt lat="47.80069" lon="6.58497">
        <ele>440.33</ele>
        <time>2025-04-30T06:23:38.721Z</time>
      </trkpt>
      <trkpt lat="47.80071" lon="6.58503">
        <ele>440.5</ele>
        <time>2025-04-30T06:23:40.571Z</time>
      </trkpt>
      <trkpt lat="47.80072" lon="6.58508">
        <ele>440.65</ele>
        <time>2025-04-30T06:23:42.422Z</time>
      </trkpt>
      <trkpt lat="47.80074" lon="6.58513">
        <ele>440.78</ele>
        <time>2025-04-30T06:23:44.274Z</time>
      </trkpt>
      <trkpt lat="47.80076" lon="6.58518">
        <ele>440.9</ele>
        <time>2025-04-30T06:23:46.127Z</time>
      </trkpt>
      <trkpt lat="47.80077" lon="6.58524">
        <ele>441</ele>
        <time>2025-04-30T06:23:47.981Z</time>
      </trkpt>
      <trkpt lat="47.80079" lon="6.58529">
        <ele>441.09</ele>
        <time>2025-04-30T06:23:49.836Z</time>
      </trkpt>
      <trkpt lat="47.8008" lon="6.58534">
        <ele>441.16</ele>
        <time>2025-04-30T06:23:51.691Z</time>
      </trkpt>
      <trkpt lat="47.80083" lon="6.58545">
        <ele>441.23</ele>
        <time>2025-04-30T06:23:53.548Z</time>
      </trkpt>
      <trkpt lat="47.80084" lon="6.5855">
        <ele>441.28</ele>
        <time>2025-04-30T06:23:55.406Z</time>
      </trkpt>
      <trkpt lat="47.80086" lon="6.58557">
        <ele>441.31</ele>
        <time>2025-04-30T06:23:57.265Z</time>
      </trkpt>
      <trkpt lat="47.80087" lon="6.58562">
        <ele>441.34</ele>
        <time>2025-04-30T06:23:59.124Z</time>
      </trkpt>
      <trkpt lat="47.80088" lon="6.58569">
        <ele>441.36</ele>
        <time>2025-04-30T06:24:00.985Z</time>
      </trkpt>
      <trkpt lat="47.80089" lon="6.58573">
        <ele>441.37</ele>
        <time>2025-04-30T06:24:02.846Z</time>
      </trkpt>
      <trkpt lat="47.8009" lon="6.58579">
        <ele>441.37</ele>
        <time>2025-04-30T06:24:04.708Z</time>
      </trkpt>
      <trkpt lat="47.80092" lon="6.58585">
        <ele>441.36</ele>
        <time>2025-04-30T06:24:06.571Z</time>
      </trkpt>
      <trkpt lat="47.80092" lon="6.58589">
        <ele>441.34</ele>
        <time>2025-04-30T06:24:08.435Z</time>
      </trkpt>
      <trkpt lat="47.80094" lon="6.58595">
        <ele>441.31</ele>
        <time>2025-04-30T06:24:10.300Z</time>
      </trkpt>
      <trkpt lat="47.80095" lon="6.586">
        <ele>441.28</ele>
        <time>2025-04-30T06:24:12.165Z</time>
      </trkpt>
      <trkpt lat="47.80096" lon="6.58607">
        <ele>441.24</ele>
        <time>2025-04-30T06:24:14.031Z</time>
      </trkpt>
      <trkpt lat="47.80097" lon="6.58612">
        <ele>441.2</ele>
        <time>2025-04-30T06:24:15.898Z</time>
      </trkpt>
      <trkpt lat="47.80098" lon="6.58618">
        <ele>441.15</ele>
        <time>2025-04-30T06:24:17.766Z</time>
      </trkpt>
      <trkpt lat="47.801" lon="6.58625">
        <ele>441.11</ele>
        <time>2025-04-30T06:24:19.635Z</time>
      </trkpt>
      <trkpt lat="47.80101" lon="6.5863">
        <ele>441.06</ele>
        <time>2025-04-30T06:24:21.505Z</time>
      </trkpt>
      <trkpt lat="47.80102" lon="6.58635">
        <ele>441.01</ele>
        <time>2025-04-30T06:24:23.376Z</time>
      </trkpt>
      <trkpt lat="47.80104" lon="6.5864">
        <ele>440.95</ele>
        <time>2025-04-30T06:24:25.247Z</time>
      </trkpt>
      <trkpt lat="47.80105" lon="6.58646">
        <ele>440.9</ele>
        <time>2025-04-30T06:24:27.119Z</time>
      </trkpt>
      <trkpt lat="47.80109" lon="6.58657">
        <ele>440.86</ele>
        <time>2025-04-30T06:24:28.993Z</time>
      </trkpt>
      <trkpt lat="47.80111" lon="6.58662">
        <ele>440.8</ele>
        <time>2025-04-30T06:24:30.868Z</time>
      </trkpt>
      <trkpt lat="47.80113" lon="6.58667">
        <ele>440.74</ele>
        <time>2025-04-30T06:24:32.744Z</time>
      </trkpt>
      <trkpt lat="47.80115" lon="6.58672">
        <ele>440.68</ele>
        <time>2025-04-30T06:24:34.621Z</time>
      </trkpt>
      <trkpt lat="47.80118" lon="6.58677">
        <ele>440.63</ele>
        <time>2025-04-30T06:24:36.499Z</time>
      </trkpt>
      <trkpt lat="47.8012" lon="6.58682">
        <ele>440.58</ele>
        <time>2025-04-30T06:24:38.378Z</time>
      </trkpt>
      <trkpt lat="47.80122" lon="6.58687">
        <ele>440.53</ele>
        <time>2025-04-30T06:24:40.257Z</time>
      </trkpt>
      <trkpt lat="47.80123" lon="6.58692">
        <ele>440.49</ele>
        <time>2025-04-30T06:24:42.137Z</time>
      </trkpt>
      <trkpt lat="47.80123" lon="6.58697">
        <ele>440.44</ele>
        <time>2025-04-30T06:24:44.018Z</time>
      </trkpt>
      <trkpt lat="47.80125" lon="6.58702">
        <ele>440.39</ele>
        <time>2025-04-30T06:24:45.900Z</time>
      </trkpt>
      <trkpt lat="47.80126" lon="6.58708">
        <ele>440.33</ele>
        <time>2025-04-30T06:24:47.782Z</time>
      </trkpt>
      <trkpt lat="47.80127" lon="6.58713">
        <ele>440.28</ele>
        <time>2025-04-30T06:24:49.665Z</time>
      </trkpt>
      <trkpt lat="47.80128" lon="6.58719">
        <ele>440.23</ele>
        <time>2025-04-30T06:24:51.549Z</time>
      </trkpt>
      <trkpt lat="47.80129" lon="6.58725">
        <ele>440.18</ele>
        <time>2025-04-30T06:24:53.434Z</time>
      </trkpt>
      <trkpt lat="47.80131" lon="6.58732">
        <ele>440.13</ele>
        <time>2025-04-30T06:24:55.320Z</time>
      </trkpt>
      <trkpt lat="47.80131" lon="6.58741">
        <ele>440.08</ele>
        <time>2025-04-30T06:24:57.207Z</time>
      </trkpt>
      <trkpt lat="47.80131" lon="6.58749">
        <ele>440.04</ele>
        <time>2025-04-30T06:24:59.096Z</time>
      </trkpt>
      <trkpt lat="47.8013" lon="6.58758">
        <ele>440</ele>
        <time>2025-04-30T06:25:00.986Z</time>
      </trkpt>
      <trkpt lat="47.80128" lon="6.58766">
        <ele>439.96</ele>
        <time>2025-04-30T06:25:02.877Z</time>
      </trkpt>
      <trkpt lat="47.80126" lon="6.58774">
        <ele>439.91</ele>
        <time>2025-04-30T06:25:04.769Z</time>
      </trkpt>
      <trkpt lat="47.80124" lon="6.58782">
        <ele>439.86</ele>
        <time>2025-04-30T06:25:06.662Z</time>
      </trkpt>
      <trkpt lat="47.80122" lon="6.58788">
        <ele>439.83</ele>
        <time>2025-04-30T06:25:08.557Z</time>
      </trkpt>
      <trkpt lat="47.8012" lon="6.58795">
        <ele>439.8</ele>
        <time>2025-04-30T06:25:10.453Z</time>
      </trkpt>
      <trkpt lat="47.80116" lon="6.58809">
        <ele>439.78</ele>
        <time>2025-04-30T06:25:12.351Z</time>
      </trkpt>
      <trkpt lat="47.80114" lon="6.58816">
        <ele>439.76</ele>
        <time>2025-04-30T06:25:14.250Z</time>
      </trkpt>
      <trkpt lat="47.80112" lon="6.58824">
        <ele>439.75</ele>
        <time>2025-04-30T06:25:16.150Z</time>
      </trkpt>
      <trkpt lat="47.80109" lon="6.58832">
        <ele>439.74</ele>
        <time>2025-04-30T06:25:18.051Z</time>
      </trkpt>
      <trkpt lat="47.80108" lon="6.5884">
        <ele>439.75</ele>
        <time>2025-04-30T06:25:19.954Z</time>
      </trkpt>
      <trkpt lat="47.80106" lon="6.58848">
        <ele>439.77</ele>
        <time>2025-04-30T06:25:21.858Z</time>
      </trkpt>
      <trkpt lat="47.801" lon="6.589">
        <ele>439.77</ele>
        <time>2025-04-30T06:25:23.769Z</time>
      </trkpt>
      <trkpt lat="47.80095" lon="6.58918">
        <ele>439.79</ele>
        <time>2025-04-30T06:25:25.683Z</time>
      </trkpt>
      <trkpt lat="47.80089" lon="6.58932">
        <ele>439.8</ele>
        <time>2025-04-30T06:25:27.600Z</time>
      </trkpt>
      <trkpt lat="47.80078" lon="6.58951">
        <ele>439.82</ele>
        <time>2025-04-30T06:25:29.520Z</time>
      </trkpt>
      <trkpt lat="47.80079" lon="6.58957">
        <ele>439.86</ele>
        <time>2025-04-30T06:25:31.441Z</time>
      </trkpt>
      <trkpt lat="47.80081" lon="6.58963">
        <ele>439.91</ele>
        <time>2025-04-30T06:25:33.363Z</time>
      </trkpt>
      <trkpt lat="47.80085" lon="6.58966">
        <ele>439.96</ele>
        <time>2025-04-30T06:25:35.286Z</time>
      </trkpt>
      <trkpt lat="47.8009" lon="6.58968">
        <ele>440.03</ele>
        <time>2025-04-30T06:25:37.210Z</time>
      </trkpt>
      <trkpt lat="47.80111" lon="6.58981">
        <ele>440.09</ele>
        <time>2025-04-30T06:25:39.139Z</time>
      </trkpt>
      <trkpt lat="47.80116" lon="6.58984">
        <ele>440.15</ele>
        <time>2025-04-30T06:25:41.069Z</time>
      </trkpt>
      <trkpt lat="47.80121" lon="6.58986">
        <ele>440.23</ele>
        <time>2025-04-30T06:25:43.000Z</time>
      </trkpt>
      <trkpt lat="47.80125" lon="6.58987">
        <ele>440.32</ele>
        <time>2025-04-30T06:25:44.932Z</time>
      </trkpt>
      <trkpt lat="47.8013" lon="6.58987">
        <ele>440.42</ele>
        <time>2025-04-30T06:25:46.865Z</time>
      </trkpt>
      <trkpt lat="47.80134" lon="6.58987">
        <ele>440.52</ele>
        <time>2025-04-30T06:25:48.799Z</time>
      </trkpt>
      <trkpt lat="47.80138" lon="6.58986">
        <ele>440.63</ele>
        <time>2025-04-30T06:25:50.734Z</time>
      </trkpt>
      <trkpt lat="47.80152" lon="6.58988">
        <ele>440.76</ele>
        <time>2025-04-30T06:25:52.672Z</time>
      </trkpt>
      <trkpt lat="47.8016" lon="6.58991">
        <ele>440.89</ele>
        <time>2025-04-30T06:25:54.612Z</time>
      </trkpt>
      <trkpt lat="47.80164" lon="6.58993">
        <ele>441.02</ele>
        <time>2025-04-30T06:25:56.553Z</time>
      </trkpt>
      <trkpt lat="47.80173" lon="6.58998">
        <ele>441.15</ele>
        <time>2025-04-30T06:25:58.496Z</time>
      </trkpt>
      <trkpt lat="47.80177" lon="6.58999">
        <ele>441.29</ele>
        <time>2025-04-30T06:26:00.440Z</time>
      </trkpt>
      <trkpt lat="47.80181" lon="6.58999">
        <ele>441.42</ele>
        <time>2025-04-30T06:26:02.385Z</time>
      </trkpt>
      <trkpt lat="47.80186" lon="6.58999">
        <ele>441.56</ele>
        <time>2025-04-30T06:26:04.330Z</time>
      </trkpt>
      <trkpt lat="47.8019" lon="6.58998">
        <ele>441.7</ele>
        <time>2025-04-30T06:26:06.276Z</time>
      </trkpt>
      <trkpt lat="47.80193" lon="6.58997">
        <ele>441.85</ele>
        <time>2025-04-30T06:26:08.223Z</time>
      </trkpt>
      <trkpt lat="47.80197" lon="6.58996">
        <ele>441.99</ele>
        <time>2025-04-30T06:26:10.171Z</time>
      </trkpt>
      <trkpt lat="47.802" lon="6.58995">
        <ele>442.14</ele>
        <time>2025-04-30T06:26:12.120Z</time>
      </trkpt>
      <trkpt lat="47.80203" lon="6.58995">
        <ele>442.28</ele>
        <time>2025-04-30T06:26:14.069Z</time>
      </trkpt>
      <trkpt lat="47.80206" lon="6.58994">
        <ele>442.42</ele>
        <time>2025-04-30T06:26:16.019Z</time>
      </trkpt>
      <trkpt lat="47.80209" lon="6.58992">
        <ele>442.56</ele>
        <time>2025-04-30T06:26:17.970Z</time>
      </trkpt>
      <trkpt lat="47.80211" lon="6.58991">
        <ele>442.7</ele>
        <time>2025-04-30T06:26:19.921Z</time>
      </trkpt>
      <trkpt lat="47.80214" lon="6.5899">
        <ele>442.85</ele>
        <time>2025-04-30T06:26:21.873Z</time>
      </trkpt>
      <trkpt lat="47.80221" lon="6.58987">
        <ele>442.98</ele>
        <time>2025-04-30T06:26:23.826Z</time>
      </trkpt>
      <trkpt lat="47.8023" lon="6.58983">
        <ele>443.12</ele>
        <time>2025-04-30T06:26:25.781Z</time>
      </trkpt>
      <trkpt lat="47.80241" lon="6.5898">
        <ele>443.26</ele>
        <time>2025-04-30T06:26:27.739Z</time>
      </trkpt>
      <trkpt lat="47.80257" lon="6.58972">
        <ele>443.41</ele>
        <time>2025-04-30T06:26:29.700Z</time>
      </trkpt>
      <trkpt lat="47.8026" lon="6.58971">
        <ele>443.56</ele>
        <time>2025-04-30T06:26:31.662Z</time>
      </trkpt>
      <trkpt lat="47.80265" lon="6.5897">
        <ele>443.71</ele>
        <time>2025-04-30T06:26:33.625Z</time>
      </trkpt>
      <trkpt lat="47.8027" lon="6.58968">
        <ele>443.86</ele>
        <time>2025-04-30T06:26:35.589Z</time>
      </trkpt>
      <trkpt lat="47.80275" lon="6.58967">
        <ele>444.01</ele>
        <time>2025-04-30T06:26:37.554Z</time>
      </trkpt>
      <trkpt lat="47.80279" lon="6.58965">
        <ele>444.16</ele>
        <time>2025-04-30T06:26:39.520Z</time>
      </trkpt>
      <trkpt lat="47.80292" lon="6.58959">
        <ele>444.33</ele>
        <time>2025-04-30T06:26:41.489Z</time>
      </trkpt>
      <trkpt lat="47.80296" lon="6.58956">
        <ele>444.47</ele>
        <time>2025-04-30T06:26:43.459Z</time>
      </trkpt>
      <trkpt lat="47.80299" lon="6.58956">
        <ele>444.61</ele>
        <time>2025-04-30T06:26:45.430Z</time>
      </trkpt>
      <trkpt lat="47.80304" lon="6.58955">
        <ele>444.74</ele>
        <time>2025-04-30T06:26:47.402Z</time>
      </trkpt>
      <trkpt lat="47.80308" lon="6.58956">
        <ele>444.86</ele>
        <time>2025-04-30T06:26:49.375Z</time>
      </trkpt>
      <trkpt lat="47.80312" lon="6.58956">
        <ele>444.98</ele>
        <time>2025-04-30T06:26:51.349Z</time>
      </trkpt>
      <trkpt lat="47.80315" lon="6.58958">
        <ele>445.09</ele>
        <time>2025-04-30T06:26:53.323Z</time>
      </trkpt>
      <trkpt lat="47.80318" lon="6.58962">
        <ele>445.19</ele>
        <time>2025-04-30T06:26:55.298Z</time>
      </trkpt>
      <trkpt lat="47.80321" lon="6.58968">
        <ele>445.29</ele>
        <time>2025-04-30T06:26:57.274Z</time>
      </trkpt>
      <trkpt lat="47.80323" lon="6.58973">
        <ele>445.38</ele>
        <time>2025-04-30T06:26:59.251Z</time>
      </trkpt>
      <trkpt lat="47.80326" lon="6.58978">
        <ele>445.46</ele>
        <time>2025-04-30T06:27:01.229Z</time>
      </trkpt>
      <trkpt lat="47.80327" lon="6.58982">
        <ele>445.54</ele>
        <time>2025-04-30T06:27:03.208Z</time>
      </trkpt>
      <trkpt lat="47.80329" lon="6.58987">
        <ele>445.61</ele>
        <time>2025-04-30T06:27:05.187Z</time>
      </trkpt>
      <trkpt lat="47.80332" lon="6.58992">
        <ele>445.68</ele>
        <time>2025-04-30T06:27:07.167Z</time>
      </trkpt>
      <trkpt lat="47.80334" lon="6.58997">
        <ele>445.74</ele>
        <time>2025-04-30T06:27:09.148Z</time>
      </trkpt>
      <trkpt lat="47.80349" lon="6.59023">
        <ele>445.78</ele>
        <time>2025-04-30T06:27:11.134Z</time>
      </trkpt>
      <trkpt lat="47.80352" lon="6.59028">
        <ele>445.82</ele>
        <time>2025-04-30T06:27:13.121Z</time>
      </trkpt>
      <trkpt lat="47.80361" lon="6.59044">
        <ele>445.84</ele>
        <time>2025-04-30T06:27:15.111Z</time>
      </trkpt>
      <trkpt lat="47.80363" lon="6.59048">
        <ele>445.86</ele>
        <time>2025-04-30T06:27:17.102Z</time>
      </trkpt>
      <trkpt lat="47.80381" lon="6.59072">
        <ele>445.83</ele>
        <time>2025-04-30T06:27:19.098Z</time>
      </trkpt>
      <trkpt lat="47.80389" lon="6.59079">
        <ele>445.83</ele>
        <time>2025-04-30T06:27:21.096Z</time>
      </trkpt>
      <trkpt lat="47.80392" lon="6.59081">
        <ele>445.85</ele>
        <time>2025-04-30T06:27:23.095Z</time>
      </trkpt>
      <trkpt lat="47.80396" lon="6.59082">
        <ele>445.87</ele>
        <time>2025-04-30T06:27:25.095Z</time>
      </trkpt>
      <trkpt lat="47.804" lon="6.59083">
        <ele>445.89</ele>
        <time>2025-04-30T06:27:27.096Z</time>
      </trkpt>
      <trkpt lat="47.80408" lon="6.59083">
        <ele>445.91</ele>
        <time>2025-04-30T06:27:29.098Z</time>
      </trkpt>
      <trkpt lat="47.80411" lon="6.59084">
        <ele>445.93</ele>
        <time>2025-04-30T06:27:31.101Z</time>
      </trkpt>
      <trkpt lat="47.80415" lon="6.59083">
        <ele>445.96</ele>
        <time>2025-04-30T06:27:33.105Z</time>
      </trkpt>
      <trkpt lat="47.80424" lon="6.59075">
        <ele>446</ele>
        <time>2025-04-30T06:27:35.111Z</time>
      </trkpt>
      <trkpt lat="47.80429" lon="6.59071">
        <ele>446.05</ele>
        <time>2025-04-30T06:27:37.118Z</time>
      </trkpt>
      <trkpt lat="47.80433" lon="6.59067">
        <ele>446.11</ele>
        <time>2025-04-30T06:27:39.126Z</time>
      </trkpt>
      <trkpt lat="47.80438" lon="6.59064">
        <ele>446.15</ele>
        <time>2025-04-30T06:27:41.135Z</time>
      </trkpt>
      <trkpt lat="47.80457" lon="6.59062">
        <ele>446.22</ele>
        <time>2025-04-30T06:27:43.148Z</time>
      </trkpt>
      <trkpt lat="47.80471" lon="6.5906">
        <ele>446.29</ele>
        <time>2025-04-30T06:27:45.165Z</time>
      </trkpt>
      <trkpt lat="47.80474" lon="6.59059">
        <ele>446.34</ele>
        <time>2025-04-30T06:27:47.182Z</time>
      </trkpt>
      <trkpt lat="47.80485" lon="6.59045">
        <ele>446.41</ele>
        <time>2025-04-30T06:27:49.202Z</time>
      </trkpt>
      <trkpt lat="47.80488" lon="6.5904">
        <ele>446.46</ele>
        <time>2025-04-30T06:27:51.223Z</time>
      </trkpt>
      <trkpt lat="47.80491" lon="6.59035">
        <ele>446.5</ele>
        <time>2025-04-30T06:27:53.245Z</time>
      </trkpt>
      <trkpt lat="47.80493" lon="6.59029">
        <ele>446.55</ele>
        <time>2025-04-30T06:27:55.268Z</time>
      </trkpt>
      <trkpt lat="47.80494" lon="6.59025">
        <ele>446.59</ele>
        <time>2025-04-30T06:27:57.292Z</time>
      </trkpt>
      <trkpt lat="47.80496" lon="6.5902">
        <ele>446.63</ele>
        <time>2025-04-30T06:27:59.317Z</time>
      </trkpt>
      <trkpt lat="47.80499" lon="6.59017">
        <ele>446.66</ele>
        <time>2025-04-30T06:28:01.342Z</time>
      </trkpt>
      <trkpt lat="47.80505" lon="6.59013">
        <ele>446.68</ele>
        <time>2025-04-30T06:28:03.369Z</time>
      </trkpt>
      <trkpt lat="47.80509" lon="6.59012">
        <ele>446.7</ele>
        <time>2025-04-30T06:28:05.397Z</time>
      </trkpt>
      <trkpt lat="47.80512" lon="6.59012">
        <ele>446.72</ele>
        <time>2025-04-30T06:28:07.425Z</time>
      </trkpt>
      <trkpt lat="47.80516" lon="6.59013">
        <ele>446.75</ele>
        <time>2025-04-30T06:28:09.454Z</time>
      </trkpt>
      <trkpt lat="47.8052" lon="6.59013">
        <ele>446.77</ele>
        <time>2025-04-30T06:28:11.484Z</time>
      </trkpt>
      <trkpt lat="47.80524" lon="6.59013">
        <ele>446.8</ele>
        <time>2025-04-30T06:28:13.515Z</time>
      </trkpt>
      <trkpt lat="47.80533" lon="6.59008">
        <ele>446.81</ele>
        <time>2025-04-30T06:28:15.548Z</time>
      </trkpt>
      <trkpt lat="47.80536" lon="6.59006">
        <ele>446.84</ele>
        <time>2025-04-30T06:28:17.582Z</time>
      </trkpt>
      <trkpt lat="47.8054" lon="6.59003">
        <ele>446.87</ele>
        <time>2025-04-30T06:28:19.617Z</time>
      </trkpt>
      <trkpt lat="47.80548" lon="6.58992">
        <ele>446.88</ele>
        <time>2025-04-30T06:28:21.654Z</time>
      </trkpt>
      <trkpt lat="47.80563" lon="6.58971">
        <ele>446.87</ele>
        <time>2025-04-30T06:28:23.696Z</time>
      </trkpt>
      <trkpt lat="47.80569" lon="6.5896">
        <ele>446.91</ele>
        <time>2025-04-30T06:28:25.740Z</time>
      </trkpt>
      <trkpt lat="47.80572" lon="6.58959">
        <ele>446.96</ele>
        <time>2025-04-30T06:28:27.784Z</time>
      </trkpt>
      <trkpt lat="47.80574" lon="6.58959">
        <ele>447.01</ele>
        <time>2025-04-30T06:28:29.829Z</time>
      </trkpt>
      <trkpt lat="47.80575" lon="6.5896">
        <ele>447.07</ele>
        <time>2025-04-30T06:28:31.874Z</time>
      </trkpt>
      <trkpt lat="47.80576" lon="6.58961">
        <ele>447.13</ele>
        <time>2025-04-30T06:28:33.919Z</time>
      </trkpt>
      <trkpt lat="47.80582" lon="6.58967">
        <ele>447.21</ele>
        <time>2025-04-30T06:28:35.966Z</time>
      </trkpt>
      <trkpt lat="47.80584" lon="6.58969">
        <ele>447.28</ele>
        <time>2025-04-30T06:28:38.013Z</time>
      </trkpt>
      <trkpt lat="47.80586" lon="6.58972">
        <ele>447.35</ele>
        <time>2025-04-30T06:28:40.061Z</time>
      </trkpt>
      <trkpt lat="47.80589" lon="6.58976">
        <ele>447.44</ele>
        <time>2025-04-30T06:28:42.110Z</time>
      </trkpt>
      <trkpt lat="47.80596" lon="6.5899">
        <ele>447.53</ele>
        <time>2025-04-30T06:28:44.161Z</time>
      </trkpt>
      <trkpt lat="47.806" lon="6.58997">
        <ele>447.61</ele>
        <time>2025-04-30T06:28:46.213Z</time>
      </trkpt>
      <trkpt lat="47.80606" lon="6.59007">
        <ele>447.7</ele>
        <time>2025-04-30T06:28:48.267Z</time>
      </trkpt>
      <trkpt lat="47.80609" lon="6.59012">
        <ele>447.79</ele>
        <time>2025-04-30T06:28:50.322Z</time>
      </trkpt>
      <trkpt lat="47.80612" lon="6.59016">
        <ele>447.88</ele>
        <time>2025-04-30T06:28:52.378Z</time>
      </trkpt>
      <trkpt lat="47.80614" lon="6.59019">
        <ele>447.97</ele>
        <time>2025-04-30T06:28:54.435Z</time>
      </trkpt>
      <trkpt lat="47.80618" lon="6.59025">
        <ele>448.06</ele>
        <time>2025-04-30T06:28:56.493Z</time>
      </trkpt>
      <trkpt lat="47.80621" lon="6.59029">
        <ele>448.15</ele>
        <time>2025-04-30T06:28:58.552Z</time>
      </trkpt>
      <trkpt lat="47.80624" lon="6.59033">
        <ele>448.24</ele>
        <time>2025-04-30T06:29:00.612Z</time>
      </trkpt>
      <trkpt lat="47.80627" lon="6.59036">
        <ele>448.32</ele>
        <time>2025-04-30T06:29:02.673Z</time>
      </trkpt>
      <trkpt lat="47.80629" lon="6.59038">
        <ele>448.41</ele>
        <time>2025-04-30T06:29:04.734Z</time>
      </trkpt>
      <trkpt lat="47.80633" lon="6.59039">
        <ele>448.49</ele>
        <time>2025-04-30T06:29:06.796Z</time>
      </trkpt>
      <trkpt lat="47.80637" lon="6.59039">
        <ele>448.58</ele>
        <time>2025-04-30T06:29:08.859Z</time>
      </trkpt>
      <trkpt lat="47.80643" lon="6.59033">
        <ele>448.68</ele>
        <time>2025-04-30T06:29:10.923Z</time>
      </trkpt>
      <trkpt lat="47.80648" lon="6.59032">
        <ele>448.77</ele>
        <time>2025-04-30T06:29:12.988Z</time>
      </trkpt>
      <trkpt lat="47.80652" lon="6.59031">
        <ele>448.86</ele>
        <time>2025-04-30T06:29:15.054Z</time>
      </trkpt>
      <trkpt lat="47.80655" lon="6.5903">
        <ele>448.95</ele>
        <time>2025-04-30T06:29:17.121Z</time>
      </trkpt>
      <trkpt lat="47.80658" lon="6.59028">
        <ele>449.04</ele>
        <time>2025-04-30T06:29:19.189Z</time>
      </trkpt>
      <trkpt lat="47.80661" lon="6.59025">
        <ele>449.13</ele>
        <time>2025-04-30T06:29:21.257Z</time>
      </trkpt>
      <trkpt lat="47.80664" lon="6.59022">
        <ele>449.22</ele>
        <time>2025-04-30T06:29:23.326Z</time>
      </trkpt>
      <trkpt lat="47.80673" lon="6.59016">
        <ele>449.31</ele>
        <time>2025-04-30T06:29:25.397Z</time>
      </trkpt>
      <trkpt lat="47.80676" lon="6.59019">
        <ele>449.39</ele>
        <time>2025-04-30T06:29:27.469Z</time>
      </trkpt>
      <trkpt lat="47.80679" lon="6.59023">
        <ele>449.47</ele>
        <time>2025-04-30T06:29:29.542Z</time>
      </trkpt>
      <trkpt lat="47.80681" lon="6.59026">
        <ele>449.55</ele>
        <time>2025-04-30T06:29:31.616Z</time>
      </trkpt>
      <trkpt lat="47.80683" lon="6.59029">
        <ele>449.63</ele>
        <time>2025-04-30T06:29:33.690Z</time>
      </trkpt>
      <trkpt lat="47.80686" lon="6.59035">
        <ele>449.71</ele>
        <time>2025-04-30T06:29:35.765Z</time>
      </trkpt>
      <trkpt lat="47.80687" lon="6.59042">
        <ele>449.79</ele>
        <time>2025-04-30T06:29:37.841Z</time>
      </trkpt>
      <trkpt lat="47.80689" lon="6.59048">
        <ele>449.87</ele>
        <time>2025-04-30T06:29:39.918Z</time>
      </trkpt>
      <trkpt lat="47.80692" lon="6.59053">
        <ele>449.94</ele>
        <time>2025-04-30T06:29:41.996Z</time>
      </trkpt>
      <trkpt lat="47.80698" lon="6.59062">
        <ele>450.03</ele>
        <time>2025-04-30T06:29:44.076Z</time>
      </trkpt>
      <trkpt lat="47.80701" lon="6.59067">
        <ele>450.12</ele>
        <time>2025-04-30T06:29:46.157Z</time>
      </trkpt>
      <trkpt lat="47.80704" lon="6.59072">
        <ele>450.2</ele>
        <time>2025-04-30T06:29:48.239Z</time>
      </trkpt>
      <trkpt lat="47.80707" lon="6.59076">
        <ele>450.27</ele>
        <time>2025-04-30T06:29:50.322Z</time>
      </trkpt>
      <trkpt lat="47.80709" lon="6.5908">
        <ele>450.35</ele>
        <time>2025-04-30T06:29:52.406Z</time>
      </trkpt>
      <trkpt lat="47.80725" lon="6.59098">
        <ele>450.44</ele>
        <time>2025-04-30T06:29:54.494Z</time>
      </trkpt>
      <trkpt lat="47.80728" lon="6.59102">
        <ele>450.5</ele>
        <time>2025-04-30T06:29:56.583Z</time>
      </trkpt>
      <trkpt lat="47.80744" lon="6.59117">
        <ele>450.55</ele>
        <time>2025-04-30T06:29:58.676Z</time>
      </trkpt>
      <trkpt lat="47.8076" lon="6.59137">
        <ele>450.58</ele>
        <time>2025-04-30T06:30:00.773Z</time>
      </trkpt>
      <trkpt lat="47.80765" lon="6.59141">
        <ele>450.63</ele>
        <time>2025-04-30T06:30:02.871Z</time>
      </trkpt>
      <trkpt lat="47.80767" lon="6.59143">
        <ele>450.67</ele>
        <time>2025-04-30T06:30:04.970Z</time>
      </trkpt>
      <trkpt lat="47.80776" lon="6.59143">
        <ele>450.71</ele>
        <time>2025-04-30T06:30:07.071Z</time>
      </trkpt>
      <trkpt lat="47.80781" lon="6.59139">
        <ele>450.75</ele>
        <time>2025-04-30T06:30:09.173Z</time>
      </trkpt>
      <trkpt lat="47.80786" lon="6.59136">
        <ele>450.79</ele>
        <time>2025-04-30T06:30:11.276Z</time>
      </trkpt>
      <trkpt lat="47.8079" lon="6.59136">
        <ele>450.82</ele>
        <time>2025-04-30T06:30:13.380Z</time>
      </trkpt>
      <trkpt lat="47.80794" lon="6.59136">
        <ele>450.85</ele>
        <time>2025-04-30T06:30:15.485Z</time>
      </trkpt>
      <trkpt lat="47.80798" lon="6.59136">
        <ele>450.88</ele>
        <time>2025-04-30T06:30:17.591Z</time>
      </trkpt>
      <trkpt lat="47.80802" lon="6.59136">
        <ele>450.92</ele>
        <time>2025-04-30T06:30:19.698Z</time>
      </trkpt>
      <trkpt lat="47.80819" lon="6.59148">
        <ele>450.95</ele>
        <time>2025-04-30T06:30:21.809Z</time>
      </trkpt>
      <trkpt lat="47.80822" lon="6.59152">
        <ele>451.01</ele>
        <time>2025-04-30T06:30:23.921Z</time>
      </trkpt>
      <trkpt lat="47.80826" lon="6.59158">
        <ele>451.08</ele>
        <time>2025-04-30T06:30:26.034Z</time>
      </trkpt>
      <trkpt lat="47.8083" lon="6.59162">
        <ele>451.15</ele>
        <time>2025-04-30T06:30:28.148Z</time>
      </trkpt>
      <trkpt lat="47.80833" lon="6.59165">
        <ele>451.22</ele>
        <time>2025-04-30T06:30:30.263Z</time>
      </trkpt>
      <trkpt lat="47.80835" lon="6.59167">
        <ele>451.29</ele>
        <time>2025-04-30T06:30:32.378Z</time>
      </trkpt>
      <trkpt lat="47.80839" lon="6.5917">
        <ele>451.37</ele>
        <time>2025-04-30T06:30:34.494Z</time>
      </trkpt>
      <trkpt lat="47.80843" lon="6.59171">
        <ele>451.44</ele>
        <time>2025-04-30T06:30:36.611Z</time>
      </trkpt>
      <trkpt lat="47.80845" lon="6.59172">
        <ele>451.52</ele>
        <time>2025-04-30T06:30:38.728Z</time>
      </trkpt>
      <trkpt lat="47.8085" lon="6.5917">
        <ele>451.61</ele>
        <time>2025-04-30T06:30:40.846Z</time>
      </trkpt>
      <trkpt lat="47.80853" lon="6.59171">
        <ele>451.7</ele>
        <time>2025-04-30T06:30:42.965Z</time>
      </trkpt>
      <trkpt lat="47.80856" lon="6.59173">
        <ele>451.78</ele>
        <time>2025-04-30T06:30:45.085Z</time>
      </trkpt>
      <trkpt lat="47.80858" lon="6.59175">
        <ele>451.86</ele>
        <time>2025-04-30T06:30:47.205Z</time>
      </trkpt>
      <trkpt lat="47.8086" lon="6.59178">
        <ele>451.94</ele>
        <time>2025-04-30T06:30:49.326Z</time>
      </trkpt>
      <trkpt lat="47.80862" lon="6.5918">
        <ele>452.03</ele>
        <time>2025-04-30T06:30:51.447Z</time>
      </trkpt>
      <trkpt lat="47.80863" lon="6.59183">
        <ele>452.11</ele>
        <time>2025-04-30T06:30:53.569Z</time>
      </trkpt>
      <trkpt lat="47.80866" lon="6.59187">
        <ele>452.19</ele>
        <time>2025-04-30T06:30:55.692Z</time>
      </trkpt>
      <trkpt lat="47.80868" lon="6.5919">
        <ele>452.28</ele>
        <time>2025-04-30T06:30:57.815Z</time>
      </trkpt>
      <trkpt lat="47.80871" lon="6.59193">
        <ele>452.36</ele>
        <time>2025-04-30T06:30:59.939Z</time>
      </trkpt>
      <trkpt lat="47.80873" lon="6.59197">
        <ele>452.45</ele>
        <time>2025-04-30T06:31:02.064Z</time>
      </trkpt>
      <trkpt lat="47.80873" lon="6.59199">
        <ele>452.52</ele>
        <time>2025-04-30T06:31:04.189Z</time>
      </trkpt>
      <trkpt lat="47.80872" lon="6.59201">
        <ele>452.59</ele>
        <time>2025-04-30T06:31:06.314Z</time>
      </trkpt>
      <trkpt lat="47.80873" lon="6.59203">
        <ele>452.66</ele>
        <time>2025-04-30T06:31:08.440Z</time>
      </trkpt>
      <trkpt lat="47.80874" lon="6.59206">
        <ele>452.74</ele>
        <time>2025-04-30T06:31:10.566Z</time>
      </trkpt>
      <trkpt lat="47.80875" lon="6.59209">
        <ele>452.83</ele>
        <time>2025-04-30T06:31:12.693Z</time>
      </trkpt>
      <trkpt lat="47.80876" lon="6.59212">
        <ele>452.91</ele>
        <time>2025-04-30T06:31:14.820Z</time>
      </trkpt>
      <trkpt lat="47.80876" lon="6.59213">
        <ele>453.01</ele>
        <time>2025-04-30T06:31:16.947Z</time>
      </trkpt>
      <trkpt lat="47.80879" lon="6.59216">
        <ele>453.12</ele>
        <time>2025-04-30T06:31:19.075Z</time>
      </trkpt>
      <trkpt lat="47.80881" lon="6.59218">
        <ele>453.23</ele>
        <time>2025-04-30T06:31:21.204Z</time>
      </trkpt>
      <trkpt lat="47.80884" lon="6.5922">
        <ele>453.35</ele>
        <time>2025-04-30T06:31:23.333Z</time>
      </trkpt>
      <trkpt lat="47.80886" lon="6.59222">
        <ele>453.48</ele>
        <time>2025-04-30T06:31:25.463Z</time>
      </trkpt>
      <trkpt lat="47.80888" lon="6.59223">
        <ele>453.62</ele>
        <time>2025-04-30T06:31:27.593Z</time>
      </trkpt>
      <trkpt lat="47.8089" lon="6.59223">
        <ele>453.77</ele>
        <time>2025-04-30T06:31:29.724Z</time>
      </trkpt>
      <trkpt lat="47.80892" lon="6.59224">
        <ele>453.93</ele>
        <time>2025-04-30T06:31:31.855Z</time>
      </trkpt>
      <trkpt lat="47.80895" lon="6.59225">
        <ele>454.1</ele>
        <time>2025-04-30T06:31:33.987Z</time>
      </trkpt>
      <trkpt lat="47.80898" lon="6.59224">
        <ele>454.28</ele>
        <time>2025-04-30T06:31:36.119Z</time>
      </trkpt>
      <trkpt lat="47.80899" lon="6.59225">
        <ele>454.47</ele>
        <time>2025-04-30T06:31:38.252Z</time>
      </trkpt>
      <trkpt lat="47.80901" lon="6.59225">
        <ele>454.67</ele>
        <time>2025-04-30T06:31:40.385Z</time>
      </trkpt>
      <trkpt lat="47.80904" lon="6.59224">
        <ele>454.89</ele>
        <time>2025-04-30T06:31:42.519Z</time>
      </trkpt>
      <trkpt lat="47.80907" lon="6.59226">
        <ele>455.11</ele>
        <time>2025-04-30T06:31:44.653Z</time>
      </trkpt>
      <trkpt lat="47.80909" lon="6.59227">
        <ele>455.33</ele>
        <time>2025-04-30T06:31:46.788Z</time>
      </trkpt>
      <trkpt lat="47.8091" lon="6.59228">
        <ele>455.57</ele>
        <time>2025-04-30T06:31:48.923Z</time>
      </trkpt>
      <trkpt lat="47.80912" lon="6.5923">
        <ele>455.81</ele>
        <time>2025-04-30T06:31:51.059Z</time>
      </trkpt>
      <trkpt lat="47.80914" lon="6.59232">
        <ele>456.06</ele>
        <time>2025-04-30T06:31:53.195Z</time>
      </trkpt>
      <trkpt lat="47.80916" lon="6.59233">
        <ele>456.33</ele>
        <time>2025-04-30T06:31:55.332Z</time>
      </trkpt>
      <trkpt lat="47.80917" lon="6.59234">
        <ele>456.6</ele>
        <time>2025-04-30T06:31:57.469Z</time>
      </trkpt>
      <trkpt lat="47.80921" lon="6.59236">
        <ele>456.88</ele>
        <time>2025-04-30T06:31:59.607Z</time>
      </trkpt>
      <trkpt lat="47.80923" lon="6.59237">
        <ele>457.18</ele>
        <time>2025-04-30T06:32:01.745Z</time>
      </trkpt>
      <trkpt lat="47.80925" lon="6.59239">
        <ele>457.47</ele>
        <time>2025-04-30T06:32:03.884Z</time>
      </trkpt>
      <trkpt lat="47.80927" lon="6.59242">
        <ele>457.78</ele>
        <time>2025-04-30T06:32:06.023Z</time>
      </trkpt>
      <trkpt lat="47.80929" lon="6.59244">
        <ele>458.09</ele>
        <time>2025-04-30T06:32:08.163Z</time>
      </trkpt>
      <trkpt lat="47.80931" lon="6.59245">
        <ele>458.42</ele>
        <time>2025-04-30T06:32:10.303Z</time>
      </trkpt>
      <trkpt lat="47.80932" lon="6.59248">
        <ele>458.74</ele>
        <time>2025-04-30T06:32:12.444Z</time>
      </trkpt>
      <trkpt lat="47.80935" lon="6.5925">
        <ele>459.08</ele>
        <time>2025-04-30T06:32:14.585Z</time>
      </trkpt>
      <trkpt lat="47.80937" lon="6.59251">
        <ele>459.43</ele>
        <time>2025-04-30T06:32:16.727Z</time>
      </trkpt>
      <trkpt lat="47.8094" lon="6.59254">
        <ele>459.78</ele>
        <time>2025-04-30T06:32:18.870Z</time>
      </trkpt>
      <trkpt lat="47.80943" lon="6.59255">
        <ele>460.14</ele>
        <time>2025-04-30T06:32:21.013Z</time>
      </trkpt>
      <trkpt lat="47.80944" lon="6.59255">
        <ele>460.49</ele>
        <time>2025-04-30T06:32:23.157Z</time>
      </trkpt>
      <trkpt lat="47.80946" lon="6.59256">
        <ele>460.84</ele>
        <time>2025-04-30T06:32:25.301Z</time>
      </trkpt>
      <trkpt lat="47.80946" lon="6.59257">
        <ele>461.18</ele>
        <time>2025-04-30T06:32:27.445Z</time>
      </trkpt>
      <trkpt lat="47.80949" lon="6.59259">
        <ele>461.54</ele>
        <time>2025-04-30T06:32:29.590Z</time>
      </trkpt>
      <trkpt lat="47.80951" lon="6.59261">
        <ele>461.9</ele>
        <time>2025-04-30T06:32:31.735Z</time>
      </trkpt>
      <trkpt lat="47.80953" lon="6.59262">
        <ele>462.25</ele>
        <time>2025-04-30T06:32:33.881Z</time>
      </trkpt>
      <trkpt lat="47.80954" lon="6.59262">
        <ele>462.6</ele>
        <time>2025-04-30T06:32:36.027Z</time>
      </trkpt>
      <trkpt lat="47.80956" lon="6.59263">
        <ele>462.94</ele>
        <time>2025-04-30T06:32:38.173Z</time>
      </trkpt>
      <trkpt lat="47.80958" lon="6.59263">
        <ele>463.28</ele>
        <time>2025-04-30T06:32:40.320Z</time>
      </trkpt>
      <trkpt lat="47.80961" lon="6.59264">
        <ele>463.62</ele>
        <time>2025-04-30T06:32:42.467Z</time>
      </trkpt>
      <trkpt lat="47.80963" lon="6.59264">
        <ele>463.96</ele>
        <time>2025-04-30T06:32:44.615Z</time>
      </trkpt>
      <trkpt lat="47.80965" lon="6.59263">
        <ele>464.28</ele>
        <time>2025-04-30T06:32:46.763Z</time>
      </trkpt>
      <trkpt lat="47.80967" lon="6.59263">
        <ele>464.6</ele>
        <time>2025-04-30T06:32:48.912Z</time>
      </trkpt>
      <trkpt lat="47.80969" lon="6.59262">
        <ele>464.92</ele>
        <time>2025-04-30T06:32:51.061Z</time>
      </trkpt>
      <trkpt lat="47.80972" lon="6.59263">
        <ele>465.23</ele>
        <time>2025-04-30T06:32:53.211Z</time>
      </trkpt>
      <trkpt lat="47.80975" lon="6.59264">
        <ele>465.54</ele>
        <time>2025-04-30T06:32:55.362Z</time>
      </trkpt>
      <trkpt lat="47.80978" lon="6.59264">
        <ele>465.84</ele>
        <time>2025-04-30T06:32:57.513Z</time>
      </trkpt>
      <trkpt lat="47.80987" lon="6.59262">
        <ele>466.14</ele>
        <time>2025-04-30T06:32:59.666Z</time>
      </trkpt>
      <trkpt lat="47.8099" lon="6.59262">
        <ele>466.42</ele>
        <time>2025-04-30T06:33:01.820Z</time>
      </trkpt>
      <trkpt lat="47.80993" lon="6.59261">
        <ele>466.68</ele>
        <time>2025-04-30T06:33:03.974Z</time>
      </trkpt>
      <trkpt lat="47.80996" lon="6.5926">
        <ele>466.93</ele>
        <time>2025-04-30T06:33:06.129Z</time>
      </trkpt>
      <trkpt lat="47.81003" lon="6.59256">
        <ele>467.18</ele>
        <time>2025-04-30T06:33:08.286Z</time>
      </trkpt>
      <trkpt lat="47.81007" lon="6.59254">
        <ele>467.41</ele>
        <time>2025-04-30T06:33:10.444Z</time>
      </trkpt>
      <trkpt lat="47.8101" lon="6.59251">
        <ele>467.64</ele>
        <time>2025-04-30T06:33:12.602Z</time>
      </trkpt>
      <trkpt lat="47.81014" lon="6.59249">
        <ele>467.85</ele>
        <time>2025-04-30T06:33:14.761Z</time>
      </trkpt>
      <trkpt lat="47.81018" lon="6.59249">
        <ele>468.06</ele>
        <time>2025-04-30T06:33:16.921Z</time>
      </trkpt>
      <trkpt lat="47.81021" lon="6.5925">
        <ele>468.25</ele>
        <time>2025-04-30T06:33:19.082Z</time>
      </trkpt>
      <trkpt lat="47.81025" lon="6.59252">
        <ele>468.44</ele>
        <time>2025-04-30T06:33:21.244Z</time>
      </trkpt>
      <trkpt lat="47.81028" lon="6.59253">
        <ele>468.61</ele>
        <time>2025-04-30T06:33:23.406Z</time>
      </trkpt>
      <trkpt lat="47.81031" lon="6.59255">
        <ele>468.78</ele>
        <time>2025-04-30T06:33:25.569Z</time>
      </trkpt>
      <trkpt lat="47.81035" lon="6.59258">
        <ele>468.94</ele>
        <time>2025-04-30T06:33:27.733Z</time>
      </trkpt>
      <trkpt lat="47.81039" lon="6.5926">
        <ele>469.09</ele>
        <time>2025-04-30T06:33:29.898Z</time>
      </trkpt>
      <trkpt lat="47.81043" lon="6.59262">
        <ele>469.23</ele>
        <time>2025-04-30T06:33:32.064Z</time>
      </trkpt>
      <trkpt lat="47.81048" lon="6.59263">
        <ele>469.36</ele>
        <time>2025-04-30T06:33:34.231Z</time>
      </trkpt>
      <trkpt lat="47.81052" lon="6.59266">
        <ele>469.49</ele>
        <time>2025-04-30T06:33:36.399Z</time>
      </trkpt>
      <trkpt lat="47.81055" lon="6.5927">
        <ele>469.6</ele>
        <time>2025-04-30T06:33:38.568Z</time>
      </trkpt>
      <trkpt lat="47.8106" lon="6.59276">
        <ele>469.72</ele>
        <time>2025-04-30T06:33:40.738Z</time>
      </trkpt>
      <trkpt lat="47.81063" lon="6.59279">
        <ele>469.83</ele>
        <time>2025-04-30T06:33:42.909Z</time>
      </trkpt>
      <trkpt lat="47.81067" lon="6.59282">
        <ele>469.93</ele>
        <time>2025-04-30T06:33:45.081Z</time>
      </trkpt>
      <trkpt lat="47.81069" lon="6.59286">
        <ele>470.04</ele>
        <time>2025-04-30T06:33:47.254Z</time>
      </trkpt>
      <trkpt lat="47.81072" lon="6.5929">
        <ele>470.14</ele>
        <time>2025-04-30T06:33:49.427Z</time>
      </trkpt>
      <trkpt lat="47.81076" lon="6.59293">
        <ele>470.23</ele>
        <time>2025-04-30T06:33:51.601Z</time>
      </trkpt>
      <trkpt lat="47.8108" lon="6.59297">
        <ele>470.32</ele>
        <time>2025-04-30T06:33:53.776Z</time>
      </trkpt>
      <trkpt lat="47.81093" lon="6.59307">
        <ele>470.42</ele>
        <time>2025-04-30T06:33:55.954Z</time>
      </trkpt>
      <trkpt lat="47.81097" lon="6.59313">
        <ele>470.51</ele>
        <time>2025-04-30T06:33:58.134Z</time>
      </trkpt>
      <trkpt lat="47.8111" lon="6.59326">
        <ele>470.59</ele>
        <time>2025-04-30T06:34:00.317Z</time>
      </trkpt>
      <trkpt lat="47.81114" lon="6.59329">
        <ele>470.67</ele>
        <time>2025-04-30T06:34:02.501Z</time>
      </trkpt>
      <trkpt lat="47.81118" lon="6.59331">
        <ele>470.76</ele>
        <time>2025-04-30T06:34:04.686Z</time>
      </trkpt>
      <trkpt lat="47.81122" lon="6.59332">
        <ele>470.84</ele>
        <time>2025-04-30T06:34:06.872Z</time>
      </trkpt>
      <trkpt lat="47.81126" lon="6.59333">
        <ele>470.92</ele>
        <time>2025-04-30T06:34:09.059Z</time>
      </trkpt>
      <trkpt lat="47.81129" lon="6.59333">
        <ele>471</ele>
        <time>2025-04-30T06:34:11.246Z</time>
      </trkpt>
      <trkpt lat="47.81133" lon="6.59334">
        <ele>471.08</ele>
        <time>2025-04-30T06:34:13.434Z</time>
      </trkpt>
      <trkpt lat="47.81141" lon="6.5934">
        <ele>471.15</ele>
        <time>2025-04-30T06:34:15.624Z</time>
      </trkpt>
      <trkpt lat="47.81145" lon="6.59344">
        <ele>471.24</ele>
        <time>2025-04-30T06:34:17.815Z</time>
      </trkpt>
      <trkpt lat="47.81155" lon="6.59356">
        <ele>471.3</ele>
        <time>2025-04-30T06:34:20.009Z</time>
      </trkpt>
      <trkpt lat="47.81176" lon="6.59393">
        <ele>471.39</ele>
        <time>2025-04-30T06:34:22.210Z</time>
      </trkpt>
      <trkpt lat="47.81181" lon="6.59403">
        <ele>471.47</ele>
        <time>2025-04-30T06:34:24.413Z</time>
      </trkpt>
      <trkpt lat="47.81186" lon="6.59412">
        <ele>471.56</ele>
        <time>2025-04-30T06:34:26.617Z</time>
      </trkpt>
      <trkpt lat="47.81191" lon="6.5942">
        <ele>471.65</ele>
        <time>2025-04-30T06:34:28.823Z</time>
      </trkpt>
      <trkpt lat="47.81196" lon="6.59428">
        <ele>471.76</ele>
        <time>2025-04-30T06:34:31.030Z</time>
      </trkpt>
      <trkpt lat="47.812" lon="6.59435">
        <ele>471.86</ele>
        <time>2025-04-30T06:34:33.239Z</time>
      </trkpt>
      <trkpt lat="47.81205" lon="6.59443">
        <ele>471.97</ele>
        <time>2025-04-30T06:34:35.449Z</time>
      </trkpt>
      <trkpt lat="47.81209" lon="6.5945">
        <ele>472.08</ele>
        <time>2025-04-30T06:34:37.661Z</time>
      </trkpt>
      <trkpt lat="47.81212" lon="6.59456">
        <ele>472.19</ele>
        <time>2025-04-30T06:34:39.874Z</time>
      </trkpt>
      <trkpt lat="47.81216" lon="6.59463">
        <ele>472.31</ele>
        <time>2025-04-30T06:34:42.088Z</time>
      </trkpt>
      <trkpt lat="47.81219" lon="6.59469">
        <ele>472.43</ele>
        <time>2025-04-30T06:34:44.303Z</time>
      </trkpt>
      <trkpt lat="47.81222" lon="6.59477">
        <ele>472.55</ele>
        <time>2025-04-30T06:34:46.520Z</time>
      </trkpt>
      <trkpt lat="47.81225" lon="6.59484">
        <ele>472.67</ele>
        <time>2025-04-30T06:34:48.738Z</time>
      </trkpt>
      <trkpt lat="47.81228" lon="6.59491">
        <ele>472.79</ele>
        <time>2025-04-30T06:34:50.957Z</time>
      </trkpt>
      <trkpt lat="47.81233" lon="6.59507">
        <ele>472.92</ele>
        <time>2025-04-30T06:34:53.179Z</time>
      </trkpt>
      <trkpt lat="47.81236" lon="6.59515">
        <ele>473.03</ele>
        <time>2025-04-30T06:34:55.402Z</time>
      </trkpt>
      <trkpt lat="47.81242" lon="6.5953">
        <ele>473.13</ele>
        <time>2025-04-30T06:34:57.627Z</time>
      </trkpt>
      <trkpt lat="47.81248" lon="6.59546">
        <ele>473.23</ele>
        <time>2025-04-30T06:34:59.855Z</time>
      </trkpt>
      <trkpt lat="47.81249" lon="6.59551">
        <ele>473.33</ele>
        <time>2025-04-30T06:35:02.084Z</time>
      </trkpt>
      <trkpt lat="47.81249" lon="6.59558">
        <ele>473.44</ele>
        <time>2025-04-30T06:35:04.314Z</time>
      </trkpt>
      <trkpt lat="47.8125" lon="6.59571">
        <ele>473.54</ele>
        <time>2025-04-30T06:35:06.546Z</time>
      </trkpt>
      <trkpt lat="47.81251" lon="6.59579">
        <ele>473.61</ele>
        <time>2025-04-30T06:35:08.779Z</time>
      </trkpt>
      <trkpt lat="47.81253" lon="6.59588">
        <ele>473.66</ele>
        <time>2025-04-30T06:35:11.013Z</time>
      </trkpt>
      <trkpt lat="47.81253" lon="6.59596">
        <ele>473.71</ele>
        <time>2025-04-30T06:35:13.248Z</time>
      </trkpt>
      <trkpt lat="47.81255" lon="6.59611">
        <ele>473.72</ele>
        <time>2025-04-30T06:35:15.486Z</time>
      </trkpt>
      <trkpt lat="47.81255" lon="6.59624">
        <ele>473.75</ele>
        <time>2025-04-30T06:35:17.725Z</time>
      </trkpt>
      <trkpt lat="47.81255" lon="6.59631">
        <ele>473.76</ele>
        <time>2025-04-30T06:35:19.966Z</time>
      </trkpt>
      <trkpt lat="47.81259" lon="6.59647">
        <ele>473.71</ele>
        <time>2025-04-30T06:35:22.209Z</time>
      </trkpt>
      <trkpt lat="47.8126" lon="6.59655">
        <ele>473.65</ele>
        <time>2025-04-30T06:35:24.453Z</time>
      </trkpt>
      <trkpt lat="47.81264" lon="6.5967">
        <ele>473.58</ele>
        <time>2025-04-30T06:35:26.699Z</time>
      </trkpt>
      <trkpt lat="47.81266" lon="6.59678">
        <ele>473.47</ele>
        <time>2025-04-30T06:35:28.947Z</time>
      </trkpt>
      <trkpt lat="47.81269" lon="6.59685">
        <ele>473.35</ele>
        <time>2025-04-30T06:35:31.196Z</time>
      </trkpt>
      <trkpt lat="47.81272" lon="6.59693">
        <ele>473.22</ele>
        <time>2025-04-30T06:35:33.446Z</time>
      </trkpt>
      <trkpt lat="47.81274" lon="6.59699">
        <ele>473.08</ele>
        <time>2025-04-30T06:35:35.697Z</time>
      </trkpt>
      <trkpt lat="47.81279" lon="6.59705">
        <ele>472.91</ele>
        <time>2025-04-30T06:35:37.950Z</time>
      </trkpt>
      <trkpt lat="47.81283" lon="6.59711">
        <ele>472.74</ele>
        <time>2025-04-30T06:35:40.204Z</time>
      </trkpt>
      <trkpt lat="47.81287" lon="6.59716">
        <ele>472.55</ele>
        <time>2025-04-30T06:35:42.459Z</time>
      </trkpt>
      <trkpt lat="47.81292" lon="6.59728">
        <ele>472.39</ele>
        <time>2025-04-30T06:35:44.716Z</time>
      </trkpt>
      <trkpt lat="47.8131" lon="6.59759">
        <ele>472.2</ele>
        <time>2025-04-30T06:35:46.979Z</time>
      </trkpt>
      <trkpt lat="47.81314" lon="6.59763">
        <ele>472.01</ele>
        <time>2025-04-30T06:35:49.243Z</time>
      </trkpt>
      <trkpt lat="47.81318" lon="6.59767">
        <ele>471.82</ele>
        <time>2025-04-30T06:35:51.508Z</time>
      </trkpt>
      <trkpt lat="47.81323" lon="6.59771">
        <ele>471.62</ele>
        <time>2025-04-30T06:35:53.774Z</time>
      </trkpt>
      <trkpt lat="47.81332" lon="6.59781">
        <ele>471.41</ele>
        <time>2025-04-30T06:35:56.043Z</time>
      </trkpt>
      <trkpt lat="47.81334" lon="6.59785">
        <ele>471.23</ele>
        <time>2025-04-30T06:35:58.312Z</time>
      </trkpt>
      <trkpt lat="47.81335" lon="6.59789">
        <ele>471.06</ele>
        <time>2025-04-30T06:36:00.582Z</time>
      </trkpt>
      <trkpt lat="47.81336" lon="6.59794">
        <ele>470.9</ele>
        <time>2025-04-30T06:36:02.853Z</time>
      </trkpt>
      <trkpt lat="47.81339" lon="6.59801">
        <ele>470.73</ele>
        <time>2025-04-30T06:36:05.125Z</time>
      </trkpt>
      <trkpt lat="47.81342" lon="6.5981">
        <ele>470.57</ele>
        <time>2025-04-30T06:36:07.398Z</time>
      </trkpt>
      <trkpt lat="47.81351" lon="6.59841">
        <ele>470.41</ele>
        <time>2025-04-30T06:36:09.676Z</time>
      </trkpt>
      <trkpt lat="47.81355" lon="6.59855">
        <ele>470.25</ele>
        <time>2025-04-30T06:36:11.956Z</time>
      </trkpt>
      <trkpt lat="47.81364" lon="6.59884">
        <ele>470.05</ele>
        <time>2025-04-30T06:36:14.241Z</time>
      </trkpt>
      <trkpt lat="47.81381" lon="6.59932">
        <ele>469.83</ele>
        <time>2025-04-30T06:36:16.534Z</time>
      </trkpt>
      <trkpt lat="47.81387" lon="6.59943">
        <ele>469.71</ele>
        <time>2025-04-30T06:36:18.829Z</time>
      </trkpt>
      <trkpt lat="47.8139" lon="6.59949">
        <ele>469.61</ele>
        <time>2025-04-30T06:36:21.125Z</time>
      </trkpt>
      <trkpt lat="47.81393" lon="6.59956">
        <ele>469.52</ele>
        <time>2025-04-30T06:36:23.422Z</time>
      </trkpt>
      <trkpt lat="47.81398" lon="6.59969">
        <ele>469.44</ele>
        <time>2025-04-30T06:36:25.721Z</time>
      </trkpt>
      <trkpt lat="47.81408" lon="6.60005">
        <ele>469.43</ele>
        <time>2025-04-30T06:36:28.026Z</time>
      </trkpt>
      <trkpt lat="47.81421" lon="6.60068">
        <ele>469.51</ele>
        <time>2025-04-30T06:36:30.340Z</time>
      </trkpt>
      <trkpt lat="47.81424" lon="6.60082">
        <ele>469.5</ele>
        <time>2025-04-30T06:36:32.657Z</time>
      </trkpt>
      <trkpt lat="47.81425" lon="6.6009">
        <ele>469.48</ele>
        <time>2025-04-30T06:36:34.975Z</time>
      </trkpt>
      <trkpt lat="47.81428" lon="6.60105">
        <ele>469.46</ele>
        <time>2025-04-30T06:36:37.295Z</time>
      </trkpt>
      <trkpt lat="47.81429" lon="6.60111">
        <ele>469.46</ele>
        <time>2025-04-30T06:36:39.616Z</time>
      </trkpt>
      <trkpt lat="47.81431" lon="6.6012">
        <ele>469.47</ele>
        <time>2025-04-30T06:36:41.938Z</time>
      </trkpt>
      <trkpt lat="47.81432" lon="6.60127">
        <ele>469.48</ele>
        <time>2025-04-30T06:36:44.261Z</time>
      </trkpt>
      <trkpt lat="47.81433" lon="6.60134">
        <ele>469.5</ele>
        <time>2025-04-30T06:36:46.585Z</time>
      </trkpt>
      <trkpt lat="47.81433" lon="6.60139">
        <ele>469.53</ele>
        <time>2025-04-30T06:36:48.910Z</time>
      </trkpt>
      <trkpt lat="47.81434" lon="6.60148">
        <ele>469.58</ele>
        <time>2025-04-30T06:36:51.236Z</time>
      </trkpt>
      <trkpt lat="47.81435" lon="6.60155">
        <ele>469.64</ele>
        <time>2025-04-30T06:36:53.563Z</time>
      </trkpt>
      <trkpt lat="47.81436" lon="6.60162">
        <ele>469.71</ele>
        <time>2025-04-30T06:36:55.891Z</time>
      </trkpt>
      <trkpt lat="47.81437" lon="6.60169">
        <ele>469.79</ele>
        <time>2025-04-30T06:36:58.220Z</time>
      </trkpt>
      <trkpt lat="47.81437" lon="6.60174">
        <ele>469.86</ele>
        <time>2025-04-30T06:37:00.550Z</time>
      </trkpt>
      <trkpt lat="47.81438" lon="6.60181">
        <ele>469.94</ele>
        <time>2025-04-30T06:37:02.881Z</time>
      </trkpt>
      <trkpt lat="47.81439" lon="6.60188">
        <ele>470.02</ele>
        <time>2025-04-30T06:37:05.213Z</time>
      </trkpt>
      <trkpt lat="47.8144" lon="6.60194">
        <ele>470.1</ele>
        <time>2025-04-30T06:37:07.546Z</time>
      </trkpt>
      <trkpt lat="47.81441" lon="6.60199">
        <ele>470.19</ele>
        <time>2025-04-30T06:37:09.880Z</time>
      </trkpt>
      <trkpt lat="47.81442" lon="6.60204">
        <ele>470.28</ele>
        <time>2025-04-30T06:37:12.215Z</time>
      </trkpt>
      <trkpt lat="47.81442" lon="6.60211">
        <ele>470.38</ele>
        <time>2025-04-30T06:37:14.551Z</time>
      </trkpt>
      <trkpt lat="47.81442" lon="6.60217">
        <ele>470.46</ele>
        <time>2025-04-30T06:37:16.888Z</time>
      </trkpt>
      <trkpt lat="47.81443" lon="6.60223">
        <ele>470.54</ele>
        <time>2025-04-30T06:37:19.225Z</time>
      </trkpt>
      <trkpt lat="47.81443" lon="6.60227">
        <ele>470.62</ele>
        <time>2025-04-30T06:37:21.563Z</time>
      </trkpt>
      <trkpt lat="47.81444" lon="6.60233">
        <ele>470.7</ele>
        <time>2025-04-30T06:37:23.902Z</time>
      </trkpt>
      <trkpt lat="47.81445" lon="6.60238">
        <ele>470.76</ele>
        <time>2025-04-30T06:37:26.242Z</time>
      </trkpt>
      <trkpt lat="47.81446" lon="6.60242">
        <ele>470.82</ele>
        <time>2025-04-30T06:37:28.582Z</time>
      </trkpt>
      <trkpt lat="47.81447" lon="6.60246">
        <ele>470.86</ele>
        <time>2025-04-30T06:37:30.923Z</time>
      </trkpt>
      <trkpt lat="47.81448" lon="6.60251">
        <ele>470.9</ele>
        <time>2025-04-30T06:37:33.265Z</time>
      </trkpt>
      <trkpt lat="47.81449" lon="6.60255">
        <ele>470.94</ele>
        <time>2025-04-30T06:37:35.607Z</time>
      </trkpt>
      <trkpt lat="47.81451" lon="6.6026">
        <ele>470.96</ele>
        <time>2025-04-30T06:37:37.950Z</time>
      </trkpt>
      <trkpt lat="47.81452" lon="6.60265">
        <ele>470.97</ele>
        <time>2025-04-30T06:37:40.294Z</time>
      </trkpt>
      <trkpt lat="47.81454" lon="6.60269">
        <ele>470.96</ele>
        <time>2025-04-30T06:37:42.639Z</time>
      </trkpt>
      <trkpt lat="47.81457" lon="6.60273">
        <ele>470.93</ele>
        <time>2025-04-30T06:37:44.984Z</time>
      </trkpt>
      <trkpt lat="47.81461" lon="6.60277">
        <ele>470.88</ele>
        <time>2025-04-30T06:37:47.331Z</time>
      </trkpt>
      <trkpt lat="47.81464" lon="6.6028">
        <ele>470.81</ele>
        <time>2025-04-30T06:37:49.678Z</time>
      </trkpt>
      <trkpt lat="47.81469" lon="6.60282">
        <ele>470.72</ele>
        <time>2025-04-30T06:37:52.026Z</time>
      </trkpt>
      <trkpt lat="47.81473" lon="6.60284">
        <ele>470.61</ele>
        <time>2025-04-30T06:37:54.375Z</time>
      </trkpt>
      <trkpt lat="47.81477" lon="6.60286">
        <ele>470.49</ele>
        <time>2025-04-30T06:37:56.725Z</time>
      </trkpt>
      <trkpt lat="47.81483" lon="6.60287">
        <ele>470.35</ele>
        <time>2025-04-30T06:37:59.076Z</time>
      </trkpt>
      <trkpt lat="47.81488" lon="6.60289">
        <ele>470.21</ele>
        <time>2025-04-30T06:38:01.429Z</time>
      </trkpt>
      <trkpt lat="47.81493" lon="6.60289">
        <ele>470.07</ele>
        <time>2025-04-30T06:38:03.783Z</time>
      </trkpt>
      <trkpt lat="47.81498" lon="6.6029">
        <ele>469.92</ele>
        <time>2025-04-30T06:38:06.138Z</time>
      </trkpt>
      <trkpt lat="47.81504" lon="6.60292">
        <ele>469.75</ele>
        <time>2025-04-30T06:38:08.494Z</time>
      </trkpt>
      <trkpt lat="47.81509" lon="6.60293">
        <ele>469.58</ele>
        <time>2025-04-30T06:38:10.851Z</time>
      </trkpt>
      <trkpt lat="47.81514" lon="6.60294">
        <ele>469.41</ele>
        <time>2025-04-30T06:38:13.209Z</time>
      </trkpt>
      <trkpt lat="47.81519" lon="6.60296">
        <ele>469.22</ele>
        <time>2025-04-30T06:38:15.568Z</time>
      </trkpt>
      <trkpt lat="47.81523" lon="6.60298">
        <ele>469.04</ele>
        <time>2025-04-30T06:38:17.928Z</time>
      </trkpt>
      <trkpt lat="47.81528" lon="6.60301">
        <ele>468.85</ele>
        <time>2025-04-30T06:38:20.289Z</time>
      </trkpt>
      <trkpt lat="47.81533" lon="6.60305">
        <ele>468.65</ele>
        <time>2025-04-30T06:38:22.651Z</time>
      </trkpt>
      <trkpt lat="47.81537" lon="6.60309">
        <ele>468.45</ele>
        <time>2025-04-30T06:38:25.015Z</time>
      </trkpt>
      <trkpt lat="47.8154" lon="6.60312">
        <ele>468.26</ele>
        <time>2025-04-30T06:38:27.379Z</time>
      </trkpt>
      <trkpt lat="47.81544" lon="6.60318">
        <ele>468.06</ele>
        <time>2025-04-30T06:38:29.745Z</time>
      </trkpt>
      <trkpt lat="47.81547" lon="6.60325">
        <ele>467.87</ele>
        <time>2025-04-30T06:38:32.112Z</time>
      </trkpt>
      <trkpt lat="47.81551" lon="6.60342">
        <ele>467.68</ele>
        <time>2025-04-30T06:38:34.481Z</time>
      </trkpt>
      <trkpt lat="47.81552" lon="6.60349">
        <ele>467.49</ele>
        <time>2025-04-30T06:38:36.851Z</time>
      </trkpt>
      <trkpt lat="47.81554" lon="6.60359">
        <ele>467.32</ele>
        <time>2025-04-30T06:38:39.223Z</time>
      </trkpt>
      <trkpt lat="47.81555" lon="6.60368">
        <ele>467.13</ele>
        <time>2025-04-30T06:38:41.596Z</time>
      </trkpt>
      <trkpt lat="47.81557" lon="6.60376">
        <ele>466.94</ele>
        <time>2025-04-30T06:38:43.970Z</time>
      </trkpt>
      <trkpt lat="47.81561" lon="6.60383">
        <ele>466.73</ele>
        <time>2025-04-30T06:38:46.346Z</time>
      </trkpt>
      <trkpt lat="47.81563" lon="6.60391">
        <ele>466.54</ele>
        <time>2025-04-30T06:38:48.723Z</time>
      </trkpt>
      <trkpt lat="47.81567" lon="6.60399">
        <ele>466.35</ele>
        <time>2025-04-30T06:38:51.101Z</time>
      </trkpt>
      <trkpt lat="47.81571" lon="6.60405">
        <ele>466.16</ele>
        <time>2025-04-30T06:38:53.481Z</time>
      </trkpt>
      <trkpt lat="47.81575" lon="6.60411">
        <ele>465.98</ele>
        <time>2025-04-30T06:38:55.862Z</time>
      </trkpt>
      <trkpt lat="47.81579" lon="6.60416">
        <ele>465.81</ele>
        <time>2025-04-30T06:38:58.244Z</time>
      </trkpt>
      <trkpt lat="47.81587" lon="6.60427">
        <ele>465.65</ele>
        <time>2025-04-30T06:39:00.628Z</time>
      </trkpt>
      <trkpt lat="47.81592" lon="6.60433">
        <ele>465.51</ele>
        <time>2025-04-30T06:39:03.014Z</time>
      </trkpt>
      <trkpt lat="47.81595" lon="6.60437">
        <ele>465.39</ele>
        <time>2025-04-30T06:39:05.401Z</time>
      </trkpt>
      <trkpt lat="47.81611" lon="6.60452">
        <ele>465.28</ele>
        <time>2025-04-30T06:39:07.792Z</time>
      </trkpt>
      <trkpt lat="47.81615" lon="6.60456">
        <ele>465.2</ele>
        <time>2025-04-30T06:39:10.184Z</time>
      </trkpt>
      <trkpt lat="47.81618" lon="6.60459">
        <ele>465.13</ele>
        <time>2025-04-30T06:39:12.577Z</time>
      </trkpt>
      <trkpt lat="47.81623" lon="6.60463">
        <ele>465.08</ele>
        <time>2025-04-30T06:39:14.971Z</time>
      </trkpt>
      <trkpt lat="47.81627" lon="6.60464">
        <ele>465.05</ele>
        <time>2025-04-30T06:39:17.366Z</time>
      </trkpt>
      <trkpt lat="47.81632" lon="6.60462">
        <ele>465.03</ele>
        <time>2025-04-30T06:39:19.762Z</time>
      </trkpt>
      <trkpt lat="47.81636" lon="6.60458">
        <ele>465.03</ele>
        <time>2025-04-30T06:39:22.159Z</time>
      </trkpt>
      <trkpt lat="47.81642" lon="6.60447">
        <ele>465.06</ele>
        <time>2025-04-30T06:39:24.558Z</time>
      </trkpt>
      <trkpt lat="47.81646" lon="6.60434">
        <ele>465.13</ele>
        <time>2025-04-30T06:39:26.959Z</time>
      </trkpt>
      <trkpt lat="47.81647" lon="6.60433">
        <ele>465.2</ele>
        <time>2025-04-30T06:39:29.360Z</time>
      </trkpt>
      <trkpt lat="47.81649" lon="6.60424">
        <ele>465.3</ele>
        <time>2025-04-30T06:39:31.762Z</time>
      </trkpt>
      <trkpt lat="47.81652" lon="6.60408">
        <ele>465.42</ele>
        <time>2025-04-30T06:39:34.167Z</time>
      </trkpt>
      <trkpt lat="47.81653" lon="6.60401">
        <ele>465.55</ele>
        <time>2025-04-30T06:39:36.573Z</time>
      </trkpt>
      <trkpt lat="47.81655" lon="6.60395">
        <ele>465.71</ele>
        <time>2025-04-30T06:39:38.980Z</time>
      </trkpt>
      <trkpt lat="47.81665" lon="6.60365">
        <ele>465.88</ele>
        <time>2025-04-30T06:39:41.392Z</time>
      </trkpt>
      <trkpt lat="47.81672" lon="6.60354">
        <ele>466.09</ele>
        <time>2025-04-30T06:39:43.806Z</time>
      </trkpt>
      <trkpt lat="47.8168" lon="6.60345">
        <ele>466.31</ele>
        <time>2025-04-30T06:39:46.222Z</time>
      </trkpt>
      <trkpt lat="47.81683" lon="6.60342">
        <ele>466.56</ele>
        <time>2025-04-30T06:39:48.639Z</time>
      </trkpt>
      <trkpt lat="47.81697" lon="6.6033">
        <ele>466.82</ele>
        <time>2025-04-30T06:39:51.059Z</time>
      </trkpt>
      <trkpt lat="47.81702" lon="6.60327">
        <ele>467.11</ele>
        <time>2025-04-30T06:39:53.480Z</time>
      </trkpt>
      <trkpt lat="47.81706" lon="6.60324">
        <ele>467.42</ele>
        <time>2025-04-30T06:39:55.902Z</time>
      </trkpt>
      <trkpt lat="47.81716" lon="6.60317">
        <ele>467.76</ele>
        <time>2025-04-30T06:39:58.327Z</time>
      </trkpt>
      <trkpt lat="47.8172" lon="6.60313">
        <ele>468.1</ele>
        <time>2025-04-30T06:40:00.753Z</time>
      </trkpt>
      <trkpt lat="47.81725" lon="6.6031">
        <ele>468.46</ele>
        <time>2025-04-30T06:40:03.180Z</time>
      </trkpt>
      <trkpt lat="47.81743" lon="6.60289">
        <ele>468.9</ele>
        <time>2025-04-30T06:40:05.612Z</time>
      </trkpt>
      <trkpt lat="47.81745" lon="6.60284">
        <ele>469.31</ele>
        <time>2025-04-30T06:40:08.045Z</time>
      </trkpt>
      <trkpt lat="47.81746" lon="6.60278">
        <ele>469.72</ele>
        <time>2025-04-30T06:40:10.479Z</time>
      </trkpt>
      <trkpt lat="47.81746" lon="6.60273">
        <ele>470.13</ele>
        <time>2025-04-30T06:40:12.913Z</time>
      </trkpt>
      <trkpt lat="47.81746" lon="6.60268">
        <ele>470.55</ele>
        <time>2025-04-30T06:40:15.348Z</time>
      </trkpt>
      <trkpt lat="47.81745" lon="6.60261">
        <ele>470.98</ele>
        <time>2025-04-30T06:40:17.784Z</time>
      </trkpt>
      <trkpt lat="47.81744" lon="6.60253">
        <ele>471.42</ele>
        <time>2025-04-30T06:40:20.221Z</time>
      </trkpt>
      <trkpt lat="47.81743" lon="6.60247">
        <ele>471.86</ele>
        <time>2025-04-30T06:40:22.659Z</time>
      </trkpt>
      <trkpt lat="47.81741" lon="6.6024">
        <ele>472.31</ele>
        <time>2025-04-30T06:40:25.098Z</time>
      </trkpt>
      <trkpt lat="47.8174" lon="6.60233">
        <ele>472.76</ele>
        <time>2025-04-30T06:40:27.538Z</time>
      </trkpt>
      <trkpt lat="47.81739" lon="6.60227">
        <ele>473.21</ele>
        <time>2025-04-30T06:40:29.979Z</time>
      </trkpt>
      <trkpt lat="47.81738" lon="6.60221">
        <ele>473.65</ele>
        <time>2025-04-30T06:40:32.421Z</time>
      </trkpt>
      <trkpt lat="47.81737" lon="6.60212">
        <ele>474.1</ele>
        <time>2025-04-30T06:40:34.864Z</time>
      </trkpt>
      <trkpt lat="47.81736" lon="6.60206">
        <ele>474.54</ele>
        <time>2025-04-30T06:40:37.308Z</time>
      </trkpt>
      <trkpt lat="47.81736" lon="6.60199">
        <ele>474.99</ele>
        <time>2025-04-30T06:40:39.753Z</time>
      </trkpt>
      <trkpt lat="47.81736" lon="6.60192">
        <ele>475.43</ele>
        <time>2025-04-30T06:40:42.199Z</time>
      </trkpt>
      <trkpt lat="47.81736" lon="6.60185">
        <ele>475.86</ele>
        <time>2025-04-30T06:40:44.646Z</time>
      </trkpt>
      <trkpt lat="47.81737" lon="6.60178">
        <ele>476.29</ele>
        <time>2025-04-30T06:40:47.094Z</time>
      </trkpt>
      <trkpt lat="47.81738" lon="6.60172">
        <ele>476.72</ele>
        <time>2025-04-30T06:40:49.543Z</time>
      </trkpt>
      <trkpt lat="47.81739" lon="6.60165">
        <ele>477.13</ele>
        <time>2025-04-30T06:40:51.993Z</time>
      </trkpt>
      <trkpt lat="47.81741" lon="6.60159">
        <ele>477.54</ele>
        <time>2025-04-30T06:40:54.444Z</time>
      </trkpt>
      <trkpt lat="47.81743" lon="6.60152">
        <ele>477.94</ele>
        <time>2025-04-30T06:40:56.896Z</time>
      </trkpt>
      <trkpt lat="47.81746" lon="6.60146">
        <ele>478.31</ele>
        <time>2025-04-30T06:40:59.349Z</time>
      </trkpt>
      <trkpt lat="47.81749" lon="6.6014">
        <ele>478.67</ele>
        <time>2025-04-30T06:41:01.803Z</time>
      </trkpt>
      <trkpt lat="47.81751" lon="6.60135">
        <ele>479</ele>
        <time>2025-04-30T06:41:04.258Z</time>
      </trkpt>
      <trkpt lat="47.81755" lon="6.60128">
        <ele>479.34</ele>
        <time>2025-04-30T06:41:06.715Z</time>
      </trkpt>
      <trkpt lat="47.81757" lon="6.60121">
        <ele>479.64</ele>
        <time>2025-04-30T06:41:09.173Z</time>
      </trkpt>
      <trkpt lat="47.81759" lon="6.60116">
        <ele>479.93</ele>
        <time>2025-04-30T06:41:11.632Z</time>
      </trkpt>
      <trkpt lat="47.81761" lon="6.6011">
        <ele>480.2</ele>
        <time>2025-04-30T06:41:14.091Z</time>
      </trkpt>
      <trkpt lat="47.81763" lon="6.60105">
        <ele>480.44</ele>
        <time>2025-04-30T06:41:16.551Z</time>
      </trkpt>
      <trkpt lat="47.81765" lon="6.60098">
        <ele>480.67</ele>
        <time>2025-04-30T06:41:19.012Z</time>
      </trkpt>
      <trkpt lat="47.81766" lon="6.60093">
        <ele>480.87</ele>
        <time>2025-04-30T06:41:21.474Z</time>
      </trkpt>
      <trkpt lat="47.81767" lon="6.60088">
        <ele>481.03</ele>
        <time>2025-04-30T06:41:23.937Z</time>
      </trkpt>
      <trkpt lat="47.81766" lon="6.60082">
        <ele>481.16</ele>
        <time>2025-04-30T06:41:26.401Z</time>
      </trkpt>
      <trkpt lat="47.81764" lon="6.60077">
        <ele>481.25</ele>
        <time>2025-04-30T06:41:28.866Z</time>
      </trkpt>
      <trkpt lat="47.81762" lon="6.60072">
        <ele>481.32</ele>
        <time>2025-04-30T06:41:31.331Z</time>
      </trkpt>
      <trkpt lat="47.8176" lon="6.60067">
        <ele>481.37</ele>
        <time>2025-04-30T06:41:33.797Z</time>
      </trkpt>
      <trkpt lat="47.81759" lon="6.60062">
        <ele>481.4</ele>
        <time>2025-04-30T06:41:36.264Z</time>
      </trkpt>
      <trkpt lat="47.81758" lon="6.60056">
        <ele>481.4</ele>
        <time>2025-04-30T06:41:38.732Z</time>
      </trkpt>
      <trkpt lat="47.81757" lon="6.6005">
        <ele>481.38</ele>
        <time>2025-04-30T06:41:41.201Z</time>
      </trkpt>
      <trkpt lat="47.81756" lon="6.60043">
        <ele>481.34</ele>
        <time>2025-04-30T06:41:43.671Z</time>
      </trkpt>
      <trkpt lat="47.81755" lon="6.60036">
        <ele>481.27</ele>
        <time>2025-04-30T06:41:46.142Z</time>
      </trkpt>
      <trkpt lat="47.81754" lon="6.60028">
        <ele>481.19</ele>
        <time>2025-04-30T06:41:48.614Z</time>
      </trkpt>
      <trkpt lat="47.81754" lon="6.60019">
        <ele>481.11</ele>
        <time>2025-04-30T06:41:51.087Z</time>
      </trkpt>
      <trkpt lat="47.81755" lon="6.60009">
        <ele>481.01</ele>
        <time>2025-04-30T06:41:53.562Z</time>
      </trkpt>
      <trkpt lat="47.81756" lon="6.59998">
        <ele>480.9</ele>
        <time>2025-04-30T06:41:56.038Z</time>
      </trkpt>
      <trkpt lat="47.81758" lon="6.59989">
        <ele>480.76</ele>
        <time>2025-04-30T06:41:58.516Z</time>
      </trkpt>
      <trkpt lat="47.81759" lon="6.59977">
        <ele>480.59</ele>
        <time>2025-04-30T06:42:00.996Z</time>
      </trkpt>
      <trkpt lat="47.81762" lon="6.59963">
        <ele>480.47</ele>
        <time>2025-04-30T06:42:03.478Z</time>
      </trkpt>
      <trkpt lat="47.81766" lon="6.59951">
        <ele>480.33</ele>
        <time>2025-04-30T06:42:05.962Z</time>
      </trkpt>
      <trkpt lat="47.81769" lon="6.59939">
        <ele>480.17</ele>
        <time>2025-04-30T06:42:08.447Z</time>
      </trkpt>
      <trkpt lat="47.81772" lon="6.59927">
        <ele>479.98</ele>
        <time>2025-04-30T06:42:10.934Z</time>
      </trkpt>
      <trkpt lat="47.81776" lon="6.59916">
        <ele>479.76</ele>
        <time>2025-04-30T06:42:13.423Z</time>
      </trkpt>
      <trkpt lat="47.81779" lon="6.59905">
        <ele>479.51</ele>
        <time>2025-04-30T06:42:15.914Z</time>
      </trkpt>
      <trkpt lat="47.81783" lon="6.59893">
        <ele>479.24</ele>
        <time>2025-04-30T06:42:18.407Z</time>
      </trkpt>
      <trkpt lat="47.81787" lon="6.59871">
        <ele>478.89</ele>
        <time>2025-04-30T06:42:20.903Z</time>
      </trkpt>
      <trkpt lat="47.81788" lon="6.59861">
        <ele>478.57</ele>
        <time>2025-04-30T06:42:23.401Z</time>
      </trkpt>
      <trkpt lat="47.81788" lon="6.59851">
        <ele>478.24</ele>
        <time>2025-04-30T06:42:25.900Z</time>
      </trkpt>
      <trkpt lat="47.81786" lon="6.59842">
        <ele>477.89</ele>
        <time>2025-04-30T06:42:28.400Z</time>
      </trkpt>
      <trkpt lat="47.81781" lon="6.59835">
        <ele>477.53</ele>
        <time>2025-04-30T06:42:30.902Z</time>
      </trkpt>
      <trkpt lat="47.81776" lon="6.59829">
        <ele>477.19</ele>
        <time>2025-04-30T06:42:33.405Z</time>
      </trkpt>
      <trkpt lat="47.8177" lon="6.59824">
        <ele>476.85</ele>
        <time>2025-04-30T06:42:35.910Z</time>
      </trkpt>
      <trkpt lat="47.81764" lon="6.5982">
        <ele>476.5</ele>
        <time>2025-04-30T06:42:38.416Z</time>
      </trkpt>
      <trkpt lat="47.81758" lon="6.59817">
        <ele>476.15</ele>
        <time>2025-04-30T06:42:40.923Z</time>
      </trkpt>
      <trkpt lat="47.81753" lon="6.59814">
        <ele>475.82</ele>
        <time>2025-04-30T06:42:43.432Z</time>
      </trkpt>
      <trkpt lat="47.81742" lon="6.59808">
        <ele>475.47</ele>
        <time>2025-04-30T06:42:45.943Z</time>
      </trkpt>
      <trkpt lat="47.81736" lon="6.59806">
        <ele>475.15</ele>
        <time>2025-04-30T06:42:48.455Z</time>
      </trkpt>
      <trkpt lat="47.8173" lon="6.59804">
        <ele>474.83</ele>
        <time>2025-04-30T06:42:50.969Z</time>
      </trkpt>
      <trkpt lat="47.81724" lon="6.59802">
        <ele>474.53</ele>
        <time>2025-04-30T06:42:53.484Z</time>
      </trkpt>
      <trkpt lat="47.81718" lon="6.59801">
        <ele>474.23</ele>
        <time>2025-04-30T06:42:56.000Z</time>
      </trkpt>
      <trkpt lat="47.81713" lon="6.598">
        <ele>473.94</ele>
        <time>2025-04-30T06:42:58.517Z</time>
      </trkpt>
      <trkpt lat="47.81707" lon="6.59798">
        <ele>473.66</ele>
        <time>2025-04-30T06:43:01.036Z</time>
      </trkpt>
      <trkpt lat="47.81701" lon="6.59797">
        <ele>473.38</ele>
        <time>2025-04-30T06:43:03.556Z</time>
      </trkpt>
      <trkpt lat="47.81695" lon="6.59796">
        <ele>473.09</ele>
        <time>2025-04-30T06:43:06.077Z</time>
      </trkpt>
      <trkpt lat="47.81689" lon="6.59794">
        <ele>472.82</ele>
        <time>2025-04-30T06:43:08.600Z</time>
      </trkpt>
      <trkpt lat="47.81683" lon="6.59791">
        <ele>472.55</ele>
        <time>2025-04-30T06:43:11.124Z</time>
      </trkpt>
      <trkpt lat="47.81673" lon="6.59785">
        <ele>472.29</ele>
        <time>2025-04-30T06:43:13.650Z</time>
      </trkpt>
      <trkpt lat="47.81664" lon="6.59778">
        <ele>472.05</ele>
        <time>2025-04-30T06:43:16.178Z</time>
      </trkpt>
      <trkpt lat="47.8166" lon="6.59773">
        <ele>471.8</ele>
        <time>2025-04-30T06:43:18.707Z</time>
      </trkpt>
      <trkpt lat="47.81657" lon="6.59769">
        <ele>471.55</ele>
        <time>2025-04-30T06:43:21.238Z</time>
      </trkpt>
      <trkpt lat="47.81653" lon="6.59764">
        <ele>471.31</ele>
        <time>2025-04-30T06:43:23.770Z</time>
      </trkpt>
      <trkpt lat="47.81646" lon="6.59754">
        <ele>471.08</ele>
        <time>2025-04-30T06:43:26.304Z</time>
      </trkpt>
      <trkpt lat="47.81642" lon="6.59749">
        <ele>470.84</ele>
        <time>2025-04-30T06:43:28.839Z</time>
      </trkpt>
      <trkpt lat="47.81639" lon="6.59743">
        <ele>470.6</ele>
        <time>2025-04-30T06:43:31.375Z</time>
      </trkpt>
      <trkpt lat="47.81633" lon="6.5973">
        <ele>470.37</ele>
        <time>2025-04-30T06:43:33.913Z</time>
      </trkpt>
      <trkpt lat="47.81612" lon="6.59674">
        <ele>470.07</ele>
        <time>2025-04-30T06:43:36.460Z</time>
      </trkpt>
      <trkpt lat="47.81607" lon="6.59656">
        <ele>469.79</ele>
        <time>2025-04-30T06:43:39.010Z</time>
      </trkpt>
      <trkpt lat="47.81606" lon="6.59645">
        <ele>469.54</ele>
        <time>2025-04-30T06:43:41.562Z</time>
      </trkpt>
      <trkpt lat="47.81605" lon="6.59633">
        <ele>469.3</ele>
        <time>2025-04-30T06:43:44.115Z</time>
      </trkpt>
      <trkpt lat="47.81606" lon="6.59592">
        <ele>469.06</ele>
        <time>2025-04-30T06:43:46.674Z</time>
      </trkpt>
      <trkpt lat="47.81606" lon="6.59579">
        <ele>468.84</ele>
        <time>2025-04-30T06:43:49.235Z</time>
      </trkpt>
      <trkpt lat="47.81607" lon="6.59567">
        <ele>468.61</ele>
        <time>2025-04-30T06:43:51.798Z</time>
      </trkpt>
      <trkpt lat="47.81609" lon="6.59554">
        <ele>468.38</ele>
        <time>2025-04-30T06:43:54.363Z</time>
      </trkpt>
      <trkpt lat="47.81611" lon="6.59542">
        <ele>468.18</ele>
        <time>2025-04-30T06:43:56.930Z</time>
      </trkpt>
      <trkpt lat="47.81614" lon="6.5953">
        <ele>467.99</ele>
        <time>2025-04-30T06:43:59.499Z</time>
      </trkpt>
      <trkpt lat="47.81615" lon="6.5952">
        <ele>467.82</ele>
        <time>2025-04-30T06:44:02.069Z</time>
      </trkpt>
      <trkpt lat="47.81615" lon="6.5951">
        <ele>467.65</ele>
        <time>2025-04-30T06:44:04.641Z</time>
      </trkpt>
      <trkpt lat="47.81613" lon="6.595">
        <ele>467.47</ele>
        <time>2025-04-30T06:44:07.214Z</time>
      </trkpt>
      <trkpt lat="47.81609" lon="6.59492">
        <ele>467.3</ele>
        <time>2025-04-30T06:44:09.788Z</time>
      </trkpt>
      <trkpt lat="47.81607" lon="6.59485">
        <ele>467.15</ele>
        <time>2025-04-30T06:44:12.364Z</time>
      </trkpt>
      <trkpt lat="47.81605" lon="6.59478">
        <ele>467.01</ele>
        <time>2025-04-30T06:44:14.941Z</time>
      </trkpt>
      <trkpt lat="47.81602" lon="6.59472">
        <ele>466.85</ele>
        <time>2025-04-30T06:44:17.519Z</time>
      </trkpt>
      <trkpt lat="47.81597" lon="6.59467">
        <ele>466.69</ele>
        <time>2025-04-30T06:44:20.098Z</time>
      </trkpt>
      <trkpt lat="47.81592" lon="6.59464">
        <ele>466.51</ele>
        <time>2025-04-30T06:44:22.678Z</time>
      </trkpt>
      <trkpt lat="47.81587" lon="6.5946">
        <ele>466.36</ele>
        <time>2025-04-30T06:44:25.259Z</time>
      </trkpt>
      <trkpt lat="47.81583" lon="6.59454">
        <ele>466.23</ele>
        <time>2025-04-30T06:44:27.842Z</time>
      </trkpt>
      <trkpt lat="47.81578" lon="6.5945">
        <ele>466.09</ele>
        <time>2025-04-30T06:44:30.426Z</time>
      </trkpt>
      <trkpt lat="47.81573" lon="6.59446">
        <ele>465.96</ele>
        <time>2025-04-30T06:44:33.011Z</time>
      </trkpt>
      <trkpt lat="47.81567" lon="6.59442">
        <ele>465.83</ele>
        <time>2025-04-30T06:44:35.597Z</time>
      </trkpt>
      <trkpt lat="47.81552" lon="6.59438">
        <ele>465.73</ele>
        <time>2025-04-30T06:44:38.187Z</time>
      </trkpt>
      <trkpt lat="47.81543" lon="6.59437">
        <ele>465.64</ele>
        <time>2025-04-30T06:44:40.779Z</time>
      </trkpt>
      <trkpt lat="47.81531" lon="6.59437">
        <ele>465.56</ele>
        <time>2025-04-30T06:44:43.373Z</time>
      </trkpt>
      <trkpt lat="47.8152" lon="6.59433">
        <ele>465.5</ele>
        <time>2025-04-30T06:44:45.970Z</time>
      </trkpt>
      <trkpt lat="47.81505" lon="6.5942">
        <ele>465.47</ele>
        <time>2025-04-30T06:44:48.570Z</time>
      </trkpt>
      <trkpt lat="47.81498" lon="6.59407">
        <ele>465.4</ele>
        <time>2025-04-30T06:44:51.173Z</time>
      </trkpt>
      <trkpt lat="47.81496" lon="6.59399">
        <ele>465.35</ele>
        <time>2025-04-30T06:44:53.777Z</time>
      </trkpt>
      <trkpt lat="47.81494" lon="6.59391">
        <ele>465.31</ele>
        <time>2025-04-30T06:44:56.382Z</time>
      </trkpt>
      <trkpt lat="47.81492" lon="6.59384">
        <ele>465.28</ele>
        <time>2025-04-30T06:44:58.988Z</time>
      </trkpt>
      <trkpt lat="47.81491" lon="6.59376">
        <ele>465.26</ele>
        <time>2025-04-30T06:45:01.595Z</time>
      </trkpt>
      <trkpt lat="47.81491" lon="6.59369">
        <ele>465.25</ele>
        <time>2025-04-30T06:45:04.204Z</time>
      </trkpt>
      <trkpt lat="47.81492" lon="6.59361">
        <ele>465.25</ele>
        <time>2025-04-30T06:45:06.814Z</time>
      </trkpt>
      <trkpt lat="47.81494" lon="6.59353">
        <ele>465.26</ele>
        <time>2025-04-30T06:45:09.425Z</time>
      </trkpt>
      <trkpt lat="47.81495" lon="6.59345">
        <ele>465.29</ele>
        <time>2025-04-30T06:45:12.037Z</time>
      </trkpt>
      <trkpt lat="47.81496" lon="6.59338">
        <ele>465.34</ele>
        <time>2025-04-30T06:45:14.650Z</time>
      </trkpt>
      <trkpt lat="47.81496" lon="6.59331">
        <ele>465.38</ele>
        <time>2025-04-30T06:45:17.264Z</time>
      </trkpt>
      <trkpt lat="47.81496" lon="6.59325">
        <ele>465.42</ele>
        <time>2025-04-30T06:45:19.879Z</time>
      </trkpt>
      <trkpt lat="47.81496" lon="6.59317">
        <ele>465.48</ele>
        <time>2025-04-30T06:45:22.495Z</time>
      </trkpt>
      <trkpt lat="47.81495" lon="6.59309">
        <ele>465.54</ele>
        <time>2025-04-30T06:45:25.112Z</time>
      </trkpt>
      <trkpt lat="47.81495" lon="6.59301">
        <ele>465.6</ele>
        <time>2025-04-30T06:45:27.730Z</time>
      </trkpt>
      <trkpt lat="47.81493" lon="6.59294">
        <ele>465.66</ele>
        <time>2025-04-30T06:45:30.350Z</time>
      </trkpt>
      <trkpt lat="47.81492" lon="6.5927">
        <ele>465.77</ele>
        <time>2025-04-30T06:45:32.973Z</time>
      </trkpt>
      <trkpt lat="47.81492" lon="6.59256">
        <ele>465.87</ele>
        <time>2025-04-30T06:45:35.598Z</time>
      </trkpt>
      <trkpt lat="47.81493" lon="6.59248">
        <ele>465.99</ele>
        <time>2025-04-30T06:45:38.224Z</time>
      </trkpt>
      <trkpt lat="47.81493" lon="6.59239">
        <ele>466.11</ele>
        <time>2025-04-30T06:45:40.852Z</time>
      </trkpt>
      <trkpt lat="47.81492" lon="6.59222">
        <ele>466.21</ele>
        <time>2025-04-30T06:45:43.482Z</time>
      </trkpt>
      <trkpt lat="47.81491" lon="6.59213">
        <ele>466.34</ele>
        <time>2025-04-30T06:45:46.113Z</time>
      </trkpt>
      <trkpt lat="47.81492" lon="6.59204">
        <ele>466.49</ele>
        <time>2025-04-30T06:45:48.746Z</time>
      </trkpt>
      <trkpt lat="47.81495" lon="6.59187">
        <ele>466.66</ele>
        <time>2025-04-30T06:45:51.381Z</time>
      </trkpt>
      <trkpt lat="47.81495" lon="6.59179">
        <ele>466.82</ele>
        <time>2025-04-30T06:45:54.017Z</time>
      </trkpt>
      <trkpt lat="47.81494" lon="6.5917">
        <ele>466.98</ele>
        <time>2025-04-30T06:45:56.655Z</time>
      </trkpt>
      <trkpt lat="47.8149" lon="6.59138">
        <ele>467.13</ele>
        <time>2025-04-30T06:45:59.297Z</time>
      </trkpt>
      <trkpt lat="47.81489" lon="6.59131">
        <ele>467.32</ele>
        <time>2025-04-30T06:46:01.940Z</time>
      </trkpt>
      <trkpt lat="47.81489" lon="6.59123">
        <ele>467.51</ele>
        <time>2025-04-30T06:46:04.584Z</time>
      </trkpt>
      <trkpt lat="47.81489" lon="6.59116">
        <ele>467.72</ele>
        <time>2025-04-30T06:46:07.229Z</time>
      </trkpt>
      <trkpt lat="47.81489" lon="6.5911">
        <ele>467.95</ele>
        <time>2025-04-30T06:46:09.875Z</time>
      </trkpt>
      <trkpt lat="47.8149" lon="6.59102">
        <ele>468.2</ele>
        <time>2025-04-30T06:46:12.523Z</time>
      </trkpt>
      <trkpt lat="47.81491" lon="6.59096">
        <ele>468.45</ele>
        <time>2025-04-30T06:46:15.172Z</time>
      </trkpt>
      <trkpt lat="47.81493" lon="6.59084">
        <ele>468.7</ele>
        <time>2025-04-30T06:46:17.822Z</time>
      </trkpt>
      <trkpt lat="47.81493" lon="6.59078">
        <ele>468.97</ele>
        <time>2025-04-30T06:46:20.473Z</time>
      </trkpt>
      <trkpt lat="47.81492" lon="6.59072">
        <ele>469.25</ele>
        <time>2025-04-30T06:46:23.125Z</time>
      </trkpt>
      <trkpt lat="47.81492" lon="6.59066">
        <ele>469.54</ele>
        <time>2025-04-30T06:46:25.778Z</time>
      </trkpt>
      <trkpt lat="47.81493" lon="6.5906">
        <ele>469.83</ele>
        <time>2025-04-30T06:46:28.432Z</time>
      </trkpt>
      <trkpt lat="47.81492" lon="6.59056">
        <ele>470.15</ele>
        <time>2025-04-30T06:46:31.086Z</time>
      </trkpt>
      <trkpt lat="47.81492" lon="6.59051">
        <ele>470.47</ele>
        <time>2025-04-30T06:46:33.741Z</time>
      </trkpt>
      <trkpt lat="47.81492" lon="6.59047">
        <ele>470.81</ele>
        <time>2025-04-30T06:46:36.397Z</time>
      </trkpt>
      <trkpt lat="47.81493" lon="6.59043">
        <ele>471.15</ele>
        <time>2025-04-30T06:46:39.053Z</time>
      </trkpt>
      <trkpt lat="47.81494" lon="6.59039">
        <ele>471.5</ele>
        <time>2025-04-30T06:46:41.710Z</time>
      </trkpt>
      <trkpt lat="47.81496" lon="6.59036">
        <ele>471.85</ele>
        <time>2025-04-30T06:46:44.367Z</time>
      </trkpt>
      <trkpt lat="47.81497" lon="6.59032">
        <ele>472.21</ele>
        <time>2025-04-30T06:46:47.025Z</time>
      </trkpt>
      <trkpt lat="47.815" lon="6.59029">
        <ele>472.56</ele>
        <time>2025-04-30T06:46:49.684Z</time>
      </trkpt>
      <trkpt lat="47.81502" lon="6.59026">
        <ele>472.93</ele>
        <time>2025-04-30T06:46:52.343Z</time>
      </trkpt>
      <trkpt lat="47.81504" lon="6.59023">
        <ele>473.29</ele>
        <time>2025-04-30T06:46:55.003Z</time>
      </trkpt>
      <trkpt lat="47.81507" lon="6.5902">
        <ele>473.65</ele>
        <time>2025-04-30T06:46:57.664Z</time>
      </trkpt>
      <trkpt lat="47.8151" lon="6.59016">
        <ele>474.03</ele>
        <time>2025-04-30T06:47:00.326Z</time>
      </trkpt>
      <trkpt lat="47.81512" lon="6.59012">
        <ele>474.41</ele>
        <time>2025-04-30T06:47:02.988Z</time>
      </trkpt>
      <trkpt lat="47.81514" lon="6.59007">
        <ele>474.78</ele>
        <time>2025-04-30T06:47:05.651Z</time>
      </trkpt>
      <trkpt lat="47.81516" lon="6.59002">
        <ele>475.16</ele>
        <time>2025-04-30T06:47:08.315Z</time>
      </trkpt>
      <trkpt lat="47.81518" lon="6.58995">
        <ele>475.53</ele>
        <time>2025-04-30T06:47:10.980Z</time>
      </trkpt>
      <trkpt lat="47.8152" lon="6.58989">
        <ele>475.9</ele>
        <time>2025-04-30T06:47:13.646Z</time>
      </trkpt>
      <trkpt lat="47.81521" lon="6.58981">
        <ele>476.26</ele>
        <time>2025-04-30T06:47:16.313Z</time>
      </trkpt>
      <trkpt lat="47.81522" lon="6.58974">
        <ele>476.61</ele>
        <time>2025-04-30T06:47:18.981Z</time>
      </trkpt>
      <trkpt lat="47.81523" lon="6.58966">
        <ele>476.94</ele>
        <time>2025-04-30T06:47:21.650Z</time>
      </trkpt>
      <trkpt lat="47.81525" lon="6.58958">
        <ele>477.25</ele>
        <time>2025-04-30T06:47:24.321Z</time>
      </trkpt>
      <trkpt lat="47.81526" lon="6.58949">
        <ele>477.57</ele>
        <time>2025-04-30T06:47:26.993Z</time>
      </trkpt>
      <trkpt lat="47.81528" lon="6.5894">
        <ele>477.87</ele>
        <time>2025-04-30T06:47:29.666Z</time>
      </trkpt>
      <trkpt lat="47.81528" lon="6.5893">
        <ele>478.16</ele>
        <time>2025-04-30T06:47:32.341Z</time>
      </trkpt>
      <trkpt lat="47.81527" lon="6.5892">
        <ele>478.44</ele>
        <time>2025-04-30T06:47:35.017Z</time>
      </trkpt>
      <trkpt lat="47.81529" lon="6.58911">
        <ele>478.7</ele>
        <time>2025-04-30T06:47:37.695Z</time>
      </trkpt>
      <trkpt lat="47.81531" lon="6.58902">
        <ele>478.96</ele>
        <time>2025-04-30T06:47:40.374Z</time>
      </trkpt>
      <trkpt lat="47.81533" lon="6.58895">
        <ele>479.2</ele>
        <time>2025-04-30T06:47:43.054Z</time>
      </trkpt>
      <trkpt lat="47.81535" lon="6.58887">
        <ele>479.42</ele>
        <time>2025-04-30T06:47:45.735Z</time>
      </trkpt>
      <trkpt lat="47.81537" lon="6.58882">
        <ele>479.64</ele>
        <time>2025-04-30T06:47:48.417Z</time>
      </trkpt>
      <trkpt lat="47.8154" lon="6.58877">
        <ele>479.83</ele>
        <time>2025-04-30T06:47:51.100Z</time>
      </trkpt>
      <trkpt lat="47.81542" lon="6.58872">
        <ele>480.01</ele>
        <time>2025-04-30T06:47:53.784Z</time>
      </trkpt>
      <trkpt lat="47.81545" lon="6.58867">
        <ele>480.17</ele>
        <time>2025-04-30T06:47:56.469Z</time>
      </trkpt>
      <trkpt lat="47.81548" lon="6.58862">
        <ele>480.31</ele>
        <time>2025-04-30T06:47:59.155Z</time>
      </trkpt>
      <trkpt lat="47.81553" lon="6.58857">
        <ele>480.45</ele>
        <time>2025-04-30T06:48:01.842Z</time>
      </trkpt>
      <trkpt lat="47.81557" lon="6.5885">
        <ele>480.55</ele>
        <time>2025-04-30T06:48:04.530Z</time>
      </trkpt>
      <trkpt lat="47.81561" lon="6.58843">
        <ele>480.63</ele>
        <time>2025-04-30T06:48:07.220Z</time>
      </trkpt>
      <trkpt lat="47.81564" lon="6.58826">
        <ele>480.69</ele>
        <time>2025-04-30T06:48:09.912Z</time>
      </trkpt>
      <trkpt lat="47.81564" lon="6.58817">
        <ele>480.71</ele>
        <time>2025-04-30T06:48:12.606Z</time>
      </trkpt>
      <trkpt lat="47.81564" lon="6.58809">
        <ele>480.72</ele>
        <time>2025-04-30T06:48:15.301Z</time>
      </trkpt>
      <trkpt lat="47.81564" lon="6.58801">
        <ele>480.72</ele>
        <time>2025-04-30T06:48:17.997Z</time>
      </trkpt>
      <trkpt lat="47.81563" lon="6.58793">
        <ele>480.69</ele>
        <time>2025-04-30T06:48:20.694Z</time>
      </trkpt>
      <trkpt lat="47.81562" lon="6.58779">
        <ele>480.65</ele>
        <time>2025-04-30T06:48:23.393Z</time>
      </trkpt>
      <trkpt lat="47.81562" lon="6.58773">
        <ele>480.54</ele>
        <time>2025-04-30T06:48:26.093Z</time>
      </trkpt>
      <trkpt lat="47.81561" lon="6.58765">
        <ele>480.42</ele>
        <time>2025-04-30T06:48:28.794Z</time>
      </trkpt>
      <trkpt lat="47.81558" lon="6.58744">
        <ele>480.25</ele>
        <time>2025-04-30T06:48:31.498Z</time>
      </trkpt>
      <trkpt lat="47.81557" lon="6.58737">
        <ele>480.06</ele>
        <time>2025-04-30T06:48:34.203Z</time>
      </trkpt>
      <trkpt lat="47.81556" lon="6.58728">
        <ele>479.84</ele>
        <time>2025-04-30T06:48:36.910Z</time>
      </trkpt>
      <trkpt lat="47.81556" lon="6.58722">
        <ele>479.6</ele>
        <time>2025-04-30T06:48:39.617Z</time>
      </trkpt>
      <trkpt lat="47.81556" lon="6.58669">
        <ele>479.19</ele>
        <time>2025-04-30T06:48:42.332Z</time>
      </trkpt>
      <trkpt lat="47.81557" lon="6.58659">
        <ele>478.92</ele>
        <time>2025-04-30T06:48:45.049Z</time>
      </trkpt>
      <trkpt lat="47.81564" lon="6.58633">
        <ele>478.6</ele>
        <time>2025-04-30T06:48:47.770Z</time>
      </trkpt>
      <trkpt lat="47.81567" lon="6.58625">
        <ele>478.31</ele>
        <time>2025-04-30T06:48:50.492Z</time>
      </trkpt>
      <trkpt lat="47.8157" lon="6.58618">
        <ele>478</ele>
        <time>2025-04-30T06:48:53.215Z</time>
      </trkpt>
      <trkpt lat="47.81577" lon="6.58603">
        <ele>477.7</ele>
        <time>2025-04-30T06:48:55.941Z</time>
      </trkpt>
      <trkpt lat="47.8158" lon="6.58596">
        <ele>477.37</ele>
        <time>2025-04-30T06:48:58.668Z</time>
      </trkpt>
      <trkpt lat="47.81584" lon="6.58589">
        <ele>477</ele>
        <time>2025-04-30T06:49:01.396Z</time>
      </trkpt>
      <trkpt lat="47.81588" lon="6.58582">
        <ele>476.65</ele>
        <time>2025-04-30T06:49:04.126Z</time>
      </trkpt>
      <trkpt lat="47.81592" lon="6.58575">
        <ele>476.29</ele>
        <time>2025-04-30T06:49:06.857Z</time>
      </trkpt>
      <trkpt lat="47.81596" lon="6.58567">
        <ele>475.94</ele>
        <time>2025-04-30T06:49:09.589Z</time>
      </trkpt>
      <trkpt lat="47.816" lon="6.58559">
        <ele>475.57</ele>
        <time>2025-04-30T06:49:12.323Z</time>
      </trkpt>
      <trkpt lat="47.81602" lon="6.58552">
        <ele>475.2</ele>
        <time>2025-04-30T06:49:15.058Z</time>
      </trkpt>
      <trkpt lat="47.81606" lon="6.58533">
        <ele>474.78</ele>
        <time>2025-04-30T06:49:17.796Z</time>
      </trkpt>
      <trkpt lat="47.81606" lon="6.58524">
        <ele>474.4</ele>
        <time>2025-04-30T06:49:20.535Z</time>
      </trkpt>
      <trkpt lat="47.81605" lon="6.58514">
        <ele>474.05</ele>
        <time>2025-04-30T06:49:23.276Z</time>
      </trkpt>
      <trkpt lat="47.81605" lon="6.58504">
        <ele>473.68</ele>
        <time>2025-04-30T06:49:26.018Z</time>
      </trkpt>
      <trkpt lat="47.81605" lon="6.58495">
        <ele>473.33</ele>
        <time>2025-04-30T06:49:28.761Z</time>
      </trkpt>
      <trkpt lat="47.81605" lon="6.58486">
        <ele>473</ele>
        <time>2025-04-30T06:49:31.506Z</time>
      </trkpt>
      <trkpt lat="47.81606" lon="6.58479">
        <ele>472.68</ele>
        <time>2025-04-30T06:49:34.252Z</time>
      </trkpt>
      <trkpt lat="47.81607" lon="6.58471">
        <ele>472.39</ele>
        <time>2025-04-30T06:49:36.999Z</time>
      </trkpt>
      <trkpt lat="47.81608" lon="6.58462">
        <ele>472.1</ele>
        <time>2025-04-30T06:49:39.747Z</time>
      </trkpt>
      <trkpt lat="47.81609" lon="6.58455">
        <ele>471.84</ele>
        <time>2025-04-30T06:49:42.496Z</time>
      </trkpt>
      <trkpt lat="47.81608" lon="6.58447">
        <ele>471.59</ele>
        <time>2025-04-30T06:49:45.246Z</time>
      </trkpt>
      <trkpt lat="47.81604" lon="6.58443">
        <ele>471.33</ele>
        <time>2025-04-30T06:49:47.997Z</time>
      </trkpt>
      <trkpt lat="47.81584" lon="6.58423">
        <ele>471</ele>
        <time>2025-04-30T06:49:50.754Z</time>
      </trkpt>
      <trkpt lat="47.81579" lon="6.5842">
        <ele>470.79</ele>
        <time>2025-04-30T06:49:53.512Z</time>
      </trkpt>
      <trkpt lat="47.81552" lon="6.58403">
        <ele>470.6</ele>
        <time>2025-04-30T06:49:56.276Z</time>
      </trkpt>
      <trkpt lat="47.81545" lon="6.58393">
        <ele>470.44</ele>
        <time>2025-04-30T06:49:59.042Z</time>
      </trkpt>
      <trkpt lat="47.81542" lon="6.58388">
        <ele>470.32</ele>
        <time>2025-04-30T06:50:01.809Z</time>
      </trkpt>
      <trkpt lat="47.81541" lon="6.58382">
        <ele>470.23</ele>
        <time>2025-04-30T06:50:04.577Z</time>
      </trkpt>
      <trkpt lat="47.81539" lon="6.58376">
        <ele>470.16</ele>
        <time>2025-04-30T06:50:07.346Z</time>
      </trkpt>
      <trkpt lat="47.81539" lon="6.58371">
        <ele>470.11</ele>
        <time>2025-04-30T06:50:10.116Z</time>
      </trkpt>
      <trkpt lat="47.81538" lon="6.58365">
        <ele>470.09</ele>
        <time>2025-04-30T06:50:12.886Z</time>
      </trkpt>
      <trkpt lat="47.81537" lon="6.5836">
        <ele>470.11</ele>
        <time>2025-04-30T06:50:15.657Z</time>
      </trkpt>
      <trkpt lat="47.81536" lon="6.58348">
        <ele>470.18</ele>
        <time>2025-04-30T06:50:18.430Z</time>
      </trkpt>
      <trkpt lat="47.81535" lon="6.58343">
        <ele>470.25</ele>
        <time>2025-04-30T06:50:21.204Z</time>
      </trkpt>
      <trkpt lat="47.81534" lon="6.58337">
        <ele>470.35</ele>
        <time>2025-04-30T06:50:23.979Z</time>
      </trkpt>
      <trkpt lat="47.81532" lon="6.58332">
        <ele>470.48</ele>
        <time>2025-04-30T06:50:26.754Z</time>
      </trkpt>
      <trkpt lat="47.81531" lon="6.58326">
        <ele>470.62</ele>
        <time>2025-04-30T06:50:29.530Z</time>
      </trkpt>
      <trkpt lat="47.81529" lon="6.5832">
        <ele>470.79</ele>
        <time>2025-04-30T06:50:32.307Z</time>
      </trkpt>
      <trkpt lat="47.81527" lon="6.58314">
        <ele>470.99</ele>
        <time>2025-04-30T06:50:35.085Z</time>
      </trkpt>
      <trkpt lat="47.81524" lon="6.58302">
        <ele>471.21</ele>
        <time>2025-04-30T06:50:37.865Z</time>
      </trkpt>
      <trkpt lat="47.81523" lon="6.58296">
        <ele>471.45</ele>
        <time>2025-04-30T06:50:40.646Z</time>
      </trkpt>
      <trkpt lat="47.81523" lon="6.58277">
        <ele>471.72</ele>
        <time>2025-04-30T06:50:43.430Z</time>
      </trkpt>
      <trkpt lat="47.81524" lon="6.5827">
        <ele>472</ele>
        <time>2025-04-30T06:50:46.215Z</time>
      </trkpt>
      <trkpt lat="47.81524" lon="6.58264">
        <ele>472.3</ele>
        <time>2025-04-30T06:50:49.001Z</time>
      </trkpt>
      <trkpt lat="47.81524" lon="6.58258">
        <ele>472.61</ele>
        <time>2025-04-30T06:50:51.787Z</time>
      </trkpt>
      <trkpt lat="47.81524" lon="6.58253">
        <ele>472.94</ele>
        <time>2025-04-30T06:50:54.574Z</time>
      </trkpt>
      <trkpt lat="47.81525" lon="6.58247">
        <ele>473.29</ele>
        <time>2025-04-30T06:50:57.362Z</time>
      </trkpt>
      <trkpt lat="47.81527" lon="6.58241">
        <ele>473.66</ele>
        <time>2025-04-30T06:51:00.151Z</time>
      </trkpt>
      <trkpt lat="47.81528" lon="6.58235">
        <ele>474.04</ele>
        <time>2025-04-30T06:51:02.941Z</time>
      </trkpt>
      <trkpt lat="47.81529" lon="6.58229">
        <ele>474.43</ele>
        <time>2025-04-30T06:51:05.732Z</time>
      </trkpt>
      <trkpt lat="47.81529" lon="6.58223">
        <ele>474.82</ele>
        <time>2025-04-30T06:51:08.524Z</time>
      </trkpt>
      <trkpt lat="47.81528" lon="6.58217">
        <ele>475.23</ele>
        <time>2025-04-30T06:51:11.317Z</time>
      </trkpt>
      <trkpt lat="47.81527" lon="6.58211">
        <ele>475.64</ele>
        <time>2025-04-30T06:51:14.110Z</time>
      </trkpt>
      <trkpt lat="47.81525" lon="6.58206">
        <ele>476.05</ele>
        <time>2025-04-30T06:51:16.904Z</time>
      </trkpt>
      <trkpt lat="47.81523" lon="6.582">
        <ele>476.47</ele>
        <time>2025-04-30T06:51:19.699Z</time>
      </trkpt>
      <trkpt lat="47.81522" lon="6.58195">
        <ele>476.89</ele>
        <time>2025-04-30T06:51:22.495Z</time>
      </trkpt>
      <trkpt lat="47.8152" lon="6.5819">
        <ele>477.32</ele>
        <time>2025-04-30T06:51:25.292Z</time>
      </trkpt>
      <trkpt lat="47.81518" lon="6.58184">
        <ele>477.75</ele>
        <time>2025-04-30T06:51:28.090Z</time>
      </trkpt>
      <trkpt lat="47.81517" lon="6.58179">
        <ele>478.17</ele>
        <time>2025-04-30T06:51:30.889Z</time>
      </trkpt>
      <trkpt lat="47.81515" lon="6.58173">
        <ele>478.6</ele>
        <time>2025-04-30T06:51:33.689Z</time>
      </trkpt>
      <trkpt lat="47.81513" lon="6.58168">
        <ele>479.01</ele>
        <time>2025-04-30T06:51:36.489Z</time>
      </trkpt>
      <trkpt lat="47.81512" lon="6.58162">
        <ele>479.42</ele>
        <time>2025-04-30T06:51:39.290Z</time>
      </trkpt>
      <trkpt lat="47.8151" lon="6.58156">
        <ele>479.82</ele>
        <time>2025-04-30T06:51:42.092Z</time>
      </trkpt>
      <trkpt lat="47.81508" lon="6.5815">
        <ele>480.21</ele>
        <time>2025-04-30T06:51:44.895Z</time>
      </trkpt>
      <trkpt lat="47.81507" lon="6.58144">
        <ele>480.58</ele>
        <time>2025-04-30T06:51:47.699Z</time>
      </trkpt>
      <trkpt lat="47.81506" lon="6.58139">
        <ele>480.95</ele>
        <time>2025-04-30T06:51:50.504Z</time>
      </trkpt>
      <trkpt lat="47.81504" lon="6.58133">
        <ele>481.3</ele>
        <time>2025-04-30T06:51:53.310Z</time>
      </trkpt>
      <trkpt lat="47.81502" lon="6.58127">
        <ele>481.65</ele>
        <time>2025-04-30T06:51:56.117Z</time>
      </trkpt>
      <trkpt lat="47.81501" lon="6.58122">
        <ele>481.98</ele>
        <time>2025-04-30T06:51:58.925Z</time>
      </trkpt>
      <trkpt lat="47.815" lon="6.58116">
        <ele>482.3</ele>
        <time>2025-04-30T06:52:01.733Z</time>
      </trkpt>
      <trkpt lat="47.81498" lon="6.58111">
        <ele>482.61</ele>
        <time>2025-04-30T06:52:04.542Z</time>
      </trkpt>
      <trkpt lat="47.81496" lon="6.58105">
        <ele>482.9</ele>
        <time>2025-04-30T06:52:07.352Z</time>
      </trkpt>
      <trkpt lat="47.81495" lon="6.581">
        <ele>483.19</ele>
        <time>2025-04-30T06:52:10.163Z</time>
      </trkpt>
      <trkpt lat="47.81493" lon="6.58093">
        <ele>483.46</ele>
        <time>2025-04-30T06:52:12.975Z</time>
      </trkpt>
      <trkpt lat="47.81491" lon="6.58089">
        <ele>483.73</ele>
        <time>2025-04-30T06:52:15.788Z</time>
      </trkpt>
      <trkpt lat="47.8149" lon="6.58083">
        <ele>483.98</ele>
        <time>2025-04-30T06:52:18.602Z</time>
      </trkpt>
      <trkpt lat="47.81488" lon="6.58078">
        <ele>484.21</ele>
        <time>2025-04-30T06:52:21.416Z</time>
      </trkpt>
      <trkpt lat="47.81487" lon="6.58072">
        <ele>484.43</ele>
        <time>2025-04-30T06:52:24.231Z</time>
      </trkpt>
      <trkpt lat="47.81486" lon="6.58067">
        <ele>484.64</ele>
        <time>2025-04-30T06:52:27.047Z</time>
      </trkpt>
      <trkpt lat="47.81484" lon="6.58061">
        <ele>484.84</ele>
        <time>2025-04-30T06:52:29.864Z</time>
      </trkpt>
      <trkpt lat="47.81483" lon="6.58055">
        <ele>485.03</ele>
        <time>2025-04-30T06:52:32.682Z</time>
      </trkpt>
      <trkpt lat="47.81482" lon="6.58051">
        <ele>485.21</ele>
        <time>2025-04-30T06:52:35.501Z</time>
      </trkpt>
      <trkpt lat="47.81481" lon="6.58046">
        <ele>485.38</ele>
        <time>2025-04-30T06:52:38.320Z</time>
      </trkpt>
      <trkpt lat="47.8148" lon="6.58042">
        <ele>485.54</ele>
        <time>2025-04-30T06:52:41.140Z</time>
      </trkpt>
      <trkpt lat="47.81479" lon="6.58039">
        <ele>485.69</ele>
        <time>2025-04-30T06:52:43.960Z</time>
      </trkpt>
      <trkpt lat="47.81478" lon="6.58038">
        <ele>485.83</ele>
        <time>2025-04-30T06:52:46.781Z</time>
      </trkpt>
      <trkpt lat="47.81478" lon="6.58026">
        <ele>485.96</ele>
        <time>2025-04-30T06:52:49.603Z</time>
      </trkpt>
      <trkpt lat="47.81476" lon="6.57999">
        <ele>486.1</ele>
        <time>2025-04-30T06:52:52.429Z</time>
      </trkpt>
      <trkpt lat="47.81474" lon="6.57955">
        <ele>486.18</ele>
        <time>2025-04-30T06:52:55.262Z</time>
      </trkpt>
      <trkpt lat="47.81474" lon="6.57948">
        <ele>486.28</ele>
        <time>2025-04-30T06:52:58.096Z</time>
      </trkpt>
      <trkpt lat="47.81475" lon="6.57896">
        <ele>486.42</ele>
        <time>2025-04-30T06:53:00.937Z</time>
      </trkpt>
      <trkpt lat="47.81476" lon="6.57869">
        <ele>486.57</ele>
        <time>2025-04-30T06:53:03.782Z</time>
      </trkpt>
      <trkpt lat="47.81476" lon="6.57849">
        <ele>486.68</ele>
        <time>2025-04-30T06:53:06.630Z</time>
      </trkpt>
      <trkpt lat="47.81474" lon="6.57811">
        <ele>486.75</ele>
        <time>2025-04-30T06:53:09.483Z</time>
      </trkpt>
      <trkpt lat="47.81468" lon="6.57793">
        <ele>486.78</ele>
        <time>2025-04-30T06:53:12.339Z</time>
      </trkpt>
      <trkpt lat="47.81466" lon="6.57785">
        <ele>486.83</ele>
        <time>2025-04-30T06:53:15.197Z</time>
      </trkpt>
      <trkpt lat="47.81463" lon="6.57777">
        <ele>486.87</ele>
        <time>2025-04-30T06:53:18.056Z</time>
      </trkpt>
      <trkpt lat="47.81459" lon="6.57761">
        <ele>486.9</ele>
        <time>2025-04-30T06:53:20.917Z</time>
      </trkpt>
      <trkpt lat="47.81457" lon="6.57753">
        <ele>486.94</ele>
        <time>2025-04-30T06:53:23.780Z</time>
      </trkpt>
      <trkpt lat="47.81455" lon="6.57737">
        <ele>486.97</ele>
        <time>2025-04-30T06:53:26.645Z</time>
      </trkpt>
      <trkpt lat="47.81456" lon="6.57729">
        <ele>487.02</ele>
        <time>2025-04-30T06:53:29.511Z</time>
      </trkpt>
      <trkpt lat="47.81457" lon="6.57721">
        <ele>487.08</ele>
        <time>2025-04-30T06:53:32.378Z</time>
      </trkpt>
      <trkpt lat="47.81457" lon="6.57713">
        <ele>487.14</ele>
        <time>2025-04-30T06:53:35.246Z</time>
      </trkpt>
      <trkpt lat="47.81458" lon="6.57705">
        <ele>487.2</ele>
        <time>2025-04-30T06:53:38.116Z</time>
      </trkpt>
      <trkpt lat="47.81459" lon="6.57697">
        <ele>487.26</ele>
        <time>2025-04-30T06:53:40.987Z</time>
      </trkpt>
      <trkpt lat="47.81463" lon="6.57681">
        <ele>487.33</ele>
        <time>2025-04-30T06:53:43.860Z</time>
      </trkpt>
      <trkpt lat="47.81465" lon="6.57667">
        <ele>487.42</ele>
        <time>2025-04-30T06:53:46.735Z</time>
      </trkpt>
      <trkpt lat="47.81466" lon="6.5766">
        <ele>487.48</ele>
        <time>2025-04-30T06:53:49.611Z</time>
      </trkpt>
      <trkpt lat="47.81466" lon="6.57653">
        <ele>487.54</ele>
        <time>2025-04-30T06:53:52.488Z</time>
      </trkpt>
      <trkpt lat="47.81467" lon="6.57647">
        <ele>487.59</ele>
        <time>2025-04-30T06:53:55.366Z</time>
      </trkpt>
      <trkpt lat="47.81468" lon="6.5764">
        <ele>487.63</ele>
        <time>2025-04-30T06:53:58.245Z</time>
      </trkpt>
      <trkpt lat="47.81468" lon="6.57633">
        <ele>487.67</ele>
        <time>2025-04-30T06:54:01.125Z</time>
      </trkpt>
      <trkpt lat="47.81467" lon="6.57625">
        <ele>487.7</ele>
        <time>2025-04-30T06:54:04.006Z</time>
      </trkpt>
      <trkpt lat="47.81461" lon="6.57589">
        <ele>487.74</ele>
        <time>2025-04-30T06:54:06.893Z</time>
      </trkpt>
      <trkpt lat="47.81456" lon="6.57571">
        <ele>487.76</ele>
        <time>2025-04-30T06:54:09.783Z</time>
      </trkpt>
      <trkpt lat="47.81454" lon="6.57561">
        <ele>487.77</ele>
        <time>2025-04-30T06:54:12.674Z</time>
      </trkpt>
      <trkpt lat="47.81451" lon="6.57551">
        <ele>487.77</ele>
        <time>2025-04-30T06:54:15.567Z</time>
      </trkpt>
      <trkpt lat="47.8144" lon="6.57513">
        <ele>487.76</ele>
        <time>2025-04-30T06:54:18.466Z</time>
      </trkpt>
      <trkpt lat="47.81437" lon="6.57505">
        <ele>487.74</ele>
        <time>2025-04-30T06:54:21.366Z</time>
      </trkpt>
      <trkpt lat="47.8143" lon="6.57487">
        <ele>487.69</ele>
        <time>2025-04-30T06:54:24.269Z</time>
      </trkpt>
      <trkpt lat="47.81416" lon="6.57461">
        <ele>487.62</ele>
        <time>2025-04-30T06:54:27.177Z</time>
      </trkpt>
      <trkpt lat="47.81413" lon="6.57453">
        <ele>487.58</ele>
        <time>2025-04-30T06:54:30.086Z</time>
      </trkpt>
      <trkpt lat="47.81411" lon="6.57443">
        <ele>487.53</ele>
        <time>2025-04-30T06:54:32.997Z</time>
      </trkpt>
      <trkpt lat="47.81408" lon="6.57434">
        <ele>487.47</ele>
        <time>2025-04-30T06:54:35.909Z</time>
      </trkpt>
      <trkpt lat="47.81406" lon="6.57425">
        <ele>487.4</ele>
        <time>2025-04-30T06:54:38.823Z</time>
      </trkpt>
      <trkpt lat="47.81404" lon="6.57414">
        <ele>487.33</ele>
        <time>2025-04-30T06:54:41.738Z</time>
      </trkpt>
      <trkpt lat="47.81402" lon="6.57396">
        <ele>487.24</ele>
        <time>2025-04-30T06:54:44.656Z</time>
      </trkpt>
      <trkpt lat="47.81402" lon="6.57384">
        <ele>487.14</ele>
        <time>2025-04-30T06:54:47.576Z</time>
      </trkpt>
      <trkpt lat="47.81401" lon="6.57368">
        <ele>487.02</ele>
        <time>2025-04-30T06:54:50.498Z</time>
      </trkpt>
      <trkpt lat="47.81397" lon="6.57338">
        <ele>486.89</ele>
        <time>2025-04-30T06:54:53.424Z</time>
      </trkpt>
      <trkpt lat="47.81389" lon="6.57299">
        <ele>486.76</ele>
        <time>2025-04-30T06:54:56.356Z</time>
      </trkpt>
      <trkpt lat="47.81383" lon="6.57272">
        <ele>486.66</ele>
        <time>2025-04-30T06:54:59.292Z</time>
      </trkpt>
      <trkpt lat="47.81381" lon="6.57263">
        <ele>486.51</ele>
        <time>2025-04-30T06:55:02.230Z</time>
      </trkpt>
      <trkpt lat="47.81377" lon="6.57255">
        <ele>486.36</ele>
        <time>2025-04-30T06:55:05.169Z</time>
      </trkpt>
      <trkpt lat="47.81375" lon="6.57247">
        <ele>486.19</ele>
        <time>2025-04-30T06:55:08.109Z</time>
      </trkpt>
      <trkpt lat="47.81372" lon="6.57241">
        <ele>486.01</ele>
        <time>2025-04-30T06:55:11.050Z</time>
      </trkpt>
      <trkpt lat="47.81365" lon="6.57225">
        <ele>485.83</ele>
        <time>2025-04-30T06:55:13.994Z</time>
      </trkpt>
      <trkpt lat="47.81359" lon="6.5721">
        <ele>485.62</ele>
        <time>2025-04-30T06:55:16.941Z</time>
      </trkpt>
      <trkpt lat="47.81358" lon="6.57202">
        <ele>485.39</ele>
        <time>2025-04-30T06:55:19.889Z</time>
      </trkpt>
      <trkpt lat="47.81356" lon="6.57192">
        <ele>485.14</ele>
        <time>2025-04-30T06:55:22.838Z</time>
      </trkpt>
      <trkpt lat="47.81354" lon="6.57185">
        <ele>484.89</ele>
        <time>2025-04-30T06:55:25.788Z</time>
      </trkpt>
      <trkpt lat="47.81344" lon="6.57148">
        <ele>484.62</ele>
        <time>2025-04-30T06:55:28.744Z</time>
      </trkpt>
      <trkpt lat="47.81339" lon="6.5714">
        <ele>484.33</ele>
        <time>2025-04-30T06:55:31.702Z</time>
      </trkpt>
      <trkpt lat="47.81333" lon="6.57132">
        <ele>484.02</ele>
        <time>2025-04-30T06:55:34.661Z</time>
      </trkpt>
      <trkpt lat="47.81327" lon="6.57126">
        <ele>483.7</ele>
        <time>2025-04-30T06:55:37.622Z</time>
      </trkpt>
      <trkpt lat="47.8132" lon="6.5712">
        <ele>483.37</ele>
        <time>2025-04-30T06:55:40.585Z</time>
      </trkpt>
      <trkpt lat="47.81314" lon="6.57112">
        <ele>483.02</ele>
        <time>2025-04-30T06:55:43.550Z</time>
      </trkpt>
      <trkpt lat="47.81307" lon="6.57102">
        <ele>482.64</ele>
        <time>2025-04-30T06:55:46.517Z</time>
      </trkpt>
      <trkpt lat="47.81303" lon="6.57092">
        <ele>482.26</ele>
        <time>2025-04-30T06:55:49.485Z</time>
      </trkpt>
      <trkpt lat="47.813" lon="6.57083">
        <ele>481.87</ele>
        <time>2025-04-30T06:55:52.455Z</time>
      </trkpt>
      <trkpt lat="47.81295" lon="6.57072">
        <ele>481.47</ele>
        <time>2025-04-30T06:55:55.427Z</time>
      </trkpt>
      <trkpt lat="47.81291" lon="6.57065">
        <ele>481.07</ele>
        <time>2025-04-30T06:55:58.400Z</time>
      </trkpt>
      <trkpt lat="47.81286" lon="6.57056">
        <ele>480.67</ele>
        <time>2025-04-30T06:56:01.375Z</time>
      </trkpt>
      <trkpt lat="47.81275" lon="6.57044">
        <ele>480.25</ele>
        <time>2025-04-30T06:56:04.353Z</time>
      </trkpt>
      <trkpt lat="47.81268" lon="6.5704">
        <ele>479.83</ele>
        <time>2025-04-30T06:56:07.332Z</time>
      </trkpt>
      <trkpt lat="47.8126" lon="6.57037">
        <ele>479.4</ele>
        <time>2025-04-30T06:56:10.313Z</time>
      </trkpt>
      <trkpt lat="47.81253" lon="6.57035">
        <ele>478.98</ele>
        <time>2025-04-30T06:56:13.295Z</time>
      </trkpt>
      <trkpt lat="47.81247" lon="6.57034">
        <ele>478.56</ele>
        <time>2025-04-30T06:56:16.279Z</time>
      </trkpt>
      <trkpt lat="47.81219" lon="6.5703">
        <ele>478.11</ele>
        <time>2025-04-30T06:56:19.269Z</time>
      </trkpt>
      <trkpt lat="47.81212" lon="6.5703">
        <ele>477.69</ele>
        <time>2025-04-30T06:56:22.260Z</time>
      </trkpt>
      <trkpt lat="47.81205" lon="6.57029">
        <ele>477.28</ele>
        <time>2025-04-30T06:56:25.253Z</time>
      </trkpt>
      <trkpt lat="47.81198" lon="6.57026">
        <ele>476.87</ele>
        <time>2025-04-30T06:56:28.247Z</time>
      </trkpt>
      <trkpt lat="47.81184" lon="6.57018">
        <ele>476.45</ele>
        <time>2025-04-30T06:56:31.245Z</time>
      </trkpt>
      <trkpt lat="47.81162" lon="6.57007">
        <ele>476.05</ele>
        <time>2025-04-30T06:56:34.248Z</time>
      </trkpt>
      <trkpt lat="47.81141" lon="6.57001">
        <ele>475.65</ele>
        <time>2025-04-30T06:56:37.255Z</time>
      </trkpt>
      <trkpt lat="47.81134" lon="6.56999">
        <ele>475.28</ele>
        <time>2025-04-30T06:56:40.264Z</time>
      </trkpt>
      <trkpt lat="47.81125" lon="6.56996">
        <ele>474.91</ele>
        <time>2025-04-30T06:56:43.275Z</time>
      </trkpt>
      <trkpt lat="47.81103" lon="6.56989">
        <ele>474.51</ele>
        <time>2025-04-30T06:56:46.290Z</time>
      </trkpt>
      <trkpt lat="47.8109" lon="6.56985">
        <ele>474.14</ele>
        <time>2025-04-30T06:56:49.308Z</time>
      </trkpt>
      <trkpt lat="47.81083" lon="6.56983">
        <ele>473.8</ele>
        <time>2025-04-30T06:56:52.328Z</time>
      </trkpt>
      <trkpt lat="47.81075" lon="6.5698">
        <ele>473.48</ele>
        <time>2025-04-30T06:56:55.350Z</time>
      </trkpt>
      <trkpt lat="47.81069" lon="6.56977">
        <ele>473.18</ele>
        <time>2025-04-30T06:56:58.373Z</time>
      </trkpt>
      <trkpt lat="47.81063" lon="6.56974">
        <ele>472.91</ele>
        <time>2025-04-30T06:57:01.397Z</time>
      </trkpt>
      <trkpt lat="47.81059" lon="6.56972">
        <ele>472.68</ele>
        <time>2025-04-30T06:57:04.422Z</time>
      </trkpt>
      <trkpt lat="47.81054" lon="6.56969">
        <ele>472.48</ele>
        <time>2025-04-30T06:57:07.449Z</time>
      </trkpt>
      <trkpt lat="47.81048" lon="6.56964">
        <ele>472.3</ele>
        <time>2025-04-30T06:57:10.477Z</time>
      </trkpt>
      <trkpt lat="47.81043" lon="6.56959">
        <ele>472.15</ele>
        <time>2025-04-30T06:57:13.506Z</time>
      </trkpt>
      <trkpt lat="47.81033" lon="6.56945">
        <ele>472.05</ele>
        <time>2025-04-30T06:57:16.538Z</time>
      </trkpt>
      <trkpt lat="47.81031" lon="6.56939">
        <ele>471.98</ele>
        <time>2025-04-30T06:57:19.571Z</time>
      </trkpt>
      <trkpt lat="47.81028" lon="6.56929">
        <ele>471.94</ele>
        <time>2025-04-30T06:57:22.606Z</time>
      </trkpt>
      <trkpt lat="47.81025" lon="6.5692">
        <ele>471.93</ele>
        <time>2025-04-30T06:57:25.642Z</time>
      </trkpt>
      <trkpt lat="47.81016" lon="6.56886">
        <ele>471.97</ele>
        <time>2025-04-30T06:57:28.683Z</time>
      </trkpt>
      <trkpt lat="47.81013" lon="6.56876">
        <ele>471.97</ele>
        <time>2025-04-30T06:57:31.726Z</time>
      </trkpt>
      <trkpt lat="47.81004" lon="6.56866">
        <ele>472</ele>
        <time>2025-04-30T06:57:34.771Z</time>
      </trkpt>
      <trkpt lat="47.80998" lon="6.56862">
        <ele>472.06</ele>
        <time>2025-04-30T06:57:37.818Z</time>
      </trkpt>
      <trkpt lat="47.80992" lon="6.5686">
        <ele>472.15</ele>
        <time>2025-04-30T06:57:40.866Z</time>
      </trkpt>
      <trkpt lat="47.80987" lon="6.5686">
        <ele>472.26</ele>
        <time>2025-04-30T06:57:43.915Z</time>
      </trkpt>
      <trkpt lat="47.80982" lon="6.5686">
        <ele>472.4</ele>
        <time>2025-04-30T06:57:46.965Z</time>
      </trkpt>
      <trkpt lat="47.80977" lon="6.5686">
        <ele>472.55</ele>
        <time>2025-04-30T06:57:50.016Z</time>
      </trkpt>
      <trkpt lat="47.80968" lon="6.56863">
        <ele>472.74</ele>
        <time>2025-04-30T06:57:53.069Z</time>
      </trkpt>
      <trkpt lat="47.80962" lon="6.56862">
        <ele>472.94</ele>
        <time>2025-04-30T06:57:56.124Z</time>
      </trkpt>
      <trkpt lat="47.80956" lon="6.56861">
        <ele>473.16</ele>
        <time>2025-04-30T06:57:59.180Z</time>
      </trkpt>
      <trkpt lat="47.80952" lon="6.5686">
        <ele>473.41</ele>
        <time>2025-04-30T06:58:02.237Z</time>
      </trkpt>
      <trkpt lat="47.80943" lon="6.56852">
        <ele>473.67</ele>
        <time>2025-04-30T06:58:05.296Z</time>
      </trkpt>
      <trkpt lat="47.80939" lon="6.56846">
        <ele>473.95</ele>
        <time>2025-04-30T06:58:08.356Z</time>
      </trkpt>
      <trkpt lat="47.80938" lon="6.56839">
        <ele>474.24</ele>
        <time>2025-04-30T06:58:11.417Z</time>
      </trkpt>
      <trkpt lat="47.80937" lon="6.56831">
        <ele>474.57</ele>
        <time>2025-04-30T06:58:14.479Z</time>
      </trkpt>
      <trkpt lat="47.80938" lon="6.56825">
        <ele>474.92</ele>
        <time>2025-04-30T06:58:17.542Z</time>
      </trkpt>
      <trkpt lat="47.8094" lon="6.56818">
        <ele>475.29</ele>
        <time>2025-04-30T06:58:20.606Z</time>
      </trkpt>
      <trkpt lat="47.80946" lon="6.56804">
        <ele>475.71</ele>
        <time>2025-04-30T06:58:23.673Z</time>
      </trkpt>
      <trkpt lat="47.80948" lon="6.56797">
        <ele>476.12</ele>
        <time>2025-04-30T06:58:26.741Z</time>
      </trkpt>
      <trkpt lat="47.8095" lon="6.56783">
        <ele>476.56</ele>
        <time>2025-04-30T06:58:29.811Z</time>
      </trkpt>
      <trkpt lat="47.80949" lon="6.56776">
        <ele>477.01</ele>
        <time>2025-04-30T06:58:32.882Z</time>
      </trkpt>
      <trkpt lat="47.80949" lon="6.56768">
        <ele>477.48</ele>
        <time>2025-04-30T06:58:35.954Z</time>
      </trkpt>
      <trkpt lat="47.80948" lon="6.56761">
        <ele>477.96</ele>
        <time>2025-04-30T06:58:39.027Z</time>
      </trkpt>
      <trkpt lat="47.80946" lon="6.56754">
        <ele>478.46</ele>
        <time>2025-04-30T06:58:42.101Z</time>
      </trkpt>
      <trkpt lat="47.80944" lon="6.56747">
        <ele>478.96</ele>
        <time>2025-04-30T06:58:45.176Z</time>
      </trkpt>
      <trkpt lat="47.80942" lon="6.56733">
        <ele>479.49</ele>
        <time>2025-04-30T06:58:48.253Z</time>
      </trkpt>
      <trkpt lat="47.80942" lon="6.56726">
        <ele>479.99</ele>
        <time>2025-04-30T06:58:51.331Z</time>
      </trkpt>
      <trkpt lat="47.80941" lon="6.5672">
        <ele>480.51</ele>
        <time>2025-04-30T06:58:54.410Z</time>
      </trkpt>
      <trkpt lat="47.80941" lon="6.56714">
        <ele>481.03</ele>
        <time>2025-04-30T06:58:57.490Z</time>
      </trkpt>
      <trkpt lat="47.80941" lon="6.56707">
        <ele>481.54</ele>
        <time>2025-04-30T06:59:00.571Z</time>
      </trkpt>
      <trkpt lat="47.80941" lon="6.56701">
        <ele>482.05</ele>
        <time>2025-04-30T06:59:03.653Z</time>
      </trkpt>
      <trkpt lat="47.80941" lon="6.56693">
        <ele>482.56</ele>
        <time>2025-04-30T06:59:06.736Z</time>
      </trkpt>
      <trkpt lat="47.80939" lon="6.56677">
        <ele>483.1</ele>
        <time>2025-04-30T06:59:09.822Z</time>
      </trkpt>
      <trkpt lat="47.80938" lon="6.56669">
        <ele>483.61</ele>
        <time>2025-04-30T06:59:12.909Z</time>
      </trkpt>
      <trkpt lat="47.80936" lon="6.56662">
        <ele>484.12</ele>
        <time>2025-04-30T06:59:15.997Z</time>
      </trkpt>
      <trkpt lat="47.80935" lon="6.56654">
        <ele>484.63</ele>
        <time>2025-04-30T06:59:19.086Z</time>
      </trkpt>
      <trkpt lat="47.80934" lon="6.56647">
        <ele>485.12</ele>
        <time>2025-04-30T06:59:22.176Z</time>
      </trkpt>
      <trkpt lat="47.80933" lon="6.56638">
        <ele>485.6</ele>
        <time>2025-04-30T06:59:25.267Z</time>
      </trkpt>
      <trkpt lat="47.80932" lon="6.56631">
        <ele>486.06</ele>
        <time>2025-04-30T06:59:28.359Z</time>
      </trkpt>
      <trkpt lat="47.80931" lon="6.56624">
        <ele>486.52</ele>
        <time>2025-04-30T06:59:31.452Z</time>
      </trkpt>
      <trkpt lat="47.80931" lon="6.56617">
        <ele>486.96</ele>
        <time>2025-04-30T06:59:34.546Z</time>
      </trkpt>
      <trkpt lat="47.8093" lon="6.56611">
        <ele>487.38</ele>
        <time>2025-04-30T06:59:37.641Z</time>
      </trkpt>
      <trkpt lat="47.8093" lon="6.56604">
        <ele>487.78</ele>
        <time>2025-04-30T06:59:40.737Z</time>
      </trkpt>
      <trkpt lat="47.80929" lon="6.56597">
        <ele>488.16</ele>
        <time>2025-04-30T06:59:43.834Z</time>
      </trkpt>
      <trkpt lat="47.80929" lon="6.5659">
        <ele>488.52</ele>
        <time>2025-04-30T06:59:46.932Z</time>
      </trkpt>
      <trkpt lat="47.80928" lon="6.56582">
        <ele>488.88</ele>
        <time>2025-04-30T06:59:50.032Z</time>
      </trkpt>
      <trkpt lat="47.80928" lon="6.56573">
        <ele>489.2</ele>
        <time>2025-04-30T06:59:53.133Z</time>
      </trkpt>
      <trkpt lat="47.80926" lon="6.56567">
        <ele>489.51</ele>
        <time>2025-04-30T06:59:56.235Z</time>
      </trkpt>
      <trkpt lat="47.80925" lon="6.56561">
        <ele>489.79</ele>
        <time>2025-04-30T06:59:59.338Z</time>
      </trkpt>
      <trkpt lat="47.80923" lon="6.56554">
        <ele>490.05</ele>
        <time>2025-04-30T07:00:02.442Z</time>
      </trkpt>
      <trkpt lat="47.80922" lon="6.56547">
        <ele>490.27</ele>
        <time>2025-04-30T07:00:05.547Z</time>
      </trkpt>
      <trkpt lat="47.8092" lon="6.56538">
        <ele>490.46</ele>
        <time>2025-04-30T07:00:08.653Z</time>
      </trkpt>
      <trkpt lat="47.80918" lon="6.56529">
        <ele>490.63</ele>
        <time>2025-04-30T07:00:11.761Z</time>
      </trkpt>
      <trkpt lat="47.80918" lon="6.5652">
        <ele>490.8</ele>
        <time>2025-04-30T07:00:14.870Z</time>
      </trkpt>
      <trkpt lat="47.80919" lon="6.56511">
        <ele>490.93</ele>
        <time>2025-04-30T07:00:17.980Z</time>
      </trkpt>
      <trkpt lat="47.80919" lon="6.565">
        <ele>491.05</ele>
        <time>2025-04-30T07:00:21.092Z</time>
      </trkpt>
      <trkpt lat="47.80918" lon="6.56491">
        <ele>491.17</ele>
        <time>2025-04-30T07:00:24.205Z</time>
      </trkpt>
      <trkpt lat="47.80915" lon="6.56481">
        <ele>491.27</ele>
        <time>2025-04-30T07:00:27.320Z</time>
      </trkpt>
      <trkpt lat="47.80913" lon="6.56473">
        <ele>491.36</ele>
        <time>2025-04-30T07:00:30.436Z</time>
      </trkpt>
      <trkpt lat="47.80908" lon="6.56467">
        <ele>491.43</ele>
        <time>2025-04-30T07:00:33.553Z</time>
      </trkpt>
      <trkpt lat="47.80903" lon="6.56463">
        <ele>491.49</ele>
        <time>2025-04-30T07:00:36.672Z</time>
      </trkpt>
      <trkpt lat="47.80896" lon="6.56458">
        <ele>491.52</ele>
        <time>2025-04-30T07:00:39.792Z</time>
      </trkpt>
      <trkpt lat="47.80891" lon="6.56456">
        <ele>491.51</ele>
        <time>2025-04-30T07:00:42.913Z</time>
      </trkpt>
      <trkpt lat="47.80886" lon="6.56456">
        <ele>491.48</ele>
        <time>2025-04-30T07:00:46.035Z</time>
      </trkpt>
      <trkpt lat="47.80882" lon="6.56458">
        <ele>491.41</ele>
        <time>2025-04-30T07:00:49.158Z</time>
      </trkpt>
      <trkpt lat="47.80877" lon="6.56461">
        <ele>491.31</ele>
        <time>2025-04-30T07:00:52.282Z</time>
      </trkpt>
      <trkpt lat="47.80872" lon="6.56464">
        <ele>491.19</ele>
        <time>2025-04-30T07:00:55.408Z</time>
      </trkpt>
      <trkpt lat="47.80867" lon="6.56468">
        <ele>491.04</ele>
        <time>2025-04-30T07:00:58.535Z</time>
      </trkpt>
      <trkpt lat="47.80863" lon="6.5647">
        <ele>490.86</ele>
        <time>2025-04-30T07:01:01.663Z</time>
      </trkpt>
      <trkpt lat="47.80858" lon="6.56472">
        <ele>490.65</ele>
        <time>2025-04-30T07:01:04.792Z</time>
      </trkpt>
      <trkpt lat="47.80853" lon="6.56476">
        <ele>490.42</ele>
        <time>2025-04-30T07:01:07.922Z</time>
      </trkpt>
      <trkpt lat="47.80849" lon="6.56479">
        <ele>490.17</ele>
        <time>2025-04-30T07:01:11.053Z</time>
      </trkpt>
      <trkpt lat="47.80845" lon="6.56482">
        <ele>489.89</ele>
        <time>2025-04-30T07:01:14.185Z</time>
      </trkpt>
      <trkpt lat="47.80831" lon="6.56493">
        <ele>489.56</ele>
        <time>2025-04-30T07:01:17.320Z</time>
      </trkpt>
      <trkpt lat="47.80823" lon="6.56502">
        <ele>489.21</ele>
        <time>2025-04-30T07:01:20.458Z</time>
      </trkpt>
      <trkpt lat="47.80811" lon="6.56511">
        <ele>488.82</ele>
        <time>2025-04-30T07:01:23.598Z</time>
      </trkpt>
      <trkpt lat="47.80794" lon="6.56528">
        <ele>488.37</ele>
        <time>2025-04-30T07:01:26.743Z</time>
      </trkpt>
      <trkpt lat="47.80788" lon="6.56533">
        <ele>487.96</ele>
        <time>2025-04-30T07:01:29.889Z</time>
      </trkpt>
      <trkpt lat="47.80783" lon="6.56538">
        <ele>487.54</ele>
        <time>2025-04-30T07:01:33.037Z</time>
      </trkpt>
      <trkpt lat="47.80773" lon="6.56548">
        <ele>487.09</ele>
        <time>2025-04-30T07:01:36.187Z</time>
      </trkpt>
      <trkpt lat="47.80763" lon="6.56551">
        <ele>486.64</ele>
        <time>2025-04-30T07:01:39.339Z</time>
      </trkpt>
      <trkpt lat="47.80758" lon="6.56553">
        <ele>486.17</ele>
        <time>2025-04-30T07:01:42.492Z</time>
      </trkpt>
      <trkpt lat="47.80753" lon="6.56556">
        <ele>485.68</ele>
        <time>2025-04-30T07:01:45.646Z</time>
      </trkpt>
      <trkpt lat="47.80749" lon="6.56558">
        <ele>485.18</ele>
        <time>2025-04-30T07:01:48.801Z</time>
      </trkpt>
      <trkpt lat="47.80745" lon="6.56559">
        <ele>484.66</ele>
        <time>2025-04-30T07:01:51.957Z</time>
      </trkpt>
      <trkpt lat="47.8074" lon="6.56559">
        <ele>484.13</ele>
        <time>2025-04-30T07:01:55.114Z</time>
      </trkpt>
      <trkpt lat="47.80735" lon="6.56559">
        <ele>483.59</ele>
        <time>2025-04-30T07:01:58.273Z</time>
      </trkpt>
      <trkpt lat="47.80724" lon="6.56558">
        <ele>483.03</ele>
        <time>2025-04-30T07:02:01.434Z</time>
      </trkpt>
      <trkpt lat="47.80706" lon="6.56559">
        <ele>482.43</ele>
        <time>2025-04-30T07:02:04.599Z</time>
      </trkpt>
      <trkpt lat="47.80695" lon="6.56556">
        <ele>481.85</ele>
        <time>2025-04-30T07:02:07.766Z</time>
      </trkpt>
      <trkpt lat="47.8069" lon="6.56554">
        <ele>481.27</ele>
        <time>2025-04-30T07:02:10.934Z</time>
      </trkpt>
      <trkpt lat="47.80686" lon="6.56552">
        <ele>480.68</ele>
        <time>2025-04-30T07:02:14.103Z</time>
      </trkpt>
      <trkpt lat="47.80684" lon="6.56549">
        <ele>480.09</ele>
        <time>2025-04-30T07:02:17.273Z</time>
      </trkpt>
      <trkpt lat="47.80681" lon="6.56547">
        <ele>479.49</ele>
        <time>2025-04-30T07:02:20.443Z</time>
      </trkpt>
      <trkpt lat="47.80678" lon="6.56544">
        <ele>478.88</ele>
        <time>2025-04-30T07:02:23.614Z</time>
      </trkpt>
      <trkpt lat="47.80674" lon="6.56542">
        <ele>478.26</ele>
        <time>2025-04-30T07:02:26.786Z</time>
      </trkpt>
      <trkpt lat="47.8067" lon="6.5654">
        <ele>477.64</ele>
        <time>2025-04-30T07:02:29.959Z</time>
      </trkpt>
      <trkpt lat="47.80658" lon="6.56533">
        <ele>477</ele>
        <time>2025-04-30T07:02:33.135Z</time>
      </trkpt>
      <trkpt lat="47.80648" lon="6.56531">
        <ele>476.36</ele>
        <time>2025-04-30T07:02:36.313Z</time>
      </trkpt>
      <trkpt lat="47.80638" lon="6.56531">
        <ele>475.69</ele>
        <time>2025-04-30T07:02:39.493Z</time>
      </trkpt>
      <trkpt lat="47.80632" lon="6.5653">
        <ele>475.03</ele>
        <time>2025-04-30T07:02:42.674Z</time>
      </trkpt>
      <trkpt lat="47.8062" lon="6.56527">
        <ele>474.36</ele>
        <time>2025-04-30T07:02:45.858Z</time>
      </trkpt>
      <trkpt lat="47.80614" lon="6.56528">
        <ele>473.67</ele>
        <time>2025-04-30T07:02:49.043Z</time>
      </trkpt>
      <trkpt lat="47.80609" lon="6.56532">
        <ele>472.97</ele>
        <time>2025-04-30T07:02:52.229Z</time>
      </trkpt>
      <trkpt lat="47.80604" lon="6.56536">
        <ele>472.25</ele>
        <time>2025-04-30T07:02:55.417Z</time>
      </trkpt>
      <trkpt lat="47.80599" lon="6.56541">
        <ele>471.54</ele>
        <time>2025-04-30T07:02:58.606Z</time>
      </trkpt>
      <trkpt lat="47.80595" lon="6.56544">
        <ele>470.85</ele>
        <time>2025-04-30T07:03:01.796Z</time>
      </trkpt>
      <trkpt lat="47.8059" lon="6.56547">
        <ele>470.15</ele>
        <time>2025-04-30T07:03:04.987Z</time>
      </trkpt>
      <trkpt lat="47.80586" lon="6.56548">
        <ele>469.43</ele>
        <time>2025-04-30T07:03:08.179Z</time>
      </trkpt>
      <trkpt lat="47.80581" lon="6.56547">
        <ele>468.72</ele>
        <time>2025-04-30T07:03:11.372Z</time>
      </trkpt>
      <trkpt lat="47.80578" lon="6.56548">
        <ele>468.01</ele>
        <time>2025-04-30T07:03:14.566Z</time>
      </trkpt>
      <trkpt lat="47.80576" lon="6.56547">
        <ele>467.31</ele>
        <time>2025-04-30T07:03:17.760Z</time>
      </trkpt>
      <trkpt lat="47.80572" lon="6.56543">
        <ele>466.61</ele>
        <time>2025-04-30T07:03:20.955Z</time>
      </trkpt>
      <trkpt lat="47.80568" lon="6.56541">
        <ele>465.91</ele>
        <time>2025-04-30T07:03:24.151Z</time>
      </trkpt>
      <trkpt lat="47.80562" lon="6.56538">
        <ele>465.2</ele>
        <time>2025-04-30T07:03:27.349Z</time>
      </trkpt>
      <trkpt lat="47.80556" lon="6.56536">
        <ele>464.48</ele>
        <time>2025-04-30T07:03:30.548Z</time>
      </trkpt>
      <trkpt lat="47.80547" lon="6.56528">
        <ele>463.76</ele>
        <time>2025-04-30T07:03:33.749Z</time>
      </trkpt>
      <trkpt lat="47.80544" lon="6.56524">
        <ele>463.09</ele>
        <time>2025-04-30T07:03:36.951Z</time>
      </trkpt>
      <trkpt lat="47.80542" lon="6.5652">
        <ele>462.44</ele>
        <time>2025-04-30T07:03:40.154Z</time>
      </trkpt>
      <trkpt lat="47.80539" lon="6.56517">
        <ele>461.79</ele>
        <time>2025-04-30T07:03:43.357Z</time>
      </trkpt>
      <trkpt lat="47.80536" lon="6.56512">
        <ele>461.16</ele>
        <time>2025-04-30T07:03:46.561Z</time>
      </trkpt>
      <trkpt lat="47.80533" lon="6.56506">
        <ele>460.55</ele>
        <time>2025-04-30T07:03:49.766Z</time>
      </trkpt>
      <trkpt lat="47.80521" lon="6.5649">
        <ele>459.9</ele>
        <time>2025-04-30T07:03:52.975Z</time>
      </trkpt>
      <trkpt lat="47.80518" lon="6.56484">
        <ele>459.32</ele>
        <time>2025-04-30T07:03:56.185Z</time>
      </trkpt>
      <trkpt lat="47.80514" lon="6.56479">
        <ele>458.75</ele>
        <time>2025-04-30T07:03:59.396Z</time>
      </trkpt>
      <trkpt lat="47.80511" lon="6.56474">
        <ele>458.2</ele>
        <time>2025-04-30T07:04:02.608Z</time>
      </trkpt>
      <trkpt lat="47.80508" lon="6.5647">
        <ele>457.68</ele>
        <time>2025-04-30T07:04:05.821Z</time>
      </trkpt>
      <trkpt lat="47.80499" lon="6.56455">
        <ele>457.14</ele>
        <time>2025-04-30T07:04:09.037Z</time>
      </trkpt>
      <trkpt lat="47.80496" lon="6.56451">
        <ele>456.67</ele>
        <time>2025-04-30T07:04:12.254Z</time>
      </trkpt>
      <trkpt lat="47.80494" lon="6.56448">
        <ele>456.22</ele>
        <time>2025-04-30T07:04:15.471Z</time>
      </trkpt>
      <trkpt lat="47.80491" lon="6.56445">
        <ele>455.78</ele>
        <time>2025-04-30T07:04:18.689Z</time>
      </trkpt>
      <trkpt lat="47.8049" lon="6.56443">
        <ele>455.38</ele>
        <time>2025-04-30T07:04:21.907Z</time>
      </trkpt>
      <trkpt lat="47.80488" lon="6.56439">
        <ele>455</ele>
        <time>2025-04-30T07:04:25.126Z</time>
      </trkpt>
      <trkpt lat="47.80485" lon="6.56436">
        <ele>454.65</ele>
        <time>2025-04-30T07:04:28.346Z</time>
      </trkpt>
      <trkpt lat="47.80481" lon="6.56432">
        <ele>454.3</ele>
        <time>2025-04-30T07:04:31.567Z</time>
      </trkpt>
      <trkpt lat="47.80471" lon="6.56414">
        <ele>454.02</ele>
        <time>2025-04-30T07:04:34.791Z</time>
      </trkpt>
      <trkpt lat="47.80468" lon="6.56408">
        <ele>453.76</ele>
        <time>2025-04-30T07:04:38.016Z</time>
      </trkpt>
      <trkpt lat="47.80464" lon="6.56396">
        <ele>453.54</ele>
        <time>2025-04-30T07:04:41.243Z</time>
      </trkpt>
      <trkpt lat="47.80463" lon="6.56392">
        <ele>453.34</ele>
        <time>2025-04-30T07:04:44.471Z</time>
      </trkpt>
      <trkpt lat="47.8046" lon="6.56388">
        <ele>453.16</ele>
        <time>2025-04-30T07:04:47.700Z</time>
      </trkpt>
      <trkpt lat="47.80456" lon="6.56384">
        <ele>453.02</ele>
        <time>2025-04-30T07:04:50.930Z</time>
      </trkpt>
      <trkpt lat="47.80453" lon="6.56379">
        <ele>452.9</ele>
        <time>2025-04-30T07:04:54.161Z</time>
      </trkpt>
      <trkpt lat="47.80451" lon="6.56375">
        <ele>452.81</ele>
        <time>2025-04-30T07:04:57.392Z</time>
      </trkpt>
      <trkpt lat="47.80446" lon="6.56365">
        <ele>452.76</ele>
        <time>2025-04-30T07:05:00.625Z</time>
      </trkpt>
      <trkpt lat="47.80441" lon="6.56347">
        <ele>452.74</ele>
        <time>2025-04-30T07:05:03.861Z</time>
      </trkpt>
      <trkpt lat="47.80439" lon="6.56341">
        <ele>452.74</ele>
        <time>2025-04-30T07:05:07.098Z</time>
      </trkpt>
      <trkpt lat="47.80436" lon="6.5633">
        <ele>452.76</ele>
        <time>2025-04-30T07:05:10.337Z</time>
      </trkpt>
      <trkpt lat="47.80435" lon="6.56326">
        <ele>452.79</ele>
        <time>2025-04-30T07:05:13.576Z</time>
      </trkpt>
      <trkpt lat="47.80436" lon="6.5632">
        <ele>452.85</ele>
        <time>2025-04-30T07:05:16.816Z</time>
      </trkpt>
      <trkpt lat="47.80436" lon="6.56312">
        <ele>452.94</ele>
        <time>2025-04-30T07:05:20.057Z</time>
      </trkpt>
      <trkpt lat="47.80436" lon="6.56301">
        <ele>453.05</ele>
        <time>2025-04-30T07:05:23.300Z</time>
      </trkpt>
      <trkpt lat="47.80437" lon="6.56297">
        <ele>453.17</ele>
        <time>2025-04-30T07:05:26.543Z</time>
      </trkpt>
      <trkpt lat="47.80437" lon="6.56293">
        <ele>453.32</ele>
        <time>2025-04-30T07:05:29.787Z</time>
      </trkpt>
      <trkpt lat="47.80437" lon="6.56287">
        <ele>453.49</ele>
        <time>2025-04-30T07:05:33.032Z</time>
      </trkpt>
      <trkpt lat="47.80436" lon="6.56281">
        <ele>453.68</ele>
        <time>2025-04-30T07:05:36.278Z</time>
      </trkpt>
      <trkpt lat="47.80436" lon="6.56276">
        <ele>453.88</ele>
        <time>2025-04-30T07:05:39.525Z</time>
      </trkpt>
      <trkpt lat="47.80437" lon="6.56272">
        <ele>454.1</ele>
        <time>2025-04-30T07:05:42.772Z</time>
      </trkpt>
      <trkpt lat="47.80437" lon="6.56269">
        <ele>454.33</ele>
        <time>2025-04-30T07:05:46.020Z</time>
      </trkpt>
      <trkpt lat="47.80437" lon="6.56265">
        <ele>454.58</ele>
        <time>2025-04-30T07:05:49.268Z</time>
      </trkpt>
      <trkpt lat="47.80437" lon="6.56261">
        <ele>454.84</ele>
        <time>2025-04-30T07:05:52.517Z</time>
      </trkpt>
      <trkpt lat="47.80437" lon="6.56257">
        <ele>455.12</ele>
        <time>2025-04-30T07:05:55.766Z</time>
      </trkpt>
      <trkpt lat="47.80436" lon="6.56252">
        <ele>455.41</ele>
        <time>2025-04-30T07:05:59.016Z</time>
      </trkpt>
      <trkpt lat="47.80434" lon="6.56247">
        <ele>455.71</ele>
        <time>2025-04-30T07:06:02.267Z</time>
      </trkpt>
      <trkpt lat="47.80432" lon="6.56241">
        <ele>456.03</ele>
        <time>2025-04-30T07:06:05.519Z</time>
      </trkpt>
      <trkpt lat="47.80431" lon="6.56237">
        <ele>456.35</ele>
        <time>2025-04-30T07:06:08.772Z</time>
      </trkpt>
      <trkpt lat="47.8043" lon="6.56232">
        <ele>456.69</ele>
        <time>2025-04-30T07:06:12.025Z</time>
      </trkpt>
      <trkpt lat="47.8043" lon="6.56226">
        <ele>457.06</ele>
        <time>2025-04-30T07:06:15.279Z</time>
      </trkpt>
      <trkpt lat="47.8043" lon="6.56224">
        <ele>457.43</ele>
        <time>2025-04-30T07:06:18.534Z</time>
      </trkpt>
      <trkpt lat="47.80432" lon="6.56222">
        <ele>457.82</ele>
        <time>2025-04-30T07:06:21.789Z</time>
      </trkpt>
      <trkpt lat="47.8043" lon="6.56214">
        <ele>458.22</ele>
        <time>2025-04-30T07:06:25.045Z</time>
      </trkpt>
      <trkpt lat="47.8043" lon="6.5621">
        <ele>458.63</ele>
        <time>2025-04-30T07:06:28.302Z</time>
      </trkpt>
      <trkpt lat="47.80428" lon="6.56204">
        <ele>459.04</ele>
        <time>2025-04-30T07:06:31.560Z</time>
      </trkpt>
      <trkpt lat="47.80427" lon="6.562">
        <ele>459.47</ele>
        <time>2025-04-30T07:06:34.818Z</time>
      </trkpt>
      <trkpt lat="47.80428" lon="6.56195">
        <ele>459.91</ele>
        <time>2025-04-30T07:06:38.077Z</time>
      </trkpt>
      <trkpt lat="47.80427" lon="6.56191">
        <ele>460.36</ele>
        <time>2025-04-30T07:06:41.337Z</time>
      </trkpt>
      <trkpt lat="47.80426" lon="6.56187">
        <ele>460.82</ele>
        <time>2025-04-30T07:06:44.597Z</time>
      </trkpt>
      <trkpt lat="47.80425" lon="6.56183">
        <ele>461.29</ele>
        <time>2025-04-30T07:06:47.858Z</time>
      </trkpt>
      <trkpt lat="47.80425" lon="6.56182">
        <ele>461.76</ele>
        <time>2025-04-30T07:06:51.119Z</time>
      </trkpt>
      <trkpt lat="47.80425" lon="6.56168">
        <ele>462.27</ele>
        <time>2025-04-30T07:06:54.382Z</time>
      </trkpt>
      <trkpt lat="47.80424" lon="6.56164">
        <ele>462.77</ele>
        <time>2025-04-30T07:06:57.646Z</time>
      </trkpt>
      <trkpt lat="47.80421" lon="6.56145">
        <ele>463.31</ele>
        <time>2025-04-30T07:07:00.912Z</time>
      </trkpt>
      <trkpt lat="47.8042" lon="6.56141">
        <ele>463.82</ele>
        <time>2025-04-30T07:07:04.179Z</time>
      </trkpt>
      <trkpt lat="47.80418" lon="6.56137">
        <ele>464.33</ele>
        <time>2025-04-30T07:07:07.447Z</time>
      </trkpt>
      <trkpt lat="47.80415" lon="6.56128">
        <ele>464.87</ele>
        <time>2025-04-30T07:07:10.716Z</time>
      </trkpt>
      <trkpt lat="47.80413" lon="6.56125">
        <ele>465.39</ele>
        <time>2025-04-30T07:07:13.986Z</time>
      </trkpt>
      <trkpt lat="47.8041" lon="6.56121">
        <ele>465.92</ele>
        <time>2025-04-30T07:07:17.257Z</time>
      </trkpt>
      <trkpt lat="47.80406" lon="6.56111">
        <ele>466.48</ele>
        <time>2025-04-30T07:07:20.529Z</time>
      </trkpt>
      <trkpt lat="47.80402" lon="6.56102">
        <ele>467.04</ele>
        <time>2025-04-30T07:07:23.803Z</time>
      </trkpt>
      <trkpt lat="47.804" lon="6.56098">
        <ele>467.59</ele>
        <time>2025-04-30T07:07:27.078Z</time>
      </trkpt>
      <trkpt lat="47.80398" lon="6.56093">
        <ele>468.15</ele>
        <time>2025-04-30T07:07:30.353Z</time>
      </trkpt>
      <trkpt lat="47.80394" lon="6.56084">
        <ele>468.71</ele>
        <time>2025-04-30T07:07:33.630Z</time>
      </trkpt>
      <trkpt lat="47.80392" lon="6.5608">
        <ele>469.28</ele>
        <time>2025-04-30T07:07:36.908Z</time>
      </trkpt>
      <trkpt lat="47.8039" lon="6.56074">
        <ele>469.84</ele>
        <time>2025-04-30T07:07:40.187Z</time>
      </trkpt>
      <trkpt lat="47.80387" lon="6.5607">
        <ele>470.4</ele>
        <time>2025-04-30T07:07:43.467Z</time>
      </trkpt>
      <trkpt lat="47.80385" lon="6.56064">
        <ele>470.97</ele>
        <time>2025-04-30T07:07:46.748Z</time>
      </trkpt>
      <trkpt lat="47.80382" lon="6.56059">
        <ele>471.53</ele>
        <time>2025-04-30T07:07:50.030Z</time>
      </trkpt>
      <trkpt lat="47.8038" lon="6.56054">
        <ele>472.1</ele>
        <time>2025-04-30T07:07:53.312Z</time>
      </trkpt>
      <trkpt lat="47.80379" lon="6.56048">
        <ele>472.68</ele>
        <time>2025-04-30T07:07:56.595Z</time>
      </trkpt>
      <trkpt lat="47.80377" lon="6.56041">
        <ele>473.25</ele>
        <time>2025-04-30T07:07:59.879Z</time>
      </trkpt>
      <trkpt lat="47.80375" lon="6.56036">
        <ele>473.81</ele>
        <time>2025-04-30T07:08:03.164Z</time>
      </trkpt>
      <trkpt lat="47.80373" lon="6.56031">
        <ele>474.37</ele>
        <time>2025-04-30T07:08:06.450Z</time>
      </trkpt>
      <trkpt lat="47.80371" lon="6.56026">
        <ele>474.92</ele>
        <time>2025-04-30T07:08:09.737Z</time>
      </trkpt>
      <trkpt lat="47.80369" lon="6.56021">
        <ele>475.47</ele>
        <time>2025-04-30T07:08:13.025Z</time>
      </trkpt>
      <trkpt lat="47.80368" lon="6.56015">
        <ele>476.01</ele>
        <time>2025-04-30T07:08:16.314Z</time>
      </trkpt>
      <trkpt lat="47.80368" lon="6.56009">
        <ele>476.55</ele>
        <time>2025-04-30T07:08:19.603Z</time>
      </trkpt>
      <trkpt lat="47.80367" lon="6.56005">
        <ele>477.07</ele>
        <time>2025-04-30T07:08:22.893Z</time>
      </trkpt>
      <trkpt lat="47.80365" lon="6.56">
        <ele>477.59</ele>
        <time>2025-04-30T07:08:26.184Z</time>
      </trkpt>
      <trkpt lat="47.80363" lon="6.55995">
        <ele>478.09</ele>
        <time>2025-04-30T07:08:29.476Z</time>
      </trkpt>
      <trkpt lat="47.80362" lon="6.5599">
        <ele>478.59</ele>
        <time>2025-04-30T07:08:32.769Z</time>
      </trkpt>
      <trkpt lat="47.80361" lon="6.55985">
        <ele>479.07</ele>
        <time>2025-04-30T07:08:36.062Z</time>
      </trkpt>
      <trkpt lat="47.80359" lon="6.55981">
        <ele>479.55</ele>
        <time>2025-04-30T07:08:39.356Z</time>
      </trkpt>
      <trkpt lat="47.80358" lon="6.55977">
        <ele>480.02</ele>
        <time>2025-04-30T07:08:42.651Z</time>
      </trkpt>
      <trkpt lat="47.80356" lon="6.55972">
        <ele>480.48</ele>
        <time>2025-04-30T07:08:45.946Z</time>
      </trkpt>
      <trkpt lat="47.80354" lon="6.55968">
        <ele>480.94</ele>
        <time>2025-04-30T07:08:49.242Z</time>
      </trkpt>
      <trkpt lat="47.80353" lon="6.55963">
        <ele>481.39</ele>
        <time>2025-04-30T07:08:52.539Z</time>
      </trkpt>
      <trkpt lat="47.80352" lon="6.55958">
        <ele>481.83</ele>
        <time>2025-04-30T07:08:55.837Z</time>
      </trkpt>
      <trkpt lat="47.80351" lon="6.55954">
        <ele>482.27</ele>
        <time>2025-04-30T07:08:59.135Z</time>
      </trkpt>
      <trkpt lat="47.8035" lon="6.55949">
        <ele>482.7</ele>
        <time>2025-04-30T07:09:02.434Z</time>
      </trkpt>
      <trkpt lat="47.80349" lon="6.55945">
        <ele>483.12</ele>
        <time>2025-04-30T07:09:05.734Z</time>
      </trkpt>
      <trkpt lat="47.80347" lon="6.5594">
        <ele>483.53</ele>
        <time>2025-04-30T07:09:09.034Z</time>
      </trkpt>
      <trkpt lat="47.80346" lon="6.55936">
        <ele>483.94</ele>
        <time>2025-04-30T07:09:12.335Z</time>
      </trkpt>
      <trkpt lat="47.80345" lon="6.55932">
        <ele>484.34</ele>
        <time>2025-04-30T07:09:15.637Z</time>
      </trkpt>
      <trkpt lat="47.80344" lon="6.55928">
        <ele>484.73</ele>
        <time>2025-04-30T07:09:18.939Z</time>
      </trkpt>
      <trkpt lat="47.80342" lon="6.55924">
        <ele>485.11</ele>
        <time>2025-04-30T07:09:22.242Z</time>
      </trkpt>
      <trkpt lat="47.80341" lon="6.5592">
        <ele>485.49</ele>
        <time>2025-04-30T07:09:25.546Z</time>
      </trkpt>
      <trkpt lat="47.8034" lon="6.55916">
        <ele>485.87</ele>
        <time>2025-04-30T07:09:28.850Z</time>
      </trkpt>
      <trkpt lat="47.80338" lon="6.55912">
        <ele>486.24</ele>
        <time>2025-04-30T07:09:32.155Z</time>
      </trkpt>
      <trkpt lat="47.80336" lon="6.55907">
        <ele>486.6</ele>
        <time>2025-04-30T07:09:35.461Z</time>
      </trkpt>
      <trkpt lat="47.80335" lon="6.55903">
        <ele>486.95</ele>
        <time>2025-04-30T07:09:38.767Z</time>
      </trkpt>
      <trkpt lat="47.80333" lon="6.55899">
        <ele>487.3</ele>
        <time>2025-04-30T07:09:42.074Z</time>
      </trkpt>
      <trkpt lat="47.80333" lon="6.55895">
        <ele>487.65</ele>
        <time>2025-04-30T07:09:45.382Z</time>
      </trkpt>
      <trkpt lat="47.80332" lon="6.55891">
        <ele>487.99</ele>
        <time>2025-04-30T07:09:48.690Z</time>
      </trkpt>
      <trkpt lat="47.80332" lon="6.55888">
        <ele>488.32</ele>
        <time>2025-04-30T07:09:51.999Z</time>
      </trkpt>
      <trkpt lat="47.80331" lon="6.55884">
        <ele>488.65</ele>
        <time>2025-04-30T07:09:55.308Z</time>
      </trkpt>
      <trkpt lat="47.80329" lon="6.55879">
        <ele>488.97</ele>
        <time>2025-04-30T07:09:58.618Z</time>
      </trkpt>
      <trkpt lat="47.80327" lon="6.55873">
        <ele>489.29</ele>
        <time>2025-04-30T07:10:01.929Z</time>
      </trkpt>
      <trkpt lat="47.80325" lon="6.55866">
        <ele>489.61</ele>
        <time>2025-04-30T07:10:05.241Z</time>
      </trkpt>
      <trkpt lat="47.80323" lon="6.55861">
        <ele>489.91</ele>
        <time>2025-04-30T07:10:08.554Z</time>
      </trkpt>
      <trkpt lat="47.80321" lon="6.55854">
        <ele>490.2</ele>
        <time>2025-04-30T07:10:11.868Z</time>
      </trkpt>
      <trkpt lat="47.8032" lon="6.55848">
        <ele>490.49</ele>
        <time>2025-04-30T07:10:15.183Z</time>
      </trkpt>
      <trkpt lat="47.8032" lon="6.55843">
        <ele>490.77</ele>
        <time>2025-04-30T07:10:18.499Z</time>
      </trkpt>
      <trkpt lat="47.80318" lon="6.55838">
        <ele>491.04</ele>
        <time>2025-04-30T07:10:21.816Z</time>
      </trkpt>
      <trkpt lat="47.80315" lon="6.55831">
        <ele>491.3</ele>
        <time>2025-04-30T07:10:25.134Z</time>
      </trkpt>
      <trkpt lat="47.80313" lon="6.55826">
        <ele>491.56</ele>
        <time>2025-04-30T07:10:28.453Z</time>
      </trkpt>
      <trkpt lat="47.80311" lon="6.55819">
        <ele>491.81</ele>
        <time>2025-04-30T07:10:31.773Z</time>
      </trkpt>
      <trkpt lat="47.80309" lon="6.55811">
        <ele>492.05</ele>
        <time>2025-04-30T07:10:35.094Z</time>
      </trkpt>
      <trkpt lat="47.80308" lon="6.55804">
        <ele>492.29</ele>
        <time>2025-04-30T07:10:38.416Z</time>
      </trkpt>
      <trkpt lat="47.80307" lon="6.55797">
        <ele>492.53</ele>
        <time>2025-04-30T07:10:41.739Z</time>
      </trkpt>
      <trkpt lat="47.80306" lon="6.55791">
        <ele>492.75</ele>
        <time>2025-04-30T07:10:45.063Z</time>
      </trkpt>
      <trkpt lat="47.80303" lon="6.55785">
        <ele>492.96</ele>
        <time>2025-04-30T07:10:48.388Z</time>
      </trkpt>
      <trkpt lat="47.803" lon="6.5578">
        <ele>493.17</ele>
        <time>2025-04-30T07:10:51.714Z</time>
      </trkpt>
      <trkpt lat="47.80298" lon="6.55774">
        <ele>493.37</ele>
        <time>2025-04-30T07:10:55.041Z</time>
      </trkpt>
      <trkpt lat="47.80296" lon="6.55768">
        <ele>493.56</ele>
        <time>2025-04-30T07:10:58.369Z</time>
      </trkpt>
      <trkpt lat="47.80294" lon="6.55762">
        <ele>493.75</ele>
        <time>2025-04-30T07:11:01.698Z</time>
      </trkpt>
      <trkpt lat="47.80291" lon="6.55757">
        <ele>493.93</ele>
        <time>2025-04-30T07:11:05.028Z</time>
      </trkpt>
      <trkpt lat="47.8029" lon="6.55753">
        <ele>494.09</ele>
        <time>2025-04-30T07:11:08.358Z</time>
      </trkpt>
      <trkpt lat="47.80289" lon="6.55748">
        <ele>494.25</ele>
        <time>2025-04-30T07:11:11.689Z</time>
      </trkpt>
      <trkpt lat="47.80286" lon="6.55743">
        <ele>494.4</ele>
        <time>2025-04-30T07:11:15.021Z</time>
      </trkpt>
      <trkpt lat="47.80285" lon="6.55739">
        <ele>494.54</ele>
        <time>2025-04-30T07:11:18.354Z</time>
      </trkpt>
      <trkpt lat="47.80285" lon="6.55734">
        <ele>494.67</ele>
        <time>2025-04-30T07:11:21.687Z</time>
      </trkpt>
      <trkpt lat="47.80284" lon="6.55729">
        <ele>494.79</ele>
        <time>2025-04-30T07:11:25.021Z</time>
      </trkpt>
      <trkpt lat="47.80283" lon="6.55723">
        <ele>494.91</ele>
        <time>2025-04-30T07:11:28.356Z</time>
      </trkpt>
      <trkpt lat="47.80282" lon="6.55719">
        <ele>495.03</ele>
        <time>2025-04-30T07:11:31.692Z</time>
      </trkpt>
      <trkpt lat="47.80279" lon="6.55715">
        <ele>495.14</ele>
        <time>2025-04-30T07:11:35.028Z</time>
      </trkpt>
      <trkpt lat="47.80277" lon="6.55709">
        <ele>495.24</ele>
        <time>2025-04-30T07:11:38.365Z</time>
      </trkpt>
      <trkpt lat="47.80276" lon="6.55705">
        <ele>495.33</ele>
        <time>2025-04-30T07:11:41.703Z</time>
      </trkpt>
      <trkpt lat="47.80273" lon="6.557">
        <ele>495.42</ele>
        <time>2025-04-30T07:11:45.042Z</time>
      </trkpt>
      <trkpt lat="47.80272" lon="6.55696">
        <ele>495.51</ele>
        <time>2025-04-30T07:11:48.382Z</time>
      </trkpt>
      <trkpt lat="47.8027" lon="6.55693">
        <ele>495.59</ele>
        <time>2025-04-30T07:11:51.722Z</time>
      </trkpt>
      <trkpt lat="47.80268" lon="6.5569">
        <ele>495.67</ele>
        <time>2025-04-30T07:11:55.063Z</time>
      </trkpt>
      <trkpt lat="47.80266" lon="6.55685">
        <ele>495.75</ele>
        <time>2025-04-30T07:11:58.405Z</time>
      </trkpt>
      <trkpt lat="47.80263" lon="6.55681">
        <ele>495.82</ele>
        <time>2025-04-30T07:12:01.748Z</time>
      </trkpt>
      <trkpt lat="47.8026" lon="6.55678">
        <ele>495.88</ele>
        <time>2025-04-30T07:12:05.091Z</time>
      </trkpt>
      <trkpt lat="47.80257" lon="6.55674">
        <ele>495.94</ele>
        <time>2025-04-30T07:12:08.435Z</time>
      </trkpt>
      <trkpt lat="47.80255" lon="6.55669">
        <ele>496</ele>
        <time>2025-04-30T07:12:11.780Z</time>
      </trkpt>
      <trkpt lat="47.80252" lon="6.55665">
        <ele>496.05</ele>
        <time>2025-04-30T07:12:15.126Z</time>
      </trkpt>
      <trkpt lat="47.8025" lon="6.55659">
        <ele>496.1</ele>
        <time>2025-04-30T07:12:18.473Z</time>
      </trkpt>
      <trkpt lat="47.80248" lon="6.55654">
        <ele>496.14</ele>
        <time>2025-04-30T07:12:21.821Z</time>
      </trkpt>
      <trkpt lat="47.80245" lon="6.55649">
        <ele>496.17</ele>
        <time>2025-04-30T07:12:25.170Z</time>
      </trkpt>
      <trkpt lat="47.80243" lon="6.55645">
        <ele>496.21</ele>
        <time>2025-04-30T07:12:28.519Z</time>
      </trkpt>
      <trkpt lat="47.80241" lon="6.5564">
        <ele>496.23</ele>
        <time>2025-04-30T07:12:31.869Z</time>
      </trkpt>
      <trkpt lat="47.80239" lon="6.55635">
        <ele>496.26</ele>
        <time>2025-04-30T07:12:35.220Z</time>
      </trkpt>
      <trkpt lat="47.80237" lon="6.5563">
        <ele>496.29</ele>
        <time>2025-04-30T07:12:38.572Z</time>
      </trkpt>
      <trkpt lat="47.80234" lon="6.55625">
        <ele>496.31</ele>
        <time>2025-04-30T07:12:41.925Z</time>
      </trkpt>
      <trkpt lat="47.80232" lon="6.55619">
        <ele>496.33</ele>
        <time>2025-04-30T07:12:45.279Z</time>
      </trkpt>
      <trkpt lat="47.80231" lon="6.55613">
        <ele>496.35</ele>
        <time>2025-04-30T07:12:48.634Z</time>
      </trkpt>
      <trkpt lat="47.8023" lon="6.55608">
        <ele>496.35</ele>
        <time>2025-04-30T07:12:51.989Z</time>
      </trkpt>
      <trkpt lat="47.80228" lon="6.55602">
        <ele>496.34</ele>
        <time>2025-04-30T07:12:55.345Z</time>
      </trkpt>
      <trkpt lat="47.80226" lon="6.55596">
        <ele>496.33</ele>
        <time>2025-04-30T07:12:58.702Z</time>
      </trkpt>
      <trkpt lat="47.80223" lon="6.55586">
        <ele>496.31</ele>
        <time>2025-04-30T07:13:02.061Z</time>
      </trkpt>
      <trkpt lat="47.80222" lon="6.55577">
        <ele>496.3</ele>
        <time>2025-04-30T07:13:05.421Z</time>
      </trkpt>
      <trkpt lat="47.80221" lon="6.5557">
        <ele>496.29</ele>
        <time>2025-04-30T07:13:08.782Z</time>
      </trkpt>
      <trkpt lat="47.8022" lon="6.55562">
        <ele>496.27</ele>
        <time>2025-04-30T07:13:12.144Z</time>
      </trkpt>
      <trkpt lat="47.80219" lon="6.55556">
        <ele>496.25</ele>
        <time>2025-04-30T07:13:15.507Z</time>
      </trkpt>
      <trkpt lat="47.80218" lon="6.5555">
        <ele>496.23</ele>
        <time>2025-04-30T07:13:18.871Z</time>
      </trkpt>
      <trkpt lat="47.80216" lon="6.55543">
        <ele>496.2</ele>
        <time>2025-04-30T07:13:22.236Z</time>
      </trkpt>
      <trkpt lat="47.80216" lon="6.55537">
        <ele>496.16</ele>
        <time>2025-04-30T07:13:25.602Z</time>
      </trkpt>
      <trkpt lat="47.80218" lon="6.55529">
        <ele>496.12</ele>
        <time>2025-04-30T07:13:28.969Z</time>
      </trkpt>
      <trkpt lat="47.8022" lon="6.55521">
        <ele>496.08</ele>
        <time>2025-04-30T07:13:32.338Z</time>
      </trkpt>
      <trkpt lat="47.80222" lon="6.55512">
        <ele>496.03</ele>
        <time>2025-04-30T07:13:35.708Z</time>
      </trkpt>
      <trkpt lat="47.80222" lon="6.55502">
        <ele>495.96</ele>
        <time>2025-04-30T07:13:39.079Z</time>
      </trkpt>
      <trkpt lat="47.80222" lon="6.55492">
        <ele>495.92</ele>
        <time>2025-04-30T07:13:42.452Z</time>
      </trkpt>
      <trkpt lat="47.80221" lon="6.55483">
        <ele>495.85</ele>
        <time>2025-04-30T07:13:45.826Z</time>
      </trkpt>
      <trkpt lat="47.80222" lon="6.55476">
        <ele>495.77</ele>
        <time>2025-04-30T07:13:49.201Z</time>
      </trkpt>
      <trkpt lat="47.80222" lon="6.55468">
        <ele>495.7</ele>
        <time>2025-04-30T07:13:52.577Z</time>
      </trkpt>
      <trkpt lat="47.80222" lon="6.55462">
        <ele>495.63</ele>
        <time>2025-04-30T07:13:55.954Z</time>
      </trkpt>
      <trkpt lat="47.80222" lon="6.5546">
        <ele>495.56</ele>
        <time>2025-04-30T07:13:59.331Z</time>
      </trkpt>
      <trkpt lat="47.80221" lon="6.55474">
        <ele>495.48</ele>
        <time>2025-04-30T07:14:02.710Z</time>
      </trkpt>
      <trkpt lat="47.80219" lon="6.55501">
        <ele>495.41</ele>
        <time>2025-04-30T07:14:06.093Z</time>
      </trkpt>
      <trkpt lat="47.80218" lon="6.55505">
        <ele>495.33</ele>
        <time>2025-04-30T07:14:09.477Z</time>
      </trkpt>
      <trkpt lat="47.80216" lon="6.55508">
        <ele>495.25</ele>
        <time>2025-04-30T07:14:12.862Z</time>
      </trkpt>
      <trkpt lat="47.80214" lon="6.55511">
        <ele>495.17</ele>
        <time>2025-04-30T07:14:16.247Z</time>
      </trkpt>
      <trkpt lat="47.80211" lon="6.55512">
        <ele>495.07</ele>
        <time>2025-04-30T07:14:19.633Z</time>
      </trkpt>
      <trkpt lat="47.80209" lon="6.55512">
        <ele>494.98</ele>
        <time>2025-04-30T07:14:23.019Z</time>
      </trkpt>
      <trkpt lat="47.80205" lon="6.55512">
        <ele>494.88</ele>
        <time>2025-04-30T07:14:26.406Z</time>
      </trkpt>
      <trkpt lat="47.80203" lon="6.55512">
        <ele>494.78</ele>
        <time>2025-04-30T07:14:29.794Z</time>
      </trkpt>
      <trkpt lat="47.80201" lon="6.55513">
        <ele>494.68</ele>
        <time>2025-04-30T07:14:33.182Z</time>
      </trkpt>
      <trkpt lat="47.80198" lon="6.55513">
        <ele>494.59</ele>
        <time>2025-04-30T07:14:36.571Z</time>
      </trkpt>
      <trkpt lat="47.80195" lon="6.55512">
        <ele>494.49</ele>
        <time>2025-04-30T07:14:39.960Z</time>
      </trkpt>
      <trkpt lat="47.80193" lon="6.5551">
        <ele>494.39</ele>
        <time>2025-04-30T07:14:43.350Z</time>
      </trkpt>
      <trkpt lat="47.8019" lon="6.55509">
        <ele>494.3</ele>
        <time>2025-04-30T07:14:46.740Z</time>
      </trkpt>
      <trkpt lat="47.80187" lon="6.55505">
        <ele>494.2</ele>
        <time>2025-04-30T07:14:50.131Z</time>
      </trkpt>
      <trkpt lat="47.80184" lon="6.555">
        <ele>494.1</ele>
        <time>2025-04-30T07:14:53.523Z</time>
      </trkpt>
      <trkpt lat="47.80182" lon="6.55495">
        <ele>494.01</ele>
        <time>2025-04-30T07:14:56.916Z</time>
      </trkpt>
      <trkpt lat="47.80176" lon="6.55486">
        <ele>493.92</ele>
        <time>2025-04-30T07:15:00.311Z</time>
      </trkpt>
      <trkpt lat="47.80174" lon="6.55482">
        <ele>493.83</ele>
        <time>2025-04-30T07:15:03.707Z</time>
      </trkpt>
      <trkpt lat="47.8017" lon="6.55475">
        <ele>493.73</ele>
        <time>2025-04-30T07:15:07.104Z</time>
      </trkpt>
      <trkpt lat="47.80168" lon="6.55472">
        <ele>493.65</ele>
        <time>2025-04-30T07:15:10.502Z</time>
      </trkpt>
      <trkpt lat="47.80165" lon="6.55469">
        <ele>493.57</ele>
        <time>2025-04-30T07:15:13.900Z</time>
      </trkpt>
      <trkpt lat="47.80161" lon="6.55464">
        <ele>493.49</ele>
        <time>2025-04-30T07:15:17.299Z</time>
      </trkpt>
      <trkpt lat="47.80159" lon="6.55459">
        <ele>493.43</ele>
        <time>2025-04-30T07:15:20.699Z</time>
      </trkpt>
      <trkpt lat="47.80158" lon="6.55456">
        <ele>493.37</ele>
        <time>2025-04-30T07:15:24.100Z</time>
      </trkpt>
      <trkpt lat="47.80155" lon="6.55453">
        <ele>493.3</ele>
        <time>2025-04-30T07:15:27.502Z</time>
      </trkpt>
      <trkpt lat="47.80151" lon="6.5545">
        <ele>493.24</ele>
        <time>2025-04-30T07:15:30.905Z</time>
      </trkpt>
      <trkpt lat="47.80148" lon="6.55446">
        <ele>493.19</ele>
        <time>2025-04-30T07:15:34.308Z</time>
      </trkpt>
      <trkpt lat="47.80145" lon="6.55441">
        <ele>493.14</ele>
        <time>2025-04-30T07:15:37.712Z</time>
      </trkpt>
      <trkpt lat="47.80135" lon="6.55429">
        <ele>493.09</ele>
        <time>2025-04-30T07:15:41.119Z</time>
      </trkpt>
      <trkpt lat="47.80132" lon="6.55428">
        <ele>493.03</ele>
        <time>2025-04-30T07:15:44.527Z</time>
      </trkpt>
      <trkpt lat="47.80128" lon="6.55428">
        <ele>492.98</ele>
        <time>2025-04-30T07:15:47.936Z</time>
      </trkpt>
      <trkpt lat="47.80125" lon="6.55427">
        <ele>492.94</ele>
        <time>2025-04-30T07:15:51.345Z</time>
      </trkpt>
      <trkpt lat="47.80123" lon="6.55424">
        <ele>492.91</ele>
        <time>2025-04-30T07:15:54.755Z</time>
      </trkpt>
      <trkpt lat="47.80119" lon="6.55418">
        <ele>492.89</ele>
        <time>2025-04-30T07:15:58.166Z</time>
      </trkpt>
      <trkpt lat="47.80117" lon="6.55415">
        <ele>492.88</ele>
        <time>2025-04-30T07:16:01.578Z</time>
      </trkpt>
      <trkpt lat="47.80115" lon="6.55412">
        <ele>492.88</ele>
        <time>2025-04-30T07:16:04.990Z</time>
      </trkpt>
      <trkpt lat="47.80113" lon="6.55409">
        <ele>492.88</ele>
        <time>2025-04-30T07:16:08.403Z</time>
      </trkpt>
      <trkpt lat="47.80108" lon="6.55396">
        <ele>492.9</ele>
        <time>2025-04-30T07:16:11.818Z</time>
      </trkpt>
      <trkpt lat="47.80107" lon="6.55393">
        <ele>492.91</ele>
        <time>2025-04-30T07:16:15.234Z</time>
      </trkpt>
      <trkpt lat="47.80106" lon="6.5539">
        <ele>492.93</ele>
        <time>2025-04-30T07:16:18.650Z</time>
      </trkpt>
      <trkpt lat="47.80105" lon="6.55387">
        <ele>492.94</ele>
        <time>2025-04-30T07:16:22.067Z</time>
      </trkpt>
      <trkpt lat="47.80105" lon="6.55383">
        <ele>492.97</ele>
        <time>2025-04-30T07:16:25.484Z</time>
      </trkpt>
      <trkpt lat="47.80104" lon="6.5538">
        <ele>492.99</ele>
        <time>2025-04-30T07:16:28.902Z</time>
      </trkpt>
      <trkpt lat="47.80103" lon="6.55377">
        <ele>493</ele>
        <time>2025-04-30T07:16:32.320Z</time>
      </trkpt>
      <trkpt lat="47.80101" lon="6.55374">
        <ele>493.01</ele>
        <time>2025-04-30T07:16:35.739Z</time>
      </trkpt>
      <trkpt lat="47.801" lon="6.55371">
        <ele>493.02</ele>
        <time>2025-04-30T07:16:39.158Z</time>
      </trkpt>
      <trkpt lat="47.80098" lon="6.55369">
        <ele>493.04</ele>
        <time>2025-04-30T07:16:42.578Z</time>
      </trkpt>
      <trkpt lat="47.80097" lon="6.55366">
        <ele>493.05</ele>
        <time>2025-04-30T07:16:45.998Z</time>
      </trkpt>
      <trkpt lat="47.80097" lon="6.55364">
        <ele>493.05</ele>
        <time>2025-04-30T07:16:49.418Z</time>
      </trkpt>
      <trkpt lat="47.80096" lon="6.55362">
        <ele>493.05</ele>
        <time>2025-04-30T07:16:52.839Z</time>
      </trkpt>
      <trkpt lat="47.80096" lon="6.5536">
        <ele>493.05</ele>
        <time>2025-04-30T07:16:56.260Z</time>
      </trkpt>
      <trkpt lat="47.80095" lon="6.55358">
        <ele>493.03</ele>
        <time>2025-04-30T07:16:59.681Z</time>
      </trkpt>
      <trkpt lat="47.80094" lon="6.55357">
        <ele>493.01</ele>
        <time>2025-04-30T07:17:03.103Z</time>
      </trkpt>
      <trkpt lat="47.80093" lon="6.55355">
        <ele>492.98</ele>
        <time>2025-04-30T07:17:06.525Z</time>
      </trkpt>
      <trkpt lat="47.80092" lon="6.55353">
        <ele>492.94</ele>
        <time>2025-04-30T07:17:09.947Z</time>
      </trkpt>
      <trkpt lat="47.8009" lon="6.55351">
        <ele>492.89</ele>
        <time>2025-04-30T07:17:13.370Z</time>
      </trkpt>
      <trkpt lat="47.80088" lon="6.55349">
        <ele>492.83</ele>
        <time>2025-04-30T07:17:16.793Z</time>
      </trkpt>
      <trkpt lat="47.80087" lon="6.55347">
        <ele>492.77</ele>
        <time>2025-04-30T07:17:20.217Z</time>
      </trkpt>
      <trkpt lat="47.80085" lon="6.55345">
        <ele>492.68</ele>
        <time>2025-04-30T07:17:23.641Z</time>
      </trkpt>
      <trkpt lat="47.80083" lon="6.55343">
        <ele>492.59</ele>
        <time>2025-04-30T07:17:27.066Z</time>
      </trkpt>
      <trkpt lat="47.80081" lon="6.55341">
        <ele>492.48</ele>
        <time>2025-04-30T07:17:30.491Z</time>
      </trkpt>
      <trkpt lat="47.8008" lon="6.55338">
        <ele>492.37</ele>
        <time>2025-04-30T07:17:33.917Z</time>
      </trkpt>
      <trkpt lat="47.80077" lon="6.55335">
        <ele>492.23</ele>
        <time>2025-04-30T07:17:37.343Z</time>
      </trkpt>
      <trkpt lat="47.80075" lon="6.55331">
        <ele>492.08</ele>
        <time>2025-04-30T07:17:40.770Z</time>
      </trkpt>
      <trkpt lat="47.80071" lon="6.55326">
        <ele>491.91</ele>
        <time>2025-04-30T07:17:44.198Z</time>
      </trkpt>
      <trkpt lat="47.80068" lon="6.55323">
        <ele>491.72</ele>
        <time>2025-04-30T07:17:47.627Z</time>
      </trkpt>
      <trkpt lat="47.80065" lon="6.5532">
        <ele>491.52</ele>
        <time>2025-04-30T07:17:51.057Z</time>
      </trkpt>
      <trkpt lat="47.80061" lon="6.55316">
        <ele>491.3</ele>
        <time>2025-04-30T07:17:54.488Z</time>
      </trkpt>
      <trkpt lat="47.80058" lon="6.55311">
        <ele>491.06</ele>
        <time>2025-04-30T07:17:57.920Z</time>
      </trkpt>
      <trkpt lat="47.80055" lon="6.55306">
        <ele>490.8</ele>
        <time>2025-04-30T07:18:01.353Z</time>
      </trkpt>
      <trkpt lat="47.80052" lon="6.55302">
        <ele>490.54</ele>
        <time>2025-04-30T07:18:04.787Z</time>
      </trkpt>
      <trkpt lat="47.8005" lon="6.55298">
        <ele>490.26</ele>
        <time>2025-04-30T07:18:08.222Z</time>
      </trkpt>
      <trkpt lat="47.80047" lon="6.55294">
        <ele>489.96</ele>
        <time>2025-04-30T07:18:11.657Z</time>
      </trkpt>
      <trkpt lat="47.80045" lon="6.5529">
        <ele>489.63</ele>
        <time>2025-04-30T07:18:15.093Z</time>
      </trkpt>
      <trkpt lat="47.80043" lon="6.55286">
        <ele>489.28</ele>
        <time>2025-04-30T07:18:18.530Z</time>
      </trkpt>
      <trkpt lat="47.80039" lon="6.55278">
        <ele>488.91</ele>
        <time>2025-04-30T07:18:21.968Z</time>
      </trkpt>
      <trkpt lat="47.80037" lon="6.55274">
        <ele>488.51</ele>
        <time>2025-04-30T07:18:25.407Z</time>
      </trkpt>
      <trkpt lat="47.80035" lon="6.55272">
        <ele>488.07</ele>
        <time>2025-04-30T07:18:28.846Z</time>
      </trkpt>
      <trkpt lat="47.80032" lon="6.55269">
        <ele>487.61</ele>
        <time>2025-04-30T07:18:32.286Z</time>
      </trkpt>
      <trkpt lat="47.8003" lon="6.55266">
        <ele>487.13</ele>
        <time>2025-04-30T07:18:35.727Z</time>
      </trkpt>
      <trkpt lat="47.80027" lon="6.55263">
        <ele>486.61</ele>
        <time>2025-04-30T07:18:39.169Z</time>
      </trkpt>
      <trkpt lat="47.80024" lon="6.5526">
        <ele>486.07</ele>
        <time>2025-04-30T07:18:42.611Z</time>
      </trkpt>
      <trkpt lat="47.80021" lon="6.55258">
        <ele>485.5</ele>
        <time>2025-04-30T07:18:46.054Z</time>
      </trkpt>
      <trkpt lat="47.80019" lon="6.55256">
        <ele>484.91</ele>
        <time>2025-04-30T07:18:49.498Z</time>
      </trkpt>
      <trkpt lat="47.80016" lon="6.55255">
        <ele>484.29</ele>
        <time>2025-04-30T07:18:52.942Z</time>
      </trkpt>
      <trkpt lat="47.80013" lon="6.55252">
        <ele>483.66</ele>
        <time>2025-04-30T07:18:56.387Z</time>
      </trkpt>
      <trkpt lat="47.80007" lon="6.55245">
        <ele>483</ele>
        <time>2025-04-30T07:18:59.834Z</time>
      </trkpt>
      <trkpt lat="47.79996" lon="6.5524">
        <ele>482.25</ele>
        <time>2025-04-30T07:19:03.283Z</time>
      </trkpt>
      <trkpt lat="47.79991" lon="6.55238">
        <ele>481.51</ele>
        <time>2025-04-30T07:19:06.733Z</time>
      </trkpt>
      <trkpt lat="47.79977" lon="6.55231">
        <ele>480.72</ele>
        <time>2025-04-30T07:19:10.186Z</time>
      </trkpt>
      <trkpt lat="47.79967" lon="6.55226">
        <ele>479.94</ele>
        <time>2025-04-30T07:19:13.642Z</time>
      </trkpt>
      <trkpt lat="47.79962" lon="6.55224">
        <ele>479.18</ele>
        <time>2025-04-30T07:19:17.099Z</time>
      </trkpt>
      <trkpt lat="47.79952" lon="6.5522">
        <ele>478.37</ele>
        <time>2025-04-30T07:19:20.558Z</time>
      </trkpt>
      <trkpt lat="47.79939" lon="6.55219">
        <ele>477.54</ele>
        <time>2025-04-30T07:19:24.020Z</time>
      </trkpt>
      <trkpt lat="47.79932" lon="6.5522">
        <ele>476.75</ele>
        <time>2025-04-30T07:19:27.483Z</time>
      </trkpt>
      <trkpt lat="47.79918" lon="6.55223">
        <ele>475.92</ele>
        <time>2025-04-30T07:19:30.949Z</time>
      </trkpt>
      <trkpt lat="47.79906" lon="6.55224">
        <ele>475.13</ele>
        <time>2025-04-30T07:19:34.418Z</time>
      </trkpt>
      <trkpt lat="47.79901" lon="6.55225">
        <ele>474.38</ele>
        <time>2025-04-30T07:19:37.888Z</time>
      </trkpt>
      <trkpt lat="47.79897" lon="6.55227">
        <ele>473.65</ele>
        <time>2025-04-30T07:19:41.359Z</time>
      </trkpt>
      <trkpt lat="47.79892" lon="6.55228">
        <ele>472.95</ele>
        <time>2025-04-30T07:19:44.831Z</time>
      </trkpt>
      <trkpt lat="47.79888" lon="6.55228">
        <ele>472.27</ele>
        <time>2025-04-30T07:19:48.304Z</time>
      </trkpt>
      <trkpt lat="47.79885" lon="6.55229">
        <ele>471.6</ele>
        <time>2025-04-30T07:19:51.777Z</time>
      </trkpt>
      <trkpt lat="47.79883" lon="6.5523">
        <ele>470.94</ele>
        <time>2025-04-30T07:19:55.251Z</time>
      </trkpt>
      <trkpt lat="47.79882" lon="6.5523">
        <ele>470.31</ele>
        <time>2025-04-30T07:19:58.725Z</time>
      </trkpt>
      <trkpt lat="47.79876" lon="6.55226">
        <ele>469.71</ele>
        <time>2025-04-30T07:20:02.200Z</time>
      </trkpt>
      <trkpt lat="47.79874" lon="6.55224">
        <ele>469.12</ele>
        <time>2025-04-30T07:20:05.676Z</time>
      </trkpt>
      <trkpt lat="47.79871" lon="6.55223">
        <ele>468.54</ele>
        <time>2025-04-30T07:20:09.153Z</time>
      </trkpt>
      <trkpt lat="47.79869" lon="6.55222">
        <ele>467.99</ele>
        <time>2025-04-30T07:20:12.630Z</time>
      </trkpt>
      <trkpt lat="47.79866" lon="6.55222">
        <ele>467.46</ele>
        <time>2025-04-30T07:20:16.108Z</time>
      </trkpt>
      <trkpt lat="47.79863" lon="6.55222">
        <ele>466.95</ele>
        <time>2025-04-30T07:20:19.586Z</time>
      </trkpt>
      <trkpt lat="47.79859" lon="6.55223">
        <ele>466.46</ele>
        <time>2025-04-30T07:20:23.065Z</time>
      </trkpt>
      <trkpt lat="47.7985" lon="6.55226">
        <ele>465.99</ele>
        <time>2025-04-30T07:20:26.546Z</time>
      </trkpt>
      <trkpt lat="47.79846" lon="6.55228">
        <ele>465.55</ele>
        <time>2025-04-30T07:20:30.028Z</time>
      </trkpt>
      <trkpt lat="47.79836" lon="6.55234">
        <ele>465.12</ele>
        <time>2025-04-30T07:20:33.512Z</time>
      </trkpt>
      <trkpt lat="47.79825" lon="6.55238">
        <ele>464.71</ele>
        <time>2025-04-30T07:20:36.999Z</time>
      </trkpt>
      <trkpt lat="47.79812" lon="6.55247">
        <ele>464.34</ele>
        <time>2025-04-30T07:20:40.489Z</time>
      </trkpt>
      <trkpt lat="47.79808" lon="6.55251">
        <ele>463.98</ele>
        <time>2025-04-30T07:20:43.980Z</time>
      </trkpt>
      <trkpt lat="47.79803" lon="6.55254">
        <ele>463.64</ele>
        <time>2025-04-30T07:20:47.472Z</time>
      </trkpt>
      <trkpt lat="47.79799" lon="6.55257">
        <ele>463.33</ele>
        <time>2025-04-30T07:20:50.965Z</time>
      </trkpt>
      <trkpt lat="47.79775" lon="6.55272">
        <ele>463.04</ele>
        <time>2025-04-30T07:20:54.464Z</time>
      </trkpt>
      <trkpt lat="47.7977" lon="6.55276">
        <ele>462.78</ele>
        <time>2025-04-30T07:20:57.964Z</time>
      </trkpt>
      <trkpt lat="47.79765" lon="6.55281">
        <ele>462.54</ele>
        <time>2025-04-30T07:21:01.465Z</time>
      </trkpt>
      <trkpt lat="47.79756" lon="6.5529">
        <ele>462.32</ele>
        <time>2025-04-30T07:21:04.968Z</time>
      </trkpt>
      <trkpt lat="47.7975" lon="6.55294">
        <ele>462.11</ele>
        <time>2025-04-30T07:21:08.473Z</time>
      </trkpt>
      <trkpt lat="47.79737" lon="6.5531">
        <ele>461.92</ele>
        <time>2025-04-30T07:21:11.982Z</time>
      </trkpt>
      <trkpt lat="47.79732" lon="6.55316">
        <ele>461.75</ele>
        <time>2025-04-30T07:21:15.492Z</time>
      </trkpt>
      <trkpt lat="47.79719" lon="6.5533">
        <ele>461.59</ele>
        <time>2025-04-30T07:21:19.005Z</time>
      </trkpt>
      <trkpt lat="47.79713" lon="6.55334">
        <ele>461.47</ele>
        <time>2025-04-30T07:21:22.520Z</time>
      </trkpt>
      <trkpt lat="47.79686" lon="6.55367">
        <ele>461.27</ele>
        <time>2025-04-30T07:21:26.042Z</time>
      </trkpt>
      <trkpt lat="47.79681" lon="6.55375">
        <ele>461.2</ele>
        <time>2025-04-30T07:21:29.566Z</time>
      </trkpt>
      <trkpt lat="47.79662" lon="6.55393">
        <ele>461.18</ele>
        <time>2025-04-30T07:21:33.095Z</time>
      </trkpt>
      <trkpt lat="47.79656" lon="6.55397">
        <ele>461.17</ele>
        <time>2025-04-30T07:21:36.625Z</time>
      </trkpt>
      <trkpt lat="47.79652" lon="6.554">
        <ele>461.18</ele>
        <time>2025-04-30T07:21:40.156Z</time>
      </trkpt>
      <trkpt lat="47.79648" lon="6.55401">
        <ele>461.22</ele>
        <time>2025-04-30T07:21:43.688Z</time>
      </trkpt>
      <trkpt lat="47.79644" lon="6.55403">
        <ele>461.27</ele>
        <time>2025-04-30T07:21:47.221Z</time>
      </trkpt>
      <trkpt lat="47.79634" lon="6.5541">
        <ele>461.34</ele>
        <time>2025-04-30T07:21:50.756Z</time>
      </trkpt>
      <trkpt lat="47.79623" lon="6.55419">
        <ele>461.43</ele>
        <time>2025-04-30T07:21:54.294Z</time>
      </trkpt>
      <trkpt lat="47.79612" lon="6.55431">
        <ele>461.53</ele>
        <time>2025-04-30T07:21:57.835Z</time>
      </trkpt>
      <trkpt lat="47.79591" lon="6.5545">
        <ele>461.68</ele>
        <time>2025-04-30T07:22:01.381Z</time>
      </trkpt>
      <trkpt lat="47.79585" lon="6.55455">
        <ele>461.84</ele>
        <time>2025-04-30T07:22:04.929Z</time>
      </trkpt>
      <trkpt lat="47.79577" lon="6.55459">
        <ele>462.02</ele>
        <time>2025-04-30T07:22:08.478Z</time>
      </trkpt>
      <trkpt lat="47.79569" lon="6.55461">
        <ele>462.22</ele>
        <time>2025-04-30T07:22:12.029Z</time>
      </trkpt>
      <trkpt lat="47.79563" lon="6.55462">
        <ele>462.43</ele>
        <time>2025-04-30T07:22:15.581Z</time>
      </trkpt>
      <trkpt lat="47.79557" lon="6.55464">
        <ele>462.66</ele>
        <time>2025-04-30T07:22:19.135Z</time>
      </trkpt>
      <trkpt lat="47.79551" lon="6.55465">
        <ele>462.9</ele>
        <time>2025-04-30T07:22:22.690Z</time>
      </trkpt>
      <trkpt lat="47.79547" lon="6.55466">
        <ele>463.15</ele>
        <time>2025-04-30T07:22:26.246Z</time>
      </trkpt>
      <trkpt lat="47.79542" lon="6.55467">
        <ele>463.42</ele>
        <time>2025-04-30T07:22:29.803Z</time>
      </trkpt>
      <trkpt lat="47.79537" lon="6.55468">
        <ele>463.69</ele>
        <time>2025-04-30T07:22:33.361Z</time>
      </trkpt>
      <trkpt lat="47.79532" lon="6.5547">
        <ele>463.97</ele>
        <time>2025-04-30T07:22:36.920Z</time>
      </trkpt>
      <trkpt lat="47.79528" lon="6.55472">
        <ele>464.25</ele>
        <time>2025-04-30T07:22:40.480Z</time>
      </trkpt>
      <trkpt lat="47.79524" lon="6.55473">
        <ele>464.54</ele>
        <time>2025-04-30T07:22:44.041Z</time>
      </trkpt>
      <trkpt lat="47.79521" lon="6.55474">
        <ele>464.83</ele>
        <time>2025-04-30T07:22:47.603Z</time>
      </trkpt>
      <trkpt lat="47.79518" lon="6.55475">
        <ele>465.12</ele>
        <time>2025-04-30T07:22:51.165Z</time>
      </trkpt>
      <trkpt lat="47.79516" lon="6.55475">
        <ele>465.41</ele>
        <time>2025-04-30T07:22:54.728Z</time>
      </trkpt>
      <trkpt lat="47.79515" lon="6.55475">
        <ele>465.7</ele>
        <time>2025-04-30T07:22:58.291Z</time>
      </trkpt>
      <trkpt lat="47.79513" lon="6.55474">
        <ele>465.99</ele>
        <time>2025-04-30T07:23:01.854Z</time>
      </trkpt>
      <trkpt lat="47.79511" lon="6.55472">
        <ele>466.28</ele>
        <time>2025-04-30T07:23:05.418Z</time>
      </trkpt>
      <trkpt lat="47.7951" lon="6.5547">
        <ele>466.56</ele>
        <time>2025-04-30T07:23:08.982Z</time>
      </trkpt>
      <trkpt lat="47.79508" lon="6.55467">
        <ele>466.84</ele>
        <time>2025-04-30T07:23:12.547Z</time>
      </trkpt>
      <trkpt lat="47.79507" lon="6.55464">
        <ele>467.12</ele>
        <time>2025-04-30T07:23:16.112Z</time>
      </trkpt>
      <trkpt lat="47.79506" lon="6.55459">
        <ele>467.38</ele>
        <time>2025-04-30T07:23:19.678Z</time>
      </trkpt>
      <trkpt lat="47.79506" lon="6.55455">
        <ele>467.65</ele>
        <time>2025-04-30T07:23:23.245Z</time>
      </trkpt>
      <trkpt lat="47.79505" lon="6.55449">
        <ele>467.9</ele>
        <time>2025-04-30T07:23:26.813Z</time>
      </trkpt>
      <trkpt lat="47.79505" lon="6.55443">
        <ele>468.16</ele>
        <time>2025-04-30T07:23:30.381Z</time>
      </trkpt>
      <trkpt lat="47.79503" lon="6.55437">
        <ele>468.4</ele>
        <time>2025-04-30T07:23:33.950Z</time>
      </trkpt>
      <trkpt lat="47.795" lon="6.5542">
        <ele>468.62</ele>
        <time>2025-04-30T07:23:37.522Z</time>
      </trkpt>
      <trkpt lat="47.79493" lon="6.55401">
        <ele>468.87</ele>
        <time>2025-04-30T07:23:41.097Z</time>
      </trkpt>
      <trkpt lat="47.79489" lon="6.55396">
        <ele>469.11</ele>
        <time>2025-04-30T07:23:44.673Z</time>
      </trkpt>
      <trkpt lat="47.79486" lon="6.5539">
        <ele>469.34</ele>
        <time>2025-04-30T07:23:48.250Z</time>
      </trkpt>
      <trkpt lat="47.79482" lon="6.55385">
        <ele>469.58</ele>
        <time>2025-04-30T07:23:51.828Z</time>
      </trkpt>
      <trkpt lat="47.79474" lon="6.55377">
        <ele>469.83</ele>
        <time>2025-04-30T07:23:55.408Z</time>
      </trkpt>
      <trkpt lat="47.79471" lon="6.55372">
        <ele>470.05</ele>
        <time>2025-04-30T07:23:58.989Z</time>
      </trkpt>
      <trkpt lat="47.79464" lon="6.55363">
        <ele>470.27</ele>
        <time>2025-04-30T07:24:02.572Z</time>
      </trkpt>
      <trkpt lat="47.79462" lon="6.55358">
        <ele>470.48</ele>
        <time>2025-04-30T07:24:06.156Z</time>
      </trkpt>
      <trkpt lat="47.79461" lon="6.55353">
        <ele>470.67</ele>
        <time>2025-04-30T07:24:09.741Z</time>
      </trkpt>
      <trkpt lat="47.79461" lon="6.55348">
        <ele>470.85</ele>
        <time>2025-04-30T07:24:13.327Z</time>
      </trkpt>
      <trkpt lat="47.79462" lon="6.55343">
        <ele>471.02</ele>
        <time>2025-04-30T07:24:16.913Z</time>
      </trkpt>
      <trkpt lat="47.79464" lon="6.55337">
        <ele>471.18</ele>
        <time>2025-04-30T07:24:20.500Z</time>
      </trkpt>
      <trkpt lat="47.79472" lon="6.55313">
        <ele>471.34</ele>
        <time>2025-04-30T07:24:24.091Z</time>
      </trkpt>
      <trkpt lat="47.79475" lon="6.55307">
        <ele>471.48</ele>
        <time>2025-04-30T07:24:27.683Z</time>
      </trkpt>
      <trkpt lat="47.79479" lon="6.55294">
        <ele>471.62</ele>
        <time>2025-04-30T07:24:31.277Z</time>
      </trkpt>
      <trkpt lat="47.79481" lon="6.55288">
        <ele>471.74</ele>
        <time>2025-04-30T07:24:34.872Z</time>
      </trkpt>
      <trkpt lat="47.79483" lon="6.55282">
        <ele>471.85</ele>
        <time>2025-04-30T07:24:38.468Z</time>
      </trkpt>
      <trkpt lat="47.79486" lon="6.55276">
        <ele>471.94</ele>
        <time>2025-04-30T07:24:42.065Z</time>
      </trkpt>
      <trkpt lat="47.79488" lon="6.55271">
        <ele>472.01</ele>
        <time>2025-04-30T07:24:45.663Z</time>
      </trkpt>
      <trkpt lat="47.79493" lon="6.55265">
        <ele>472.07</ele>
        <time>2025-04-30T07:24:49.262Z</time>
      </trkpt>
      <trkpt lat="47.79496" lon="6.5526">
        <ele>472.12</ele>
        <time>2025-04-30T07:24:52.862Z</time>
      </trkpt>
      <trkpt lat="47.795" lon="6.55255">
        <ele>472.16</ele>
        <time>2025-04-30T07:24:56.463Z</time>
      </trkpt>
      <trkpt lat="47.79501" lon="6.55252">
        <ele>472.2</ele>
        <time>2025-04-30T07:25:00.065Z</time>
      </trkpt>
      <trkpt lat="47.79503" lon="6.55248">
        <ele>472.23</ele>
        <time>2025-04-30T07:25:03.668Z</time>
      </trkpt>
      <trkpt lat="47.79506" lon="6.55242">
        <ele>472.24</ele>
        <time>2025-04-30T07:25:07.272Z</time>
      </trkpt>
      <trkpt lat="47.7951" lon="6.55236">
        <ele>472.24</ele>
        <time>2025-04-30T07:25:10.877Z</time>
      </trkpt>
      <trkpt lat="47.79514" lon="6.55229">
        <ele>472.24</ele>
        <time>2025-04-30T07:25:14.483Z</time>
      </trkpt>
      <trkpt lat="47.79518" lon="6.55221">
        <ele>472.22</ele>
        <time>2025-04-30T07:25:18.091Z</time>
      </trkpt>
      <trkpt lat="47.7952" lon="6.55214">
        <ele>472.2</ele>
        <time>2025-04-30T07:25:21.700Z</time>
      </trkpt>
      <trkpt lat="47.79521" lon="6.55207">
        <ele>472.18</ele>
        <time>2025-04-30T07:25:25.310Z</time>
      </trkpt>
      <trkpt lat="47.7952" lon="6.55201">
        <ele>472.17</ele>
        <time>2025-04-30T07:25:28.921Z</time>
      </trkpt>
      <trkpt lat="47.79518" lon="6.55196">
        <ele>472.15</ele>
        <time>2025-04-30T07:25:32.533Z</time>
      </trkpt>
      <trkpt lat="47.79516" lon="6.55193">
        <ele>472.11</ele>
        <time>2025-04-30T07:25:36.145Z</time>
      </trkpt>
      <trkpt lat="47.79513" lon="6.55191">
        <ele>472.07</ele>
        <time>2025-04-30T07:25:39.758Z</time>
      </trkpt>
      <trkpt lat="47.79512" lon="6.55189">
        <ele>472.02</ele>
        <time>2025-04-30T07:25:43.371Z</time>
      </trkpt>
      <trkpt lat="47.7951" lon="6.55186">
        <ele>471.97</ele>
        <time>2025-04-30T07:25:46.985Z</time>
      </trkpt>
      <trkpt lat="47.79508" lon="6.55185">
        <ele>471.92</ele>
        <time>2025-04-30T07:25:50.599Z</time>
      </trkpt>
      <trkpt lat="47.79505" lon="6.55183">
        <ele>471.86</ele>
        <time>2025-04-30T07:25:54.214Z</time>
      </trkpt>
      <trkpt lat="47.79502" lon="6.55182">
        <ele>471.81</ele>
        <time>2025-04-30T07:25:57.830Z</time>
      </trkpt>
      <trkpt lat="47.79498" lon="6.55181">
        <ele>471.75</ele>
        <time>2025-04-30T07:26:01.447Z</time>
      </trkpt>
      <trkpt lat="47.79494" lon="6.55179">
        <ele>471.69</ele>
        <time>2025-04-30T07:26:05.065Z</time>
      </trkpt>
      <trkpt lat="47.7949" lon="6.55176">
        <ele>471.63</ele>
        <time>2025-04-30T07:26:08.684Z</time>
      </trkpt>
      <trkpt lat="47.79486" lon="6.55171">
        <ele>471.56</ele>
        <time>2025-04-30T07:26:12.304Z</time>
      </trkpt>
      <trkpt lat="47.79483" lon="6.55165">
        <ele>471.48</ele>
        <time>2025-04-30T07:26:15.925Z</time>
      </trkpt>
      <trkpt lat="47.79479" lon="6.55159">
        <ele>471.4</ele>
        <time>2025-04-30T07:26:19.547Z</time>
      </trkpt>
      <trkpt lat="47.79476" lon="6.55153">
        <ele>471.32</ele>
        <time>2025-04-30T07:26:23.170Z</time>
      </trkpt>
      <trkpt lat="47.79474" lon="6.55147">
        <ele>471.25</ele>
        <time>2025-04-30T07:26:26.794Z</time>
      </trkpt>
      <trkpt lat="47.7947" lon="6.55142">
        <ele>471.17</ele>
        <time>2025-04-30T07:26:30.419Z</time>
      </trkpt>
      <trkpt lat="47.79467" lon="6.55138">
        <ele>471.1</ele>
        <time>2025-04-30T07:26:34.045Z</time>
      </trkpt>
      <trkpt lat="47.79463" lon="6.55133">
        <ele>471.04</ele>
        <time>2025-04-30T07:26:37.672Z</time>
      </trkpt>
      <trkpt lat="47.79457" lon="6.55121">
        <ele>470.97</ele>
        <time>2025-04-30T07:26:41.301Z</time>
      </trkpt>
      <trkpt lat="47.79454" lon="6.55114">
        <ele>470.9</ele>
        <time>2025-04-30T07:26:44.931Z</time>
      </trkpt>
      <trkpt lat="47.79451" lon="6.55103">
        <ele>470.85</ele>
        <time>2025-04-30T07:26:48.563Z</time>
      </trkpt>
      <trkpt lat="47.79451" lon="6.55097">
        <ele>470.8</ele>
        <time>2025-04-30T07:26:52.196Z</time>
      </trkpt>
      <trkpt lat="47.7945" lon="6.55095">
        <ele>470.75</ele>
        <time>2025-04-30T07:26:55.829Z</time>
      </trkpt>
      <trkpt lat="47.79451" lon="6.55094">
        <ele>470.71</ele>
        <time>2025-04-30T07:26:59.463Z</time>
      </trkpt>
      <trkpt lat="47.79452" lon="6.55092">
        <ele>470.67</ele>
        <time>2025-04-30T07:27:03.097Z</time>
      </trkpt>
      <trkpt lat="47.79454" lon="6.55089">
        <ele>470.63</ele>
        <time>2025-04-30T07:27:06.731Z</time>
      </trkpt>
      <trkpt lat="47.79455" lon="6.55086">
        <ele>470.6</ele>
        <time>2025-04-30T07:27:10.366Z</time>
      </trkpt>
      <trkpt lat="47.79457" lon="6.55083">
        <ele>470.57</ele>
        <time>2025-04-30T07:27:14.002Z</time>
      </trkpt>
      <trkpt lat="47.79462" lon="6.55076">
        <ele>470.54</ele>
        <time>2025-04-30T07:27:17.639Z</time>
      </trkpt>
      <trkpt lat="47.79464" lon="6.5507">
        <ele>470.52</ele>
        <time>2025-04-30T07:27:21.277Z</time>
      </trkpt>
      <trkpt lat="47.79464" lon="6.55067">
        <ele>470.51</ele>
        <time>2025-04-30T07:27:24.915Z</time>
      </trkpt>
      <trkpt lat="47.79463" lon="6.55061">
        <ele>470.5</ele>
        <time>2025-04-30T07:27:28.554Z</time>
      </trkpt>
      <trkpt lat="47.79464" lon="6.55058">
        <ele>470.49</ele>
        <time>2025-04-30T07:27:32.194Z</time>
      </trkpt>
      <trkpt lat="47.79465" lon="6.55055">
        <ele>470.49</ele>
        <time>2025-04-30T07:27:35.834Z</time>
      </trkpt>
      <trkpt lat="47.79469" lon="6.55048">
        <ele>470.49</ele>
        <time>2025-04-30T07:27:39.476Z</time>
      </trkpt>
      <trkpt lat="47.79472" lon="6.55046">
        <ele>470.49</ele>
        <time>2025-04-30T07:27:43.118Z</time>
      </trkpt>
      <trkpt lat="47.79474" lon="6.55042">
        <ele>470.5</ele>
        <time>2025-04-30T07:27:46.761Z</time>
      </trkpt>
      <trkpt lat="47.79477" lon="6.55039">
        <ele>470.51</ele>
        <time>2025-04-30T07:27:50.405Z</time>
      </trkpt>
      <trkpt lat="47.79482" lon="6.55033">
        <ele>470.52</ele>
        <time>2025-04-30T07:27:54.050Z</time>
      </trkpt>
      <trkpt lat="47.79496" lon="6.5502">
        <ele>470.52</ele>
        <time>2025-04-30T07:27:57.699Z</time>
      </trkpt>
      <trkpt lat="47.795" lon="6.55018">
        <ele>470.53</ele>
        <time>2025-04-30T07:28:01.349Z</time>
      </trkpt>
      <trkpt lat="47.79504" lon="6.55016">
        <ele>470.54</ele>
        <time>2025-04-30T07:28:05.000Z</time>
      </trkpt>
      <trkpt lat="47.79508" lon="6.55014">
        <ele>470.56</ele>
        <time>2025-04-30T07:28:08.651Z</time>
      </trkpt>
      <trkpt lat="47.79513" lon="6.5501">
        <ele>470.58</ele>
        <time>2025-04-30T07:28:12.304Z</time>
      </trkpt>
      <trkpt lat="47.7953" lon="6.5499">
        <ele>470.63</ele>
        <time>2025-04-30T07:28:15.961Z</time>
      </trkpt>
      <trkpt lat="47.79534" lon="6.54985">
        <ele>470.67</ele>
        <time>2025-04-30T07:28:19.620Z</time>
      </trkpt>
      <trkpt lat="47.79544" lon="6.54979">
        <ele>470.71</ele>
        <time>2025-04-30T07:28:23.281Z</time>
      </trkpt>
      <trkpt lat="47.79547" lon="6.54978">
        <ele>470.72</ele>
        <time>2025-04-30T07:28:26.943Z</time>
      </trkpt>
      <trkpt lat="47.79552" lon="6.54977">
        <ele>470.73</ele>
        <time>2025-04-30T07:28:30.605Z</time>
      </trkpt>
      <trkpt lat="47.79557" lon="6.54976">
        <ele>470.74</ele>
        <time>2025-04-30T07:28:34.269Z</time>
      </trkpt>
      <trkpt lat="47.79562" lon="6.54974">
        <ele>470.75</ele>
        <time>2025-04-30T07:28:37.934Z</time>
      </trkpt>
      <trkpt lat="47.79572" lon="6.54968">
        <ele>470.75</ele>
        <time>2025-04-30T07:28:41.601Z</time>
      </trkpt>
      <trkpt lat="47.79579" lon="6.54961">
        <ele>470.73</ele>
        <time>2025-04-30T07:28:45.270Z</time>
      </trkpt>
      <trkpt lat="47.79587" lon="6.54954">
        <ele>470.7</ele>
        <time>2025-04-30T07:28:48.941Z</time>
      </trkpt>
      <trkpt lat="47.7959" lon="6.54951">
        <ele>470.65</ele>
        <time>2025-04-30T07:28:52.613Z</time>
      </trkpt>
      <trkpt lat="47.79593" lon="6.54948">
        <ele>470.61</ele>
        <time>2025-04-30T07:28:56.285Z</time>
      </trkpt>
      <trkpt lat="47.79595" lon="6.54945">
        <ele>470.55</ele>
        <time>2025-04-30T07:28:59.958Z</time>
      </trkpt>
      <trkpt lat="47.79597" lon="6.54943">
        <ele>470.48</ele>
        <time>2025-04-30T07:29:03.631Z</time>
      </trkpt>
      <trkpt lat="47.79598" lon="6.54944">
        <ele>470.4</ele>
        <time>2025-04-30T07:29:07.305Z</time>
      </trkpt>
      <trkpt lat="47.796" lon="6.54943">
        <ele>470.31</ele>
        <time>2025-04-30T07:29:10.979Z</time>
      </trkpt>
      <trkpt lat="47.79601" lon="6.54942">
        <ele>470.2</ele>
        <time>2025-04-30T07:29:14.654Z</time>
      </trkpt>
      <trkpt lat="47.79603" lon="6.5494">
        <ele>470.08</ele>
        <time>2025-04-30T07:29:18.329Z</time>
      </trkpt>
      <trkpt lat="47.79603" lon="6.5494">
        <ele>469.96</ele>
        <time>2025-04-30T07:29:22.004Z</time>
      </trkpt>
      <trkpt lat="47.79607" lon="6.54938">
        <ele>469.81</ele>
        <time>2025-04-30T07:29:25.680Z</time>
      </trkpt>
      <trkpt lat="47.79615" lon="6.54933">
        <ele>469.66</ele>
        <time>2025-04-30T07:29:29.358Z</time>
      </trkpt>
      <trkpt lat="47.79621" lon="6.54929">
        <ele>469.49</ele>
        <time>2025-04-30T07:29:33.037Z</time>
      </trkpt>
      <trkpt lat="47.79623" lon="6.54928">
        <ele>469.31</ele>
        <time>2025-04-30T07:29:36.717Z</time>
      </trkpt>
      <trkpt lat="47.79626" lon="6.54927">
        <ele>469.12</ele>
        <time>2025-04-30T07:29:40.397Z</time>
      </trkpt>
      <trkpt lat="47.7963" lon="6.54924">
        <ele>468.92</ele>
        <time>2025-04-30T07:29:44.078Z</time>
      </trkpt>
      <trkpt lat="47.79631" lon="6.54918">
        <ele>468.71</ele>
        <time>2025-04-30T07:29:47.760Z</time>
      </trkpt>
      <trkpt lat="47.7963" lon="6.54916">
        <ele>468.48</ele>
        <time>2025-04-30T07:29:51.442Z</time>
      </trkpt>
      <trkpt lat="47.79629" lon="6.54912">
        <ele>468.24</ele>
        <time>2025-04-30T07:29:55.125Z</time>
      </trkpt>
      <trkpt lat="47.79627" lon="6.54905">
        <ele>467.99</ele>
        <time>2025-04-30T07:29:58.809Z</time>
      </trkpt>
      <trkpt lat="47.79625" lon="6.54901">
        <ele>467.74</ele>
        <time>2025-04-30T07:30:02.494Z</time>
      </trkpt>
      <trkpt lat="47.79622" lon="6.54889">
        <ele>467.46</ele>
        <time>2025-04-30T07:30:06.181Z</time>
      </trkpt>
      <trkpt lat="47.79617" lon="6.54877">
        <ele>467.17</ele>
        <time>2025-04-30T07:30:09.870Z</time>
      </trkpt>
      <trkpt lat="47.79611" lon="6.5486">
        <ele>466.86</ele>
        <time>2025-04-30T07:30:13.562Z</time>
      </trkpt>
      <trkpt lat="47.79606" lon="6.54851">
        <ele>466.58</ele>
        <time>2025-04-30T07:30:17.255Z</time>
      </trkpt>
      <trkpt lat="47.79604" lon="6.54846">
        <ele>466.3</ele>
        <time>2025-04-30T07:30:20.949Z</time>
      </trkpt>
      <trkpt lat="47.79602" lon="6.54841">
        <ele>466.02</ele>
        <time>2025-04-30T07:30:24.644Z</time>
      </trkpt>
      <trkpt lat="47.79598" lon="6.54837">
        <ele>465.74</ele>
        <time>2025-04-30T07:30:28.340Z</time>
      </trkpt>
      <trkpt lat="47.7959" lon="6.54821">
        <ele>465.43</ele>
        <time>2025-04-30T07:30:32.039Z</time>
      </trkpt>
      <trkpt lat="47.79574" lon="6.54796">
        <ele>465.1</ele>
        <time>2025-04-30T07:30:35.743Z</time>
      </trkpt>
      <trkpt lat="47.79568" lon="6.54789">
        <ele>464.82</ele>
        <time>2025-04-30T07:30:39.448Z</time>
      </trkpt>
      <trkpt lat="47.79566" lon="6.54786">
        <ele>464.56</ele>
        <time>2025-04-30T07:30:43.154Z</time>
      </trkpt>
      <trkpt lat="47.79554" lon="6.54762">
        <ele>464.3</ele>
        <time>2025-04-30T07:30:46.864Z</time>
      </trkpt>
      <trkpt lat="47.79552" lon="6.54757">
        <ele>464.06</ele>
        <time>2025-04-30T07:30:50.575Z</time>
      </trkpt>
      <trkpt lat="47.7955" lon="6.54752">
        <ele>463.83</ele>
        <time>2025-04-30T07:30:54.287Z</time>
      </trkpt>
      <trkpt lat="47.79548" lon="6.54747">
        <ele>463.61</ele>
        <time>2025-04-30T07:30:58.000Z</time>
      </trkpt>
      <trkpt lat="47.79546" lon="6.54743">
        <ele>463.41</ele>
        <time>2025-04-30T07:31:01.714Z</time>
      </trkpt>
      <trkpt lat="47.79544" lon="6.54739">
        <ele>463.22</ele>
        <time>2025-04-30T07:31:05.428Z</time>
      </trkpt>
      <trkpt lat="47.79542" lon="6.54735">
        <ele>463.05</ele>
        <time>2025-04-30T07:31:09.143Z</time>
      </trkpt>
      <trkpt lat="47.79538" lon="6.54726">
        <ele>462.89</ele>
        <time>2025-04-30T07:31:12.859Z</time>
      </trkpt>
      <trkpt lat="47.79536" lon="6.54722">
        <ele>462.75</ele>
        <time>2025-04-30T07:31:16.576Z</time>
      </trkpt>
      <trkpt lat="47.79534" lon="6.54718">
        <ele>462.63</ele>
        <time>2025-04-30T07:31:20.294Z</time>
      </trkpt>
      <trkpt lat="47.79532" lon="6.54714">
        <ele>462.53</ele>
        <time>2025-04-30T07:31:24.013Z</time>
      </trkpt>
      <trkpt lat="47.7953" lon="6.54709">
        <ele>462.44</ele>
        <time>2025-04-30T07:31:27.733Z</time>
      </trkpt>
      <trkpt lat="47.79528" lon="6.54705">
        <ele>462.37</ele>
        <time>2025-04-30T07:31:31.453Z</time>
      </trkpt>
      <trkpt lat="47.79526" lon="6.54702">
        <ele>462.32</ele>
        <time>2025-04-30T07:31:35.174Z</time>
      </trkpt>
      <trkpt lat="47.79524" lon="6.54699">
        <ele>462.29</ele>
        <time>2025-04-30T07:31:38.895Z</time>
      </trkpt>
      <trkpt lat="47.7952" lon="6.54692">
        <ele>462.28</ele>
        <time>2025-04-30T07:31:42.618Z</time>
      </trkpt>
      <trkpt lat="47.79519" lon="6.54689">
        <ele>462.28</ele>
        <time>2025-04-30T07:31:46.341Z</time>
      </trkpt>
      <trkpt lat="47.79518" lon="6.54686">
        <ele>462.3</ele>
        <time>2025-04-30T07:31:50.065Z</time>
      </trkpt>
      <trkpt lat="47.79516" lon="6.54683">
        <ele>462.33</ele>
        <time>2025-04-30T07:31:53.789Z</time>
      </trkpt>
      <trkpt lat="47.79514" lon="6.54678">
        <ele>462.39</ele>
        <time>2025-04-30T07:31:57.514Z</time>
      </trkpt>
      <trkpt lat="47.79508" lon="6.5467">
        <ele>462.47</ele>
        <time>2025-04-30T07:32:01.241Z</time>
      </trkpt>
      <trkpt lat="47.79502" lon="6.54657">
        <ele>462.53</ele>
        <time>2025-04-30T07:32:04.970Z</time>
      </trkpt>
      <trkpt lat="47.79499" lon="6.54652">
        <ele>462.62</ele>
        <time>2025-04-30T07:32:08.700Z</time>
      </trkpt>
      <trkpt lat="47.79496" lon="6.54645">
        <ele>462.72</ele>
        <time>2025-04-30T07:32:12.431Z</time>
      </trkpt>
      <trkpt lat="47.79488" lon="6.5463">
        <ele>462.84</ele>
        <time>2025-04-30T07:32:16.165Z</time>
      </trkpt>
      <trkpt lat="47.79486" lon="6.54625">
        <ele>462.99</ele>
        <time>2025-04-30T07:32:19.900Z</time>
      </trkpt>
      <trkpt lat="47.79485" lon="6.54621">
        <ele>463.15</ele>
        <time>2025-04-30T07:32:23.636Z</time>
      </trkpt>
      <trkpt lat="47.79482" lon="6.54615">
        <ele>463.32</ele>
        <time>2025-04-30T07:32:27.373Z</time>
      </trkpt>
      <trkpt lat="47.79481" lon="6.54611">
        <ele>463.51</ele>
        <time>2025-04-30T07:32:31.110Z</time>
      </trkpt>
      <trkpt lat="47.79473" lon="6.54593">
        <ele>463.74</ele>
        <time>2025-04-30T07:32:34.850Z</time>
      </trkpt>
      <trkpt lat="47.79462" lon="6.54568">
        <ele>464.01</ele>
        <time>2025-04-30T07:32:38.595Z</time>
      </trkpt>
      <trkpt lat="47.79461" lon="6.54561">
        <ele>464.24</ele>
        <time>2025-04-30T07:32:42.341Z</time>
      </trkpt>
      <trkpt lat="47.79461" lon="6.5456">
        <ele>464.47</ele>
        <time>2025-04-30T07:32:46.087Z</time>
      </trkpt>
      <trkpt lat="47.79462" lon="6.54559">
        <ele>464.7</ele>
        <time>2025-04-30T07:32:49.833Z</time>
      </trkpt>
      <trkpt lat="47.79464" lon="6.54557">
        <ele>464.94</ele>
        <time>2025-04-30T07:32:53.580Z</time>
      </trkpt>
      <trkpt lat="47.79467" lon="6.54555">
        <ele>465.18</ele>
        <time>2025-04-30T07:32:57.327Z</time>
      </trkpt>
      <trkpt lat="47.7947" lon="6.54552">
        <ele>465.43</ele>
        <time>2025-04-30T07:33:01.075Z</time>
      </trkpt>
      <trkpt lat="47.79473" lon="6.5455">
        <ele>465.68</ele>
        <time>2025-04-30T07:33:04.824Z</time>
      </trkpt>
      <trkpt lat="47.79478" lon="6.54541">
        <ele>465.95</ele>
        <time>2025-04-30T07:33:08.575Z</time>
      </trkpt>
      <trkpt lat="47.7948" lon="6.54537">
        <ele>466.22</ele>
        <time>2025-04-30T07:33:12.326Z</time>
      </trkpt>
      <trkpt lat="47.79482" lon="6.54534">
        <ele>466.49</ele>
        <time>2025-04-30T07:33:16.078Z</time>
      </trkpt>
      <trkpt lat="47.79483" lon="6.54531">
        <ele>466.76</ele>
        <time>2025-04-30T07:33:19.830Z</time>
      </trkpt>
      <trkpt lat="47.79484" lon="6.54529">
        <ele>467.03</ele>
        <time>2025-04-30T07:33:23.583Z</time>
      </trkpt>
      <trkpt lat="47.79486" lon="6.54525">
        <ele>467.31</ele>
        <time>2025-04-30T07:33:27.336Z</time>
      </trkpt>
      <trkpt lat="47.79488" lon="6.54521">
        <ele>467.58</ele>
        <time>2025-04-30T07:33:31.090Z</time>
      </trkpt>
      <trkpt lat="47.79492" lon="6.54514">
        <ele>467.86</ele>
        <time>2025-04-30T07:33:34.845Z</time>
      </trkpt>
      <trkpt lat="47.79495" lon="6.54511">
        <ele>468.13</ele>
        <time>2025-04-30T07:33:38.601Z</time>
      </trkpt>
      <trkpt lat="47.79496" lon="6.54508">
        <ele>468.39</ele>
        <time>2025-04-30T07:33:42.358Z</time>
      </trkpt>
      <trkpt lat="47.79498" lon="6.54506">
        <ele>468.65</ele>
        <time>2025-04-30T07:33:46.115Z</time>
      </trkpt>
      <trkpt lat="47.79499" lon="6.54503">
        <ele>468.9</ele>
        <time>2025-04-30T07:33:49.873Z</time>
      </trkpt>
      <trkpt lat="47.795" lon="6.545">
        <ele>469.15</ele>
        <time>2025-04-30T07:33:53.631Z</time>
      </trkpt>
      <trkpt lat="47.79502" lon="6.54497">
        <ele>469.38</ele>
        <time>2025-04-30T07:33:57.390Z</time>
      </trkpt>
      <trkpt lat="47.79504" lon="6.54494">
        <ele>469.61</ele>
        <time>2025-04-30T07:34:01.149Z</time>
      </trkpt>
      <trkpt lat="47.79506" lon="6.54492">
        <ele>469.84</ele>
        <time>2025-04-30T07:34:04.909Z</time>
      </trkpt>
      <trkpt lat="47.79508" lon="6.54491">
        <ele>470.05</ele>
        <time>2025-04-30T07:34:08.669Z</time>
      </trkpt>
      <trkpt lat="47.7951" lon="6.54489">
        <ele>470.26</ele>
        <time>2025-04-30T07:34:12.430Z</time>
      </trkpt>
      <trkpt lat="47.79513" lon="6.54487">
        <ele>470.45</ele>
        <time>2025-04-30T07:34:16.191Z</time>
      </trkpt>
      <trkpt lat="47.79516" lon="6.54483">
        <ele>470.64</ele>
        <time>2025-04-30T07:34:19.953Z</time>
      </trkpt>
      <trkpt lat="47.79516" lon="6.54483">
        <ele>470.81</ele>
        <time>2025-04-30T07:34:23.715Z</time>
      </trkpt>
      <trkpt lat="47.79516" lon="6.54483">
        <ele>470.97</ele>
        <time>2025-04-30T07:34:27.477Z</time>
      </trkpt>
      <trkpt lat="47.79517" lon="6.54483">
        <ele>471.12</ele>
        <time>2025-04-30T07:34:31.240Z</time>
      </trkpt>
      <trkpt lat="47.79519" lon="6.54481">
        <ele>471.27</ele>
        <time>2025-04-30T07:34:35.003Z</time>
      </trkpt>
      <trkpt lat="47.79523" lon="6.54478">
        <ele>471.4</ele>
        <time>2025-04-30T07:34:38.767Z</time>
      </trkpt>
      <trkpt lat="47.79528" lon="6.54471">
        <ele>471.53</ele>
        <time>2025-04-30T07:34:42.532Z</time>
      </trkpt>
      <trkpt lat="47.7953" lon="6.54468">
        <ele>471.64</ele>
        <time>2025-04-30T07:34:46.298Z</time>
      </trkpt>
      <trkpt lat="47.79532" lon="6.54464">
        <ele>471.75</ele>
        <time>2025-04-30T07:34:50.065Z</time>
      </trkpt>
      <trkpt lat="47.79533" lon="6.54462">
        <ele>471.84</ele>
        <time>2025-04-30T07:34:53.832Z</time>
      </trkpt>
      <trkpt lat="47.79533" lon="6.54458">
        <ele>471.91</ele>
        <time>2025-04-30T07:34:57.600Z</time>
      </trkpt>
      <trkpt lat="47.79533" lon="6.54455">
        <ele>471.98</ele>
        <time>2025-04-30T07:35:01.368Z</time>
      </trkpt>
      <trkpt lat="47.79532" lon="6.5445">
        <ele>472.03</ele>
        <time>2025-04-30T07:35:05.137Z</time>
      </trkpt>
      <trkpt lat="47.79532" lon="6.54448">
        <ele>472.07</ele>
        <time>2025-04-30T07:35:08.906Z</time>
      </trkpt>
      <trkpt lat="47.7953" lon="6.54445">
        <ele>472.09</ele>
        <time>2025-04-30T07:35:12.676Z</time>
      </trkpt>
      <trkpt lat="47.79529" lon="6.54442">
        <ele>472.1</ele>
        <time>2025-04-30T07:35:16.446Z</time>
      </trkpt>
      <trkpt lat="47.79527" lon="6.54439">
        <ele>472.1</ele>
        <time>2025-04-30T07:35:20.217Z</time>
      </trkpt>
      <trkpt lat="47.79525" lon="6.54437">
        <ele>472.09</ele>
        <time>2025-04-30T07:35:23.988Z</time>
      </trkpt>
      <trkpt lat="47.79523" lon="6.54434">
        <ele>472.07</ele>
        <time>2025-04-30T07:35:27.760Z</time>
      </trkpt>
      <trkpt lat="47.79521" lon="6.54431">
        <ele>472.04</ele>
        <time>2025-04-30T07:35:31.533Z</time>
      </trkpt>
      <trkpt lat="47.7952" lon="6.54426">
        <ele>472</ele>
        <time>2025-04-30T07:35:35.306Z</time>
      </trkpt>
      <trkpt lat="47.7952" lon="6.54421">
        <ele>471.96</ele>
        <time>2025-04-30T07:35:39.080Z</time>
      </trkpt>
      <trkpt lat="47.79519" lon="6.54417">
        <ele>471.9</ele>
        <time>2025-04-30T07:35:42.855Z</time>
      </trkpt>
      <trkpt lat="47.79519" lon="6.54413">
        <ele>471.83</ele>
        <time>2025-04-30T07:35:46.630Z</time>
      </trkpt>
      <trkpt lat="47.79517" lon="6.54408">
        <ele>471.74</ele>
        <time>2025-04-30T07:35:50.406Z</time>
      </trkpt>
      <trkpt lat="47.79514" lon="6.54405">
        <ele>471.65</ele>
        <time>2025-04-30T07:35:54.183Z</time>
      </trkpt>
      <trkpt lat="47.79511" lon="6.54402">
        <ele>471.55</ele>
        <time>2025-04-30T07:35:57.961Z</time>
      </trkpt>
      <trkpt lat="47.7951" lon="6.54398">
        <ele>471.44</ele>
        <time>2025-04-30T07:36:01.739Z</time>
      </trkpt>
      <trkpt lat="47.79509" lon="6.54395">
        <ele>471.34</ele>
        <time>2025-04-30T07:36:05.518Z</time>
      </trkpt>
      <trkpt lat="47.79507" lon="6.54392">
        <ele>471.22</ele>
        <time>2025-04-30T07:36:09.297Z</time>
      </trkpt>
      <trkpt lat="47.79506" lon="6.54388">
        <ele>471.1</ele>
        <time>2025-04-30T07:36:13.077Z</time>
      </trkpt>
      <trkpt lat="47.79504" lon="6.54385">
        <ele>470.98</ele>
        <time>2025-04-30T07:36:16.858Z</time>
      </trkpt>
      <trkpt lat="47.79503" lon="6.54383">
        <ele>470.85</ele>
        <time>2025-04-30T07:36:20.639Z</time>
      </trkpt>
      <trkpt lat="47.79499" lon="6.54383">
        <ele>470.71</ele>
        <time>2025-04-30T07:36:24.421Z</time>
      </trkpt>
      <trkpt lat="47.79497" lon="6.54381">
        <ele>470.58</ele>
        <time>2025-04-30T07:36:28.203Z</time>
      </trkpt>
      <trkpt lat="47.79496" lon="6.54379">
        <ele>470.45</ele>
        <time>2025-04-30T07:36:31.986Z</time>
      </trkpt>
      <trkpt lat="47.79495" lon="6.54377">
        <ele>470.31</ele>
        <time>2025-04-30T07:36:35.769Z</time>
      </trkpt>
      <trkpt lat="47.79495" lon="6.54372">
        <ele>470.18</ele>
        <time>2025-04-30T07:36:39.553Z</time>
      </trkpt>
      <trkpt lat="47.79495" lon="6.54365">
        <ele>470.04</ele>
        <time>2025-04-30T07:36:43.338Z</time>
      </trkpt>
      <trkpt lat="47.79499" lon="6.54356">
        <ele>469.91</ele>
        <time>2025-04-30T07:36:47.124Z</time>
      </trkpt>
      <trkpt lat="47.79501" lon="6.54353">
        <ele>469.78</ele>
        <time>2025-04-30T07:36:50.911Z</time>
      </trkpt>
      <trkpt lat="47.79505" lon="6.5435">
        <ele>469.64</ele>
        <time>2025-04-30T07:36:54.699Z</time>
      </trkpt>
      <trkpt lat="47.79507" lon="6.54347">
        <ele>469.51</ele>
        <time>2025-04-30T07:36:58.488Z</time>
      </trkpt>
      <trkpt lat="47.79509" lon="6.54343">
        <ele>469.39</ele>
        <time>2025-04-30T07:37:02.277Z</time>
      </trkpt>
      <trkpt lat="47.79511" lon="6.5434">
        <ele>469.27</ele>
        <time>2025-04-30T07:37:06.067Z</time>
      </trkpt>
      <trkpt lat="47.79512" lon="6.54337">
        <ele>469.16</ele>
        <time>2025-04-30T07:37:09.857Z</time>
      </trkpt>
      <trkpt lat="47.79514" lon="6.54335">
        <ele>469.05</ele>
        <time>2025-04-30T07:37:13.648Z</time>
      </trkpt>
      <trkpt lat="47.79524" lon="6.54326">
        <ele>468.95</ele>
        <time>2025-04-30T07:37:17.441Z</time>
      </trkpt>
      <trkpt lat="47.79526" lon="6.54323">
        <ele>468.86</ele>
        <time>2025-04-30T07:37:21.235Z</time>
      </trkpt>
      <trkpt lat="47.79532" lon="6.54318">
        <ele>468.78</ele>
        <time>2025-04-30T07:37:25.030Z</time>
      </trkpt>
      <trkpt lat="47.79541" lon="6.54306">
        <ele>468.71</ele>
        <time>2025-04-30T07:37:28.828Z</time>
      </trkpt>
      <trkpt lat="47.79543" lon="6.54301">
        <ele>468.64</ele>
        <time>2025-04-30T07:37:32.627Z</time>
      </trkpt>
      <trkpt lat="47.79545" lon="6.54298">
        <ele>468.59</ele>
        <time>2025-04-30T07:37:36.426Z</time>
      </trkpt>
      <trkpt lat="47.79548" lon="6.54294">
        <ele>468.53</ele>
        <time>2025-04-30T07:37:40.226Z</time>
      </trkpt>
      <trkpt lat="47.79549" lon="6.54294">
        <ele>468.49</ele>
        <time>2025-04-30T07:37:44.026Z</time>
      </trkpt>
      <trkpt lat="47.79551" lon="6.54295">
        <ele>468.46</ele>
        <time>2025-04-30T07:37:47.827Z</time>
      </trkpt>
      <trkpt lat="47.79554" lon="6.54295">
        <ele>468.44</ele>
        <time>2025-04-30T07:37:51.629Z</time>
      </trkpt>
      <trkpt lat="47.79557" lon="6.54295">
        <ele>468.42</ele>
        <time>2025-04-30T07:37:55.431Z</time>
      </trkpt>
      <trkpt lat="47.79564" lon="6.54298">
        <ele>468.43</ele>
        <time>2025-04-30T07:37:59.235Z</time>
      </trkpt>
      <trkpt lat="47.79578" lon="6.54302">
        <ele>468.41</ele>
        <time>2025-04-30T07:38:03.042Z</time>
      </trkpt>
      <trkpt lat="47.79585" lon="6.54307">
        <ele>468.4</ele>
        <time>2025-04-30T07:38:06.850Z</time>
      </trkpt>
      <trkpt lat="47.79588" lon="6.54311">
        <ele>468.41</ele>
        <time>2025-04-30T07:38:10.659Z</time>
      </trkpt>
      <trkpt lat="47.79591" lon="6.54314">
        <ele>468.42</ele>
        <time>2025-04-30T07:38:14.469Z</time>
      </trkpt>
      <trkpt lat="47.79593" lon="6.54319">
        <ele>468.44</ele>
        <time>2025-04-30T07:38:18.280Z</time>
      </trkpt>
      <trkpt lat="47.79596" lon="6.54324">
        <ele>468.46</ele>
        <time>2025-04-30T07:38:22.092Z</time>
      </trkpt>
      <trkpt lat="47.79607" lon="6.54345">
        <ele>468.49</ele>
        <time>2025-04-30T07:38:25.908Z</time>
      </trkpt>
      <trkpt lat="47.79623" lon="6.54381">
        <ele>468.52</ele>
        <time>2025-04-30T07:38:29.730Z</time>
      </trkpt>
      <trkpt lat="47.79628" lon="6.5439">
        <ele>468.58</ele>
        <time>2025-04-30T07:38:33.554Z</time>
      </trkpt>
      <trkpt lat="47.7963" lon="6.54394">
        <ele>468.64</ele>
        <time>2025-04-30T07:38:37.378Z</time>
      </trkpt>
      <trkpt lat="47.79633" lon="6.54398">
        <ele>468.71</ele>
        <time>2025-04-30T07:38:41.203Z</time>
      </trkpt>
      <trkpt lat="47.79635" lon="6.54402">
        <ele>468.78</ele>
        <time>2025-04-30T07:38:45.029Z</time>
      </trkpt>
      <trkpt lat="47.79637" lon="6.54406">
        <ele>468.85</ele>
        <time>2025-04-30T07:38:48.856Z</time>
      </trkpt>
      <trkpt lat="47.7964" lon="6.5441">
        <ele>468.94</ele>
        <time>2025-04-30T07:38:52.683Z</time>
      </trkpt>
      <trkpt lat="47.79642" lon="6.54413">
        <ele>469.02</ele>
        <time>2025-04-30T07:38:56.511Z</time>
      </trkpt>
      <trkpt lat="47.79645" lon="6.54416">
        <ele>469.11</ele>
        <time>2025-04-30T07:39:00.340Z</time>
      </trkpt>
      <trkpt lat="47.79647" lon="6.5442">
        <ele>469.21</ele>
        <time>2025-04-30T07:39:04.170Z</time>
      </trkpt>
      <trkpt lat="47.7965" lon="6.54423">
        <ele>469.31</ele>
        <time>2025-04-30T07:39:08.000Z</time>
      </trkpt>
      <trkpt lat="47.79653" lon="6.54426">
        <ele>469.42</ele>
        <time>2025-04-30T07:39:11.831Z</time>
      </trkpt>
      <trkpt lat="47.79656" lon="6.5443">
        <ele>469.53</ele>
        <time>2025-04-30T07:39:15.663Z</time>
      </trkpt>
      <trkpt lat="47.79667" lon="6.54441">
        <ele>469.65</ele>
        <time>2025-04-30T07:39:19.498Z</time>
      </trkpt>
      <trkpt lat="47.79679" lon="6.54451">
        <ele>469.77</ele>
        <time>2025-04-30T07:39:23.336Z</time>
      </trkpt>
      <trkpt lat="47.79681" lon="6.54453">
        <ele>469.89</ele>
        <time>2025-04-30T07:39:27.174Z</time>
      </trkpt>
      <trkpt lat="47.79684" lon="6.54453">
        <ele>470</ele>
        <time>2025-04-30T07:39:31.013Z</time>
      </trkpt>
      <trkpt lat="47.79687" lon="6.54452">
        <ele>470.11</ele>
        <time>2025-04-30T07:39:34.853Z</time>
      </trkpt>
      <trkpt lat="47.7969" lon="6.54449">
        <ele>470.23</ele>
        <time>2025-04-30T07:39:38.693Z</time>
      </trkpt>
      <trkpt lat="47.79698" lon="6.54439">
        <ele>470.33</ele>
        <time>2025-04-30T07:39:42.536Z</time>
      </trkpt>
      <trkpt lat="47.797" lon="6.54435">
        <ele>470.46</ele>
        <time>2025-04-30T07:39:46.379Z</time>
      </trkpt>
      <trkpt lat="47.7971" lon="6.54423">
        <ele>470.62</ele>
        <time>2025-04-30T07:39:50.225Z</time>
      </trkpt>
      <trkpt lat="47.79724" lon="6.54397">
        <ele>470.8</ele>
        <time>2025-04-30T07:39:54.076Z</time>
      </trkpt>
      <trkpt lat="47.79726" lon="6.54391">
        <ele>470.94</ele>
        <time>2025-04-30T07:39:57.928Z</time>
      </trkpt>
      <trkpt lat="47.7973" lon="6.54372">
        <ele>471.07</ele>
        <time>2025-04-30T07:40:01.783Z</time>
      </trkpt>
      <trkpt lat="47.7973" lon="6.54369">
        <ele>471.2</ele>
        <time>2025-04-30T07:40:05.638Z</time>
      </trkpt>
      <trkpt lat="47.79731" lon="6.54365">
        <ele>471.34</ele>
        <time>2025-04-30T07:40:09.494Z</time>
      </trkpt>
      <trkpt lat="47.79731" lon="6.54363">
        <ele>471.48</ele>
        <time>2025-04-30T07:40:13.350Z</time>
      </trkpt>
      <trkpt lat="47.79732" lon="6.5436">
        <ele>471.62</ele>
        <time>2025-04-30T07:40:17.207Z</time>
      </trkpt>
      <trkpt lat="47.79732" lon="6.54358">
        <ele>471.76</ele>
        <time>2025-04-30T07:40:21.064Z</time>
      </trkpt>
      <trkpt lat="47.79733" lon="6.54355">
        <ele>471.89</ele>
        <time>2025-04-30T07:40:24.921Z</time>
      </trkpt>
      <trkpt lat="47.79733" lon="6.54353">
        <ele>472.03</ele>
        <time>2025-04-30T07:40:28.779Z</time>
      </trkpt>
      <trkpt lat="47.79733" lon="6.54349">
        <ele>472.17</ele>
        <time>2025-04-30T07:40:32.637Z</time>
      </trkpt>
      <trkpt lat="47.79733" lon="6.54343">
        <ele>472.31</ele>
        <time>2025-04-30T07:40:36.496Z</time>
      </trkpt>
      <trkpt lat="47.79739" lon="6.54335">
        <ele>472.45</ele>
        <time>2025-04-30T07:40:40.357Z</time>
      </trkpt>
      <trkpt lat="47.79747" lon="6.54326">
        <ele>472.58</ele>
        <time>2025-04-30T07:40:44.220Z</time>
      </trkpt>
      <trkpt lat="47.79754" lon="6.5432">
        <ele>472.73</ele>
        <time>2025-04-30T07:40:48.085Z</time>
      </trkpt>
      <trkpt lat="47.79756" lon="6.54316">
        <ele>472.87</ele>
        <time>2025-04-30T07:40:51.950Z</time>
      </trkpt>
      <trkpt lat="47.7977" lon="6.54294">
        <ele>473.02</ele>
        <time>2025-04-30T07:40:55.820Z</time>
      </trkpt>
      <trkpt lat="47.79774" lon="6.54289">
        <ele>473.17</ele>
        <time>2025-04-30T07:40:59.691Z</time>
      </trkpt>
      <trkpt lat="47.79778" lon="6.54286">
        <ele>473.33</ele>
        <time>2025-04-30T07:41:03.563Z</time>
      </trkpt>
      <trkpt lat="47.79783" lon="6.54284">
        <ele>473.49</ele>
        <time>2025-04-30T07:41:07.436Z</time>
      </trkpt>
      <trkpt lat="47.79788" lon="6.54283">
        <ele>473.66</ele>
        <time>2025-04-30T07:41:11.310Z</time>
      </trkpt>
      <trkpt lat="47.79793" lon="6.54283">
        <ele>473.83</ele>
        <time>2025-04-30T07:41:15.185Z</time>
      </trkpt>
      <trkpt lat="47.79797" lon="6.54284">
        <ele>473.99</ele>
        <time>2025-04-30T07:41:19.061Z</time>
      </trkpt>
      <trkpt lat="47.79801" lon="6.54285">
        <ele>474.16</ele>
        <time>2025-04-30T07:41:22.938Z</time>
      </trkpt>
      <trkpt lat="47.79818" lon="6.54291">
        <ele>474.39</ele>
        <time>2025-04-30T07:41:26.819Z</time>
      </trkpt>
      <trkpt lat="47.79822" lon="6.54294">
        <ele>474.54</ele>
        <time>2025-04-30T07:41:30.700Z</time>
      </trkpt>
      <trkpt lat="47.79826" lon="6.54295">
        <ele>474.68</ele>
        <time>2025-04-30T07:41:34.582Z</time>
      </trkpt>
      <trkpt lat="47.7983" lon="6.54296">
        <ele>474.8</ele>
        <time>2025-04-30T07:41:38.465Z</time>
      </trkpt>
      <trkpt lat="47.79833" lon="6.54297">
        <ele>474.91</ele>
        <time>2025-04-30T07:41:42.349Z</time>
      </trkpt>
      <trkpt lat="47.79837" lon="6.54297">
        <ele>475.01</ele>
        <time>2025-04-30T07:41:46.234Z</time>
      </trkpt>
      <trkpt lat="47.7984" lon="6.54296">
        <ele>475.1</ele>
        <time>2025-04-30T07:41:50.120Z</time>
      </trkpt>
      <trkpt lat="47.79852" lon="6.54292">
        <ele>475.15</ele>
        <time>2025-04-30T07:41:54.008Z</time>
      </trkpt>
      <trkpt lat="47.79861" lon="6.54287">
        <ele>475.21</ele>
        <time>2025-04-30T07:41:57.898Z</time>
      </trkpt>
      <trkpt lat="47.79869" lon="6.54284">
        <ele>475.25</ele>
        <time>2025-04-30T07:42:01.790Z</time>
      </trkpt>
      <trkpt lat="47.79874" lon="6.54283">
        <ele>475.29</ele>
        <time>2025-04-30T07:42:05.683Z</time>
      </trkpt>
      <trkpt lat="47.79878" lon="6.54281">
        <ele>475.32</ele>
        <time>2025-04-30T07:42:09.577Z</time>
      </trkpt>
      <trkpt lat="47.79881" lon="6.5428">
        <ele>475.33</ele>
        <time>2025-04-30T07:42:13.472Z</time>
      </trkpt>
      <trkpt lat="47.79885" lon="6.54279">
        <ele>475.34</ele>
        <time>2025-04-30T07:42:17.367Z</time>
      </trkpt>
      <trkpt lat="47.79888" lon="6.54277">
        <ele>475.33</ele>
        <time>2025-04-30T07:42:21.263Z</time>
      </trkpt>
      <trkpt lat="47.79891" lon="6.54275">
        <ele>475.32</ele>
        <time>2025-04-30T07:42:25.160Z</time>
      </trkpt>
      <trkpt lat="47.79894" lon="6.54273">
        <ele>475.3</ele>
        <time>2025-04-30T07:42:29.057Z</time>
      </trkpt>
      <trkpt lat="47.79897" lon="6.5427">
        <ele>475.26</ele>
        <time>2025-04-30T07:42:32.955Z</time>
      </trkpt>
      <trkpt lat="47.79901" lon="6.54267">
        <ele>475.21</ele>
        <time>2025-04-30T07:42:36.854Z</time>
      </trkpt>
      <trkpt lat="47.79904" lon="6.54264">
        <ele>475.15</ele>
        <time>2025-04-30T07:42:40.754Z</time>
      </trkpt>
      <trkpt lat="47.79908" lon="6.5426">
        <ele>475.1</ele>
        <time>2025-04-30T07:42:44.655Z</time>
      </trkpt>
      <trkpt lat="47.79915" lon="6.5425">
        <ele>475.03</ele>
        <time>2025-04-30T07:42:48.558Z</time>
      </trkpt>
      <trkpt lat="47.79932" lon="6.5423">
        <ele>474.95</ele>
        <time>2025-04-30T07:42:52.466Z</time>
      </trkpt>
      <trkpt lat="47.79936" lon="6.54226">
        <ele>474.92</ele>
        <time>2025-04-30T07:42:56.375Z</time>
      </trkpt>
      <trkpt lat="47.79939" lon="6.54222">
        <ele>474.89</ele>
        <time>2025-04-30T07:43:00.285Z</time>
      </trkpt>
      <trkpt lat="47.79943" lon="6.54218">
        <ele>474.85</ele>
        <time>2025-04-30T07:43:04.196Z</time>
      </trkpt>
      <trkpt lat="47.79947" lon="6.54214">
        <ele>474.81</ele>
        <time>2025-04-30T07:43:08.108Z</time>
      </trkpt>
      <trkpt lat="47.79952" lon="6.5421">
        <ele>474.79</ele>
        <time>2025-04-30T07:43:12.021Z</time>
      </trkpt>
      <trkpt lat="47.79957" lon="6.54205">
        <ele>474.75</ele>
        <time>2025-04-30T07:43:15.935Z</time>
      </trkpt>
      <trkpt lat="47.79961" lon="6.54202">
        <ele>474.72</ele>
        <time>2025-04-30T07:43:19.850Z</time>
      </trkpt>
      <trkpt lat="47.79966" lon="6.54198">
        <ele>474.71</ele>
        <time>2025-04-30T07:43:23.766Z</time>
      </trkpt>
      <trkpt lat="47.7997" lon="6.54194">
        <ele>474.69</ele>
        <time>2025-04-30T07:43:27.683Z</time>
      </trkpt>
      <trkpt lat="47.79973" lon="6.5419">
        <ele>474.67</ele>
        <time>2025-04-30T07:43:31.601Z</time>
      </trkpt>
      <trkpt lat="47.79987" lon="6.54177">
        <ele>474.66</ele>
        <time>2025-04-30T07:43:35.523Z</time>
      </trkpt>
      <trkpt lat="47.80013" lon="6.5416">
        <ele>474.69</ele>
        <time>2025-04-30T07:43:39.451Z</time>
      </trkpt>
      <trkpt lat="47.80017" lon="6.54157">
        <ele>474.66</ele>
        <time>2025-04-30T07:43:43.380Z</time>
      </trkpt>
      <trkpt lat="47.80027" lon="6.54142">
        <ele>474.62</ele>
        <time>2025-04-30T07:43:47.312Z</time>
      </trkpt>
      <trkpt lat="47.80033" lon="6.54133">
        <ele>474.58</ele>
        <time>2025-04-30T07:43:51.246Z</time>
      </trkpt>
      <trkpt lat="47.80043" lon="6.54122">
        <ele>474.55</ele>
        <time>2025-04-30T07:43:55.183Z</time>
      </trkpt>
      <trkpt lat="47.80047" lon="6.54118">
        <ele>474.51</ele>
        <time>2025-04-30T07:43:59.121Z</time>
      </trkpt>
      <trkpt lat="47.80051" lon="6.54116">
        <ele>474.48</ele>
        <time>2025-04-30T07:44:03.059Z</time>
      </trkpt>
      <trkpt lat="47.80055" lon="6.54112">
        <ele>474.44</ele>
        <time>2025-04-30T07:44:06.998Z</time>
      </trkpt>
      <trkpt lat="47.80059" lon="6.54109">
        <ele>474.41</ele>
        <time>2025-04-30T07:44:10.938Z</time>
      </trkpt>
      <trkpt lat="47.80063" lon="6.54105">
        <ele>474.38</ele>
        <time>2025-04-30T07:44:14.879Z</time>
      </trkpt>
      <trkpt lat="47.80067" lon="6.54102">
        <ele>474.35</ele>
        <time>2025-04-30T07:44:18.821Z</time>
      </trkpt>
      <trkpt lat="47.80081" lon="6.54087">
        <ele>474.34</ele>
        <time>2025-04-30T07:44:22.767Z</time>
      </trkpt>
      <trkpt lat="47.80099" lon="6.54063">
        <ele>474.34</ele>
        <time>2025-04-30T07:44:26.718Z</time>
      </trkpt>
      <trkpt lat="47.80101" lon="6.54059">
        <ele>474.31</ele>
        <time>2025-04-30T07:44:30.670Z</time>
      </trkpt>
      <trkpt lat="47.80104" lon="6.54055">
        <ele>474.29</ele>
        <time>2025-04-30T07:44:34.623Z</time>
      </trkpt>
      <trkpt lat="47.80107" lon="6.54051">
        <ele>474.27</ele>
        <time>2025-04-30T07:44:38.577Z</time>
      </trkpt>
      <trkpt lat="47.80109" lon="6.54047">
        <ele>474.25</ele>
        <time>2025-04-30T07:44:42.532Z</time>
      </trkpt>
      <trkpt lat="47.80112" lon="6.54043">
        <ele>474.23</ele>
        <time>2025-04-30T07:44:46.487Z</time>
      </trkpt>
      <trkpt lat="47.80115" lon="6.54038">
        <ele>474.2</ele>
        <time>2025-04-30T07:44:50.443Z</time>
      </trkpt>
      <trkpt lat="47.80117" lon="6.54035">
        <ele>474.18</ele>
        <time>2025-04-30T07:44:54.400Z</time>
      </trkpt>
      <trkpt lat="47.8012" lon="6.54032">
        <ele>474.16</ele>
        <time>2025-04-30T07:44:58.358Z</time>
      </trkpt>
      <trkpt lat="47.80122" lon="6.54028">
        <ele>474.13</ele>
        <time>2025-04-30T07:45:02.316Z</time>
      </trkpt>
      <trkpt lat="47.80125" lon="6.54026">
        <ele>474.11</ele>
        <time>2025-04-30T07:45:06.275Z</time>
      </trkpt>
      <trkpt lat="47.80128" lon="6.54024">
        <ele>474.09</ele>
        <time>2025-04-30T07:45:10.235Z</time>
      </trkpt>
      <trkpt lat="47.80131" lon="6.54021">
        <ele>474.07</ele>
        <time>2025-04-30T07:45:14.195Z</time>
      </trkpt>
      <trkpt lat="47.80133" lon="6.5402">
        <ele>474.06</ele>
        <time>2025-04-30T07:45:18.156Z</time>
      </trkpt>
      <trkpt lat="47.80135" lon="6.54018">
        <ele>474.05</ele>
        <time>2025-04-30T07:45:22.118Z</time>
      </trkpt>
      <trkpt lat="47.80138" lon="6.54016">
        <ele>474.05</ele>
        <time>2025-04-30T07:45:26.080Z</time>
      </trkpt>
      <trkpt lat="47.8014" lon="6.54014">
        <ele>474.06</ele>
        <time>2025-04-30T07:45:30.043Z</time>
      </trkpt>
      <trkpt lat="47.80142" lon="6.54011">
        <ele>474.07</ele>
        <time>2025-04-30T07:45:34.006Z</time>
      </trkpt>
      <trkpt lat="47.80144" lon="6.54008">
        <ele>474.09</ele>
        <time>2025-04-30T07:45:37.970Z</time>
      </trkpt>
      <trkpt lat="47.80146" lon="6.54005">
        <ele>474.12</ele>
        <time>2025-04-30T07:45:41.934Z</time>
      </trkpt>
      <trkpt lat="47.80147" lon="6.54001">
        <ele>474.15</ele>
        <time>2025-04-30T07:45:45.899Z</time>
      </trkpt>
      <trkpt lat="47.80148" lon="6.53996">
        <ele>474.19</ele>
        <time>2025-04-30T07:45:49.865Z</time>
      </trkpt>
      <trkpt lat="47.80149" lon="6.53992">
        <ele>474.24</ele>
        <time>2025-04-30T07:45:53.832Z</time>
      </trkpt>
      <trkpt lat="47.8015" lon="6.53987">
        <ele>474.3</ele>
        <time>2025-04-30T07:45:57.799Z</time>
      </trkpt>
      <trkpt lat="47.80152" lon="6.53982">
        <ele>474.37</ele>
        <time>2025-04-30T07:46:01.767Z</time>
      </trkpt>
      <trkpt lat="47.80154" lon="6.53977">
        <ele>474.45</ele>
        <time>2025-04-30T07:46:05.736Z</time>
      </trkpt>
      <trkpt lat="47.80156" lon="6.53973">
        <ele>474.54</ele>
        <time>2025-04-30T07:46:09.706Z</time>
      </trkpt>
      <trkpt lat="47.80159" lon="6.53968">
        <ele>474.65</ele>
        <time>2025-04-30T07:46:13.677Z</time>
      </trkpt>
      <trkpt lat="47.80161" lon="6.53964">
        <ele>474.76</ele>
        <time>2025-04-30T07:46:17.648Z</time>
      </trkpt>
      <trkpt lat="47.80164" lon="6.5396">
        <ele>474.89</ele>
        <time>2025-04-30T07:46:21.620Z</time>
      </trkpt>
      <trkpt lat="47.80166" lon="6.53956">
        <ele>475.02</ele>
        <time>2025-04-30T07:46:25.593Z</time>
      </trkpt>
      <trkpt lat="47.80168" lon="6.53953">
        <ele>475.16</ele>
        <time>2025-04-30T07:46:29.567Z</time>
      </trkpt>
      <trkpt lat="47.8017" lon="6.53949">
        <ele>475.3</ele>
        <time>2025-04-30T07:46:33.541Z</time>
      </trkpt>
      <trkpt lat="47.80172" lon="6.53946">
        <ele>475.46</ele>
        <time>2025-04-30T07:46:37.516Z</time>
      </trkpt>
      <trkpt lat="47.80174" lon="6.53942">
        <ele>475.62</ele>
        <time>2025-04-30T07:46:41.492Z</time>
      </trkpt>
      <trkpt lat="47.80176" lon="6.53939">
        <ele>475.79</ele>
        <time>2025-04-30T07:46:45.468Z</time>
      </trkpt>
      <trkpt lat="47.80178" lon="6.53936">
        <ele>475.96</ele>
        <time>2025-04-30T07:46:49.445Z</time>
      </trkpt>
      <trkpt lat="47.8018" lon="6.53933">
        <ele>476.15</ele>
        <time>2025-04-30T07:46:53.422Z</time>
      </trkpt>
      <trkpt lat="47.80182" lon="6.5393">
        <ele>476.34</ele>
        <time>2025-04-30T07:46:57.400Z</time>
      </trkpt>
      <trkpt lat="47.80185" lon="6.53926">
        <ele>476.54</ele>
        <time>2025-04-30T07:47:01.379Z</time>
      </trkpt>
      <trkpt lat="47.80187" lon="6.53923">
        <ele>476.74</ele>
        <time>2025-04-30T07:47:05.358Z</time>
      </trkpt>
      <trkpt lat="47.80189" lon="6.53921">
        <ele>476.94</ele>
        <time>2025-04-30T07:47:09.338Z</time>
      </trkpt>
      <trkpt lat="47.80192" lon="6.53919">
        <ele>477.15</ele>
        <time>2025-04-30T07:47:13.319Z</time>
      </trkpt>
      <trkpt lat="47.80194" lon="6.53917">
        <ele>477.36</ele>
        <time>2025-04-30T07:47:17.300Z</time>
      </trkpt>
      <trkpt lat="47.80197" lon="6.53915">
        <ele>477.58</ele>
        <time>2025-04-30T07:47:21.282Z</time>
      </trkpt>
      <trkpt lat="47.802" lon="6.53913">
        <ele>477.79</ele>
        <time>2025-04-30T07:47:25.265Z</time>
      </trkpt>
      <trkpt lat="47.80203" lon="6.53911">
        <ele>478</ele>
        <time>2025-04-30T07:47:29.248Z</time>
      </trkpt>
      <trkpt lat="47.80207" lon="6.5391">
        <ele>478.21</ele>
        <time>2025-04-30T07:47:33.232Z</time>
      </trkpt>
      <trkpt lat="47.8021" lon="6.53908">
        <ele>478.42</ele>
        <time>2025-04-30T07:47:37.217Z</time>
      </trkpt>
      <trkpt lat="47.80214" lon="6.53906">
        <ele>478.63</ele>
        <time>2025-04-30T07:47:41.203Z</time>
      </trkpt>
      <trkpt lat="47.80217" lon="6.53904">
        <ele>478.83</ele>
        <time>2025-04-30T07:47:45.189Z</time>
      </trkpt>
      <trkpt lat="47.8022" lon="6.53901">
        <ele>479.02</ele>
        <time>2025-04-30T07:47:49.176Z</time>
      </trkpt>
      <trkpt lat="47.80223" lon="6.53898">
        <ele>479.21</ele>
        <time>2025-04-30T07:47:53.164Z</time>
      </trkpt>
      <trkpt lat="47.80226" lon="6.53894">
        <ele>479.38</ele>
        <time>2025-04-30T07:47:57.153Z</time>
      </trkpt>
      <trkpt lat="47.80228" lon="6.53891">
        <ele>479.55</ele>
        <time>2025-04-30T07:48:01.143Z</time>
      </trkpt>
      <trkpt lat="47.80231" lon="6.53887">
        <ele>479.71</ele>
        <time>2025-04-30T07:48:05.133Z</time>
      </trkpt>
      <trkpt lat="47.80233" lon="6.53883">
        <ele>479.86</ele>
        <time>2025-04-30T07:48:09.124Z</time>
      </trkpt>
      <trkpt lat="47.80235" lon="6.53879">
        <ele>479.99</ele>
        <time>2025-04-30T07:48:13.116Z</time>
      </trkpt>
      <trkpt lat="47.80237" lon="6.53874">
        <ele>480.12</ele>
        <time>2025-04-30T07:48:17.109Z</time>
      </trkpt>
      <trkpt lat="47.80238" lon="6.5387">
        <ele>480.23</ele>
        <time>2025-04-30T07:48:21.102Z</time>
      </trkpt>
      <trkpt lat="47.80239" lon="6.53865">
        <ele>480.34</ele>
        <time>2025-04-30T07:48:25.096Z</time>
      </trkpt>
      <trkpt lat="47.80241" lon="6.5386">
        <ele>480.44</ele>
        <time>2025-04-30T07:48:29.091Z</time>
      </trkpt>
      <trkpt lat="47.80242" lon="6.53854">
        <ele>480.54</ele>
        <time>2025-04-30T07:48:33.087Z</time>
      </trkpt>
      <trkpt lat="47.80244" lon="6.53849">
        <ele>480.63</ele>
        <time>2025-04-30T07:48:37.084Z</time>
      </trkpt>
      <trkpt lat="47.80245" lon="6.53843">
        <ele>480.7</ele>
        <time>2025-04-30T07:48:41.082Z</time>
      </trkpt>
      <trkpt lat="47.80256" lon="6.53808">
        <ele>480.78</ele>
        <time>2025-04-30T07:48:45.085Z</time>
      </trkpt>
      <trkpt lat="47.80263" lon="6.53779">
        <ele>480.83</ele>
        <time>2025-04-30T07:48:49.092Z</time>
      </trkpt>
      <trkpt lat="47.80267" lon="6.53764">
        <ele>480.86</ele>
        <time>2025-04-30T07:48:53.102Z</time>
      </trkpt>
      <trkpt lat="47.80269" lon="6.53757">
        <ele>480.87</ele>
        <time>2025-04-30T07:48:57.113Z</time>
      </trkpt>
      <trkpt lat="47.80272" lon="6.53744">
        <ele>480.85</ele>
        <time>2025-04-30T07:49:01.126Z</time>
      </trkpt>
      <trkpt lat="47.80273" lon="6.53737">
        <ele>480.83</ele>
        <time>2025-04-30T07:49:05.140Z</time>
      </trkpt>
      <trkpt lat="47.80273" lon="6.53732">
        <ele>480.79</ele>
        <time>2025-04-30T07:49:09.155Z</time>
      </trkpt>
      <trkpt lat="47.80273" lon="6.53726">
        <ele>480.74</ele>
        <time>2025-04-30T07:49:13.171Z</time>
      </trkpt>
      <trkpt lat="47.80274" lon="6.53719">
        <ele>480.69</ele>
        <time>2025-04-30T07:49:17.188Z</time>
      </trkpt>
      <trkpt lat="47.80275" lon="6.53715">
        <ele>480.62</ele>
        <time>2025-04-30T07:49:21.205Z</time>
      </trkpt>
      <trkpt lat="47.80279" lon="6.53704">
        <ele>480.54</ele>
        <time>2025-04-30T07:49:25.224Z</time>
      </trkpt>
      <trkpt lat="47.80281" lon="6.537">
        <ele>480.44</ele>
        <time>2025-04-30T07:49:29.244Z</time>
      </trkpt>
      <trkpt lat="47.80285" lon="6.53695">
        <ele>480.33</ele>
        <time>2025-04-30T07:49:33.265Z</time>
      </trkpt>
      <trkpt lat="47.80289" lon="6.5369">
        <ele>480.22</ele>
        <time>2025-04-30T07:49:37.287Z</time>
      </trkpt>
      <trkpt lat="47.80301" lon="6.53675">
        <ele>480.09</ele>
        <time>2025-04-30T07:49:41.312Z</time>
      </trkpt>
      <trkpt lat="47.80304" lon="6.53671">
        <ele>479.94</ele>
        <time>2025-04-30T07:49:45.338Z</time>
      </trkpt>
      <trkpt lat="47.80308" lon="6.53665">
        <ele>479.79</ele>
        <time>2025-04-30T07:49:49.365Z</time>
      </trkpt>
      <trkpt lat="47.80319" lon="6.53653">
        <ele>479.66</ele>
        <time>2025-04-30T07:49:53.395Z</time>
      </trkpt>
      <trkpt lat="47.80329" lon="6.5364">
        <ele>479.5</ele>
        <time>2025-04-30T07:49:57.428Z</time>
      </trkpt>
      <trkpt lat="47.80332" lon="6.53634">
        <ele>479.33</ele>
        <time>2025-04-30T07:50:01.462Z</time>
      </trkpt>
      <trkpt lat="47.80334" lon="6.53629">
        <ele>479.14</ele>
        <time>2025-04-30T07:50:05.497Z</time>
      </trkpt>
      <trkpt lat="47.80337" lon="6.53625">
        <ele>478.94</ele>
        <time>2025-04-30T07:50:09.533Z</time>
      </trkpt>
      <trkpt lat="47.80339" lon="6.5362">
        <ele>478.74</ele>
        <time>2025-04-30T07:50:13.570Z</time>
      </trkpt>
      <trkpt lat="47.80341" lon="6.53615">
        <ele>478.53</ele>
        <time>2025-04-30T07:50:17.608Z</time>
      </trkpt>
      <trkpt lat="47.80343" lon="6.5361">
        <ele>478.32</ele>
        <time>2025-04-30T07:50:21.647Z</time>
      </trkpt>
      <trkpt lat="47.80344" lon="6.53604">
        <ele>478.1</ele>
        <time>2025-04-30T07:50:25.686Z</time>
      </trkpt>
      <trkpt lat="47.80345" lon="6.53599">
        <ele>477.87</ele>
        <time>2025-04-30T07:50:29.726Z</time>
      </trkpt>
      <trkpt lat="47.80354" lon="6.53583">
        <ele>477.64</ele>
        <time>2025-04-30T07:50:33.769Z</time>
      </trkpt>
      <trkpt lat="47.80357" lon="6.5358">
        <ele>477.41</ele>
        <time>2025-04-30T07:50:37.813Z</time>
      </trkpt>
      <trkpt lat="47.80381" lon="6.53553">
        <ele>477.17</ele>
        <time>2025-04-30T07:50:41.863Z</time>
      </trkpt>
      <trkpt lat="47.80398" lon="6.53533">
        <ele>476.91</ele>
        <time>2025-04-30T07:50:45.918Z</time>
      </trkpt>
      <trkpt lat="47.80402" lon="6.53528">
        <ele>476.69</ele>
        <time>2025-04-30T07:50:49.974Z</time>
      </trkpt>
      <trkpt lat="47.80411" lon="6.53518">
        <ele>476.47</ele>
        <time>2025-04-30T07:50:54.033Z</time>
      </trkpt>
      <trkpt lat="47.8044" lon="6.53473">
        <ele>476.21</ele>
        <time>2025-04-30T07:50:58.100Z</time>
      </trkpt>
      <trkpt lat="47.80449" lon="6.53458">
        <ele>476.01</ele>
        <time>2025-04-30T07:51:02.170Z</time>
      </trkpt>
      <trkpt lat="47.80462" lon="6.53437">
        <ele>475.82</ele>
        <time>2025-04-30T07:51:06.245Z</time>
      </trkpt>
      <trkpt lat="47.80466" lon="6.5343">
        <ele>475.67</ele>
        <time>2025-04-30T07:51:10.321Z</time>
      </trkpt>
      <trkpt lat="47.8047" lon="6.53424">
        <ele>475.54</ele>
        <time>2025-04-30T07:51:14.398Z</time>
      </trkpt>
      <trkpt lat="47.80474" lon="6.53417">
        <ele>475.44</ele>
        <time>2025-04-30T07:51:18.476Z</time>
      </trkpt>
      <trkpt lat="47.80477" lon="6.53411">
        <ele>475.36</ele>
        <time>2025-04-30T07:51:22.555Z</time>
      </trkpt>
      <trkpt lat="47.80481" lon="6.53405">
        <ele>475.31</ele>
        <time>2025-04-30T07:51:26.636Z</time>
      </trkpt>
      <trkpt lat="47.80485" lon="6.53398">
        <ele>475.29</ele>
        <time>2025-04-30T07:51:30.718Z</time>
      </trkpt>
      <trkpt lat="47.80497" lon="6.53378">
        <ele>475.29</ele>
        <time>2025-04-30T07:51:34.804Z</time>
      </trkpt>
      <trkpt lat="47.80515" lon="6.53336">
        <ele>475.29</ele>
        <time>2025-04-30T07:51:38.897Z</time>
      </trkpt>
      <trkpt lat="47.80543" lon="6.53289">
        <ele>475.23</ele>
        <time>2025-04-30T07:51:42.999Z</time>
      </trkpt>
      <trkpt lat="47.80557" lon="6.53275">
        <ele>475.28</ele>
        <time>2025-04-30T07:51:47.105Z</time>
      </trkpt>
      <trkpt lat="47.80564" lon="6.53261">
        <ele>475.38</ele>
        <time>2025-04-30T07:51:51.213Z</time>
      </trkpt>
      <trkpt lat="47.80565" lon="6.53251">
        <ele>475.5</ele>
        <time>2025-04-30T07:51:55.323Z</time>
      </trkpt>
      <trkpt lat="47.80563" lon="6.53243">
        <ele>475.66</ele>
        <time>2025-04-30T07:51:59.434Z</time>
      </trkpt>
      <trkpt lat="47.80561" lon="6.53235">
        <ele>475.84</ele>
        <time>2025-04-30T07:52:03.546Z</time>
      </trkpt>
      <trkpt lat="47.8056" lon="6.53229">
        <ele>476.05</ele>
        <time>2025-04-30T07:52:07.659Z</time>
      </trkpt>
      <trkpt lat="47.80558" lon="6.53221">
        <ele>476.29</ele>
        <time>2025-04-30T07:52:11.773Z</time>
      </trkpt>
      <trkpt lat="47.80557" lon="6.53214">
        <ele>476.55</ele>
        <time>2025-04-30T07:52:15.888Z</time>
      </trkpt>
      <trkpt lat="47.80556" lon="6.53207">
        <ele>476.83</ele>
        <time>2025-04-30T07:52:20.004Z</time>
      </trkpt>
      <trkpt lat="47.80555" lon="6.53201">
        <ele>477.13</ele>
        <time>2025-04-30T07:52:24.121Z</time>
      </trkpt>
      <trkpt lat="47.80555" lon="6.53193">
        <ele>477.46</ele>
        <time>2025-04-30T07:52:28.239Z</time>
      </trkpt>
      <trkpt lat="47.80555" lon="6.53184">
        <ele>477.8</ele>
        <time>2025-04-30T07:52:32.359Z</time>
      </trkpt>
      <trkpt lat="47.80549" lon="6.53144">
        <ele>478.14</ele>
        <time>2025-04-30T07:52:36.485Z</time>
      </trkpt>
      <trkpt lat="47.80536" lon="6.53084">
        <ele>478.48</ele>
        <time>2025-04-30T07:52:40.620Z</time>
      </trkpt>
      <trkpt lat="47.80535" lon="6.53077">
        <ele>478.9</ele>
        <time>2025-04-30T07:52:44.756Z</time>
      </trkpt>
      <trkpt lat="47.80532" lon="6.53059">
        <ele>479.35</ele>
        <time>2025-04-30T07:52:48.894Z</time>
      </trkpt>
      <trkpt lat="47.8053" lon="6.53052">
        <ele>479.81</ele>
        <time>2025-04-30T07:52:53.034Z</time>
      </trkpt>
      <trkpt lat="47.80525" lon="6.53041">
        <ele>480.3</ele>
        <time>2025-04-30T07:52:57.175Z</time>
      </trkpt>
      <trkpt lat="47.80521" lon="6.53037">
        <ele>480.79</ele>
        <time>2025-04-30T07:53:01.317Z</time>
      </trkpt>
      <trkpt lat="47.80517" lon="6.53033">
        <ele>481.27</ele>
        <time>2025-04-30T07:53:05.460Z</time>
      </trkpt>
      <trkpt lat="47.80515" lon="6.5303">
        <ele>481.75</ele>
        <time>2025-04-30T07:53:09.604Z</time>
      </trkpt>
      <trkpt lat="47.80513" lon="6.53028">
        <ele>482.22</ele>
        <time>2025-04-30T07:53:13.749Z</time>
      </trkpt>
      <trkpt lat="47.80511" lon="6.53025">
        <ele>482.69</ele>
        <time>2025-04-30T07:53:17.894Z</time>
      </trkpt>
      <trkpt lat="47.8051" lon="6.53021">
        <ele>483.14</ele>
        <time>2025-04-30T07:53:22.040Z</time>
      </trkpt>
      <trkpt lat="47.8051" lon="6.53017">
        <ele>483.59</ele>
        <time>2025-04-30T07:53:26.187Z</time>
      </trkpt>
      <trkpt lat="47.8051" lon="6.53012">
        <ele>484.01</ele>
        <time>2025-04-30T07:53:30.334Z</time>
      </trkpt>
      <trkpt lat="47.80511" lon="6.53007">
        <ele>484.41</ele>
        <time>2025-04-30T07:53:34.482Z</time>
      </trkpt>
      <trkpt lat="47.80514" lon="6.52987">
        <ele>484.8</ele>
        <time>2025-04-30T07:53:38.633Z</time>
      </trkpt>
      <trkpt lat="47.80515" lon="6.5298">
        <ele>485.16</ele>
        <time>2025-04-30T07:53:42.785Z</time>
      </trkpt>
      <trkpt lat="47.80514" lon="6.52953">
        <ele>485.53</ele>
        <time>2025-04-30T07:53:46.941Z</time>
      </trkpt>
      <trkpt lat="47.80511" lon="6.52928">
        <ele>485.9</ele>
        <time>2025-04-30T07:53:51.101Z</time>
      </trkpt>
      <trkpt lat="47.8051" lon="6.52912">
        <ele>486.21</ele>
        <time>2025-04-30T07:53:55.263Z</time>
      </trkpt>
      <trkpt lat="47.80511" lon="6.52905">
        <ele>486.46</ele>
        <time>2025-04-30T07:53:59.426Z</time>
      </trkpt>
      <trkpt lat="47.8051" lon="6.52897">
        <ele>486.69</ele>
        <time>2025-04-30T07:54:03.590Z</time>
      </trkpt>
      <trkpt lat="47.80509" lon="6.5289">
        <ele>486.88</ele>
        <time>2025-04-30T07:54:07.755Z</time>
      </trkpt>
      <trkpt lat="47.80508" lon="6.5288">
        <ele>487.05</ele>
        <time>2025-04-30T07:54:11.921Z</time>
      </trkpt>
      <trkpt lat="47.80504" lon="6.52861">
        <ele>487.19</ele>
        <time>2025-04-30T07:54:16.090Z</time>
      </trkpt>
      <trkpt lat="47.80503" lon="6.52852">
        <ele>487.26</ele>
        <time>2025-04-30T07:54:20.261Z</time>
      </trkpt>
      <trkpt lat="47.80501" lon="6.52843">
        <ele>487.29</ele>
        <time>2025-04-30T07:54:24.433Z</time>
      </trkpt>
      <trkpt lat="47.805" lon="6.52835">
        <ele>487.27</ele>
        <time>2025-04-30T07:54:28.606Z</time>
      </trkpt>
      <trkpt lat="47.80496" lon="6.52816">
        <ele>487.2</ele>
        <time>2025-04-30T07:54:32.782Z</time>
      </trkpt>
      <trkpt lat="47.80495" lon="6.52809">
        <ele>487.07</ele>
        <time>2025-04-30T07:54:36.959Z</time>
      </trkpt>
      <trkpt lat="47.80493" lon="6.528">
        <ele>486.92</ele>
        <time>2025-04-30T07:54:41.137Z</time>
      </trkpt>
      <trkpt lat="47.80491" lon="6.5279">
        <ele>486.72</ele>
        <time>2025-04-30T07:54:45.317Z</time>
      </trkpt>
      <trkpt lat="47.80489" lon="6.52782">
        <ele>486.47</ele>
        <time>2025-04-30T07:54:49.498Z</time>
      </trkpt>
      <trkpt lat="47.80487" lon="6.52772">
        <ele>486.16</ele>
        <time>2025-04-30T07:54:53.681Z</time>
      </trkpt>
      <trkpt lat="47.80483" lon="6.52745">
        <ele>485.77</ele>
        <time>2025-04-30T07:54:57.868Z</time>
      </trkpt>
      <trkpt lat="47.80482" lon="6.52736">
        <ele>485.38</ele>
        <time>2025-04-30T07:55:02.056Z</time>
      </trkpt>
      <trkpt lat="47.80482" lon="6.52726">
        <ele>484.95</ele>
        <time>2025-04-30T07:55:06.246Z</time>
      </trkpt>
      <trkpt lat="47.80477" lon="6.52695">
        <ele>484.46</ele>
        <time>2025-04-30T07:55:10.440Z</time>
      </trkpt>
      <trkpt lat="47.80476" lon="6.52671">
        <ele>483.92</ele>
        <time>2025-04-30T07:55:14.638Z</time>
      </trkpt>
      <trkpt lat="47.80475" lon="6.52661">
        <ele>483.37</ele>
        <time>2025-04-30T07:55:18.837Z</time>
      </trkpt>
      <trkpt lat="47.80476" lon="6.5265">
        <ele>482.79</ele>
        <time>2025-04-30T07:55:23.038Z</time>
      </trkpt>
      <trkpt lat="47.80481" lon="6.52628">
        <ele>482.12</ele>
        <time>2025-04-30T07:55:27.242Z</time>
      </trkpt>
      <trkpt lat="47.8049" lon="6.52598">
        <ele>481.45</ele>
        <time>2025-04-30T07:55:31.451Z</time>
      </trkpt>
      <trkpt lat="47.80494" lon="6.52587">
        <ele>480.8</ele>
        <time>2025-04-30T07:55:35.662Z</time>
      </trkpt>
      <trkpt lat="47.805" lon="6.52571">
        <ele>480.12</ele>
        <time>2025-04-30T07:55:39.875Z</time>
      </trkpt>
      <trkpt lat="47.80499" lon="6.52564">
        <ele>479.46</ele>
        <time>2025-04-30T07:55:44.089Z</time>
      </trkpt>
      <trkpt lat="47.80498" lon="6.52555">
        <ele>478.79</ele>
        <time>2025-04-30T07:55:48.305Z</time>
      </trkpt>
      <trkpt lat="47.80496" lon="6.52546">
        <ele>478.11</ele>
        <time>2025-04-30T07:55:52.522Z</time>
      </trkpt>
      <trkpt lat="47.80495" lon="6.52538">
        <ele>477.42</ele>
        <time>2025-04-30T07:55:56.740Z</time>
      </trkpt>
      <trkpt lat="47.80494" lon="6.5253">
        <ele>476.74</ele>
        <time>2025-04-30T07:56:00.959Z</time>
      </trkpt>
      <trkpt lat="47.80493" lon="6.52522">
        <ele>476.04</ele>
        <time>2025-04-30T07:56:05.179Z</time>
      </trkpt>
      <trkpt lat="47.80492" lon="6.52513">
        <ele>475.33</ele>
        <time>2025-04-30T07:56:09.401Z</time>
      </trkpt>
      <trkpt lat="47.80488" lon="6.52494">
        <ele>474.62</ele>
        <time>2025-04-30T07:56:13.626Z</time>
      </trkpt>
      <trkpt lat="47.80484" lon="6.52477">
        <ele>473.9</ele>
        <time>2025-04-30T07:56:17.853Z</time>
      </trkpt>
      <trkpt lat="47.80481" lon="6.52466">
        <ele>473.21</ele>
        <time>2025-04-30T07:56:22.082Z</time>
      </trkpt>
      <trkpt lat="47.80473" lon="6.5245">
        <ele>472.52</ele>
        <time>2025-04-30T07:56:26.314Z</time>
      </trkpt>
      <trkpt lat="47.80463" lon="6.52427">
        <ele>471.86</ele>
        <time>2025-04-30T07:56:30.550Z</time>
      </trkpt>
      <trkpt lat="47.80457" lon="6.52411">
        <ele>471.21</ele>
        <time>2025-04-30T07:56:34.788Z</time>
      </trkpt>
      <trkpt lat="47.80454" lon="6.52405">
        <ele>470.57</ele>
        <time>2025-04-30T07:56:39.027Z</time>
      </trkpt>
      <trkpt lat="47.8045" lon="6.52397">
        <ele>469.94</ele>
        <time>2025-04-30T07:56:43.268Z</time>
      </trkpt>
      <trkpt lat="47.80448" lon="6.52389">
        <ele>469.33</ele>
        <time>2025-04-30T07:56:47.510Z</time>
      </trkpt>
      <trkpt lat="47.80445" lon="6.52382">
        <ele>468.72</ele>
        <time>2025-04-30T07:56:51.753Z</time>
      </trkpt>
      <trkpt lat="47.80442" lon="6.52375">
        <ele>468.13</ele>
        <time>2025-04-30T07:56:55.998Z</time>
      </trkpt>
      <trkpt lat="47.80438" lon="6.52367">
        <ele>467.56</ele>
        <time>2025-04-30T07:57:00.244Z</time>
      </trkpt>
      <trkpt lat="47.80426" lon="6.5234">
        <ele>467.02</ele>
        <time>2025-04-30T07:57:04.495Z</time>
      </trkpt>
      <trkpt lat="47.80399" lon="6.52285">
        <ele>466.43</ele>
        <time>2025-04-30T07:57:08.756Z</time>
      </trkpt>
      <trkpt lat="47.80385" lon="6.52262">
        <ele>465.89</ele>
        <time>2025-04-30T07:57:13.021Z</time>
      </trkpt>
      <trkpt lat="47.80363" lon="6.52223">
        <ele>465.36</ele>
        <time>2025-04-30T07:57:17.293Z</time>
      </trkpt>
      <trkpt lat="47.80356" lon="6.5221">
        <ele>464.89</ele>
        <time>2025-04-30T07:57:21.568Z</time>
      </trkpt>
      <trkpt lat="47.80342" lon="6.52188">
        <ele>464.44</ele>
        <time>2025-04-30T07:57:25.847Z</time>
      </trkpt>
      <trkpt lat="47.80337" lon="6.52182">
        <ele>464.02</ele>
        <time>2025-04-30T07:57:30.127Z</time>
      </trkpt>
      <trkpt lat="47.80333" lon="6.52176">
        <ele>463.64</ele>
        <time>2025-04-30T07:57:34.409Z</time>
      </trkpt>
      <trkpt lat="47.80328" lon="6.5217">
        <ele>463.29</ele>
        <time>2025-04-30T07:57:38.692Z</time>
      </trkpt>
      <trkpt lat="47.80319" lon="6.52158">
        <ele>462.96</ele>
        <time>2025-04-30T07:57:42.978Z</time>
      </trkpt>
      <trkpt lat="47.80314" lon="6.52153">
        <ele>462.68</ele>
        <time>2025-04-30T07:57:47.265Z</time>
      </trkpt>
      <trkpt lat="47.8031" lon="6.52147">
        <ele>462.42</ele>
        <time>2025-04-30T07:57:51.553Z</time>
      </trkpt>
      <trkpt lat="47.80305" lon="6.52142">
        <ele>462.2</ele>
        <time>2025-04-30T07:57:55.842Z</time>
      </trkpt>
      <trkpt lat="47.80301" lon="6.52136">
        <ele>462.01</ele>
        <time>2025-04-30T07:58:00.133Z</time>
      </trkpt>
      <trkpt lat="47.80297" lon="6.52132">
        <ele>461.86</ele>
        <time>2025-04-30T07:58:04.425Z</time>
      </trkpt>
      <trkpt lat="47.80292" lon="6.52127">
        <ele>461.73</ele>
        <time>2025-04-30T07:58:08.718Z</time>
      </trkpt>
      <trkpt lat="47.80288" lon="6.52122">
        <ele>461.64</ele>
        <time>2025-04-30T07:58:13.012Z</time>
      </trkpt>
      <trkpt lat="47.80284" lon="6.52119">
        <ele>461.58</ele>
        <time>2025-04-30T07:58:17.307Z</time>
      </trkpt>
      <trkpt lat="47.80278" lon="6.52113">
        <ele>461.55</ele>
        <time>2025-04-30T07:58:21.604Z</time>
      </trkpt>
      <trkpt lat="47.80251" lon="6.52084">
        <ele>461.52</ele>
        <time>2025-04-30T07:58:25.908Z</time>
      </trkpt>
      <trkpt lat="47.80247" lon="6.52079">
        <ele>461.58</ele>
        <time>2025-04-30T07:58:30.213Z</time>
      </trkpt>
      <trkpt lat="47.80237" lon="6.52059">
        <ele>461.71</ele>
        <time>2025-04-30T07:58:34.521Z</time>
      </trkpt>
      <trkpt lat="47.80235" lon="6.52053">
        <ele>461.83</ele>
        <time>2025-04-30T07:58:38.830Z</time>
      </trkpt>
      <trkpt lat="47.80233" lon="6.52047">
        <ele>461.98</ele>
        <time>2025-04-30T07:58:43.140Z</time>
      </trkpt>
      <trkpt lat="47.80231" lon="6.52041">
        <ele>462.15</ele>
        <time>2025-04-30T07:58:47.451Z</time>
      </trkpt>
      <trkpt lat="47.80229" lon="6.52035">
        <ele>462.35</ele>
        <time>2025-04-30T07:58:51.763Z</time>
      </trkpt>
      <trkpt lat="47.80226" lon="6.52029">
        <ele>462.56</ele>
        <time>2025-04-30T07:58:56.076Z</time>
      </trkpt>
      <trkpt lat="47.80222" lon="6.52018">
        <ele>462.82</ele>
        <time>2025-04-30T07:59:00.391Z</time>
      </trkpt>
      <trkpt lat="47.80219" lon="6.52013">
        <ele>463.06</ele>
        <time>2025-04-30T07:59:04.707Z</time>
      </trkpt>
      <trkpt lat="47.80217" lon="6.52007">
        <ele>463.32</ele>
        <time>2025-04-30T07:59:09.024Z</time>
      </trkpt>
      <trkpt lat="47.80215" lon="6.52002">
        <ele>463.57</ele>
        <time>2025-04-30T07:59:13.342Z</time>
      </trkpt>
      <trkpt lat="47.80212" lon="6.51996">
        <ele>463.83</ele>
        <time>2025-04-30T07:59:17.661Z</time>
      </trkpt>
      <trkpt lat="47.8021" lon="6.5199">
        <ele>464.09</ele>
        <time>2025-04-30T07:59:21.981Z</time>
      </trkpt>
      <trkpt lat="47.80208" lon="6.51984">
        <ele>464.34</ele>
        <time>2025-04-30T07:59:26.302Z</time>
      </trkpt>
      <trkpt lat="47.80205" lon="6.51978">
        <ele>464.6</ele>
        <time>2025-04-30T07:59:30.624Z</time>
      </trkpt>
      <trkpt lat="47.80202" lon="6.51972">
        <ele>464.85</ele>
        <time>2025-04-30T07:59:34.947Z</time>
      </trkpt>
      <trkpt lat="47.80199" lon="6.51966">
        <ele>465.1</ele>
        <time>2025-04-30T07:59:39.271Z</time>
      </trkpt>
      <trkpt lat="47.80195" lon="6.51961">
        <ele>465.33</ele>
        <time>2025-04-30T07:59:43.596Z</time>
      </trkpt>
      <trkpt lat="47.80178" lon="6.51943">
        <ele>465.57</ele>
        <time>2025-04-30T07:59:47.926Z</time>
      </trkpt>
      <trkpt lat="47.80169" lon="6.51934">
        <ele>465.76</ele>
        <time>2025-04-30T07:59:52.258Z</time>
      </trkpt>
      <trkpt lat="47.80157" lon="6.5192">
        <ele>465.94</ele>
        <time>2025-04-30T07:59:56.593Z</time>
      </trkpt>
      <trkpt lat="47.80148" lon="6.51911">
        <ele>466.13</ele>
        <time>2025-04-30T08:00:00.931Z</time>
      </trkpt>
      <trkpt lat="47.80143" lon="6.51906">
        <ele>466.29</ele>
        <time>2025-04-30T08:00:05.270Z</time>
      </trkpt>
      <trkpt lat="47.80139" lon="6.51903">
        <ele>466.44</ele>
        <time>2025-04-30T08:00:09.610Z</time>
      </trkpt>
      <trkpt lat="47.80116" lon="6.51884">
        <ele>466.57</ele>
        <time>2025-04-30T08:00:13.956Z</time>
      </trkpt>
      <trkpt lat="47.80112" lon="6.51882">
        <ele>466.68</ele>
        <time>2025-04-30T08:00:18.303Z</time>
      </trkpt>
      <trkpt lat="47.80101" lon="6.51875">
        <ele>466.77</ele>
        <time>2025-04-30T08:00:22.652Z</time>
      </trkpt>
      <trkpt lat="47.8009" lon="6.51869">
        <ele>466.84</ele>
        <time>2025-04-30T08:00:27.004Z</time>
      </trkpt>
      <trkpt lat="47.80054" lon="6.51853">
        <ele>466.92</ele>
        <time>2025-04-30T08:00:31.364Z</time>
      </trkpt>
      <trkpt lat="47.80026" lon="6.51845">
        <ele>466.92</ele>
        <time>2025-04-30T08:00:35.730Z</time>
      </trkpt>
      <trkpt lat="47.8002" lon="6.51844">
        <ele>466.95</ele>
        <time>2025-04-30T08:00:40.097Z</time>
      </trkpt>
      <trkpt lat="47.80015" lon="6.51842">
        <ele>466.97</ele>
        <time>2025-04-30T08:00:44.465Z</time>
      </trkpt>
      <trkpt lat="47.80011" lon="6.5184">
        <ele>466.98</ele>
        <time>2025-04-30T08:00:48.834Z</time>
      </trkpt>
      <trkpt lat="47.80006" lon="6.51838">
        <ele>466.97</ele>
        <time>2025-04-30T08:00:53.204Z</time>
      </trkpt>
      <trkpt lat="47.79999" lon="6.51836">
        <ele>466.94</ele>
        <time>2025-04-30T08:00:57.576Z</time>
      </trkpt>
      <trkpt lat="47.79987" lon="6.51833">
        <ele>466.89</ele>
        <time>2025-04-30T08:01:01.950Z</time>
      </trkpt>
      <trkpt lat="47.79983" lon="6.51832">
        <ele>466.83</ele>
        <time>2025-04-30T08:01:06.325Z</time>
      </trkpt>
      <trkpt lat="47.79965" lon="6.51828">
        <ele>466.72</ele>
        <time>2025-04-30T08:01:10.704Z</time>
      </trkpt>
      <trkpt lat="47.79955" lon="6.51826">
        <ele>466.62</ele>
        <time>2025-04-30T08:01:15.085Z</time>
      </trkpt>
      <trkpt lat="47.79945" lon="6.51817">
        <ele>466.52</ele>
        <time>2025-04-30T08:01:19.469Z</time>
      </trkpt>
      <trkpt lat="47.79941" lon="6.5181">
        <ele>466.41</ele>
        <time>2025-04-30T08:01:23.854Z</time>
      </trkpt>
      <trkpt lat="47.79938" lon="6.51804">
        <ele>466.3</ele>
        <time>2025-04-30T08:01:28.240Z</time>
      </trkpt>
      <trkpt lat="47.79936" lon="6.51798">
        <ele>466.18</ele>
        <time>2025-04-30T08:01:32.627Z</time>
      </trkpt>
      <trkpt lat="47.79934" lon="6.5179">
        <ele>466.04</ele>
        <time>2025-04-30T08:01:37.015Z</time>
      </trkpt>
      <trkpt lat="47.79932" lon="6.51782">
        <ele>465.9</ele>
        <time>2025-04-30T08:01:41.405Z</time>
      </trkpt>
      <trkpt lat="47.79931" lon="6.51773">
        <ele>465.75</ele>
        <time>2025-04-30T08:01:45.796Z</time>
      </trkpt>
      <trkpt lat="47.79925" lon="6.5171">
        <ele>465.6</ele>
        <time>2025-04-30T08:01:50.196Z</time>
      </trkpt>
      <trkpt lat="47.79924" lon="6.51703">
        <ele>465.42</ele>
        <time>2025-04-30T08:01:54.597Z</time>
      </trkpt>
      <trkpt lat="47.79921" lon="6.51685">
        <ele>465.24</ele>
        <time>2025-04-30T08:01:59.001Z</time>
      </trkpt>
      <trkpt lat="47.79917" lon="6.51664">
        <ele>465.07</ele>
        <time>2025-04-30T08:02:03.408Z</time>
      </trkpt>
      <trkpt lat="47.79916" lon="6.51656">
        <ele>464.86</ele>
        <time>2025-04-30T08:02:07.816Z</time>
      </trkpt>
      <trkpt lat="47.79913" lon="6.51631">
        <ele>464.65</ele>
        <time>2025-04-30T08:02:12.228Z</time>
      </trkpt>
      <trkpt lat="47.79913" lon="6.51623">
        <ele>464.42</ele>
        <time>2025-04-30T08:02:16.641Z</time>
      </trkpt>
      <trkpt lat="47.79912" lon="6.51616">
        <ele>464.19</ele>
        <time>2025-04-30T08:02:21.055Z</time>
      </trkpt>
      <trkpt lat="47.79911" lon="6.51607">
        <ele>463.94</ele>
        <time>2025-04-30T08:02:25.470Z</time>
      </trkpt>
      <trkpt lat="47.7991" lon="6.51599">
        <ele>463.68</ele>
        <time>2025-04-30T08:02:29.887Z</time>
      </trkpt>
      <trkpt lat="47.79909" lon="6.51588">
        <ele>463.41</ele>
        <time>2025-04-30T08:02:34.305Z</time>
      </trkpt>
      <trkpt lat="47.79909" lon="6.51571">
        <ele>463.11</ele>
        <time>2025-04-30T08:02:38.726Z</time>
      </trkpt>
      <trkpt lat="47.7991" lon="6.51561">
        <ele>462.83</ele>
        <time>2025-04-30T08:02:43.148Z</time>
      </trkpt>
      <trkpt lat="47.79917" lon="6.5154">
        <ele>462.52</ele>
        <time>2025-04-30T08:02:47.573Z</time>
      </trkpt>
      <trkpt lat="47.79921" lon="6.5153">
        <ele>462.23</ele>
        <time>2025-04-30T08:02:52.000Z</time>
      </trkpt>
      <trkpt lat="47.79925" lon="6.51523">
        <ele>461.95</ele>
        <time>2025-04-30T08:02:56.428Z</time>
      </trkpt>
      <trkpt lat="47.79931" lon="6.51512">
        <ele>461.65</ele>
        <time>2025-04-30T08:03:00.858Z</time>
      </trkpt>
      <trkpt lat="47.79936" lon="6.51503">
        <ele>461.35</ele>
        <time>2025-04-30T08:03:05.290Z</time>
      </trkpt>
      <trkpt lat="47.7994" lon="6.51496">
        <ele>461.06</ele>
        <time>2025-04-30T08:03:09.724Z</time>
      </trkpt>
      <trkpt lat="47.79952" lon="6.51481">
        <ele>460.76</ele>
        <time>2025-04-30T08:03:14.161Z</time>
      </trkpt>
      <trkpt lat="47.79965" lon="6.51466">
        <ele>460.46</ele>
        <time>2025-04-30T08:03:18.601Z</time>
      </trkpt>
      <trkpt lat="47.79987" lon="6.51448">
        <ele>460.18</ele>
        <time>2025-04-30T08:03:23.047Z</time>
      </trkpt>
      <trkpt lat="47.80006" lon="6.51435">
        <ele>459.93</ele>
        <time>2025-04-30T08:03:27.497Z</time>
      </trkpt>
      <trkpt lat="47.80021" lon="6.51421">
        <ele>459.64</ele>
        <time>2025-04-30T08:03:31.951Z</time>
      </trkpt>
      <trkpt lat="47.80033" lon="6.51408">
        <ele>459.35</ele>
        <time>2025-04-30T08:03:36.408Z</time>
      </trkpt>
      <trkpt lat="47.8004" lon="6.51399">
        <ele>459.06</ele>
        <time>2025-04-30T08:03:40.867Z</time>
      </trkpt>
      <trkpt lat="47.80045" lon="6.51393">
        <ele>458.78</ele>
        <time>2025-04-30T08:03:45.328Z</time>
      </trkpt>
      <trkpt lat="47.80051" lon="6.51385">
        <ele>458.49</ele>
        <time>2025-04-30T08:03:49.790Z</time>
      </trkpt>
      <trkpt lat="47.80057" lon="6.51378">
        <ele>458.21</ele>
        <time>2025-04-30T08:03:54.254Z</time>
      </trkpt>
      <trkpt lat="47.80061" lon="6.51372">
        <ele>457.93</ele>
        <time>2025-04-30T08:03:58.719Z</time>
      </trkpt>
      <trkpt lat="47.80066" lon="6.51364">
        <ele>457.66</ele>
        <time>2025-04-30T08:04:03.186Z</time>
      </trkpt>
      <trkpt lat="47.80071" lon="6.51358">
        <ele>457.4</ele>
        <time>2025-04-30T08:04:07.654Z</time>
      </trkpt>
      <trkpt lat="47.80074" lon="6.51354">
        <ele>457.15</ele>
        <time>2025-04-30T08:04:12.123Z</time>
      </trkpt>
      <trkpt lat="47.80079" lon="6.51348">
        <ele>456.91</ele>
        <time>2025-04-30T08:04:16.593Z</time>
      </trkpt>
      <trkpt lat="47.80085" lon="6.51343">
        <ele>456.66</ele>
        <time>2025-04-30T08:04:21.065Z</time>
      </trkpt>
      <trkpt lat="47.80101" lon="6.51328">
        <ele>456.43</ele>
        <time>2025-04-30T08:04:25.541Z</time>
      </trkpt>
      <trkpt lat="47.80121" lon="6.51316">
        <ele>456.2</ele>
        <time>2025-04-30T08:04:30.022Z</time>
      </trkpt>
      <trkpt lat="47.80134" lon="6.51312">
        <ele>455.96</ele>
        <time>2025-04-30T08:04:34.505Z</time>
      </trkpt>
      <trkpt lat="47.80167" lon="6.51316">
        <ele>455.74</ele>
        <time>2025-04-30T08:04:38.996Z</time>
      </trkpt>
      <trkpt lat="47.80182" lon="6.51319">
        <ele>455.5</ele>
        <time>2025-04-30T08:04:43.490Z</time>
      </trkpt>
      <trkpt lat="47.80201" lon="6.51323">
        <ele>455.24</ele>
        <time>2025-04-30T08:04:47.988Z</time>
      </trkpt>
      <trkpt lat="47.80216" lon="6.51325">
        <ele>454.97</ele>
        <time>2025-04-30T08:04:52.489Z</time>
      </trkpt>
      <trkpt lat="47.80233" lon="6.51329">
        <ele>454.71</ele>
        <time>2025-04-30T08:04:56.994Z</time>
      </trkpt>
      <trkpt lat="47.80256" lon="6.51335">
        <ele>454.51</ele>
        <time>2025-04-30T08:05:01.504Z</time>
      </trkpt>
      <trkpt lat="47.80264" lon="6.51335">
        <ele>454.26</ele>
        <time>2025-04-30T08:05:06.015Z</time>
      </trkpt>
      <trkpt lat="47.80271" lon="6.51334">
        <ele>454</ele>
        <time>2025-04-30T08:05:10.528Z</time>
      </trkpt>
      <trkpt lat="47.8028" lon="6.51331">
        <ele>453.73</ele>
        <time>2025-04-30T08:05:15.043Z</time>
      </trkpt>
      <trkpt lat="47.80287" lon="6.51327">
        <ele>453.45</ele>
        <time>2025-04-30T08:05:19.560Z</time>
      </trkpt>
      <trkpt lat="47.80294" lon="6.51323">
        <ele>453.14</ele>
        <time>2025-04-30T08:05:24.078Z</time>
      </trkpt>
      <trkpt lat="47.803" lon="6.5132">
        <ele>452.84</ele>
        <time>2025-04-30T08:05:28.598Z</time>
      </trkpt>
      <trkpt lat="47.80318" lon="6.51316">
        <ele>452.53</ele>
        <time>2025-04-30T08:05:33.122Z</time>
      </trkpt>
      <trkpt lat="47.80334" lon="6.51322">
        <ele>452.21</ele>
        <time>2025-04-30T08:05:37.649Z</time>
      </trkpt>
      <trkpt lat="47.80342" lon="6.51327">
        <ele>451.89</ele>
        <time>2025-04-30T08:05:42.178Z</time>
      </trkpt>
      <trkpt lat="47.80351" lon="6.51331">
        <ele>451.56</ele>
        <time>2025-04-30T08:05:46.709Z</time>
      </trkpt>
      <trkpt lat="47.80361" lon="6.51335">
        <ele>451.21</ele>
        <time>2025-04-30T08:05:51.242Z</time>
      </trkpt>
      <trkpt lat="47.8037" lon="6.51337">
        <ele>450.85</ele>
        <time>2025-04-30T08:05:55.777Z</time>
      </trkpt>
      <trkpt lat="47.80377" lon="6.51337">
        <ele>450.54</ele>
        <time>2025-04-30T08:06:00.314Z</time>
      </trkpt>
      <trkpt lat="47.80392" lon="6.51336">
        <ele>450.23</ele>
        <time>2025-04-30T08:06:04.854Z</time>
      </trkpt>
      <trkpt lat="47.80399" lon="6.51334">
        <ele>449.91</ele>
        <time>2025-04-30T08:06:09.395Z</time>
      </trkpt>
      <trkpt lat="47.80406" lon="6.51331">
        <ele>449.58</ele>
        <time>2025-04-30T08:06:13.938Z</time>
      </trkpt>
      <trkpt lat="47.80412" lon="6.51327">
        <ele>449.25</ele>
        <time>2025-04-30T08:06:18.482Z</time>
      </trkpt>
      <trkpt lat="47.80417" lon="6.51324">
        <ele>448.91</ele>
        <time>2025-04-30T08:06:23.028Z</time>
      </trkpt>
      <trkpt lat="47.80424" lon="6.51319">
        <ele>448.55</ele>
        <time>2025-04-30T08:06:27.575Z</time>
      </trkpt>
      <trkpt lat="47.80428" lon="6.51314">
        <ele>448.19</ele>
        <time>2025-04-30T08:06:32.123Z</time>
      </trkpt>
      <trkpt lat="47.80433" lon="6.51309">
        <ele>447.82</ele>
        <time>2025-04-30T08:06:36.673Z</time>
      </trkpt>
      <trkpt lat="47.80439" lon="6.51304">
        <ele>447.46</ele>
        <time>2025-04-30T08:06:41.224Z</time>
      </trkpt>
      <trkpt lat="47.80456" lon="6.51292">
        <ele>447.06</ele>
        <time>2025-04-30T08:06:45.779Z</time>
      </trkpt>
      <trkpt lat="47.80462" lon="6.51289">
        <ele>446.72</ele>
        <time>2025-04-30T08:06:50.335Z</time>
      </trkpt>
      <trkpt lat="47.80489" lon="6.51279">
        <ele>446.41</ele>
        <time>2025-04-30T08:06:54.897Z</time>
      </trkpt>
      <trkpt lat="47.805" lon="6.51273">
        <ele>446.08</ele>
        <time>2025-04-30T08:06:59.462Z</time>
      </trkpt>
      <trkpt lat="47.80507" lon="6.5127">
        <ele>445.75</ele>
        <time>2025-04-30T08:07:04.028Z</time>
      </trkpt>
      <trkpt lat="47.80512" lon="6.51267">
        <ele>445.42</ele>
        <time>2025-04-30T08:07:08.596Z</time>
      </trkpt>
      <trkpt lat="47.80528" lon="6.51263">
        <ele>445.09</ele>
        <time>2025-04-30T08:07:13.167Z</time>
      </trkpt>
      <trkpt lat="47.80534" lon="6.5126">
        <ele>444.78</ele>
        <time>2025-04-30T08:07:17.739Z</time>
      </trkpt>
      <trkpt lat="47.80539" lon="6.51255">
        <ele>444.46</ele>
        <time>2025-04-30T08:07:22.313Z</time>
      </trkpt>
      <trkpt lat="47.80543" lon="6.51248">
        <ele>444.14</ele>
        <time>2025-04-30T08:07:26.888Z</time>
      </trkpt>
      <trkpt lat="47.80544" lon="6.5124">
        <ele>443.81</ele>
        <time>2025-04-30T08:07:31.464Z</time>
      </trkpt>
      <trkpt lat="47.80544" lon="6.51233">
        <ele>443.51</ele>
        <time>2025-04-30T08:07:36.041Z</time>
      </trkpt>
      <trkpt lat="47.80543" lon="6.51222">
        <ele>443.19</ele>
        <time>2025-04-30T08:07:40.620Z</time>
      </trkpt>
      <trkpt lat="47.8054" lon="6.51202">
        <ele>442.85</ele>
        <time>2025-04-30T08:07:45.202Z</time>
      </trkpt>
      <trkpt lat="47.80539" lon="6.51193">
        <ele>442.58</ele>
        <time>2025-04-30T08:07:49.785Z</time>
      </trkpt>
      <trkpt lat="47.80535" lon="6.51174">
        <ele>442.32</ele>
        <time>2025-04-30T08:07:54.371Z</time>
      </trkpt>
      <trkpt lat="47.80533" lon="6.51165">
        <ele>442.1</ele>
        <time>2025-04-30T08:07:58.958Z</time>
      </trkpt>
      <trkpt lat="47.80526" lon="6.51132">
        <ele>441.9</ele>
        <time>2025-04-30T08:08:03.550Z</time>
      </trkpt>
      <trkpt lat="47.80524" lon="6.51124">
        <ele>441.73</ele>
        <time>2025-04-30T08:08:08.144Z</time>
      </trkpt>
      <trkpt lat="47.80523" lon="6.51119">
        <ele>441.58</ele>
        <time>2025-04-30T08:08:12.738Z</time>
      </trkpt>
      <trkpt lat="47.80522" lon="6.51111">
        <ele>441.43</ele>
        <time>2025-04-30T08:08:17.334Z</time>
      </trkpt>
      <trkpt lat="47.8052" lon="6.51105">
        <ele>441.32</ele>
        <time>2025-04-30T08:08:21.931Z</time>
      </trkpt>
      <trkpt lat="47.80518" lon="6.51097">
        <ele>441.22</ele>
        <time>2025-04-30T08:08:26.529Z</time>
      </trkpt>
      <trkpt lat="47.80516" lon="6.5109">
        <ele>441.12</ele>
        <time>2025-04-30T08:08:31.128Z</time>
      </trkpt>
      <trkpt lat="47.80515" lon="6.51085">
        <ele>441.04</ele>
        <time>2025-04-30T08:08:35.728Z</time>
      </trkpt>
      <trkpt lat="47.80502" lon="6.51047">
        <ele>441.13</ele>
        <time>2025-04-30T08:08:40.334Z</time>
      </trkpt>
      <trkpt lat="47.805" lon="6.51039">
        <ele>441.07</ele>
        <time>2025-04-30T08:08:44.941Z</time>
      </trkpt>
      <trkpt lat="47.80497" lon="6.51026">
        <ele>441.05</ele>
        <time>2025-04-30T08:08:49.550Z</time>
      </trkpt>
      <trkpt lat="47.80496" lon="6.5102">
        <ele>440.99</ele>
        <time>2025-04-30T08:08:54.160Z</time>
      </trkpt>
      <trkpt lat="47.80496" lon="6.51016">
        <ele>440.92</ele>
        <time>2025-04-30T08:08:58.770Z</time>
      </trkpt>
      <trkpt lat="47.80496" lon="6.51009">
        <ele>440.86</ele>
        <time>2025-04-30T08:09:03.381Z</time>
      </trkpt>
      <trkpt lat="47.80496" lon="6.51004">
        <ele>440.78</ele>
        <time>2025-04-30T08:09:07.993Z</time>
      </trkpt>
      <trkpt lat="47.80497" lon="6.50997">
        <ele>440.7</ele>
        <time>2025-04-30T08:09:12.606Z</time>
      </trkpt>
      <trkpt lat="47.80499" lon="6.5099">
        <ele>440.6</ele>
        <time>2025-04-30T08:09:17.220Z</time>
      </trkpt>
      <trkpt lat="47.805" lon="6.50983">
        <ele>440.5</ele>
        <time>2025-04-30T08:09:21.835Z</time>
      </trkpt>
      <trkpt lat="47.80503" lon="6.50976">
        <ele>440.39</ele>
        <time>2025-04-30T08:09:26.451Z</time>
      </trkpt>
      <trkpt lat="47.80507" lon="6.50967">
        <ele>440.25</ele>
        <time>2025-04-30T08:09:31.069Z</time>
      </trkpt>
      <trkpt lat="47.80513" lon="6.50961">
        <ele>440.11</ele>
        <time>2025-04-30T08:09:35.689Z</time>
      </trkpt>
      <trkpt lat="47.80519" lon="6.50954">
        <ele>439.97</ele>
        <time>2025-04-30T08:09:40.310Z</time>
      </trkpt>
      <trkpt lat="47.80525" lon="6.50949">
        <ele>439.82</ele>
        <time>2025-04-30T08:09:44.933Z</time>
      </trkpt>
      <trkpt lat="47.8053" lon="6.50946">
        <ele>439.68</ele>
        <time>2025-04-30T08:09:49.557Z</time>
      </trkpt>
      <trkpt lat="47.80536" lon="6.50941">
        <ele>439.53</ele>
        <time>2025-04-30T08:09:54.182Z</time>
      </trkpt>
      <trkpt lat="47.80544" lon="6.50936">
        <ele>439.4</ele>
        <time>2025-04-30T08:09:58.809Z</time>
      </trkpt>
      <trkpt lat="47.8055" lon="6.50932">
        <ele>439.26</ele>
        <time>2025-04-30T08:10:03.438Z</time>
      </trkpt>
      <trkpt lat="47.80556" lon="6.50927">
        <ele>439.12</ele>
        <time>2025-04-30T08:10:08.068Z</time>
      </trkpt>
      <trkpt lat="47.80562" lon="6.50922">
        <ele>438.97</ele>
        <time>2025-04-30T08:10:12.699Z</time>
      </trkpt>
      <trkpt lat="47.80566" lon="6.50917">
        <ele>438.81</ele>
        <time>2025-04-30T08:10:17.332Z</time>
      </trkpt>
      <trkpt lat="47.80571" lon="6.5091">
        <ele>438.64</ele>
        <time>2025-04-30T08:10:21.966Z</time>
      </trkpt>
      <trkpt lat="47.80575" lon="6.50905">
        <ele>438.47</ele>
        <time>2025-04-30T08:10:26.601Z</time>
      </trkpt>
      <trkpt lat="47.80578" lon="6.509">
        <ele>438.29</ele>
        <time>2025-04-30T08:10:31.237Z</time>
      </trkpt>
      <trkpt lat="47.8058" lon="6.50893">
        <ele>438.12</ele>
        <time>2025-04-30T08:10:35.874Z</time>
      </trkpt>
      <trkpt lat="47.80581" lon="6.50884">
        <ele>437.94</ele>
        <time>2025-04-30T08:10:40.513Z</time>
      </trkpt>
      <trkpt lat="47.80579" lon="6.50878">
        <ele>437.76</ele>
        <time>2025-04-30T08:10:45.153Z</time>
      </trkpt>
      <trkpt lat="47.80576" lon="6.50871">
        <ele>437.56</ele>
        <time>2025-04-30T08:10:49.794Z</time>
      </trkpt>
      <trkpt lat="47.80574" lon="6.50867">
        <ele>437.36</ele>
        <time>2025-04-30T08:10:54.436Z</time>
      </trkpt>
      <trkpt lat="47.80571" lon="6.5086">
        <ele>437.15</ele>
        <time>2025-04-30T08:10:59.079Z</time>
      </trkpt>
      <trkpt lat="47.80568" lon="6.50854">
        <ele>436.92</ele>
        <time>2025-04-30T08:11:03.723Z</time>
      </trkpt>
      <trkpt lat="47.80564" lon="6.50845">
        <ele>436.69</ele>
        <time>2025-04-30T08:11:08.368Z</time>
      </trkpt>
      <trkpt lat="47.80561" lon="6.50838">
        <ele>436.45</ele>
        <time>2025-04-30T08:11:13.015Z</time>
      </trkpt>
      <trkpt lat="47.80556" lon="6.50816">
        <ele>436.18</ele>
        <time>2025-04-30T08:11:17.665Z</time>
      </trkpt>
      <trkpt lat="47.80555" lon="6.50806">
        <ele>435.9</ele>
        <time>2025-04-30T08:11:22.316Z</time>
      </trkpt>
      <trkpt lat="47.80554" lon="6.50774">
        <ele>435.62</ele>
        <time>2025-04-30T08:11:26.972Z</time>
      </trkpt>
      <trkpt lat="47.80554" lon="6.50765">
        <ele>435.33</ele>
        <time>2025-04-30T08:11:31.629Z</time>
      </trkpt>
      <trkpt lat="47.8055" lon="6.50735">
        <ele>435.03</ele>
        <time>2025-04-30T08:11:36.291Z</time>
      </trkpt>
      <trkpt lat="47.80549" lon="6.50727">
        <ele>434.72</ele>
        <time>2025-04-30T08:11:40.954Z</time>
      </trkpt>
      <trkpt lat="47.80543" lon="6.50694">
        <ele>434.38</ele>
        <time>2025-04-30T08:11:45.622Z</time>
      </trkpt>
      <trkpt lat="47.80543" lon="6.50676">
        <ele>434.03</ele>
        <time>2025-04-30T08:11:50.293Z</time>
      </trkpt>
      <trkpt lat="47.80545" lon="6.5066">
        <ele>433.69</ele>
        <time>2025-04-30T08:11:54.966Z</time>
      </trkpt>
      <trkpt lat="47.80552" lon="6.50624">
        <ele>433.34</ele>
        <time>2025-04-30T08:11:59.644Z</time>
      </trkpt>
      <trkpt lat="47.80565" lon="6.50557">
        <ele>432.97</ele>
        <time>2025-04-30T08:12:04.332Z</time>
      </trkpt>
      <trkpt lat="47.80582" lon="6.50479">
        <ele>432.57</ele>
        <time>2025-04-30T08:12:09.032Z</time>
      </trkpt>
      <trkpt lat="47.80583" lon="6.50468">
        <ele>432.2</ele>
        <time>2025-04-30T08:12:13.734Z</time>
      </trkpt>
      <trkpt lat="47.80583" lon="6.50459">
        <ele>431.82</ele>
        <time>2025-04-30T08:12:18.437Z</time>
      </trkpt>
      <trkpt lat="47.80583" lon="6.50452">
        <ele>431.44</ele>
        <time>2025-04-30T08:12:23.141Z</time>
      </trkpt>
      <trkpt lat="47.80579" lon="6.50435">
        <ele>431.06</ele>
        <time>2025-04-30T08:12:27.848Z</time>
      </trkpt>
      <trkpt lat="47.80574" lon="6.50426">
        <ele>430.66</ele>
        <time>2025-04-30T08:12:32.556Z</time>
      </trkpt>
      <trkpt lat="47.8057" lon="6.5042">
        <ele>430.27</ele>
        <time>2025-04-30T08:12:37.266Z</time>
      </trkpt>
      <trkpt lat="47.80566" lon="6.50415">
        <ele>429.87</ele>
        <time>2025-04-30T08:12:41.977Z</time>
      </trkpt>
      <trkpt lat="47.80562" lon="6.50409">
        <ele>429.47</ele>
        <time>2025-04-30T08:12:46.689Z</time>
      </trkpt>
      <trkpt lat="47.80557" lon="6.50403">
        <ele>429.06</ele>
        <time>2025-04-30T08:12:51.402Z</time>
      </trkpt>
      <trkpt lat="47.80548" lon="6.50388">
        <ele>428.65</ele>
        <time>2025-04-30T08:12:56.118Z</time>
      </trkpt>
      <trkpt lat="47.80519" lon="6.50329">
        <ele>428.16</ele>
        <time>2025-04-30T08:13:00.845Z</time>
      </trkpt>
      <trkpt lat="47.80516" lon="6.50322">
        <ele>427.74</ele>
        <time>2025-04-30T08:13:05.573Z</time>
      </trkpt>
      <trkpt lat="47.80505" lon="6.503">
        <ele>427.28</ele>
        <time>2025-04-30T08:13:10.305Z</time>
      </trkpt>
      <trkpt lat="47.80495" lon="6.50282">
        <ele>426.87</ele>
        <time>2025-04-30T08:13:15.040Z</time>
      </trkpt>
      <trkpt lat="47.80481" lon="6.50261">
        <ele>426.46</ele>
        <time>2025-04-30T08:13:19.779Z</time>
      </trkpt>
      <trkpt lat="47.80468" lon="6.50243">
        <ele>426.08</ele>
        <time>2025-04-30T08:13:24.522Z</time>
      </trkpt>
      <trkpt lat="47.80463" lon="6.50236">
        <ele>425.73</ele>
        <time>2025-04-30T08:13:29.267Z</time>
      </trkpt>
      <trkpt lat="47.80456" lon="6.50226">
        <ele>425.39</ele>
        <time>2025-04-30T08:13:34.014Z</time>
      </trkpt>
      <trkpt lat="47.80446" lon="6.50211">
        <ele>425.06</ele>
        <time>2025-04-30T08:13:38.764Z</time>
      </trkpt>
      <trkpt lat="47.80441" lon="6.50204">
        <ele>424.74</ele>
        <time>2025-04-30T08:13:43.515Z</time>
      </trkpt>
      <trkpt lat="47.80437" lon="6.50197">
        <ele>424.44</ele>
        <time>2025-04-30T08:13:48.268Z</time>
      </trkpt>
      <trkpt lat="47.80432" lon="6.50188">
        <ele>424.15</ele>
        <time>2025-04-30T08:13:53.022Z</time>
      </trkpt>
      <trkpt lat="47.80428" lon="6.50181">
        <ele>423.88</ele>
        <time>2025-04-30T08:13:57.778Z</time>
      </trkpt>
      <trkpt lat="47.80425" lon="6.50174">
        <ele>423.62</ele>
        <time>2025-04-30T08:14:02.535Z</time>
      </trkpt>
      <trkpt lat="47.80422" lon="6.50167">
        <ele>423.38</ele>
        <time>2025-04-30T08:14:07.293Z</time>
      </trkpt>
      <trkpt lat="47.80413" lon="6.50139">
        <ele>423.14</ele>
        <time>2025-04-30T08:14:12.056Z</time>
      </trkpt>
      <trkpt lat="47.80403" lon="6.50084">
        <ele>422.98</ele>
        <time>2025-04-30T08:14:16.827Z</time>
      </trkpt>
      <trkpt lat="47.80402" lon="6.50066">
        <ele>422.8</ele>
        <time>2025-04-30T08:14:21.600Z</time>
      </trkpt>
      <trkpt lat="47.80401" lon="6.50057">
        <ele>422.65</ele>
        <time>2025-04-30T08:14:26.375Z</time>
      </trkpt>
      <trkpt lat="47.80401" lon="6.50049">
        <ele>422.51</ele>
        <time>2025-04-30T08:14:31.151Z</time>
      </trkpt>
      <trkpt lat="47.80401" lon="6.50042">
        <ele>422.39</ele>
        <time>2025-04-30T08:14:35.928Z</time>
      </trkpt>
      <trkpt lat="47.804" lon="6.50034">
        <ele>422.28</ele>
        <time>2025-04-30T08:14:40.706Z</time>
      </trkpt>
      <trkpt lat="47.804" lon="6.50015">
        <ele>422.19</ele>
        <time>2025-04-30T08:14:45.487Z</time>
      </trkpt>
      <trkpt lat="47.80401" lon="6.50007">
        <ele>422.12</ele>
        <time>2025-04-30T08:14:50.269Z</time>
      </trkpt>
      <trkpt lat="47.80403" lon="6.50002">
        <ele>422.06</ele>
        <time>2025-04-30T08:14:55.052Z</time>
      </trkpt>
      <trkpt lat="47.80406" lon="6.49998">
        <ele>422.02</ele>
        <time>2025-04-30T08:14:59.836Z</time>
      </trkpt>
      <trkpt lat="47.80411" lon="6.49996">
        <ele>422</ele>
        <time>2025-04-30T08:15:04.621Z</time>
      </trkpt>
      <trkpt lat="47.80416" lon="6.49998">
        <ele>421.98</ele>
        <time>2025-04-30T08:15:09.407Z</time>
      </trkpt>
      <trkpt lat="47.80421" lon="6.50003">
        <ele>421.98</ele>
        <time>2025-04-30T08:15:14.194Z</time>
      </trkpt>
      <trkpt lat="47.80425" lon="6.50006">
        <ele>421.99</ele>
        <time>2025-04-30T08:15:18.982Z</time>
      </trkpt>
      <trkpt lat="47.80436" lon="6.50014">
        <ele>422</ele>
        <time>2025-04-30T08:15:23.773Z</time>
      </trkpt>
      <trkpt lat="47.80467" lon="6.50041">
        <ele>422.03</ele>
        <time>2025-04-30T08:15:28.571Z</time>
      </trkpt>
      <trkpt lat="47.80496" lon="6.50066">
        <ele>422.07</ele>
        <time>2025-04-30T08:15:33.377Z</time>
      </trkpt>
      <trkpt lat="47.80524" lon="6.50089">
        <ele>422.15</ele>
        <time>2025-04-30T08:15:38.189Z</time>
      </trkpt>
      <trkpt lat="47.80532" lon="6.5009">
        <ele>422.2</ele>
        <time>2025-04-30T08:15:43.003Z</time>
      </trkpt>
      <trkpt lat="47.8054" lon="6.5009">
        <ele>422.26</ele>
        <time>2025-04-30T08:15:47.819Z</time>
      </trkpt>
      <trkpt lat="47.80548" lon="6.50088">
        <ele>422.32</ele>
        <time>2025-04-30T08:15:52.637Z</time>
      </trkpt>
      <trkpt lat="47.80556" lon="6.50085">
        <ele>422.37</ele>
        <time>2025-04-30T08:15:57.456Z</time>
      </trkpt>
      <trkpt lat="47.80563" lon="6.50082">
        <ele>422.43</ele>
        <time>2025-04-30T08:16:02.277Z</time>
      </trkpt>
      <trkpt lat="47.80571" lon="6.50079">
        <ele>422.48</ele>
        <time>2025-04-30T08:16:07.100Z</time>
      </trkpt>
      <trkpt lat="47.80591" lon="6.50071">
        <ele>422.52</ele>
        <time>2025-04-30T08:16:11.927Z</time>
      </trkpt>
      <trkpt lat="47.80597" lon="6.50069">
        <ele>422.58</ele>
        <time>2025-04-30T08:16:16.756Z</time>
      </trkpt>
      <trkpt lat="47.80602" lon="6.50067">
        <ele>422.64</ele>
        <time>2025-04-30T08:16:21.586Z</time>
      </trkpt>
      <trkpt lat="47.80608" lon="6.50066">
        <ele>422.7</ele>
        <time>2025-04-30T08:16:26.417Z</time>
      </trkpt>
      <trkpt lat="47.80614" lon="6.50064">
        <ele>422.76</ele>
        <time>2025-04-30T08:16:31.249Z</time>
      </trkpt>
      <trkpt lat="47.8062" lon="6.50064">
        <ele>422.82</ele>
        <time>2025-04-30T08:16:36.083Z</time>
      </trkpt>
      <trkpt lat="47.80626" lon="6.50064">
        <ele>422.88</ele>
        <time>2025-04-30T08:16:40.918Z</time>
      </trkpt>
      <trkpt lat="47.80632" lon="6.50065">
        <ele>422.94</ele>
        <time>2025-04-30T08:16:45.754Z</time>
      </trkpt>
      <trkpt lat="47.80637" lon="6.50067">
        <ele>422.99</ele>
        <time>2025-04-30T08:16:50.591Z</time>
      </trkpt>
      <trkpt lat="47.80642" lon="6.5007">
        <ele>423.05</ele>
        <time>2025-04-30T08:16:55.429Z</time>
      </trkpt>
      <trkpt lat="47.80647" lon="6.50074">
        <ele>423.11</ele>
        <time>2025-04-30T08:17:00.269Z</time>
      </trkpt>
      <trkpt lat="47.80651" lon="6.5008">
        <ele>423.17</ele>
        <time>2025-04-30T08:17:05.110Z</time>
      </trkpt>
      <trkpt lat="47.80655" lon="6.50086">
        <ele>423.22</ele>
        <time>2025-04-30T08:17:09.952Z</time>
      </trkpt>
      <trkpt lat="47.80659" lon="6.50094">
        <ele>423.26</ele>
        <time>2025-04-30T08:17:14.796Z</time>
      </trkpt>
      <trkpt lat="47.80663" lon="6.50102">
        <ele>423.31</ele>
        <time>2025-04-30T08:17:19.641Z</time>
      </trkpt>
      <trkpt lat="47.80666" lon="6.50111">
        <ele>423.35</ele>
        <time>2025-04-30T08:17:24.487Z</time>
      </trkpt>
      <trkpt lat="47.80673" lon="6.50129">
        <ele>423.36</ele>
        <time>2025-04-30T08:17:29.336Z</time>
      </trkpt>
      <trkpt lat="47.80683" lon="6.50143">
        <ele>423.36</ele>
        <time>2025-04-30T08:17:34.188Z</time>
      </trkpt>
      <trkpt lat="47.80688" lon="6.50149">
        <ele>423.38</ele>
        <time>2025-04-30T08:17:39.042Z</time>
      </trkpt>
      <trkpt lat="47.80694" lon="6.50153">
        <ele>423.39</ele>
        <time>2025-04-30T08:17:43.897Z</time>
      </trkpt>
      <trkpt lat="47.807" lon="6.50156">
        <ele>423.39</ele>
        <time>2025-04-30T08:17:48.754Z</time>
      </trkpt>
      <trkpt lat="47.80706" lon="6.50156">
        <ele>423.38</ele>
        <time>2025-04-30T08:17:53.612Z</time>
      </trkpt>
      <trkpt lat="47.80712" lon="6.50155">
        <ele>423.37</ele>
        <time>2025-04-30T08:17:58.471Z</time>
      </trkpt>
      <trkpt lat="47.80718" lon="6.50151">
        <ele>423.35</ele>
        <time>2025-04-30T08:18:03.332Z</time>
      </trkpt>
      <trkpt lat="47.80723" lon="6.50145">
        <ele>423.35</ele>
        <time>2025-04-30T08:18:08.194Z</time>
      </trkpt>
      <trkpt lat="47.80727" lon="6.50138">
        <ele>423.34</ele>
        <time>2025-04-30T08:18:13.057Z</time>
      </trkpt>
      <trkpt lat="47.8073" lon="6.50132">
        <ele>423.34</ele>
        <time>2025-04-30T08:18:17.921Z</time>
      </trkpt>
      <trkpt lat="47.80733" lon="6.50125">
        <ele>423.33</ele>
        <time>2025-04-30T08:18:22.787Z</time>
      </trkpt>
      <trkpt lat="47.80736" lon="6.50118">
        <ele>423.33</ele>
        <time>2025-04-30T08:18:27.654Z</time>
      </trkpt>
      <trkpt lat="47.80739" lon="6.50111">
        <ele>423.32</ele>
        <time>2025-04-30T08:18:32.522Z</time>
      </trkpt>
      <trkpt lat="47.8074" lon="6.50106">
        <ele>423.32</ele>
        <time>2025-04-30T08:18:37.391Z</time>
      </trkpt>
      <trkpt lat="47.80742" lon="6.50102">
        <ele>423.31</ele>
        <time>2025-04-30T08:18:42.260Z</time>
      </trkpt>
      <trkpt lat="47.80743" lon="6.501">
        <ele>423.31</ele>
        <time>2025-04-30T08:18:47.130Z</time>
      </trkpt>
      <trkpt lat="47.80744" lon="6.50098">
        <ele>423.3</ele>
        <time>2025-04-30T08:18:52.000Z</time>
      </trkpt>
      <trkpt lat="47.80745" lon="6.50096">
        <ele>423.31</ele>
        <time>2025-04-30T08:18:56.871Z</time>
      </trkpt>
      <trkpt lat="47.80746" lon="6.50093">
        <ele>423.31</ele>
        <time>2025-04-30T08:19:01.742Z</time>
      </trkpt>
      <trkpt lat="47.80748" lon="6.50091">
        <ele>423.32</ele>
        <time>2025-04-30T08:19:06.613Z</time>
      </trkpt>
      <trkpt lat="47.80755" lon="6.50085">
        <ele>423.34</ele>
        <time>2025-04-30T08:19:11.486Z</time>
      </trkpt>
      <trkpt lat="47.80759" lon="6.50083">
        <ele>423.35</ele>
        <time>2025-04-30T08:19:16.360Z</time>
      </trkpt>
      <trkpt lat="47.80763" lon="6.50082">
        <ele>423.36</ele>
        <time>2025-04-30T08:19:21.235Z</time>
      </trkpt>
      <trkpt lat="47.80768" lon="6.5008">
        <ele>423.37</ele>
        <time>2025-04-30T08:19:26.111Z</time>
      </trkpt>
      <trkpt lat="47.80778" lon="6.50078">
        <ele>423.39</ele>
        <time>2025-04-30T08:19:30.989Z</time>
      </trkpt>
      <trkpt lat="47.80788" lon="6.50078">
        <ele>423.41</ele>
        <time>2025-04-30T08:19:35.869Z</time>
      </trkpt>
      <trkpt lat="47.80793" lon="6.50079">
        <ele>423.43</ele>
        <time>2025-04-30T08:19:40.750Z</time>
      </trkpt>
      <trkpt lat="47.80809" lon="6.5008">
        <ele>423.46</ele>
        <time>2025-04-30T08:19:45.635Z</time>
      </trkpt>
      <trkpt lat="47.80818" lon="6.50075">
        <ele>423.48</ele>
        <time>2025-04-30T08:19:50.522Z</time>
      </trkpt>
      <trkpt lat="47.80821" lon="6.50069">
        <ele>423.52</ele>
        <time>2025-04-30T08:19:55.410Z</time>
      </trkpt>
      <trkpt lat="47.80824" lon="6.50062">
        <ele>423.55</ele>
        <time>2025-04-30T08:20:00.299Z</time>
      </trkpt>
      <trkpt lat="47.80825" lon="6.50055">
        <ele>423.58</ele>
        <time>2025-04-30T08:20:05.189Z</time>
      </trkpt>
      <trkpt lat="47.80829" lon="6.50041">
        <ele>423.63</ele>
        <time>2025-04-30T08:20:10.081Z</time>
      </trkpt>
      <trkpt lat="47.80831" lon="6.50035">
        <ele>423.69</ele>
        <time>2025-04-30T08:20:14.974Z</time>
      </trkpt>
      <trkpt lat="47.80833" lon="6.50028">
        <ele>423.76</ele>
        <time>2025-04-30T08:20:19.868Z</time>
      </trkpt>
      <trkpt lat="47.80836" lon="6.50022">
        <ele>423.82</ele>
        <time>2025-04-30T08:20:24.763Z</time>
      </trkpt>
      <trkpt lat="47.80838" lon="6.50015">
        <ele>423.91</ele>
        <time>2025-04-30T08:20:29.659Z</time>
      </trkpt>
      <trkpt lat="47.8084" lon="6.50009">
        <ele>423.99</ele>
        <time>2025-04-30T08:20:34.556Z</time>
      </trkpt>
      <trkpt lat="47.80841" lon="6.50003">
        <ele>424.09</ele>
        <time>2025-04-30T08:20:39.454Z</time>
      </trkpt>
      <trkpt lat="47.80842" lon="6.49997">
        <ele>424.19</ele>
        <time>2025-04-30T08:20:44.353Z</time>
      </trkpt>
      <trkpt lat="47.80843" lon="6.49992">
        <ele>424.3</ele>
        <time>2025-04-30T08:20:49.253Z</time>
      </trkpt>
      <trkpt lat="47.80843" lon="6.49989">
        <ele>424.41</ele>
        <time>2025-04-30T08:20:54.154Z</time>
      </trkpt>
      <trkpt lat="47.80843" lon="6.49987">
        <ele>424.52</ele>
        <time>2025-04-30T08:20:59.055Z</time>
      </trkpt>
      <trkpt lat="47.80843" lon="6.49987">
        <ele>424.63</ele>
        <time>2025-04-30T08:21:03.956Z</time>
      </trkpt>
      <trkpt lat="47.80836" lon="6.49977">
        <ele>424.76</ele>
        <time>2025-04-30T08:21:08.859Z</time>
      </trkpt>
      <trkpt lat="47.80834" lon="6.49973">
        <ele>424.89</ele>
        <time>2025-04-30T08:21:13.763Z</time>
      </trkpt>
      <trkpt lat="47.80832" lon="6.49969">
        <ele>425.02</ele>
        <time>2025-04-30T08:21:18.667Z</time>
      </trkpt>
      <trkpt lat="47.8083" lon="6.49963">
        <ele>425.16</ele>
        <time>2025-04-30T08:21:23.572Z</time>
      </trkpt>
      <trkpt lat="47.80828" lon="6.49958">
        <ele>425.31</ele>
        <time>2025-04-30T08:21:28.478Z</time>
      </trkpt>
      <trkpt lat="47.80819" lon="6.4994">
        <ele>425.47</ele>
        <time>2025-04-30T08:21:33.387Z</time>
      </trkpt>
      <trkpt lat="47.80815" lon="6.49933">
        <ele>425.63</ele>
        <time>2025-04-30T08:21:38.298Z</time>
      </trkpt>
      <trkpt lat="47.80809" lon="6.49923">
        <ele>425.79</ele>
        <time>2025-04-30T08:21:43.211Z</time>
      </trkpt>
      <trkpt lat="47.80806" lon="6.49919">
        <ele>425.94</ele>
        <time>2025-04-30T08:21:48.124Z</time>
      </trkpt>
      <trkpt lat="47.80805" lon="6.49917">
        <ele>426.09</ele>
        <time>2025-04-30T08:21:53.038Z</time>
      </trkpt>
      <trkpt lat="47.80804" lon="6.49915">
        <ele>426.25</ele>
        <time>2025-04-30T08:21:57.952Z</time>
      </trkpt>
      <trkpt lat="47.80803" lon="6.49915">
        <ele>426.41</ele>
        <time>2025-04-30T08:22:02.866Z</time>
      </trkpt>
      <trkpt lat="47.80805" lon="6.49918">
        <ele>426.56</ele>
        <time>2025-04-30T08:22:07.781Z</time>
      </trkpt>
      <trkpt lat="47.80807" lon="6.4992">
        <ele>426.72</ele>
        <time>2025-04-30T08:22:12.696Z</time>
      </trkpt>
      <trkpt lat="47.80808" lon="6.49923">
        <ele>426.88</ele>
        <time>2025-04-30T08:22:17.612Z</time>
      </trkpt>
      <trkpt lat="47.8081" lon="6.49926">
        <ele>427.04</ele>
        <time>2025-04-30T08:22:22.528Z</time>
      </trkpt>
      <trkpt lat="47.80818" lon="6.49942">
        <ele>427.18</ele>
        <time>2025-04-30T08:22:27.447Z</time>
      </trkpt>
      <trkpt lat="47.80822" lon="6.4995">
        <ele>427.34</ele>
        <time>2025-04-30T08:22:32.368Z</time>
      </trkpt>
      <trkpt lat="47.80824" lon="6.49953">
        <ele>427.52</ele>
        <time>2025-04-30T08:22:37.289Z</time>
      </trkpt>
      <trkpt lat="47.80825" lon="6.49955">
        <ele>427.71</ele>
        <time>2025-04-30T08:22:42.211Z</time>
      </trkpt>
      <trkpt lat="47.80827" lon="6.49958">
        <ele>427.9</ele>
        <time>2025-04-30T08:22:47.133Z</time>
      </trkpt>
      <trkpt lat="47.80828" lon="6.4996">
        <ele>428.09</ele>
        <time>2025-04-30T08:22:52.056Z</time>
      </trkpt>
      <trkpt lat="47.80829" lon="6.49963">
        <ele>428.29</ele>
        <time>2025-04-30T08:22:56.979Z</time>
      </trkpt>
      <trkpt lat="47.8083" lon="6.49965">
        <ele>428.5</ele>
        <time>2025-04-30T08:23:01.903Z</time>
      </trkpt>
      <trkpt lat="47.80831" lon="6.49968">
        <ele>428.71</ele>
        <time>2025-04-30T08:23:06.827Z</time>
      </trkpt>
      <trkpt lat="47.80835" lon="6.49976">
        <ele>428.91</ele>
        <time>2025-04-30T08:23:11.752Z</time>
      </trkpt>
      <trkpt lat="47.80836" lon="6.49978">
        <ele>429.14</ele>
        <time>2025-04-30T08:23:16.678Z</time>
      </trkpt>
      <trkpt lat="47.80839" lon="6.49979">
        <ele>429.37</ele>
        <time>2025-04-30T08:23:21.604Z</time>
      </trkpt>
      <trkpt lat="47.80841" lon="6.49979">
        <ele>429.61</ele>
        <time>2025-04-30T08:23:26.531Z</time>
      </trkpt>
      <trkpt lat="47.80842" lon="6.49978">
        <ele>429.85</ele>
        <time>2025-04-30T08:23:31.458Z</time>
      </trkpt>
      <trkpt lat="47.80843" lon="6.49977">
        <ele>430.09</ele>
        <time>2025-04-30T08:23:36.385Z</time>
      </trkpt>
      <trkpt lat="47.80843" lon="6.49976">
        <ele>430.34</ele>
        <time>2025-04-30T08:23:41.313Z</time>
      </trkpt>
      <trkpt lat="47.80836" lon="6.49978">
        <ele>430.57</ele>
        <time>2025-04-30T08:23:46.242Z</time>
      </trkpt>
      <trkpt lat="47.80832" lon="6.49971">
        <ele>430.83</ele>
        <time>2025-04-30T08:23:51.172Z</time>
      </trkpt>
      <trkpt lat="47.80818" lon="6.49945">
        <ele>431.12</ele>
        <time>2025-04-30T08:23:56.107Z</time>
      </trkpt>
      <trkpt lat="47.80815" lon="6.49938">
        <ele>431.37</ele>
        <time>2025-04-30T08:24:01.043Z</time>
      </trkpt>
      <trkpt lat="47.80797" lon="6.49911">
        <ele>431.66</ele>
        <time>2025-04-30T08:24:05.985Z</time>
      </trkpt>
      <trkpt lat="47.80794" lon="6.49904">
        <ele>431.92</ele>
        <time>2025-04-30T08:24:10.928Z</time>
      </trkpt>
      <trkpt lat="47.80792" lon="6.49898">
        <ele>432.16</ele>
        <time>2025-04-30T08:24:15.872Z</time>
      </trkpt>
      <trkpt lat="47.80791" lon="6.49892">
        <ele>432.39</ele>
        <time>2025-04-30T08:24:20.817Z</time>
      </trkpt>
      <trkpt lat="47.8079" lon="6.49885">
        <ele>432.61</ele>
        <time>2025-04-30T08:24:25.763Z</time>
      </trkpt>
      <trkpt lat="47.8079" lon="6.49879">
        <ele>432.82</ele>
        <time>2025-04-30T08:24:30.710Z</time>
      </trkpt>
      <trkpt lat="47.80791" lon="6.49872">
        <ele>433.02</ele>
        <time>2025-04-30T08:24:35.658Z</time>
      </trkpt>
      <trkpt lat="47.80793" lon="6.49866">
        <ele>433.2</ele>
        <time>2025-04-30T08:24:40.607Z</time>
      </trkpt>
      <trkpt lat="47.80794" lon="6.49859">
        <ele>433.36</ele>
        <time>2025-04-30T08:24:45.557Z</time>
      </trkpt>
      <trkpt lat="47.80795" lon="6.49853">
        <ele>433.49</ele>
        <time>2025-04-30T08:24:50.508Z</time>
      </trkpt>
      <trkpt lat="47.80797" lon="6.49841">
        <ele>433.62</ele>
        <time>2025-04-30T08:24:55.460Z</time>
      </trkpt>
      <trkpt lat="47.80797" lon="6.49836">
        <ele>433.71</ele>
        <time>2025-04-30T08:25:00.413Z</time>
      </trkpt>
      <trkpt lat="47.80795" lon="6.49831">
        <ele>433.77</ele>
        <time>2025-04-30T08:25:05.367Z</time>
      </trkpt>
      <trkpt lat="47.80795" lon="6.49827">
        <ele>433.81</ele>
        <time>2025-04-30T08:25:10.322Z</time>
      </trkpt>
      <trkpt lat="47.80794" lon="6.49822">
        <ele>433.82</ele>
        <time>2025-04-30T08:25:15.277Z</time>
      </trkpt>
      <trkpt lat="47.80795" lon="6.49817">
        <ele>433.81</ele>
        <time>2025-04-30T08:25:20.233Z</time>
      </trkpt>
      <trkpt lat="47.80795" lon="6.49811">
        <ele>433.77</ele>
        <time>2025-04-30T08:25:25.190Z</time>
      </trkpt>
      <trkpt lat="47.80795" lon="6.49806">
        <ele>433.71</ele>
        <time>2025-04-30T08:25:30.147Z</time>
      </trkpt>
      <trkpt lat="47.80794" lon="6.49802">
        <ele>433.61</ele>
        <time>2025-04-30T08:25:35.105Z</time>
      </trkpt>
      <trkpt lat="47.80793" lon="6.49797">
        <ele>433.49</ele>
        <time>2025-04-30T08:25:40.064Z</time>
      </trkpt>
      <trkpt lat="47.80793" lon="6.49793">
        <ele>433.34</ele>
        <time>2025-04-30T08:25:45.024Z</time>
      </trkpt>
      <trkpt lat="47.80791" lon="6.49788">
        <ele>433.17</ele>
        <time>2025-04-30T08:25:49.984Z</time>
      </trkpt>
      <trkpt lat="47.80789" lon="6.49781">
        <ele>432.98</ele>
        <time>2025-04-30T08:25:54.945Z</time>
      </trkpt>
      <trkpt lat="47.80788" lon="6.49776">
        <ele>432.76</ele>
        <time>2025-04-30T08:25:59.907Z</time>
      </trkpt>
      <trkpt lat="47.80788" lon="6.49771">
        <ele>432.5</ele>
        <time>2025-04-30T08:26:04.870Z</time>
      </trkpt>
      <trkpt lat="47.80788" lon="6.49767">
        <ele>432.23</ele>
        <time>2025-04-30T08:26:09.834Z</time>
      </trkpt>
      <trkpt lat="47.80784" lon="6.49749">
        <ele>431.9</ele>
        <time>2025-04-30T08:26:14.800Z</time>
      </trkpt>
      <trkpt lat="47.80782" lon="6.49729">
        <ele>431.53</ele>
        <time>2025-04-30T08:26:19.769Z</time>
      </trkpt>
      <trkpt lat="47.8078" lon="6.49718">
        <ele>431.18</ele>
        <time>2025-04-30T08:26:24.740Z</time>
      </trkpt>
      <trkpt lat="47.80778" lon="6.49706">
        <ele>430.81</ele>
        <time>2025-04-30T08:26:29.713Z</time>
      </trkpt>
      <trkpt lat="47.80772" lon="6.4966">
        <ele>430.35</ele>
        <time>2025-04-30T08:26:34.692Z</time>
      </trkpt>
      <trkpt lat="47.8077" lon="6.49647">
        <ele>430.01</ele>
        <time>2025-04-30T08:26:39.673Z</time>
      </trkpt>
      <trkpt lat="47.80769" lon="6.49635">
        <ele>429.65</ele>
        <time>2025-04-30T08:26:44.656Z</time>
      </trkpt>
      <trkpt lat="47.80773" lon="6.49609">
        <ele>429.33</ele>
        <time>2025-04-30T08:26:49.643Z</time>
      </trkpt>
      <trkpt lat="47.80773" lon="6.49597">
        <ele>428.98</ele>
        <time>2025-04-30T08:26:54.632Z</time>
      </trkpt>
      <trkpt lat="47.80773" lon="6.49585">
        <ele>428.63</ele>
        <time>2025-04-30T08:26:59.622Z</time>
      </trkpt>
      <trkpt lat="47.8077" lon="6.49561">
        <ele>428.24</ele>
        <time>2025-04-30T08:27:04.616Z</time>
      </trkpt>
      <trkpt lat="47.80769" lon="6.4955">
        <ele>427.87</ele>
        <time>2025-04-30T08:27:09.611Z</time>
      </trkpt>
      <trkpt lat="47.80768" lon="6.4954">
        <ele>427.5</ele>
        <time>2025-04-30T08:27:14.608Z</time>
      </trkpt>
      <trkpt lat="47.80766" lon="6.4953">
        <ele>427.15</ele>
        <time>2025-04-30T08:27:19.606Z</time>
      </trkpt>
      <trkpt lat="47.80764" lon="6.49522">
        <ele>426.8</ele>
        <time>2025-04-30T08:27:24.606Z</time>
      </trkpt>
      <trkpt lat="47.80759" lon="6.49511">
        <ele>426.45</ele>
        <time>2025-04-30T08:27:29.608Z</time>
      </trkpt>
      <trkpt lat="47.80753" lon="6.49495">
        <ele>426.12</ele>
        <time>2025-04-30T08:27:34.612Z</time>
      </trkpt>
      <trkpt lat="47.8075" lon="6.49486">
        <ele>425.83</ele>
        <time>2025-04-30T08:27:39.618Z</time>
      </trkpt>
      <trkpt lat="47.80747" lon="6.49476">
        <ele>425.55</ele>
        <time>2025-04-30T08:27:44.625Z</time>
      </trkpt>
      <trkpt lat="47.80744" lon="6.49463">
        <ele>425.29</ele>
        <time>2025-04-30T08:27:49.634Z</time>
      </trkpt>
      <trkpt lat="47.80743" lon="6.49451">
        <ele>425.05</ele>
        <time>2025-04-30T08:27:54.645Z</time>
      </trkpt>
      <trkpt lat="47.80741" lon="6.49431">
        <ele>424.82</ele>
        <time>2025-04-30T08:27:59.659Z</time>
      </trkpt>
      <trkpt lat="47.80739" lon="6.49422">
        <ele>424.62</ele>
        <time>2025-04-30T08:28:04.674Z</time>
      </trkpt>
      <trkpt lat="47.80735" lon="6.49413">
        <ele>424.44</ele>
        <time>2025-04-30T08:28:09.691Z</time>
      </trkpt>
      <trkpt lat="47.8073" lon="6.49405">
        <ele>424.26</ele>
        <time>2025-04-30T08:28:14.709Z</time>
      </trkpt>
      <trkpt lat="47.80725" lon="6.49398">
        <ele>424.09</ele>
        <time>2025-04-30T08:28:19.729Z</time>
      </trkpt>
      <trkpt lat="47.80722" lon="6.49393">
        <ele>423.93</ele>
        <time>2025-04-30T08:28:24.750Z</time>
      </trkpt>
      <trkpt lat="47.80718" lon="6.49387">
        <ele>423.78</ele>
        <time>2025-04-30T08:28:29.772Z</time>
      </trkpt>
      <trkpt lat="47.80717" lon="6.49382">
        <ele>423.64</ele>
        <time>2025-04-30T08:28:34.795Z</time>
      </trkpt>
      <trkpt lat="47.80714" lon="6.49376">
        <ele>423.52</ele>
        <time>2025-04-30T08:28:39.819Z</time>
      </trkpt>
      <trkpt lat="47.80714" lon="6.4937">
        <ele>423.42</ele>
        <time>2025-04-30T08:28:44.844Z</time>
      </trkpt>
      <trkpt lat="47.80712" lon="6.49363">
        <ele>423.32</ele>
        <time>2025-04-30T08:28:49.870Z</time>
      </trkpt>
      <trkpt lat="47.80711" lon="6.49356">
        <ele>423.25</ele>
        <time>2025-04-30T08:28:54.897Z</time>
      </trkpt>
      <trkpt lat="47.80706" lon="6.49332">
        <ele>423.19</ele>
        <time>2025-04-30T08:28:59.928Z</time>
      </trkpt>
      <trkpt lat="47.807" lon="6.49312">
        <ele>423.13</ele>
        <time>2025-04-30T08:29:04.962Z</time>
      </trkpt>
      <trkpt lat="47.807" lon="6.49297">
        <ele>423.09</ele>
        <time>2025-04-30T08:29:09.998Z</time>
      </trkpt>
      <trkpt lat="47.807" lon="6.49289">
        <ele>423.05</ele>
        <time>2025-04-30T08:29:15.035Z</time>
      </trkpt>
      <trkpt lat="47.80699" lon="6.49284">
        <ele>423.01</ele>
        <time>2025-04-30T08:29:20.073Z</time>
      </trkpt>
      <trkpt lat="47.80699" lon="6.49279">
        <ele>422.99</ele>
        <time>2025-04-30T08:29:25.111Z</time>
      </trkpt>
      <trkpt lat="47.807" lon="6.49276">
        <ele>422.96</ele>
        <time>2025-04-30T08:29:30.150Z</time>
      </trkpt>
      <trkpt lat="47.80699" lon="6.49272">
        <ele>422.94</ele>
        <time>2025-04-30T08:29:35.189Z</time>
      </trkpt>
      <trkpt lat="47.80699" lon="6.4927">
        <ele>422.92</ele>
        <time>2025-04-30T08:29:40.229Z</time>
      </trkpt>
      <trkpt lat="47.80696" lon="6.49265">
        <ele>422.88</ele>
        <time>2025-04-30T08:29:45.270Z</time>
      </trkpt>
      <trkpt lat="47.80684" lon="6.4925">
        <ele>422.83</ele>
        <time>2025-04-30T08:29:50.314Z</time>
      </trkpt>
      <trkpt lat="47.80679" lon="6.4924">
        <ele>422.79</ele>
        <time>2025-04-30T08:29:55.360Z</time>
      </trkpt>
      <trkpt lat="47.80676" lon="6.49235">
        <ele>422.76</ele>
        <time>2025-04-30T08:30:00.407Z</time>
      </trkpt>
      <trkpt lat="47.80666" lon="6.49222">
        <ele>422.72</ele>
        <time>2025-04-30T08:30:05.457Z</time>
      </trkpt>
      <trkpt lat="47.80664" lon="6.49215">
        <ele>422.69</ele>
        <time>2025-04-30T08:30:10.508Z</time>
      </trkpt>
      <trkpt lat="47.80665" lon="6.49208">
        <ele>422.67</ele>
        <time>2025-04-30T08:30:15.560Z</time>
      </trkpt>
      <trkpt lat="47.80667" lon="6.49204">
        <ele>422.64</ele>
        <time>2025-04-30T08:30:20.613Z</time>
      </trkpt>
      <trkpt lat="47.80674" lon="6.49198">
        <ele>422.64</ele>
        <time>2025-04-30T08:30:25.667Z</time>
      </trkpt>
      <trkpt lat="47.8068" lon="6.49191">
        <ele>422.61</ele>
        <time>2025-04-30T08:30:30.723Z</time>
      </trkpt>
      <trkpt lat="47.80684" lon="6.49188">
        <ele>422.57</ele>
        <time>2025-04-30T08:30:35.780Z</time>
      </trkpt>
      <trkpt lat="47.80687" lon="6.49184">
        <ele>422.53</ele>
        <time>2025-04-30T08:30:40.838Z</time>
      </trkpt>
      <trkpt lat="47.80689" lon="6.49179">
        <ele>422.47</ele>
        <time>2025-04-30T08:30:45.897Z</time>
      </trkpt>
      <trkpt lat="47.80693" lon="6.49175">
        <ele>422.41</ele>
        <time>2025-04-30T08:30:50.957Z</time>
      </trkpt>
      <trkpt lat="47.80697" lon="6.4917">
        <ele>422.34</ele>
        <time>2025-04-30T08:30:56.018Z</time>
      </trkpt>
      <trkpt lat="47.80701" lon="6.49165">
        <ele>422.26</ele>
        <time>2025-04-30T08:31:01.080Z</time>
      </trkpt>
      <trkpt lat="47.80703" lon="6.49159">
        <ele>422.15</ele>
        <time>2025-04-30T08:31:06.143Z</time>
      </trkpt>
      <trkpt lat="47.80708" lon="6.49146">
        <ele>422.01</ele>
        <time>2025-04-30T08:31:11.208Z</time>
      </trkpt>
      <trkpt lat="47.80708" lon="6.49136">
        <ele>421.89</ele>
        <time>2025-04-30T08:31:16.274Z</time>
      </trkpt>
      <trkpt lat="47.80709" lon="6.49128">
        <ele>421.77</ele>
        <time>2025-04-30T08:31:21.342Z</time>
      </trkpt>
      <trkpt lat="47.80711" lon="6.49119">
        <ele>421.65</ele>
        <time>2025-04-30T08:31:26.411Z</time>
      </trkpt>
      <trkpt lat="47.80713" lon="6.49111">
        <ele>421.52</ele>
        <time>2025-04-30T08:31:31.481Z</time>
      </trkpt>
      <trkpt lat="47.8072" lon="6.49097">
        <ele>421.36</ele>
        <time>2025-04-30T08:31:36.554Z</time>
      </trkpt>
      <trkpt lat="47.80724" lon="6.49091">
        <ele>421.2</ele>
        <time>2025-04-30T08:31:41.628Z</time>
      </trkpt>
      <trkpt lat="47.80727" lon="6.49085">
        <ele>421.04</ele>
        <time>2025-04-30T08:31:46.703Z</time>
      </trkpt>
      <trkpt lat="47.8073" lon="6.49078">
        <ele>420.86</ele>
        <time>2025-04-30T08:31:51.779Z</time>
      </trkpt>
      <trkpt lat="47.80734" lon="6.49061">
        <ele>420.66</ele>
        <time>2025-04-30T08:31:56.858Z</time>
      </trkpt>
      <trkpt lat="47.80738" lon="6.49043">
        <ele>420.43</ele>
        <time>2025-04-30T08:32:01.939Z</time>
      </trkpt>
      <trkpt lat="47.8074" lon="6.49024">
        <ele>420.19</ele>
        <time>2025-04-30T08:32:07.023Z</time>
      </trkpt>
      <trkpt lat="47.80741" lon="6.49005">
        <ele>419.93</ele>
        <time>2025-04-30T08:32:12.110Z</time>
      </trkpt>
      <trkpt lat="47.80743" lon="6.48996">
        <ele>419.69</ele>
        <time>2025-04-30T08:32:17.198Z</time>
      </trkpt>
      <trkpt lat="47.80744" lon="6.48989">
        <ele>419.45</ele>
        <time>2025-04-30T08:32:22.287Z</time>
      </trkpt>
      <trkpt lat="47.80746" lon="6.48979">
        <ele>419.19</ele>
        <time>2025-04-30T08:32:27.378Z</time>
      </trkpt>
      <trkpt lat="47.80752" lon="6.48964">
        <ele>418.93</ele>
        <time>2025-04-30T08:32:32.471Z</time>
      </trkpt>
      <trkpt lat="47.80754" lon="6.48958">
        <ele>418.68</ele>
        <time>2025-04-30T08:32:37.565Z</time>
      </trkpt>
      <trkpt lat="47.80755" lon="6.48949">
        <ele>418.43</ele>
        <time>2025-04-30T08:32:42.661Z</time>
      </trkpt>
      <trkpt lat="47.80755" lon="6.48938">
        <ele>418.17</ele>
        <time>2025-04-30T08:32:47.758Z</time>
      </trkpt>
      <trkpt lat="47.80756" lon="6.48929">
        <ele>417.92</ele>
        <time>2025-04-30T08:32:52.857Z</time>
      </trkpt>
      <trkpt lat="47.80756" lon="6.4892">
        <ele>417.66</ele>
        <time>2025-04-30T08:32:57.957Z</time>
      </trkpt>
      <trkpt lat="47.80757" lon="6.48911">
        <ele>417.41</ele>
        <time>2025-04-30T08:33:03.058Z</time>
      </trkpt>
      <trkpt lat="47.80755" lon="6.48892">
        <ele>417.15</ele>
        <time>2025-04-30T08:33:08.162Z</time>
      </trkpt>
      <trkpt lat="47.80754" lon="6.48883">
        <ele>416.88</ele>
        <time>2025-04-30T08:33:13.267Z</time>
      </trkpt>
      <trkpt lat="47.80755" lon="6.48875">
        <ele>416.63</ele>
        <time>2025-04-30T08:33:18.373Z</time>
      </trkpt>
      <trkpt lat="47.80757" lon="6.48868">
        <ele>416.38</ele>
        <time>2025-04-30T08:33:23.480Z</time>
      </trkpt>
      <trkpt lat="47.80758" lon="6.48862">
        <ele>416.13</ele>
        <time>2025-04-30T08:33:28.588Z</time>
      </trkpt>
      <trkpt lat="47.80758" lon="6.48855">
        <ele>415.88</ele>
        <time>2025-04-30T08:33:33.697Z</time>
      </trkpt>
      <trkpt lat="47.8076" lon="6.48846">
        <ele>415.63</ele>
        <time>2025-04-30T08:33:38.808Z</time>
      </trkpt>
      <trkpt lat="47.80763" lon="6.48834">
        <ele>415.39</ele>
        <time>2025-04-30T08:33:43.921Z</time>
      </trkpt>
      <trkpt lat="47.80764" lon="6.48813">
        <ele>415.13</ele>
        <time>2025-04-30T08:33:49.037Z</time>
      </trkpt>
      <trkpt lat="47.80764" lon="6.4877">
        <ele>414.87</ele>
        <time>2025-04-30T08:33:54.159Z</time>
      </trkpt>
      <trkpt lat="47.80764" lon="6.48762">
        <ele>414.64</ele>
        <time>2025-04-30T08:33:59.282Z</time>
      </trkpt>
      <trkpt lat="47.80764" lon="6.48754">
        <ele>414.43</ele>
        <time>2025-04-30T08:34:04.406Z</time>
      </trkpt>
      <trkpt lat="47.80764" lon="6.48746">
        <ele>414.22</ele>
        <time>2025-04-30T08:34:09.531Z</time>
      </trkpt>
      <trkpt lat="47.80766" lon="6.4874">
        <ele>414.03</ele>
        <time>2025-04-30T08:34:14.657Z</time>
      </trkpt>
      <trkpt lat="47.80768" lon="6.48735">
        <ele>413.86</ele>
        <time>2025-04-30T08:34:19.784Z</time>
      </trkpt>
      <trkpt lat="47.80769" lon="6.48731">
        <ele>413.7</ele>
        <time>2025-04-30T08:34:24.912Z</time>
      </trkpt>
      <trkpt lat="47.80772" lon="6.48727">
        <ele>413.55</ele>
        <time>2025-04-30T08:34:30.041Z</time>
      </trkpt>
      <trkpt lat="47.80773" lon="6.48724">
        <ele>413.41</ele>
        <time>2025-04-30T08:34:35.170Z</time>
      </trkpt>
      <trkpt lat="47.8077" lon="6.48717">
        <ele>413.28</ele>
        <time>2025-04-30T08:34:40.300Z</time>
      </trkpt>
      <trkpt lat="47.80769" lon="6.48709">
        <ele>413.17</ele>
        <time>2025-04-30T08:34:45.431Z</time>
      </trkpt>
      <trkpt lat="47.8077" lon="6.48701">
        <ele>413.07</ele>
        <time>2025-04-30T08:34:50.563Z</time>
      </trkpt>
      <trkpt lat="47.80772" lon="6.48695">
        <ele>412.97</ele>
        <time>2025-04-30T08:34:55.696Z</time>
      </trkpt>
      <trkpt lat="47.80773" lon="6.48689">
        <ele>412.9</ele>
        <time>2025-04-30T08:35:00.830Z</time>
      </trkpt>
      <trkpt lat="47.80774" lon="6.48682">
        <ele>412.85</ele>
        <time>2025-04-30T08:35:05.965Z</time>
      </trkpt>
      <trkpt lat="47.80774" lon="6.48676">
        <ele>412.82</ele>
        <time>2025-04-30T08:35:11.101Z</time>
      </trkpt>
      <trkpt lat="47.80778" lon="6.4865">
        <ele>412.82</ele>
        <time>2025-04-30T08:35:16.241Z</time>
      </trkpt>
      <trkpt lat="47.80778" lon="6.48645">
        <ele>412.84</ele>
        <time>2025-04-30T08:35:21.382Z</time>
      </trkpt>
      <trkpt lat="47.80777" lon="6.48639">
        <ele>412.87</ele>
        <time>2025-04-30T08:35:26.524Z</time>
      </trkpt>
      <trkpt lat="47.80776" lon="6.48634">
        <ele>412.92</ele>
        <time>2025-04-30T08:35:31.666Z</time>
      </trkpt>
      <trkpt lat="47.80775" lon="6.4863">
        <ele>412.98</ele>
        <time>2025-04-30T08:35:36.809Z</time>
      </trkpt>
      <trkpt lat="47.80773" lon="6.4862">
        <ele>413.06</ele>
        <time>2025-04-30T08:35:41.954Z</time>
      </trkpt>
      <trkpt lat="47.80772" lon="6.48611">
        <ele>413.15</ele>
        <time>2025-04-30T08:35:47.100Z</time>
      </trkpt>
      <trkpt lat="47.80772" lon="6.48605">
        <ele>413.24</ele>
        <time>2025-04-30T08:35:52.247Z</time>
      </trkpt>
      <trkpt lat="47.80771" lon="6.48597">
        <ele>413.34</ele>
        <time>2025-04-30T08:35:57.395Z</time>
      </trkpt>
      <trkpt lat="47.80771" lon="6.48589">
        <ele>413.47</ele>
        <time>2025-04-30T08:36:02.544Z</time>
      </trkpt>
      <trkpt lat="47.80769" lon="6.48575">
        <ele>413.63</ele>
        <time>2025-04-30T08:36:07.695Z</time>
      </trkpt>
      <trkpt lat="47.80767" lon="6.48568">
        <ele>413.76</ele>
        <time>2025-04-30T08:36:12.847Z</time>
      </trkpt>
      <trkpt lat="47.80766" lon="6.48562">
        <ele>413.9</ele>
        <time>2025-04-30T08:36:18.000Z</time>
      </trkpt>
      <trkpt lat="47.80764" lon="6.48555">
        <ele>414.04</ele>
        <time>2025-04-30T08:36:23.154Z</time>
      </trkpt>
      <trkpt lat="47.80763" lon="6.48548">
        <ele>414.17</ele>
        <time>2025-04-30T08:36:28.309Z</time>
      </trkpt>
      <trkpt lat="47.8076" lon="6.48535">
        <ele>414.3</ele>
        <time>2025-04-30T08:36:33.466Z</time>
      </trkpt>
      <trkpt lat="47.80753" lon="6.48516">
        <ele>414.42</ele>
        <time>2025-04-30T08:36:38.626Z</time>
      </trkpt>
      <trkpt lat="47.8075" lon="6.48511">
        <ele>414.53</ele>
        <time>2025-04-30T08:36:43.787Z</time>
      </trkpt>
      <trkpt lat="47.80747" lon="6.48507">
        <ele>414.64</ele>
        <time>2025-04-30T08:36:48.949Z</time>
      </trkpt>
      <trkpt lat="47.80738" lon="6.485">
        <ele>414.74</ele>
        <time>2025-04-30T08:36:54.113Z</time>
      </trkpt>
      <trkpt lat="47.80734" lon="6.48497">
        <ele>414.83</ele>
        <time>2025-04-30T08:36:59.278Z</time>
      </trkpt>
      <trkpt lat="47.80731" lon="6.48495">
        <ele>414.92</ele>
        <time>2025-04-30T08:37:04.444Z</time>
      </trkpt>
      <trkpt lat="47.8072" lon="6.48488">
        <ele>415.01</ele>
        <time>2025-04-30T08:37:09.613Z</time>
      </trkpt>
      <trkpt lat="47.80716" lon="6.48485">
        <ele>415.1</ele>
        <time>2025-04-30T08:37:14.783Z</time>
      </trkpt>
      <trkpt lat="47.80712" lon="6.48483">
        <ele>415.18</ele>
        <time>2025-04-30T08:37:19.953Z</time>
      </trkpt>
      <trkpt lat="47.80709" lon="6.48481">
        <ele>415.26</ele>
        <time>2025-04-30T08:37:25.124Z</time>
      </trkpt>
      <trkpt lat="47.80701" lon="6.48479">
        <ele>415.32</ele>
        <time>2025-04-30T08:37:30.297Z</time>
      </trkpt>
      <trkpt lat="47.80688" lon="6.48475">
        <ele>415.41</ele>
        <time>2025-04-30T08:37:35.473Z</time>
      </trkpt>
      <trkpt lat="47.80674" lon="6.48459">
        <ele>415.5</ele>
        <time>2025-04-30T08:37:40.653Z</time>
      </trkpt>
      <trkpt lat="47.80668" lon="6.48451">
        <ele>415.58</ele>
        <time>2025-04-30T08:37:45.834Z</time>
      </trkpt>
      <trkpt lat="47.80654" lon="6.48435">
        <ele>415.67</ele>
        <time>2025-04-30T08:37:51.019Z</time>
      </trkpt>
      <trkpt lat="47.80646" lon="6.48421">
        <ele>415.74</ele>
        <time>2025-04-30T08:37:56.207Z</time>
      </trkpt>
      <trkpt lat="47.80643" lon="6.48416">
        <ele>415.78</ele>
        <time>2025-04-30T08:38:01.396Z</time>
      </trkpt>
      <trkpt lat="47.80639" lon="6.48412">
        <ele>415.81</ele>
        <time>2025-04-30T08:38:06.586Z</time>
      </trkpt>
      <trkpt lat="47.80636" lon="6.48409">
        <ele>415.83</ele>
        <time>2025-04-30T08:38:11.777Z</time>
      </trkpt>
      <trkpt lat="47.80629" lon="6.48398">
        <ele>415.83</ele>
        <time>2025-04-30T08:38:16.970Z</time>
      </trkpt>
      <trkpt lat="47.80625" lon="6.48383">
        <ele>415.83</ele>
        <time>2025-04-30T08:38:22.165Z</time>
      </trkpt>
      <trkpt lat="47.80624" lon="6.48377">
        <ele>415.81</ele>
        <time>2025-04-30T08:38:27.361Z</time>
      </trkpt>
      <trkpt lat="47.80622" lon="6.4837">
        <ele>415.79</ele>
        <time>2025-04-30T08:38:32.558Z</time>
      </trkpt>
      <trkpt lat="47.80621" lon="6.48364">
        <ele>415.75</ele>
        <time>2025-04-30T08:38:37.756Z</time>
      </trkpt>
      <trkpt lat="47.80619" lon="6.48357">
        <ele>415.7</ele>
        <time>2025-04-30T08:38:42.955Z</time>
      </trkpt>
      <trkpt lat="47.80616" lon="6.4835">
        <ele>415.65</ele>
        <time>2025-04-30T08:38:48.155Z</time>
      </trkpt>
      <trkpt lat="47.80614" lon="6.48343">
        <ele>415.58</ele>
        <time>2025-04-30T08:38:53.356Z</time>
      </trkpt>
      <trkpt lat="47.8061" lon="6.48337">
        <ele>415.5</ele>
        <time>2025-04-30T08:38:58.558Z</time>
      </trkpt>
      <trkpt lat="47.80606" lon="6.48332">
        <ele>415.42</ele>
        <time>2025-04-30T08:39:03.762Z</time>
      </trkpt>
      <trkpt lat="47.80601" lon="6.48326">
        <ele>415.34</ele>
        <time>2025-04-30T08:39:08.967Z</time>
      </trkpt>
      <trkpt lat="47.80587" lon="6.48315">
        <ele>415.24</ele>
        <time>2025-04-30T08:39:14.175Z</time>
      </trkpt>
      <trkpt lat="47.80582" lon="6.4831">
        <ele>415.15</ele>
        <time>2025-04-30T08:39:19.385Z</time>
      </trkpt>
      <trkpt lat="47.80576" lon="6.48305">
        <ele>415.06</ele>
        <time>2025-04-30T08:39:24.596Z</time>
      </trkpt>
      <trkpt lat="47.80555" lon="6.48289">
        <ele>414.98</ele>
        <time>2025-04-30T08:39:29.812Z</time>
      </trkpt>
      <trkpt lat="47.80544" lon="6.4828">
        <ele>414.88</ele>
        <time>2025-04-30T08:39:35.031Z</time>
      </trkpt>
      <trkpt lat="47.80538" lon="6.48278">
        <ele>414.77</ele>
        <time>2025-04-30T08:39:40.251Z</time>
      </trkpt>
      <trkpt lat="47.80531" lon="6.48275">
        <ele>414.64</ele>
        <time>2025-04-30T08:39:45.473Z</time>
      </trkpt>
      <trkpt lat="47.80525" lon="6.48274">
        <ele>414.5</ele>
        <time>2025-04-30T08:39:50.696Z</time>
      </trkpt>
      <trkpt lat="47.80518" lon="6.48271">
        <ele>414.34</ele>
        <time>2025-04-30T08:39:55.921Z</time>
      </trkpt>
      <trkpt lat="47.80505" lon="6.48261">
        <ele>414.18</ele>
        <time>2025-04-30T08:40:01.149Z</time>
      </trkpt>
      <trkpt lat="47.805" lon="6.4826">
        <ele>414.01</ele>
        <time>2025-04-30T08:40:06.378Z</time>
      </trkpt>
      <trkpt lat="47.80488" lon="6.48253">
        <ele>413.83</ele>
        <time>2025-04-30T08:40:11.609Z</time>
      </trkpt>
      <trkpt lat="47.80483" lon="6.4825">
        <ele>413.65</ele>
        <time>2025-04-30T08:40:16.842Z</time>
      </trkpt>
      <trkpt lat="47.80479" lon="6.48247">
        <ele>413.46</ele>
        <time>2025-04-30T08:40:22.076Z</time>
      </trkpt>
      <trkpt lat="47.80476" lon="6.48245">
        <ele>413.25</ele>
        <time>2025-04-30T08:40:27.310Z</time>
      </trkpt>
      <trkpt lat="47.80467" lon="6.48241">
        <ele>413.02</ele>
        <time>2025-04-30T08:40:32.546Z</time>
      </trkpt>
      <trkpt lat="47.80463" lon="6.48241">
        <ele>412.79</ele>
        <time>2025-04-30T08:40:37.783Z</time>
      </trkpt>
      <trkpt lat="47.80459" lon="6.48241">
        <ele>412.56</ele>
        <time>2025-04-30T08:40:43.021Z</time>
      </trkpt>
      <trkpt lat="47.80455" lon="6.48238">
        <ele>412.32</ele>
        <time>2025-04-30T08:40:48.260Z</time>
      </trkpt>
      <trkpt lat="47.80452" lon="6.48235">
        <ele>412.08</ele>
        <time>2025-04-30T08:40:53.500Z</time>
      </trkpt>
      <trkpt lat="47.8045" lon="6.48232">
        <ele>411.83</ele>
        <time>2025-04-30T08:40:58.740Z</time>
      </trkpt>
      <trkpt lat="47.80448" lon="6.48229">
        <ele>411.58</ele>
        <time>2025-04-30T08:41:03.981Z</time>
      </trkpt>
      <trkpt lat="47.80446" lon="6.48225">
        <ele>411.32</ele>
        <time>2025-04-30T08:41:09.223Z</time>
      </trkpt>
      <trkpt lat="47.80443" lon="6.4822">
        <ele>411.05</ele>
        <time>2025-04-30T08:41:14.466Z</time>
      </trkpt>
      <trkpt lat="47.80433" lon="6.48201">
        <ele>410.73</ele>
        <time>2025-04-30T08:41:19.712Z</time>
      </trkpt>
      <trkpt lat="47.80429" lon="6.48191">
        <ele>410.44</ele>
        <time>2025-04-30T08:41:24.960Z</time>
      </trkpt>
      <trkpt lat="47.80427" lon="6.48186">
        <ele>410.15</ele>
        <time>2025-04-30T08:41:30.209Z</time>
      </trkpt>
      <trkpt lat="47.80419" lon="6.48166">
        <ele>409.82</ele>
        <time>2025-04-30T08:41:35.461Z</time>
      </trkpt>
      <trkpt lat="47.80418" lon="6.48161">
        <ele>409.53</ele>
        <time>2025-04-30T08:41:40.714Z</time>
      </trkpt>
      <trkpt lat="47.80404" lon="6.48133">
        <ele>409.22</ele>
        <time>2025-04-30T08:41:45.972Z</time>
      </trkpt>
      <trkpt lat="47.80401" lon="6.48127">
        <ele>408.92</ele>
        <time>2025-04-30T08:41:51.231Z</time>
      </trkpt>
      <trkpt lat="47.80397" lon="6.48121">
        <ele>408.61</ele>
        <time>2025-04-30T08:41:56.491Z</time>
      </trkpt>
      <trkpt lat="47.80393" lon="6.48109">
        <ele>408.29</ele>
        <time>2025-04-30T08:42:01.753Z</time>
      </trkpt>
      <trkpt lat="47.80392" lon="6.48101">
        <ele>407.95</ele>
        <time>2025-04-30T08:42:07.016Z</time>
      </trkpt>
      <trkpt lat="47.80391" lon="6.48095">
        <ele>407.6</ele>
        <time>2025-04-30T08:42:12.280Z</time>
      </trkpt>
      <trkpt lat="47.80391" lon="6.48089">
        <ele>407.24</ele>
        <time>2025-04-30T08:42:17.545Z</time>
      </trkpt>
      <trkpt lat="47.80392" lon="6.48083">
        <ele>406.86</ele>
        <time>2025-04-30T08:42:22.811Z</time>
      </trkpt>
      <trkpt lat="47.8039" lon="6.48076">
        <ele>406.49</ele>
        <time>2025-04-30T08:42:28.078Z</time>
      </trkpt>
      <trkpt lat="47.80388" lon="6.4807">
        <ele>406.1</ele>
        <time>2025-04-30T08:42:33.346Z</time>
      </trkpt>
      <trkpt lat="47.80387" lon="6.48065">
        <ele>405.7</ele>
        <time>2025-04-30T08:42:38.615Z</time>
      </trkpt>
      <trkpt lat="47.80382" lon="6.48055">
        <ele>405.28</ele>
        <time>2025-04-30T08:42:43.885Z</time>
      </trkpt>
      <trkpt lat="47.8038" lon="6.48048">
        <ele>404.86</ele>
        <time>2025-04-30T08:42:49.157Z</time>
      </trkpt>
      <trkpt lat="47.80377" lon="6.48042">
        <ele>404.42</ele>
        <time>2025-04-30T08:42:54.430Z</time>
      </trkpt>
      <trkpt lat="47.80368" lon="6.48029">
        <ele>403.97</ele>
        <time>2025-04-30T08:42:59.705Z</time>
      </trkpt>
      <trkpt lat="47.80362" lon="6.48014">
        <ele>403.49</ele>
        <time>2025-04-30T08:43:04.983Z</time>
      </trkpt>
      <trkpt lat="47.80359" lon="6.48009">
        <ele>402.99</ele>
        <time>2025-04-30T08:43:10.262Z</time>
      </trkpt>
      <trkpt lat="47.80357" lon="6.48006">
        <ele>402.45</ele>
        <time>2025-04-30T08:43:15.542Z</time>
      </trkpt>
      <trkpt lat="47.80353" lon="6.48">
        <ele>401.9</ele>
        <time>2025-04-30T08:43:20.823Z</time>
      </trkpt>
      <trkpt lat="47.8035" lon="6.47996">
        <ele>401.32</ele>
        <time>2025-04-30T08:43:26.105Z</time>
      </trkpt>
      <trkpt lat="47.80341" lon="6.47987">
        <ele>400.71</ele>
        <time>2025-04-30T08:43:31.389Z</time>
      </trkpt>
      <trkpt lat="47.80336" lon="6.47983">
        <ele>400.07</ele>
        <time>2025-04-30T08:43:36.674Z</time>
      </trkpt>
      <trkpt lat="47.80332" lon="6.4798">
        <ele>399.41</ele>
        <time>2025-04-30T08:43:41.960Z</time>
      </trkpt>
      <trkpt lat="47.80325" lon="6.47975">
        <ele>398.71</ele>
        <time>2025-04-30T08:43:47.248Z</time>
      </trkpt>
      <trkpt lat="47.80321" lon="6.47971">
        <ele>398</ele>
        <time>2025-04-30T08:43:52.537Z</time>
      </trkpt>
      <trkpt lat="47.80312" lon="6.47961">
        <ele>397.24</ele>
        <time>2025-04-30T08:43:57.828Z</time>
      </trkpt>
      <trkpt lat="47.803" lon="6.47951">
        <ele>396.45</ele>
        <time>2025-04-30T08:44:03.122Z</time>
      </trkpt>
      <trkpt lat="47.80288" lon="6.47942">
        <ele>395.62</ele>
        <time>2025-04-30T08:44:08.419Z</time>
      </trkpt>
      <trkpt lat="47.80282" lon="6.47936">
        <ele>394.81</ele>
        <time>2025-04-30T08:44:13.717Z</time>
      </trkpt>
      <trkpt lat="47.80259" lon="6.47921">
        <ele>393.9</ele>
        <time>2025-04-30T08:44:19.021Z</time>
      </trkpt>
      <trkpt lat="47.80253" lon="6.47918">
        <ele>393.07</ele>
        <time>2025-04-30T08:44:24.326Z</time>
      </trkpt>
      <trkpt lat="47.80247" lon="6.47916">
        <ele>392.23</ele>
        <time>2025-04-30T08:44:29.633Z</time>
      </trkpt>
      <trkpt lat="47.8024" lon="6.47912">
        <ele>391.37</ele>
        <time>2025-04-30T08:44:34.941Z</time>
      </trkpt>
      <trkpt lat="47.80225" lon="6.47901">
        <ele>390.46</ele>
        <time>2025-04-30T08:44:40.253Z</time>
      </trkpt>
      <trkpt lat="47.80211" lon="6.4789">
        <ele>389.53</ele>
        <time>2025-04-30T08:44:45.568Z</time>
      </trkpt>
      <trkpt lat="47.80204" lon="6.47884">
        <ele>388.63</ele>
        <time>2025-04-30T08:44:50.885Z</time>
      </trkpt>
      <trkpt lat="47.80198" lon="6.47879">
        <ele>387.76</ele>
        <time>2025-04-30T08:44:56.204Z</time>
      </trkpt>
      <trkpt lat="47.80189" lon="6.47872">
        <ele>386.87</ele>
        <time>2025-04-30T08:45:01.525Z</time>
      </trkpt>
      <trkpt lat="47.80177" lon="6.4786">
        <ele>385.96</ele>
        <time>2025-04-30T08:45:06.849Z</time>
      </trkpt>
      <trkpt lat="47.80171" lon="6.47855">
        <ele>385.1</ele>
        <time>2025-04-30T08:45:12.174Z</time>
      </trkpt>
      <trkpt lat="47.80166" lon="6.4785">
        <ele>384.26</ele>
        <time>2025-04-30T08:45:17.501Z</time>
      </trkpt>
      <trkpt lat="47.8016" lon="6.47845">
        <ele>383.43</ele>
        <time>2025-04-30T08:45:22.829Z</time>
      </trkpt>
      <trkpt lat="47.80155" lon="6.4784">
        <ele>382.61</ele>
        <time>2025-04-30T08:45:28.158Z</time>
      </trkpt>
      <trkpt lat="47.8015" lon="6.47835">
        <ele>381.8</ele>
        <time>2025-04-30T08:45:33.489Z</time>
      </trkpt>
      <trkpt lat="47.80144" lon="6.47831">
        <ele>381.01</ele>
        <time>2025-04-30T08:45:38.821Z</time>
      </trkpt>
      <trkpt lat="47.80139" lon="6.47826">
        <ele>380.23</ele>
        <time>2025-04-30T08:45:44.154Z</time>
      </trkpt>
      <trkpt lat="47.80134" lon="6.47822">
        <ele>379.47</ele>
        <time>2025-04-30T08:45:49.488Z</time>
      </trkpt>
      <trkpt lat="47.80129" lon="6.47817">
        <ele>378.73</ele>
        <time>2025-04-30T08:45:54.824Z</time>
      </trkpt>
      <trkpt lat="47.80119" lon="6.47808">
        <ele>377.99</ele>
        <time>2025-04-30T08:46:00.162Z</time>
      </trkpt>
      <trkpt lat="47.8011" lon="6.478">
        <ele>377.27</ele>
        <time>2025-04-30T08:46:05.503Z</time>
      </trkpt>
      <trkpt lat="47.80105" lon="6.47796">
        <ele>376.59</ele>
        <time>2025-04-30T08:46:10.845Z</time>
      </trkpt>
      <trkpt lat="47.80101" lon="6.47792">
        <ele>375.92</ele>
        <time>2025-04-30T08:46:16.188Z</time>
      </trkpt>
      <trkpt lat="47.80096" lon="6.47787">
        <ele>375.26</ele>
        <time>2025-04-30T08:46:21.532Z</time>
      </trkpt>
      <trkpt lat="47.80091" lon="6.47784">
        <ele>374.62</ele>
        <time>2025-04-30T08:46:26.877Z</time>
      </trkpt>
      <trkpt lat="47.80087" lon="6.4778">
        <ele>374.01</ele>
        <time>2025-04-30T08:46:32.223Z</time>
      </trkpt>
      <trkpt lat="47.80083" lon="6.47776">
        <ele>373.41</ele>
        <time>2025-04-30T08:46:37.570Z</time>
      </trkpt>
      <trkpt lat="47.80078" lon="6.47773">
        <ele>372.82</ele>
        <time>2025-04-30T08:46:42.918Z</time>
      </trkpt>
      <trkpt lat="47.80074" lon="6.47769">
        <ele>372.24</ele>
        <time>2025-04-30T08:46:48.268Z</time>
      </trkpt>
      <trkpt lat="47.80069" lon="6.47764">
        <ele>371.68</ele>
        <time>2025-04-30T08:46:53.619Z</time>
      </trkpt>
      <trkpt lat="47.80064" lon="6.4776">
        <ele>371.14</ele>
        <time>2025-04-30T08:46:58.971Z</time>
      </trkpt>
      <trkpt lat="47.80059" lon="6.47756">
        <ele>370.6</ele>
        <time>2025-04-30T08:47:04.324Z</time>
      </trkpt>
      <trkpt lat="47.80039" lon="6.47738">
        <ele>370.07</ele>
        <time>2025-04-30T08:47:09.682Z</time>
      </trkpt>
      <trkpt lat="47.80027" lon="6.47729">
        <ele>369.54</ele>
        <time>2025-04-30T08:47:15.043Z</time>
      </trkpt>
      <trkpt lat="47.80008" lon="6.47714">
        <ele>369.02</ele>
        <time>2025-04-30T08:47:20.409Z</time>
      </trkpt>
      <trkpt lat="47.79986" lon="6.47699">
        <ele>368.48</ele>
        <time>2025-04-30T08:47:25.780Z</time>
      </trkpt>
      <trkpt lat="47.79973" lon="6.4769">
        <ele>367.99</ele>
        <time>2025-04-30T08:47:31.154Z</time>
      </trkpt>
      <trkpt lat="47.79968" lon="6.47685">
        <ele>367.54</ele>
        <time>2025-04-30T08:47:36.529Z</time>
      </trkpt>
      <trkpt lat="47.79963" lon="6.47682">
        <ele>367.11</ele>
        <time>2025-04-30T08:47:41.905Z</time>
      </trkpt>
      <trkpt lat="47.79959" lon="6.47679">
        <ele>366.7</ele>
        <time>2025-04-30T08:47:47.282Z</time>
      </trkpt>
      <trkpt lat="47.79956" lon="6.47677">
        <ele>366.31</ele>
        <time>2025-04-30T08:47:52.660Z</time>
      </trkpt>
      <trkpt lat="47.79953" lon="6.47674">
        <ele>365.94</ele>
        <time>2025-04-30T08:47:58.039Z</time>
      </trkpt>
      <trkpt lat="47.79952" lon="6.4767">
        <ele>365.59</ele>
        <time>2025-04-30T08:48:03.418Z</time>
      </trkpt>
      <trkpt lat="47.79952" lon="6.47665">
        <ele>365.25</ele>
        <time>2025-04-30T08:48:08.798Z</time>
      </trkpt>
      <trkpt lat="47.79952" lon="6.4766">
        <ele>364.92</ele>
        <time>2025-04-30T08:48:14.179Z</time>
      </trkpt>
      <trkpt lat="47.79953" lon="6.47655">
        <ele>364.61</ele>
        <time>2025-04-30T08:48:19.561Z</time>
      </trkpt>
      <trkpt lat="47.79955" lon="6.47649">
        <ele>364.32</ele>
        <time>2025-04-30T08:48:24.944Z</time>
      </trkpt>
      <trkpt lat="47.79957" lon="6.47643">
        <ele>364.05</ele>
        <time>2025-04-30T08:48:30.328Z</time>
      </trkpt>
      <trkpt lat="47.79959" lon="6.47636">
        <ele>363.82</ele>
        <time>2025-04-30T08:48:35.713Z</time>
      </trkpt>
      <trkpt lat="47.79962" lon="6.4763">
        <ele>363.61</ele>
        <time>2025-04-30T08:48:41.099Z</time>
      </trkpt>
      <trkpt lat="47.79968" lon="6.4761">
        <ele>363.39</ele>
        <time>2025-04-30T08:48:46.488Z</time>
      </trkpt>
      <trkpt lat="47.79968" lon="6.47603">
        <ele>363.21</ele>
        <time>2025-04-30T08:48:51.878Z</time>
      </trkpt>
      <trkpt lat="47.79967" lon="6.47598">
        <ele>363.04</ele>
        <time>2025-04-30T08:48:57.269Z</time>
      </trkpt>
      <trkpt lat="47.79963" lon="6.47593">
        <ele>362.89</ele>
        <time>2025-04-30T08:49:02.661Z</time>
      </trkpt>
      <trkpt lat="47.79958" lon="6.47588">
        <ele>362.76</ele>
        <time>2025-04-30T08:49:08.054Z</time>
      </trkpt>
      <trkpt lat="47.79945" lon="6.47579">
        <ele>362.63</ele>
        <time>2025-04-30T08:49:13.450Z</time>
      </trkpt>
      <trkpt lat="47.79929" lon="6.47572">
        <ele>362.54</ele>
        <time>2025-04-30T08:49:18.850Z</time>
      </trkpt>
      <trkpt lat="47.79921" lon="6.47569">
        <ele>362.49</ele>
        <time>2025-04-30T08:49:24.251Z</time>
      </trkpt>
      <trkpt lat="47.79914" lon="6.47568">
        <ele>362.46</ele>
        <time>2025-04-30T08:49:29.654Z</time>
      </trkpt>
      <trkpt lat="47.79906" lon="6.47567">
        <ele>362.46</ele>
        <time>2025-04-30T08:49:35.059Z</time>
      </trkpt>
      <trkpt lat="47.799" lon="6.47566">
        <ele>362.47</ele>
        <time>2025-04-30T08:49:40.465Z</time>
      </trkpt>
      <trkpt lat="47.79893" lon="6.47564">
        <ele>362.51</ele>
        <time>2025-04-30T08:49:45.872Z</time>
      </trkpt>
      <trkpt lat="47.79887" lon="6.47563">
        <ele>362.58</ele>
        <time>2025-04-30T08:49:51.281Z</time>
      </trkpt>
      <trkpt lat="47.7988" lon="6.47561">
        <ele>362.68</ele>
        <time>2025-04-30T08:49:56.691Z</time>
      </trkpt>
      <trkpt lat="47.79874" lon="6.4756">
        <ele>362.78</ele>
        <time>2025-04-30T08:50:02.103Z</time>
      </trkpt>
      <trkpt lat="47.79841" lon="6.47552">
        <ele>362.94</ele>
        <time>2025-04-30T08:50:07.522Z</time>
      </trkpt>
      <trkpt lat="47.79803" lon="6.47544">
        <ele>363.08</ele>
        <time>2025-04-30T08:50:12.949Z</time>
      </trkpt>
      <trkpt lat="47.79792" lon="6.47541">
        <ele>363.24</ele>
        <time>2025-04-30T08:50:18.378Z</time>
      </trkpt>
      <trkpt lat="47.79787" lon="6.47539">
        <ele>363.39</ele>
        <time>2025-04-30T08:50:23.809Z</time>
      </trkpt>
      <trkpt lat="47.79782" lon="6.47538">
        <ele>363.55</ele>
        <time>2025-04-30T08:50:29.241Z</time>
      </trkpt>
      <trkpt lat="47.79777" lon="6.47536">
        <ele>363.72</ele>
        <time>2025-04-30T08:50:34.674Z</time>
      </trkpt>
      <trkpt lat="47.79773" lon="6.47535">
        <ele>363.9</ele>
        <time>2025-04-30T08:50:40.108Z</time>
      </trkpt>
      <trkpt lat="47.79769" lon="6.47534">
        <ele>364.08</ele>
        <time>2025-04-30T08:50:45.543Z</time>
      </trkpt>
      <trkpt lat="47.79765" lon="6.47533">
        <ele>364.27</ele>
        <time>2025-04-30T08:50:50.978Z</time>
      </trkpt>
      <trkpt lat="47.79761" lon="6.47532">
        <ele>364.47</ele>
        <time>2025-04-30T08:50:56.414Z</time>
      </trkpt>
      <trkpt lat="47.79757" lon="6.47531">
        <ele>364.67</ele>
        <time>2025-04-30T08:51:01.851Z</time>
      </trkpt>
      <trkpt lat="47.79753" lon="6.4753">
        <ele>364.87</ele>
        <time>2025-04-30T08:51:07.289Z</time>
      </trkpt>
      <trkpt lat="47.79745" lon="6.47529">
        <ele>365.08</ele>
        <time>2025-04-30T08:51:12.729Z</time>
      </trkpt>
      <trkpt lat="47.79741" lon="6.47528">
        <ele>365.29</ele>
        <time>2025-04-30T08:51:18.170Z</time>
      </trkpt>
      <trkpt lat="47.79737" lon="6.47527">
        <ele>365.49</ele>
        <time>2025-04-30T08:51:23.611Z</time>
      </trkpt>
      <trkpt lat="47.79733" lon="6.47526">
        <ele>365.7</ele>
        <time>2025-04-30T08:51:29.053Z</time>
      </trkpt>
      <trkpt lat="47.79729" lon="6.47525">
        <ele>365.9</ele>
        <time>2025-04-30T08:51:34.496Z</time>
      </trkpt>
      <trkpt lat="47.79725" lon="6.47524">
        <ele>366.1</ele>
        <time>2025-04-30T08:51:39.940Z</time>
      </trkpt>
      <trkpt lat="47.7972" lon="6.47523">
        <ele>366.3</ele>
        <time>2025-04-30T08:51:45.385Z</time>
      </trkpt>
      <trkpt lat="47.79716" lon="6.47523">
        <ele>366.49</ele>
        <time>2025-04-30T08:51:50.831Z</time>
      </trkpt>
      <trkpt lat="47.79712" lon="6.47522">
        <ele>366.68</ele>
        <time>2025-04-30T08:51:56.278Z</time>
      </trkpt>
      <trkpt lat="47.79708" lon="6.47521">
        <ele>366.86</ele>
        <time>2025-04-30T08:52:01.726Z</time>
      </trkpt>
      <trkpt lat="47.79704" lon="6.4752">
        <ele>367.03</ele>
        <time>2025-04-30T08:52:07.175Z</time>
      </trkpt>
      <trkpt lat="47.797" lon="6.47519">
        <ele>367.18</ele>
        <time>2025-04-30T08:52:12.624Z</time>
      </trkpt>
      <trkpt lat="47.79696" lon="6.47518">
        <ele>367.33</ele>
        <time>2025-04-30T08:52:18.074Z</time>
      </trkpt>
      <trkpt lat="47.79692" lon="6.47517">
        <ele>367.47</ele>
        <time>2025-04-30T08:52:23.525Z</time>
      </trkpt>
      <trkpt lat="47.79688" lon="6.47516">
        <ele>367.6</ele>
        <time>2025-04-30T08:52:28.977Z</time>
      </trkpt>
      <trkpt lat="47.79684" lon="6.47516">
        <ele>367.72</ele>
        <time>2025-04-30T08:52:34.430Z</time>
      </trkpt>
      <trkpt lat="47.7968" lon="6.47515">
        <ele>367.83</ele>
        <time>2025-04-30T08:52:39.884Z</time>
      </trkpt>
      <trkpt lat="47.79676" lon="6.47514">
        <ele>367.94</ele>
        <time>2025-04-30T08:52:45.339Z</time>
      </trkpt>
      <trkpt lat="47.79672" lon="6.47513">
        <ele>368.02</ele>
        <time>2025-04-30T08:52:50.795Z</time>
      </trkpt>
      <trkpt lat="47.79667" lon="6.47513">
        <ele>368.1</ele>
        <time>2025-04-30T08:52:56.252Z</time>
      </trkpt>
      <trkpt lat="47.79663" lon="6.47512">
        <ele>368.16</ele>
        <time>2025-04-30T08:53:01.709Z</time>
      </trkpt>
      <trkpt lat="47.79659" lon="6.47511">
        <ele>368.22</ele>
        <time>2025-04-30T08:53:07.167Z</time>
      </trkpt>
      <trkpt lat="47.79655" lon="6.47509">
        <ele>368.27</ele>
        <time>2025-04-30T08:53:12.626Z</time>
      </trkpt>
      <trkpt lat="47.7965" lon="6.47508">
        <ele>368.31</ele>
        <time>2025-04-30T08:53:18.086Z</time>
      </trkpt>
      <trkpt lat="47.79646" lon="6.47508">
        <ele>368.34</ele>
        <time>2025-04-30T08:53:23.547Z</time>
      </trkpt>
      <trkpt lat="47.79641" lon="6.47507">
        <ele>368.38</ele>
        <time>2025-04-30T08:53:29.009Z</time>
      </trkpt>
      <trkpt lat="47.79636" lon="6.47506">
        <ele>368.41</ele>
        <time>2025-04-30T08:53:34.472Z</time>
      </trkpt>
      <trkpt lat="47.79632" lon="6.47505">
        <ele>368.44</ele>
        <time>2025-04-30T08:53:39.936Z</time>
      </trkpt>
      <trkpt lat="47.79627" lon="6.47504">
        <ele>368.46</ele>
        <time>2025-04-30T08:53:45.401Z</time>
      </trkpt>
      <trkpt lat="47.79622" lon="6.47503">
        <ele>368.48</ele>
        <time>2025-04-30T08:53:50.867Z</time>
      </trkpt>
      <trkpt lat="47.79618" lon="6.47502">
        <ele>368.49</ele>
        <time>2025-04-30T08:53:56.334Z</time>
      </trkpt>
      <trkpt lat="47.79612" lon="6.47501">
        <ele>368.5</ele>
        <time>2025-04-30T08:54:01.803Z</time>
      </trkpt>
      <trkpt lat="47.79608" lon="6.475">
        <ele>368.5</ele>
        <time>2025-04-30T08:54:07.272Z</time>
      </trkpt>
      <trkpt lat="47.79604" lon="6.47499">
        <ele>368.51</ele>
        <time>2025-04-30T08:54:12.742Z</time>
      </trkpt>
      <trkpt lat="47.79595" lon="6.47497">
        <ele>368.51</ele>
        <time>2025-04-30T08:54:18.214Z</time>
      </trkpt>
      <trkpt lat="47.79577" lon="6.47494">
        <ele>368.5</ele>
        <time>2025-04-30T08:54:23.690Z</time>
      </trkpt>
      <trkpt lat="47.79573" lon="6.47492">
        <ele>368.49</ele>
        <time>2025-04-30T08:54:29.167Z</time>
      </trkpt>
      <trkpt lat="47.79566" lon="6.47491">
        <ele>368.48</ele>
        <time>2025-04-30T08:54:34.645Z</time>
      </trkpt>
      <trkpt lat="47.79563" lon="6.47491">
        <ele>368.48</ele>
        <time>2025-04-30T08:54:40.124Z</time>
      </trkpt>
      <trkpt lat="47.79561" lon="6.47491">
        <ele>368.48</ele>
        <time>2025-04-30T08:54:45.604Z</time>
      </trkpt>
      <trkpt lat="47.79558" lon="6.47493">
        <ele>368.49</ele>
        <time>2025-04-30T08:54:51.084Z</time>
      </trkpt>
      <trkpt lat="47.79556" lon="6.47497">
        <ele>368.51</ele>
        <time>2025-04-30T08:54:56.565Z</time>
      </trkpt>
      <trkpt lat="47.79555" lon="6.47502">
        <ele>368.53</ele>
        <time>2025-04-30T08:55:02.047Z</time>
      </trkpt>
      <trkpt lat="47.79553" lon="6.47519">
        <ele>368.58</ele>
        <time>2025-04-30T08:55:07.531Z</time>
      </trkpt>
      <trkpt lat="47.79552" lon="6.47525">
        <ele>368.62</ele>
        <time>2025-04-30T08:55:13.016Z</time>
      </trkpt>
      <trkpt lat="47.79549" lon="6.47555">
        <ele>368.69</ele>
        <time>2025-04-30T08:55:18.506Z</time>
      </trkpt>
      <trkpt lat="47.79546" lon="6.47573">
        <ele>368.75</ele>
        <time>2025-04-30T08:55:23.998Z</time>
      </trkpt>
      <trkpt lat="47.79541" lon="6.47613">
        <ele>368.81</ele>
        <time>2025-04-30T08:55:29.496Z</time>
      </trkpt>
      <trkpt lat="47.79535" lon="6.47642">
        <ele>368.88</ele>
        <time>2025-04-30T08:55:34.998Z</time>
      </trkpt>
      <trkpt lat="47.7953" lon="6.47656">
        <ele>368.95</ele>
        <time>2025-04-30T08:55:40.503Z</time>
      </trkpt>
      <trkpt lat="47.79524" lon="6.4767">
        <ele>369.04</ele>
        <time>2025-04-30T08:55:46.010Z</time>
      </trkpt>
      <trkpt lat="47.79504" lon="6.47711">
        <ele>369.15</ele>
        <time>2025-04-30T08:55:51.524Z</time>
      </trkpt>
      <trkpt lat="47.79481" lon="6.47744">
        <ele>369.26</ele>
        <time>2025-04-30T08:55:57.045Z</time>
      </trkpt>
      <trkpt lat="47.79478" lon="6.47749">
        <ele>369.39</ele>
        <time>2025-04-30T08:56:02.567Z</time>
      </trkpt>
      <trkpt lat="47.79474" lon="6.47755">
        <ele>369.54</ele>
        <time>2025-04-30T08:56:08.091Z</time>
      </trkpt>
      <trkpt lat="47.7947" lon="6.4776">
        <ele>369.71</ele>
        <time>2025-04-30T08:56:13.616Z</time>
      </trkpt>
      <trkpt lat="47.79454" lon="6.47781">
        <ele>369.87</ele>
        <time>2025-04-30T08:56:19.145Z</time>
      </trkpt>
      <trkpt lat="47.79449" lon="6.47794">
        <ele>370.09</ele>
        <time>2025-04-30T08:56:24.676Z</time>
      </trkpt>
      <trkpt lat="47.79447" lon="6.47802">
        <ele>370.31</ele>
        <time>2025-04-30T08:56:30.209Z</time>
      </trkpt>
      <trkpt lat="47.79439" lon="6.4784">
        <ele>370.55</ele>
        <time>2025-04-30T08:56:35.747Z</time>
      </trkpt>
      <trkpt lat="47.79438" lon="6.47848">
        <ele>370.81</ele>
        <time>2025-04-30T08:56:41.287Z</time>
      </trkpt>
      <trkpt lat="47.79438" lon="6.47856">
        <ele>371.1</ele>
        <time>2025-04-30T08:56:46.828Z</time>
      </trkpt>
      <trkpt lat="47.79439" lon="6.4788">
        <ele>371.39</ele>
        <time>2025-04-30T08:56:52.372Z</time>
      </trkpt>
      <trkpt lat="47.7944" lon="6.47888">
        <ele>371.7</ele>
        <time>2025-04-30T08:56:57.917Z</time>
      </trkpt>
      <trkpt lat="47.79444" lon="6.47911">
        <ele>372.05</ele>
        <time>2025-04-30T08:57:03.466Z</time>
      </trkpt>
      <trkpt lat="47.79444" lon="6.47919">
        <ele>372.41</ele>
        <time>2025-04-30T08:57:09.016Z</time>
      </trkpt>
      <trkpt lat="47.79443" lon="6.47927">
        <ele>372.78</ele>
        <time>2025-04-30T08:57:14.567Z</time>
      </trkpt>
      <trkpt lat="47.79441" lon="6.47933">
        <ele>373.17</ele>
        <time>2025-04-30T08:57:20.119Z</time>
      </trkpt>
      <trkpt lat="47.79439" lon="6.47939">
        <ele>373.58</ele>
        <time>2025-04-30T08:57:25.672Z</time>
      </trkpt>
      <trkpt lat="47.79436" lon="6.47946">
        <ele>374</ele>
        <time>2025-04-30T08:57:31.226Z</time>
      </trkpt>
      <trkpt lat="47.79433" lon="6.47952">
        <ele>374.44</ele>
        <time>2025-04-30T08:57:36.781Z</time>
      </trkpt>
      <trkpt lat="47.7943" lon="6.47958">
        <ele>374.89</ele>
        <time>2025-04-30T08:57:42.337Z</time>
      </trkpt>
      <trkpt lat="47.79427" lon="6.47964">
        <ele>375.36</ele>
        <time>2025-04-30T08:57:47.894Z</time>
      </trkpt>
      <trkpt lat="47.79425" lon="6.47969">
        <ele>375.84</ele>
        <time>2025-04-30T08:57:53.452Z</time>
      </trkpt>
      <trkpt lat="47.79422" lon="6.47975">
        <ele>376.33</ele>
        <time>2025-04-30T08:57:59.011Z</time>
      </trkpt>
      <trkpt lat="47.79419" lon="6.47982">
        <ele>376.82</ele>
        <time>2025-04-30T08:58:04.572Z</time>
      </trkpt>
      <trkpt lat="47.7941" lon="6.48001">
        <ele>377.35</ele>
        <time>2025-04-30T08:58:10.136Z</time>
      </trkpt>
      <trkpt lat="47.79407" lon="6.48007">
        <ele>377.86</ele>
        <time>2025-04-30T08:58:15.701Z</time>
      </trkpt>
      <trkpt lat="47.79393" lon="6.48036">
        <ele>378.41</ele>
        <time>2025-04-30T08:58:21.271Z</time>
      </trkpt>
      <trkpt lat="47.79389" lon="6.48039">
        <ele>378.95</ele>
        <time>2025-04-30T08:58:26.842Z</time>
      </trkpt>
      <trkpt lat="47.79386" lon="6.48041">
        <ele>379.49</ele>
        <time>2025-04-30T08:58:32.414Z</time>
      </trkpt>
      <trkpt lat="47.79382" lon="6.4804">
        <ele>380.03</ele>
        <time>2025-04-30T08:58:37.987Z</time>
      </trkpt>
      <trkpt lat="47.79377" lon="6.48037">
        <ele>380.56</ele>
        <time>2025-04-30T08:58:43.561Z</time>
      </trkpt>
      <trkpt lat="47.79374" lon="6.48034">
        <ele>381.09</ele>
        <time>2025-04-30T08:58:49.136Z</time>
      </trkpt>
      <trkpt lat="47.7937" lon="6.4803">
        <ele>381.6</ele>
        <time>2025-04-30T08:58:54.712Z</time>
      </trkpt>
      <trkpt lat="47.79367" lon="6.48025">
        <ele>382.1</ele>
        <time>2025-04-30T08:59:00.289Z</time>
      </trkpt>
      <trkpt lat="47.79363" lon="6.48021">
        <ele>382.58</ele>
        <time>2025-04-30T08:59:05.867Z</time>
      </trkpt>
      <trkpt lat="47.79359" lon="6.48016">
        <ele>383.06</ele>
        <time>2025-04-30T08:59:11.446Z</time>
      </trkpt>
      <trkpt lat="47.79355" lon="6.48011">
        <ele>383.52</ele>
        <time>2025-04-30T08:59:17.026Z</time>
      </trkpt>
      <trkpt lat="47.79348" lon="6.48001">
        <ele>383.99</ele>
        <time>2025-04-30T08:59:22.608Z</time>
      </trkpt>
      <trkpt lat="47.79334" lon="6.47979">
        <ele>384.39</ele>
        <time>2025-04-30T08:59:28.194Z</time>
      </trkpt>
      <trkpt lat="47.7933" lon="6.47974">
        <ele>384.75</ele>
        <time>2025-04-30T08:59:33.781Z</time>
      </trkpt>
      <trkpt lat="47.79319" lon="6.47958">
        <ele>385.06</ele>
        <time>2025-04-30T08:59:39.372Z</time>
      </trkpt>
      <trkpt lat="47.79315" lon="6.47952">
        <ele>385.36</ele>
        <time>2025-04-30T08:59:44.964Z</time>
      </trkpt>
      <trkpt lat="47.7931" lon="6.47946">
        <ele>385.63</ele>
        <time>2025-04-30T08:59:50.557Z</time>
      </trkpt>
      <trkpt lat="47.79306" lon="6.47941">
        <ele>385.87</ele>
        <time>2025-04-30T08:59:56.152Z</time>
      </trkpt>
      <trkpt lat="47.79301" lon="6.47934">
        <ele>386.08</ele>
        <time>2025-04-30T09:00:01.748Z</time>
      </trkpt>
      <trkpt lat="47.79297" lon="6.47928">
        <ele>386.26</ele>
        <time>2025-04-30T09:00:07.345Z</time>
      </trkpt>
      <trkpt lat="47.79292" lon="6.47921">
        <ele>386.41</ele>
        <time>2025-04-30T09:00:12.944Z</time>
      </trkpt>
      <trkpt lat="47.79287" lon="6.47915">
        <ele>386.53</ele>
        <time>2025-04-30T09:00:18.544Z</time>
      </trkpt>
      <trkpt lat="47.79282" lon="6.47909">
        <ele>386.63</ele>
        <time>2025-04-30T09:00:24.145Z</time>
      </trkpt>
      <trkpt lat="47.79277" lon="6.47903">
        <ele>386.7</ele>
        <time>2025-04-30T09:00:29.748Z</time>
      </trkpt>
      <trkpt lat="47.79272" lon="6.47896">
        <ele>386.74</ele>
        <time>2025-04-30T09:00:35.352Z</time>
      </trkpt>
      <trkpt lat="47.79267" lon="6.4789">
        <ele>386.74</ele>
        <time>2025-04-30T09:00:40.958Z</time>
      </trkpt>
      <trkpt lat="47.79262" lon="6.47885">
        <ele>386.72</ele>
        <time>2025-04-30T09:00:46.565Z</time>
      </trkpt>
      <trkpt lat="47.79257" lon="6.47878">
        <ele>386.67</ele>
        <time>2025-04-30T09:00:52.173Z</time>
      </trkpt>
      <trkpt lat="47.79251" lon="6.47872">
        <ele>386.59</ele>
        <time>2025-04-30T09:00:57.783Z</time>
      </trkpt>
      <trkpt lat="47.79246" lon="6.47865">
        <ele>386.48</ele>
        <time>2025-04-30T09:01:03.395Z</time>
      </trkpt>
      <trkpt lat="47.7924" lon="6.47858">
        <ele>386.33</ele>
        <time>2025-04-30T09:01:09.008Z</time>
      </trkpt>
      <trkpt lat="47.79235" lon="6.47852">
        <ele>386.15</ele>
        <time>2025-04-30T09:01:14.622Z</time>
      </trkpt>
      <trkpt lat="47.79231" lon="6.47845">
        <ele>385.93</ele>
        <time>2025-04-30T09:01:20.238Z</time>
      </trkpt>
      <trkpt lat="47.79222" lon="6.4783">
        <ele>385.68</ele>
        <time>2025-04-30T09:01:25.857Z</time>
      </trkpt>
      <trkpt lat="47.79206" lon="6.47791">
        <ele>385.39</ele>
        <time>2025-04-30T09:01:31.482Z</time>
      </trkpt>
      <trkpt lat="47.79202" lon="6.47784">
        <ele>385.09</ele>
        <time>2025-04-30T09:01:37.109Z</time>
      </trkpt>
      <trkpt lat="47.79199" lon="6.47777">
        <ele>384.75</ele>
        <time>2025-04-30T09:01:42.737Z</time>
      </trkpt>
      <trkpt lat="47.79195" lon="6.47771">
        <ele>384.38</ele>
        <time>2025-04-30T09:01:48.366Z</time>
      </trkpt>
      <trkpt lat="47.79192" lon="6.47766">
        <ele>383.99</ele>
        <time>2025-04-30T09:01:53.996Z</time>
      </trkpt>
      <trkpt lat="47.79187" lon="6.47758">
        <ele>383.57</ele>
        <time>2025-04-30T09:01:59.628Z</time>
      </trkpt>
      <trkpt lat="47.79183" lon="6.47751">
        <ele>383.13</ele>
        <time>2025-04-30T09:02:05.261Z</time>
      </trkpt>
      <trkpt lat="47.79179" lon="6.47745">
        <ele>382.63</ele>
        <time>2025-04-30T09:02:10.895Z</time>
      </trkpt>
      <trkpt lat="47.79175" lon="6.47738">
        <ele>382.11</ele>
        <time>2025-04-30T09:02:16.530Z</time>
      </trkpt>
      <trkpt lat="47.79171" lon="6.47732">
        <ele>381.58</ele>
        <time>2025-04-30T09:02:22.167Z</time>
      </trkpt>
      <trkpt lat="47.79166" lon="6.47727">
        <ele>381.03</ele>
        <time>2025-04-30T09:02:27.805Z</time>
      </trkpt>
      <trkpt lat="47.79162" lon="6.47721">
        <ele>380.47</ele>
        <time>2025-04-30T09:02:33.444Z</time>
      </trkpt>
      <trkpt lat="47.79157" lon="6.47715">
        <ele>379.91</ele>
        <time>2025-04-30T09:02:39.084Z</time>
      </trkpt>
      <trkpt lat="47.79143" lon="6.47698">
        <ele>379.35</ele>
        <time>2025-04-30T09:02:44.728Z</time>
      </trkpt>
      <trkpt lat="47.79138" lon="6.47692">
        <ele>378.75</ele>
        <time>2025-04-30T09:02:50.374Z</time>
      </trkpt>
      <trkpt lat="47.79124" lon="6.47679">
        <ele>378.15</ele>
        <time>2025-04-30T09:02:56.023Z</time>
      </trkpt>
      <trkpt lat="47.79108" lon="6.47671">
        <ele>377.52</ele>
        <time>2025-04-30T09:03:01.676Z</time>
      </trkpt>
      <trkpt lat="47.79089" lon="6.47667">
        <ele>376.88</ele>
        <time>2025-04-30T09:03:07.333Z</time>
      </trkpt>
      <trkpt lat="47.7907" lon="6.47664">
        <ele>376.14</ele>
        <time>2025-04-30T09:03:12.994Z</time>
      </trkpt>
      <trkpt lat="47.79055" lon="6.4766">
        <ele>375.44</ele>
        <time>2025-04-30T09:03:18.658Z</time>
      </trkpt>
      <trkpt lat="47.7904" lon="6.47655">
        <ele>374.73</ele>
        <time>2025-04-30T09:03:24.326Z</time>
      </trkpt>
      <trkpt lat="47.79031" lon="6.47653">
        <ele>374.07</ele>
        <time>2025-04-30T09:03:29.996Z</time>
      </trkpt>
      <trkpt lat="47.79014" lon="6.47649">
        <ele>373.4</ele>
        <time>2025-04-30T09:03:35.669Z</time>
      </trkpt>
      <trkpt lat="47.78989" lon="6.47642">
        <ele>372.68</ele>
        <time>2025-04-30T09:03:41.348Z</time>
      </trkpt>
      <trkpt lat="47.78981" lon="6.4764">
        <ele>372.05</ele>
        <time>2025-04-30T09:03:47.029Z</time>
      </trkpt>
      <trkpt lat="47.78972" lon="6.47636">
        <ele>371.46</ele>
        <time>2025-04-30T09:03:52.712Z</time>
      </trkpt>
      <trkpt lat="47.78964" lon="6.47632">
        <ele>370.88</ele>
        <time>2025-04-30T09:03:58.396Z</time>
      </trkpt>
      <trkpt lat="47.78949" lon="6.47624">
        <ele>370.31</ele>
        <time>2025-04-30T09:04:04.084Z</time>
      </trkpt>
      <trkpt lat="47.78943" lon="6.47622">
        <ele>369.78</ele>
        <time>2025-04-30T09:04:09.773Z</time>
      </trkpt>
      <trkpt lat="47.78939" lon="6.4762">
        <ele>369.29</ele>
        <time>2025-04-30T09:04:15.463Z</time>
      </trkpt>
      <trkpt lat="47.78934" lon="6.47621">
        <ele>368.82</ele>
        <time>2025-04-30T09:04:21.154Z</time>
      </trkpt>
      <trkpt lat="47.7893" lon="6.47625">
        <ele>368.37</ele>
        <time>2025-04-30T09:04:26.846Z</time>
      </trkpt>
      <trkpt lat="47.78925" lon="6.4763">
        <ele>367.96</ele>
        <time>2025-04-30T09:04:32.540Z</time>
      </trkpt>
      <trkpt lat="47.78923" lon="6.47636">
        <ele>367.58</ele>
        <time>2025-04-30T09:04:38.235Z</time>
      </trkpt>
      <trkpt lat="47.78921" lon="6.47642">
        <ele>367.23</ele>
        <time>2025-04-30T09:04:43.930Z</time>
      </trkpt>
      <trkpt lat="47.78919" lon="6.47649">
        <ele>366.92</ele>
        <time>2025-04-30T09:04:49.627Z</time>
      </trkpt>
      <trkpt lat="47.78916" lon="6.47657">
        <ele>366.62</ele>
        <time>2025-04-30T09:04:55.325Z</time>
      </trkpt>
      <trkpt lat="47.78912" lon="6.47663">
        <ele>366.37</ele>
        <time>2025-04-30T09:05:01.024Z</time>
      </trkpt>
      <trkpt lat="47.78903" lon="6.47682">
        <ele>366.16</ele>
        <time>2025-04-30T09:05:06.726Z</time>
      </trkpt>
      <trkpt lat="47.78898" lon="6.47699">
        <ele>365.99</ele>
        <time>2025-04-30T09:05:12.431Z</time>
      </trkpt>
      <trkpt lat="47.78895" lon="6.47708">
        <ele>365.82</ele>
        <time>2025-04-30T09:05:18.137Z</time>
      </trkpt>
      <trkpt lat="47.78893" lon="6.47715">
        <ele>365.67</ele>
        <time>2025-04-30T09:05:23.845Z</time>
      </trkpt>
      <trkpt lat="47.78887" lon="6.47734">
        <ele>365.54</ele>
        <time>2025-04-30T09:05:29.556Z</time>
      </trkpt>
      <trkpt lat="47.78885" lon="6.47742">
        <ele>365.42</ele>
        <time>2025-04-30T09:05:35.268Z</time>
      </trkpt>
      <trkpt lat="47.7888" lon="6.47758">
        <ele>365.32</ele>
        <time>2025-04-30T09:05:40.982Z</time>
      </trkpt>
      <trkpt lat="47.78879" lon="6.47766">
        <ele>365.24</ele>
        <time>2025-04-30T09:05:46.698Z</time>
      </trkpt>
      <trkpt lat="47.78874" lon="6.47788">
        <ele>365.16</ele>
        <time>2025-04-30T09:05:52.417Z</time>
      </trkpt>
      <trkpt lat="47.78874" lon="6.47796">
        <ele>365.12</ele>
        <time>2025-04-30T09:05:58.137Z</time>
      </trkpt>
      <trkpt lat="47.78873" lon="6.47804">
        <ele>365.09</ele>
        <time>2025-04-30T09:06:03.858Z</time>
      </trkpt>
      <trkpt lat="47.78873" lon="6.4781">
        <ele>365.07</ele>
        <time>2025-04-30T09:06:09.580Z</time>
      </trkpt>
      <trkpt lat="47.78874" lon="6.47817">
        <ele>365.07</ele>
        <time>2025-04-30T09:06:15.303Z</time>
      </trkpt>
      <trkpt lat="47.78872" lon="6.47835">
        <ele>365.08</ele>
        <time>2025-04-30T09:06:21.029Z</time>
      </trkpt>
      <trkpt lat="47.78871" lon="6.47841">
        <ele>365.11</ele>
        <time>2025-04-30T09:06:26.756Z</time>
      </trkpt>
      <trkpt lat="47.7887" lon="6.47848">
        <ele>365.15</ele>
        <time>2025-04-30T09:06:32.484Z</time>
      </trkpt>
      <trkpt lat="47.7887" lon="6.47854">
        <ele>365.2</ele>
        <time>2025-04-30T09:06:38.213Z</time>
      </trkpt>
      <trkpt lat="47.78868" lon="6.4786">
        <ele>365.26</ele>
        <time>2025-04-30T09:06:43.943Z</time>
      </trkpt>
      <trkpt lat="47.78868" lon="6.47881">
        <ele>365.31</ele>
        <time>2025-04-30T09:06:49.676Z</time>
      </trkpt>
      <trkpt lat="47.78873" lon="6.47903">
        <ele>365.4</ele>
        <time>2025-04-30T09:06:55.412Z</time>
      </trkpt>
      <trkpt lat="47.78876" lon="6.47911">
        <ele>365.49</ele>
        <time>2025-04-30T09:07:01.149Z</time>
      </trkpt>
      <trkpt lat="47.78878" lon="6.47917">
        <ele>365.6</ele>
        <time>2025-04-30T09:07:06.887Z</time>
      </trkpt>
      <trkpt lat="47.78881" lon="6.47923">
        <ele>365.72</ele>
        <time>2025-04-30T09:07:12.626Z</time>
      </trkpt>
      <trkpt lat="47.78883" lon="6.47931">
        <ele>365.85</ele>
        <time>2025-04-30T09:07:18.367Z</time>
      </trkpt>
      <trkpt lat="47.78886" lon="6.4794">
        <ele>365.99</ele>
        <time>2025-04-30T09:07:24.109Z</time>
      </trkpt>
      <trkpt lat="47.7889" lon="6.47951">
        <ele>366.13</ele>
        <time>2025-04-30T09:07:29.853Z</time>
      </trkpt>
      <trkpt lat="47.78893" lon="6.4796">
        <ele>366.28</ele>
        <time>2025-04-30T09:07:35.598Z</time>
      </trkpt>
      <trkpt lat="47.78895" lon="6.47968">
        <ele>366.42</ele>
        <time>2025-04-30T09:07:41.344Z</time>
      </trkpt>
      <trkpt lat="47.78896" lon="6.47977">
        <ele>366.55</ele>
        <time>2025-04-30T09:07:47.092Z</time>
      </trkpt>
      <trkpt lat="47.78896" lon="6.47985">
        <ele>366.68</ele>
        <time>2025-04-30T09:07:52.841Z</time>
      </trkpt>
      <trkpt lat="47.78895" lon="6.47992">
        <ele>366.82</ele>
        <time>2025-04-30T09:07:58.591Z</time>
      </trkpt>
      <trkpt lat="47.78893" lon="6.47998">
        <ele>366.95</ele>
        <time>2025-04-30T09:08:04.342Z</time>
      </trkpt>
      <trkpt lat="47.7889" lon="6.48003">
        <ele>367.08</ele>
        <time>2025-04-30T09:08:10.094Z</time>
      </trkpt>
      <trkpt lat="47.78885" lon="6.48007">
        <ele>367.2</ele>
        <time>2025-04-30T09:08:15.847Z</time>
      </trkpt>
      <trkpt lat="47.78879" lon="6.48012">
        <ele>367.32</ele>
        <time>2025-04-30T09:08:21.601Z</time>
      </trkpt>
      <trkpt lat="47.78873" lon="6.48015">
        <ele>367.44</ele>
        <time>2025-04-30T09:08:27.357Z</time>
      </trkpt>
      <trkpt lat="47.78868" lon="6.48017">
        <ele>367.57</ele>
        <time>2025-04-30T09:08:33.114Z</time>
      </trkpt>
      <trkpt lat="47.78864" lon="6.48018">
        <ele>367.72</ele>
        <time>2025-04-30T09:08:38.872Z</time>
      </trkpt>
      <trkpt lat="47.78856" lon="6.48019">
        <ele>367.86</ele>
        <time>2025-04-30T09:08:44.632Z</time>
      </trkpt>
      <trkpt lat="47.78851" lon="6.48022">
        <ele>368.03</ele>
        <time>2025-04-30T09:08:50.393Z</time>
      </trkpt>
      <trkpt lat="47.78847" lon="6.48024">
        <ele>368.19</ele>
        <time>2025-04-30T09:08:56.155Z</time>
      </trkpt>
      <trkpt lat="47.78844" lon="6.48025">
        <ele>368.36</ele>
        <time>2025-04-30T09:09:01.917Z</time>
      </trkpt>
      <trkpt lat="47.78839" lon="6.48026">
        <ele>368.53</ele>
        <time>2025-04-30T09:09:07.681Z</time>
      </trkpt>
      <trkpt lat="47.78831" lon="6.48029">
        <ele>368.69</ele>
        <time>2025-04-30T09:09:13.446Z</time>
      </trkpt>
      <trkpt lat="47.78828" lon="6.48031">
        <ele>368.87</ele>
        <time>2025-04-30T09:09:19.212Z</time>
      </trkpt>
      <trkpt lat="47.78825" lon="6.48033">
        <ele>369.05</ele>
        <time>2025-04-30T09:09:24.979Z</time>
      </trkpt>
      <trkpt lat="47.78822" lon="6.48035">
        <ele>369.23</ele>
        <time>2025-04-30T09:09:30.746Z</time>
      </trkpt>
      <trkpt lat="47.78819" lon="6.48038">
        <ele>369.42</ele>
        <time>2025-04-30T09:09:36.514Z</time>
      </trkpt>
      <trkpt lat="47.78817" lon="6.48041">
        <ele>369.62</ele>
        <time>2025-04-30T09:09:42.283Z</time>
      </trkpt>
      <trkpt lat="47.78816" lon="6.48044">
        <ele>369.82</ele>
        <time>2025-04-30T09:09:48.052Z</time>
      </trkpt>
      <trkpt lat="47.78814" lon="6.48048">
        <ele>370.03</ele>
        <time>2025-04-30T09:09:53.822Z</time>
      </trkpt>
      <trkpt lat="47.78812" lon="6.48052">
        <ele>370.24</ele>
        <time>2025-04-30T09:09:59.593Z</time>
      </trkpt>
      <trkpt lat="47.78811" lon="6.48056">
        <ele>370.44</ele>
        <time>2025-04-30T09:10:05.364Z</time>
      </trkpt>
      <trkpt lat="47.7881" lon="6.4806">
        <ele>370.64</ele>
        <time>2025-04-30T09:10:11.136Z</time>
      </trkpt>
      <trkpt lat="47.78808" lon="6.48064">
        <ele>370.84</ele>
        <time>2025-04-30T09:10:16.909Z</time>
      </trkpt>
      <trkpt lat="47.78801" lon="6.48081">
        <ele>371.05</ele>
        <time>2025-04-30T09:10:22.684Z</time>
      </trkpt>
      <trkpt lat="47.78799" lon="6.48086">
        <ele>371.26</ele>
        <time>2025-04-30T09:10:28.460Z</time>
      </trkpt>
      <trkpt lat="47.78797" lon="6.48092">
        <ele>371.47</ele>
        <time>2025-04-30T09:10:34.237Z</time>
      </trkpt>
      <trkpt lat="47.78793" lon="6.48099">
        <ele>371.7</ele>
        <time>2025-04-30T09:10:40.016Z</time>
      </trkpt>
      <trkpt lat="47.7879" lon="6.48107">
        <ele>371.92</ele>
        <time>2025-04-30T09:10:45.796Z</time>
      </trkpt>
      <trkpt lat="47.78785" lon="6.48116">
        <ele>372.14</ele>
        <time>2025-04-30T09:10:51.578Z</time>
      </trkpt>
      <trkpt lat="47.78782" lon="6.48124">
        <ele>372.37</ele>
        <time>2025-04-30T09:10:57.361Z</time>
      </trkpt>
      <trkpt lat="47.78779" lon="6.48133">
        <ele>372.58</ele>
        <time>2025-04-30T09:11:03.145Z</time>
      </trkpt>
      <trkpt lat="47.78777" lon="6.48142">
        <ele>372.8</ele>
        <time>2025-04-30T09:11:08.931Z</time>
      </trkpt>
      <trkpt lat="47.78773" lon="6.48152">
        <ele>373</ele>
        <time>2025-04-30T09:11:14.718Z</time>
      </trkpt>
      <trkpt lat="47.7877" lon="6.48161">
        <ele>373.2</ele>
        <time>2025-04-30T09:11:20.507Z</time>
      </trkpt>
      <trkpt lat="47.78767" lon="6.48172">
        <ele>373.38</ele>
        <time>2025-04-30T09:11:26.298Z</time>
      </trkpt>
      <trkpt lat="47.78764" lon="6.48185">
        <ele>373.55</ele>
        <time>2025-04-30T09:11:32.091Z</time>
      </trkpt>
      <trkpt lat="47.78758" lon="6.48215">
        <ele>373.7</ele>
        <time>2025-04-30T09:11:37.888Z</time>
      </trkpt>
      <trkpt lat="47.78757" lon="6.48224">
        <ele>373.82</ele>
        <time>2025-04-30T09:11:43.686Z</time>
      </trkpt>
      <trkpt lat="47.78755" lon="6.48235">
        <ele>373.93</ele>
        <time>2025-04-30T09:11:49.486Z</time>
      </trkpt>
      <trkpt lat="47.78754" lon="6.48244">
        <ele>374.02</ele>
        <time>2025-04-30T09:11:55.287Z</time>
      </trkpt>
      <trkpt lat="47.78751" lon="6.48253">
        <ele>374.12</ele>
        <time>2025-04-30T09:12:01.090Z</time>
      </trkpt>
      <trkpt lat="47.7875" lon="6.48261">
        <ele>374.2</ele>
        <time>2025-04-30T09:12:06.894Z</time>
      </trkpt>
      <trkpt lat="47.78748" lon="6.48271">
        <ele>374.27</ele>
        <time>2025-04-30T09:12:12.700Z</time>
      </trkpt>
      <trkpt lat="47.78743" lon="6.4829">
        <ele>374.32</ele>
        <time>2025-04-30T09:12:18.508Z</time>
      </trkpt>
      <trkpt lat="47.78739" lon="6.48308">
        <ele>374.4</ele>
        <time>2025-04-30T09:12:24.319Z</time>
      </trkpt>
      <trkpt lat="47.78737" lon="6.48316">
        <ele>374.46</ele>
        <time>2025-04-30T09:12:30.131Z</time>
      </trkpt>
      <trkpt lat="47.78734" lon="6.48326">
        <ele>374.52</ele>
        <time>2025-04-30T09:12:35.945Z</time>
      </trkpt>
      <trkpt lat="47.78724" lon="6.48355">
        <ele>374.56</ele>
        <time>2025-04-30T09:12:41.764Z</time>
      </trkpt>
      <trkpt lat="47.78718" lon="6.48368">
        <ele>374.57</ele>
        <time>2025-04-30T09:12:47.585Z</time>
      </trkpt>
      <trkpt lat="47.78713" lon="6.48374">
        <ele>374.6</ele>
        <time>2025-04-30T09:12:53.407Z</time>
      </trkpt>
      <trkpt lat="47.78711" lon="6.48378">
        <ele>374.63</ele>
        <time>2025-04-30T09:12:59.230Z</time>
      </trkpt>
      <trkpt lat="47.78709" lon="6.48382">
        <ele>374.66</ele>
        <time>2025-04-30T09:13:05.054Z</time>
      </trkpt>
      <trkpt lat="47.78708" lon="6.48387">
        <ele>374.68</ele>
        <time>2025-04-30T09:13:10.879Z</time>
      </trkpt>
      <trkpt lat="47.78706" lon="6.4839">
        <ele>374.7</ele>
        <time>2025-04-30T09:13:16.704Z</time>
      </trkpt>
      <trkpt lat="47.78704" lon="6.48394">
        <ele>374.72</ele>
        <time>2025-04-30T09:13:22.530Z</time>
      </trkpt>
      <trkpt lat="47.78702" lon="6.48399">
        <ele>374.74</ele>
        <time>2025-04-30T09:13:28.357Z</time>
      </trkpt>
      <trkpt lat="47.78695" lon="6.48414">
        <ele>374.76</ele>
        <time>2025-04-30T09:13:34.186Z</time>
      </trkpt>
      <trkpt lat="47.78688" lon="6.48428">
        <ele>374.74</ele>
        <time>2025-04-30T09:13:40.018Z</time>
      </trkpt>
      <trkpt lat="47.78687" lon="6.48434">
        <ele>374.75</ele>
        <time>2025-04-30T09:13:45.851Z</time>
      </trkpt>
      <trkpt lat="47.78687" lon="6.48444">
        <ele>374.75</ele>
        <time>2025-04-30T09:13:51.685Z</time>
      </trkpt>
      <trkpt lat="47.78687" lon="6.48447">
        <ele>374.76</ele>
        <time>2025-04-30T09:13:57.520Z</time>
      </trkpt>
      <trkpt lat="47.78687" lon="6.48451">
        <ele>374.77</ele>
        <time>2025-04-30T09:14:03.355Z</time>
      </trkpt>
      <trkpt lat="47.78688" lon="6.48455">
        <ele>374.78</ele>
        <time>2025-04-30T09:14:09.191Z</time>
      </trkpt>
      <trkpt lat="47.78689" lon="6.48461">
        <ele>374.79</ele>
        <time>2025-04-30T09:14:15.028Z</time>
      </trkpt>
      <trkpt lat="47.78691" lon="6.48485">
        <ele>374.78</ele>
        <time>2025-04-30T09:14:20.868Z</time>
      </trkpt>
      <trkpt lat="47.78691" lon="6.4849">
        <ele>374.79</ele>
        <time>2025-04-30T09:14:26.709Z</time>
      </trkpt>
      <trkpt lat="47.78692" lon="6.48497">
        <ele>374.79</ele>
        <time>2025-04-30T09:14:32.551Z</time>
      </trkpt>
      <trkpt lat="47.78699" lon="6.48531">
        <ele>374.87</ele>
        <time>2025-04-30T09:14:38.398Z</time>
      </trkpt>
      <trkpt lat="47.78699" lon="6.48537">
        <ele>374.88</ele>
        <time>2025-04-30T09:14:44.246Z</time>
      </trkpt>
      <trkpt lat="47.787" lon="6.48549">
        <ele>374.9</ele>
        <time>2025-04-30T09:14:50.096Z</time>
      </trkpt>
      <trkpt lat="47.78702" lon="6.48556">
        <ele>374.91</ele>
        <time>2025-04-30T09:14:55.947Z</time>
      </trkpt>
      <trkpt lat="47.78703" lon="6.48562">
        <ele>374.92</ele>
        <time>2025-04-30T09:15:01.799Z</time>
      </trkpt>
      <trkpt lat="47.78704" lon="6.48569">
        <ele>374.92</ele>
        <time>2025-04-30T09:15:07.652Z</time>
      </trkpt>
      <trkpt lat="47.78705" lon="6.48576">
        <ele>374.91</ele>
        <time>2025-04-30T09:15:13.506Z</time>
      </trkpt>
      <trkpt lat="47.78706" lon="6.48583">
        <ele>374.9</ele>
        <time>2025-04-30T09:15:19.361Z</time>
      </trkpt>
      <trkpt lat="47.78709" lon="6.48588">
        <ele>374.88</ele>
        <time>2025-04-30T09:15:25.217Z</time>
      </trkpt>
      <trkpt lat="47.78711" lon="6.48593">
        <ele>374.84</ele>
        <time>2025-04-30T09:15:31.074Z</time>
      </trkpt>
      <trkpt lat="47.78712" lon="6.48598">
        <ele>374.81</ele>
        <time>2025-04-30T09:15:36.931Z</time>
      </trkpt>
      <trkpt lat="47.78712" lon="6.48604">
        <ele>374.76</ele>
        <time>2025-04-30T09:15:42.789Z</time>
      </trkpt>
      <trkpt lat="47.78712" lon="6.48609">
        <ele>374.7</ele>
        <time>2025-04-30T09:15:48.648Z</time>
      </trkpt>
      <trkpt lat="47.78711" lon="6.48613">
        <ele>374.63</ele>
        <time>2025-04-30T09:15:54.508Z</time>
      </trkpt>
      <trkpt lat="47.7871" lon="6.48616">
        <ele>374.54</ele>
        <time>2025-04-30T09:16:00.368Z</time>
      </trkpt>
      <trkpt lat="47.78707" lon="6.48618">
        <ele>374.45</ele>
        <time>2025-04-30T09:16:06.229Z</time>
      </trkpt>
      <trkpt lat="47.78704" lon="6.48618">
        <ele>374.34</ele>
        <time>2025-04-30T09:16:12.090Z</time>
      </trkpt>
      <trkpt lat="47.78701" lon="6.48619">
        <ele>374.23</ele>
        <time>2025-04-30T09:16:17.952Z</time>
      </trkpt>
      <trkpt lat="47.78697" lon="6.4862">
        <ele>374.1</ele>
        <time>2025-04-30T09:16:23.815Z</time>
      </trkpt>
      <trkpt lat="47.78694" lon="6.48621">
        <ele>373.96</ele>
        <time>2025-04-30T09:16:29.679Z</time>
      </trkpt>
      <trkpt lat="47.7869" lon="6.48623">
        <ele>373.82</ele>
        <time>2025-04-30T09:16:35.543Z</time>
      </trkpt>
      <trkpt lat="47.78687" lon="6.48625">
        <ele>373.67</ele>
        <time>2025-04-30T09:16:41.408Z</time>
      </trkpt>
      <trkpt lat="47.78683" lon="6.48627">
        <ele>373.51</ele>
        <time>2025-04-30T09:16:47.274Z</time>
      </trkpt>
      <trkpt lat="47.78679" lon="6.48629">
        <ele>373.35</ele>
        <time>2025-04-30T09:16:53.141Z</time>
      </trkpt>
      <trkpt lat="47.78676" lon="6.48631">
        <ele>373.18</ele>
        <time>2025-04-30T09:16:59.009Z</time>
      </trkpt>
      <trkpt lat="47.78672" lon="6.48633">
        <ele>373</ele>
        <time>2025-04-30T09:17:04.878Z</time>
      </trkpt>
      <trkpt lat="47.78669" lon="6.48635">
        <ele>372.81</ele>
        <time>2025-04-30T09:17:10.747Z</time>
      </trkpt>
      <trkpt lat="47.78665" lon="6.48638">
        <ele>372.62</ele>
        <time>2025-04-30T09:17:16.617Z</time>
      </trkpt>
      <trkpt lat="47.78661" lon="6.4864">
        <ele>372.42</ele>
        <time>2025-04-30T09:17:22.488Z</time>
      </trkpt>
      <trkpt lat="47.78657" lon="6.48642">
        <ele>372.22</ele>
        <time>2025-04-30T09:17:28.360Z</time>
      </trkpt>
      <trkpt lat="47.78653" lon="6.48645">
        <ele>372.02</ele>
        <time>2025-04-30T09:17:34.233Z</time>
      </trkpt>
      <trkpt lat="47.78649" lon="6.48647">
        <ele>371.83</ele>
        <time>2025-04-30T09:17:40.107Z</time>
      </trkpt>
      <trkpt lat="47.78645" lon="6.4865">
        <ele>371.63</ele>
        <time>2025-04-30T09:17:45.982Z</time>
      </trkpt>
      <trkpt lat="47.78641" lon="6.48652">
        <ele>371.43</ele>
        <time>2025-04-30T09:17:51.858Z</time>
      </trkpt>
      <trkpt lat="47.78637" lon="6.48655">
        <ele>371.22</ele>
        <time>2025-04-30T09:17:57.735Z</time>
      </trkpt>
      <trkpt lat="47.78632" lon="6.48658">
        <ele>371.02</ele>
        <time>2025-04-30T09:18:03.613Z</time>
      </trkpt>
      <trkpt lat="47.78627" lon="6.48661">
        <ele>370.81</ele>
        <time>2025-04-30T09:18:09.492Z</time>
      </trkpt>
      <trkpt lat="47.78623" lon="6.48665">
        <ele>370.6</ele>
        <time>2025-04-30T09:18:15.372Z</time>
      </trkpt>
      <trkpt lat="47.78619" lon="6.4867">
        <ele>370.4</ele>
        <time>2025-04-30T09:18:21.253Z</time>
      </trkpt>
      <trkpt lat="47.78616" lon="6.48676">
        <ele>370.2</ele>
        <time>2025-04-30T09:18:27.135Z</time>
      </trkpt>
      <trkpt lat="47.78615" lon="6.48683">
        <ele>370.02</ele>
        <time>2025-04-30T09:18:33.018Z</time>
      </trkpt>
      <trkpt lat="47.78615" lon="6.4869">
        <ele>369.85</ele>
        <time>2025-04-30T09:18:38.902Z</time>
      </trkpt>
      <trkpt lat="47.78617" lon="6.48696">
        <ele>369.69</ele>
        <time>2025-04-30T09:18:44.787Z</time>
      </trkpt>
      <trkpt lat="47.7862" lon="6.48701">
        <ele>369.55</ele>
        <time>2025-04-30T09:18:50.673Z</time>
      </trkpt>
      <trkpt lat="47.78623" lon="6.48706">
        <ele>369.42</ele>
        <time>2025-04-30T09:18:56.560Z</time>
      </trkpt>
      <trkpt lat="47.78632" lon="6.48722">
        <ele>369.3</ele>
        <time>2025-04-30T09:19:02.450Z</time>
      </trkpt>
      <trkpt lat="47.7864" lon="6.48741">
        <ele>369.16</ele>
        <time>2025-04-30T09:19:08.344Z</time>
      </trkpt>
      <trkpt lat="47.78643" lon="6.48748">
        <ele>369.04</ele>
        <time>2025-04-30T09:19:14.239Z</time>
      </trkpt>
      <trkpt lat="47.78644" lon="6.48755">
        <ele>368.93</ele>
        <time>2025-04-30T09:19:20.135Z</time>
      </trkpt>
      <trkpt lat="47.78645" lon="6.48763">
        <ele>368.84</ele>
        <time>2025-04-30T09:19:26.032Z</time>
      </trkpt>
      <trkpt lat="47.78644" lon="6.48769">
        <ele>368.75</ele>
        <time>2025-04-30T09:19:31.930Z</time>
      </trkpt>
      <trkpt lat="47.78644" lon="6.48776">
        <ele>368.67</ele>
        <time>2025-04-30T09:19:37.829Z</time>
      </trkpt>
      <trkpt lat="47.78643" lon="6.48784">
        <ele>368.61</ele>
        <time>2025-04-30T09:19:43.729Z</time>
      </trkpt>
      <trkpt lat="47.78642" lon="6.48791">
        <ele>368.56</ele>
        <time>2025-04-30T09:19:49.630Z</time>
      </trkpt>
      <trkpt lat="47.78641" lon="6.48812">
        <ele>368.53</ele>
        <time>2025-04-30T09:19:55.534Z</time>
      </trkpt>
      <trkpt lat="47.78641" lon="6.48819">
        <ele>368.51</ele>
        <time>2025-04-30T09:20:01.439Z</time>
      </trkpt>
      <trkpt lat="47.78641" lon="6.48826">
        <ele>368.5</ele>
        <time>2025-04-30T09:20:07.345Z</time>
      </trkpt>
      <trkpt lat="47.78641" lon="6.48832">
        <ele>368.51</ele>
        <time>2025-04-30T09:20:13.252Z</time>
      </trkpt>
      <trkpt lat="47.78641" lon="6.48839">
        <ele>368.52</ele>
        <time>2025-04-30T09:20:19.160Z</time>
      </trkpt>
      <trkpt lat="47.78641" lon="6.48846">
        <ele>368.55</ele>
        <time>2025-04-30T09:20:25.069Z</time>
      </trkpt>
      <trkpt lat="47.78641" lon="6.48853">
        <ele>368.58</ele>
        <time>2025-04-30T09:20:30.979Z</time>
      </trkpt>
      <trkpt lat="47.78641" lon="6.4886">
        <ele>368.63</ele>
        <time>2025-04-30T09:20:36.890Z</time>
      </trkpt>
      <trkpt lat="47.78642" lon="6.48871">
        <ele>368.7</ele>
        <time>2025-04-30T09:20:42.803Z</time>
      </trkpt>
      <trkpt lat="47.78642" lon="6.48876">
        <ele>368.75</ele>
        <time>2025-04-30T09:20:48.716Z</time>
      </trkpt>
      <trkpt lat="47.7864" lon="6.48879">
        <ele>368.81</ele>
        <time>2025-04-30T09:20:54.630Z</time>
      </trkpt>
      <trkpt lat="47.78636" lon="6.48879">
        <ele>368.87</ele>
        <time>2025-04-30T09:21:00.545Z</time>
      </trkpt>
      <trkpt lat="47.78632" lon="6.48879">
        <ele>368.93</ele>
        <time>2025-04-30T09:21:06.461Z</time>
      </trkpt>
      <trkpt lat="47.78628" lon="6.48879">
        <ele>368.99</ele>
        <time>2025-04-30T09:21:12.378Z</time>
      </trkpt>
      <trkpt lat="47.78598" lon="6.48882">
        <ele>369.02</ele>
        <time>2025-04-30T09:21:18.301Z</time>
      </trkpt>
      <trkpt lat="47.78583" lon="6.48884">
        <ele>369.11</ele>
        <time>2025-04-30T09:21:24.227Z</time>
      </trkpt>
      <trkpt lat="47.78562" lon="6.48892">
        <ele>369.2</ele>
        <time>2025-04-30T09:21:30.158Z</time>
      </trkpt>
      <trkpt lat="47.78534" lon="6.48907">
        <ele>369.31</ele>
        <time>2025-04-30T09:21:36.095Z</time>
      </trkpt>
      <trkpt lat="47.78528" lon="6.48911">
        <ele>369.41</ele>
        <time>2025-04-30T09:21:42.034Z</time>
      </trkpt>
      <trkpt lat="47.78507" lon="6.48931">
        <ele>369.55</ele>
        <time>2025-04-30T09:21:47.978Z</time>
      </trkpt>
      <trkpt lat="47.78502" lon="6.48938">
        <ele>369.65</ele>
        <time>2025-04-30T09:21:53.923Z</time>
      </trkpt>
      <trkpt lat="47.78495" lon="6.48953">
        <ele>369.77</ele>
        <time>2025-04-30T09:21:59.871Z</time>
      </trkpt>
      <trkpt lat="47.78493" lon="6.48962">
        <ele>369.89</ele>
        <time>2025-04-30T09:22:05.820Z</time>
      </trkpt>
      <trkpt lat="47.78491" lon="6.4897">
        <ele>370.01</ele>
        <time>2025-04-30T09:22:11.771Z</time>
      </trkpt>
      <trkpt lat="47.78487" lon="6.49005">
        <ele>370.15</ele>
        <time>2025-04-30T09:22:17.727Z</time>
      </trkpt>
      <trkpt lat="47.78486" lon="6.49013">
        <ele>370.27</ele>
        <time>2025-04-30T09:22:23.684Z</time>
      </trkpt>
      <trkpt lat="47.78485" lon="6.4902">
        <ele>370.38</ele>
        <time>2025-04-30T09:22:29.642Z</time>
      </trkpt>
      <trkpt lat="47.78485" lon="6.49028">
        <ele>370.49</ele>
        <time>2025-04-30T09:22:35.601Z</time>
      </trkpt>
      <trkpt lat="47.78484" lon="6.49035">
        <ele>370.61</ele>
        <time>2025-04-30T09:22:41.561Z</time>
      </trkpt>
      <trkpt lat="47.78483" lon="6.49043">
        <ele>370.72</ele>
        <time>2025-04-30T09:22:47.522Z</time>
      </trkpt>
      <trkpt lat="47.78483" lon="6.4905">
        <ele>370.83</ele>
        <time>2025-04-30T09:22:53.484Z</time>
      </trkpt>
      <trkpt lat="47.78481" lon="6.49057">
        <ele>370.94</ele>
        <time>2025-04-30T09:22:59.447Z</time>
      </trkpt>
      <trkpt lat="47.7848" lon="6.49072">
        <ele>371.07</ele>
        <time>2025-04-30T09:23:05.413Z</time>
      </trkpt>
      <trkpt lat="47.78479" lon="6.49086">
        <ele>371.19</ele>
        <time>2025-04-30T09:23:11.381Z</time>
      </trkpt>
      <trkpt lat="47.78478" lon="6.49092">
        <ele>371.3</ele>
        <time>2025-04-30T09:23:17.350Z</time>
      </trkpt>
      <trkpt lat="47.78477" lon="6.49099">
        <ele>371.41</ele>
        <time>2025-04-30T09:23:23.320Z</time>
      </trkpt>
      <trkpt lat="47.78476" lon="6.49106">
        <ele>371.51</ele>
        <time>2025-04-30T09:23:29.291Z</time>
      </trkpt>
      <trkpt lat="47.78473" lon="6.49119">
        <ele>371.62</ele>
        <time>2025-04-30T09:23:35.264Z</time>
      </trkpt>
      <trkpt lat="47.7847" lon="6.49125">
        <ele>371.72</ele>
        <time>2025-04-30T09:23:41.238Z</time>
      </trkpt>
      <trkpt lat="47.78467" lon="6.49131">
        <ele>371.82</ele>
        <time>2025-04-30T09:23:47.213Z</time>
      </trkpt>
      <trkpt lat="47.78463" lon="6.49135">
        <ele>371.92</ele>
        <time>2025-04-30T09:23:53.189Z</time>
      </trkpt>
      <trkpt lat="47.78458" lon="6.49138">
        <ele>372.03</ele>
        <time>2025-04-30T09:23:59.166Z</time>
      </trkpt>
      <trkpt lat="47.78452" lon="6.49139">
        <ele>372.13</ele>
        <time>2025-04-30T09:24:05.144Z</time>
      </trkpt>
      <trkpt lat="47.78446" lon="6.49139">
        <ele>372.24</ele>
        <time>2025-04-30T09:24:11.124Z</time>
      </trkpt>
      <trkpt lat="47.7844" lon="6.4914">
        <ele>372.35</ele>
        <time>2025-04-30T09:24:17.105Z</time>
      </trkpt>
      <trkpt lat="47.78433" lon="6.49141">
        <ele>372.46</ele>
        <time>2025-04-30T09:24:23.087Z</time>
      </trkpt>
      <trkpt lat="47.78427" lon="6.49141">
        <ele>372.57</ele>
        <time>2025-04-30T09:24:29.071Z</time>
      </trkpt>
      <trkpt lat="47.7842" lon="6.49142">
        <ele>372.68</ele>
        <time>2025-04-30T09:24:35.056Z</time>
      </trkpt>
      <trkpt lat="47.78413" lon="6.49143">
        <ele>372.8</ele>
        <time>2025-04-30T09:24:41.043Z</time>
      </trkpt>
      <trkpt lat="47.78407" lon="6.49143">
        <ele>372.92</ele>
        <time>2025-04-30T09:24:47.031Z</time>
      </trkpt>
      <trkpt lat="47.784" lon="6.49143">
        <ele>373.04</ele>
        <time>2025-04-30T09:24:53.020Z</time>
      </trkpt>
      <trkpt lat="47.78394" lon="6.49143">
        <ele>373.16</ele>
        <time>2025-04-30T09:24:59.011Z</time>
      </trkpt>
      <trkpt lat="47.78387" lon="6.49142">
        <ele>373.29</ele>
        <time>2025-04-30T09:25:05.003Z</time>
      </trkpt>
      <trkpt lat="47.78381" lon="6.49142">
        <ele>373.43</ele>
        <time>2025-04-30T09:25:10.997Z</time>
      </trkpt>
      <trkpt lat="47.78376" lon="6.49141">
        <ele>373.57</ele>
        <time>2025-04-30T09:25:16.992Z</time>
      </trkpt>
      <trkpt lat="47.7837" lon="6.4914">
        <ele>373.71</ele>
        <time>2025-04-30T09:25:22.988Z</time>
      </trkpt>
      <trkpt lat="47.78365" lon="6.4914">
        <ele>373.85</ele>
        <time>2025-04-30T09:25:28.985Z</time>
      </trkpt>
      <trkpt lat="47.7836" lon="6.49141">
        <ele>373.98</ele>
        <time>2025-04-30T09:25:34.983Z</time>
      </trkpt>
      <trkpt lat="47.78355" lon="6.49142">
        <ele>374.12</ele>
        <time>2025-04-30T09:25:40.982Z</time>
      </trkpt>
      <trkpt lat="47.78351" lon="6.49143">
        <ele>374.26</ele>
        <time>2025-04-30T09:25:46.982Z</time>
      </trkpt>
      <trkpt lat="47.78347" lon="6.49146">
        <ele>374.4</ele>
        <time>2025-04-30T09:25:52.983Z</time>
      </trkpt>
      <trkpt lat="47.78343" lon="6.4915">
        <ele>374.56</ele>
        <time>2025-04-30T09:25:58.985Z</time>
      </trkpt>
      <trkpt lat="47.78339" lon="6.49155">
        <ele>374.71</ele>
        <time>2025-04-30T09:26:04.988Z</time>
      </trkpt>
      <trkpt lat="47.78336" lon="6.4916">
        <ele>374.86</ele>
        <time>2025-04-30T09:26:10.992Z</time>
      </trkpt>
      <trkpt lat="47.78332" lon="6.49166">
        <ele>375.02</ele>
        <time>2025-04-30T09:26:16.997Z</time>
      </trkpt>
      <trkpt lat="47.78315" lon="6.49192">
        <ele>375.19</ele>
        <time>2025-04-30T09:26:23.008Z</time>
      </trkpt>
      <trkpt lat="47.78298" lon="6.49213">
        <ele>375.39</ele>
        <time>2025-04-30T09:26:29.023Z</time>
      </trkpt>
      <trkpt lat="47.78291" lon="6.49219">
        <ele>375.56</ele>
        <time>2025-04-30T09:26:35.040Z</time>
      </trkpt>
      <trkpt lat="47.78287" lon="6.49222">
        <ele>375.72</ele>
        <time>2025-04-30T09:26:41.058Z</time>
      </trkpt>
      <trkpt lat="47.78284" lon="6.49225">
        <ele>375.85</ele>
        <time>2025-04-30T09:26:47.077Z</time>
      </trkpt>
      <trkpt lat="47.78281" lon="6.49228">
        <ele>375.98</ele>
        <time>2025-04-30T09:26:53.097Z</time>
      </trkpt>
      <trkpt lat="47.78277" lon="6.49231">
        <ele>376.1</ele>
        <time>2025-04-30T09:26:59.118Z</time>
      </trkpt>
      <trkpt lat="47.78273" lon="6.49233">
        <ele>376.22</ele>
        <time>2025-04-30T09:27:05.139Z</time>
      </trkpt>
      <trkpt lat="47.7827" lon="6.49236">
        <ele>376.34</ele>
        <time>2025-04-30T09:27:11.161Z</time>
      </trkpt>
      <trkpt lat="47.78267" lon="6.4924">
        <ele>376.46</ele>
        <time>2025-04-30T09:27:17.184Z</time>
      </trkpt>
      <trkpt lat="47.78263" lon="6.49243">
        <ele>376.57</ele>
        <time>2025-04-30T09:27:23.208Z</time>
      </trkpt>
      <trkpt lat="47.7826" lon="6.49248">
        <ele>376.69</ele>
        <time>2025-04-30T09:27:29.233Z</time>
      </trkpt>
      <trkpt lat="47.78257" lon="6.49252">
        <ele>376.79</ele>
        <time>2025-04-30T09:27:35.259Z</time>
      </trkpt>
      <trkpt lat="47.78256" lon="6.49258">
        <ele>376.89</ele>
        <time>2025-04-30T09:27:41.286Z</time>
      </trkpt>
      <trkpt lat="47.78256" lon="6.49264">
        <ele>376.99</ele>
        <time>2025-04-30T09:27:47.314Z</time>
      </trkpt>
      <trkpt lat="47.78258" lon="6.4927">
        <ele>377.09</ele>
        <time>2025-04-30T09:27:53.343Z</time>
      </trkpt>
      <trkpt lat="47.78261" lon="6.49275">
        <ele>377.18</ele>
        <time>2025-04-30T09:27:59.373Z</time>
      </trkpt>
      <trkpt lat="47.78264" lon="6.49281">
        <ele>377.27</ele>
        <time>2025-04-30T09:28:05.404Z</time>
      </trkpt>
      <trkpt lat="47.78267" lon="6.49286">
        <ele>377.36</ele>
        <time>2025-04-30T09:28:11.436Z</time>
      </trkpt>
      <trkpt lat="47.7827" lon="6.49291">
        <ele>377.45</ele>
        <time>2025-04-30T09:28:17.469Z</time>
      </trkpt>
      <trkpt lat="47.78273" lon="6.49297">
        <ele>377.53</ele>
        <time>2025-04-30T09:28:23.503Z</time>
      </trkpt>
      <trkpt lat="47.78276" lon="6.49303">
        <ele>377.61</ele>
        <time>2025-04-30T09:28:29.538Z</time>
      </trkpt>
      <trkpt lat="47.78279" lon="6.49309">
        <ele>377.68</ele>
        <time>2025-04-30T09:28:35.574Z</time>
      </trkpt>
      <trkpt lat="47.78281" lon="6.49315">
        <ele>377.75</ele>
        <time>2025-04-30T09:28:41.611Z</time>
      </trkpt>
      <trkpt lat="47.78283" lon="6.49322">
        <ele>377.82</ele>
        <time>2025-04-30T09:28:47.649Z</time>
      </trkpt>
      <trkpt lat="47.78286" lon="6.49328">
        <ele>377.88</ele>
        <time>2025-04-30T09:28:53.688Z</time>
      </trkpt>
      <trkpt lat="47.78289" lon="6.49335">
        <ele>377.95</ele>
        <time>2025-04-30T09:28:59.728Z</time>
      </trkpt>
      <trkpt lat="47.78292" lon="6.49342">
        <ele>378.01</ele>
        <time>2025-04-30T09:29:05.769Z</time>
      </trkpt>
      <trkpt lat="47.78295" lon="6.49348">
        <ele>378.07</ele>
        <time>2025-04-30T09:29:11.812Z</time>
      </trkpt>
      <trkpt lat="47.78298" lon="6.49355">
        <ele>378.12</ele>
        <time>2025-04-30T09:29:17.856Z</time>
      </trkpt>
      <trkpt lat="47.78301" lon="6.49362">
        <ele>378.16</ele>
        <time>2025-04-30T09:29:23.901Z</time>
      </trkpt>
      <trkpt lat="47.78303" lon="6.49368">
        <ele>378.21</ele>
        <time>2025-04-30T09:29:29.947Z</time>
      </trkpt>
      <trkpt lat="47.78313" lon="6.49393">
        <ele>378.24</ele>
        <time>2025-04-30T09:29:35.997Z</time>
      </trkpt>
      <trkpt lat="47.78318" lon="6.49405">
        <ele>378.28</ele>
        <time>2025-04-30T09:29:42.049Z</time>
      </trkpt>
      <trkpt lat="47.78321" lon="6.49411">
        <ele>378.3</ele>
        <time>2025-04-30T09:29:48.102Z</time>
      </trkpt>
      <trkpt lat="47.78323" lon="6.49417">
        <ele>378.32</ele>
        <time>2025-04-30T09:29:54.156Z</time>
      </trkpt>
      <trkpt lat="47.78325" lon="6.49423">
        <ele>378.33</ele>
        <time>2025-04-30T09:30:00.211Z</time>
      </trkpt>
      <trkpt lat="47.78327" lon="6.49429">
        <ele>378.32</ele>
        <time>2025-04-30T09:30:06.267Z</time>
      </trkpt>
      <trkpt lat="47.78329" lon="6.49435">
        <ele>378.32</ele>
        <time>2025-04-30T09:30:12.324Z</time>
      </trkpt>
      <trkpt lat="47.78331" lon="6.49442">
        <ele>378.3</ele>
        <time>2025-04-30T09:30:18.382Z</time>
      </trkpt>
      <trkpt lat="47.78339" lon="6.49469">
        <ele>378.29</ele>
        <time>2025-04-30T09:30:24.444Z</time>
      </trkpt>
      <trkpt lat="47.78345" lon="6.49489">
        <ele>378.25</ele>
        <time>2025-04-30T09:30:30.510Z</time>
      </trkpt>
      <trkpt lat="47.78344" lon="6.49502">
        <ele>378.18</ele>
        <time>2025-04-30T09:30:36.578Z</time>
      </trkpt>
      <trkpt lat="47.78341" lon="6.49508">
        <ele>378.11</ele>
        <time>2025-04-30T09:30:42.646Z</time>
      </trkpt>
      <trkpt lat="47.78336" lon="6.49517">
        <ele>378.03</ele>
        <time>2025-04-30T09:30:48.716Z</time>
      </trkpt>
      <trkpt lat="47.78333" lon="6.49522">
        <ele>377.92</ele>
        <time>2025-04-30T09:30:54.787Z</time>
      </trkpt>
      <trkpt lat="47.7833" lon="6.49526">
        <ele>377.8</ele>
        <time>2025-04-30T09:31:00.859Z</time>
      </trkpt>
      <trkpt lat="47.78327" lon="6.4953">
        <ele>377.65</ele>
        <time>2025-04-30T09:31:06.932Z</time>
      </trkpt>
      <trkpt lat="47.78322" lon="6.49531">
        <ele>377.49</ele>
        <time>2025-04-30T09:31:13.006Z</time>
      </trkpt>
      <trkpt lat="47.78313" lon="6.49527">
        <ele>377.3</ele>
        <time>2025-04-30T09:31:19.082Z</time>
      </trkpt>
      <trkpt lat="47.78305" lon="6.49522">
        <ele>377.09</ele>
        <time>2025-04-30T09:31:25.160Z</time>
      </trkpt>
      <trkpt lat="47.783" lon="6.4952">
        <ele>376.87</ele>
        <time>2025-04-30T09:31:31.239Z</time>
      </trkpt>
      <trkpt lat="47.78287" lon="6.49516">
        <ele>376.62</ele>
        <time>2025-04-30T09:31:37.321Z</time>
      </trkpt>
      <trkpt lat="47.78272" lon="6.49512">
        <ele>376.36</ele>
        <time>2025-04-30T09:31:43.406Z</time>
      </trkpt>
      <trkpt lat="47.78262" lon="6.49506">
        <ele>376.07</ele>
        <time>2025-04-30T09:31:49.493Z</time>
      </trkpt>
      <trkpt lat="47.78253" lon="6.49497">
        <ele>375.76</ele>
        <time>2025-04-30T09:31:55.583Z</time>
      </trkpt>
      <trkpt lat="47.78243" lon="6.49488">
        <ele>375.44</ele>
        <time>2025-04-30T09:32:01.675Z</time>
      </trkpt>
      <trkpt lat="47.78229" lon="6.49469">
        <ele>375.08</ele>
        <time>2025-04-30T09:32:07.771Z</time>
      </trkpt>
      <trkpt lat="47.78214" lon="6.4945">
        <ele>374.69</ele>
        <time>2025-04-30T09:32:13.871Z</time>
      </trkpt>
      <trkpt lat="47.78209" lon="6.49443">
        <ele>374.31</ele>
        <time>2025-04-30T09:32:19.973Z</time>
      </trkpt>
      <trkpt lat="47.78197" lon="6.4943">
        <ele>373.9</ele>
        <time>2025-04-30T09:32:26.078Z</time>
      </trkpt>
      <trkpt lat="47.7819" lon="6.49423">
        <ele>373.5</ele>
        <time>2025-04-30T09:32:32.185Z</time>
      </trkpt>
      <trkpt lat="47.78183" lon="6.49418">
        <ele>373.08</ele>
        <time>2025-04-30T09:32:38.294Z</time>
      </trkpt>
      <trkpt lat="47.78166" lon="6.49409">
        <ele>372.65</ele>
        <time>2025-04-30T09:32:44.406Z</time>
      </trkpt>
      <trkpt lat="47.78158" lon="6.49405">
        <ele>372.2</ele>
        <time>2025-04-30T09:32:50.520Z</time>
      </trkpt>
      <trkpt lat="47.78149" lon="6.49399">
        <ele>371.75</ele>
        <time>2025-04-30T09:32:56.636Z</time>
      </trkpt>
      <trkpt lat="47.78141" lon="6.49393">
        <ele>371.28</ele>
        <time>2025-04-30T09:33:02.754Z</time>
      </trkpt>
      <trkpt lat="47.78133" lon="6.49385">
        <ele>370.81</ele>
        <time>2025-04-30T09:33:08.874Z</time>
      </trkpt>
      <trkpt lat="47.78126" lon="6.49378">
        <ele>370.32</ele>
        <time>2025-04-30T09:33:14.996Z</time>
      </trkpt>
      <trkpt lat="47.78118" lon="6.4937">
        <ele>369.83</ele>
        <time>2025-04-30T09:33:21.120Z</time>
      </trkpt>
      <trkpt lat="47.78103" lon="6.49356">
        <ele>369.32</ele>
        <time>2025-04-30T09:33:27.248Z</time>
      </trkpt>
      <trkpt lat="47.78083" lon="6.49337">
        <ele>368.8</ele>
        <time>2025-04-30T09:33:33.381Z</time>
      </trkpt>
      <trkpt lat="47.78077" lon="6.49331">
        <ele>368.3</ele>
        <time>2025-04-30T09:33:39.516Z</time>
      </trkpt>
      <trkpt lat="47.78073" lon="6.49325">
        <ele>367.8</ele>
        <time>2025-04-30T09:33:45.652Z</time>
      </trkpt>
      <trkpt lat="47.7807" lon="6.49319">
        <ele>367.3</ele>
        <time>2025-04-30T09:33:51.789Z</time>
      </trkpt>
      <trkpt lat="47.78066" lon="6.49311">
        <ele>366.8</ele>
        <time>2025-04-30T09:33:57.927Z</time>
      </trkpt>
      <trkpt lat="47.78064" lon="6.49303">
        <ele>366.31</ele>
        <time>2025-04-30T09:34:04.067Z</time>
      </trkpt>
      <trkpt lat="47.78061" lon="6.49295">
        <ele>365.83</ele>
        <time>2025-04-30T09:34:10.208Z</time>
      </trkpt>
      <trkpt lat="47.78058" lon="6.49287">
        <ele>365.36</ele>
        <time>2025-04-30T09:34:16.350Z</time>
      </trkpt>
      <trkpt lat="47.78052" lon="6.49263">
        <ele>364.88</ele>
        <time>2025-04-30T09:34:22.496Z</time>
      </trkpt>
      <trkpt lat="47.7805" lon="6.49256">
        <ele>364.42</ele>
        <time>2025-04-30T09:34:28.643Z</time>
      </trkpt>
      <trkpt lat="47.78047" lon="6.49247">
        <ele>363.97</ele>
        <time>2025-04-30T09:34:34.792Z</time>
      </trkpt>
      <trkpt lat="47.78045" lon="6.49239">
        <ele>363.54</ele>
        <time>2025-04-30T09:34:40.942Z</time>
      </trkpt>
      <trkpt lat="47.78036" lon="6.49211">
        <ele>363.08</ele>
        <time>2025-04-30T09:34:47.096Z</time>
      </trkpt>
      <trkpt lat="47.7803" lon="6.49192">
        <ele>362.65</ele>
        <time>2025-04-30T09:34:53.253Z</time>
      </trkpt>
      <trkpt lat="47.78017" lon="6.49181">
        <ele>362.25</ele>
        <time>2025-04-30T09:34:59.414Z</time>
      </trkpt>
      <trkpt lat="47.7801" lon="6.4918">
        <ele>361.87</ele>
        <time>2025-04-30T09:35:05.576Z</time>
      </trkpt>
      <trkpt lat="47.77995" lon="6.4918">
        <ele>361.49</ele>
        <time>2025-04-30T09:35:11.741Z</time>
      </trkpt>
      <trkpt lat="47.77988" lon="6.49181">
        <ele>361.15</ele>
        <time>2025-04-30T09:35:17.908Z</time>
      </trkpt>
      <trkpt lat="47.77981" lon="6.49181">
        <ele>360.82</ele>
        <time>2025-04-30T09:35:24.076Z</time>
      </trkpt>
      <trkpt lat="47.77974" lon="6.49181">
        <ele>360.52</ele>
        <time>2025-04-30T09:35:30.246Z</time>
      </trkpt>
      <trkpt lat="47.77968" lon="6.49181">
        <ele>360.24</ele>
        <time>2025-04-30T09:35:36.417Z</time>
      </trkpt>
      <trkpt lat="47.77961" lon="6.49182">
        <ele>359.99</ele>
        <time>2025-04-30T09:35:42.590Z</time>
      </trkpt>
      <trkpt lat="47.77955" lon="6.49182">
        <ele>359.75</ele>
        <time>2025-04-30T09:35:48.764Z</time>
      </trkpt>
      <trkpt lat="47.77949" lon="6.49181">
        <ele>359.52</ele>
        <time>2025-04-30T09:35:54.939Z</time>
      </trkpt>
      <trkpt lat="47.77942" lon="6.49181">
        <ele>359.31</ele>
        <time>2025-04-30T09:36:01.116Z</time>
      </trkpt>
      <trkpt lat="47.77924" lon="6.49179">
        <ele>359.12</ele>
        <time>2025-04-30T09:36:07.297Z</time>
      </trkpt>
      <trkpt lat="47.77918" lon="6.49179">
        <ele>358.94</ele>
        <time>2025-04-30T09:36:13.479Z</time>
      </trkpt>
      <trkpt lat="47.77912" lon="6.49178">
        <ele>358.79</ele>
        <time>2025-04-30T09:36:19.662Z</time>
      </trkpt>
      <trkpt lat="47.77906" lon="6.49177">
        <ele>358.65</ele>
        <time>2025-04-30T09:36:25.846Z</time>
      </trkpt>
      <trkpt lat="47.77872" lon="6.49173">
        <ele>358.47</ele>
        <time>2025-04-30T09:36:32.038Z</time>
      </trkpt>
      <trkpt lat="47.77857" lon="6.49172">
        <ele>358.34</ele>
        <time>2025-04-30T09:36:38.233Z</time>
      </trkpt>
      <trkpt lat="47.7785" lon="6.49171">
        <ele>358.23</ele>
        <time>2025-04-30T09:36:44.429Z</time>
      </trkpt>
      <trkpt lat="47.77829" lon="6.4917">
        <ele>358.14</ele>
        <time>2025-04-30T09:36:50.630Z</time>
      </trkpt>
      <trkpt lat="47.77803" lon="6.49173">
        <ele>358.1</ele>
        <time>2025-04-30T09:36:56.837Z</time>
      </trkpt>
      <trkpt lat="47.77796" lon="6.49174">
        <ele>358.09</ele>
        <time>2025-04-30T09:37:03.045Z</time>
      </trkpt>
      <trkpt lat="47.7779" lon="6.49174">
        <ele>358.09</ele>
        <time>2025-04-30T09:37:09.254Z</time>
      </trkpt>
      <trkpt lat="47.77784" lon="6.49174">
        <ele>358.11</ele>
        <time>2025-04-30T09:37:15.465Z</time>
      </trkpt>
      <trkpt lat="47.77779" lon="6.49173">
        <ele>358.14</ele>
        <time>2025-04-30T09:37:21.677Z</time>
      </trkpt>
      <trkpt lat="47.77773" lon="6.49171">
        <ele>358.19</ele>
        <time>2025-04-30T09:37:27.890Z</time>
      </trkpt>
      <trkpt lat="47.77769" lon="6.49168">
        <ele>358.24</ele>
        <time>2025-04-30T09:37:34.104Z</time>
      </trkpt>
      <trkpt lat="47.77763" lon="6.49165">
        <ele>358.31</ele>
        <time>2025-04-30T09:37:40.319Z</time>
      </trkpt>
      <trkpt lat="47.77758" lon="6.49162">
        <ele>358.39</ele>
        <time>2025-04-30T09:37:46.535Z</time>
      </trkpt>
      <trkpt lat="47.77753" lon="6.49161">
        <ele>358.46</ele>
        <time>2025-04-30T09:37:52.753Z</time>
      </trkpt>
      <trkpt lat="47.77748" lon="6.4916">
        <ele>358.54</ele>
        <time>2025-04-30T09:37:58.972Z</time>
      </trkpt>
      <trkpt lat="47.77707" lon="6.4916">
        <ele>358.55</ele>
        <time>2025-04-30T09:38:05.199Z</time>
      </trkpt>
      <trkpt lat="47.77701" lon="6.4916">
        <ele>358.65</ele>
        <time>2025-04-30T09:38:11.428Z</time>
      </trkpt>
      <trkpt lat="47.77695" lon="6.4916">
        <ele>358.77</ele>
        <time>2025-04-30T09:38:17.658Z</time>
      </trkpt>
      <trkpt lat="47.77684" lon="6.4916">
        <ele>358.93</ele>
        <time>2025-04-30T09:38:23.890Z</time>
      </trkpt>
      <trkpt lat="47.77679" lon="6.49162">
        <ele>359.06</ele>
        <time>2025-04-30T09:38:30.124Z</time>
      </trkpt>
      <trkpt lat="47.77675" lon="6.49165">
        <ele>359.2</ele>
        <time>2025-04-30T09:38:36.359Z</time>
      </trkpt>
      <trkpt lat="47.77671" lon="6.49168">
        <ele>359.34</ele>
        <time>2025-04-30T09:38:42.594Z</time>
      </trkpt>
      <trkpt lat="47.77669" lon="6.49172">
        <ele>359.48</ele>
        <time>2025-04-30T09:38:48.830Z</time>
      </trkpt>
      <trkpt lat="47.77666" lon="6.49176">
        <ele>359.61</ele>
        <time>2025-04-30T09:38:55.067Z</time>
      </trkpt>
      <trkpt lat="47.77663" lon="6.49181">
        <ele>359.75</ele>
        <time>2025-04-30T09:39:01.305Z</time>
      </trkpt>
      <trkpt lat="47.77655" lon="6.49193">
        <ele>359.87</ele>
        <time>2025-04-30T09:39:07.546Z</time>
      </trkpt>
      <trkpt lat="47.77653" lon="6.49196">
        <ele>359.99</ele>
        <time>2025-04-30T09:39:13.787Z</time>
      </trkpt>
      <trkpt lat="47.77651" lon="6.49198">
        <ele>360.1</ele>
        <time>2025-04-30T09:39:20.029Z</time>
      </trkpt>
      <trkpt lat="47.77649" lon="6.49201">
        <ele>360.21</ele>
        <time>2025-04-30T09:39:26.271Z</time>
      </trkpt>
      <trkpt lat="47.77646" lon="6.49204">
        <ele>360.32</ele>
        <time>2025-04-30T09:39:32.514Z</time>
      </trkpt>
      <trkpt lat="47.77644" lon="6.49206">
        <ele>360.42</ele>
        <time>2025-04-30T09:39:38.758Z</time>
      </trkpt>
      <trkpt lat="47.7764" lon="6.49208">
        <ele>360.51</ele>
        <time>2025-04-30T09:39:45.002Z</time>
      </trkpt>
      <trkpt lat="47.7763" lon="6.49217">
        <ele>360.59</ele>
        <time>2025-04-30T09:39:51.249Z</time>
      </trkpt>
      <trkpt lat="47.77627" lon="6.49219">
        <ele>360.67</ele>
        <time>2025-04-30T09:39:57.497Z</time>
      </trkpt>
      <trkpt lat="47.77621" lon="6.49223">
        <ele>360.75</ele>
        <time>2025-04-30T09:40:03.746Z</time>
      </trkpt>
      <trkpt lat="47.77614" lon="6.49227">
        <ele>360.82</ele>
        <time>2025-04-30T09:40:09.997Z</time>
      </trkpt>
      <trkpt lat="47.77611" lon="6.4923">
        <ele>360.89</ele>
        <time>2025-04-30T09:40:16.248Z</time>
      </trkpt>
      <trkpt lat="47.776" lon="6.49246">
        <ele>360.94</ele>
        <time>2025-04-30T09:40:22.503Z</time>
      </trkpt>
      <trkpt lat="47.77597" lon="6.4925">
        <ele>361</ele>
        <time>2025-04-30T09:40:28.759Z</time>
      </trkpt>
      <trkpt lat="47.77593" lon="6.49254">
        <ele>361.06</ele>
        <time>2025-04-30T09:40:35.016Z</time>
      </trkpt>
      <trkpt lat="47.77585" lon="6.49268">
        <ele>361.13</ele>
        <time>2025-04-30T09:40:41.275Z</time>
      </trkpt>
      <trkpt lat="47.77582" lon="6.49272">
        <ele>361.18</ele>
        <time>2025-04-30T09:40:47.535Z</time>
      </trkpt>
      <trkpt lat="47.77578" lon="6.49277">
        <ele>361.22</ele>
        <time>2025-04-30T09:40:53.796Z</time>
      </trkpt>
      <trkpt lat="47.77575" lon="6.49281">
        <ele>361.27</ele>
        <time>2025-04-30T09:41:00.058Z</time>
      </trkpt>
      <trkpt lat="47.77572" lon="6.49287">
        <ele>361.31</ele>
        <time>2025-04-30T09:41:06.321Z</time>
      </trkpt>
      <trkpt lat="47.77565" lon="6.49298">
        <ele>361.35</ele>
        <time>2025-04-30T09:41:12.586Z</time>
      </trkpt>
      <trkpt lat="47.77562" lon="6.49303">
        <ele>361.39</ele>
        <time>2025-04-30T09:41:18.852Z</time>
      </trkpt>
      <trkpt lat="47.7756" lon="6.49306">
        <ele>361.43</ele>
        <time>2025-04-30T09:41:25.119Z</time>
      </trkpt>
      <trkpt lat="47.77557" lon="6.49311">
        <ele>361.47</ele>
        <time>2025-04-30T09:41:31.387Z</time>
      </trkpt>
      <trkpt lat="47.77546" lon="6.49328">
        <ele>361.52</ele>
        <time>2025-04-30T09:41:37.658Z</time>
      </trkpt>
      <trkpt lat="47.77543" lon="6.49332">
        <ele>361.54</ele>
        <time>2025-04-30T09:41:43.930Z</time>
      </trkpt>
      <trkpt lat="47.7754" lon="6.49337">
        <ele>361.57</ele>
        <time>2025-04-30T09:41:50.203Z</time>
      </trkpt>
      <trkpt lat="47.77538" lon="6.49342">
        <ele>361.6</ele>
        <time>2025-04-30T09:41:56.477Z</time>
      </trkpt>
      <trkpt lat="47.77537" lon="6.49347">
        <ele>361.63</ele>
        <time>2025-04-30T09:42:02.752Z</time>
      </trkpt>
      <trkpt lat="47.77536" lon="6.49352">
        <ele>361.66</ele>
        <time>2025-04-30T09:42:09.028Z</time>
      </trkpt>
      <trkpt lat="47.77533" lon="6.49359">
        <ele>361.69</ele>
        <time>2025-04-30T09:42:15.305Z</time>
      </trkpt>
      <trkpt lat="47.77533" lon="6.49366">
        <ele>361.72</ele>
        <time>2025-04-30T09:42:21.583Z</time>
      </trkpt>
      <trkpt lat="47.77531" lon="6.49373">
        <ele>361.76</ele>
        <time>2025-04-30T09:42:27.862Z</time>
      </trkpt>
      <trkpt lat="47.7753" lon="6.4938">
        <ele>361.8</ele>
        <time>2025-04-30T09:42:34.142Z</time>
      </trkpt>
      <trkpt lat="47.77527" lon="6.49388">
        <ele>361.85</ele>
        <time>2025-04-30T09:42:40.423Z</time>
      </trkpt>
      <trkpt lat="47.77525" lon="6.49396">
        <ele>361.9</ele>
        <time>2025-04-30T09:42:46.705Z</time>
      </trkpt>
      <trkpt lat="47.77522" lon="6.49406">
        <ele>361.95</ele>
        <time>2025-04-30T09:42:52.989Z</time>
      </trkpt>
      <trkpt lat="47.77521" lon="6.49418">
        <ele>362.01</ele>
        <time>2025-04-30T09:42:59.275Z</time>
      </trkpt>
      <trkpt lat="47.77519" lon="6.4943">
        <ele>362.06</ele>
        <time>2025-04-30T09:43:05.562Z</time>
      </trkpt>
      <trkpt lat="47.77517" lon="6.49449">
        <ele>362.13</ele>
        <time>2025-04-30T09:43:11.852Z</time>
      </trkpt>
      <trkpt lat="47.77516" lon="6.49467">
        <ele>362.23</ele>
        <time>2025-04-30T09:43:18.145Z</time>
      </trkpt>
      <trkpt lat="47.77514" lon="6.49482">
        <ele>362.32</ele>
        <time>2025-04-30T09:43:24.440Z</time>
      </trkpt>
      <trkpt lat="47.77512" lon="6.49491">
        <ele>362.42</ele>
        <time>2025-04-30T09:43:30.736Z</time>
      </trkpt>
      <trkpt lat="47.7751" lon="6.49499">
        <ele>362.53</ele>
        <time>2025-04-30T09:43:37.034Z</time>
      </trkpt>
      <trkpt lat="47.77506" lon="6.49515">
        <ele>362.65</ele>
        <time>2025-04-30T09:43:43.334Z</time>
      </trkpt>
      <trkpt lat="47.77502" lon="6.49537">
        <ele>362.8</ele>
        <time>2025-04-30T09:43:49.637Z</time>
      </trkpt>
      <trkpt lat="47.77501" lon="6.49544">
        <ele>362.94</ele>
        <time>2025-04-30T09:43:55.941Z</time>
      </trkpt>
      <trkpt lat="47.775" lon="6.49551">
        <ele>363.09</ele>
        <time>2025-04-30T09:44:02.246Z</time>
      </trkpt>
      <trkpt lat="47.775" lon="6.49558">
        <ele>363.23</ele>
        <time>2025-04-30T09:44:08.552Z</time>
      </trkpt>
      <trkpt lat="47.77499" lon="6.49563">
        <ele>363.38</ele>
        <time>2025-04-30T09:44:14.859Z</time>
      </trkpt>
      <trkpt lat="47.77497" lon="6.49569">
        <ele>363.53</ele>
        <time>2025-04-30T09:44:21.167Z</time>
      </trkpt>
      <trkpt lat="47.77496" lon="6.49576">
        <ele>363.69</ele>
        <time>2025-04-30T09:44:27.476Z</time>
      </trkpt>
      <trkpt lat="47.77494" lon="6.49582">
        <ele>363.84</ele>
        <time>2025-04-30T09:44:33.786Z</time>
      </trkpt>
      <trkpt lat="47.77487" lon="6.496">
        <ele>364.02</ele>
        <time>2025-04-30T09:44:40.099Z</time>
      </trkpt>
      <trkpt lat="47.77483" lon="6.49607">
        <ele>364.18</ele>
        <time>2025-04-30T09:44:46.413Z</time>
      </trkpt>
      <trkpt lat="47.77479" lon="6.49615">
        <ele>364.36</ele>
        <time>2025-04-30T09:44:52.729Z</time>
      </trkpt>
      <trkpt lat="47.77478" lon="6.4962">
        <ele>364.53</ele>
        <time>2025-04-30T09:44:59.046Z</time>
      </trkpt>
      <trkpt lat="47.77476" lon="6.49626">
        <ele>364.71</ele>
        <time>2025-04-30T09:45:05.364Z</time>
      </trkpt>
      <trkpt lat="47.77475" lon="6.4963">
        <ele>364.89</ele>
        <time>2025-04-30T09:45:11.682Z</time>
      </trkpt>
      <trkpt lat="47.77474" lon="6.49634">
        <ele>365.06</ele>
        <time>2025-04-30T09:45:18.001Z</time>
      </trkpt>
      <trkpt lat="47.77473" lon="6.49639">
        <ele>365.24</ele>
        <time>2025-04-30T09:45:24.321Z</time>
      </trkpt>
      <trkpt lat="47.77472" lon="6.49645">
        <ele>365.42</ele>
        <time>2025-04-30T09:45:30.642Z</time>
      </trkpt>
      <trkpt lat="47.77472" lon="6.4965">
        <ele>365.59</ele>
        <time>2025-04-30T09:45:36.963Z</time>
      </trkpt>
      <trkpt lat="47.77472" lon="6.49655">
        <ele>365.77</ele>
        <time>2025-04-30T09:45:43.285Z</time>
      </trkpt>
      <trkpt lat="47.77472" lon="6.49659">
        <ele>365.94</ele>
        <time>2025-04-30T09:45:49.608Z</time>
      </trkpt>
      <trkpt lat="47.77472" lon="6.49664">
        <ele>366.11</ele>
        <time>2025-04-30T09:45:55.931Z</time>
      </trkpt>
      <trkpt lat="47.77472" lon="6.49669">
        <ele>366.28</ele>
        <time>2025-04-30T09:46:02.255Z</time>
      </trkpt>
      <trkpt lat="47.77472" lon="6.49674">
        <ele>366.44</ele>
        <time>2025-04-30T09:46:08.580Z</time>
      </trkpt>
      <trkpt lat="47.77472" lon="6.49678">
        <ele>366.61</ele>
        <time>2025-04-30T09:46:14.905Z</time>
      </trkpt>
      <trkpt lat="47.77471" lon="6.49682">
        <ele>366.78</ele>
        <time>2025-04-30T09:46:21.231Z</time>
      </trkpt>
      <trkpt lat="47.77469" lon="6.49686">
        <ele>366.95</ele>
        <time>2025-04-30T09:46:27.558Z</time>
      </trkpt>
      <trkpt lat="47.77466" lon="6.49692">
        <ele>367.12</ele>
        <time>2025-04-30T09:46:33.886Z</time>
      </trkpt>
      <trkpt lat="47.77464" lon="6.49698">
        <ele>367.29</ele>
        <time>2025-04-30T09:46:40.215Z</time>
      </trkpt>
      <trkpt lat="47.77462" lon="6.49703">
        <ele>367.45</ele>
        <time>2025-04-30T09:46:46.545Z</time>
      </trkpt>
      <trkpt lat="47.77458" lon="6.49713">
        <ele>367.64</ele>
        <time>2025-04-30T09:46:52.876Z</time>
      </trkpt>
      <trkpt lat="47.77457" lon="6.49718">
        <ele>367.81</ele>
        <time>2025-04-30T09:46:59.208Z</time>
      </trkpt>
      <trkpt lat="47.77457" lon="6.49723">
        <ele>367.97</ele>
        <time>2025-04-30T09:47:05.541Z</time>
      </trkpt>
      <trkpt lat="47.77456" lon="6.49729">
        <ele>368.14</ele>
        <time>2025-04-30T09:47:11.875Z</time>
      </trkpt>
      <trkpt lat="47.77455" lon="6.49734">
        <ele>368.3</ele>
        <time>2025-04-30T09:47:18.209Z</time>
      </trkpt>
      <trkpt lat="47.77457" lon="6.4974">
        <ele>368.45</ele>
        <time>2025-04-30T09:47:24.544Z</time>
      </trkpt>
      <trkpt lat="47.77458" lon="6.49748">
        <ele>368.6</ele>
        <time>2025-04-30T09:47:30.881Z</time>
      </trkpt>
      <trkpt lat="47.77457" lon="6.49753">
        <ele>368.76</ele>
        <time>2025-04-30T09:47:37.218Z</time>
      </trkpt>
      <trkpt lat="47.77456" lon="6.49758">
        <ele>368.92</ele>
        <time>2025-04-30T09:47:43.556Z</time>
      </trkpt>
      <trkpt lat="47.77455" lon="6.49763">
        <ele>369.08</ele>
        <time>2025-04-30T09:47:49.895Z</time>
      </trkpt>
      <trkpt lat="47.77454" lon="6.49768">
        <ele>369.24</ele>
        <time>2025-04-30T09:47:56.235Z</time>
      </trkpt>
      <trkpt lat="47.77452" lon="6.49772">
        <ele>369.41</ele>
        <time>2025-04-30T09:48:02.575Z</time>
      </trkpt>
      <trkpt lat="47.7745" lon="6.49777">
        <ele>369.58</ele>
        <time>2025-04-30T09:48:08.916Z</time>
      </trkpt>
      <trkpt lat="47.77447" lon="6.49782">
        <ele>369.75</ele>
        <time>2025-04-30T09:48:15.258Z</time>
      </trkpt>
      <trkpt lat="47.77446" lon="6.49787">
        <ele>369.92</ele>
        <time>2025-04-30T09:48:21.601Z</time>
      </trkpt>
      <trkpt lat="47.77444" lon="6.49793">
        <ele>370.09</ele>
        <time>2025-04-30T09:48:27.945Z</time>
      </trkpt>
      <trkpt lat="47.77443" lon="6.49802">
        <ele>370.26</ele>
        <time>2025-04-30T09:48:34.290Z</time>
      </trkpt>
      <trkpt lat="47.77441" lon="6.49808">
        <ele>370.44</ele>
        <time>2025-04-30T09:48:40.636Z</time>
      </trkpt>
      <trkpt lat="47.7744" lon="6.49814">
        <ele>370.6</ele>
        <time>2025-04-30T09:48:46.983Z</time>
      </trkpt>
      <trkpt lat="47.77438" lon="6.4982">
        <ele>370.78</ele>
        <time>2025-04-30T09:48:53.331Z</time>
      </trkpt>
      <trkpt lat="47.77438" lon="6.49824">
        <ele>370.96</ele>
        <time>2025-04-30T09:48:59.679Z</time>
      </trkpt>
      <trkpt lat="47.77438" lon="6.49827">
        <ele>371.15</ele>
        <time>2025-04-30T09:49:06.028Z</time>
      </trkpt>
      <trkpt lat="47.77436" lon="6.49829">
        <ele>371.35</ele>
        <time>2025-04-30T09:49:12.377Z</time>
      </trkpt>
      <trkpt lat="47.77434" lon="6.4983">
        <ele>371.56</ele>
        <time>2025-04-30T09:49:18.727Z</time>
      </trkpt>
      <trkpt lat="47.77431" lon="6.49829">
        <ele>371.78</ele>
        <time>2025-04-30T09:49:25.077Z</time>
      </trkpt>
      <trkpt lat="47.77429" lon="6.49827">
        <ele>371.99</ele>
        <time>2025-04-30T09:49:31.428Z</time>
      </trkpt>
      <trkpt lat="47.77427" lon="6.49826">
        <ele>372.21</ele>
        <time>2025-04-30T09:49:37.779Z</time>
      </trkpt>
      <trkpt lat="47.77426" lon="6.49824">
        <ele>372.43</ele>
        <time>2025-04-30T09:49:44.131Z</time>
      </trkpt>
      <trkpt lat="47.77424" lon="6.49822">
        <ele>372.65</ele>
        <time>2025-04-30T09:49:50.483Z</time>
      </trkpt>
      <trkpt lat="47.77422" lon="6.4982">
        <ele>372.87</ele>
        <time>2025-04-30T09:49:56.836Z</time>
      </trkpt>
      <trkpt lat="47.7742" lon="6.49818">
        <ele>373.08</ele>
        <time>2025-04-30T09:50:03.189Z</time>
      </trkpt>
      <trkpt lat="47.77418" lon="6.49815">
        <ele>373.29</ele>
        <time>2025-04-30T09:50:09.543Z</time>
      </trkpt>
      <trkpt lat="47.77416" lon="6.49812">
        <ele>373.5</ele>
        <time>2025-04-30T09:50:15.898Z</time>
      </trkpt>
      <trkpt lat="47.77414" lon="6.4981">
        <ele>373.7</ele>
        <time>2025-04-30T09:50:22.253Z</time>
      </trkpt>
      <trkpt lat="47.77412" lon="6.49808">
        <ele>373.9</ele>
        <time>2025-04-30T09:50:28.609Z</time>
      </trkpt>
      <trkpt lat="47.77408" lon="6.49806">
        <ele>374.09</ele>
        <time>2025-04-30T09:50:34.965Z</time>
      </trkpt>
      <trkpt lat="47.77406" lon="6.49803">
        <ele>374.27</ele>
        <time>2025-04-30T09:50:41.322Z</time>
      </trkpt>
      <trkpt lat="47.77403" lon="6.49799">
        <ele>374.44</ele>
        <time>2025-04-30T09:50:47.680Z</time>
      </trkpt>
      <trkpt lat="47.77399" lon="6.49795">
        <ele>374.61</ele>
        <time>2025-04-30T09:50:54.039Z</time>
      </trkpt>
      <trkpt lat="47.77396" lon="6.49792">
        <ele>374.75</ele>
        <time>2025-04-30T09:51:00.399Z</time>
      </trkpt>
      <trkpt lat="47.77392" lon="6.49789">
        <ele>374.89</ele>
        <time>2025-04-30T09:51:06.760Z</time>
      </trkpt>
      <trkpt lat="47.77389" lon="6.49786">
        <ele>375.02</ele>
        <time>2025-04-30T09:51:13.122Z</time>
      </trkpt>
      <trkpt lat="47.77386" lon="6.49783">
        <ele>375.12</ele>
        <time>2025-04-30T09:51:19.484Z</time>
      </trkpt>
      <trkpt lat="47.77382" lon="6.4978">
        <ele>375.22</ele>
        <time>2025-04-30T09:51:25.847Z</time>
      </trkpt>
      <trkpt lat="47.77377" lon="6.49777">
        <ele>375.29</ele>
        <time>2025-04-30T09:51:32.211Z</time>
      </trkpt>
      <trkpt lat="47.77373" lon="6.49773">
        <ele>375.35</ele>
        <time>2025-04-30T09:51:38.577Z</time>
      </trkpt>
      <trkpt lat="47.77368" lon="6.49767">
        <ele>375.39</ele>
        <time>2025-04-30T09:51:44.944Z</time>
      </trkpt>
      <trkpt lat="47.77364" lon="6.4976">
        <ele>375.42</ele>
        <time>2025-04-30T09:51:51.312Z</time>
      </trkpt>
      <trkpt lat="47.77359" lon="6.49753">
        <ele>375.42</ele>
        <time>2025-04-30T09:51:57.682Z</time>
      </trkpt>
      <trkpt lat="47.77355" lon="6.49749">
        <ele>375.4</ele>
        <time>2025-04-30T09:52:04.053Z</time>
      </trkpt>
      <trkpt lat="47.77333" lon="6.49718">
        <ele>375.4</ele>
        <time>2025-04-30T09:52:10.430Z</time>
      </trkpt>
      <trkpt lat="47.77326" lon="6.49712">
        <ele>375.3</ele>
        <time>2025-04-30T09:52:16.809Z</time>
      </trkpt>
      <trkpt lat="47.77308" lon="6.49696">
        <ele>375.16</ele>
        <time>2025-04-30T09:52:23.192Z</time>
      </trkpt>
      <trkpt lat="47.77295" lon="6.49681">
        <ele>374.98</ele>
        <time>2025-04-30T09:52:29.579Z</time>
      </trkpt>
      <trkpt lat="47.77283" lon="6.49667">
        <ele>374.79</ele>
        <time>2025-04-30T09:52:35.969Z</time>
      </trkpt>
      <trkpt lat="47.77266" lon="6.49646">
        <ele>374.53</ele>
        <time>2025-04-30T09:52:42.364Z</time>
      </trkpt>
      <trkpt lat="47.77248" lon="6.49626">
        <ele>374.27</ele>
        <time>2025-04-30T09:52:48.764Z</time>
      </trkpt>
      <trkpt lat="47.7723" lon="6.49609">
        <ele>374.02</ele>
        <time>2025-04-30T09:52:55.168Z</time>
      </trkpt>
      <trkpt lat="47.77225" lon="6.49604">
        <ele>373.8</ele>
        <time>2025-04-30T09:53:01.574Z</time>
      </trkpt>
      <trkpt lat="47.7722" lon="6.49598">
        <ele>373.58</ele>
        <time>2025-04-30T09:53:07.981Z</time>
      </trkpt>
      <trkpt lat="47.77215" lon="6.49593">
        <ele>373.35</ele>
        <time>2025-04-30T09:53:14.389Z</time>
      </trkpt>
      <trkpt lat="47.7721" lon="6.49588">
        <ele>373.11</ele>
        <time>2025-04-30T09:53:20.799Z</time>
      </trkpt>
      <trkpt lat="47.77205" lon="6.49582">
        <ele>372.88</ele>
        <time>2025-04-30T09:53:27.210Z</time>
      </trkpt>
      <trkpt lat="47.77182" lon="6.49557">
        <ele>372.58</ele>
        <time>2025-04-30T09:53:33.627Z</time>
      </trkpt>
      <trkpt lat="47.77176" lon="6.49551">
        <ele>372.35</ele>
        <time>2025-04-30T09:53:40.046Z</time>
      </trkpt>
      <trkpt lat="47.77152" lon="6.49527">
        <ele>372.11</ele>
        <time>2025-04-30T09:53:46.471Z</time>
      </trkpt>
      <trkpt lat="47.77145" lon="6.49524">
        <ele>371.9</ele>
        <time>2025-04-30T09:53:52.897Z</time>
      </trkpt>
      <trkpt lat="47.77137" lon="6.49524">
        <ele>371.72</ele>
        <time>2025-04-30T09:53:59.325Z</time>
      </trkpt>
      <trkpt lat="47.7713" lon="6.49526">
        <ele>371.54</ele>
        <time>2025-04-30T09:54:05.755Z</time>
      </trkpt>
      <trkpt lat="47.77124" lon="6.49531">
        <ele>371.38</ele>
        <time>2025-04-30T09:54:12.186Z</time>
      </trkpt>
      <trkpt lat="47.77119" lon="6.49538">
        <ele>371.23</ele>
        <time>2025-04-30T09:54:18.619Z</time>
      </trkpt>
      <trkpt lat="47.77113" lon="6.49543">
        <ele>371.08</ele>
        <time>2025-04-30T09:54:25.053Z</time>
      </trkpt>
      <trkpt lat="47.77107" lon="6.4955">
        <ele>370.93</ele>
        <time>2025-04-30T09:54:31.489Z</time>
      </trkpt>
      <trkpt lat="47.77102" lon="6.49556">
        <ele>370.79</ele>
        <time>2025-04-30T09:54:37.926Z</time>
      </trkpt>
      <trkpt lat="47.77096" lon="6.49563">
        <ele>370.67</ele>
        <time>2025-04-30T09:54:44.365Z</time>
      </trkpt>
      <trkpt lat="47.77083" lon="6.49579">
        <ele>370.55</ele>
        <time>2025-04-30T09:54:50.807Z</time>
      </trkpt>
      <trkpt lat="47.77068" lon="6.49591">
        <ele>370.45</ele>
        <time>2025-04-30T09:54:57.253Z</time>
      </trkpt>
      <trkpt lat="47.77054" lon="6.496">
        <ele>370.4</ele>
        <time>2025-04-30T09:55:03.702Z</time>
      </trkpt>
      <trkpt lat="47.77046" lon="6.49604">
        <ele>370.34</ele>
        <time>2025-04-30T09:55:10.153Z</time>
      </trkpt>
      <trkpt lat="47.77038" lon="6.49606">
        <ele>370.29</ele>
        <time>2025-04-30T09:55:16.606Z</time>
      </trkpt>
      <trkpt lat="47.77023" lon="6.4961">
        <ele>370.21</ele>
        <time>2025-04-30T09:55:23.062Z</time>
      </trkpt>
      <trkpt lat="47.77016" lon="6.49614">
        <ele>370.15</ele>
        <time>2025-04-30T09:55:29.520Z</time>
      </trkpt>
      <trkpt lat="47.77009" lon="6.49619">
        <ele>370.12</ele>
        <time>2025-04-30T09:55:35.979Z</time>
      </trkpt>
      <trkpt lat="47.77004" lon="6.49627">
        <ele>370.1</ele>
        <time>2025-04-30T09:55:42.440Z</time>
      </trkpt>
      <trkpt lat="47.76999" lon="6.49635">
        <ele>370.1</ele>
        <time>2025-04-30T09:55:48.903Z</time>
      </trkpt>
      <trkpt lat="47.76993" lon="6.49641">
        <ele>370.09</ele>
        <time>2025-04-30T09:55:55.367Z</time>
      </trkpt>
      <trkpt lat="47.76988" lon="6.49646">
        <ele>370.07</ele>
        <time>2025-04-30T09:56:01.832Z</time>
      </trkpt>
      <trkpt lat="47.76982" lon="6.4965">
        <ele>370.06</ele>
        <time>2025-04-30T09:56:08.299Z</time>
      </trkpt>
      <trkpt lat="47.76975" lon="6.49653">
        <ele>370.06</ele>
        <time>2025-04-30T09:56:14.767Z</time>
      </trkpt>
      <trkpt lat="47.76968" lon="6.49656">
        <ele>370.05</ele>
        <time>2025-04-30T09:56:21.237Z</time>
      </trkpt>
      <trkpt lat="47.76961" lon="6.49658">
        <ele>370.05</ele>
        <time>2025-04-30T09:56:27.708Z</time>
      </trkpt>
      <trkpt lat="47.76921" lon="6.49664">
        <ele>370.08</ele>
        <time>2025-04-30T09:56:34.188Z</time>
      </trkpt>
      <trkpt lat="47.76913" lon="6.49665">
        <ele>370.05</ele>
        <time>2025-04-30T09:56:40.670Z</time>
      </trkpt>
      <trkpt lat="47.76906" lon="6.49664">
        <ele>370.01</ele>
        <time>2025-04-30T09:56:47.153Z</time>
      </trkpt>
      <trkpt lat="47.76898" lon="6.49662">
        <ele>369.96</ele>
        <time>2025-04-30T09:56:53.638Z</time>
      </trkpt>
      <trkpt lat="47.76872" lon="6.49655">
        <ele>369.92</ele>
        <time>2025-04-30T09:57:00.129Z</time>
      </trkpt>
      <trkpt lat="47.76866" lon="6.49651">
        <ele>369.83</ele>
        <time>2025-04-30T09:57:06.621Z</time>
      </trkpt>
      <trkpt lat="47.76862" lon="6.49655">
        <ele>369.71</ele>
        <time>2025-04-30T09:57:13.114Z</time>
      </trkpt>
      <trkpt lat="47.76857" lon="6.49656">
        <ele>369.58</ele>
        <time>2025-04-30T09:57:19.608Z</time>
      </trkpt>
      <trkpt lat="47.76853" lon="6.49657">
        <ele>369.43</ele>
        <time>2025-04-30T09:57:26.103Z</time>
      </trkpt>
      <trkpt lat="47.76848" lon="6.49659">
        <ele>369.25</ele>
        <time>2025-04-30T09:57:32.599Z</time>
      </trkpt>
      <trkpt lat="47.76843" lon="6.4966">
        <ele>369.06</ele>
        <time>2025-04-30T09:57:39.096Z</time>
      </trkpt>
      <trkpt lat="47.76837" lon="6.49661">
        <ele>368.84</ele>
        <time>2025-04-30T09:57:45.594Z</time>
      </trkpt>
      <trkpt lat="47.76827" lon="6.49664">
        <ele>368.57</ele>
        <time>2025-04-30T09:57:52.095Z</time>
      </trkpt>
      <trkpt lat="47.76818" lon="6.49665">
        <ele>368.28</ele>
        <time>2025-04-30T09:57:58.598Z</time>
      </trkpt>
      <trkpt lat="47.76813" lon="6.49667">
        <ele>367.99</ele>
        <time>2025-04-30T09:58:05.102Z</time>
      </trkpt>
      <trkpt lat="47.76808" lon="6.49668">
        <ele>367.68</ele>
        <time>2025-04-30T09:58:11.607Z</time>
      </trkpt>
      <trkpt lat="47.76802" lon="6.4967">
        <ele>367.36</ele>
        <time>2025-04-30T09:58:18.113Z</time>
      </trkpt>
      <trkpt lat="47.76797" lon="6.49672">
        <ele>367</ele>
        <time>2025-04-30T09:58:24.620Z</time>
      </trkpt>
      <trkpt lat="47.76787" lon="6.49676">
        <ele>366.63</ele>
        <time>2025-04-30T09:58:31.129Z</time>
      </trkpt>
      <trkpt lat="47.7675" lon="6.4969">
        <ele>366.2</ele>
        <time>2025-04-30T09:58:37.647Z</time>
      </trkpt>
      <trkpt lat="47.76731" lon="6.49699">
        <ele>365.74</ele>
        <time>2025-04-30T09:58:44.169Z</time>
      </trkpt>
      <trkpt lat="47.76725" lon="6.49704">
        <ele>365.29</ele>
        <time>2025-04-30T09:58:50.692Z</time>
      </trkpt>
      <trkpt lat="47.7672" lon="6.49712">
        <ele>364.82</ele>
        <time>2025-04-30T09:58:57.217Z</time>
      </trkpt>
      <trkpt lat="47.76716" lon="6.4972">
        <ele>364.35</ele>
        <time>2025-04-30T09:59:03.743Z</time>
      </trkpt>
      <trkpt lat="47.76714" lon="6.4973">
        <ele>363.85</ele>
        <time>2025-04-30T09:59:10.271Z</time>
      </trkpt>
      <trkpt lat="47.76713" lon="6.4974">
        <ele>363.33</ele>
        <time>2025-04-30T09:59:16.800Z</time>
      </trkpt>
      <trkpt lat="47.76715" lon="6.49758">
        <ele>362.77</ele>
        <time>2025-04-30T09:59:23.332Z</time>
      </trkpt>
      <trkpt lat="47.76717" lon="6.49765">
        <ele>362.19</ele>
        <time>2025-04-30T09:59:29.865Z</time>
      </trkpt>
      <trkpt lat="47.76719" lon="6.49773">
        <ele>361.6</ele>
        <time>2025-04-30T09:59:36.399Z</time>
      </trkpt>
      <trkpt lat="47.76721" lon="6.49781">
        <ele>360.99</ele>
        <time>2025-04-30T09:59:42.934Z</time>
      </trkpt>
      <trkpt lat="47.76724" lon="6.49788">
        <ele>360.35</ele>
        <time>2025-04-30T09:59:49.471Z</time>
      </trkpt>
      <trkpt lat="47.76731" lon="6.49807">
        <ele>359.69</ele>
        <time>2025-04-30T09:59:56.011Z</time>
      </trkpt>
      <trkpt lat="47.76737" lon="6.49829">
        <ele>359</ele>
        <time>2025-04-30T10:00:02.554Z</time>
      </trkpt>
      <trkpt lat="47.7674" lon="6.4985">
        <ele>358.31</ele>
        <time>2025-04-30T10:00:09.100Z</time>
      </trkpt>
      <trkpt lat="47.76743" lon="6.4986">
        <ele>357.63</ele>
        <time>2025-04-30T10:00:15.648Z</time>
      </trkpt>
      <trkpt lat="47.76744" lon="6.49869">
        <ele>356.94</ele>
        <time>2025-04-30T10:00:22.197Z</time>
      </trkpt>
      <trkpt lat="47.76755" lon="6.49928">
        <ele>356.2</ele>
        <time>2025-04-30T10:00:28.755Z</time>
      </trkpt>
      <trkpt lat="47.76757" lon="6.49938">
        <ele>355.47</ele>
        <time>2025-04-30T10:00:35.315Z</time>
      </trkpt>
      <trkpt lat="47.7676" lon="6.49957">
        <ele>354.72</ele>
        <time>2025-04-30T10:00:41.877Z</time>
      </trkpt>
      <trkpt lat="47.76766" lon="6.49984">
        <ele>353.92</ele>
        <time>2025-04-30T10:00:48.444Z</time>
      </trkpt>
      <trkpt lat="47.76772" lon="6.50014">
        <ele>353.09</ele>
        <time>2025-04-30T10:00:55.015Z</time>
      </trkpt>
      <trkpt lat="47.76772" lon="6.50025">
        <ele>352.33</ele>
        <time>2025-04-30T10:01:01.588Z</time>
      </trkpt>
      <trkpt lat="47.76771" lon="6.50047">
        <ele>351.53</ele>
        <time>2025-04-30T10:01:08.164Z</time>
      </trkpt>
      <trkpt lat="47.76772" lon="6.50068">
        <ele>350.78</ele>
        <time>2025-04-30T10:01:14.743Z</time>
      </trkpt>
      <trkpt lat="47.76773" lon="6.50079">
        <ele>350.07</ele>
        <time>2025-04-30T10:01:21.323Z</time>
      </trkpt>
      <trkpt lat="47.76774" lon="6.50088">
        <ele>349.39</ele>
        <time>2025-04-30T10:01:27.905Z</time>
      </trkpt>
      <trkpt lat="47.76774" lon="6.50096">
        <ele>348.75</ele>
        <time>2025-04-30T10:01:34.488Z</time>
      </trkpt>
      <trkpt lat="47.76775" lon="6.50103">
        <ele>348.14</ele>
        <time>2025-04-30T10:01:41.072Z</time>
      </trkpt>
      <trkpt lat="47.76774" lon="6.50109">
        <ele>347.56</ele>
        <time>2025-04-30T10:01:47.657Z</time>
      </trkpt>
      <trkpt lat="47.76772" lon="6.50113">
        <ele>347.01</ele>
        <time>2025-04-30T10:01:54.243Z</time>
      </trkpt>
      <trkpt lat="47.76769" lon="6.50115">
        <ele>346.5</ele>
        <time>2025-04-30T10:02:00.829Z</time>
      </trkpt>
      <trkpt lat="47.76766" lon="6.50114">
        <ele>346.02</ele>
        <time>2025-04-30T10:02:07.416Z</time>
      </trkpt>
      <trkpt lat="47.76762" lon="6.50112">
        <ele>345.58</ele>
        <time>2025-04-30T10:02:14.004Z</time>
      </trkpt>
      <trkpt lat="47.76757" lon="6.50109">
        <ele>345.18</ele>
        <time>2025-04-30T10:02:20.593Z</time>
      </trkpt>
      <trkpt lat="47.76752" lon="6.50108">
        <ele>344.81</ele>
        <time>2025-04-30T10:02:27.183Z</time>
      </trkpt>
      <trkpt lat="47.76748" lon="6.50108">
        <ele>344.48</ele>
        <time>2025-04-30T10:02:33.774Z</time>
      </trkpt>
      <trkpt lat="47.76743" lon="6.50108">
        <ele>344.17</ele>
        <time>2025-04-30T10:02:40.366Z</time>
      </trkpt>
      <trkpt lat="47.76738" lon="6.50108">
        <ele>343.89</ele>
        <time>2025-04-30T10:02:46.959Z</time>
      </trkpt>
      <trkpt lat="47.76718" lon="6.50108">
        <ele>343.68</ele>
        <time>2025-04-30T10:02:53.556Z</time>
      </trkpt>
      <trkpt lat="47.76701" lon="6.50108">
        <ele>343.48</ele>
        <time>2025-04-30T10:03:00.157Z</time>
      </trkpt>
      <trkpt lat="47.76681" lon="6.5011">
        <ele>343.31</ele>
        <time>2025-04-30T10:03:06.762Z</time>
      </trkpt>
      <trkpt lat="47.76654" lon="6.50114">
        <ele>343.21</ele>
        <time>2025-04-30T10:03:13.373Z</time>
      </trkpt>
      <trkpt lat="47.76647" lon="6.50116">
        <ele>343.06</ele>
        <time>2025-04-30T10:03:19.986Z</time>
      </trkpt>
      <trkpt lat="47.76633" lon="6.50119">
        <ele>342.93</ele>
        <time>2025-04-30T10:03:26.602Z</time>
      </trkpt>
      <trkpt lat="47.76592" lon="6.50135">
        <ele>342.75</ele>
        <time>2025-04-30T10:03:33.227Z</time>
      </trkpt>
      <trkpt lat="47.76573" lon="6.50147">
        <ele>342.67</ele>
        <time>2025-04-30T10:03:39.856Z</time>
      </trkpt>
      <trkpt lat="47.76561" lon="6.50157">
        <ele>342.57</ele>
        <time>2025-04-30T10:03:46.488Z</time>
      </trkpt>
      <trkpt lat="47.76535" lon="6.50177">
        <ele>342.54</ele>
        <time>2025-04-30T10:03:53.126Z</time>
      </trkpt>
      <trkpt lat="47.76516" lon="6.50189">
        <ele>342.45</ele>
        <time>2025-04-30T10:03:59.769Z</time>
      </trkpt>
      <trkpt lat="47.76504" lon="6.50195">
        <ele>342.4</ele>
        <time>2025-04-30T10:04:06.415Z</time>
      </trkpt>
      <trkpt lat="47.7648" lon="6.50207">
        <ele>342.32</ele>
        <time>2025-04-30T10:04:13.066Z</time>
      </trkpt>
      <trkpt lat="47.76474" lon="6.50211">
        <ele>342.28</ele>
        <time>2025-04-30T10:04:19.719Z</time>
      </trkpt>
      <trkpt lat="47.76468" lon="6.50216">
        <ele>342.26</ele>
        <time>2025-04-30T10:04:26.373Z</time>
      </trkpt>
      <trkpt lat="47.76465" lon="6.50223">
        <ele>342.25</ele>
        <time>2025-04-30T10:04:33.028Z</time>
      </trkpt>
      <trkpt lat="47.76464" lon="6.50231">
        <ele>342.23</ele>
        <time>2025-04-30T10:04:39.684Z</time>
      </trkpt>
      <trkpt lat="47.76465" lon="6.50239">
        <ele>342.22</ele>
        <time>2025-04-30T10:04:46.342Z</time>
      </trkpt>
      <trkpt lat="47.76467" lon="6.50247">
        <ele>342.21</ele>
        <time>2025-04-30T10:04:53.001Z</time>
      </trkpt>
      <trkpt lat="47.7647" lon="6.50255">
        <ele>342.22</ele>
        <time>2025-04-30T10:04:59.661Z</time>
      </trkpt>
      <trkpt lat="47.76472" lon="6.50264">
        <ele>342.24</ele>
        <time>2025-04-30T10:05:06.322Z</time>
      </trkpt>
      <trkpt lat="47.76474" lon="6.50273">
        <ele>342.27</ele>
        <time>2025-04-30T10:05:12.985Z</time>
      </trkpt>
      <trkpt lat="47.76476" lon="6.50282">
        <ele>342.32</ele>
        <time>2025-04-30T10:05:19.649Z</time>
      </trkpt>
      <trkpt lat="47.76478" lon="6.50291">
        <ele>342.4</ele>
        <time>2025-04-30T10:05:26.315Z</time>
      </trkpt>
      <trkpt lat="47.76484" lon="6.50327">
        <ele>342.51</ele>
        <time>2025-04-30T10:05:32.986Z</time>
      </trkpt>
      <trkpt lat="47.76485" lon="6.50336">
        <ele>342.61</ele>
        <time>2025-04-30T10:05:39.658Z</time>
      </trkpt>
      <trkpt lat="47.76491" lon="6.50369">
        <ele>342.7</ele>
        <time>2025-04-30T10:05:46.335Z</time>
      </trkpt>
      <trkpt lat="47.76492" lon="6.50377">
        <ele>342.8</ele>
        <time>2025-04-30T10:05:53.013Z</time>
      </trkpt>
      <trkpt lat="47.76493" lon="6.50383">
        <ele>342.91</ele>
        <time>2025-04-30T10:05:59.692Z</time>
      </trkpt>
      <trkpt lat="47.76494" lon="6.5039">
        <ele>343.02</ele>
        <time>2025-04-30T10:06:06.372Z</time>
      </trkpt>
      <trkpt lat="47.76494" lon="6.50396">
        <ele>343.15</ele>
        <time>2025-04-30T10:06:13.053Z</time>
      </trkpt>
      <trkpt lat="47.76493" lon="6.50402">
        <ele>343.27</ele>
        <time>2025-04-30T10:06:19.735Z</time>
      </trkpt>
      <trkpt lat="47.76491" lon="6.50408">
        <ele>343.39</ele>
        <time>2025-04-30T10:06:26.418Z</time>
      </trkpt>
      <trkpt lat="47.76488" lon="6.50413">
        <ele>343.51</ele>
        <time>2025-04-30T10:06:33.102Z</time>
      </trkpt>
      <trkpt lat="47.76484" lon="6.50418">
        <ele>343.63</ele>
        <time>2025-04-30T10:06:39.787Z</time>
      </trkpt>
      <trkpt lat="47.7648" lon="6.50421">
        <ele>343.77</ele>
        <time>2025-04-30T10:06:46.473Z</time>
      </trkpt>
      <trkpt lat="47.76475" lon="6.50425">
        <ele>343.92</ele>
        <time>2025-04-30T10:06:53.160Z</time>
      </trkpt>
      <trkpt lat="47.7647" lon="6.50427">
        <ele>344.09</ele>
        <time>2025-04-30T10:06:59.848Z</time>
      </trkpt>
      <trkpt lat="47.76464" lon="6.5043">
        <ele>344.24</ele>
        <time>2025-04-30T10:07:06.538Z</time>
      </trkpt>
      <trkpt lat="47.76459" lon="6.50433">
        <ele>344.39</ele>
        <time>2025-04-30T10:07:13.229Z</time>
      </trkpt>
      <trkpt lat="47.76454" lon="6.50436">
        <ele>344.53</ele>
        <time>2025-04-30T10:07:19.921Z</time>
      </trkpt>
      <trkpt lat="47.76449" lon="6.50438">
        <ele>344.66</ele>
        <time>2025-04-30T10:07:26.614Z</time>
      </trkpt>
      <trkpt lat="47.76439" lon="6.50444">
        <ele>344.81</ele>
        <time>2025-04-30T10:07:33.309Z</time>
      </trkpt>
      <trkpt lat="47.76423" lon="6.5045">
        <ele>344.97</ele>
        <time>2025-04-30T10:07:40.008Z</time>
      </trkpt>
      <trkpt lat="47.76414" lon="6.50452">
        <ele>345.07</ele>
        <time>2025-04-30T10:07:46.709Z</time>
      </trkpt>
      <trkpt lat="47.76409" lon="6.50455">
        <ele>345.16</ele>
        <time>2025-04-30T10:07:53.411Z</time>
      </trkpt>
      <trkpt lat="47.76404" lon="6.50457">
        <ele>345.25</ele>
        <time>2025-04-30T10:08:00.114Z</time>
      </trkpt>
      <trkpt lat="47.76398" lon="6.50459">
        <ele>345.33</ele>
        <time>2025-04-30T10:08:06.819Z</time>
      </trkpt>
      <trkpt lat="47.76394" lon="6.50461">
        <ele>345.39</ele>
        <time>2025-04-30T10:08:13.524Z</time>
      </trkpt>
      <trkpt lat="47.76383" lon="6.50466">
        <ele>345.45</ele>
        <time>2025-04-30T10:08:20.232Z</time>
      </trkpt>
      <trkpt lat="47.76376" lon="6.50466">
        <ele>345.48</ele>
        <time>2025-04-30T10:08:26.941Z</time>
      </trkpt>
      <trkpt lat="47.76359" lon="6.50472">
        <ele>345.54</ele>
        <time>2025-04-30T10:08:33.654Z</time>
      </trkpt>
      <trkpt lat="47.76353" lon="6.50473">
        <ele>345.55</ele>
        <time>2025-04-30T10:08:40.369Z</time>
      </trkpt>
      <trkpt lat="47.76347" lon="6.50474">
        <ele>345.55</ele>
        <time>2025-04-30T10:08:47.085Z</time>
      </trkpt>
      <trkpt lat="47.76341" lon="6.50473">
        <ele>345.53</ele>
        <time>2025-04-30T10:08:53.802Z</time>
      </trkpt>
      <trkpt lat="47.76333" lon="6.50473">
        <ele>345.45</ele>
        <time>2025-04-30T10:09:00.521Z</time>
      </trkpt>
      <trkpt lat="47.76325" lon="6.50474">
        <ele>345.37</ele>
        <time>2025-04-30T10:09:07.241Z</time>
      </trkpt>
      <trkpt lat="47.7632" lon="6.50473">
        <ele>345.26</ele>
        <time>2025-04-30T10:09:13.963Z</time>
      </trkpt>
      <trkpt lat="47.76315" lon="6.50474">
        <ele>345.16</ele>
        <time>2025-04-30T10:09:20.686Z</time>
      </trkpt>
      <trkpt lat="47.7631" lon="6.50475">
        <ele>345.06</ele>
        <time>2025-04-30T10:09:27.410Z</time>
      </trkpt>
      <trkpt lat="47.76305" lon="6.50475">
        <ele>344.95</ele>
        <time>2025-04-30T10:09:34.135Z</time>
      </trkpt>
      <trkpt lat="47.763" lon="6.50475">
        <ele>344.83</ele>
        <time>2025-04-30T10:09:40.861Z</time>
      </trkpt>
      <trkpt lat="47.76295" lon="6.50476">
        <ele>344.69</ele>
        <time>2025-04-30T10:09:47.588Z</time>
      </trkpt>
      <trkpt lat="47.7629" lon="6.50476">
        <ele>344.55</ele>
        <time>2025-04-30T10:09:54.316Z</time>
      </trkpt>
      <trkpt lat="47.76285" lon="6.50476">
        <ele>344.38</ele>
        <time>2025-04-30T10:10:01.045Z</time>
      </trkpt>
      <trkpt lat="47.7628" lon="6.50476">
        <ele>344.22</ele>
        <time>2025-04-30T10:10:07.775Z</time>
      </trkpt>
      <trkpt lat="47.76275" lon="6.50476">
        <ele>344.06</ele>
        <time>2025-04-30T10:10:14.506Z</time>
      </trkpt>
      <trkpt lat="47.76269" lon="6.50477">
        <ele>343.89</ele>
        <time>2025-04-30T10:10:21.239Z</time>
      </trkpt>
      <trkpt lat="47.76264" lon="6.50477">
        <ele>343.72</ele>
        <time>2025-04-30T10:10:27.973Z</time>
      </trkpt>
      <trkpt lat="47.76235" lon="6.5048">
        <ele>343.52</ele>
        <time>2025-04-30T10:10:34.713Z</time>
      </trkpt>
      <trkpt lat="47.76219" lon="6.50482">
        <ele>343.3</ele>
        <time>2025-04-30T10:10:41.456Z</time>
      </trkpt>
      <trkpt lat="47.76214" lon="6.50484">
        <ele>343.11</ele>
        <time>2025-04-30T10:10:48.200Z</time>
      </trkpt>
      <trkpt lat="47.76209" lon="6.50486">
        <ele>342.9</ele>
        <time>2025-04-30T10:10:54.946Z</time>
      </trkpt>
      <trkpt lat="47.76203" lon="6.50488">
        <ele>342.69</ele>
        <time>2025-04-30T10:11:01.693Z</time>
      </trkpt>
      <trkpt lat="47.76198" lon="6.50491">
        <ele>342.51</ele>
        <time>2025-04-30T10:11:08.441Z</time>
      </trkpt>
      <trkpt lat="47.76188" lon="6.50497">
        <ele>342.32</ele>
        <time>2025-04-30T10:11:15.191Z</time>
      </trkpt>
      <trkpt lat="47.76183" lon="6.50501">
        <ele>342.15</ele>
        <time>2025-04-30T10:11:21.943Z</time>
      </trkpt>
      <trkpt lat="47.76177" lon="6.50505">
        <ele>341.99</ele>
        <time>2025-04-30T10:11:28.696Z</time>
      </trkpt>
      <trkpt lat="47.76173" lon="6.50511">
        <ele>341.81</ele>
        <time>2025-04-30T10:11:35.450Z</time>
      </trkpt>
      <trkpt lat="47.76168" lon="6.50518">
        <ele>341.66</ele>
        <time>2025-04-30T10:11:42.206Z</time>
      </trkpt>
      <trkpt lat="47.76163" lon="6.50525">
        <ele>341.51</ele>
        <time>2025-04-30T10:11:48.963Z</time>
      </trkpt>
      <trkpt lat="47.76154" lon="6.5054">
        <ele>341.37</ele>
        <time>2025-04-30T10:11:55.723Z</time>
      </trkpt>
      <trkpt lat="47.76146" lon="6.50557">
        <ele>341.24</ele>
        <time>2025-04-30T10:12:02.486Z</time>
      </trkpt>
      <trkpt lat="47.76145" lon="6.50566">
        <ele>341.12</ele>
        <time>2025-04-30T10:12:09.250Z</time>
      </trkpt>
      <trkpt lat="47.7614" lon="6.50589">
        <ele>340.99</ele>
        <time>2025-04-30T10:12:16.018Z</time>
      </trkpt>
      <trkpt lat="47.76137" lon="6.50605">
        <ele>340.91</ele>
        <time>2025-04-30T10:12:22.788Z</time>
      </trkpt>
      <trkpt lat="47.76136" lon="6.50613">
        <ele>340.84</ele>
        <time>2025-04-30T10:12:29.559Z</time>
      </trkpt>
      <trkpt lat="47.76133" lon="6.5062">
        <ele>340.78</ele>
        <time>2025-04-30T10:12:36.332Z</time>
      </trkpt>
      <trkpt lat="47.7613" lon="6.50628">
        <ele>340.74</ele>
        <time>2025-04-30T10:12:43.106Z</time>
      </trkpt>
      <trkpt lat="47.76127" lon="6.50635">
        <ele>340.72</ele>
        <time>2025-04-30T10:12:49.881Z</time>
      </trkpt>
      <trkpt lat="47.76124" lon="6.50641">
        <ele>340.72</ele>
        <time>2025-04-30T10:12:56.657Z</time>
      </trkpt>
      <trkpt lat="47.7612" lon="6.50647">
        <ele>340.73</ele>
        <time>2025-04-30T10:13:03.434Z</time>
      </trkpt>
      <trkpt lat="47.76116" lon="6.50651">
        <ele>340.75</ele>
        <time>2025-04-30T10:13:10.212Z</time>
      </trkpt>
      <trkpt lat="47.76107" lon="6.50657">
        <ele>340.8</ele>
        <time>2025-04-30T10:13:16.993Z</time>
      </trkpt>
      <trkpt lat="47.76102" lon="6.50659">
        <ele>340.84</ele>
        <time>2025-04-30T10:13:23.775Z</time>
      </trkpt>
      <trkpt lat="47.76099" lon="6.5066">
        <ele>340.89</ele>
        <time>2025-04-30T10:13:30.557Z</time>
      </trkpt>
      <trkpt lat="47.76095" lon="6.50661">
        <ele>340.96</ele>
        <time>2025-04-30T10:13:37.340Z</time>
      </trkpt>
      <trkpt lat="47.76092" lon="6.50663">
        <ele>341.03</ele>
        <time>2025-04-30T10:13:44.124Z</time>
      </trkpt>
      <trkpt lat="47.76089" lon="6.50665">
        <ele>341.11</ele>
        <time>2025-04-30T10:13:50.909Z</time>
      </trkpt>
      <trkpt lat="47.76086" lon="6.50669">
        <ele>341.21</ele>
        <time>2025-04-30T10:13:57.694Z</time>
      </trkpt>
      <trkpt lat="47.76083" lon="6.50671">
        <ele>341.32</ele>
        <time>2025-04-30T10:14:04.480Z</time>
      </trkpt>
      <trkpt lat="47.7608" lon="6.50674">
        <ele>341.43</ele>
        <time>2025-04-30T10:14:11.267Z</time>
      </trkpt>
      <trkpt lat="47.76076" lon="6.50677">
        <ele>341.55</ele>
        <time>2025-04-30T10:14:18.055Z</time>
      </trkpt>
      <trkpt lat="47.76074" lon="6.5068">
        <ele>341.67</ele>
        <time>2025-04-30T10:14:24.844Z</time>
      </trkpt>
      <trkpt lat="47.76072" lon="6.50682">
        <ele>341.8</ele>
        <time>2025-04-30T10:14:31.633Z</time>
      </trkpt>
      <trkpt lat="47.7607" lon="6.50685">
        <ele>341.93</ele>
        <time>2025-04-30T10:14:38.423Z</time>
      </trkpt>
      <trkpt lat="47.76067" lon="6.50688">
        <ele>342.06</ele>
        <time>2025-04-30T10:14:45.213Z</time>
      </trkpt>
      <trkpt lat="47.76064" lon="6.50691">
        <ele>342.19</ele>
        <time>2025-04-30T10:14:52.004Z</time>
      </trkpt>
      <trkpt lat="47.7606" lon="6.50696">
        <ele>342.33</ele>
        <time>2025-04-30T10:14:58.796Z</time>
      </trkpt>
      <trkpt lat="47.76051" lon="6.50704">
        <ele>342.48</ele>
        <time>2025-04-30T10:15:05.591Z</time>
      </trkpt>
      <trkpt lat="47.76049" lon="6.50707">
        <ele>342.62</ele>
        <time>2025-04-30T10:15:12.386Z</time>
      </trkpt>
      <trkpt lat="47.76047" lon="6.5071">
        <ele>342.75</ele>
        <time>2025-04-30T10:15:19.182Z</time>
      </trkpt>
      <trkpt lat="47.76046" lon="6.50715">
        <ele>342.89</ele>
        <time>2025-04-30T10:15:25.979Z</time>
      </trkpt>
      <trkpt lat="47.76046" lon="6.5072">
        <ele>343.02</ele>
        <time>2025-04-30T10:15:32.776Z</time>
      </trkpt>
      <trkpt lat="47.76045" lon="6.50726">
        <ele>343.16</ele>
        <time>2025-04-30T10:15:39.574Z</time>
      </trkpt>
      <trkpt lat="47.76044" lon="6.50733">
        <ele>343.29</ele>
        <time>2025-04-30T10:15:46.373Z</time>
      </trkpt>
      <trkpt lat="47.76042" lon="6.5074">
        <ele>343.4</ele>
        <time>2025-04-30T10:15:53.173Z</time>
      </trkpt>
      <trkpt lat="47.76042" lon="6.50746">
        <ele>343.51</ele>
        <time>2025-04-30T10:15:59.974Z</time>
      </trkpt>
      <trkpt lat="47.76041" lon="6.5075">
        <ele>343.61</ele>
        <time>2025-04-30T10:16:06.776Z</time>
      </trkpt>
      <trkpt lat="47.76039" lon="6.50755">
        <ele>343.71</ele>
        <time>2025-04-30T10:16:13.579Z</time>
      </trkpt>
      <trkpt lat="47.76035" lon="6.50759">
        <ele>343.79</ele>
        <time>2025-04-30T10:16:20.383Z</time>
      </trkpt>
      <trkpt lat="47.76031" lon="6.5076">
        <ele>343.86</ele>
        <time>2025-04-30T10:16:27.188Z</time>
      </trkpt>
      <trkpt lat="47.76026" lon="6.5076">
        <ele>343.92</ele>
        <time>2025-04-30T10:16:33.994Z</time>
      </trkpt>
      <trkpt lat="47.76021" lon="6.5076">
        <ele>343.96</ele>
        <time>2025-04-30T10:16:40.801Z</time>
      </trkpt>
      <trkpt lat="47.76015" lon="6.5076">
        <ele>343.98</ele>
        <time>2025-04-30T10:16:47.609Z</time>
      </trkpt>
      <trkpt lat="47.7601" lon="6.5076">
        <ele>343.99</ele>
        <time>2025-04-30T10:16:54.418Z</time>
      </trkpt>
      <trkpt lat="47.76004" lon="6.5076">
        <ele>343.98</ele>
        <time>2025-04-30T10:17:01.228Z</time>
      </trkpt>
      <trkpt lat="47.75998" lon="6.5076">
        <ele>343.97</ele>
        <time>2025-04-30T10:17:08.040Z</time>
      </trkpt>
      <trkpt lat="47.75991" lon="6.5076">
        <ele>343.94</ele>
        <time>2025-04-30T10:17:14.853Z</time>
      </trkpt>
      <trkpt lat="47.75985" lon="6.50758">
        <ele>343.89</ele>
        <time>2025-04-30T10:17:21.667Z</time>
      </trkpt>
      <trkpt lat="47.75978" lon="6.50756">
        <ele>343.84</ele>
        <time>2025-04-30T10:17:28.483Z</time>
      </trkpt>
      <trkpt lat="47.75971" lon="6.50753">
        <ele>343.77</ele>
        <time>2025-04-30T10:17:35.301Z</time>
      </trkpt>
      <trkpt lat="47.75963" lon="6.50751">
        <ele>343.68</ele>
        <time>2025-04-30T10:17:42.120Z</time>
      </trkpt>
      <trkpt lat="47.75955" lon="6.50749">
        <ele>343.59</ele>
        <time>2025-04-30T10:17:48.941Z</time>
      </trkpt>
      <trkpt lat="47.75946" lon="6.50749">
        <ele>343.48</ele>
        <time>2025-04-30T10:17:55.764Z</time>
      </trkpt>
      <trkpt lat="47.75938" lon="6.50747">
        <ele>343.35</ele>
        <time>2025-04-30T10:18:02.589Z</time>
      </trkpt>
      <trkpt lat="47.7593" lon="6.50746">
        <ele>343.21</ele>
        <time>2025-04-30T10:18:09.415Z</time>
      </trkpt>
      <trkpt lat="47.75922" lon="6.50742">
        <ele>343.06</ele>
        <time>2025-04-30T10:18:16.243Z</time>
      </trkpt>
      <trkpt lat="47.75905" lon="6.50733">
        <ele>342.93</ele>
        <time>2025-04-30T10:18:23.075Z</time>
      </trkpt>
      <trkpt lat="47.75897" lon="6.50727">
        <ele>342.78</ele>
        <time>2025-04-30T10:18:29.909Z</time>
      </trkpt>
      <trkpt lat="47.75887" lon="6.50718">
        <ele>342.64</ele>
        <time>2025-04-30T10:18:36.746Z</time>
      </trkpt>
      <trkpt lat="47.75865" lon="6.50696">
        <ele>342.48</ele>
        <time>2025-04-30T10:18:43.588Z</time>
      </trkpt>
      <trkpt lat="47.75848" lon="6.50685">
        <ele>342.28</ele>
        <time>2025-04-30T10:18:50.434Z</time>
      </trkpt>
      <trkpt lat="47.7584" lon="6.50679">
        <ele>342.07</ele>
        <time>2025-04-30T10:18:57.282Z</time>
      </trkpt>
      <trkpt lat="47.75825" lon="6.50667">
        <ele>341.84</ele>
        <time>2025-04-30T10:19:04.134Z</time>
      </trkpt>
      <trkpt lat="47.75818" lon="6.5066">
        <ele>341.63</ele>
        <time>2025-04-30T10:19:10.987Z</time>
      </trkpt>
      <trkpt lat="47.75812" lon="6.50653">
        <ele>341.4</ele>
        <time>2025-04-30T10:19:17.842Z</time>
      </trkpt>
      <trkpt lat="47.75806" lon="6.50646">
        <ele>341.16</ele>
        <time>2025-04-30T10:19:24.699Z</time>
      </trkpt>
      <trkpt lat="47.758" lon="6.50639">
        <ele>340.92</ele>
        <time>2025-04-30T10:19:31.557Z</time>
      </trkpt>
      <trkpt lat="47.75795" lon="6.50632">
        <ele>340.67</ele>
        <time>2025-04-30T10:19:38.417Z</time>
      </trkpt>
      <trkpt lat="47.7579" lon="6.50625">
        <ele>340.41</ele>
        <time>2025-04-30T10:19:45.278Z</time>
      </trkpt>
      <trkpt lat="47.75785" lon="6.50617">
        <ele>340.13</ele>
        <time>2025-04-30T10:19:52.141Z</time>
      </trkpt>
      <trkpt lat="47.7578" lon="6.50609">
        <ele>339.85</ele>
        <time>2025-04-30T10:19:59.006Z</time>
      </trkpt>
      <trkpt lat="47.7577" lon="6.50594">
        <ele>339.55</ele>
        <time>2025-04-30T10:20:05.874Z</time>
      </trkpt>
      <trkpt lat="47.7576" lon="6.50579">
        <ele>339.23</ele>
        <time>2025-04-30T10:20:12.745Z</time>
      </trkpt>
      <trkpt lat="47.75756" lon="6.50571">
        <ele>338.9</ele>
        <time>2025-04-30T10:20:19.617Z</time>
      </trkpt>
      <trkpt lat="47.75751" lon="6.50564">
        <ele>338.55</ele>
        <time>2025-04-30T10:20:26.491Z</time>
      </trkpt>
      <trkpt lat="47.75746" lon="6.50557">
        <ele>338.19</ele>
        <time>2025-04-30T10:20:33.366Z</time>
      </trkpt>
      <trkpt lat="47.75741" lon="6.50549">
        <ele>337.84</ele>
        <time>2025-04-30T10:20:40.243Z</time>
      </trkpt>
      <trkpt lat="47.75736" lon="6.50542">
        <ele>337.48</ele>
        <time>2025-04-30T10:20:47.121Z</time>
      </trkpt>
      <trkpt lat="47.75731" lon="6.50535">
        <ele>337.11</ele>
        <time>2025-04-30T10:20:54.001Z</time>
      </trkpt>
      <trkpt lat="47.75726" lon="6.50528">
        <ele>336.73</ele>
        <time>2025-04-30T10:21:00.882Z</time>
      </trkpt>
      <trkpt lat="47.75694" lon="6.50487">
        <ele>336.32</ele>
        <time>2025-04-30T10:21:07.772Z</time>
      </trkpt>
      <trkpt lat="47.75679" lon="6.50482">
        <ele>335.94</ele>
        <time>2025-04-30T10:21:14.665Z</time>
      </trkpt>
      <trkpt lat="47.75671" lon="6.50482">
        <ele>335.56</ele>
        <time>2025-04-30T10:21:21.560Z</time>
      </trkpt>
      <trkpt lat="47.75663" lon="6.50481">
        <ele>335.18</ele>
        <time>2025-04-30T10:21:28.457Z</time>
      </trkpt>
      <trkpt lat="47.75655" lon="6.50479">
        <ele>334.8</ele>
        <time>2025-04-30T10:21:35.356Z</time>
      </trkpt>
      <trkpt lat="47.75648" lon="6.50476">
        <ele>334.41</ele>
        <time>2025-04-30T10:21:42.256Z</time>
      </trkpt>
      <trkpt lat="47.75643" lon="6.50472">
        <ele>334.02</ele>
        <time>2025-04-30T10:21:49.157Z</time>
      </trkpt>
      <trkpt lat="47.75637" lon="6.50464">
        <ele>333.62</ele>
        <time>2025-04-30T10:21:56.060Z</time>
      </trkpt>
      <trkpt lat="47.75632" lon="6.50457">
        <ele>333.21</ele>
        <time>2025-04-30T10:22:02.965Z</time>
      </trkpt>
      <trkpt lat="47.75628" lon="6.5045">
        <ele>332.81</ele>
        <time>2025-04-30T10:22:09.871Z</time>
      </trkpt>
      <trkpt lat="47.75624" lon="6.50443">
        <ele>332.4</ele>
        <time>2025-04-30T10:22:16.778Z</time>
      </trkpt>
      <trkpt lat="47.7562" lon="6.50437">
        <ele>331.99</ele>
        <time>2025-04-30T10:22:23.687Z</time>
      </trkpt>
      <trkpt lat="47.75616" lon="6.5043">
        <ele>331.58</ele>
        <time>2025-04-30T10:22:30.597Z</time>
      </trkpt>
      <trkpt lat="47.75611" lon="6.50424">
        <ele>331.16</ele>
        <time>2025-04-30T10:22:37.508Z</time>
      </trkpt>
      <trkpt lat="47.75607" lon="6.50417">
        <ele>330.75</ele>
        <time>2025-04-30T10:22:44.421Z</time>
      </trkpt>
      <trkpt lat="47.75598" lon="6.50403">
        <ele>330.32</ele>
        <time>2025-04-30T10:22:51.336Z</time>
      </trkpt>
      <trkpt lat="47.7559" lon="6.50389">
        <ele>329.9</ele>
        <time>2025-04-30T10:22:58.254Z</time>
      </trkpt>
      <trkpt lat="47.75582" lon="6.50375">
        <ele>329.5</ele>
        <time>2025-04-30T10:23:05.175Z</time>
      </trkpt>
      <trkpt lat="47.75579" lon="6.50367">
        <ele>329.1</ele>
        <time>2025-04-30T10:23:12.097Z</time>
      </trkpt>
      <trkpt lat="47.75575" lon="6.50359">
        <ele>328.71</ele>
        <time>2025-04-30T10:23:19.020Z</time>
      </trkpt>
      <trkpt lat="47.75559" lon="6.50328">
        <ele>328.34</ele>
        <time>2025-04-30T10:23:25.949Z</time>
      </trkpt>
      <trkpt lat="47.75556" lon="6.50321">
        <ele>327.97</ele>
        <time>2025-04-30T10:23:32.879Z</time>
      </trkpt>
      <trkpt lat="47.75552" lon="6.50314">
        <ele>327.62</ele>
        <time>2025-04-30T10:23:39.811Z</time>
      </trkpt>
      <trkpt lat="47.75548" lon="6.50307">
        <ele>327.27</ele>
        <time>2025-04-30T10:23:46.744Z</time>
      </trkpt>
      <trkpt lat="47.75544" lon="6.50301">
        <ele>326.92</ele>
        <time>2025-04-30T10:23:53.678Z</time>
      </trkpt>
      <trkpt lat="47.7554" lon="6.50295">
        <ele>326.58</ele>
        <time>2025-04-30T10:24:00.613Z</time>
      </trkpt>
      <trkpt lat="47.75525" lon="6.50279">
        <ele>326.27</ele>
        <time>2025-04-30T10:24:07.552Z</time>
      </trkpt>
      <trkpt lat="47.7552" lon="6.50272">
        <ele>325.94</ele>
        <time>2025-04-30T10:24:14.493Z</time>
      </trkpt>
      <trkpt lat="47.75512" lon="6.50259">
        <ele>325.61</ele>
        <time>2025-04-30T10:24:21.436Z</time>
      </trkpt>
      <trkpt lat="47.75502" lon="6.50249">
        <ele>325.3</ele>
        <time>2025-04-30T10:24:28.382Z</time>
      </trkpt>
      <trkpt lat="47.75489" lon="6.50233">
        <ele>324.99</ele>
        <time>2025-04-30T10:24:35.331Z</time>
      </trkpt>
      <trkpt lat="47.75485" lon="6.50228">
        <ele>324.71</ele>
        <time>2025-04-30T10:24:42.282Z</time>
      </trkpt>
      <trkpt lat="47.75481" lon="6.50223">
        <ele>324.44</ele>
        <time>2025-04-30T10:24:49.234Z</time>
      </trkpt>
      <trkpt lat="47.75476" lon="6.50217">
        <ele>324.19</ele>
        <time>2025-04-30T10:24:56.187Z</time>
      </trkpt>
      <trkpt lat="47.75455" lon="6.50197">
        <ele>323.94</ele>
        <time>2025-04-30T10:25:03.145Z</time>
      </trkpt>
      <trkpt lat="47.75449" lon="6.50194">
        <ele>323.71</ele>
        <time>2025-04-30T10:25:10.105Z</time>
      </trkpt>
      <trkpt lat="47.75431" lon="6.50187">
        <ele>323.48</ele>
        <time>2025-04-30T10:25:17.069Z</time>
      </trkpt>
      <trkpt lat="47.75425" lon="6.50185">
        <ele>323.29</ele>
        <time>2025-04-30T10:25:24.034Z</time>
      </trkpt>
      <trkpt lat="47.75419" lon="6.50182">
        <ele>323.12</ele>
        <time>2025-04-30T10:25:31.000Z</time>
      </trkpt>
      <trkpt lat="47.75396" lon="6.50168">
        <ele>322.93</ele>
        <time>2025-04-30T10:25:37.972Z</time>
      </trkpt>
      <trkpt lat="47.75371" lon="6.50145">
        <ele>322.79</ele>
        <time>2025-04-30T10:25:44.950Z</time>
      </trkpt>
      <trkpt lat="47.75363" lon="6.50135">
        <ele>322.7</ele>
        <time>2025-04-30T10:25:51.930Z</time>
      </trkpt>
      <trkpt lat="47.75359" lon="6.5013">
        <ele>322.64</ele>
        <time>2025-04-30T10:25:58.912Z</time>
      </trkpt>
      <trkpt lat="47.75355" lon="6.50126">
        <ele>322.6</ele>
        <time>2025-04-30T10:26:05.895Z</time>
      </trkpt>
      <trkpt lat="47.75351" lon="6.50121">
        <ele>322.59</ele>
        <time>2025-04-30T10:26:12.879Z</time>
      </trkpt>
      <trkpt lat="47.75348" lon="6.50117">
        <ele>322.6</ele>
        <time>2025-04-30T10:26:19.864Z</time>
      </trkpt>
      <trkpt lat="47.75345" lon="6.50115">
        <ele>322.64</ele>
        <time>2025-04-30T10:26:26.849Z</time>
      </trkpt>
      <trkpt lat="47.75342" lon="6.50114">
        <ele>322.7</ele>
        <time>2025-04-30T10:26:33.835Z</time>
      </trkpt>
      <trkpt lat="47.75339" lon="6.50116">
        <ele>322.78</ele>
        <time>2025-04-30T10:26:40.822Z</time>
      </trkpt>
      <trkpt lat="47.75337" lon="6.50121">
        <ele>322.89</ele>
        <time>2025-04-30T10:26:47.809Z</time>
      </trkpt>
      <trkpt lat="47.75336" lon="6.50126">
        <ele>323.03</ele>
        <time>2025-04-30T10:26:54.797Z</time>
      </trkpt>
      <trkpt lat="47.7533" lon="6.50155">
        <ele>323.19</ele>
        <time>2025-04-30T10:27:01.790Z</time>
      </trkpt>
      <trkpt lat="47.75328" lon="6.50182">
        <ele>323.37</ele>
        <time>2025-04-30T10:27:08.786Z</time>
      </trkpt>
      <trkpt lat="47.75326" lon="6.50202">
        <ele>323.59</ele>
        <time>2025-04-30T10:27:15.785Z</time>
      </trkpt>
      <trkpt lat="47.75329" lon="6.50222">
        <ele>323.87</ele>
        <time>2025-04-30T10:27:22.787Z</time>
      </trkpt>
      <trkpt lat="47.75331" lon="6.50227">
        <ele>324.14</ele>
        <time>2025-04-30T10:27:29.790Z</time>
      </trkpt>
      <trkpt lat="47.75334" lon="6.50232">
        <ele>324.43</ele>
        <time>2025-04-30T10:27:36.794Z</time>
      </trkpt>
      <trkpt lat="47.75337" lon="6.50236">
        <ele>324.74</ele>
        <time>2025-04-30T10:27:43.799Z</time>
      </trkpt>
      <trkpt lat="47.75341" lon="6.5024">
        <ele>325.06</ele>
        <time>2025-04-30T10:27:50.805Z</time>
      </trkpt>
      <trkpt lat="47.75345" lon="6.50243">
        <ele>325.39</ele>
        <time>2025-04-30T10:27:57.812Z</time>
      </trkpt>
      <trkpt lat="47.75348" lon="6.50247">
        <ele>325.74</ele>
        <time>2025-04-30T10:28:04.820Z</time>
      </trkpt>
      <trkpt lat="47.75352" lon="6.5025">
        <ele>326.1</ele>
        <time>2025-04-30T10:28:11.829Z</time>
      </trkpt>
      <trkpt lat="47.75355" lon="6.50254">
        <ele>326.47</ele>
        <time>2025-04-30T10:28:18.839Z</time>
      </trkpt>
      <trkpt lat="47.75359" lon="6.50258">
        <ele>326.85</ele>
        <time>2025-04-30T10:28:25.850Z</time>
      </trkpt>
      <trkpt lat="47.75362" lon="6.50261">
        <ele>327.23</ele>
        <time>2025-04-30T10:28:32.861Z</time>
      </trkpt>
      <trkpt lat="47.75365" lon="6.50265">
        <ele>327.61</ele>
        <time>2025-04-30T10:28:39.873Z</time>
      </trkpt>
      <trkpt lat="47.75368" lon="6.50269">
        <ele>328</ele>
        <time>2025-04-30T10:28:46.886Z</time>
      </trkpt>
      <trkpt lat="47.75371" lon="6.50273">
        <ele>328.39</ele>
        <time>2025-04-30T10:28:53.900Z</time>
      </trkpt>
      <trkpt lat="47.75374" lon="6.50277">
        <ele>328.77</ele>
        <time>2025-04-30T10:29:00.915Z</time>
      </trkpt>
      <trkpt lat="47.75377" lon="6.50281">
        <ele>329.16</ele>
        <time>2025-04-30T10:29:07.931Z</time>
      </trkpt>
      <trkpt lat="47.7538" lon="6.50285">
        <ele>329.54</ele>
        <time>2025-04-30T10:29:14.948Z</time>
      </trkpt>
      <trkpt lat="47.75384" lon="6.50289">
        <ele>329.92</ele>
        <time>2025-04-30T10:29:21.966Z</time>
      </trkpt>
      <trkpt lat="47.75387" lon="6.50294">
        <ele>330.3</ele>
        <time>2025-04-30T10:29:28.985Z</time>
      </trkpt>
      <trkpt lat="47.75389" lon="6.50298">
        <ele>330.67</ele>
        <time>2025-04-30T10:29:36.004Z</time>
      </trkpt>
      <trkpt lat="47.75392" lon="6.50303">
        <ele>331.03</ele>
        <time>2025-04-30T10:29:43.024Z</time>
      </trkpt>
      <trkpt lat="47.75395" lon="6.50308">
        <ele>331.39</ele>
        <time>2025-04-30T10:29:50.045Z</time>
      </trkpt>
      <trkpt lat="47.75398" lon="6.50312">
        <ele>331.74</ele>
        <time>2025-04-30T10:29:57.067Z</time>
      </trkpt>
      <trkpt lat="47.754" lon="6.50316">
        <ele>332.08</ele>
        <time>2025-04-30T10:30:04.090Z</time>
      </trkpt>
      <trkpt lat="47.75403" lon="6.5032">
        <ele>332.41</ele>
        <time>2025-04-30T10:30:11.114Z</time>
      </trkpt>
      <trkpt lat="47.75406" lon="6.50323">
        <ele>332.73</ele>
        <time>2025-04-30T10:30:18.139Z</time>
      </trkpt>
      <trkpt lat="47.75408" lon="6.50327">
        <ele>333.03</ele>
        <time>2025-04-30T10:30:25.164Z</time>
      </trkpt>
      <trkpt lat="47.75411" lon="6.50331">
        <ele>333.33</ele>
        <time>2025-04-30T10:30:32.190Z</time>
      </trkpt>
      <trkpt lat="47.75413" lon="6.50335">
        <ele>333.61</ele>
        <time>2025-04-30T10:30:39.217Z</time>
      </trkpt>
      <trkpt lat="47.75416" lon="6.50339">
        <ele>333.88</ele>
        <time>2025-04-30T10:30:46.245Z</time>
      </trkpt>
      <trkpt lat="47.75418" lon="6.50344">
        <ele>334.14</ele>
        <time>2025-04-30T10:30:53.274Z</time>
      </trkpt>
      <trkpt lat="47.75421" lon="6.50349">
        <ele>334.38</ele>
        <time>2025-04-30T10:31:00.303Z</time>
      </trkpt>
      <trkpt lat="47.75423" lon="6.50354">
        <ele>334.62</ele>
        <time>2025-04-30T10:31:07.333Z</time>
      </trkpt>
      <trkpt lat="47.75425" lon="6.50358">
        <ele>334.84</ele>
        <time>2025-04-30T10:31:14.364Z</time>
      </trkpt>
      <trkpt lat="47.75427" lon="6.50364">
        <ele>335.04</ele>
        <time>2025-04-30T10:31:21.396Z</time>
      </trkpt>
      <trkpt lat="47.7543" lon="6.5037">
        <ele>335.24</ele>
        <time>2025-04-30T10:31:28.429Z</time>
      </trkpt>
      <trkpt lat="47.75432" lon="6.50376">
        <ele>335.42</ele>
        <time>2025-04-30T10:31:35.463Z</time>
      </trkpt>
      <trkpt lat="47.75435" lon="6.50381">
        <ele>335.6</ele>
        <time>2025-04-30T10:31:42.498Z</time>
      </trkpt>
      <trkpt lat="47.75437" lon="6.50386">
        <ele>335.76</ele>
        <time>2025-04-30T10:31:49.534Z</time>
      </trkpt>
      <trkpt lat="47.7544" lon="6.50392">
        <ele>335.92</ele>
        <time>2025-04-30T10:31:56.571Z</time>
      </trkpt>
      <trkpt lat="47.75442" lon="6.50398">
        <ele>336.06</ele>
        <time>2025-04-30T10:32:03.609Z</time>
      </trkpt>
      <trkpt lat="47.75445" lon="6.50404">
        <ele>336.2</ele>
        <time>2025-04-30T10:32:10.648Z</time>
      </trkpt>
      <trkpt lat="47.75447" lon="6.5041">
        <ele>336.33</ele>
        <time>2025-04-30T10:32:17.688Z</time>
      </trkpt>
      <trkpt lat="47.75449" lon="6.50416">
        <ele>336.45</ele>
        <time>2025-04-30T10:32:24.729Z</time>
      </trkpt>
      <trkpt lat="47.75451" lon="6.50422">
        <ele>336.56</ele>
        <time>2025-04-30T10:32:31.771Z</time>
      </trkpt>
      <trkpt lat="47.75454" lon="6.50428">
        <ele>336.66</ele>
        <time>2025-04-30T10:32:38.814Z</time>
      </trkpt>
      <trkpt lat="47.75456" lon="6.50434">
        <ele>336.76</ele>
        <time>2025-04-30T10:32:45.858Z</time>
      </trkpt>
      <trkpt lat="47.75458" lon="6.5044">
        <ele>336.85</ele>
        <time>2025-04-30T10:32:52.903Z</time>
      </trkpt>
      <trkpt lat="47.75461" lon="6.50446">
        <ele>336.95</ele>
        <time>2025-04-30T10:32:59.949Z</time>
      </trkpt>
      <trkpt lat="47.75463" lon="6.50452">
        <ele>337.05</ele>
        <time>2025-04-30T10:33:06.996Z</time>
      </trkpt>
      <trkpt lat="47.75465" lon="6.50459">
        <ele>337.15</ele>
        <time>2025-04-30T10:33:14.044Z</time>
      </trkpt>
      <trkpt lat="47.75467" lon="6.50465">
        <ele>337.24</ele>
        <time>2025-04-30T10:33:21.093Z</time>
      </trkpt>
      <trkpt lat="47.7547" lon="6.50471">
        <ele>337.34</ele>
        <time>2025-04-30T10:33:28.143Z</time>
      </trkpt>
      <trkpt lat="47.75472" lon="6.50478">
        <ele>337.44</ele>
        <time>2025-04-30T10:33:35.194Z</time>
      </trkpt>
      <trkpt lat="47.75474" lon="6.50485">
        <ele>337.55</ele>
        <time>2025-04-30T10:33:42.246Z</time>
      </trkpt>
      <trkpt lat="47.75476" lon="6.50491">
        <ele>337.67</ele>
        <time>2025-04-30T10:33:49.299Z</time>
      </trkpt>
      <trkpt lat="47.75478" lon="6.50497">
        <ele>337.78</ele>
        <time>2025-04-30T10:33:56.353Z</time>
      </trkpt>
      <trkpt lat="47.7548" lon="6.50503">
        <ele>337.91</ele>
        <time>2025-04-30T10:34:03.408Z</time>
      </trkpt>
      <trkpt lat="47.75483" lon="6.5051">
        <ele>338.03</ele>
        <time>2025-04-30T10:34:10.464Z</time>
      </trkpt>
      <trkpt lat="47.75485" lon="6.50516">
        <ele>338.16</ele>
        <time>2025-04-30T10:34:17.521Z</time>
      </trkpt>
      <trkpt lat="47.75487" lon="6.50522">
        <ele>338.3</ele>
        <time>2025-04-30T10:34:24.579Z</time>
      </trkpt>
      <trkpt lat="47.7549" lon="6.50528">
        <ele>338.45</ele>
        <time>2025-04-30T10:34:31.638Z</time>
      </trkpt>
      <trkpt lat="47.75492" lon="6.50534">
        <ele>338.62</ele>
        <time>2025-04-30T10:34:38.698Z</time>
      </trkpt>
      <trkpt lat="47.75494" lon="6.5054">
        <ele>338.79</ele>
        <time>2025-04-30T10:34:45.759Z</time>
      </trkpt>
      <trkpt lat="47.75496" lon="6.50546">
        <ele>338.98</ele>
        <time>2025-04-30T10:34:52.821Z</time>
      </trkpt>
      <trkpt lat="47.75499" lon="6.50552">
        <ele>339.17</ele>
        <time>2025-04-30T10:34:59.884Z</time>
      </trkpt>
      <trkpt lat="47.75501" lon="6.50558">
        <ele>339.37</ele>
        <time>2025-04-30T10:35:06.948Z</time>
      </trkpt>
      <trkpt lat="47.75503" lon="6.50564">
        <ele>339.59</ele>
        <time>2025-04-30T10:35:14.013Z</time>
      </trkpt>
      <trkpt lat="47.75505" lon="6.50569">
        <ele>339.82</ele>
        <time>2025-04-30T10:35:21.079Z</time>
      </trkpt>
      <trkpt lat="47.75506" lon="6.50575">
        <ele>340.06</ele>
        <time>2025-04-30T10:35:28.146Z</time>
      </trkpt>
      <trkpt lat="47.75508" lon="6.50581">
        <ele>340.31</ele>
        <time>2025-04-30T10:35:35.214Z</time>
      </trkpt>
      <trkpt lat="47.7551" lon="6.50587">
        <ele>340.55</ele>
        <time>2025-04-30T10:35:42.283Z</time>
      </trkpt>
      <trkpt lat="47.75512" lon="6.50593">
        <ele>340.8</ele>
        <time>2025-04-30T10:35:49.353Z</time>
      </trkpt>
      <trkpt lat="47.75513" lon="6.506">
        <ele>341.06</ele>
        <time>2025-04-30T10:35:56.424Z</time>
      </trkpt>
      <trkpt lat="47.75514" lon="6.50606">
        <ele>341.32</ele>
        <time>2025-04-30T10:36:03.496Z</time>
      </trkpt>
      <trkpt lat="47.75516" lon="6.50611">
        <ele>341.6</ele>
        <time>2025-04-30T10:36:10.569Z</time>
      </trkpt>
      <trkpt lat="47.75517" lon="6.50617">
        <ele>341.88</ele>
        <time>2025-04-30T10:36:17.643Z</time>
      </trkpt>
      <trkpt lat="47.75519" lon="6.50623">
        <ele>342.17</ele>
        <time>2025-04-30T10:36:24.717Z</time>
      </trkpt>
      <trkpt lat="47.7552" lon="6.50629">
        <ele>342.47</ele>
        <time>2025-04-30T10:36:31.792Z</time>
      </trkpt>
      <trkpt lat="47.75522" lon="6.50635">
        <ele>342.78</ele>
        <time>2025-04-30T10:36:38.868Z</time>
      </trkpt>
      <trkpt lat="47.75524" lon="6.50641">
        <ele>343.1</ele>
        <time>2025-04-30T10:36:45.945Z</time>
      </trkpt>
      <trkpt lat="47.75526" lon="6.50646">
        <ele>343.42</ele>
        <time>2025-04-30T10:36:53.023Z</time>
      </trkpt>
      <trkpt lat="47.75527" lon="6.50652">
        <ele>343.75</ele>
        <time>2025-04-30T10:37:00.102Z</time>
      </trkpt>
      <trkpt lat="47.75529" lon="6.50657">
        <ele>344.08</ele>
        <time>2025-04-30T10:37:07.182Z</time>
      </trkpt>
      <trkpt lat="47.7553" lon="6.50663">
        <ele>344.43</ele>
        <time>2025-04-30T10:37:14.263Z</time>
      </trkpt>
      <trkpt lat="47.75532" lon="6.50669">
        <ele>344.79</ele>
        <time>2025-04-30T10:37:21.345Z</time>
      </trkpt>
      <trkpt lat="47.75534" lon="6.50675">
        <ele>345.15</ele>
        <time>2025-04-30T10:37:28.428Z</time>
      </trkpt>
      <trkpt lat="47.75535" lon="6.50681">
        <ele>345.52</ele>
        <time>2025-04-30T10:37:35.512Z</time>
      </trkpt>
      <trkpt lat="47.75537" lon="6.50687">
        <ele>345.91</ele>
        <time>2025-04-30T10:37:42.597Z</time>
      </trkpt>
      <trkpt lat="47.75538" lon="6.50693">
        <ele>346.31</ele>
        <time>2025-04-30T10:37:49.682Z</time>
      </trkpt>
      <trkpt lat="47.7554" lon="6.50698">
        <ele>346.72</ele>
        <time>2025-04-30T10:37:56.768Z</time>
      </trkpt>
      <trkpt lat="47.75542" lon="6.50704">
        <ele>347.14</ele>
        <time>2025-04-30T10:38:03.855Z</time>
      </trkpt>
      <trkpt lat="47.75544" lon="6.5071">
        <ele>347.58</ele>
        <time>2025-04-30T10:38:10.943Z</time>
      </trkpt>
      <trkpt lat="47.75546" lon="6.50715">
        <ele>348.03</ele>
        <time>2025-04-30T10:38:18.032Z</time>
      </trkpt>
      <trkpt lat="47.75548" lon="6.50721">
        <ele>348.48</ele>
        <time>2025-04-30T10:38:25.122Z</time>
      </trkpt>
      <trkpt lat="47.75549" lon="6.50727">
        <ele>348.92</ele>
        <time>2025-04-30T10:38:32.213Z</time>
      </trkpt>
      <trkpt lat="47.75551" lon="6.50733">
        <ele>349.37</ele>
        <time>2025-04-30T10:38:39.305Z</time>
      </trkpt>
      <trkpt lat="47.75552" lon="6.50739">
        <ele>349.82</ele>
        <time>2025-04-30T10:38:46.398Z</time>
      </trkpt>
      <trkpt lat="47.75553" lon="6.50745">
        <ele>350.28</ele>
        <time>2025-04-30T10:38:53.492Z</time>
      </trkpt>
      <trkpt lat="47.75555" lon="6.5075">
        <ele>350.74</ele>
        <time>2025-04-30T10:39:00.586Z</time>
      </trkpt>
      <trkpt lat="47.75556" lon="6.50755">
        <ele>351.2</ele>
        <time>2025-04-30T10:39:07.681Z</time>
      </trkpt>
      <trkpt lat="47.75558" lon="6.50761">
        <ele>351.67</ele>
        <time>2025-04-30T10:39:14.777Z</time>
      </trkpt>
      <trkpt lat="47.7556" lon="6.50767">
        <ele>352.14</ele>
        <time>2025-04-30T10:39:21.874Z</time>
      </trkpt>
      <trkpt lat="47.75562" lon="6.50773">
        <ele>352.61</ele>
        <time>2025-04-30T10:39:28.972Z</time>
      </trkpt>
      <trkpt lat="47.75564" lon="6.50779">
        <ele>353.08</ele>
        <time>2025-04-30T10:39:36.071Z</time>
      </trkpt>
      <trkpt lat="47.75566" lon="6.50784">
        <ele>353.53</ele>
        <time>2025-04-30T10:39:43.171Z</time>
      </trkpt>
      <trkpt lat="47.75568" lon="6.50789">
        <ele>353.98</ele>
        <time>2025-04-30T10:39:50.272Z</time>
      </trkpt>
      <trkpt lat="47.75569" lon="6.50794">
        <ele>354.42</ele>
        <time>2025-04-30T10:39:57.373Z</time>
      </trkpt>
      <trkpt lat="47.75571" lon="6.50798">
        <ele>354.86</ele>
        <time>2025-04-30T10:40:04.475Z</time>
      </trkpt>
      <trkpt lat="47.75571" lon="6.50803">
        <ele>355.29</ele>
        <time>2025-04-30T10:40:11.578Z</time>
      </trkpt>
      <trkpt lat="47.75572" lon="6.50809">
        <ele>355.72</ele>
        <time>2025-04-30T10:40:18.682Z</time>
      </trkpt>
      <trkpt lat="47.75574" lon="6.50814">
        <ele>356.14</ele>
        <time>2025-04-30T10:40:25.787Z</time>
      </trkpt>
      <trkpt lat="47.75575" lon="6.50818">
        <ele>356.56</ele>
        <time>2025-04-30T10:40:32.892Z</time>
      </trkpt>
      <trkpt lat="47.75577" lon="6.50823">
        <ele>356.97</ele>
        <time>2025-04-30T10:40:39.998Z</time>
      </trkpt>
      <trkpt lat="47.75579" lon="6.50828">
        <ele>357.37</ele>
        <time>2025-04-30T10:40:47.105Z</time>
      </trkpt>
      <trkpt lat="47.7558" lon="6.50832">
        <ele>357.76</ele>
        <time>2025-04-30T10:40:54.213Z</time>
      </trkpt>
      <trkpt lat="47.75581" lon="6.50836">
        <ele>358.15</ele>
        <time>2025-04-30T10:41:01.321Z</time>
      </trkpt>
      <trkpt lat="47.75581" lon="6.50841">
        <ele>358.52</ele>
        <time>2025-04-30T10:41:08.430Z</time>
      </trkpt>
      <trkpt lat="47.75583" lon="6.50846">
        <ele>358.89</ele>
        <time>2025-04-30T10:41:15.540Z</time>
      </trkpt>
      <trkpt lat="47.75584" lon="6.50851">
        <ele>359.26</ele>
        <time>2025-04-30T10:41:22.650Z</time>
      </trkpt>
      <trkpt lat="47.75585" lon="6.50855">
        <ele>359.61</ele>
        <time>2025-04-30T10:41:29.761Z</time>
      </trkpt>
      <trkpt lat="47.75587" lon="6.5086">
        <ele>359.96</ele>
        <time>2025-04-30T10:41:36.873Z</time>
      </trkpt>
      <trkpt lat="47.75588" lon="6.50864">
        <ele>360.29</ele>
        <time>2025-04-30T10:41:43.985Z</time>
      </trkpt>
      <trkpt lat="47.75589" lon="6.50869">
        <ele>360.62</ele>
        <time>2025-04-30T10:41:51.098Z</time>
      </trkpt>
      <trkpt lat="47.7559" lon="6.50873">
        <ele>360.94</ele>
        <time>2025-04-30T10:41:58.212Z</time>
      </trkpt>
      <trkpt lat="47.75591" lon="6.50878">
        <ele>361.25</ele>
        <time>2025-04-30T10:42:05.327Z</time>
      </trkpt>
      <trkpt lat="47.75592" lon="6.50884">
        <ele>361.56</ele>
        <time>2025-04-30T10:42:12.443Z</time>
      </trkpt>
      <trkpt lat="47.75593" lon="6.5089">
        <ele>361.85</ele>
        <time>2025-04-30T10:42:19.559Z</time>
      </trkpt>
      <trkpt lat="47.75594" lon="6.50895">
        <ele>362.13</ele>
        <time>2025-04-30T10:42:26.676Z</time>
      </trkpt>
      <trkpt lat="47.75595" lon="6.509">
        <ele>362.41</ele>
        <time>2025-04-30T10:42:33.794Z</time>
      </trkpt>
      <trkpt lat="47.75597" lon="6.50906">
        <ele>362.68</ele>
        <time>2025-04-30T10:42:40.913Z</time>
      </trkpt>
      <trkpt lat="47.75598" lon="6.50912">
        <ele>362.93</ele>
        <time>2025-04-30T10:42:48.033Z</time>
      </trkpt>
      <trkpt lat="47.756" lon="6.50918">
        <ele>363.19</ele>
        <time>2025-04-30T10:42:55.154Z</time>
      </trkpt>
      <trkpt lat="47.75601" lon="6.50925">
        <ele>363.43</ele>
        <time>2025-04-30T10:43:02.276Z</time>
      </trkpt>
      <trkpt lat="47.75603" lon="6.50931">
        <ele>363.67</ele>
        <time>2025-04-30T10:43:09.399Z</time>
      </trkpt>
      <trkpt lat="47.75604" lon="6.50936">
        <ele>363.89</ele>
        <time>2025-04-30T10:43:16.523Z</time>
      </trkpt>
      <trkpt lat="47.75606" lon="6.50941">
        <ele>364.12</ele>
        <time>2025-04-30T10:43:23.647Z</time>
      </trkpt>
      <trkpt lat="47.75607" lon="6.50946">
        <ele>364.33</ele>
        <time>2025-04-30T10:43:30.772Z</time>
      </trkpt>
      <trkpt lat="47.75608" lon="6.50951">
        <ele>364.54</ele>
        <time>2025-04-30T10:43:37.898Z</time>
      </trkpt>
      <trkpt lat="47.75609" lon="6.50957">
        <ele>364.74</ele>
        <time>2025-04-30T10:43:45.025Z</time>
      </trkpt>
      <trkpt lat="47.7561" lon="6.50962">
        <ele>364.93</ele>
        <time>2025-04-30T10:43:52.153Z</time>
      </trkpt>
      <trkpt lat="47.75611" lon="6.50968">
        <ele>365.12</ele>
        <time>2025-04-30T10:43:59.281Z</time>
      </trkpt>
      <trkpt lat="47.75613" lon="6.50976">
        <ele>365.3</ele>
        <time>2025-04-30T10:44:06.411Z</time>
      </trkpt>
      <trkpt lat="47.75614" lon="6.50983">
        <ele>365.47</ele>
        <time>2025-04-30T10:44:13.542Z</time>
      </trkpt>
      <trkpt lat="47.75614" lon="6.5099">
        <ele>365.63</ele>
        <time>2025-04-30T10:44:20.674Z</time>
      </trkpt>
      <trkpt lat="47.75616" lon="6.50997">
        <ele>365.79</ele>
        <time>2025-04-30T10:44:27.807Z</time>
      </trkpt>
      <trkpt lat="47.75619" lon="6.51002">
        <ele>365.96</ele>
        <time>2025-04-30T10:44:34.941Z</time>
      </trkpt>
      <trkpt lat="47.75621" lon="6.51007">
        <ele>366.12</ele>
        <time>2025-04-30T10:44:42.076Z</time>
      </trkpt>
      <trkpt lat="47.75623" lon="6.51012">
        <ele>366.28</ele>
        <time>2025-04-30T10:44:49.211Z</time>
      </trkpt>
      <trkpt lat="47.75625" lon="6.51018">
        <ele>366.43</ele>
        <time>2025-04-30T10:44:56.347Z</time>
      </trkpt>
      <trkpt lat="47.75627" lon="6.51022">
        <ele>366.58</ele>
        <time>2025-04-30T10:45:03.484Z</time>
      </trkpt>
      <trkpt lat="47.75628" lon="6.51027">
        <ele>366.73</ele>
        <time>2025-04-30T10:45:10.622Z</time>
      </trkpt>
      <trkpt lat="47.7563" lon="6.51032">
        <ele>366.87</ele>
        <time>2025-04-30T10:45:17.761Z</time>
      </trkpt>
      <trkpt lat="47.75632" lon="6.51037">
        <ele>367</ele>
        <time>2025-04-30T10:45:24.901Z</time>
      </trkpt>
      <trkpt lat="47.75633" lon="6.51043">
        <ele>367.14</ele>
        <time>2025-04-30T10:45:32.041Z</time>
      </trkpt>
      <trkpt lat="47.75635" lon="6.51049">
        <ele>367.27</ele>
        <time>2025-04-30T10:45:39.182Z</time>
      </trkpt>
      <trkpt lat="47.75637" lon="6.51055">
        <ele>367.4</ele>
        <time>2025-04-30T10:45:46.324Z</time>
      </trkpt>
      <trkpt lat="47.75639" lon="6.5106">
        <ele>367.53</ele>
        <time>2025-04-30T10:45:53.467Z</time>
      </trkpt>
      <trkpt lat="47.75641" lon="6.51067">
        <ele>367.65</ele>
        <time>2025-04-30T10:46:00.611Z</time>
      </trkpt>
      <trkpt lat="47.75643" lon="6.51074">
        <ele>367.77</ele>
        <time>2025-04-30T10:46:07.756Z</time>
      </trkpt>
      <trkpt lat="47.75646" lon="6.51081">
        <ele>367.89</ele>
        <time>2025-04-30T10:46:14.903Z</time>
      </trkpt>
      <trkpt lat="47.75647" lon="6.51087">
        <ele>368</ele>
        <time>2025-04-30T10:46:22.051Z</time>
      </trkpt>
      <trkpt lat="47.75649" lon="6.51094">
        <ele>368.09</ele>
        <time>2025-04-30T10:46:29.200Z</time>
      </trkpt>
      <trkpt lat="47.75651" lon="6.51099">
        <ele>368.18</ele>
        <time>2025-04-30T10:46:36.349Z</time>
      </trkpt>
      <trkpt lat="47.75653" lon="6.51105">
        <ele>368.27</ele>
        <time>2025-04-30T10:46:43.499Z</time>
      </trkpt>
      <trkpt lat="47.75655" lon="6.51112">
        <ele>368.36</ele>
        <time>2025-04-30T10:46:50.650Z</time>
      </trkpt>
      <trkpt lat="47.75657" lon="6.5112">
        <ele>368.44</ele>
        <time>2025-04-30T10:46:57.803Z</time>
      </trkpt>
      <trkpt lat="47.75659" lon="6.51126">
        <ele>368.52</ele>
        <time>2025-04-30T10:47:04.957Z</time>
      </trkpt>
      <trkpt lat="47.75662" lon="6.51133">
        <ele>368.59</ele>
        <time>2025-04-30T10:47:12.112Z</time>
      </trkpt>
      <trkpt lat="47.75666" lon="6.51139">
        <ele>368.66</ele>
        <time>2025-04-30T10:47:19.268Z</time>
      </trkpt>
      <trkpt lat="47.75669" lon="6.51146">
        <ele>368.73</ele>
        <time>2025-04-30T10:47:26.425Z</time>
      </trkpt>
      <trkpt lat="47.75672" lon="6.51154">
        <ele>368.79</ele>
        <time>2025-04-30T10:47:33.584Z</time>
      </trkpt>
      <trkpt lat="47.75674" lon="6.51162">
        <ele>368.84</ele>
        <time>2025-04-30T10:47:40.744Z</time>
      </trkpt>
      <trkpt lat="47.75676" lon="6.51169">
        <ele>368.9</ele>
        <time>2025-04-30T10:47:47.905Z</time>
      </trkpt>
      <trkpt lat="47.75678" lon="6.51176">
        <ele>368.97</ele>
        <time>2025-04-30T10:47:55.067Z</time>
      </trkpt>
      <trkpt lat="47.75679" lon="6.51182">
        <ele>369.03</ele>
        <time>2025-04-30T10:48:02.230Z</time>
      </trkpt>
      <trkpt lat="47.75681" lon="6.51187">
        <ele>369.1</ele>
        <time>2025-04-30T10:48:09.394Z</time>
      </trkpt>
      <trkpt lat="47.75683" lon="6.51194">
        <ele>369.18</ele>
        <time>2025-04-30T10:48:16.559Z</time>
      </trkpt>
      <trkpt lat="47.75683" lon="6.512">
        <ele>369.26</ele>
        <time>2025-04-30T10:48:23.725Z</time>
      </trkpt>
      <trkpt lat="47.75684" lon="6.51207">
        <ele>369.34</ele>
        <time>2025-04-30T10:48:30.892Z</time>
      </trkpt>
      <trkpt lat="47.75685" lon="6.51214">
        <ele>369.42</ele>
        <time>2025-04-30T10:48:38.060Z</time>
      </trkpt>
      <trkpt lat="47.75687" lon="6.51223">
        <ele>369.52</ele>
        <time>2025-04-30T10:48:45.229Z</time>
      </trkpt>
      <trkpt lat="47.7569" lon="6.5123">
        <ele>369.63</ele>
        <time>2025-04-30T10:48:52.399Z</time>
      </trkpt>
      <trkpt lat="47.75694" lon="6.51237">
        <ele>369.75</ele>
        <time>2025-04-30T10:48:59.571Z</time>
      </trkpt>
      <trkpt lat="47.75697" lon="6.51244">
        <ele>369.88</ele>
        <time>2025-04-30T10:49:06.744Z</time>
      </trkpt>
      <trkpt lat="47.75698" lon="6.51252">
        <ele>370</ele>
        <time>2025-04-30T10:49:13.918Z</time>
      </trkpt>
      <trkpt lat="47.75702" lon="6.51258">
        <ele>370.14</ele>
        <time>2025-04-30T10:49:21.093Z</time>
      </trkpt>
      <trkpt lat="47.75704" lon="6.51263">
        <ele>370.27</ele>
        <time>2025-04-30T10:49:28.269Z</time>
      </trkpt>
      <trkpt lat="47.75705" lon="6.5127">
        <ele>370.41</ele>
        <time>2025-04-30T10:49:35.446Z</time>
      </trkpt>
      <trkpt lat="47.75708" lon="6.51275">
        <ele>370.55</ele>
        <time>2025-04-30T10:49:42.624Z</time>
      </trkpt>
      <trkpt lat="47.7571" lon="6.51281">
        <ele>370.71</ele>
        <time>2025-04-30T10:49:49.803Z</time>
      </trkpt>
      <trkpt lat="47.75712" lon="6.51287">
        <ele>370.87</ele>
        <time>2025-04-30T10:49:56.983Z</time>
      </trkpt>
      <trkpt lat="47.75713" lon="6.51293">
        <ele>371.05</ele>
        <time>2025-04-30T10:50:04.164Z</time>
      </trkpt>
      <trkpt lat="47.75715" lon="6.51299">
        <ele>371.23</ele>
        <time>2025-04-30T10:50:11.346Z</time>
      </trkpt>
      <trkpt lat="47.75716" lon="6.51304">
        <ele>371.43</ele>
        <time>2025-04-30T10:50:18.529Z</time>
      </trkpt>
      <trkpt lat="47.75718" lon="6.51308">
        <ele>371.63</ele>
        <time>2025-04-30T10:50:25.712Z</time>
      </trkpt>
      <trkpt lat="47.75719" lon="6.51312">
        <ele>371.84</ele>
        <time>2025-04-30T10:50:32.896Z</time>
      </trkpt>
      <trkpt lat="47.7572" lon="6.51318">
        <ele>372.07</ele>
        <time>2025-04-30T10:50:40.081Z</time>
      </trkpt>
      <trkpt lat="47.75721" lon="6.51325">
        <ele>372.3</ele>
        <time>2025-04-30T10:50:47.267Z</time>
      </trkpt>
      <trkpt lat="47.75722" lon="6.51332">
        <ele>372.54</ele>
        <time>2025-04-30T10:50:54.454Z</time>
      </trkpt>
      <trkpt lat="47.75724" lon="6.5134">
        <ele>372.81</ele>
        <time>2025-04-30T10:51:01.642Z</time>
      </trkpt>
      <trkpt lat="47.75726" lon="6.51346">
        <ele>373.07</ele>
        <time>2025-04-30T10:51:08.831Z</time>
      </trkpt>
      <trkpt lat="47.75728" lon="6.51353">
        <ele>373.35</ele>
        <time>2025-04-30T10:51:16.021Z</time>
      </trkpt>
      <trkpt lat="47.7573" lon="6.51363">
        <ele>373.64</ele>
        <time>2025-04-30T10:51:23.213Z</time>
      </trkpt>
      <trkpt lat="47.75733" lon="6.51371">
        <ele>373.93</ele>
        <time>2025-04-30T10:51:30.406Z</time>
      </trkpt>
      <trkpt lat="47.75736" lon="6.51379">
        <ele>374.23</ele>
        <time>2025-04-30T10:51:37.600Z</time>
      </trkpt>
      <trkpt lat="47.75739" lon="6.51387">
        <ele>374.53</ele>
        <time>2025-04-30T10:51:44.796Z</time>
      </trkpt>
      <trkpt lat="47.75741" lon="6.51394">
        <ele>374.84</ele>
        <time>2025-04-30T10:51:51.993Z</time>
      </trkpt>
      <trkpt lat="47.75744" lon="6.51401">
        <ele>375.16</ele>
        <time>2025-04-30T10:51:59.191Z</time>
      </trkpt>
      <trkpt lat="47.75746" lon="6.51407">
        <ele>375.48</ele>
        <time>2025-04-30T10:52:06.390Z</time>
      </trkpt>
      <trkpt lat="47.75748" lon="6.51414">
        <ele>375.81</ele>
        <time>2025-04-30T10:52:13.590Z</time>
      </trkpt>
      <trkpt lat="47.7575" lon="6.51421">
        <ele>376.15</ele>
        <time>2025-04-30T10:52:20.791Z</time>
      </trkpt>
      <trkpt lat="47.75752" lon="6.51427">
        <ele>376.49</ele>
        <time>2025-04-30T10:52:27.993Z</time>
      </trkpt>
      <trkpt lat="47.75753" lon="6.51434">
        <ele>376.84</ele>
        <time>2025-04-30T10:52:35.196Z</time>
      </trkpt>
      <trkpt lat="47.75754" lon="6.51441">
        <ele>377.19</ele>
        <time>2025-04-30T10:52:42.400Z</time>
      </trkpt>
      <trkpt lat="47.75754" lon="6.51446">
        <ele>377.54</ele>
        <time>2025-04-30T10:52:49.605Z</time>
      </trkpt>
      <trkpt lat="47.75755" lon="6.51453">
        <ele>377.89</ele>
        <time>2025-04-30T10:52:56.811Z</time>
      </trkpt>
      <trkpt lat="47.75759" lon="6.5146">
        <ele>378.24</ele>
        <time>2025-04-30T10:53:04.018Z</time>
      </trkpt>
      <trkpt lat="47.75761" lon="6.51466">
        <ele>378.59</ele>
        <time>2025-04-30T10:53:11.226Z</time>
      </trkpt>
      <trkpt lat="47.75763" lon="6.51473">
        <ele>378.95</ele>
        <time>2025-04-30T10:53:18.435Z</time>
      </trkpt>
      <trkpt lat="47.75764" lon="6.51479">
        <ele>379.31</ele>
        <time>2025-04-30T10:53:25.645Z</time>
      </trkpt>
      <trkpt lat="47.75764" lon="6.51485">
        <ele>379.67</ele>
        <time>2025-04-30T10:53:32.856Z</time>
      </trkpt>
      <trkpt lat="47.75764" lon="6.51489">
        <ele>380.02</ele>
        <time>2025-04-30T10:53:40.068Z</time>
      </trkpt>
      <trkpt lat="47.75765" lon="6.51492">
        <ele>380.37</ele>
        <time>2025-04-30T10:53:47.280Z</time>
      </trkpt>
      <trkpt lat="47.75766" lon="6.51497">
        <ele>380.73</ele>
        <time>2025-04-30T10:53:54.493Z</time>
      </trkpt>
      <trkpt lat="47.75767" lon="6.51503">
        <ele>381.08</ele>
        <time>2025-04-30T10:54:01.707Z</time>
      </trkpt>
      <trkpt lat="47.75769" lon="6.5151">
        <ele>381.43</ele>
        <time>2025-04-30T10:54:08.922Z</time>
      </trkpt>
      <trkpt lat="47.75768" lon="6.51515">
        <ele>381.77</ele>
        <time>2025-04-30T10:54:16.138Z</time>
      </trkpt>
      <trkpt lat="47.75771" lon="6.51519">
        <ele>382.11</ele>
        <time>2025-04-30T10:54:23.354Z</time>
      </trkpt>
      <trkpt lat="47.75772" lon="6.51524">
        <ele>382.44</ele>
        <time>2025-04-30T10:54:30.571Z</time>
      </trkpt>
      <trkpt lat="47.75773" lon="6.51527">
        <ele>382.77</ele>
        <time>2025-04-30T10:54:37.789Z</time>
      </trkpt>
      <trkpt lat="47.75773" lon="6.51534">
        <ele>383.11</ele>
        <time>2025-04-30T10:54:45.008Z</time>
      </trkpt>
      <trkpt lat="47.75775" lon="6.5154">
        <ele>383.44</ele>
        <time>2025-04-30T10:54:52.228Z</time>
      </trkpt>
      <trkpt lat="47.75778" lon="6.51546">
        <ele>383.76</ele>
        <time>2025-04-30T10:54:59.449Z</time>
      </trkpt>
      <trkpt lat="47.75779" lon="6.51551">
        <ele>384.07</ele>
        <time>2025-04-30T10:55:06.670Z</time>
      </trkpt>
      <trkpt lat="47.7578" lon="6.51555">
        <ele>384.38</ele>
        <time>2025-04-30T10:55:13.892Z</time>
      </trkpt>
      <trkpt lat="47.75781" lon="6.5156">
        <ele>384.68</ele>
        <time>2025-04-30T10:55:21.115Z</time>
      </trkpt>
      <trkpt lat="47.75782" lon="6.51563">
        <ele>384.96</ele>
        <time>2025-04-30T10:55:28.338Z</time>
      </trkpt>
      <trkpt lat="47.75785" lon="6.51567">
        <ele>385.25</ele>
        <time>2025-04-30T10:55:35.562Z</time>
      </trkpt>
      <trkpt lat="47.75786" lon="6.51572">
        <ele>385.52</ele>
        <time>2025-04-30T10:55:42.787Z</time>
      </trkpt>
      <trkpt lat="47.75788" lon="6.51577">
        <ele>385.78</ele>
        <time>2025-04-30T10:55:50.013Z</time>
      </trkpt>
      <trkpt lat="47.7579" lon="6.5158">
        <ele>386.04</ele>
        <time>2025-04-30T10:55:57.240Z</time>
      </trkpt>
      <trkpt lat="47.75792" lon="6.51585">
        <ele>386.28</ele>
        <time>2025-04-30T10:56:04.467Z</time>
      </trkpt>
      <trkpt lat="47.75792" lon="6.5159">
        <ele>386.53</ele>
        <time>2025-04-30T10:56:11.695Z</time>
      </trkpt>
      <trkpt lat="47.75793" lon="6.51594">
        <ele>386.76</ele>
        <time>2025-04-30T10:56:18.924Z</time>
      </trkpt>
      <trkpt lat="47.75794" lon="6.51597">
        <ele>386.99</ele>
        <time>2025-04-30T10:56:26.153Z</time>
      </trkpt>
      <trkpt lat="47.75795" lon="6.516">
        <ele>387.2</ele>
        <time>2025-04-30T10:56:33.383Z</time>
      </trkpt>
      <trkpt lat="47.75796" lon="6.51605">
        <ele>387.41</ele>
        <time>2025-04-30T10:56:40.613Z</time>
      </trkpt>
      <trkpt lat="47.75798" lon="6.51609">
        <ele>387.6</ele>
        <time>2025-04-30T10:56:47.844Z</time>
      </trkpt>
      <trkpt lat="47.758" lon="6.51613">
        <ele>387.79</ele>
        <time>2025-04-30T10:56:55.076Z</time>
      </trkpt>
      <trkpt lat="47.75801" lon="6.51617">
        <ele>387.96</ele>
        <time>2025-04-30T10:57:02.308Z</time>
      </trkpt>
      <trkpt lat="47.75802" lon="6.51621">
        <ele>388.12</ele>
        <time>2025-04-30T10:57:09.541Z</time>
      </trkpt>
      <trkpt lat="47.75804" lon="6.51625">
        <ele>388.27</ele>
        <time>2025-04-30T10:57:16.775Z</time>
      </trkpt>
      <trkpt lat="47.75806" lon="6.51631">
        <ele>388.42</ele>
        <time>2025-04-30T10:57:24.010Z</time>
      </trkpt>
      <trkpt lat="47.75807" lon="6.51636">
        <ele>388.55</ele>
        <time>2025-04-30T10:57:31.245Z</time>
      </trkpt>
      <trkpt lat="47.75809" lon="6.51644">
        <ele>388.67</ele>
        <time>2025-04-30T10:57:38.482Z</time>
      </trkpt>
      <trkpt lat="47.75811" lon="6.51649">
        <ele>388.77</ele>
        <time>2025-04-30T10:57:45.720Z</time>
      </trkpt>
      <trkpt lat="47.75812" lon="6.51655">
        <ele>388.87</ele>
        <time>2025-04-30T10:57:52.958Z</time>
      </trkpt>
      <trkpt lat="47.75815" lon="6.51661">
        <ele>388.95</ele>
        <time>2025-04-30T10:58:00.197Z</time>
      </trkpt>
      <trkpt lat="47.75818" lon="6.51666">
        <ele>389.03</ele>
        <time>2025-04-30T10:58:07.437Z</time>
      </trkpt>
      <trkpt lat="47.7582" lon="6.51672">
        <ele>389.09</ele>
        <time>2025-04-30T10:58:14.678Z</time>
      </trkpt>
      <trkpt lat="47.7582" lon="6.51679">
        <ele>389.14</ele>
        <time>2025-04-30T10:58:21.920Z</time>
      </trkpt>
      <trkpt lat="47.75823" lon="6.51683">
        <ele>389.17</ele>
        <time>2025-04-30T10:58:29.163Z</time>
      </trkpt>
      <trkpt lat="47.75825" lon="6.51689">
        <ele>389.2</ele>
        <time>2025-04-30T10:58:36.407Z</time>
      </trkpt>
      <trkpt lat="47.75827" lon="6.51693">
        <ele>389.22</ele>
        <time>2025-04-30T10:58:43.652Z</time>
      </trkpt>
      <trkpt lat="47.75829" lon="6.51698">
        <ele>389.22</ele>
        <time>2025-04-30T10:58:50.898Z</time>
      </trkpt>
      <trkpt lat="47.75829" lon="6.51703">
        <ele>389.21</ele>
        <time>2025-04-30T10:58:58.144Z</time>
      </trkpt>
      <trkpt lat="47.75831" lon="6.51707">
        <ele>389.2</ele>
        <time>2025-04-30T10:59:05.391Z</time>
      </trkpt>
      <trkpt lat="47.75832" lon="6.51712">
        <ele>389.18</ele>
        <time>2025-04-30T10:59:12.639Z</time>
      </trkpt>
      <trkpt lat="47.75835" lon="6.51718">
        <ele>389.15</ele>
        <time>2025-04-30T10:59:19.888Z</time>
      </trkpt>
      <trkpt lat="47.75837" lon="6.51723">
        <ele>389.11</ele>
        <time>2025-04-30T10:59:27.138Z</time>
      </trkpt>
      <trkpt lat="47.7584" lon="6.51729">
        <ele>389.06</ele>
        <time>2025-04-30T10:59:34.389Z</time>
      </trkpt>
      <trkpt lat="47.75842" lon="6.51732">
        <ele>389</ele>
        <time>2025-04-30T10:59:41.640Z</time>
      </trkpt>
      <trkpt lat="47.75844" lon="6.51739">
        <ele>388.93</ele>
        <time>2025-04-30T10:59:48.893Z</time>
      </trkpt>
      <trkpt lat="47.75848" lon="6.51744">
        <ele>388.86</ele>
        <time>2025-04-30T10:59:56.147Z</time>
      </trkpt>
      <trkpt lat="47.75852" lon="6.5175">
        <ele>388.78</ele>
        <time>2025-04-30T11:00:03.402Z</time>
      </trkpt>
      <trkpt lat="47.75854" lon="6.51756">
        <ele>388.71</ele>
        <time>2025-04-30T11:00:10.658Z</time>
      </trkpt>
      <trkpt lat="47.75856" lon="6.51761">
        <ele>388.63</ele>
        <time>2025-04-30T11:00:17.915Z</time>
      </trkpt>
      <trkpt lat="47.75859" lon="6.51765">
        <ele>388.56</ele>
        <time>2025-04-30T11:00:25.173Z</time>
      </trkpt>
      <trkpt lat="47.75862" lon="6.5177">
        <ele>388.5</ele>
        <time>2025-04-30T11:00:32.432Z</time>
      </trkpt>
      <trkpt lat="47.75866" lon="6.51774">
        <ele>388.43</ele>
        <time>2025-04-30T11:00:39.691Z</time>
      </trkpt>
      <trkpt lat="47.75869" lon="6.51778">
        <ele>388.37</ele>
        <time>2025-04-30T11:00:46.951Z</time>
      </trkpt>
      <trkpt lat="47.75872" lon="6.51783">
        <ele>388.33</ele>
        <time>2025-04-30T11:00:54.212Z</time>
      </trkpt>
      <trkpt lat="47.75875" lon="6.51789">
        <ele>388.3</ele>
        <time>2025-04-30T11:01:01.474Z</time>
      </trkpt>
      <trkpt lat="47.75878" lon="6.51795">
        <ele>388.27</ele>
        <time>2025-04-30T11:01:08.737Z</time>
      </trkpt>
      <trkpt lat="47.75881" lon="6.518">
        <ele>388.25</ele>
        <time>2025-04-30T11:01:16.001Z</time>
      </trkpt>
      <trkpt lat="47.75883" lon="6.51805">
        <ele>388.23</ele>
        <time>2025-04-30T11:01:23.266Z</time>
      </trkpt>
      <trkpt lat="47.75886" lon="6.5181">
        <ele>388.24</ele>
        <time>2025-04-30T11:01:30.532Z</time>
      </trkpt>
      <trkpt lat="47.75888" lon="6.51815">
        <ele>388.25</ele>
        <time>2025-04-30T11:01:37.799Z</time>
      </trkpt>
      <trkpt lat="47.75891" lon="6.51821">
        <ele>388.27</ele>
        <time>2025-04-30T11:01:45.067Z</time>
      </trkpt>
      <trkpt lat="47.75893" lon="6.51825">
        <ele>388.31</ele>
        <time>2025-04-30T11:01:52.336Z</time>
      </trkpt>
      <trkpt lat="47.75895" lon="6.51831">
        <ele>388.35</ele>
        <time>2025-04-30T11:01:59.606Z</time>
      </trkpt>
      <trkpt lat="47.75899" lon="6.51836">
        <ele>388.41</ele>
        <time>2025-04-30T11:02:06.877Z</time>
      </trkpt>
      <trkpt lat="47.75902" lon="6.51843">
        <ele>388.48</ele>
        <time>2025-04-30T11:02:14.149Z</time>
      </trkpt>
      <trkpt lat="47.75905" lon="6.51849">
        <ele>388.57</ele>
        <time>2025-04-30T11:02:21.422Z</time>
      </trkpt>
      <trkpt lat="47.75909" lon="6.51856">
        <ele>388.66</ele>
        <time>2025-04-30T11:02:28.697Z</time>
      </trkpt>
      <trkpt lat="47.75913" lon="6.51862">
        <ele>388.77</ele>
        <time>2025-04-30T11:02:35.973Z</time>
      </trkpt>
      <trkpt lat="47.75916" lon="6.51868">
        <ele>388.88</ele>
        <time>2025-04-30T11:02:43.250Z</time>
      </trkpt>
      <trkpt lat="47.7592" lon="6.51874">
        <ele>389.01</ele>
        <time>2025-04-30T11:02:50.528Z</time>
      </trkpt>
      <trkpt lat="47.75923" lon="6.5188">
        <ele>389.15</ele>
        <time>2025-04-30T11:02:57.807Z</time>
      </trkpt>
      <trkpt lat="47.75927" lon="6.51885">
        <ele>389.31</ele>
        <time>2025-04-30T11:03:05.087Z</time>
      </trkpt>
      <trkpt lat="47.7593" lon="6.5189">
        <ele>389.47</ele>
        <time>2025-04-30T11:03:12.368Z</time>
      </trkpt>
      <trkpt lat="47.75933" lon="6.51896">
        <ele>389.64</ele>
        <time>2025-04-30T11:03:19.650Z</time>
      </trkpt>
      <trkpt lat="47.75936" lon="6.51901">
        <ele>389.82</ele>
        <time>2025-04-30T11:03:26.933Z</time>
      </trkpt>
      <trkpt lat="47.75938" lon="6.51906">
        <ele>390.02</ele>
        <time>2025-04-30T11:03:34.217Z</time>
      </trkpt>
      <trkpt lat="47.75942" lon="6.51912">
        <ele>390.22</ele>
        <time>2025-04-30T11:03:41.502Z</time>
      </trkpt>
      <trkpt lat="47.75945" lon="6.51917">
        <ele>390.44</ele>
        <time>2025-04-30T11:03:48.788Z</time>
      </trkpt>
      <trkpt lat="47.75948" lon="6.51923">
        <ele>390.66</ele>
        <time>2025-04-30T11:03:56.075Z</time>
      </trkpt>
      <trkpt lat="47.7595" lon="6.51927">
        <ele>390.89</ele>
        <time>2025-04-30T11:04:03.363Z</time>
      </trkpt>
      <trkpt lat="47.75953" lon="6.51932">
        <ele>391.13</ele>
        <time>2025-04-30T11:04:10.652Z</time>
      </trkpt>
      <trkpt lat="47.75955" lon="6.51937">
        <ele>391.38</ele>
        <time>2025-04-30T11:04:17.942Z</time>
      </trkpt>
      <trkpt lat="47.75958" lon="6.51942">
        <ele>391.63</ele>
        <time>2025-04-30T11:04:25.233Z</time>
      </trkpt>
      <trkpt lat="47.75961" lon="6.51947">
        <ele>391.9</ele>
        <time>2025-04-30T11:04:32.525Z</time>
      </trkpt>
      <trkpt lat="47.75965" lon="6.51952">
        <ele>392.18</ele>
        <time>2025-04-30T11:04:39.818Z</time>
      </trkpt>
      <trkpt lat="47.75968" lon="6.51957">
        <ele>392.46</ele>
        <time>2025-04-30T11:04:47.112Z</time>
      </trkpt>
      <trkpt lat="47.75971" lon="6.51962">
        <ele>392.75</ele>
        <time>2025-04-30T11:04:54.407Z</time>
      </trkpt>
      <trkpt lat="47.75974" lon="6.51967">
        <ele>393.05</ele>
        <time>2025-04-30T11:05:01.703Z</time>
      </trkpt>
      <trkpt lat="47.75977" lon="6.51973">
        <ele>393.35</ele>
        <time>2025-04-30T11:05:09.000Z</time>
      </trkpt>
      <trkpt lat="47.7598" lon="6.51979">
        <ele>393.66</ele>
        <time>2025-04-30T11:05:16.298Z</time>
      </trkpt>
      <trkpt lat="47.75984" lon="6.51983">
        <ele>393.98</ele>
        <time>2025-04-30T11:05:23.597Z</time>
      </trkpt>
      <trkpt lat="47.75988" lon="6.51989">
        <ele>394.3</ele>
        <time>2025-04-30T11:05:30.897Z</time>
      </trkpt>
      <trkpt lat="47.75991" lon="6.51994">
        <ele>394.62</ele>
        <time>2025-04-30T11:05:38.198Z</time>
      </trkpt>
      <trkpt lat="47.75994" lon="6.51999">
        <ele>394.95</ele>
        <time>2025-04-30T11:05:45.500Z</time>
      </trkpt>
      <trkpt lat="47.75997" lon="6.52004">
        <ele>395.27</ele>
        <time>2025-04-30T11:05:52.803Z</time>
      </trkpt>
      <trkpt lat="47.76" lon="6.5201">
        <ele>395.6</ele>
        <time>2025-04-30T11:06:00.107Z</time>
      </trkpt>
      <trkpt lat="47.76002" lon="6.52015">
        <ele>395.92</ele>
        <time>2025-04-30T11:06:07.412Z</time>
      </trkpt>
      <trkpt lat="47.76005" lon="6.52019">
        <ele>396.25</ele>
        <time>2025-04-30T11:06:14.718Z</time>
      </trkpt>
      <trkpt lat="47.76008" lon="6.52024">
        <ele>396.58</ele>
        <time>2025-04-30T11:06:22.025Z</time>
      </trkpt>
      <trkpt lat="47.76011" lon="6.52028">
        <ele>396.9</ele>
        <time>2025-04-30T11:06:29.333Z</time>
      </trkpt>
      <trkpt lat="47.76013" lon="6.52033">
        <ele>397.23</ele>
        <time>2025-04-30T11:06:36.642Z</time>
      </trkpt>
      <trkpt lat="47.76014" lon="6.52037">
        <ele>397.56</ele>
        <time>2025-04-30T11:06:43.951Z</time>
      </trkpt>
      <trkpt lat="47.76017" lon="6.52042">
        <ele>397.88</ele>
        <time>2025-04-30T11:06:51.261Z</time>
      </trkpt>
      <trkpt lat="47.7602" lon="6.52046">
        <ele>398.21</ele>
        <time>2025-04-30T11:06:58.572Z</time>
      </trkpt>
      <trkpt lat="47.76023" lon="6.52051">
        <ele>398.53</ele>
        <time>2025-04-30T11:07:05.884Z</time>
      </trkpt>
      <trkpt lat="47.76026" lon="6.52055">
        <ele>398.86</ele>
        <time>2025-04-30T11:07:13.197Z</time>
      </trkpt>
      <trkpt lat="47.76029" lon="6.52059">
        <ele>399.18</ele>
        <time>2025-04-30T11:07:20.511Z</time>
      </trkpt>
      <trkpt lat="47.76031" lon="6.52062">
        <ele>399.49</ele>
        <time>2025-04-30T11:07:27.825Z</time>
      </trkpt>
      <trkpt lat="47.76034" lon="6.52066">
        <ele>399.8</ele>
        <time>2025-04-30T11:07:35.140Z</time>
      </trkpt>
      <trkpt lat="47.76037" lon="6.52071">
        <ele>400.12</ele>
        <time>2025-04-30T11:07:42.456Z</time>
      </trkpt>
      <trkpt lat="47.76039" lon="6.52076">
        <ele>400.43</ele>
        <time>2025-04-30T11:07:49.773Z</time>
      </trkpt>
      <trkpt lat="47.76042" lon="6.5208">
        <ele>400.74</ele>
        <time>2025-04-30T11:07:57.091Z</time>
      </trkpt>
      <trkpt lat="47.76043" lon="6.52085">
        <ele>401.04</ele>
        <time>2025-04-30T11:08:04.410Z</time>
      </trkpt>
      <trkpt lat="47.76045" lon="6.5209">
        <ele>401.33</ele>
        <time>2025-04-30T11:08:11.729Z</time>
      </trkpt>
      <trkpt lat="47.76048" lon="6.52095">
        <ele>401.62</ele>
        <time>2025-04-30T11:08:19.049Z</time>
      </trkpt>
      <trkpt lat="47.7605" lon="6.52101">
        <ele>401.91</ele>
        <time>2025-04-30T11:08:26.370Z</time>
      </trkpt>
      <trkpt lat="47.76053" lon="6.52105">
        <ele>402.19</ele>
        <time>2025-04-30T11:08:33.692Z</time>
      </trkpt>
      <trkpt lat="47.76055" lon="6.52109">
        <ele>402.46</ele>
        <time>2025-04-30T11:08:41.015Z</time>
      </trkpt>
      <trkpt lat="47.76057" lon="6.52114">
        <ele>402.72</ele>
        <time>2025-04-30T11:08:48.339Z</time>
      </trkpt>
      <trkpt lat="47.7606" lon="6.5212">
        <ele>402.98</ele>
        <time>2025-04-30T11:08:55.664Z</time>
      </trkpt>
      <trkpt lat="47.76063" lon="6.52125">
        <ele>403.23</ele>
        <time>2025-04-30T11:09:02.990Z</time>
      </trkpt>
      <trkpt lat="47.76065" lon="6.5213">
        <ele>403.47</ele>
        <time>2025-04-30T11:09:10.317Z</time>
      </trkpt>
      <trkpt lat="47.76068" lon="6.52134">
        <ele>403.69</ele>
        <time>2025-04-30T11:09:17.644Z</time>
      </trkpt>
      <trkpt lat="47.7607" lon="6.52138">
        <ele>403.91</ele>
        <time>2025-04-30T11:09:24.972Z</time>
      </trkpt>
      <trkpt lat="47.76073" lon="6.52143">
        <ele>404.13</ele>
        <time>2025-04-30T11:09:32.301Z</time>
      </trkpt>
      <trkpt lat="47.76076" lon="6.52147">
        <ele>404.33</ele>
        <time>2025-04-30T11:09:39.631Z</time>
      </trkpt>
      <trkpt lat="47.76078" lon="6.52151">
        <ele>404.53</ele>
        <time>2025-04-30T11:09:46.962Z</time>
      </trkpt>
      <trkpt lat="47.7608" lon="6.52154">
        <ele>404.71</ele>
        <time>2025-04-30T11:09:54.293Z</time>
      </trkpt>
      <trkpt lat="47.76083" lon="6.52158">
        <ele>404.89</ele>
        <time>2025-04-30T11:10:01.625Z</time>
      </trkpt>
      <trkpt lat="47.76085" lon="6.52161">
        <ele>405.05</ele>
        <time>2025-04-30T11:10:08.958Z</time>
      </trkpt>
      <trkpt lat="47.76087" lon="6.52166">
        <ele>405.2</ele>
        <time>2025-04-30T11:10:16.292Z</time>
      </trkpt>
      <trkpt lat="47.7609" lon="6.5217">
        <ele>405.35</ele>
        <time>2025-04-30T11:10:23.627Z</time>
      </trkpt>
      <trkpt lat="47.76092" lon="6.52175">
        <ele>405.49</ele>
        <time>2025-04-30T11:10:30.962Z</time>
      </trkpt>
      <trkpt lat="47.76095" lon="6.52179">
        <ele>405.61</ele>
        <time>2025-04-30T11:10:38.298Z</time>
      </trkpt>
      <trkpt lat="47.76098" lon="6.52185">
        <ele>405.72</ele>
        <time>2025-04-30T11:10:45.635Z</time>
      </trkpt>
      <trkpt lat="47.76101" lon="6.52189">
        <ele>405.82</ele>
        <time>2025-04-30T11:10:52.973Z</time>
      </trkpt>
      <trkpt lat="47.76104" lon="6.52194">
        <ele>405.91</ele>
        <time>2025-04-30T11:11:00.312Z</time>
      </trkpt>
      <trkpt lat="47.76107" lon="6.52198">
        <ele>406</ele>
        <time>2025-04-30T11:11:07.652Z</time>
      </trkpt>
      <trkpt lat="47.76109" lon="6.52203">
        <ele>406.08</ele>
        <time>2025-04-30T11:11:14.993Z</time>
      </trkpt>
      <trkpt lat="47.76112" lon="6.52207">
        <ele>406.15</ele>
        <time>2025-04-30T11:11:22.335Z</time>
      </trkpt>
      <trkpt lat="47.76117" lon="6.52211">
        <ele>406.22</ele>
        <time>2025-04-30T11:11:29.678Z</time>
      </trkpt>
      <trkpt lat="47.76121" lon="6.52215">
        <ele>406.27</ele>
        <time>2025-04-30T11:11:37.022Z</time>
      </trkpt>
      <trkpt lat="47.76124" lon="6.5222">
        <ele>406.32</ele>
        <time>2025-04-30T11:11:44.367Z</time>
      </trkpt>
      <trkpt lat="47.76127" lon="6.52226">
        <ele>406.37</ele>
        <time>2025-04-30T11:11:51.713Z</time>
      </trkpt>
      <trkpt lat="47.7613" lon="6.52231">
        <ele>406.41</ele>
        <time>2025-04-30T11:11:59.060Z</time>
      </trkpt>
      <trkpt lat="47.76134" lon="6.52237">
        <ele>406.46</ele>
        <time>2025-04-30T11:12:06.408Z</time>
      </trkpt>
      <trkpt lat="47.76137" lon="6.52242">
        <ele>406.5</ele>
        <time>2025-04-30T11:12:13.757Z</time>
      </trkpt>
      <trkpt lat="47.76142" lon="6.52247">
        <ele>406.54</ele>
        <time>2025-04-30T11:12:21.107Z</time>
      </trkpt>
      <trkpt lat="47.76145" lon="6.52252">
        <ele>406.58</ele>
        <time>2025-04-30T11:12:28.458Z</time>
      </trkpt>
      <trkpt lat="47.76148" lon="6.52257">
        <ele>406.62</ele>
        <time>2025-04-30T11:12:35.810Z</time>
      </trkpt>
      <trkpt lat="47.76153" lon="6.52263">
        <ele>406.65</ele>
        <time>2025-04-30T11:12:43.164Z</time>
      </trkpt>
      <trkpt lat="47.76156" lon="6.52268">
        <ele>406.69</ele>
        <time>2025-04-30T11:12:50.519Z</time>
      </trkpt>
      <trkpt lat="47.7616" lon="6.52274">
        <ele>406.74</ele>
        <time>2025-04-30T11:12:57.875Z</time>
      </trkpt>
      <trkpt lat="47.76163" lon="6.52279">
        <ele>406.79</ele>
        <time>2025-04-30T11:13:05.232Z</time>
      </trkpt>
      <trkpt lat="47.76165" lon="6.52285">
        <ele>406.85</ele>
        <time>2025-04-30T11:13:12.590Z</time>
      </trkpt>
      <trkpt lat="47.76168" lon="6.52292">
        <ele>406.92</ele>
        <time>2025-04-30T11:13:19.949Z</time>
      </trkpt>
      <trkpt lat="47.76172" lon="6.52299">
        <ele>406.99</ele>
        <time>2025-04-30T11:13:27.309Z</time>
      </trkpt>
      <trkpt lat="47.76176" lon="6.52305">
        <ele>407.06</ele>
        <time>2025-04-30T11:13:34.670Z</time>
      </trkpt>
      <trkpt lat="47.76181" lon="6.52312">
        <ele>407.15</ele>
        <time>2025-04-30T11:13:42.033Z</time>
      </trkpt>
      <trkpt lat="47.76184" lon="6.52318">
        <ele>407.24</ele>
        <time>2025-04-30T11:13:49.397Z</time>
      </trkpt>
      <trkpt lat="47.76187" lon="6.52325">
        <ele>407.34</ele>
        <time>2025-04-30T11:13:56.762Z</time>
      </trkpt>
      <trkpt lat="47.7619" lon="6.52331">
        <ele>407.44</ele>
        <time>2025-04-30T11:14:04.128Z</time>
      </trkpt>
      <trkpt lat="47.76193" lon="6.52336">
        <ele>407.55</ele>
        <time>2025-04-30T11:14:11.495Z</time>
      </trkpt>
      <trkpt lat="47.76196" lon="6.5234">
        <ele>407.67</ele>
        <time>2025-04-30T11:14:18.863Z</time>
      </trkpt>
      <trkpt lat="47.76199" lon="6.52344">
        <ele>407.8</ele>
        <time>2025-04-30T11:14:26.232Z</time>
      </trkpt>
      <trkpt lat="47.76201" lon="6.52347">
        <ele>407.93</ele>
        <time>2025-04-30T11:14:33.602Z</time>
      </trkpt>
      <trkpt lat="47.76204" lon="6.52349">
        <ele>408.06</ele>
        <time>2025-04-30T11:14:40.972Z</time>
      </trkpt>
      <trkpt lat="47.76207" lon="6.52349">
        <ele>408.2</ele>
        <time>2025-04-30T11:14:48.343Z</time>
      </trkpt>
      <trkpt lat="47.76211" lon="6.52349">
        <ele>408.35</ele>
        <time>2025-04-30T11:14:55.715Z</time>
      </trkpt>
      <trkpt lat="47.76215" lon="6.52349">
        <ele>408.5</ele>
        <time>2025-04-30T11:15:03.088Z</time>
      </trkpt>
      <trkpt lat="47.76219" lon="6.5235">
        <ele>408.67</ele>
        <time>2025-04-30T11:15:10.462Z</time>
      </trkpt>
      <trkpt lat="47.76223" lon="6.52351">
        <ele>408.85</ele>
        <time>2025-04-30T11:15:17.836Z</time>
      </trkpt>
      <trkpt lat="47.76227" lon="6.52352">
        <ele>409.04</ele>
        <time>2025-04-30T11:15:25.211Z</time>
      </trkpt>
      <trkpt lat="47.76231" lon="6.52354">
        <ele>409.24</ele>
        <time>2025-04-30T11:15:32.587Z</time>
      </trkpt>
      <trkpt lat="47.76235" lon="6.52355">
        <ele>409.44</ele>
        <time>2025-04-30T11:15:39.964Z</time>
      </trkpt>
      <trkpt lat="47.76239" lon="6.52356">
        <ele>409.66</ele>
        <time>2025-04-30T11:15:47.342Z</time>
      </trkpt>
      <trkpt lat="47.76243" lon="6.52357">
        <ele>409.89</ele>
        <time>2025-04-30T11:15:54.721Z</time>
      </trkpt>
      <trkpt lat="47.76247" lon="6.52357">
        <ele>410.13</ele>
        <time>2025-04-30T11:16:02.101Z</time>
      </trkpt>
      <trkpt lat="47.76251" lon="6.52358">
        <ele>410.38</ele>
        <time>2025-04-30T11:16:09.482Z</time>
      </trkpt>
      <trkpt lat="47.76262" lon="6.5236">
        <ele>410.64</ele>
        <time>2025-04-30T11:16:16.865Z</time>
      </trkpt>
      <trkpt lat="47.76265" lon="6.52361">
        <ele>410.91</ele>
        <time>2025-04-30T11:16:24.249Z</time>
      </trkpt>
      <trkpt lat="47.76269" lon="6.52362">
        <ele>411.19</ele>
        <time>2025-04-30T11:16:31.633Z</time>
      </trkpt>
      <trkpt lat="47.76276" lon="6.52363">
        <ele>411.49</ele>
        <time>2025-04-30T11:16:39.019Z</time>
      </trkpt>
      <trkpt lat="47.7628" lon="6.52364">
        <ele>411.79</ele>
        <time>2025-04-30T11:16:46.406Z</time>
      </trkpt>
      <trkpt lat="47.76283" lon="6.52365">
        <ele>412.11</ele>
        <time>2025-04-30T11:16:53.794Z</time>
      </trkpt>
      <trkpt lat="47.76289" lon="6.52366">
        <ele>412.43</ele>
        <time>2025-04-30T11:17:01.183Z</time>
      </trkpt>
      <trkpt lat="47.76294" lon="6.52367">
        <ele>412.77</ele>
        <time>2025-04-30T11:17:08.573Z</time>
      </trkpt>
      <trkpt lat="47.76315" lon="6.52369">
        <ele>413.12</ele>
        <time>2025-04-30T11:17:15.967Z</time>
      </trkpt>
      <trkpt lat="47.76319" lon="6.5237">
        <ele>413.47</ele>
        <time>2025-04-30T11:17:23.362Z</time>
      </trkpt>
      <trkpt lat="47.76324" lon="6.5237">
        <ele>413.83</ele>
        <time>2025-04-30T11:17:30.758Z</time>
      </trkpt>
      <trkpt lat="47.76356" lon="6.52374">
        <ele>414.27</ele>
        <time>2025-04-30T11:17:38.161Z</time>
      </trkpt>
      <trkpt lat="47.7636" lon="6.52374">
        <ele>414.65</ele>
        <time>2025-04-30T11:17:45.565Z</time>
      </trkpt>
      <trkpt lat="47.76365" lon="6.52374">
        <ele>415.05</ele>
        <time>2025-04-30T11:17:52.970Z</time>
      </trkpt>
      <trkpt lat="47.76368" lon="6.52374">
        <ele>415.45</ele>
        <time>2025-04-30T11:18:00.376Z</time>
      </trkpt>
      <trkpt lat="47.76372" lon="6.52376">
        <ele>415.86</ele>
        <time>2025-04-30T11:18:07.783Z</time>
      </trkpt>
      <trkpt lat="47.76379" lon="6.52377">
        <ele>416.27</ele>
        <time>2025-04-30T11:18:15.191Z</time>
      </trkpt>
      <trkpt lat="47.76383" lon="6.52379">
        <ele>416.69</ele>
        <time>2025-04-30T11:18:22.600Z</time>
      </trkpt>
      <trkpt lat="47.76388" lon="6.5238">
        <ele>417.1</ele>
        <time>2025-04-30T11:18:30.010Z</time>
      </trkpt>
      <trkpt lat="47.76392" lon="6.52381">
        <ele>417.51</ele>
        <time>2025-04-30T11:18:37.421Z</time>
      </trkpt>
      <trkpt lat="47.76396" lon="6.52381">
        <ele>417.93</ele>
        <time>2025-04-30T11:18:44.833Z</time>
      </trkpt>
      <trkpt lat="47.76399" lon="6.52382">
        <ele>418.34</ele>
        <time>2025-04-30T11:18:52.246Z</time>
      </trkpt>
      <trkpt lat="47.76404" lon="6.52382">
        <ele>418.75</ele>
        <time>2025-04-30T11:18:59.660Z</time>
      </trkpt>
      <trkpt lat="47.76408" lon="6.52382">
        <ele>419.16</ele>
        <time>2025-04-30T11:19:07.074Z</time>
      </trkpt>
      <trkpt lat="47.76412" lon="6.52383">
        <ele>419.57</ele>
        <time>2025-04-30T11:19:14.489Z</time>
      </trkpt>
      <trkpt lat="47.76417" lon="6.52383">
        <ele>419.98</ele>
        <time>2025-04-30T11:19:21.905Z</time>
      </trkpt>
      <trkpt lat="47.76422" lon="6.52384">
        <ele>420.37</ele>
        <time>2025-04-30T11:19:29.322Z</time>
      </trkpt>
      <trkpt lat="47.76427" lon="6.52386">
        <ele>420.78</ele>
        <time>2025-04-30T11:19:36.741Z</time>
      </trkpt>
      <trkpt lat="47.76431" lon="6.52387">
        <ele>421.17</ele>
        <time>2025-04-30T11:19:44.161Z</time>
      </trkpt>
      <trkpt lat="47.76434" lon="6.52389">
        <ele>421.55</ele>
        <time>2025-04-30T11:19:51.581Z</time>
      </trkpt>
      <trkpt lat="47.76439" lon="6.5239">
        <ele>421.93</ele>
        <time>2025-04-30T11:19:59.002Z</time>
      </trkpt>
      <trkpt lat="47.76442" lon="6.52391">
        <ele>422.29</ele>
        <time>2025-04-30T11:20:06.424Z</time>
      </trkpt>
      <trkpt lat="47.76446" lon="6.52392">
        <ele>422.65</ele>
        <time>2025-04-30T11:20:13.847Z</time>
      </trkpt>
      <trkpt lat="47.76449" lon="6.52393">
        <ele>422.99</ele>
        <time>2025-04-30T11:20:21.271Z</time>
      </trkpt>
      <trkpt lat="47.76455" lon="6.52394">
        <ele>423.33</ele>
        <time>2025-04-30T11:20:28.696Z</time>
      </trkpt>
      <trkpt lat="47.76459" lon="6.52395">
        <ele>423.65</ele>
        <time>2025-04-30T11:20:36.122Z</time>
      </trkpt>
      <trkpt lat="47.76468" lon="6.52395">
        <ele>423.97</ele>
        <time>2025-04-30T11:20:43.550Z</time>
      </trkpt>
      <trkpt lat="47.76473" lon="6.52395">
        <ele>424.28</ele>
        <time>2025-04-30T11:20:50.979Z</time>
      </trkpt>
      <trkpt lat="47.76477" lon="6.52395">
        <ele>424.57</ele>
        <time>2025-04-30T11:20:58.409Z</time>
      </trkpt>
      <trkpt lat="47.76481" lon="6.52396">
        <ele>424.86</ele>
        <time>2025-04-30T11:21:05.839Z</time>
      </trkpt>
      <trkpt lat="47.76484" lon="6.52397">
        <ele>425.13</ele>
        <time>2025-04-30T11:21:13.270Z</time>
      </trkpt>
      <trkpt lat="47.76489" lon="6.524">
        <ele>425.39</ele>
        <time>2025-04-30T11:21:20.702Z</time>
      </trkpt>
      <trkpt lat="47.76494" lon="6.52401">
        <ele>425.65</ele>
        <time>2025-04-30T11:21:28.135Z</time>
      </trkpt>
      <trkpt lat="47.76498" lon="6.52401">
        <ele>425.9</ele>
        <time>2025-04-30T11:21:35.569Z</time>
      </trkpt>
      <trkpt lat="47.76503" lon="6.524">
        <ele>426.14</ele>
        <time>2025-04-30T11:21:43.004Z</time>
      </trkpt>
      <trkpt lat="47.76507" lon="6.52399">
        <ele>426.38</ele>
        <time>2025-04-30T11:21:50.440Z</time>
      </trkpt>
      <trkpt lat="47.76511" lon="6.52399">
        <ele>426.62</ele>
        <time>2025-04-30T11:21:57.877Z</time>
      </trkpt>
      <trkpt lat="47.76517" lon="6.52398">
        <ele>426.85</ele>
        <time>2025-04-30T11:22:05.315Z</time>
      </trkpt>
      <trkpt lat="47.76522" lon="6.52398">
        <ele>427.08</ele>
        <time>2025-04-30T11:22:12.754Z</time>
      </trkpt>
      <trkpt lat="47.76526" lon="6.52399">
        <ele>427.31</ele>
        <time>2025-04-30T11:22:20.194Z</time>
      </trkpt>
      <trkpt lat="47.76531" lon="6.524">
        <ele>427.53</ele>
        <time>2025-04-30T11:22:27.635Z</time>
      </trkpt>
      <trkpt lat="47.76536" lon="6.52402">
        <ele>427.75</ele>
        <time>2025-04-30T11:22:35.077Z</time>
      </trkpt>
      <trkpt lat="47.76539" lon="6.52403">
        <ele>427.98</ele>
        <time>2025-04-30T11:22:42.520Z</time>
      </trkpt>
      <trkpt lat="47.76542" lon="6.52404">
        <ele>428.2</ele>
        <time>2025-04-30T11:22:49.964Z</time>
      </trkpt>
      <trkpt lat="47.76546" lon="6.52405">
        <ele>428.43</ele>
        <time>2025-04-30T11:22:57.409Z</time>
      </trkpt>
      <trkpt lat="47.76549" lon="6.52406">
        <ele>428.65</ele>
        <time>2025-04-30T11:23:04.854Z</time>
      </trkpt>
      <trkpt lat="47.76553" lon="6.52407">
        <ele>428.87</ele>
        <time>2025-04-30T11:23:12.300Z</time>
      </trkpt>
      <trkpt lat="47.76556" lon="6.52406">
        <ele>429.08</ele>
        <time>2025-04-30T11:23:19.747Z</time>
      </trkpt>
      <trkpt lat="47.7656" lon="6.52406">
        <ele>429.3</ele>
        <time>2025-04-30T11:23:27.195Z</time>
      </trkpt>
      <trkpt lat="47.76565" lon="6.52406">
        <ele>429.52</ele>
        <time>2025-04-30T11:23:34.644Z</time>
      </trkpt>
      <trkpt lat="47.76569" lon="6.52407">
        <ele>429.74</ele>
        <time>2025-04-30T11:23:42.093Z</time>
      </trkpt>
      <trkpt lat="47.76573" lon="6.52407">
        <ele>429.95</ele>
        <time>2025-04-30T11:23:49.543Z</time>
      </trkpt>
      <trkpt lat="47.76578" lon="6.52408">
        <ele>430.17</ele>
        <time>2025-04-30T11:23:56.995Z</time>
      </trkpt>
      <trkpt lat="47.76583" lon="6.52409">
        <ele>430.38</ele>
        <time>2025-04-30T11:24:04.448Z</time>
      </trkpt>
      <trkpt lat="47.76588" lon="6.52409">
        <ele>430.59</ele>
        <time>2025-04-30T11:24:11.902Z</time>
      </trkpt>
      <trkpt lat="47.76593" lon="6.5241">
        <ele>430.79</ele>
        <time>2025-04-30T11:24:19.357Z</time>
      </trkpt>
      <trkpt lat="47.76598" lon="6.52411">
        <ele>431</ele>
        <time>2025-04-30T11:24:26.813Z</time>
      </trkpt>
      <trkpt lat="47.76601" lon="6.5241">
        <ele>431.18</ele>
        <time>2025-04-30T11:24:34.269Z</time>
      </trkpt>
      <trkpt lat="47.76606" lon="6.52411">
        <ele>431.37</ele>
        <time>2025-04-30T11:24:41.726Z</time>
      </trkpt>
      <trkpt lat="47.76611" lon="6.52411">
        <ele>431.56</ele>
        <time>2025-04-30T11:24:49.184Z</time>
      </trkpt>
      <trkpt lat="47.76615" lon="6.52412">
        <ele>431.73</ele>
        <time>2025-04-30T11:24:56.643Z</time>
      </trkpt>
      <trkpt lat="47.76623" lon="6.52414">
        <ele>431.91</ele>
        <time>2025-04-30T11:25:04.104Z</time>
      </trkpt>
      <trkpt lat="47.76628" lon="6.52415">
        <ele>432.06</ele>
        <time>2025-04-30T11:25:11.566Z</time>
      </trkpt>
      <trkpt lat="47.76632" lon="6.52417">
        <ele>432.21</ele>
        <time>2025-04-30T11:25:19.029Z</time>
      </trkpt>
      <trkpt lat="47.76637" lon="6.52417">
        <ele>432.35</ele>
        <time>2025-04-30T11:25:26.493Z</time>
      </trkpt>
      <trkpt lat="47.76641" lon="6.52418">
        <ele>432.48</ele>
        <time>2025-04-30T11:25:33.958Z</time>
      </trkpt>
      <trkpt lat="47.76646" lon="6.52419">
        <ele>432.61</ele>
        <time>2025-04-30T11:25:41.424Z</time>
      </trkpt>
      <trkpt lat="47.76651" lon="6.52419">
        <ele>432.72</ele>
        <time>2025-04-30T11:25:48.891Z</time>
      </trkpt>
      <trkpt lat="47.76655" lon="6.5242">
        <ele>432.83</ele>
        <time>2025-04-30T11:25:56.359Z</time>
      </trkpt>
      <trkpt lat="47.76661" lon="6.5242">
        <ele>432.92</ele>
        <time>2025-04-30T11:26:03.828Z</time>
      </trkpt>
      <trkpt lat="47.76667" lon="6.5242">
        <ele>433.01</ele>
        <time>2025-04-30T11:26:11.299Z</time>
      </trkpt>
      <trkpt lat="47.76672" lon="6.5242">
        <ele>433.1</ele>
        <time>2025-04-30T11:26:18.771Z</time>
      </trkpt>
      <trkpt lat="47.76676" lon="6.52421">
        <ele>433.19</ele>
        <time>2025-04-30T11:26:26.244Z</time>
      </trkpt>
      <trkpt lat="47.76679" lon="6.5242">
        <ele>433.27</ele>
        <time>2025-04-30T11:26:33.717Z</time>
      </trkpt>
      <trkpt lat="47.76683" lon="6.52418">
        <ele>433.34</ele>
        <time>2025-04-30T11:26:41.191Z</time>
      </trkpt>
      <trkpt lat="47.76685" lon="6.52418">
        <ele>433.4</ele>
        <time>2025-04-30T11:26:48.666Z</time>
      </trkpt>
      <trkpt lat="47.76688" lon="6.52418">
        <ele>433.47</ele>
        <time>2025-04-30T11:26:56.141Z</time>
      </trkpt>
      <trkpt lat="47.7669" lon="6.52418">
        <ele>433.54</ele>
        <time>2025-04-30T11:27:03.617Z</time>
      </trkpt>
      <trkpt lat="47.76693" lon="6.52419">
        <ele>433.61</ele>
        <time>2025-04-30T11:27:11.093Z</time>
      </trkpt>
      <trkpt lat="47.76695" lon="6.5242">
        <ele>433.67</ele>
        <time>2025-04-30T11:27:18.570Z</time>
      </trkpt>
      <trkpt lat="47.76698" lon="6.52418">
        <ele>433.73</ele>
        <time>2025-04-30T11:27:26.047Z</time>
      </trkpt>
      <trkpt lat="47.76708" lon="6.5242">
        <ele>433.78</ele>
        <time>2025-04-30T11:27:33.526Z</time>
      </trkpt>
      <trkpt lat="47.76713" lon="6.52423">
        <ele>433.84</ele>
        <time>2025-04-30T11:27:41.007Z</time>
      </trkpt>
      <trkpt lat="47.76716" lon="6.52425">
        <ele>433.9</ele>
        <time>2025-04-30T11:27:48.488Z</time>
      </trkpt>
      <trkpt lat="47.76719" lon="6.5243">
        <ele>433.97</ele>
        <time>2025-04-30T11:27:55.970Z</time>
      </trkpt>
      <trkpt lat="47.76722" lon="6.52433">
        <ele>434.04</ele>
        <time>2025-04-30T11:28:03.453Z</time>
      </trkpt>
      <trkpt lat="47.76725" lon="6.52437">
        <ele>434.1</ele>
        <time>2025-04-30T11:28:10.937Z</time>
      </trkpt>
      <trkpt lat="47.76729" lon="6.52442">
        <ele>434.17</ele>
        <time>2025-04-30T11:28:18.422Z</time>
      </trkpt>
      <trkpt lat="47.76734" lon="6.52447">
        <ele>434.25</ele>
        <time>2025-04-30T11:28:25.908Z</time>
      </trkpt>
      <trkpt lat="47.76747" lon="6.5246">
        <ele>434.36</ele>
        <time>2025-04-30T11:28:33.398Z</time>
      </trkpt>
      <trkpt lat="47.76751" lon="6.52465">
        <ele>434.43</ele>
        <time>2025-04-30T11:28:40.889Z</time>
      </trkpt>
      <trkpt lat="47.76754" lon="6.52469">
        <ele>434.5</ele>
        <time>2025-04-30T11:28:48.381Z</time>
      </trkpt>
      <trkpt lat="47.76763" lon="6.52478">
        <ele>434.57</ele>
        <time>2025-04-30T11:28:55.875Z</time>
      </trkpt>
      <trkpt lat="47.76779" lon="6.52495">
        <ele>434.64</ele>
        <time>2025-04-30T11:29:03.373Z</time>
      </trkpt>
      <trkpt lat="47.76783" lon="6.52499">
        <ele>434.69</ele>
        <time>2025-04-30T11:29:10.872Z</time>
      </trkpt>
      <trkpt lat="47.76786" lon="6.52504">
        <ele>434.74</ele>
        <time>2025-04-30T11:29:18.372Z</time>
      </trkpt>
      <trkpt lat="47.7679" lon="6.52509">
        <ele>434.77</ele>
        <time>2025-04-30T11:29:25.873Z</time>
      </trkpt>
      <trkpt lat="47.76793" lon="6.52513">
        <ele>434.8</ele>
        <time>2025-04-30T11:29:33.375Z</time>
      </trkpt>
      <trkpt lat="47.76797" lon="6.52518">
        <ele>434.82</ele>
        <time>2025-04-30T11:29:40.878Z</time>
      </trkpt>
      <trkpt lat="47.768" lon="6.52521">
        <ele>434.84</ele>
        <time>2025-04-30T11:29:48.382Z</time>
      </trkpt>
      <trkpt lat="47.76803" lon="6.52525">
        <ele>434.84</ele>
        <time>2025-04-30T11:29:55.887Z</time>
      </trkpt>
      <trkpt lat="47.76806" lon="6.52529">
        <ele>434.85</ele>
        <time>2025-04-30T11:30:03.393Z</time>
      </trkpt>
      <trkpt lat="47.76809" lon="6.52534">
        <ele>434.84</ele>
        <time>2025-04-30T11:30:10.900Z</time>
      </trkpt>
      <trkpt lat="47.76812" lon="6.52539">
        <ele>434.83</ele>
        <time>2025-04-30T11:30:18.408Z</time>
      </trkpt>
      <trkpt lat="47.76814" lon="6.52544">
        <ele>434.81</ele>
        <time>2025-04-30T11:30:25.917Z</time>
      </trkpt>
      <trkpt lat="47.76814" lon="6.52548">
        <ele>434.78</ele>
        <time>2025-04-30T11:30:33.426Z</time>
      </trkpt>
      <trkpt lat="47.76814" lon="6.52555">
        <ele>434.74</ele>
        <time>2025-04-30T11:30:40.936Z</time>
      </trkpt>
      <trkpt lat="47.76815" lon="6.52561">
        <ele>434.7</ele>
        <time>2025-04-30T11:30:48.447Z</time>
      </trkpt>
      <trkpt lat="47.76815" lon="6.52566">
        <ele>434.64</ele>
        <time>2025-04-30T11:30:55.959Z</time>
      </trkpt>
      <trkpt lat="47.76814" lon="6.52572">
        <ele>434.58</ele>
        <time>2025-04-30T11:31:03.472Z</time>
      </trkpt>
      <trkpt lat="47.7681" lon="6.52579">
        <ele>434.51</ele>
        <time>2025-04-30T11:31:10.986Z</time>
      </trkpt>
      <trkpt lat="47.76807" lon="6.52584">
        <ele>434.44</ele>
        <time>2025-04-30T11:31:18.501Z</time>
      </trkpt>
      <trkpt lat="47.76805" lon="6.5259">
        <ele>434.36</ele>
        <time>2025-04-30T11:31:26.017Z</time>
      </trkpt>
      <trkpt lat="47.76804" lon="6.52596">
        <ele>434.28</ele>
        <time>2025-04-30T11:31:33.534Z</time>
      </trkpt>
      <trkpt lat="47.76801" lon="6.52603">
        <ele>434.19</ele>
        <time>2025-04-30T11:31:41.052Z</time>
      </trkpt>
      <trkpt lat="47.768" lon="6.52609">
        <ele>434.08</ele>
        <time>2025-04-30T11:31:48.571Z</time>
      </trkpt>
      <trkpt lat="47.76796" lon="6.52614">
        <ele>433.96</ele>
        <time>2025-04-30T11:31:56.091Z</time>
      </trkpt>
      <trkpt lat="47.76795" lon="6.5262">
        <ele>433.84</ele>
        <time>2025-04-30T11:32:03.612Z</time>
      </trkpt>
      <trkpt lat="47.76785" lon="6.52652">
        <ele>433.65</ele>
        <time>2025-04-30T11:32:11.138Z</time>
      </trkpt>
      <trkpt lat="47.76785" lon="6.52662">
        <ele>433.5</ele>
        <time>2025-04-30T11:32:18.665Z</time>
      </trkpt>
      <trkpt lat="47.76785" lon="6.52668">
        <ele>433.36</ele>
        <time>2025-04-30T11:32:26.193Z</time>
      </trkpt>
      <trkpt lat="47.76785" lon="6.52676">
        <ele>433.21</ele>
        <time>2025-04-30T11:32:33.723Z</time>
      </trkpt>
      <trkpt lat="47.76785" lon="6.52684">
        <ele>433.06</ele>
        <time>2025-04-30T11:32:41.254Z</time>
      </trkpt>
      <trkpt lat="47.76789" lon="6.52689">
        <ele>432.91</ele>
        <time>2025-04-30T11:32:48.786Z</time>
      </trkpt>
      <trkpt lat="47.76791" lon="6.52695">
        <ele>432.77</ele>
        <time>2025-04-30T11:32:56.319Z</time>
      </trkpt>
      <trkpt lat="47.76793" lon="6.52702">
        <ele>432.64</ele>
        <time>2025-04-30T11:33:03.853Z</time>
      </trkpt>
      <trkpt lat="47.76798" lon="6.52716">
        <ele>432.5</ele>
        <time>2025-04-30T11:33:11.389Z</time>
      </trkpt>
      <trkpt lat="47.76799" lon="6.52719">
        <ele>432.36</ele>
        <time>2025-04-30T11:33:18.925Z</time>
      </trkpt>
      <trkpt lat="47.76799" lon="6.52721">
        <ele>432.22</ele>
        <time>2025-04-30T11:33:26.462Z</time>
      </trkpt>
      <trkpt lat="47.76799" lon="6.52723">
        <ele>432.08</ele>
        <time>2025-04-30T11:33:33.999Z</time>
      </trkpt>
      <trkpt lat="47.76798" lon="6.52728">
        <ele>431.94</ele>
        <time>2025-04-30T11:33:41.537Z</time>
      </trkpt>
      <trkpt lat="47.76797" lon="6.52732">
        <ele>431.79</ele>
        <time>2025-04-30T11:33:49.075Z</time>
      </trkpt>
      <trkpt lat="47.76794" lon="6.52739">
        <ele>431.64</ele>
        <time>2025-04-30T11:33:56.615Z</time>
      </trkpt>
      <trkpt lat="47.76793" lon="6.52747">
        <ele>431.49</ele>
        <time>2025-04-30T11:34:04.156Z</time>
      </trkpt>
      <trkpt lat="47.76792" lon="6.52756">
        <ele>431.35</ele>
        <time>2025-04-30T11:34:11.698Z</time>
      </trkpt>
      <trkpt lat="47.76792" lon="6.52761">
        <ele>431.22</ele>
        <time>2025-04-30T11:34:19.241Z</time>
      </trkpt>
      <trkpt lat="47.7679" lon="6.52771">
        <ele>431.08</ele>
        <time>2025-04-30T11:34:26.785Z</time>
      </trkpt>
      <trkpt lat="47.76787" lon="6.52778">
        <ele>430.94</ele>
        <time>2025-04-30T11:34:34.330Z</time>
      </trkpt>
      <trkpt lat="47.76782" lon="6.52807">
        <ele>430.82</ele>
        <time>2025-04-30T11:34:41.880Z</time>
      </trkpt>
      <trkpt lat="47.76779" lon="6.52814">
        <ele>430.68</ele>
        <time>2025-04-30T11:34:49.431Z</time>
      </trkpt>
      <trkpt lat="47.76782" lon="6.52836">
        <ele>430.6</ele>
        <time>2025-04-30T11:34:56.985Z</time>
      </trkpt>
      <trkpt lat="47.76782" lon="6.52843">
        <ele>430.48</ele>
        <time>2025-04-30T11:35:04.540Z</time>
      </trkpt>
      <trkpt lat="47.76778" lon="6.52854">
        <ele>430.36</ele>
        <time>2025-04-30T11:35:12.097Z</time>
      </trkpt>
      <trkpt lat="47.76777" lon="6.52859">
        <ele>430.23</ele>
        <time>2025-04-30T11:35:19.655Z</time>
      </trkpt>
      <trkpt lat="47.76775" lon="6.52864">
        <ele>430.1</ele>
        <time>2025-04-30T11:35:27.214Z</time>
      </trkpt>
      <trkpt lat="47.76772" lon="6.52869">
        <ele>429.94</ele>
        <time>2025-04-30T11:35:34.774Z</time>
      </trkpt>
      <trkpt lat="47.76769" lon="6.52875">
        <ele>429.78</ele>
        <time>2025-04-30T11:35:42.335Z</time>
      </trkpt>
      <trkpt lat="47.76766" lon="6.5288">
        <ele>429.63</ele>
        <time>2025-04-30T11:35:49.897Z</time>
      </trkpt>
      <trkpt lat="47.76762" lon="6.52888">
        <ele>429.47</ele>
        <time>2025-04-30T11:35:57.460Z</time>
      </trkpt>
      <trkpt lat="47.7676" lon="6.52892">
        <ele>429.3</ele>
        <time>2025-04-30T11:36:05.024Z</time>
      </trkpt>
      <trkpt lat="47.76758" lon="6.52896">
        <ele>429.12</ele>
        <time>2025-04-30T11:36:12.589Z</time>
      </trkpt>
      <trkpt lat="47.76756" lon="6.529">
        <ele>428.94</ele>
        <time>2025-04-30T11:36:20.154Z</time>
      </trkpt>
      <trkpt lat="47.76756" lon="6.52903">
        <ele>428.76</ele>
        <time>2025-04-30T11:36:27.720Z</time>
      </trkpt>
      <trkpt lat="47.76756" lon="6.52906">
        <ele>428.57</ele>
        <time>2025-04-30T11:36:35.286Z</time>
      </trkpt>
      <trkpt lat="47.76756" lon="6.52908">
        <ele>428.38</ele>
        <time>2025-04-30T11:36:42.852Z</time>
      </trkpt>
      <trkpt lat="47.76755" lon="6.5291">
        <ele>428.17</ele>
        <time>2025-04-30T11:36:50.419Z</time>
      </trkpt>
      <trkpt lat="47.76753" lon="6.52912">
        <ele>427.96</ele>
        <time>2025-04-30T11:36:57.986Z</time>
      </trkpt>
      <trkpt lat="47.76748" lon="6.52922">
        <ele>427.72</ele>
        <time>2025-04-30T11:37:05.555Z</time>
      </trkpt>
      <trkpt lat="47.76746" lon="6.52926">
        <ele>427.49</ele>
        <time>2025-04-30T11:37:13.125Z</time>
      </trkpt>
      <trkpt lat="47.76744" lon="6.5293">
        <ele>427.24</ele>
        <time>2025-04-30T11:37:20.695Z</time>
      </trkpt>
      <trkpt lat="47.76739" lon="6.52945">
        <ele>426.99</ele>
        <time>2025-04-30T11:37:28.268Z</time>
      </trkpt>
      <trkpt lat="47.76737" lon="6.52947">
        <ele>426.74</ele>
        <time>2025-04-30T11:37:35.841Z</time>
      </trkpt>
      <trkpt lat="47.76735" lon="6.52949">
        <ele>426.48</ele>
        <time>2025-04-30T11:37:43.415Z</time>
      </trkpt>
      <trkpt lat="47.76734" lon="6.52952">
        <ele>426.21</ele>
        <time>2025-04-30T11:37:50.989Z</time>
      </trkpt>
      <trkpt lat="47.7673" lon="6.52957">
        <ele>425.93</ele>
        <time>2025-04-30T11:37:58.564Z</time>
      </trkpt>
      <trkpt lat="47.76725" lon="6.52967">
        <ele>425.61</ele>
        <time>2025-04-30T11:38:06.141Z</time>
      </trkpt>
      <trkpt lat="47.76724" lon="6.5297">
        <ele>425.32</ele>
        <time>2025-04-30T11:38:13.719Z</time>
      </trkpt>
      <trkpt lat="47.76722" lon="6.52983">
        <ele>425.01</ele>
        <time>2025-04-30T11:38:21.299Z</time>
      </trkpt>
      <trkpt lat="47.76722" lon="6.52986">
        <ele>424.7</ele>
        <time>2025-04-30T11:38:28.879Z</time>
      </trkpt>
      <trkpt lat="47.76722" lon="6.5299">
        <ele>424.38</ele>
        <time>2025-04-30T11:38:36.460Z</time>
      </trkpt>
      <trkpt lat="47.76723" lon="6.52993">
        <ele>424.06</ele>
        <time>2025-04-30T11:38:44.041Z</time>
      </trkpt>
      <trkpt lat="47.76724" lon="6.52996">
        <ele>423.72</ele>
        <time>2025-04-30T11:38:51.623Z</time>
      </trkpt>
      <trkpt lat="47.76724" lon="6.53001">
        <ele>423.36</ele>
        <time>2025-04-30T11:38:59.205Z</time>
      </trkpt>
      <trkpt lat="47.76723" lon="6.53005">
        <ele>423</ele>
        <time>2025-04-30T11:39:06.788Z</time>
      </trkpt>
      <trkpt lat="47.76721" lon="6.53006">
        <ele>422.62</ele>
        <time>2025-04-30T11:39:14.371Z</time>
      </trkpt>
      <trkpt lat="47.76718" lon="6.53009">
        <ele>422.22</ele>
        <time>2025-04-30T11:39:21.955Z</time>
      </trkpt>
      <trkpt lat="47.76711" lon="6.53013">
        <ele>421.79</ele>
        <time>2025-04-30T11:39:29.541Z</time>
      </trkpt>
      <trkpt lat="47.76706" lon="6.53022">
        <ele>421.34</ele>
        <time>2025-04-30T11:39:37.128Z</time>
      </trkpt>
      <trkpt lat="47.76703" lon="6.53027">
        <ele>420.9</ele>
        <time>2025-04-30T11:39:44.716Z</time>
      </trkpt>
      <trkpt lat="47.76699" lon="6.53032">
        <ele>420.43</ele>
        <time>2025-04-30T11:39:52.305Z</time>
      </trkpt>
      <trkpt lat="47.76697" lon="6.53038">
        <ele>419.96</ele>
        <time>2025-04-30T11:39:59.895Z</time>
      </trkpt>
      <trkpt lat="47.76695" lon="6.53043">
        <ele>419.48</ele>
        <time>2025-04-30T11:40:07.486Z</time>
      </trkpt>
      <trkpt lat="47.76694" lon="6.53046">
        <ele>418.99</ele>
        <time>2025-04-30T11:40:15.078Z</time>
      </trkpt>
      <trkpt lat="47.76692" lon="6.53049">
        <ele>418.47</ele>
        <time>2025-04-30T11:40:22.670Z</time>
      </trkpt>
      <trkpt lat="47.76686" lon="6.53059">
        <ele>417.92</ele>
        <time>2025-04-30T11:40:30.264Z</time>
      </trkpt>
      <trkpt lat="47.76683" lon="6.53069">
        <ele>417.36</ele>
        <time>2025-04-30T11:40:37.860Z</time>
      </trkpt>
      <trkpt lat="47.76681" lon="6.53074">
        <ele>416.79</ele>
        <time>2025-04-30T11:40:45.457Z</time>
      </trkpt>
      <trkpt lat="47.76678" lon="6.53079">
        <ele>416.21</ele>
        <time>2025-04-30T11:40:53.055Z</time>
      </trkpt>
      <trkpt lat="47.76675" lon="6.53082">
        <ele>415.61</ele>
        <time>2025-04-30T11:41:00.653Z</time>
      </trkpt>
      <trkpt lat="47.76673" lon="6.53087">
        <ele>414.99</ele>
        <time>2025-04-30T11:41:08.252Z</time>
      </trkpt>
      <trkpt lat="47.76672" lon="6.53094">
        <ele>414.35</ele>
        <time>2025-04-30T11:41:15.852Z</time>
      </trkpt>
      <trkpt lat="47.76672" lon="6.531">
        <ele>413.7</ele>
        <time>2025-04-30T11:41:23.453Z</time>
      </trkpt>
      <trkpt lat="47.76673" lon="6.5311">
        <ele>413.03</ele>
        <time>2025-04-30T11:41:31.056Z</time>
      </trkpt>
      <trkpt lat="47.76674" lon="6.53118">
        <ele>412.35</ele>
        <time>2025-04-30T11:41:38.660Z</time>
      </trkpt>
      <trkpt lat="47.76677" lon="6.53127">
        <ele>411.65</ele>
        <time>2025-04-30T11:41:46.265Z</time>
      </trkpt>
      <trkpt lat="47.76678" lon="6.53137">
        <ele>410.92</ele>
        <time>2025-04-30T11:41:53.872Z</time>
      </trkpt>
      <trkpt lat="47.7668" lon="6.53153">
        <ele>410.15</ele>
        <time>2025-04-30T11:42:01.481Z</time>
      </trkpt>
      <trkpt lat="47.76682" lon="6.53161">
        <ele>409.39</ele>
        <time>2025-04-30T11:42:09.091Z</time>
      </trkpt>
      <trkpt lat="47.76686" lon="6.53178">
        <ele>408.57</ele>
        <time>2025-04-30T11:42:16.704Z</time>
      </trkpt>
      <trkpt lat="47.7669" lon="6.53192">
        <ele>407.74</ele>
        <time>2025-04-30T11:42:24.319Z</time>
      </trkpt>
      <trkpt lat="47.76693" lon="6.53195">
        <ele>406.93</ele>
        <time>2025-04-30T11:42:31.935Z</time>
      </trkpt>
      <trkpt lat="47.76697" lon="6.53201">
        <ele>406.1</ele>
        <time>2025-04-30T11:42:39.552Z</time>
      </trkpt>
      <trkpt lat="47.76701" lon="6.53206">
        <ele>405.25</ele>
        <time>2025-04-30T11:42:47.170Z</time>
      </trkpt>
      <trkpt lat="47.76706" lon="6.53211">
        <ele>404.4</ele>
        <time>2025-04-30T11:42:54.790Z</time>
      </trkpt>
      <trkpt lat="47.7671" lon="6.53219">
        <ele>403.52</ele>
        <time>2025-04-30T11:43:02.411Z</time>
      </trkpt>
      <trkpt lat="47.76712" lon="6.53223">
        <ele>402.64</ele>
        <time>2025-04-30T11:43:10.033Z</time>
      </trkpt>
      <trkpt lat="47.76714" lon="6.53227">
        <ele>401.75</ele>
        <time>2025-04-30T11:43:17.656Z</time>
      </trkpt>
      <trkpt lat="47.76715" lon="6.53231">
        <ele>400.86</ele>
        <time>2025-04-30T11:43:25.279Z</time>
      </trkpt>
      <trkpt lat="47.76715" lon="6.53237">
        <ele>399.95</ele>
        <time>2025-04-30T11:43:32.903Z</time>
      </trkpt>
      <trkpt lat="47.76713" lon="6.53242">
        <ele>399.02</ele>
        <time>2025-04-30T11:43:40.528Z</time>
      </trkpt>
      <trkpt lat="47.7671" lon="6.53245">
        <ele>398.09</ele>
        <time>2025-04-30T11:43:48.154Z</time>
      </trkpt>
      <trkpt lat="47.76702" lon="6.5325">
        <ele>397.14</ele>
        <time>2025-04-30T11:43:55.781Z</time>
      </trkpt>
      <trkpt lat="47.76698" lon="6.53254">
        <ele>396.22</ele>
        <time>2025-04-30T11:44:03.409Z</time>
      </trkpt>
      <trkpt lat="47.76695" lon="6.53258">
        <ele>395.31</ele>
        <time>2025-04-30T11:44:11.038Z</time>
      </trkpt>
      <trkpt lat="47.76693" lon="6.53261">
        <ele>394.42</ele>
        <time>2025-04-30T11:44:18.668Z</time>
      </trkpt>
      <trkpt lat="47.7669" lon="6.53264">
        <ele>393.53</ele>
        <time>2025-04-30T11:44:26.299Z</time>
      </trkpt>
      <trkpt lat="47.76686" lon="6.53268">
        <ele>392.64</ele>
        <time>2025-04-30T11:44:33.931Z</time>
      </trkpt>
      <trkpt lat="47.7667" lon="6.53285">
        <ele>391.69</ele>
        <time>2025-04-30T11:44:41.567Z</time>
      </trkpt>
      <trkpt lat="47.76661" lon="6.53299">
        <ele>390.81</ele>
        <time>2025-04-30T11:44:49.206Z</time>
      </trkpt>
      <trkpt lat="47.76649" lon="6.53312">
        <ele>389.98</ele>
        <time>2025-04-30T11:44:56.848Z</time>
      </trkpt>
      <trkpt lat="47.76643" lon="6.53318">
        <ele>389.18</ele>
        <time>2025-04-30T11:45:04.492Z</time>
      </trkpt>
      <trkpt lat="47.76638" lon="6.53324">
        <ele>388.4</ele>
        <time>2025-04-30T11:45:12.137Z</time>
      </trkpt>
      <trkpt lat="47.76634" lon="6.53329">
        <ele>387.65</ele>
        <time>2025-04-30T11:45:19.783Z</time>
      </trkpt>
      <trkpt lat="47.7663" lon="6.53334">
        <ele>386.94</ele>
        <time>2025-04-30T11:45:27.430Z</time>
      </trkpt>
      <trkpt lat="47.76616" lon="6.5335">
        <ele>386.2</ele>
        <time>2025-04-30T11:45:35.081Z</time>
      </trkpt>
      <trkpt lat="47.76606" lon="6.53362">
        <ele>385.5</ele>
        <time>2025-04-30T11:45:42.735Z</time>
      </trkpt>
      <trkpt lat="47.76604" lon="6.53365">
        <ele>384.89</ele>
        <time>2025-04-30T11:45:50.389Z</time>
      </trkpt>
      <trkpt lat="47.76605" lon="6.53371">
        <ele>384.32</ele>
        <time>2025-04-30T11:45:58.044Z</time>
      </trkpt>
      <trkpt lat="47.76606" lon="6.53377">
        <ele>383.8</ele>
        <time>2025-04-30T11:46:05.700Z</time>
      </trkpt>
      <trkpt lat="47.76606" lon="6.53387">
        <ele>383.31</ele>
        <time>2025-04-30T11:46:13.358Z</time>
      </trkpt>
      <trkpt lat="47.76607" lon="6.53392">
        <ele>382.85</ele>
        <time>2025-04-30T11:46:21.016Z</time>
      </trkpt>
      <trkpt lat="47.76608" lon="6.53399">
        <ele>382.43</ele>
        <time>2025-04-30T11:46:28.675Z</time>
      </trkpt>
      <trkpt lat="47.76608" lon="6.53406">
        <ele>382.06</ele>
        <time>2025-04-30T11:46:36.335Z</time>
      </trkpt>
      <trkpt lat="47.76605" lon="6.5342">
        <ele>381.69</ele>
        <time>2025-04-30T11:46:43.998Z</time>
      </trkpt>
      <trkpt lat="47.76603" lon="6.53426">
        <ele>381.39</ele>
        <time>2025-04-30T11:46:51.661Z</time>
      </trkpt>
      <trkpt lat="47.76602" lon="6.5343">
        <ele>381.13</ele>
        <time>2025-04-30T11:46:59.325Z</time>
      </trkpt>
      <trkpt lat="47.76601" lon="6.53436">
        <ele>380.92</ele>
        <time>2025-04-30T11:47:06.990Z</time>
      </trkpt>
      <trkpt lat="47.76596" lon="6.53465">
        <ele>380.73</ele>
        <time>2025-04-30T11:47:14.659Z</time>
      </trkpt>
      <trkpt lat="47.76594" lon="6.5347">
        <ele>380.6</ele>
        <time>2025-04-30T11:47:22.329Z</time>
      </trkpt>
      <trkpt lat="47.76593" lon="6.53475">
        <ele>380.52</ele>
        <time>2025-04-30T11:47:30.000Z</time>
      </trkpt>
      <trkpt lat="47.7659" lon="6.5349">
        <ele>380.51</ele>
        <time>2025-04-30T11:47:37.673Z</time>
      </trkpt>
      <trkpt lat="47.76588" lon="6.53502">
        <ele>380.53</ele>
        <time>2025-04-30T11:47:45.348Z</time>
      </trkpt>
      <trkpt lat="47.76587" lon="6.53505">
        <ele>380.58</ele>
        <time>2025-04-30T11:47:53.023Z</time>
      </trkpt>
      <trkpt lat="47.76587" lon="6.53508">
        <ele>380.67</ele>
        <time>2025-04-30T11:48:00.699Z</time>
      </trkpt>
      <trkpt lat="47.76585" lon="6.53513">
        <ele>380.81</ele>
        <time>2025-04-30T11:48:08.376Z</time>
      </trkpt>
      <trkpt lat="47.76583" lon="6.53521">
        <ele>380.99</ele>
        <time>2025-04-30T11:48:16.054Z</time>
      </trkpt>
      <trkpt lat="47.7658" lon="6.53528">
        <ele>381.23</ele>
        <time>2025-04-30T11:48:23.733Z</time>
      </trkpt>
      <trkpt lat="47.7658" lon="6.53531">
        <ele>381.48</ele>
        <time>2025-04-30T11:48:31.413Z</time>
      </trkpt>
      <trkpt lat="47.76579" lon="6.53536">
        <ele>381.76</ele>
        <time>2025-04-30T11:48:39.093Z</time>
      </trkpt>
      <trkpt lat="47.76579" lon="6.53541">
        <ele>382.07</ele>
        <time>2025-04-30T11:48:46.774Z</time>
      </trkpt>
      <trkpt lat="47.7658" lon="6.53545">
        <ele>382.4</ele>
        <time>2025-04-30T11:48:54.456Z</time>
      </trkpt>
      <trkpt lat="47.7658" lon="6.5355">
        <ele>382.77</ele>
        <time>2025-04-30T11:49:02.138Z</time>
      </trkpt>
      <trkpt lat="47.76583" lon="6.53558">
        <ele>383.17</ele>
        <time>2025-04-30T11:49:09.822Z</time>
      </trkpt>
      <trkpt lat="47.76585" lon="6.5356">
        <ele>383.55</ele>
        <time>2025-04-30T11:49:17.506Z</time>
      </trkpt>
      <trkpt lat="47.76588" lon="6.53562">
        <ele>383.96</ele>
        <time>2025-04-30T11:49:25.191Z</time>
      </trkpt>
      <trkpt lat="47.7659" lon="6.53565">
        <ele>384.39</ele>
        <time>2025-04-30T11:49:32.876Z</time>
      </trkpt>
      <trkpt lat="47.76593" lon="6.53567">
        <ele>384.84</ele>
        <time>2025-04-30T11:49:40.562Z</time>
      </trkpt>
      <trkpt lat="47.76594" lon="6.53571">
        <ele>385.31</ele>
        <time>2025-04-30T11:49:48.249Z</time>
      </trkpt>
      <trkpt lat="47.76596" lon="6.53576">
        <ele>385.81</ele>
        <time>2025-04-30T11:49:55.937Z</time>
      </trkpt>
      <trkpt lat="47.76599" lon="6.53582">
        <ele>386.32</ele>
        <time>2025-04-30T11:50:03.626Z</time>
      </trkpt>
      <trkpt lat="47.76601" lon="6.5359">
        <ele>386.85</ele>
        <time>2025-04-30T11:50:11.316Z</time>
      </trkpt>
      <trkpt lat="47.76603" lon="6.53595">
        <ele>387.38</ele>
        <time>2025-04-30T11:50:19.007Z</time>
      </trkpt>
      <trkpt lat="47.76607" lon="6.53599">
        <ele>387.91</ele>
        <time>2025-04-30T11:50:26.699Z</time>
      </trkpt>
      <trkpt lat="47.76611" lon="6.53606">
        <ele>388.46</ele>
        <time>2025-04-30T11:50:34.392Z</time>
      </trkpt>
      <trkpt lat="47.76614" lon="6.53613">
        <ele>389.02</ele>
        <time>2025-04-30T11:50:42.086Z</time>
      </trkpt>
      <trkpt lat="47.76617" lon="6.53617">
        <ele>389.59</ele>
        <time>2025-04-30T11:50:49.781Z</time>
      </trkpt>
      <trkpt lat="47.76619" lon="6.5362">
        <ele>390.16</ele>
        <time>2025-04-30T11:50:57.477Z</time>
      </trkpt>
      <trkpt lat="47.76622" lon="6.53624">
        <ele>390.75</ele>
        <time>2025-04-30T11:51:05.173Z</time>
      </trkpt>
      <trkpt lat="47.76627" lon="6.53629">
        <ele>391.34</ele>
        <time>2025-04-30T11:51:12.871Z</time>
      </trkpt>
      <trkpt lat="47.76629" lon="6.53632">
        <ele>391.94</ele>
        <time>2025-04-30T11:51:20.569Z</time>
      </trkpt>
      <trkpt lat="47.7663" lon="6.53635">
        <ele>392.54</ele>
        <time>2025-04-30T11:51:28.268Z</time>
      </trkpt>
      <trkpt lat="47.76632" lon="6.53639">
        <ele>393.13</ele>
        <time>2025-04-30T11:51:35.968Z</time>
      </trkpt>
      <trkpt lat="47.76632" lon="6.53641">
        <ele>393.73</ele>
        <time>2025-04-30T11:51:43.668Z</time>
      </trkpt>
      <trkpt lat="47.76633" lon="6.53642">
        <ele>394.31</ele>
        <time>2025-04-30T11:51:51.368Z</time>
      </trkpt>
      <trkpt lat="47.76635" lon="6.53643">
        <ele>394.89</ele>
        <time>2025-04-30T11:51:59.068Z</time>
      </trkpt>
      <trkpt lat="47.76636" lon="6.53644">
        <ele>395.47</ele>
        <time>2025-04-30T11:52:06.769Z</time>
      </trkpt>
      <trkpt lat="47.76637" lon="6.53645">
        <ele>396.06</ele>
        <time>2025-04-30T11:52:14.470Z</time>
      </trkpt>
      <trkpt lat="47.76639" lon="6.53647">
        <ele>396.64</ele>
        <time>2025-04-30T11:52:22.172Z</time>
      </trkpt>
      <trkpt lat="47.7664" lon="6.5365">
        <ele>397.23</ele>
        <time>2025-04-30T11:52:29.874Z</time>
      </trkpt>
      <trkpt lat="47.76641" lon="6.53654">
        <ele>397.83</ele>
        <time>2025-04-30T11:52:37.577Z</time>
      </trkpt>
      <trkpt lat="47.76643" lon="6.53658">
        <ele>398.42</ele>
        <time>2025-04-30T11:52:45.280Z</time>
      </trkpt>
      <trkpt lat="47.76646" lon="6.53661">
        <ele>399</ele>
        <time>2025-04-30T11:52:52.984Z</time>
      </trkpt>
      <trkpt lat="47.76649" lon="6.53664">
        <ele>399.57</ele>
        <time>2025-04-30T11:53:00.689Z</time>
      </trkpt>
      <trkpt lat="47.76652" lon="6.53667">
        <ele>400.13</ele>
        <time>2025-04-30T11:53:08.395Z</time>
      </trkpt>
      <trkpt lat="47.76653" lon="6.5367">
        <ele>400.7</ele>
        <time>2025-04-30T11:53:16.101Z</time>
      </trkpt>
      <trkpt lat="47.76656" lon="6.53672">
        <ele>401.26</ele>
        <time>2025-04-30T11:53:23.808Z</time>
      </trkpt>
      <trkpt lat="47.76658" lon="6.53676">
        <ele>401.82</ele>
        <time>2025-04-30T11:53:31.515Z</time>
      </trkpt>
      <trkpt lat="47.76661" lon="6.53679">
        <ele>402.37</ele>
        <time>2025-04-30T11:53:39.223Z</time>
      </trkpt>
      <trkpt lat="47.76663" lon="6.53682">
        <ele>402.92</ele>
        <time>2025-04-30T11:53:46.932Z</time>
      </trkpt>
      <trkpt lat="47.76665" lon="6.53685">
        <ele>403.48</ele>
        <time>2025-04-30T11:53:54.641Z</time>
      </trkpt>
      <trkpt lat="47.76666" lon="6.53688">
        <ele>404.03</ele>
        <time>2025-04-30T11:54:02.351Z</time>
      </trkpt>
      <trkpt lat="47.76667" lon="6.53692">
        <ele>404.6</ele>
        <time>2025-04-30T11:54:10.062Z</time>
      </trkpt>
      <trkpt lat="47.76667" lon="6.53696">
        <ele>405.16</ele>
        <time>2025-04-30T11:54:17.773Z</time>
      </trkpt>
      <trkpt lat="47.7667" lon="6.53699">
        <ele>405.71</ele>
        <time>2025-04-30T11:54:25.485Z</time>
      </trkpt>
      <trkpt lat="47.76672" lon="6.53704">
        <ele>406.26</ele>
        <time>2025-04-30T11:54:33.198Z</time>
      </trkpt>
      <trkpt lat="47.76674" lon="6.53707">
        <ele>406.8</ele>
        <time>2025-04-30T11:54:40.911Z</time>
      </trkpt>
      <trkpt lat="47.76674" lon="6.5371">
        <ele>407.35</ele>
        <time>2025-04-30T11:54:48.625Z</time>
      </trkpt>
      <trkpt lat="47.76676" lon="6.53713">
        <ele>407.87</ele>
        <time>2025-04-30T11:54:56.339Z</time>
      </trkpt>
      <trkpt lat="47.76674" lon="6.53716">
        <ele>408.42</ele>
        <time>2025-04-30T11:55:04.054Z</time>
      </trkpt>
      <trkpt lat="47.76675" lon="6.53719">
        <ele>408.96</ele>
        <time>2025-04-30T11:55:11.769Z</time>
      </trkpt>
      <trkpt lat="47.76676" lon="6.53722">
        <ele>409.47</ele>
        <time>2025-04-30T11:55:19.485Z</time>
      </trkpt>
      <trkpt lat="47.76678" lon="6.53726">
        <ele>409.98</ele>
        <time>2025-04-30T11:55:27.201Z</time>
      </trkpt>
      <trkpt lat="47.7668" lon="6.5373">
        <ele>410.47</ele>
        <time>2025-04-30T11:55:34.918Z</time>
      </trkpt>
      <trkpt lat="47.76681" lon="6.53734">
        <ele>410.97</ele>
        <time>2025-04-30T11:55:42.636Z</time>
      </trkpt>
      <trkpt lat="47.76682" lon="6.53738">
        <ele>411.47</ele>
        <time>2025-04-30T11:55:50.354Z</time>
      </trkpt>
      <trkpt lat="47.76684" lon="6.53743">
        <ele>411.96</ele>
        <time>2025-04-30T11:55:58.073Z</time>
      </trkpt>
      <trkpt lat="47.76685" lon="6.53747">
        <ele>412.45</ele>
        <time>2025-04-30T11:56:05.793Z</time>
      </trkpt>
      <trkpt lat="47.76685" lon="6.5375">
        <ele>412.93</ele>
        <time>2025-04-30T11:56:13.513Z</time>
      </trkpt>
      <trkpt lat="47.76686" lon="6.53754">
        <ele>413.41</ele>
        <time>2025-04-30T11:56:21.234Z</time>
      </trkpt>
      <trkpt lat="47.76687" lon="6.53757">
        <ele>413.88</ele>
        <time>2025-04-30T11:56:28.955Z</time>
      </trkpt>
      <trkpt lat="47.76688" lon="6.53761">
        <ele>414.36</ele>
        <time>2025-04-30T11:56:36.677Z</time>
      </trkpt>
      <trkpt lat="47.7669" lon="6.53765">
        <ele>414.83</ele>
        <time>2025-04-30T11:56:44.400Z</time>
      </trkpt>
      <trkpt lat="47.76692" lon="6.53768">
        <ele>415.28</ele>
        <time>2025-04-30T11:56:52.123Z</time>
      </trkpt>
      <trkpt lat="47.76694" lon="6.53771">
        <ele>415.74</ele>
        <time>2025-04-30T11:56:59.847Z</time>
      </trkpt>
      <trkpt lat="47.76695" lon="6.53773">
        <ele>416.21</ele>
        <time>2025-04-30T11:57:07.571Z</time>
      </trkpt>
      <trkpt lat="47.76697" lon="6.53777">
        <ele>416.67</ele>
        <time>2025-04-30T11:57:15.296Z</time>
      </trkpt>
      <trkpt lat="47.767" lon="6.53781">
        <ele>417.15</ele>
        <time>2025-04-30T11:57:23.022Z</time>
      </trkpt>
      <trkpt lat="47.767" lon="6.53786">
        <ele>417.64</ele>
        <time>2025-04-30T11:57:30.749Z</time>
      </trkpt>
      <trkpt lat="47.76702" lon="6.53791">
        <ele>418.12</ele>
        <time>2025-04-30T11:57:38.476Z</time>
      </trkpt>
      <trkpt lat="47.76702" lon="6.53794">
        <ele>418.62</ele>
        <time>2025-04-30T11:57:46.204Z</time>
      </trkpt>
      <trkpt lat="47.76702" lon="6.53798">
        <ele>419.12</ele>
        <time>2025-04-30T11:57:53.932Z</time>
      </trkpt>
      <trkpt lat="47.76703" lon="6.53804">
        <ele>419.63</ele>
        <time>2025-04-30T11:58:01.661Z</time>
      </trkpt>
      <trkpt lat="47.76703" lon="6.53807">
        <ele>420.12</ele>
        <time>2025-04-30T11:58:09.391Z</time>
      </trkpt>
      <trkpt lat="47.76703" lon="6.53812">
        <ele>420.62</ele>
        <time>2025-04-30T11:58:17.121Z</time>
      </trkpt>
      <trkpt lat="47.76704" lon="6.53815">
        <ele>421.1</ele>
        <time>2025-04-30T11:58:24.852Z</time>
      </trkpt>
      <trkpt lat="47.76705" lon="6.53818">
        <ele>421.58</ele>
        <time>2025-04-30T11:58:32.583Z</time>
      </trkpt>
      <trkpt lat="47.76705" lon="6.53823">
        <ele>422.08</ele>
        <time>2025-04-30T11:58:40.315Z</time>
      </trkpt>
      <trkpt lat="47.76705" lon="6.53828">
        <ele>422.56</ele>
        <time>2025-04-30T11:58:48.048Z</time>
      </trkpt>
      <trkpt lat="47.76705" lon="6.53831">
        <ele>423.04</ele>
        <time>2025-04-30T11:58:55.781Z</time>
      </trkpt>
      <trkpt lat="47.76705" lon="6.53834">
        <ele>423.5</ele>
        <time>2025-04-30T11:59:03.515Z</time>
      </trkpt>
      <trkpt lat="47.76705" lon="6.53836">
        <ele>423.94</ele>
        <time>2025-04-30T11:59:11.249Z</time>
      </trkpt>
      <trkpt lat="47.76705" lon="6.53839">
        <ele>424.37</ele>
        <time>2025-04-30T11:59:18.983Z</time>
      </trkpt>
      <trkpt lat="47.76706" lon="6.53842">
        <ele>424.79</ele>
        <time>2025-04-30T11:59:26.718Z</time>
      </trkpt>
      <trkpt lat="47.76706" lon="6.53845">
        <ele>425.21</ele>
        <time>2025-04-30T11:59:34.453Z</time>
      </trkpt>
      <trkpt lat="47.76707" lon="6.53849">
        <ele>425.61</ele>
        <time>2025-04-30T11:59:42.189Z</time>
      </trkpt>
      <trkpt lat="47.76707" lon="6.53852">
        <ele>426</ele>
        <time>2025-04-30T11:59:49.925Z</time>
      </trkpt>
      <trkpt lat="47.76707" lon="6.53856">
        <ele>426.38</ele>
        <time>2025-04-30T11:59:57.662Z</time>
      </trkpt>
      <trkpt lat="47.76707" lon="6.5386">
        <ele>426.75</ele>
        <time>2025-04-30T12:00:05.400Z</time>
      </trkpt>
      <trkpt lat="47.76707" lon="6.53864">
        <ele>427.09</ele>
        <time>2025-04-30T12:00:13.138Z</time>
      </trkpt>
      <trkpt lat="47.76707" lon="6.53868">
        <ele>427.42</ele>
        <time>2025-04-30T12:00:20.877Z</time>
      </trkpt>
      <trkpt lat="47.76708" lon="6.53872">
        <ele>427.71</ele>
        <time>2025-04-30T12:00:28.616Z</time>
      </trkpt>
      <trkpt lat="47.76708" lon="6.53876">
        <ele>427.99</ele>
        <time>2025-04-30T12:00:36.356Z</time>
      </trkpt>
      <trkpt lat="47.76709" lon="6.53879">
        <ele>428.26</ele>
        <time>2025-04-30T12:00:44.096Z</time>
      </trkpt>
      <trkpt lat="47.76709" lon="6.53884">
        <ele>428.5</ele>
        <time>2025-04-30T12:00:51.837Z</time>
      </trkpt>
      <trkpt lat="47.76709" lon="6.53888">
        <ele>428.72</ele>
        <time>2025-04-30T12:00:59.579Z</time>
      </trkpt>
      <trkpt lat="47.76709" lon="6.53892">
        <ele>428.92</ele>
        <time>2025-04-30T12:01:07.321Z</time>
      </trkpt>
      <trkpt lat="47.76709" lon="6.53897">
        <ele>429.1</ele>
        <time>2025-04-30T12:01:15.064Z</time>
      </trkpt>
      <trkpt lat="47.7671" lon="6.53902">
        <ele>429.24</ele>
        <time>2025-04-30T12:01:22.808Z</time>
      </trkpt>
      <trkpt lat="47.7671" lon="6.53907">
        <ele>429.37</ele>
        <time>2025-04-30T12:01:30.552Z</time>
      </trkpt>
      <trkpt lat="47.76709" lon="6.53911">
        <ele>429.48</ele>
        <time>2025-04-30T12:01:38.297Z</time>
      </trkpt>
      <trkpt lat="47.76709" lon="6.53915">
        <ele>429.56</ele>
        <time>2025-04-30T12:01:46.042Z</time>
      </trkpt>
      <trkpt lat="47.76709" lon="6.53919">
        <ele>429.61</ele>
        <time>2025-04-30T12:01:53.788Z</time>
      </trkpt>
      <trkpt lat="47.7671" lon="6.53924">
        <ele>429.64</ele>
        <time>2025-04-30T12:02:01.535Z</time>
      </trkpt>
      <trkpt lat="47.76709" lon="6.53928">
        <ele>429.64</ele>
        <time>2025-04-30T12:02:09.282Z</time>
      </trkpt>
      <trkpt lat="47.76709" lon="6.53932">
        <ele>429.63</ele>
        <time>2025-04-30T12:02:17.030Z</time>
      </trkpt>
      <trkpt lat="47.76709" lon="6.53936">
        <ele>429.59</ele>
        <time>2025-04-30T12:02:24.779Z</time>
      </trkpt>
      <trkpt lat="47.76709" lon="6.53941">
        <ele>429.54</ele>
        <time>2025-04-30T12:02:32.528Z</time>
      </trkpt>
      <trkpt lat="47.76709" lon="6.53947">
        <ele>429.46</ele>
        <time>2025-04-30T12:02:40.278Z</time>
      </trkpt>
      <trkpt lat="47.76708" lon="6.53952">
        <ele>429.37</ele>
        <time>2025-04-30T12:02:48.029Z</time>
      </trkpt>
      <trkpt lat="47.76708" lon="6.53957">
        <ele>429.27</ele>
        <time>2025-04-30T12:02:55.781Z</time>
      </trkpt>
      <trkpt lat="47.76708" lon="6.53961">
        <ele>429.15</ele>
        <time>2025-04-30T12:03:03.533Z</time>
      </trkpt>
      <trkpt lat="47.76707" lon="6.53966">
        <ele>429.02</ele>
        <time>2025-04-30T12:03:11.286Z</time>
      </trkpt>
      <trkpt lat="47.76706" lon="6.53971">
        <ele>428.88</ele>
        <time>2025-04-30T12:03:19.040Z</time>
      </trkpt>
      <trkpt lat="47.76706" lon="6.53975">
        <ele>428.73</ele>
        <time>2025-04-30T12:03:26.794Z</time>
      </trkpt>
      <trkpt lat="47.76705" lon="6.53979">
        <ele>428.58</ele>
        <time>2025-04-30T12:03:34.549Z</time>
      </trkpt>
      <trkpt lat="47.76704" lon="6.53983">
        <ele>428.42</ele>
        <time>2025-04-30T12:03:42.304Z</time>
      </trkpt>
      <trkpt lat="47.76704" lon="6.53987">
        <ele>428.25</ele>
        <time>2025-04-30T12:03:50.060Z</time>
      </trkpt>
      <trkpt lat="47.76703" lon="6.5399">
        <ele>428.07</ele>
        <time>2025-04-30T12:03:57.816Z</time>
      </trkpt>
      <trkpt lat="47.76703" lon="6.53993">
        <ele>427.89</ele>
        <time>2025-04-30T12:04:05.573Z</time>
      </trkpt>
      <trkpt lat="47.76702" lon="6.53996">
        <ele>427.71</ele>
        <time>2025-04-30T12:04:13.330Z</time>
      </trkpt>
      <trkpt lat="47.76701" lon="6.54">
        <ele>427.53</ele>
        <time>2025-04-30T12:04:21.088Z</time>
      </trkpt>
      <trkpt lat="47.76701" lon="6.54004">
        <ele>427.34</ele>
        <time>2025-04-30T12:04:28.847Z</time>
      </trkpt>
      <trkpt lat="47.767" lon="6.54008">
        <ele>427.15</ele>
        <time>2025-04-30T12:04:36.606Z</time>
      </trkpt>
      <trkpt lat="47.76699" lon="6.54013">
        <ele>426.97</ele>
        <time>2025-04-30T12:04:44.366Z</time>
      </trkpt>
      <trkpt lat="47.76698" lon="6.54018">
        <ele>426.79</ele>
        <time>2025-04-30T12:04:52.127Z</time>
      </trkpt>
      <trkpt lat="47.76696" lon="6.54023">
        <ele>426.61</ele>
        <time>2025-04-30T12:04:59.889Z</time>
      </trkpt>
      <trkpt lat="47.76695" lon="6.54028">
        <ele>426.43</ele>
        <time>2025-04-30T12:05:07.651Z</time>
      </trkpt>
      <trkpt lat="47.76694" lon="6.54034">
        <ele>426.25</ele>
        <time>2025-04-30T12:05:15.414Z</time>
      </trkpt>
      <trkpt lat="47.76694" lon="6.54039">
        <ele>426.07</ele>
        <time>2025-04-30T12:05:23.178Z</time>
      </trkpt>
      <trkpt lat="47.76693" lon="6.54045">
        <ele>425.9</ele>
        <time>2025-04-30T12:05:30.943Z</time>
      </trkpt>
      <trkpt lat="47.76693" lon="6.54051">
        <ele>425.74</ele>
        <time>2025-04-30T12:05:38.709Z</time>
      </trkpt>
      <trkpt lat="47.76693" lon="6.54056">
        <ele>425.58</ele>
        <time>2025-04-30T12:05:46.475Z</time>
      </trkpt>
      <trkpt lat="47.76693" lon="6.54063">
        <ele>425.45</ele>
        <time>2025-04-30T12:05:54.242Z</time>
      </trkpt>
      <trkpt lat="47.76692" lon="6.54069">
        <ele>425.33</ele>
        <time>2025-04-30T12:06:02.010Z</time>
      </trkpt>
      <trkpt lat="47.76693" lon="6.54075">
        <ele>425.22</ele>
        <time>2025-04-30T12:06:09.779Z</time>
      </trkpt>
      <trkpt lat="47.76693" lon="6.5408">
        <ele>425.13</ele>
        <time>2025-04-30T12:06:17.549Z</time>
      </trkpt>
      <trkpt lat="47.76693" lon="6.54084">
        <ele>425.05</ele>
        <time>2025-04-30T12:06:25.319Z</time>
      </trkpt>
      <trkpt lat="47.76693" lon="6.54089">
        <ele>425</ele>
        <time>2025-04-30T12:06:33.090Z</time>
      </trkpt>
      <trkpt lat="47.76693" lon="6.54094">
        <ele>424.96</ele>
        <time>2025-04-30T12:06:40.862Z</time>
      </trkpt>
      <trkpt lat="47.76693" lon="6.54099">
        <ele>424.93</ele>
        <time>2025-04-30T12:06:48.635Z</time>
      </trkpt>
      <trkpt lat="47.76693" lon="6.54104">
        <ele>424.93</ele>
        <time>2025-04-30T12:06:56.408Z</time>
      </trkpt>
      <trkpt lat="47.76693" lon="6.54112">
        <ele>424.94</ele>
        <time>2025-04-30T12:07:04.183Z</time>
      </trkpt>
      <trkpt lat="47.76692" lon="6.54118">
        <ele>424.99</ele>
        <time>2025-04-30T12:07:11.958Z</time>
      </trkpt>
      <trkpt lat="47.76692" lon="6.54124">
        <ele>425.04</ele>
        <time>2025-04-30T12:07:19.734Z</time>
      </trkpt>
      <trkpt lat="47.76692" lon="6.54131">
        <ele>425.12</ele>
        <time>2025-04-30T12:07:27.511Z</time>
      </trkpt>
      <trkpt lat="47.76692" lon="6.54136">
        <ele>425.2</ele>
        <time>2025-04-30T12:07:35.289Z</time>
      </trkpt>
      <trkpt lat="47.76693" lon="6.54141">
        <ele>425.31</ele>
        <time>2025-04-30T12:07:43.068Z</time>
      </trkpt>
      <trkpt lat="47.76693" lon="6.54147">
        <ele>425.43</ele>
        <time>2025-04-30T12:07:50.848Z</time>
      </trkpt>
      <trkpt lat="47.76693" lon="6.54153">
        <ele>425.58</ele>
        <time>2025-04-30T12:07:58.629Z</time>
      </trkpt>
      <trkpt lat="47.76693" lon="6.54158">
        <ele>425.74</ele>
        <time>2025-04-30T12:08:06.410Z</time>
      </trkpt>
      <trkpt lat="47.76693" lon="6.54163">
        <ele>425.91</ele>
        <time>2025-04-30T12:08:14.192Z</time>
      </trkpt>
      <trkpt lat="47.76693" lon="6.54168">
        <ele>426.1</ele>
        <time>2025-04-30T12:08:21.975Z</time>
      </trkpt>
      <trkpt lat="47.76693" lon="6.54174">
        <ele>426.31</ele>
        <time>2025-04-30T12:08:29.759Z</time>
      </trkpt>
      <trkpt lat="47.76693" lon="6.5418">
        <ele>426.54</ele>
        <time>2025-04-30T12:08:37.543Z</time>
      </trkpt>
      <trkpt lat="47.76692" lon="6.54185">
        <ele>426.79</ele>
        <time>2025-04-30T12:08:45.328Z</time>
      </trkpt>
      <trkpt lat="47.76691" lon="6.54191">
        <ele>427.04</ele>
        <time>2025-04-30T12:08:53.114Z</time>
      </trkpt>
      <trkpt lat="47.76692" lon="6.54198">
        <ele>427.29</ele>
        <time>2025-04-30T12:09:00.901Z</time>
      </trkpt>
      <trkpt lat="47.76691" lon="6.54204">
        <ele>427.56</ele>
        <time>2025-04-30T12:09:08.689Z</time>
      </trkpt>
      <trkpt lat="47.76692" lon="6.5421">
        <ele>427.84</ele>
        <time>2025-04-30T12:09:16.478Z</time>
      </trkpt>
      <trkpt lat="47.76692" lon="6.54215">
        <ele>428.13</ele>
        <time>2025-04-30T12:09:24.268Z</time>
      </trkpt>
      <trkpt lat="47.76691" lon="6.5422">
        <ele>428.43</ele>
        <time>2025-04-30T12:09:32.058Z</time>
      </trkpt>
      <trkpt lat="47.7669" lon="6.54226">
        <ele>428.74</ele>
        <time>2025-04-30T12:09:39.849Z</time>
      </trkpt>
      <trkpt lat="47.76689" lon="6.5423">
        <ele>429.06</ele>
        <time>2025-04-30T12:09:47.641Z</time>
      </trkpt>
      <trkpt lat="47.76689" lon="6.54235">
        <ele>429.38</ele>
        <time>2025-04-30T12:09:55.434Z</time>
      </trkpt>
      <trkpt lat="47.76688" lon="6.54239">
        <ele>429.7</ele>
        <time>2025-04-30T12:10:03.227Z</time>
      </trkpt>
      <trkpt lat="47.76688" lon="6.54244">
        <ele>430.03</ele>
        <time>2025-04-30T12:10:11.021Z</time>
      </trkpt>
      <trkpt lat="47.76689" lon="6.54248">
        <ele>430.36</ele>
        <time>2025-04-30T12:10:18.815Z</time>
      </trkpt>
      <trkpt lat="47.76689" lon="6.54253">
        <ele>430.69</ele>
        <time>2025-04-30T12:10:26.610Z</time>
      </trkpt>
      <trkpt lat="47.76689" lon="6.54258">
        <ele>431.02</ele>
        <time>2025-04-30T12:10:34.406Z</time>
      </trkpt>
      <trkpt lat="47.76689" lon="6.54262">
        <ele>431.35</ele>
        <time>2025-04-30T12:10:42.203Z</time>
      </trkpt>
      <trkpt lat="47.7669" lon="6.54268">
        <ele>431.68</ele>
        <time>2025-04-30T12:10:50.000Z</time>
      </trkpt>
      <trkpt lat="47.76689" lon="6.54274">
        <ele>432.01</ele>
        <time>2025-04-30T12:10:57.798Z</time>
      </trkpt>
      <trkpt lat="47.76689" lon="6.5428">
        <ele>432.33</ele>
        <time>2025-04-30T12:11:05.597Z</time>
      </trkpt>
      <trkpt lat="47.76689" lon="6.54285">
        <ele>432.66</ele>
        <time>2025-04-30T12:11:13.397Z</time>
      </trkpt>
      <trkpt lat="47.76689" lon="6.54291">
        <ele>432.99</ele>
        <time>2025-04-30T12:11:21.198Z</time>
      </trkpt>
      <trkpt lat="47.76689" lon="6.54296">
        <ele>433.3</ele>
        <time>2025-04-30T12:11:28.999Z</time>
      </trkpt>
      <trkpt lat="47.76689" lon="6.54303">
        <ele>433.6</ele>
        <time>2025-04-30T12:11:36.801Z</time>
      </trkpt>
      <trkpt lat="47.76689" lon="6.54309">
        <ele>433.9</ele>
        <time>2025-04-30T12:11:44.604Z</time>
      </trkpt>
      <trkpt lat="47.7669" lon="6.54314">
        <ele>434.19</ele>
        <time>2025-04-30T12:11:52.408Z</time>
      </trkpt>
      <trkpt lat="47.7669" lon="6.54319">
        <ele>434.47</ele>
        <time>2025-04-30T12:12:00.213Z</time>
      </trkpt>
      <trkpt lat="47.7669" lon="6.54324">
        <ele>434.74</ele>
        <time>2025-04-30T12:12:08.018Z</time>
      </trkpt>
      <trkpt lat="47.76689" lon="6.54329">
        <ele>435</ele>
        <time>2025-04-30T12:12:15.824Z</time>
      </trkpt>
      <trkpt lat="47.76689" lon="6.54334">
        <ele>435.25</ele>
        <time>2025-04-30T12:12:23.631Z</time>
      </trkpt>
      <trkpt lat="47.76688" lon="6.54337">
        <ele>435.5</ele>
        <time>2025-04-30T12:12:31.438Z</time>
      </trkpt>
      <trkpt lat="47.76688" lon="6.54341">
        <ele>435.74</ele>
        <time>2025-04-30T12:12:39.246Z</time>
      </trkpt>
      <trkpt lat="47.76688" lon="6.54346">
        <ele>435.98</ele>
        <time>2025-04-30T12:12:47.055Z</time>
      </trkpt>
      <trkpt lat="47.76687" lon="6.54351">
        <ele>436.19</ele>
        <time>2025-04-30T12:12:54.864Z</time>
      </trkpt>
      <trkpt lat="47.76686" lon="6.54356">
        <ele>436.39</ele>
        <time>2025-04-30T12:13:02.674Z</time>
      </trkpt>
      <trkpt lat="47.76684" lon="6.5436">
        <ele>436.58</ele>
        <time>2025-04-30T12:13:10.485Z</time>
      </trkpt>
      <trkpt lat="47.76683" lon="6.54364">
        <ele>436.76</ele>
        <time>2025-04-30T12:13:18.297Z</time>
      </trkpt>
      <trkpt lat="47.7668" lon="6.5437">
        <ele>436.94</ele>
        <time>2025-04-30T12:13:26.110Z</time>
      </trkpt>
      <trkpt lat="47.76678" lon="6.54375">
        <ele>437.1</ele>
        <time>2025-04-30T12:13:33.923Z</time>
      </trkpt>
      <trkpt lat="47.76677" lon="6.54381">
        <ele>437.26</ele>
        <time>2025-04-30T12:13:41.737Z</time>
      </trkpt>
      <trkpt lat="47.76676" lon="6.54386">
        <ele>437.41</ele>
        <time>2025-04-30T12:13:49.552Z</time>
      </trkpt>
      <trkpt lat="47.76676" lon="6.5439">
        <ele>437.56</ele>
        <time>2025-04-30T12:13:57.368Z</time>
      </trkpt>
      <trkpt lat="47.76675" lon="6.54394">
        <ele>437.7</ele>
        <time>2025-04-30T12:14:05.184Z</time>
      </trkpt>
      <trkpt lat="47.76674" lon="6.54397">
        <ele>437.83</ele>
        <time>2025-04-30T12:14:13.001Z</time>
      </trkpt>
      <trkpt lat="47.76673" lon="6.544">
        <ele>437.97</ele>
        <time>2025-04-30T12:14:20.818Z</time>
      </trkpt>
      <trkpt lat="47.76673" lon="6.54402">
        <ele>438.1</ele>
        <time>2025-04-30T12:14:28.635Z</time>
      </trkpt>
      <trkpt lat="47.76673" lon="6.54403">
        <ele>438.23</ele>
        <time>2025-04-30T12:14:36.453Z</time>
      </trkpt>
      <trkpt lat="47.76673" lon="6.54405">
        <ele>438.36</ele>
        <time>2025-04-30T12:14:44.271Z</time>
      </trkpt>
      <trkpt lat="47.76672" lon="6.54408">
        <ele>438.48</ele>
        <time>2025-04-30T12:14:52.089Z</time>
      </trkpt>
      <trkpt lat="47.76672" lon="6.54413">
        <ele>438.61</ele>
        <time>2025-04-30T12:14:59.908Z</time>
      </trkpt>
      <trkpt lat="47.76671" lon="6.54418">
        <ele>438.74</ele>
        <time>2025-04-30T12:15:07.728Z</time>
      </trkpt>
      <trkpt lat="47.76671" lon="6.54423">
        <ele>438.86</ele>
        <time>2025-04-30T12:15:15.549Z</time>
      </trkpt>
      <trkpt lat="47.76672" lon="6.54428">
        <ele>438.99</ele>
        <time>2025-04-30T12:15:23.370Z</time>
      </trkpt>
      <trkpt lat="47.76672" lon="6.54434">
        <ele>439.12</ele>
        <time>2025-04-30T12:15:31.192Z</time>
      </trkpt>
      <trkpt lat="47.76672" lon="6.54438">
        <ele>439.26</ele>
        <time>2025-04-30T12:15:39.015Z</time>
      </trkpt>
      <trkpt lat="47.76674" lon="6.54444">
        <ele>439.41</ele>
        <time>2025-04-30T12:15:46.839Z</time>
      </trkpt>
      <trkpt lat="47.76675" lon="6.54451">
        <ele>439.56</ele>
        <time>2025-04-30T12:15:54.664Z</time>
      </trkpt>
      <trkpt lat="47.76677" lon="6.54456">
        <ele>439.72</ele>
        <time>2025-04-30T12:16:02.490Z</time>
      </trkpt>
      <trkpt lat="47.76678" lon="6.54462">
        <ele>439.88</ele>
        <time>2025-04-30T12:16:10.316Z</time>
      </trkpt>
      <trkpt lat="47.7668" lon="6.54466">
        <ele>440.05</ele>
        <time>2025-04-30T12:16:18.143Z</time>
      </trkpt>
      <trkpt lat="47.76682" lon="6.54472">
        <ele>440.23</ele>
        <time>2025-04-30T12:16:25.971Z</time>
      </trkpt>
      <trkpt lat="47.76684" lon="6.54479">
        <ele>440.42</ele>
        <time>2025-04-30T12:16:33.800Z</time>
      </trkpt>
      <trkpt lat="47.76686" lon="6.54485">
        <ele>440.61</ele>
        <time>2025-04-30T12:16:41.630Z</time>
      </trkpt>
      <trkpt lat="47.76688" lon="6.54491">
        <ele>440.82</ele>
        <time>2025-04-30T12:16:49.461Z</time>
      </trkpt>
      <trkpt lat="47.7669" lon="6.54496">
        <ele>441.03</ele>
        <time>2025-04-30T12:16:57.293Z</time>
      </trkpt>
      <trkpt lat="47.76692" lon="6.54501">
        <ele>441.26</ele>
        <time>2025-04-30T12:17:05.126Z</time>
      </trkpt>
      <trkpt lat="47.76694" lon="6.54507">
        <ele>441.51</ele>
        <time>2025-04-30T12:17:12.960Z</time>
      </trkpt>
      <trkpt lat="47.76697" lon="6.54513">
        <ele>441.77</ele>
        <time>2025-04-30T12:17:20.795Z</time>
      </trkpt>
      <trkpt lat="47.76699" lon="6.54519">
        <ele>442.03</ele>
        <time>2025-04-30T12:17:28.631Z</time>
      </trkpt>
      <trkpt lat="47.76702" lon="6.54525">
        <ele>442.3</ele>
        <time>2025-04-30T12:17:36.468Z</time>
      </trkpt>
      <trkpt lat="47.76704" lon="6.5453">
        <ele>442.58</ele>
        <time>2025-04-30T12:17:44.306Z</time>
      </trkpt>
      <trkpt lat="47.76706" lon="6.54536">
        <ele>442.87</ele>
        <time>2025-04-30T12:17:52.145Z</time>
      </trkpt>
      <trkpt lat="47.76708" lon="6.54542">
        <ele>443.16</ele>
        <time>2025-04-30T12:17:59.985Z</time>
      </trkpt>
      <trkpt lat="47.7671" lon="6.54548">
        <ele>443.46</ele>
        <time>2025-04-30T12:18:07.826Z</time>
      </trkpt>
      <trkpt lat="47.76712" lon="6.54554">
        <ele>443.76</ele>
        <time>2025-04-30T12:18:15.668Z</time>
      </trkpt>
      <trkpt lat="47.76715" lon="6.54561">
        <ele>444.05</ele>
        <time>2025-04-30T12:18:23.511Z</time>
      </trkpt>
      <trkpt lat="47.76717" lon="6.54567">
        <ele>444.34</ele>
        <time>2025-04-30T12:18:31.355Z</time>
      </trkpt>
      <trkpt lat="47.76719" lon="6.54574">
        <ele>444.62</ele>
        <time>2025-04-30T12:18:39.200Z</time>
      </trkpt>
      <trkpt lat="47.76722" lon="6.54581">
        <ele>444.9</ele>
        <time>2025-04-30T12:18:47.046Z</time>
      </trkpt>
      <trkpt lat="47.76724" lon="6.54589">
        <ele>445.16</ele>
        <time>2025-04-30T12:18:54.893Z</time>
      </trkpt>
      <trkpt lat="47.76725" lon="6.54596">
        <ele>445.41</ele>
        <time>2025-04-30T12:19:02.741Z</time>
      </trkpt>
      <trkpt lat="47.76726" lon="6.54603">
        <ele>445.64</ele>
        <time>2025-04-30T12:19:10.590Z</time>
      </trkpt>
      <trkpt lat="47.76727" lon="6.5461">
        <ele>445.87</ele>
        <time>2025-04-30T12:19:18.440Z</time>
      </trkpt>
      <trkpt lat="47.76727" lon="6.54618">
        <ele>446.08</ele>
        <time>2025-04-30T12:19:26.292Z</time>
      </trkpt>
      <trkpt lat="47.76727" lon="6.54626">
        <ele>446.28</ele>
        <time>2025-04-30T12:19:34.145Z</time>
      </trkpt>
      <trkpt lat="47.76727" lon="6.54633">
        <ele>446.48</ele>
        <time>2025-04-30T12:19:41.999Z</time>
      </trkpt>
      <trkpt lat="47.76728" lon="6.54641">
        <ele>446.67</ele>
        <time>2025-04-30T12:19:49.854Z</time>
      </trkpt>
      <trkpt lat="47.76728" lon="6.54649">
        <ele>446.85</ele>
        <time>2025-04-30T12:19:57.710Z</time>
      </trkpt>
      <trkpt lat="47.76727" lon="6.54656">
        <ele>447.02</ele>
        <time>2025-04-30T12:20:05.567Z</time>
      </trkpt>
      <trkpt lat="47.76727" lon="6.54664">
        <ele>447.19</ele>
        <time>2025-04-30T12:20:13.425Z</time>
      </trkpt>
      <trkpt lat="47.76727" lon="6.54671">
        <ele>447.36</ele>
        <time>2025-04-30T12:20:21.284Z</time>
      </trkpt>
      <trkpt lat="47.76726" lon="6.54678">
        <ele>447.51</ele>
        <time>2025-04-30T12:20:29.144Z</time>
      </trkpt>
      <trkpt lat="47.76725" lon="6.54686">
        <ele>447.66</ele>
        <time>2025-04-30T12:20:37.005Z</time>
      </trkpt>
      <trkpt lat="47.76725" lon="6.54693">
        <ele>447.82</ele>
        <time>2025-04-30T12:20:44.868Z</time>
      </trkpt>
      <trkpt lat="47.76724" lon="6.547">
        <ele>447.99</ele>
        <time>2025-04-30T12:20:52.732Z</time>
      </trkpt>
      <trkpt lat="47.76724" lon="6.54708">
        <ele>448.15</ele>
        <time>2025-04-30T12:21:00.597Z</time>
      </trkpt>
      <trkpt lat="47.76723" lon="6.54715">
        <ele>448.31</ele>
        <time>2025-04-30T12:21:08.463Z</time>
      </trkpt>
      <trkpt lat="47.76722" lon="6.54722">
        <ele>448.48</ele>
        <time>2025-04-30T12:21:16.330Z</time>
      </trkpt>
      <trkpt lat="47.76722" lon="6.54728">
        <ele>448.65</ele>
        <time>2025-04-30T12:21:24.198Z</time>
      </trkpt>
      <trkpt lat="47.76721" lon="6.54735">
        <ele>448.81</ele>
        <time>2025-04-30T12:21:32.067Z</time>
      </trkpt>
      <trkpt lat="47.76721" lon="6.54743">
        <ele>448.97</ele>
        <time>2025-04-30T12:21:39.937Z</time>
      </trkpt>
      <trkpt lat="47.76721" lon="6.54751">
        <ele>449.16</ele>
        <time>2025-04-30T12:21:47.808Z</time>
      </trkpt>
      <trkpt lat="47.76721" lon="6.54758">
        <ele>449.33</ele>
        <time>2025-04-30T12:21:55.680Z</time>
      </trkpt>
      <trkpt lat="47.76721" lon="6.54765">
        <ele>449.51</ele>
        <time>2025-04-30T12:22:03.553Z</time>
      </trkpt>
      <trkpt lat="47.76721" lon="6.54772">
        <ele>449.68</ele>
        <time>2025-04-30T12:22:11.427Z</time>
      </trkpt>
      <trkpt lat="47.76721" lon="6.54779">
        <ele>449.87</ele>
        <time>2025-04-30T12:22:19.302Z</time>
      </trkpt>
      <trkpt lat="47.76721" lon="6.54785">
        <ele>450.07</ele>
        <time>2025-04-30T12:22:27.178Z</time>
      </trkpt>
      <trkpt lat="47.76722" lon="6.54792">
        <ele>450.26</ele>
        <time>2025-04-30T12:22:35.055Z</time>
      </trkpt>
      <trkpt lat="47.76722" lon="6.54798">
        <ele>450.46</ele>
        <time>2025-04-30T12:22:42.933Z</time>
      </trkpt>
      <trkpt lat="47.76722" lon="6.54804">
        <ele>450.66</ele>
        <time>2025-04-30T12:22:50.812Z</time>
      </trkpt>
      <trkpt lat="47.7672" lon="6.54812">
        <ele>450.87</ele>
        <time>2025-04-30T12:22:58.692Z</time>
      </trkpt>
      <trkpt lat="47.76718" lon="6.54818">
        <ele>451.09</ele>
        <time>2025-04-30T12:23:06.573Z</time>
      </trkpt>
      <trkpt lat="47.76715" lon="6.54821">
        <ele>451.31</ele>
        <time>2025-04-30T12:23:14.455Z</time>
      </trkpt>
      <trkpt lat="47.7671" lon="6.54825">
        <ele>451.54</ele>
        <time>2025-04-30T12:23:22.338Z</time>
      </trkpt>
      <trkpt lat="47.76705" lon="6.54828">
        <ele>451.77</ele>
        <time>2025-04-30T12:23:30.222Z</time>
      </trkpt>
      <trkpt lat="47.767" lon="6.54832">
        <ele>452.01</ele>
        <time>2025-04-30T12:23:38.107Z</time>
      </trkpt>
      <trkpt lat="47.76695" lon="6.54836">
        <ele>452.24</ele>
        <time>2025-04-30T12:23:45.993Z</time>
      </trkpt>
      <trkpt lat="47.76691" lon="6.54838">
        <ele>452.47</ele>
        <time>2025-04-30T12:23:53.880Z</time>
      </trkpt>
      <trkpt lat="47.76685" lon="6.54842">
        <ele>452.71</ele>
        <time>2025-04-30T12:24:01.769Z</time>
      </trkpt>
      <trkpt lat="47.76681" lon="6.54845">
        <ele>452.94</ele>
        <time>2025-04-30T12:24:09.659Z</time>
      </trkpt>
      <trkpt lat="47.76674" lon="6.5485">
        <ele>453.18</ele>
        <time>2025-04-30T12:24:17.550Z</time>
      </trkpt>
      <trkpt lat="47.76669" lon="6.54854">
        <ele>453.41</ele>
        <time>2025-04-30T12:24:25.442Z</time>
      </trkpt>
      <trkpt lat="47.76665" lon="6.54857">
        <ele>453.64</ele>
        <time>2025-04-30T12:24:33.335Z</time>
      </trkpt>
      <trkpt lat="47.7666" lon="6.54861">
        <ele>453.87</ele>
        <time>2025-04-30T12:24:41.230Z</time>
      </trkpt>
      <trkpt lat="47.76654" lon="6.54866">
        <ele>454.1</ele>
        <time>2025-04-30T12:24:49.126Z</time>
      </trkpt>
      <trkpt lat="47.76649" lon="6.54871">
        <ele>454.33</ele>
        <time>2025-04-30T12:24:57.023Z</time>
      </trkpt>
      <trkpt lat="47.76645" lon="6.54876">
        <ele>454.55</ele>
        <time>2025-04-30T12:25:04.922Z</time>
      </trkpt>
      <trkpt lat="47.76642" lon="6.5488">
        <ele>454.78</ele>
        <time>2025-04-30T12:25:12.821Z</time>
      </trkpt>
      <trkpt lat="47.76637" lon="6.54885">
        <ele>455.01</ele>
        <time>2025-04-30T12:25:20.722Z</time>
      </trkpt>
      <trkpt lat="47.76632" lon="6.54892">
        <ele>455.24</ele>
        <time>2025-04-30T12:25:28.624Z</time>
      </trkpt>
      <trkpt lat="47.76628" lon="6.54897">
        <ele>455.46</ele>
        <time>2025-04-30T12:25:36.527Z</time>
      </trkpt>
      <trkpt lat="47.76624" lon="6.54903">
        <ele>455.68</ele>
        <time>2025-04-30T12:25:44.431Z</time>
      </trkpt>
      <trkpt lat="47.76621" lon="6.54907">
        <ele>455.9</ele>
        <time>2025-04-30T12:25:52.336Z</time>
      </trkpt>
      <trkpt lat="47.76618" lon="6.54911">
        <ele>456.12</ele>
        <time>2025-04-30T12:26:00.242Z</time>
      </trkpt>
      <trkpt lat="47.76612" lon="6.54913">
        <ele>456.34</ele>
        <time>2025-04-30T12:26:08.150Z</time>
      </trkpt>
      <trkpt lat="47.76607" lon="6.54914">
        <ele>456.55</ele>
        <time>2025-04-30T12:26:16.059Z</time>
      </trkpt>
      <trkpt lat="47.76602" lon="6.54914">
        <ele>456.76</ele>
        <time>2025-04-30T12:26:23.969Z</time>
      </trkpt>
      <trkpt lat="47.76597" lon="6.54915">
        <ele>456.97</ele>
        <time>2025-04-30T12:26:31.880Z</time>
      </trkpt>
      <trkpt lat="47.76593" lon="6.54916">
        <ele>457.17</ele>
        <time>2025-04-30T12:26:39.792Z</time>
      </trkpt>
      <trkpt lat="47.76587" lon="6.54916">
        <ele>457.36</ele>
        <time>2025-04-30T12:26:47.705Z</time>
      </trkpt>
      <trkpt lat="47.76582" lon="6.54915">
        <ele>457.55</ele>
        <time>2025-04-30T12:26:55.619Z</time>
      </trkpt>
      <trkpt lat="47.76577" lon="6.54913">
        <ele>457.73</ele>
        <time>2025-04-30T12:27:03.534Z</time>
      </trkpt>
      <trkpt lat="47.76574" lon="6.54912">
        <ele>457.91</ele>
        <time>2025-04-30T12:27:11.450Z</time>
      </trkpt>
      <trkpt lat="47.76569" lon="6.54911">
        <ele>458.07</ele>
        <time>2025-04-30T12:27:19.367Z</time>
      </trkpt>
      <trkpt lat="47.76564" lon="6.5491">
        <ele>458.24</ele>
        <time>2025-04-30T12:27:27.285Z</time>
      </trkpt>
      <trkpt lat="47.7656" lon="6.54909">
        <ele>458.38</ele>
        <time>2025-04-30T12:27:35.204Z</time>
      </trkpt>
      <trkpt lat="47.76556" lon="6.54909">
        <ele>458.51</ele>
        <time>2025-04-30T12:27:43.124Z</time>
      </trkpt>
      <trkpt lat="47.7655" lon="6.54909">
        <ele>458.64</ele>
        <time>2025-04-30T12:27:51.045Z</time>
      </trkpt>
      <trkpt lat="47.76545" lon="6.54909">
        <ele>458.75</ele>
        <time>2025-04-30T12:27:58.967Z</time>
      </trkpt>
      <trkpt lat="47.76539" lon="6.54909">
        <ele>458.86</ele>
        <time>2025-04-30T12:28:06.890Z</time>
      </trkpt>
      <trkpt lat="47.76525" lon="6.54907">
        <ele>458.97</ele>
        <time>2025-04-30T12:28:14.816Z</time>
      </trkpt>
      <trkpt lat="47.76521" lon="6.54907">
        <ele>459.06</ele>
        <time>2025-04-30T12:28:22.743Z</time>
      </trkpt>
      <trkpt lat="47.76517" lon="6.54907">
        <ele>459.15</ele>
        <time>2025-04-30T12:28:30.671Z</time>
      </trkpt>
      <trkpt lat="47.76513" lon="6.54908">
        <ele>459.23</ele>
        <time>2025-04-30T12:28:38.600Z</time>
      </trkpt>
      <trkpt lat="47.7651" lon="6.54908">
        <ele>459.3</ele>
        <time>2025-04-30T12:28:46.529Z</time>
      </trkpt>
      <trkpt lat="47.76507" lon="6.54908">
        <ele>459.37</ele>
        <time>2025-04-30T12:28:54.459Z</time>
      </trkpt>
      <trkpt lat="47.76504" lon="6.54909">
        <ele>459.44</ele>
        <time>2025-04-30T12:29:02.390Z</time>
      </trkpt>
      <trkpt lat="47.765" lon="6.54908">
        <ele>459.5</ele>
        <time>2025-04-30T12:29:10.322Z</time>
      </trkpt>
      <trkpt lat="47.7649" lon="6.54903">
        <ele>459.57</ele>
        <time>2025-04-30T12:29:18.256Z</time>
      </trkpt>
      <trkpt lat="47.76487" lon="6.549">
        <ele>459.62</ele>
        <time>2025-04-30T12:29:26.191Z</time>
      </trkpt>
      <trkpt lat="47.76484" lon="6.54898">
        <ele>459.66</ele>
        <time>2025-04-30T12:29:34.127Z</time>
      </trkpt>
      <trkpt lat="47.76482" lon="6.54897">
        <ele>459.71</ele>
        <time>2025-04-30T12:29:42.063Z</time>
      </trkpt>
      <trkpt lat="47.76478" lon="6.54894">
        <ele>459.75</ele>
        <time>2025-04-30T12:29:50.000Z</time>
      </trkpt>
      <trkpt lat="47.76476" lon="6.54892">
        <ele>459.78</ele>
        <time>2025-04-30T12:29:57.938Z</time>
      </trkpt>
      <trkpt lat="47.76468" lon="6.54881">
        <ele>459.81</ele>
        <time>2025-04-30T12:30:05.878Z</time>
      </trkpt>
      <trkpt lat="47.76465" lon="6.54878">
        <ele>459.84</ele>
        <time>2025-04-30T12:30:13.819Z</time>
      </trkpt>
      <trkpt lat="47.76463" lon="6.54875">
        <ele>459.87</ele>
        <time>2025-04-30T12:30:21.760Z</time>
      </trkpt>
      <trkpt lat="47.76461" lon="6.54872">
        <ele>459.9</ele>
        <time>2025-04-30T12:30:29.702Z</time>
      </trkpt>
      <trkpt lat="47.76459" lon="6.54869">
        <ele>459.93</ele>
        <time>2025-04-30T12:30:37.644Z</time>
      </trkpt>
      <trkpt lat="47.76458" lon="6.54865">
        <ele>459.96</ele>
        <time>2025-04-30T12:30:45.587Z</time>
      </trkpt>
      <trkpt lat="47.76457" lon="6.54861">
        <ele>459.99</ele>
        <time>2025-04-30T12:30:53.531Z</time>
      </trkpt>
      <trkpt lat="47.76456" lon="6.54856">
        <ele>460.03</ele>
        <time>2025-04-30T12:31:01.475Z</time>
      </trkpt>
      <trkpt lat="47.76454" lon="6.54851">
        <ele>460.08</ele>
        <time>2025-04-30T12:31:09.420Z</time>
      </trkpt>
      <trkpt lat="47.76443" lon="6.54829">
        <ele>460.12</ele>
        <time>2025-04-30T12:31:17.369Z</time>
      </trkpt>
      <trkpt lat="47.76428" lon="6.54801">
        <ele>460.18</ele>
        <time>2025-04-30T12:31:25.323Z</time>
      </trkpt>
      <trkpt lat="47.76421" lon="6.54795">
        <ele>460.25</ele>
        <time>2025-04-30T12:31:33.279Z</time>
      </trkpt>
      <trkpt lat="47.76418" lon="6.54794">
        <ele>460.33</ele>
        <time>2025-04-30T12:31:41.236Z</time>
      </trkpt>
      <trkpt lat="47.76416" lon="6.54795">
        <ele>460.43</ele>
        <time>2025-04-30T12:31:49.193Z</time>
      </trkpt>
      <trkpt lat="47.76414" lon="6.54799">
        <ele>460.55</ele>
        <time>2025-04-30T12:31:57.151Z</time>
      </trkpt>
      <trkpt lat="47.76411" lon="6.54804">
        <ele>460.68</ele>
        <time>2025-04-30T12:32:05.110Z</time>
      </trkpt>
      <trkpt lat="47.76408" lon="6.54809">
        <ele>460.81</ele>
        <time>2025-04-30T12:32:13.070Z</time>
      </trkpt>
      <trkpt lat="47.76405" lon="6.54813">
        <ele>460.96</ele>
        <time>2025-04-30T12:32:21.031Z</time>
      </trkpt>
      <trkpt lat="47.76402" lon="6.54815">
        <ele>461.12</ele>
        <time>2025-04-30T12:32:28.993Z</time>
      </trkpt>
      <trkpt lat="47.76398" lon="6.54817">
        <ele>461.29</ele>
        <time>2025-04-30T12:32:36.955Z</time>
      </trkpt>
      <trkpt lat="47.76396" lon="6.5482">
        <ele>461.48</ele>
        <time>2025-04-30T12:32:44.918Z</time>
      </trkpt>
      <trkpt lat="47.76392" lon="6.54824">
        <ele>461.67</ele>
        <time>2025-04-30T12:32:52.882Z</time>
      </trkpt>
      <trkpt lat="47.7639" lon="6.5483">
        <ele>461.89</ele>
        <time>2025-04-30T12:33:00.847Z</time>
      </trkpt>
      <trkpt lat="47.76387" lon="6.54834">
        <ele>462.11</ele>
        <time>2025-04-30T12:33:08.813Z</time>
      </trkpt>
      <trkpt lat="47.76384" lon="6.54839">
        <ele>462.33</ele>
        <time>2025-04-30T12:33:16.780Z</time>
      </trkpt>
      <trkpt lat="47.76382" lon="6.54842">
        <ele>462.57</ele>
        <time>2025-04-30T12:33:24.747Z</time>
      </trkpt>
      <trkpt lat="47.76379" lon="6.54845">
        <ele>462.82</ele>
        <time>2025-04-30T12:33:32.715Z</time>
      </trkpt>
      <trkpt lat="47.76377" lon="6.54849">
        <ele>463.09</ele>
        <time>2025-04-30T12:33:40.684Z</time>
      </trkpt>
      <trkpt lat="47.76375" lon="6.54852">
        <ele>463.37</ele>
        <time>2025-04-30T12:33:48.653Z</time>
      </trkpt>
      <trkpt lat="47.76374" lon="6.54856">
        <ele>463.66</ele>
        <time>2025-04-30T12:33:56.623Z</time>
      </trkpt>
      <trkpt lat="47.76373" lon="6.54861">
        <ele>463.96</ele>
        <time>2025-04-30T12:34:04.594Z</time>
      </trkpt>
      <trkpt lat="47.76372" lon="6.54868">
        <ele>464.27</ele>
        <time>2025-04-30T12:34:12.566Z</time>
      </trkpt>
      <trkpt lat="47.76371" lon="6.54873">
        <ele>464.58</ele>
        <time>2025-04-30T12:34:20.539Z</time>
      </trkpt>
      <trkpt lat="47.76369" lon="6.5488">
        <ele>464.91</ele>
        <time>2025-04-30T12:34:28.513Z</time>
      </trkpt>
      <trkpt lat="47.76368" lon="6.54887">
        <ele>465.24</ele>
        <time>2025-04-30T12:34:36.488Z</time>
      </trkpt>
      <trkpt lat="47.76368" lon="6.54891">
        <ele>465.57</ele>
        <time>2025-04-30T12:34:44.463Z</time>
      </trkpt>
      <trkpt lat="47.76367" lon="6.54894">
        <ele>465.9</ele>
        <time>2025-04-30T12:34:52.439Z</time>
      </trkpt>
      <trkpt lat="47.76366" lon="6.54897">
        <ele>466.24</ele>
        <time>2025-04-30T12:35:00.415Z</time>
      </trkpt>
      <trkpt lat="47.76364" lon="6.54904">
        <ele>466.58</ele>
        <time>2025-04-30T12:35:08.392Z</time>
      </trkpt>
      <trkpt lat="47.76363" lon="6.54914">
        <ele>466.93</ele>
        <time>2025-04-30T12:35:16.371Z</time>
      </trkpt>
      <trkpt lat="47.76363" lon="6.5492">
        <ele>467.27</ele>
        <time>2025-04-30T12:35:24.351Z</time>
      </trkpt>
      <trkpt lat="47.76362" lon="6.54924">
        <ele>467.62</ele>
        <time>2025-04-30T12:35:32.331Z</time>
      </trkpt>
      <trkpt lat="47.76361" lon="6.54929">
        <ele>467.97</ele>
        <time>2025-04-30T12:35:40.312Z</time>
      </trkpt>
      <trkpt lat="47.7636" lon="6.54934">
        <ele>468.31</ele>
        <time>2025-04-30T12:35:48.294Z</time>
      </trkpt>
      <trkpt lat="47.76359" lon="6.54938">
        <ele>468.64</ele>
        <time>2025-04-30T12:35:56.276Z</time>
      </trkpt>
      <trkpt lat="47.76359" lon="6.54943">
        <ele>468.97</ele>
        <time>2025-04-30T12:36:04.259Z</time>
      </trkpt>
      <trkpt lat="47.76359" lon="6.54948">
        <ele>469.28</ele>
        <time>2025-04-30T12:36:12.243Z</time>
      </trkpt>
      <trkpt lat="47.76359" lon="6.54954">
        <ele>469.59</ele>
        <time>2025-04-30T12:36:20.228Z</time>
      </trkpt>
      <trkpt lat="47.76359" lon="6.54959">
        <ele>469.88</ele>
        <time>2025-04-30T12:36:28.213Z</time>
      </trkpt>
      <trkpt lat="47.7636" lon="6.54965">
        <ele>470.17</ele>
        <time>2025-04-30T12:36:36.199Z</time>
      </trkpt>
      <trkpt lat="47.76362" lon="6.54974">
        <ele>470.44</ele>
        <time>2025-04-30T12:36:44.187Z</time>
      </trkpt>
      <trkpt lat="47.76363" lon="6.54979">
        <ele>470.69</ele>
        <time>2025-04-30T12:36:52.175Z</time>
      </trkpt>
      <trkpt lat="47.76364" lon="6.54983">
        <ele>470.92</ele>
        <time>2025-04-30T12:37:00.164Z</time>
      </trkpt>
      <trkpt lat="47.76365" lon="6.54988">
        <ele>471.13</ele>
        <time>2025-04-30T12:37:08.154Z</time>
      </trkpt>
      <trkpt lat="47.76365" lon="6.54994">
        <ele>471.32</ele>
        <time>2025-04-30T12:37:16.145Z</time>
      </trkpt>
      <trkpt lat="47.76364" lon="6.54999">
        <ele>471.48</ele>
        <time>2025-04-30T12:37:24.136Z</time>
      </trkpt>
      <trkpt lat="47.76361" lon="6.55003">
        <ele>471.61</ele>
        <time>2025-04-30T12:37:32.128Z</time>
      </trkpt>
      <trkpt lat="47.76358" lon="6.55008">
        <ele>471.71</ele>
        <time>2025-04-30T12:37:40.121Z</time>
      </trkpt>
      <trkpt lat="47.76356" lon="6.55011">
        <ele>471.78</ele>
        <time>2025-04-30T12:37:48.115Z</time>
      </trkpt>
      <trkpt lat="47.76352" lon="6.55014">
        <ele>471.82</ele>
        <time>2025-04-30T12:37:56.110Z</time>
      </trkpt>
      <trkpt lat="47.76348" lon="6.55019">
        <ele>471.86</ele>
        <time>2025-04-30T12:38:04.106Z</time>
      </trkpt>
      <trkpt lat="47.76345" lon="6.55023">
        <ele>471.87</ele>
        <time>2025-04-30T12:38:12.103Z</time>
      </trkpt>
      <trkpt lat="47.7634" lon="6.55028">
        <ele>471.85</ele>
        <time>2025-04-30T12:38:20.101Z</time>
      </trkpt>
      <trkpt lat="47.76338" lon="6.55032">
        <ele>471.79</ele>
        <time>2025-04-30T12:38:28.100Z</time>
      </trkpt>
      <trkpt lat="47.76333" lon="6.55036">
        <ele>471.7</ele>
        <time>2025-04-30T12:38:36.100Z</time>
      </trkpt>
      <trkpt lat="47.7633" lon="6.55039">
        <ele>471.59</ele>
        <time>2025-04-30T12:38:44.101Z</time>
      </trkpt>
      <trkpt lat="47.76326" lon="6.55042">
        <ele>471.44</ele>
        <time>2025-04-30T12:38:52.103Z</time>
      </trkpt>
      <trkpt lat="47.76322" lon="6.55045">
        <ele>471.29</ele>
        <time>2025-04-30T12:39:00.106Z</time>
      </trkpt>
      <trkpt lat="47.76318" lon="6.55049">
        <ele>471.11</ele>
        <time>2025-04-30T12:39:08.110Z</time>
      </trkpt>
      <trkpt lat="47.76313" lon="6.55053">
        <ele>470.9</ele>
        <time>2025-04-30T12:39:16.115Z</time>
      </trkpt>
      <trkpt lat="47.76309" lon="6.55057">
        <ele>470.65</ele>
        <time>2025-04-30T12:39:24.121Z</time>
      </trkpt>
      <trkpt lat="47.76305" lon="6.5506">
        <ele>470.37</ele>
        <time>2025-04-30T12:39:32.128Z</time>
      </trkpt>
      <trkpt lat="47.76301" lon="6.55062">
        <ele>470.06</ele>
        <time>2025-04-30T12:39:40.136Z</time>
      </trkpt>
      <trkpt lat="47.76296" lon="6.55065">
        <ele>469.73</ele>
        <time>2025-04-30T12:39:48.145Z</time>
      </trkpt>
      <trkpt lat="47.76292" lon="6.55068">
        <ele>469.37</ele>
        <time>2025-04-30T12:39:56.155Z</time>
      </trkpt>
      <trkpt lat="47.76265" lon="6.55079">
        <ele>468.94</ele>
        <time>2025-04-30T12:40:04.171Z</time>
      </trkpt>
      <trkpt lat="47.7626" lon="6.5508">
        <ele>468.54</ele>
        <time>2025-04-30T12:40:12.188Z</time>
      </trkpt>
      <trkpt lat="47.76227" lon="6.55084">
        <ele>468.06</ele>
        <time>2025-04-30T12:40:20.212Z</time>
      </trkpt>
      <trkpt lat="47.76212" lon="6.55084">
        <ele>467.6</ele>
        <time>2025-04-30T12:40:28.239Z</time>
      </trkpt>
      <trkpt lat="47.76201" lon="6.55083">
        <ele>467.14</ele>
        <time>2025-04-30T12:40:36.269Z</time>
      </trkpt>
      <trkpt lat="47.76196" lon="6.55083">
        <ele>466.66</ele>
        <time>2025-04-30T12:40:44.300Z</time>
      </trkpt>
      <trkpt lat="47.7619" lon="6.55083">
        <ele>466.17</ele>
        <time>2025-04-30T12:40:52.332Z</time>
      </trkpt>
      <trkpt lat="47.76184" lon="6.55083">
        <ele>465.67</ele>
        <time>2025-04-30T12:41:00.365Z</time>
      </trkpt>
      <trkpt lat="47.76158" lon="6.55092">
        <ele>465.15</ele>
        <time>2025-04-30T12:41:08.404Z</time>
      </trkpt>
      <trkpt lat="47.76145" lon="6.55097">
        <ele>464.59</ele>
        <time>2025-04-30T12:41:16.446Z</time>
      </trkpt>
      <trkpt lat="47.76138" lon="6.55098">
        <ele>464.04</ele>
        <time>2025-04-30T12:41:24.490Z</time>
      </trkpt>
      <trkpt lat="47.76131" lon="6.551">
        <ele>463.47</ele>
        <time>2025-04-30T12:41:32.535Z</time>
      </trkpt>
      <trkpt lat="47.76124" lon="6.55101">
        <ele>462.91</ele>
        <time>2025-04-30T12:41:40.582Z</time>
      </trkpt>
      <trkpt lat="47.76101" lon="6.55106">
        <ele>462.31</ele>
        <time>2025-04-30T12:41:48.633Z</time>
      </trkpt>
      <trkpt lat="47.76094" lon="6.55108">
        <ele>461.73</ele>
        <time>2025-04-30T12:41:56.686Z</time>
      </trkpt>
      <trkpt lat="47.76079" lon="6.55109">
        <ele>461.12</ele>
        <time>2025-04-30T12:42:04.742Z</time>
      </trkpt>
      <trkpt lat="47.76071" lon="6.5511">
        <ele>460.53</ele>
        <time>2025-04-30T12:42:12.800Z</time>
      </trkpt>
      <trkpt lat="47.76063" lon="6.55112">
        <ele>459.94</ele>
        <time>2025-04-30T12:42:20.860Z</time>
      </trkpt>
      <trkpt lat="47.76056" lon="6.55115">
        <ele>459.36</ele>
        <time>2025-04-30T12:42:28.921Z</time>
      </trkpt>
      <trkpt lat="47.76041" lon="6.55122">
        <ele>458.77</ele>
        <time>2025-04-30T12:42:36.986Z</time>
      </trkpt>
      <trkpt lat="47.76035" lon="6.55126">
        <ele>458.18</ele>
        <time>2025-04-30T12:42:45.052Z</time>
      </trkpt>
      <trkpt lat="47.76028" lon="6.5513">
        <ele>457.61</ele>
        <time>2025-04-30T12:42:53.120Z</time>
      </trkpt>
      <trkpt lat="47.76015" lon="6.55139">
        <ele>457.02</ele>
        <time>2025-04-30T12:43:01.191Z</time>
      </trkpt>
      <trkpt lat="47.76001" lon="6.55146">
        <ele>456.43</ele>
        <time>2025-04-30T12:43:09.265Z</time>
      </trkpt>
      <trkpt lat="47.75994" lon="6.55149">
        <ele>455.88</ele>
        <time>2025-04-30T12:43:17.341Z</time>
      </trkpt>
      <trkpt lat="47.75957" lon="6.55158">
        <ele>455.34</ele>
        <time>2025-04-30T12:43:25.424Z</time>
      </trkpt>
      <trkpt lat="47.75929" lon="6.55162">
        <ele>454.85</ele>
        <time>2025-04-30T12:43:33.513Z</time>
      </trkpt>
      <trkpt lat="47.75923" lon="6.55163">
        <ele>454.36</ele>
        <time>2025-04-30T12:43:41.604Z</time>
      </trkpt>
      <trkpt lat="47.75916" lon="6.55163">
        <ele>453.87</ele>
        <time>2025-04-30T12:43:49.696Z</time>
      </trkpt>
      <trkpt lat="47.7591" lon="6.55163">
        <ele>453.4</ele>
        <time>2025-04-30T12:43:57.790Z</time>
      </trkpt>
      <trkpt lat="47.75903" lon="6.55163">
        <ele>452.94</ele>
        <time>2025-04-30T12:44:05.885Z</time>
      </trkpt>
      <trkpt lat="47.75897" lon="6.55165">
        <ele>452.5</ele>
        <time>2025-04-30T12:44:13.981Z</time>
      </trkpt>
      <trkpt lat="47.75891" lon="6.55166">
        <ele>452.08</ele>
        <time>2025-04-30T12:44:22.079Z</time>
      </trkpt>
      <trkpt lat="47.75885" lon="6.55168">
        <ele>451.68</ele>
        <time>2025-04-30T12:44:30.178Z</time>
      </trkpt>
      <trkpt lat="47.75879" lon="6.5517">
        <ele>451.3</ele>
        <time>2025-04-30T12:44:38.278Z</time>
      </trkpt>
      <trkpt lat="47.75868" lon="6.55176">
        <ele>450.92</ele>
        <time>2025-04-30T12:44:46.381Z</time>
      </trkpt>
      <trkpt lat="47.75857" lon="6.5518">
        <ele>450.56</ele>
        <time>2025-04-30T12:44:54.486Z</time>
      </trkpt>
      <trkpt lat="47.75852" lon="6.55181">
        <ele>450.22</ele>
        <time>2025-04-30T12:45:02.592Z</time>
      </trkpt>
      <trkpt lat="47.75846" lon="6.55182">
        <ele>449.88</ele>
        <time>2025-04-30T12:45:10.700Z</time>
      </trkpt>
      <trkpt lat="47.75841" lon="6.55183">
        <ele>449.56</ele>
        <time>2025-04-30T12:45:18.809Z</time>
      </trkpt>
      <trkpt lat="47.7583" lon="6.55183">
        <ele>449.23</ele>
        <time>2025-04-30T12:45:26.920Z</time>
      </trkpt>
      <trkpt lat="47.75826" lon="6.55183">
        <ele>448.92</ele>
        <time>2025-04-30T12:45:35.032Z</time>
      </trkpt>
      <trkpt lat="47.75822" lon="6.55183">
        <ele>448.63</ele>
        <time>2025-04-30T12:45:43.145Z</time>
      </trkpt>
      <trkpt lat="47.75818" lon="6.55184">
        <ele>448.34</ele>
        <time>2025-04-30T12:45:51.259Z</time>
      </trkpt>
      <trkpt lat="47.75815" lon="6.55184">
        <ele>448.07</ele>
        <time>2025-04-30T12:45:59.373Z</time>
      </trkpt>
      <trkpt lat="47.75812" lon="6.55185">
        <ele>447.79</ele>
        <time>2025-04-30T12:46:07.488Z</time>
      </trkpt>
      <trkpt lat="47.75809" lon="6.55185">
        <ele>447.53</ele>
        <time>2025-04-30T12:46:15.604Z</time>
      </trkpt>
      <trkpt lat="47.75806" lon="6.55187">
        <ele>447.27</ele>
        <time>2025-04-30T12:46:23.720Z</time>
      </trkpt>
      <trkpt lat="47.75803" lon="6.55187">
        <ele>447.01</ele>
        <time>2025-04-30T12:46:31.837Z</time>
      </trkpt>
      <trkpt lat="47.75798" lon="6.55188">
        <ele>446.74</ele>
        <time>2025-04-30T12:46:39.955Z</time>
      </trkpt>
      <trkpt lat="47.75777" lon="6.55196">
        <ele>446.44</ele>
        <time>2025-04-30T12:46:48.078Z</time>
      </trkpt>
      <trkpt lat="47.75775" lon="6.55201">
        <ele>446.18</ele>
        <time>2025-04-30T12:46:56.202Z</time>
      </trkpt>
      <trkpt lat="47.75775" lon="6.55207">
        <ele>445.92</ele>
        <time>2025-04-30T12:47:04.326Z</time>
      </trkpt>
      <trkpt lat="47.75777" lon="6.55214">
        <ele>445.65</ele>
        <time>2025-04-30T12:47:12.452Z</time>
      </trkpt>
      <trkpt lat="47.7578" lon="6.55228">
        <ele>445.39</ele>
        <time>2025-04-30T12:47:20.580Z</time>
      </trkpt>
      <trkpt lat="47.75782" lon="6.55233">
        <ele>445.1</ele>
        <time>2025-04-30T12:47:28.708Z</time>
      </trkpt>
      <trkpt lat="47.75783" lon="6.55239">
        <ele>444.81</ele>
        <time>2025-04-30T12:47:36.837Z</time>
      </trkpt>
      <trkpt lat="47.75785" lon="6.55244">
        <ele>444.51</ele>
        <time>2025-04-30T12:47:44.967Z</time>
      </trkpt>
      <trkpt lat="47.75787" lon="6.5525">
        <ele>444.2</ele>
        <time>2025-04-30T12:47:53.098Z</time>
      </trkpt>
      <trkpt lat="47.75791" lon="6.55262">
        <ele>443.87</ele>
        <time>2025-04-30T12:48:01.231Z</time>
      </trkpt>
      <trkpt lat="47.75797" lon="6.55278">
        <ele>443.53</ele>
        <time>2025-04-30T12:48:09.367Z</time>
      </trkpt>
      <trkpt lat="47.758" lon="6.5529">
        <ele>443.15</ele>
        <time>2025-04-30T12:48:17.505Z</time>
      </trkpt>
      <trkpt lat="47.75802" lon="6.55296">
        <ele>442.75</ele>
        <time>2025-04-30T12:48:25.644Z</time>
      </trkpt>
      <trkpt lat="47.75808" lon="6.55314">
        <ele>442.32</ele>
        <time>2025-04-30T12:48:33.786Z</time>
      </trkpt>
      <trkpt lat="47.75815" lon="6.55327">
        <ele>441.86</ele>
        <time>2025-04-30T12:48:41.930Z</time>
      </trkpt>
      <trkpt lat="47.75823" lon="6.5534">
        <ele>441.36</ele>
        <time>2025-04-30T12:48:50.076Z</time>
      </trkpt>
      <trkpt lat="47.75827" lon="6.55347">
        <ele>440.85</ele>
        <time>2025-04-30T12:48:58.224Z</time>
      </trkpt>
      <trkpt lat="47.7583" lon="6.55356">
        <ele>440.32</ele>
        <time>2025-04-30T12:49:06.373Z</time>
      </trkpt>
      <trkpt lat="47.75834" lon="6.55365">
        <ele>439.78</ele>
        <time>2025-04-30T12:49:14.524Z</time>
      </trkpt>
      <trkpt lat="47.75838" lon="6.55374">
        <ele>439.23</ele>
        <time>2025-04-30T12:49:22.676Z</time>
      </trkpt>
      <trkpt lat="47.75842" lon="6.55383">
        <ele>438.67</ele>
        <time>2025-04-30T12:49:30.830Z</time>
      </trkpt>
      <trkpt lat="47.75845" lon="6.55393">
        <ele>438.09</ele>
        <time>2025-04-30T12:49:38.985Z</time>
      </trkpt>
      <trkpt lat="47.75849" lon="6.55402">
        <ele>437.49</ele>
        <time>2025-04-30T12:49:47.142Z</time>
      </trkpt>
      <trkpt lat="47.75856" lon="6.55421">
        <ele>436.84</ele>
        <time>2025-04-30T12:49:55.302Z</time>
      </trkpt>
      <trkpt lat="47.75861" lon="6.55431">
        <ele>436.21</ele>
        <time>2025-04-30T12:50:03.464Z</time>
      </trkpt>
      <trkpt lat="47.75865" lon="6.5544">
        <ele>435.57</ele>
        <time>2025-04-30T12:50:11.628Z</time>
      </trkpt>
      <trkpt lat="47.7587" lon="6.55447">
        <ele>434.91</ele>
        <time>2025-04-30T12:50:19.793Z</time>
      </trkpt>
      <trkpt lat="47.7588" lon="6.55463">
        <ele>434.18</ele>
        <time>2025-04-30T12:50:27.961Z</time>
      </trkpt>
      <trkpt lat="47.75889" lon="6.55479">
        <ele>433.45</ele>
        <time>2025-04-30T12:50:36.132Z</time>
      </trkpt>
      <trkpt lat="47.75901" lon="6.55501">
        <ele>432.69</ele>
        <time>2025-04-30T12:50:44.307Z</time>
      </trkpt>
      <trkpt lat="47.75903" lon="6.55508">
        <ele>432.02</ele>
        <time>2025-04-30T12:50:52.483Z</time>
      </trkpt>
      <trkpt lat="47.75905" lon="6.55515">
        <ele>431.34</ele>
        <time>2025-04-30T12:51:00.660Z</time>
      </trkpt>
      <trkpt lat="47.75905" lon="6.55522">
        <ele>430.65</ele>
        <time>2025-04-30T12:51:08.838Z</time>
      </trkpt>
      <trkpt lat="47.75905" lon="6.5553">
        <ele>429.95</ele>
        <time>2025-04-30T12:51:17.018Z</time>
      </trkpt>
      <trkpt lat="47.75903" lon="6.55537">
        <ele>429.25</ele>
        <time>2025-04-30T12:51:25.199Z</time>
      </trkpt>
      <trkpt lat="47.75902" lon="6.55543">
        <ele>428.52</ele>
        <time>2025-04-30T12:51:33.381Z</time>
      </trkpt>
      <trkpt lat="47.759" lon="6.55548">
        <ele>427.79</ele>
        <time>2025-04-30T12:51:41.563Z</time>
      </trkpt>
      <trkpt lat="47.75898" lon="6.55554">
        <ele>427.04</ele>
        <time>2025-04-30T12:51:49.746Z</time>
      </trkpt>
      <trkpt lat="47.75897" lon="6.55562">
        <ele>426.28</ele>
        <time>2025-04-30T12:51:57.931Z</time>
      </trkpt>
      <trkpt lat="47.75892" lon="6.55572">
        <ele>425.52</ele>
        <time>2025-04-30T12:52:06.117Z</time>
      </trkpt>
      <trkpt lat="47.75881" lon="6.55592">
        <ele>424.73</ele>
        <time>2025-04-30T12:52:14.307Z</time>
      </trkpt>
      <trkpt lat="47.75873" lon="6.55603">
        <ele>423.91</ele>
        <time>2025-04-30T12:52:22.499Z</time>
      </trkpt>
      <trkpt lat="47.75855" lon="6.55634">
        <ele>423.02</ele>
        <time>2025-04-30T12:52:30.697Z</time>
      </trkpt>
      <trkpt lat="47.75847" lon="6.55652">
        <ele>422.15</ele>
        <time>2025-04-30T12:52:38.898Z</time>
      </trkpt>
      <trkpt lat="47.75844" lon="6.55659">
        <ele>421.29</ele>
        <time>2025-04-30T12:52:47.101Z</time>
      </trkpt>
      <trkpt lat="47.75839" lon="6.55665">
        <ele>420.42</ele>
        <time>2025-04-30T12:52:55.305Z</time>
      </trkpt>
      <trkpt lat="47.75834" lon="6.55673">
        <ele>419.53</ele>
        <time>2025-04-30T12:53:03.511Z</time>
      </trkpt>
      <trkpt lat="47.75826" lon="6.55683">
        <ele>418.62</ele>
        <time>2025-04-30T12:53:11.719Z</time>
      </trkpt>
      <trkpt lat="47.75811" lon="6.55707">
        <ele>417.64</ele>
        <time>2025-04-30T12:53:19.932Z</time>
      </trkpt>
      <trkpt lat="47.75798" lon="6.55726">
        <ele>416.68</ele>
        <time>2025-04-30T12:53:28.149Z</time>
      </trkpt>
      <trkpt lat="47.75785" lon="6.55741">
        <ele>415.75</ele>
        <time>2025-04-30T12:53:36.369Z</time>
      </trkpt>
      <trkpt lat="47.75778" lon="6.55747">
        <ele>414.87</ele>
        <time>2025-04-30T12:53:44.591Z</time>
      </trkpt>
      <trkpt lat="47.75772" lon="6.55753">
        <ele>413.99</ele>
        <time>2025-04-30T12:53:52.814Z</time>
      </trkpt>
      <trkpt lat="47.75757" lon="6.55763">
        <ele>413.09</ele>
        <time>2025-04-30T12:54:01.041Z</time>
      </trkpt>
      <trkpt lat="47.75749" lon="6.55767">
        <ele>412.24</ele>
        <time>2025-04-30T12:54:09.270Z</time>
      </trkpt>
      <trkpt lat="47.75741" lon="6.55771">
        <ele>411.38</ele>
        <time>2025-04-30T12:54:17.500Z</time>
      </trkpt>
      <trkpt lat="47.75726" lon="6.55779">
        <ele>410.5</ele>
        <time>2025-04-30T12:54:25.734Z</time>
      </trkpt>
      <trkpt lat="47.75719" lon="6.55784">
        <ele>409.67</ele>
        <time>2025-04-30T12:54:33.969Z</time>
      </trkpt>
      <trkpt lat="47.75713" lon="6.5579">
        <ele>408.85</ele>
        <time>2025-04-30T12:54:42.206Z</time>
      </trkpt>
      <trkpt lat="47.75708" lon="6.55795">
        <ele>408.04</ele>
        <time>2025-04-30T12:54:50.444Z</time>
      </trkpt>
      <trkpt lat="47.75704" lon="6.55799">
        <ele>407.23</ele>
        <time>2025-04-30T12:54:58.683Z</time>
      </trkpt>
      <trkpt lat="47.75701" lon="6.55802">
        <ele>406.44</ele>
        <time>2025-04-30T12:55:06.923Z</time>
      </trkpt>
      <trkpt lat="47.75698" lon="6.55804">
        <ele>405.66</ele>
        <time>2025-04-30T12:55:15.164Z</time>
      </trkpt>
      <trkpt lat="47.75696" lon="6.55807">
        <ele>404.88</ele>
        <time>2025-04-30T12:55:23.406Z</time>
      </trkpt>
      <trkpt lat="47.75694" lon="6.55811">
        <ele>404.12</ele>
        <time>2025-04-30T12:55:31.648Z</time>
      </trkpt>
      <trkpt lat="47.75691" lon="6.55814">
        <ele>403.36</ele>
        <time>2025-04-30T12:55:39.891Z</time>
      </trkpt>
      <trkpt lat="47.75687" lon="6.55817">
        <ele>402.62</ele>
        <time>2025-04-30T12:55:48.135Z</time>
      </trkpt>
      <trkpt lat="47.75676" lon="6.55816">
        <ele>401.87</ele>
        <time>2025-04-30T12:55:56.381Z</time>
      </trkpt>
      <trkpt lat="47.75672" lon="6.55815">
        <ele>401.15</ele>
        <time>2025-04-30T12:56:04.628Z</time>
      </trkpt>
      <trkpt lat="47.75668" lon="6.55815">
        <ele>400.43</ele>
        <time>2025-04-30T12:56:12.876Z</time>
      </trkpt>
      <trkpt lat="47.75659" lon="6.55815">
        <ele>399.71</ele>
        <time>2025-04-30T12:56:21.126Z</time>
      </trkpt>
      <trkpt lat="47.75638" lon="6.55814">
        <ele>398.96</ele>
        <time>2025-04-30T12:56:29.380Z</time>
      </trkpt>
      <trkpt lat="47.75632" lon="6.55814">
        <ele>398.29</ele>
        <time>2025-04-30T12:56:37.636Z</time>
      </trkpt>
      <trkpt lat="47.75613" lon="6.55816">
        <ele>397.61</ele>
        <time>2025-04-30T12:56:45.896Z</time>
      </trkpt>
      <trkpt lat="47.75602" lon="6.55818">
        <ele>397</ele>
        <time>2025-04-30T12:56:54.158Z</time>
      </trkpt>
      <trkpt lat="47.75596" lon="6.55819">
        <ele>396.39</ele>
        <time>2025-04-30T12:57:02.421Z</time>
      </trkpt>
      <trkpt lat="47.75591" lon="6.55821">
        <ele>395.81</ele>
        <time>2025-04-30T12:57:10.686Z</time>
      </trkpt>
      <trkpt lat="47.75584" lon="6.55822">
        <ele>395.24</ele>
        <time>2025-04-30T12:57:18.952Z</time>
      </trkpt>
      <trkpt lat="47.75571" lon="6.55823">
        <ele>394.68</ele>
        <time>2025-04-30T12:57:27.221Z</time>
      </trkpt>
      <trkpt lat="47.75566" lon="6.55825">
        <ele>394.15</ele>
        <time>2025-04-30T12:57:35.491Z</time>
      </trkpt>
      <trkpt lat="47.75561" lon="6.55829">
        <ele>393.62</ele>
        <time>2025-04-30T12:57:43.762Z</time>
      </trkpt>
      <trkpt lat="47.75556" lon="6.55833">
        <ele>393.09</ele>
        <time>2025-04-30T12:57:52.035Z</time>
      </trkpt>
      <trkpt lat="47.75551" lon="6.55838">
        <ele>392.58</ele>
        <time>2025-04-30T12:58:00.309Z</time>
      </trkpt>
      <trkpt lat="47.75547" lon="6.55843">
        <ele>392.11</ele>
        <time>2025-04-30T12:58:08.584Z</time>
      </trkpt>
      <trkpt lat="47.75543" lon="6.55848">
        <ele>391.64</ele>
        <time>2025-04-30T12:58:16.860Z</time>
      </trkpt>
      <trkpt lat="47.75539" lon="6.55854">
        <ele>391.19</ele>
        <time>2025-04-30T12:58:25.137Z</time>
      </trkpt>
      <trkpt lat="47.75536" lon="6.55859">
        <ele>390.77</ele>
        <time>2025-04-30T12:58:33.415Z</time>
      </trkpt>
      <trkpt lat="47.75533" lon="6.55863">
        <ele>390.37</ele>
        <time>2025-04-30T12:58:41.694Z</time>
      </trkpt>
      <trkpt lat="47.7553" lon="6.55868">
        <ele>390.01</ele>
        <time>2025-04-30T12:58:49.974Z</time>
      </trkpt>
      <trkpt lat="47.75528" lon="6.55871">
        <ele>389.67</ele>
        <time>2025-04-30T12:58:58.255Z</time>
      </trkpt>
      <trkpt lat="47.75525" lon="6.55873">
        <ele>389.34</ele>
        <time>2025-04-30T12:59:06.536Z</time>
      </trkpt>
      <trkpt lat="47.75523" lon="6.55875">
        <ele>389.04</ele>
        <time>2025-04-30T12:59:14.818Z</time>
      </trkpt>
      <trkpt lat="47.75522" lon="6.55878">
        <ele>388.75</ele>
        <time>2025-04-30T12:59:23.100Z</time>
      </trkpt>
      <trkpt lat="47.7552" lon="6.55881">
        <ele>388.47</ele>
        <time>2025-04-30T12:59:31.383Z</time>
      </trkpt>
      <trkpt lat="47.75517" lon="6.55883">
        <ele>388.2</ele>
        <time>2025-04-30T12:59:39.667Z</time>
      </trkpt>
      <trkpt lat="47.75514" lon="6.55886">
        <ele>387.95</ele>
        <time>2025-04-30T12:59:47.951Z</time>
      </trkpt>
      <trkpt lat="47.7551" lon="6.55886">
        <ele>387.72</ele>
        <time>2025-04-30T12:59:56.236Z</time>
      </trkpt>
      <trkpt lat="47.75506" lon="6.55883">
        <ele>387.5</ele>
        <time>2025-04-30T13:00:04.522Z</time>
      </trkpt>
      <trkpt lat="47.75495" lon="6.55873">
        <ele>387.32</ele>
        <time>2025-04-30T13:00:12.811Z</time>
      </trkpt>
      <trkpt lat="47.75492" lon="6.55869">
        <ele>387.14</ele>
        <time>2025-04-30T13:00:21.101Z</time>
      </trkpt>
      <trkpt lat="47.75488" lon="6.55865">
        <ele>386.96</ele>
        <time>2025-04-30T13:00:29.392Z</time>
      </trkpt>
      <trkpt lat="47.75479" lon="6.55855">
        <ele>386.8</ele>
        <time>2025-04-30T13:00:37.685Z</time>
      </trkpt>
      <trkpt lat="47.75476" lon="6.55852">
        <ele>386.64</ele>
        <time>2025-04-30T13:00:45.979Z</time>
      </trkpt>
      <trkpt lat="47.75473" lon="6.55849">
        <ele>386.48</ele>
        <time>2025-04-30T13:00:54.274Z</time>
      </trkpt>
      <trkpt lat="47.75469" lon="6.55847">
        <ele>386.32</ele>
        <time>2025-04-30T13:01:02.570Z</time>
      </trkpt>
      <trkpt lat="47.75466" lon="6.55846">
        <ele>386.15</ele>
        <time>2025-04-30T13:01:10.866Z</time>
      </trkpt>
      <trkpt lat="47.75463" lon="6.55848">
        <ele>385.98</ele>
        <time>2025-04-30T13:01:19.163Z</time>
      </trkpt>
      <trkpt lat="47.75455" lon="6.55855">
        <ele>385.79</ele>
        <time>2025-04-30T13:01:27.462Z</time>
      </trkpt>
      <trkpt lat="47.7545" lon="6.55858">
        <ele>385.61</ele>
        <time>2025-04-30T13:01:35.762Z</time>
      </trkpt>
      <trkpt lat="47.75445" lon="6.55861">
        <ele>385.43</ele>
        <time>2025-04-30T13:01:44.063Z</time>
      </trkpt>
      <trkpt lat="47.75439" lon="6.55864">
        <ele>385.24</ele>
        <time>2025-04-30T13:01:52.366Z</time>
      </trkpt>
      <trkpt lat="47.75423" lon="6.55874">
        <ele>385.02</ele>
        <time>2025-04-30T13:02:00.673Z</time>
      </trkpt>
      <trkpt lat="47.75412" lon="6.5588">
        <ele>384.81</ele>
        <time>2025-04-30T13:02:08.982Z</time>
      </trkpt>
      <trkpt lat="47.75407" lon="6.55883">
        <ele>384.61</ele>
        <time>2025-04-30T13:02:17.292Z</time>
      </trkpt>
      <trkpt lat="47.75395" lon="6.55887">
        <ele>384.4</ele>
        <time>2025-04-30T13:02:25.605Z</time>
      </trkpt>
      <trkpt lat="47.75377" lon="6.55891">
        <ele>384.22</ele>
        <time>2025-04-30T13:02:33.922Z</time>
      </trkpt>
      <trkpt lat="47.75366" lon="6.55894">
        <ele>384.01</ele>
        <time>2025-04-30T13:02:42.241Z</time>
      </trkpt>
      <trkpt lat="47.75361" lon="6.55896">
        <ele>383.77</ele>
        <time>2025-04-30T13:02:50.561Z</time>
      </trkpt>
      <trkpt lat="47.75357" lon="6.55899">
        <ele>383.51</ele>
        <time>2025-04-30T13:02:58.882Z</time>
      </trkpt>
      <trkpt lat="47.75353" lon="6.55902">
        <ele>383.23</ele>
        <time>2025-04-30T13:03:07.204Z</time>
      </trkpt>
      <trkpt lat="47.75349" lon="6.55905">
        <ele>382.93</ele>
        <time>2025-04-30T13:03:15.527Z</time>
      </trkpt>
      <trkpt lat="47.75345" lon="6.55909">
        <ele>382.62</ele>
        <time>2025-04-30T13:03:23.851Z</time>
      </trkpt>
      <trkpt lat="47.75342" lon="6.55913">
        <ele>382.28</ele>
        <time>2025-04-30T13:03:32.176Z</time>
      </trkpt>
      <trkpt lat="47.75338" lon="6.55916">
        <ele>381.92</ele>
        <time>2025-04-30T13:03:40.502Z</time>
      </trkpt>
      <trkpt lat="47.75335" lon="6.55918">
        <ele>381.56</ele>
        <time>2025-04-30T13:03:48.829Z</time>
      </trkpt>
      <trkpt lat="47.75332" lon="6.5592">
        <ele>381.18</ele>
        <time>2025-04-30T13:03:57.156Z</time>
      </trkpt>
      <trkpt lat="47.75328" lon="6.55922">
        <ele>380.78</ele>
        <time>2025-04-30T13:04:05.484Z</time>
      </trkpt>
      <trkpt lat="47.75322" lon="6.55925">
        <ele>380.35</ele>
        <time>2025-04-30T13:04:13.814Z</time>
      </trkpt>
      <trkpt lat="47.75316" lon="6.55928">
        <ele>379.91</ele>
        <time>2025-04-30T13:04:22.145Z</time>
      </trkpt>
      <trkpt lat="47.75299" lon="6.55933">
        <ele>379.44</ele>
        <time>2025-04-30T13:04:30.480Z</time>
      </trkpt>
      <trkpt lat="47.75293" lon="6.55935">
        <ele>378.96</ele>
        <time>2025-04-30T13:04:38.816Z</time>
      </trkpt>
      <trkpt lat="47.75286" lon="6.55937">
        <ele>378.46</ele>
        <time>2025-04-30T13:04:47.154Z</time>
      </trkpt>
      <trkpt lat="47.75278" lon="6.5594">
        <ele>377.93</ele>
        <time>2025-04-30T13:04:55.493Z</time>
      </trkpt>
      <trkpt lat="47.75264" lon="6.55944">
        <ele>377.35</ele>
        <time>2025-04-30T13:05:03.835Z</time>
      </trkpt>
      <trkpt lat="47.75249" lon="6.55948">
        <ele>376.78</ele>
        <time>2025-04-30T13:05:12.181Z</time>
      </trkpt>
      <trkpt lat="47.75241" lon="6.5595">
        <ele>376.24</ele>
        <time>2025-04-30T13:05:20.528Z</time>
      </trkpt>
      <trkpt lat="47.75228" lon="6.55956">
        <ele>375.66</ele>
        <time>2025-04-30T13:05:28.878Z</time>
      </trkpt>
      <trkpt lat="47.75223" lon="6.55958">
        <ele>375.09</ele>
        <time>2025-04-30T13:05:37.229Z</time>
      </trkpt>
      <trkpt lat="47.75219" lon="6.55964">
        <ele>374.51</ele>
        <time>2025-04-30T13:05:45.582Z</time>
      </trkpt>
      <trkpt lat="47.75217" lon="6.55968">
        <ele>373.94</ele>
        <time>2025-04-30T13:05:53.935Z</time>
      </trkpt>
      <trkpt lat="47.75217" lon="6.55973">
        <ele>373.37</ele>
        <time>2025-04-30T13:06:02.289Z</time>
      </trkpt>
      <trkpt lat="47.75217" lon="6.55978">
        <ele>372.79</ele>
        <time>2025-04-30T13:06:10.644Z</time>
      </trkpt>
      <trkpt lat="47.75219" lon="6.55982">
        <ele>372.2</ele>
        <time>2025-04-30T13:06:18.999Z</time>
      </trkpt>
      <trkpt lat="47.75221" lon="6.55986">
        <ele>371.62</ele>
        <time>2025-04-30T13:06:27.355Z</time>
      </trkpt>
      <trkpt lat="47.75226" lon="6.55998">
        <ele>371</ele>
        <time>2025-04-30T13:06:35.713Z</time>
      </trkpt>
      <trkpt lat="47.75226" lon="6.55999">
        <ele>370.42</ele>
        <time>2025-04-30T13:06:44.071Z</time>
      </trkpt>
      <trkpt lat="47.75228" lon="6.56005">
        <ele>369.82</ele>
        <time>2025-04-30T13:06:52.430Z</time>
      </trkpt>
      <trkpt lat="47.7523" lon="6.56018">
        <ele>369.22</ele>
        <time>2025-04-30T13:07:00.791Z</time>
      </trkpt>
      <trkpt lat="47.75237" lon="6.56042">
        <ele>368.58</ele>
        <time>2025-04-30T13:07:09.156Z</time>
      </trkpt>
      <trkpt lat="47.75248" lon="6.56076">
        <ele>367.93</ele>
        <time>2025-04-30T13:07:17.527Z</time>
      </trkpt>
      <trkpt lat="47.75252" lon="6.56092">
        <ele>367.32</ele>
        <time>2025-04-30T13:07:25.900Z</time>
      </trkpt>
      <trkpt lat="47.75259" lon="6.56116">
        <ele>366.72</ele>
        <time>2025-04-30T13:07:34.277Z</time>
      </trkpt>
      <trkpt lat="47.7527" lon="6.56147">
        <ele>366.16</ele>
        <time>2025-04-30T13:07:42.659Z</time>
      </trkpt>
      <trkpt lat="47.75289" lon="6.56179">
        <ele>365.63</ele>
        <time>2025-04-30T13:07:51.047Z</time>
      </trkpt>
      <trkpt lat="47.75301" lon="6.56198">
        <ele>365.08</ele>
        <time>2025-04-30T13:07:59.439Z</time>
      </trkpt>
      <trkpt lat="47.75314" lon="6.56214">
        <ele>364.51</ele>
        <time>2025-04-30T13:08:07.834Z</time>
      </trkpt>
      <trkpt lat="47.75318" lon="6.56219">
        <ele>363.94</ele>
        <time>2025-04-30T13:08:16.231Z</time>
      </trkpt>
      <trkpt lat="47.7534" lon="6.56234">
        <ele>363.38</ele>
        <time>2025-04-30T13:08:24.633Z</time>
      </trkpt>
      <trkpt lat="47.7535" lon="6.5624">
        <ele>362.81</ele>
        <time>2025-04-30T13:08:33.037Z</time>
      </trkpt>
      <trkpt lat="47.75355" lon="6.56242">
        <ele>362.24</ele>
        <time>2025-04-30T13:08:41.442Z</time>
      </trkpt>
      <trkpt lat="47.75361" lon="6.56243">
        <ele>361.67</ele>
        <time>2025-04-30T13:08:49.848Z</time>
      </trkpt>
      <trkpt lat="47.75367" lon="6.56243">
        <ele>361.09</ele>
        <time>2025-04-30T13:08:58.256Z</time>
      </trkpt>
      <trkpt lat="47.75375" lon="6.56244">
        <ele>360.5</ele>
        <time>2025-04-30T13:09:06.665Z</time>
      </trkpt>
      <trkpt lat="47.75378" lon="6.56245">
        <ele>359.9</ele>
        <time>2025-04-30T13:09:15.075Z</time>
      </trkpt>
      <trkpt lat="47.75381" lon="6.56247">
        <ele>359.29</ele>
        <time>2025-04-30T13:09:23.486Z</time>
      </trkpt>
      <trkpt lat="47.75383" lon="6.56251">
        <ele>358.67</ele>
        <time>2025-04-30T13:09:31.897Z</time>
      </trkpt>
      <trkpt lat="47.75384" lon="6.56256">
        <ele>358.03</ele>
        <time>2025-04-30T13:09:40.309Z</time>
      </trkpt>
      <trkpt lat="47.75383" lon="6.56262">
        <ele>357.38</ele>
        <time>2025-04-30T13:09:48.722Z</time>
      </trkpt>
      <trkpt lat="47.75381" lon="6.56285">
        <ele>356.72</ele>
        <time>2025-04-30T13:09:57.138Z</time>
      </trkpt>
      <trkpt lat="47.75381" lon="6.56294">
        <ele>356.04</ele>
        <time>2025-04-30T13:10:05.556Z</time>
      </trkpt>
      <trkpt lat="47.75381" lon="6.56324">
        <ele>355.33</ele>
        <time>2025-04-30T13:10:13.978Z</time>
      </trkpt>
      <trkpt lat="47.75383" lon="6.56334">
        <ele>354.63</ele>
        <time>2025-04-30T13:10:22.402Z</time>
      </trkpt>
      <trkpt lat="47.75386" lon="6.56345">
        <ele>353.91</ele>
        <time>2025-04-30T13:10:30.827Z</time>
      </trkpt>
      <trkpt lat="47.75391" lon="6.56355">
        <ele>353.17</ele>
        <time>2025-04-30T13:10:39.254Z</time>
      </trkpt>
      <trkpt lat="47.75397" lon="6.56364">
        <ele>352.41</ele>
        <time>2025-04-30T13:10:47.683Z</time>
      </trkpt>
      <trkpt lat="47.75404" lon="6.56371">
        <ele>351.63</ele>
        <time>2025-04-30T13:10:56.114Z</time>
      </trkpt>
      <trkpt lat="47.75412" lon="6.56377">
        <ele>350.85</ele>
        <time>2025-04-30T13:11:04.547Z</time>
      </trkpt>
      <trkpt lat="47.75421" lon="6.56382">
        <ele>350.06</ele>
        <time>2025-04-30T13:11:12.982Z</time>
      </trkpt>
      <trkpt lat="47.7543" lon="6.56386">
        <ele>349.28</ele>
        <time>2025-04-30T13:11:21.419Z</time>
      </trkpt>
      <trkpt lat="47.75439" lon="6.56391">
        <ele>348.48</ele>
        <time>2025-04-30T13:11:29.858Z</time>
      </trkpt>
      <trkpt lat="47.75459" lon="6.564">
        <ele>347.67</ele>
        <time>2025-04-30T13:11:38.301Z</time>
      </trkpt>
      <trkpt lat="47.75468" lon="6.56407">
        <ele>346.87</ele>
        <time>2025-04-30T13:11:46.746Z</time>
      </trkpt>
      <trkpt lat="47.75476" lon="6.56417">
        <ele>346.06</ele>
        <time>2025-04-30T13:11:55.194Z</time>
      </trkpt>
      <trkpt lat="47.75482" lon="6.5643">
        <ele>345.23</ele>
        <time>2025-04-30T13:12:03.644Z</time>
      </trkpt>
      <trkpt lat="47.75485" lon="6.56444">
        <ele>344.39</ele>
        <time>2025-04-30T13:12:12.096Z</time>
      </trkpt>
      <trkpt lat="47.75485" lon="6.56458">
        <ele>343.55</ele>
        <time>2025-04-30T13:12:20.550Z</time>
      </trkpt>
      <trkpt lat="47.75482" lon="6.56472">
        <ele>342.72</ele>
        <time>2025-04-30T13:12:29.006Z</time>
      </trkpt>
      <trkpt lat="47.75477" lon="6.56487">
        <ele>341.91</ele>
        <time>2025-04-30T13:12:37.465Z</time>
      </trkpt>
      <trkpt lat="47.75471" lon="6.56501">
        <ele>341.12</ele>
        <time>2025-04-30T13:12:45.926Z</time>
      </trkpt>
      <trkpt lat="47.75466" lon="6.56516">
        <ele>340.36</ele>
        <time>2025-04-30T13:12:54.389Z</time>
      </trkpt>
      <trkpt lat="47.75463" lon="6.56532">
        <ele>339.59</ele>
        <time>2025-04-30T13:13:02.855Z</time>
      </trkpt>
      <trkpt lat="47.75462" lon="6.56549">
        <ele>338.85</ele>
        <time>2025-04-30T13:13:11.323Z</time>
      </trkpt>
      <trkpt lat="47.75462" lon="6.56567">
        <ele>338.11</ele>
        <time>2025-04-30T13:13:19.794Z</time>
      </trkpt>
      <trkpt lat="47.75462" lon="6.56584">
        <ele>337.38</ele>
        <time>2025-04-30T13:13:28.268Z</time>
      </trkpt>
      <trkpt lat="47.7546" lon="6.56638">
        <ele>336.69</ele>
        <time>2025-04-30T13:13:36.749Z</time>
      </trkpt>
      <trkpt lat="47.75456" lon="6.56673">
        <ele>336.07</ele>
        <time>2025-04-30T13:13:45.235Z</time>
      </trkpt>
      <trkpt lat="47.75454" lon="6.5669">
        <ele>335.48</ele>
        <time>2025-04-30T13:13:53.724Z</time>
      </trkpt>
      <trkpt lat="47.7545" lon="6.56723">
        <ele>334.92</ele>
        <time>2025-04-30T13:14:02.218Z</time>
      </trkpt>
      <trkpt lat="47.75449" lon="6.56739">
        <ele>334.36</ele>
        <time>2025-04-30T13:14:10.714Z</time>
      </trkpt>
      <trkpt lat="47.75447" lon="6.56755">
        <ele>333.84</ele>
        <time>2025-04-30T13:14:19.212Z</time>
      </trkpt>
      <trkpt lat="47.75445" lon="6.56769">
        <ele>333.37</ele>
        <time>2025-04-30T13:14:27.713Z</time>
      </trkpt>
      <trkpt lat="47.75443" lon="6.56784">
        <ele>332.93</ele>
        <time>2025-04-30T13:14:36.216Z</time>
      </trkpt>
      <trkpt lat="47.75441" lon="6.56799">
        <ele>332.53</ele>
        <time>2025-04-30T13:14:44.721Z</time>
      </trkpt>
      <trkpt lat="47.7544" lon="6.56813">
        <ele>332.12</ele>
        <time>2025-04-30T13:14:53.228Z</time>
      </trkpt>
      <trkpt lat="47.75439" lon="6.56827">
        <ele>331.74</ele>
        <time>2025-04-30T13:15:01.737Z</time>
      </trkpt>
      <trkpt lat="47.75438" lon="6.5684">
        <ele>331.41</ele>
        <time>2025-04-30T13:15:10.248Z</time>
      </trkpt>
      <trkpt lat="47.75437" lon="6.56853">
        <ele>331.1</ele>
        <time>2025-04-30T13:15:18.761Z</time>
      </trkpt>
      <trkpt lat="47.75435" lon="6.56865">
        <ele>330.82</ele>
        <time>2025-04-30T13:15:27.276Z</time>
      </trkpt>
      <trkpt lat="47.75434" lon="6.56877">
        <ele>330.57</ele>
        <time>2025-04-30T13:15:35.792Z</time>
      </trkpt>
      <trkpt lat="47.75433" lon="6.56888">
        <ele>330.35</ele>
        <time>2025-04-30T13:15:44.310Z</time>
      </trkpt>
      <trkpt lat="47.75432" lon="6.56899">
        <ele>330.15</ele>
        <time>2025-04-30T13:15:52.829Z</time>
      </trkpt>
      <trkpt lat="47.75431" lon="6.5691">
        <ele>329.97</ele>
        <time>2025-04-30T13:16:01.350Z</time>
      </trkpt>
      <trkpt lat="47.75431" lon="6.5692">
        <ele>329.83</ele>
        <time>2025-04-30T13:16:09.873Z</time>
      </trkpt>
      <trkpt lat="47.7543" lon="6.56931">
        <ele>329.71</ele>
        <time>2025-04-30T13:16:18.397Z</time>
      </trkpt>
      <trkpt lat="47.75429" lon="6.56942">
        <ele>329.62</ele>
        <time>2025-04-30T13:16:26.923Z</time>
      </trkpt>
      <trkpt lat="47.75428" lon="6.56953">
        <ele>329.57</ele>
        <time>2025-04-30T13:16:35.450Z</time>
      </trkpt>
      <trkpt lat="47.75426" lon="6.56973">
        <ele>329.54</ele>
        <time>2025-04-30T13:16:43.980Z</time>
      </trkpt>
      <trkpt lat="47.75423" lon="6.57004">
        <ele>329.52</ele>
        <time>2025-04-30T13:16:52.515Z</time>
      </trkpt>
      <trkpt lat="47.75422" lon="6.57013">
        <ele>329.55</ele>
        <time>2025-04-30T13:17:01.051Z</time>
      </trkpt>
      <trkpt lat="47.75422" lon="6.57023">
        <ele>329.62</ele>
        <time>2025-04-30T13:17:09.589Z</time>
      </trkpt>
      <trkpt lat="47.75421" lon="6.57033">
        <ele>329.71</ele>
        <time>2025-04-30T13:17:18.128Z</time>
      </trkpt>
      <trkpt lat="47.7542" lon="6.57043">
        <ele>329.83</ele>
        <time>2025-04-30T13:17:26.668Z</time>
      </trkpt>
      <trkpt lat="47.75419" lon="6.57052">
        <ele>329.97</ele>
        <time>2025-04-30T13:17:35.210Z</time>
      </trkpt>
      <trkpt lat="47.75418" lon="6.57062">
        <ele>330.13</ele>
        <time>2025-04-30T13:17:43.753Z</time>
      </trkpt>
      <trkpt lat="47.75417" lon="6.57071">
        <ele>330.32</ele>
        <time>2025-04-30T13:17:52.298Z</time>
      </trkpt>
      <trkpt lat="47.75416" lon="6.5708">
        <ele>330.52</ele>
        <time>2025-04-30T13:18:00.844Z</time>
      </trkpt>
      <trkpt lat="47.75415" lon="6.57089">
        <ele>330.76</ele>
        <time>2025-04-30T13:18:09.391Z</time>
      </trkpt>
      <trkpt lat="47.75415" lon="6.57099">
        <ele>331.01</ele>
        <time>2025-04-30T13:18:17.940Z</time>
      </trkpt>
      <trkpt lat="47.75414" lon="6.57107">
        <ele>331.26</ele>
        <time>2025-04-30T13:18:26.490Z</time>
      </trkpt>
      <trkpt lat="47.75413" lon="6.57117">
        <ele>331.53</ele>
        <time>2025-04-30T13:18:35.041Z</time>
      </trkpt>
      <trkpt lat="47.75411" lon="6.57144">
        <ele>331.82</ele>
        <time>2025-04-30T13:18:43.596Z</time>
      </trkpt>
      <trkpt lat="47.7541" lon="6.57154">
        <ele>332.1</ele>
        <time>2025-04-30T13:18:52.153Z</time>
      </trkpt>
      <trkpt lat="47.75409" lon="6.57163">
        <ele>332.39</ele>
        <time>2025-04-30T13:19:00.711Z</time>
      </trkpt>
      <trkpt lat="47.75403" lon="6.57247">
        <ele>332.71</ele>
        <time>2025-04-30T13:19:09.281Z</time>
      </trkpt>
      <trkpt lat="47.75397" lon="6.57301">
        <ele>333.09</ele>
        <time>2025-04-30T13:19:17.859Z</time>
      </trkpt>
      <trkpt lat="47.75397" lon="6.5731">
        <ele>333.39</ele>
        <time>2025-04-30T13:19:26.439Z</time>
      </trkpt>
      <trkpt lat="47.75396" lon="6.57319">
        <ele>333.68</ele>
        <time>2025-04-30T13:19:35.020Z</time>
      </trkpt>
      <trkpt lat="47.75394" lon="6.57345">
        <ele>333.98</ele>
        <time>2025-04-30T13:19:43.605Z</time>
      </trkpt>
      <trkpt lat="47.75393" lon="6.57354">
        <ele>334.24</ele>
        <time>2025-04-30T13:19:52.191Z</time>
      </trkpt>
      <trkpt lat="47.75392" lon="6.57363">
        <ele>334.51</ele>
        <time>2025-04-30T13:20:00.778Z</time>
      </trkpt>
      <trkpt lat="47.75391" lon="6.57371">
        <ele>334.77</ele>
        <time>2025-04-30T13:20:09.366Z</time>
      </trkpt>
      <trkpt lat="47.7539" lon="6.57379">
        <ele>335.03</ele>
        <time>2025-04-30T13:20:17.956Z</time>
      </trkpt>
      <trkpt lat="47.7539" lon="6.57388">
        <ele>335.28</ele>
        <time>2025-04-30T13:20:26.547Z</time>
      </trkpt>
      <trkpt lat="47.75389" lon="6.57396">
        <ele>335.51</ele>
        <time>2025-04-30T13:20:35.139Z</time>
      </trkpt>
      <trkpt lat="47.75388" lon="6.57404">
        <ele>335.73</ele>
        <time>2025-04-30T13:20:43.732Z</time>
      </trkpt>
      <trkpt lat="47.75387" lon="6.57412">
        <ele>335.94</ele>
        <time>2025-04-30T13:20:52.326Z</time>
      </trkpt>
      <trkpt lat="47.75386" lon="6.57421">
        <ele>336.12</ele>
        <time>2025-04-30T13:21:00.922Z</time>
      </trkpt>
      <trkpt lat="47.75383" lon="6.57444">
        <ele>336.29</ele>
        <time>2025-04-30T13:21:09.521Z</time>
      </trkpt>
      <trkpt lat="47.75379" lon="6.5746">
        <ele>336.44</ele>
        <time>2025-04-30T13:21:18.123Z</time>
      </trkpt>
      <trkpt lat="47.75377" lon="6.57467">
        <ele>336.58</ele>
        <time>2025-04-30T13:21:26.726Z</time>
      </trkpt>
      <trkpt lat="47.75375" lon="6.57475">
        <ele>336.7</ele>
        <time>2025-04-30T13:21:35.330Z</time>
      </trkpt>
      <trkpt lat="47.75373" lon="6.57483">
        <ele>336.8</ele>
        <time>2025-04-30T13:21:43.935Z</time>
      </trkpt>
      <trkpt lat="47.75371" lon="6.57491">
        <ele>336.9</ele>
        <time>2025-04-30T13:21:52.541Z</time>
      </trkpt>
      <trkpt lat="47.75368" lon="6.57498">
        <ele>336.99</ele>
        <time>2025-04-30T13:22:01.149Z</time>
      </trkpt>
      <trkpt lat="47.75366" lon="6.57506">
        <ele>337.06</ele>
        <time>2025-04-30T13:22:09.758Z</time>
      </trkpt>
      <trkpt lat="47.75364" lon="6.57513">
        <ele>337.11</ele>
        <time>2025-04-30T13:22:18.368Z</time>
      </trkpt>
      <trkpt lat="47.75362" lon="6.5752">
        <ele>337.15</ele>
        <time>2025-04-30T13:22:26.979Z</time>
      </trkpt>
      <trkpt lat="47.75361" lon="6.57527">
        <ele>337.18</ele>
        <time>2025-04-30T13:22:35.591Z</time>
      </trkpt>
      <trkpt lat="47.75359" lon="6.57534">
        <ele>337.2</ele>
        <time>2025-04-30T13:22:44.204Z</time>
      </trkpt>
      <trkpt lat="47.75358" lon="6.57542">
        <ele>337.19</ele>
        <time>2025-04-30T13:22:52.818Z</time>
      </trkpt>
      <trkpt lat="47.75357" lon="6.57551">
        <ele>337.16</ele>
        <time>2025-04-30T13:23:01.434Z</time>
      </trkpt>
      <trkpt lat="47.75356" lon="6.5756">
        <ele>337.13</ele>
        <time>2025-04-30T13:23:10.051Z</time>
      </trkpt>
      <trkpt lat="47.75358" lon="6.57568">
        <ele>337.1</ele>
        <time>2025-04-30T13:23:18.669Z</time>
      </trkpt>
      <trkpt lat="47.75362" lon="6.57576">
        <ele>337.06</ele>
        <time>2025-04-30T13:23:27.289Z</time>
      </trkpt>
      <trkpt lat="47.75366" lon="6.57584">
        <ele>337</ele>
        <time>2025-04-30T13:23:35.910Z</time>
      </trkpt>
      <trkpt lat="47.75371" lon="6.57592">
        <ele>336.94</ele>
        <time>2025-04-30T13:23:44.533Z</time>
      </trkpt>
      <trkpt lat="47.75376" lon="6.576">
        <ele>336.86</ele>
        <time>2025-04-30T13:23:53.157Z</time>
      </trkpt>
      <trkpt lat="47.7538" lon="6.57608">
        <ele>336.77</ele>
        <time>2025-04-30T13:24:01.783Z</time>
      </trkpt>
      <trkpt lat="47.75385" lon="6.57616">
        <ele>336.68</ele>
        <time>2025-04-30T13:24:10.410Z</time>
      </trkpt>
      <trkpt lat="47.75389" lon="6.57624">
        <ele>336.57</ele>
        <time>2025-04-30T13:24:19.039Z</time>
      </trkpt>
      <trkpt lat="47.75393" lon="6.57632">
        <ele>336.46</ele>
        <time>2025-04-30T13:24:27.669Z</time>
      </trkpt>
      <trkpt lat="47.75411" lon="6.57672">
        <ele>336.34</ele>
        <time>2025-04-30T13:24:36.306Z</time>
      </trkpt>
      <trkpt lat="47.75415" lon="6.5768">
        <ele>336.21</ele>
        <time>2025-04-30T13:24:44.945Z</time>
      </trkpt>
      <trkpt lat="47.75418" lon="6.57687">
        <ele>336.08</ele>
        <time>2025-04-30T13:24:53.585Z</time>
      </trkpt>
      <trkpt lat="47.75421" lon="6.57694">
        <ele>335.94</ele>
        <time>2025-04-30T13:25:02.226Z</time>
      </trkpt>
      <trkpt lat="47.75424" lon="6.57702">
        <ele>335.81</ele>
        <time>2025-04-30T13:25:10.868Z</time>
      </trkpt>
      <trkpt lat="47.75427" lon="6.57709">
        <ele>335.68</ele>
        <time>2025-04-30T13:25:19.511Z</time>
      </trkpt>
      <trkpt lat="47.7543" lon="6.57715">
        <ele>335.55</ele>
        <time>2025-04-30T13:25:28.156Z</time>
      </trkpt>
      <trkpt lat="47.75433" lon="6.5772">
        <ele>335.42</ele>
        <time>2025-04-30T13:25:36.801Z</time>
      </trkpt>
      <trkpt lat="47.75436" lon="6.57724">
        <ele>335.29</ele>
        <time>2025-04-30T13:25:45.447Z</time>
      </trkpt>
      <trkpt lat="47.7544" lon="6.57725">
        <ele>335.17</ele>
        <time>2025-04-30T13:25:54.094Z</time>
      </trkpt>
      <trkpt lat="47.75446" lon="6.57724">
        <ele>335.04</ele>
        <time>2025-04-30T13:26:02.742Z</time>
      </trkpt>
      <trkpt lat="47.75451" lon="6.57722">
        <ele>334.92</ele>
        <time>2025-04-30T13:26:11.392Z</time>
      </trkpt>
      <trkpt lat="47.75462" lon="6.57716">
        <ele>334.82</ele>
        <time>2025-04-30T13:26:20.044Z</time>
      </trkpt>
      <trkpt lat="47.75468" lon="6.57713">
        <ele>334.72</ele>
        <time>2025-04-30T13:26:28.697Z</time>
      </trkpt>
      <trkpt lat="47.7549" lon="6.577">
        <ele>334.63</ele>
        <time>2025-04-30T13:26:37.356Z</time>
      </trkpt>
      <trkpt lat="47.75525" lon="6.57674">
        <ele>334.49</ele>
        <time>2025-04-30T13:26:46.023Z</time>
      </trkpt>
      <trkpt lat="47.75562" lon="6.57629">
        <ele>334.42</ele>
        <time>2025-04-30T13:26:54.700Z</time>
      </trkpt>
      <trkpt lat="47.75583" lon="6.57606">
        <ele>334.37</ele>
        <time>2025-04-30T13:27:03.383Z</time>
      </trkpt>
      <trkpt lat="47.75588" lon="6.576">
        <ele>334.3</ele>
        <time>2025-04-30T13:27:12.067Z</time>
      </trkpt>
      <trkpt lat="47.75593" lon="6.57594">
        <ele>334.24</ele>
        <time>2025-04-30T13:27:20.753Z</time>
      </trkpt>
      <trkpt lat="47.75598" lon="6.57588">
        <ele>334.19</ele>
        <time>2025-04-30T13:27:29.440Z</time>
      </trkpt>
      <trkpt lat="47.75602" lon="6.57582">
        <ele>334.15</ele>
        <time>2025-04-30T13:27:38.128Z</time>
      </trkpt>
      <trkpt lat="47.75607" lon="6.57576">
        <ele>334.12</ele>
        <time>2025-04-30T13:27:46.818Z</time>
      </trkpt>
      <trkpt lat="47.75612" lon="6.57569">
        <ele>334.09</ele>
        <time>2025-04-30T13:27:55.509Z</time>
      </trkpt>
      <trkpt lat="47.75631" lon="6.57545">
        <ele>334.08</ele>
        <time>2025-04-30T13:28:04.205Z</time>
      </trkpt>
      <trkpt lat="47.75643" lon="6.57528">
        <ele>334.04</ele>
        <time>2025-04-30T13:28:12.905Z</time>
      </trkpt>
      <trkpt lat="47.75648" lon="6.57522">
        <ele>334.05</ele>
        <time>2025-04-30T13:28:21.606Z</time>
      </trkpt>
      <trkpt lat="47.75658" lon="6.57509">
        <ele>334.06</ele>
        <time>2025-04-30T13:28:30.310Z</time>
      </trkpt>
      <trkpt lat="47.75662" lon="6.57503">
        <ele>334.1</ele>
        <time>2025-04-30T13:28:39.016Z</time>
      </trkpt>
      <trkpt lat="47.75694" lon="6.57457">
        <ele>334.22</ele>
        <time>2025-04-30T13:28:47.731Z</time>
      </trkpt>
      <trkpt lat="47.75724" lon="6.57414">
        <ele>334.33</ele>
        <time>2025-04-30T13:28:56.455Z</time>
      </trkpt>
      <trkpt lat="47.75733" lon="6.57403">
        <ele>334.36</ele>
        <time>2025-04-30T13:29:05.181Z</time>
      </trkpt>
      <trkpt lat="47.75739" lon="6.57397">
        <ele>334.4</ele>
        <time>2025-04-30T13:29:13.909Z</time>
      </trkpt>
      <trkpt lat="47.75755" lon="6.57385">
        <ele>334.43</ele>
        <time>2025-04-30T13:29:22.641Z</time>
      </trkpt>
      <trkpt lat="47.75792" lon="6.57371">
        <ele>334.51</ele>
        <time>2025-04-30T13:29:31.381Z</time>
      </trkpt>
      <trkpt lat="47.75833" lon="6.57357">
        <ele>334.56</ele>
        <time>2025-04-30T13:29:40.130Z</time>
      </trkpt>
      <trkpt lat="47.75838" lon="6.57354">
        <ele>334.6</ele>
        <time>2025-04-30T13:29:48.880Z</time>
      </trkpt>
      <trkpt lat="47.75843" lon="6.57349">
        <ele>334.65</ele>
        <time>2025-04-30T13:29:57.632Z</time>
      </trkpt>
      <trkpt lat="47.75848" lon="6.57343">
        <ele>334.71</ele>
        <time>2025-04-30T13:30:06.385Z</time>
      </trkpt>
      <trkpt lat="47.75853" lon="6.57337">
        <ele>334.78</ele>
        <time>2025-04-30T13:30:15.139Z</time>
      </trkpt>
      <trkpt lat="47.75857" lon="6.57331">
        <ele>334.86</ele>
        <time>2025-04-30T13:30:23.894Z</time>
      </trkpt>
      <trkpt lat="47.75861" lon="6.57324">
        <ele>334.94</ele>
        <time>2025-04-30T13:30:32.651Z</time>
      </trkpt>
      <trkpt lat="47.75879" lon="6.57292">
        <ele>335.03</ele>
        <time>2025-04-30T13:30:41.414Z</time>
      </trkpt>
      <trkpt lat="47.75883" lon="6.57285">
        <ele>335.13</ele>
        <time>2025-04-30T13:30:50.178Z</time>
      </trkpt>
      <trkpt lat="47.75892" lon="6.57275">
        <ele>335.24</ele>
        <time>2025-04-30T13:30:58.945Z</time>
      </trkpt>
      <trkpt lat="47.75897" lon="6.5727">
        <ele>335.32</ele>
        <time>2025-04-30T13:31:07.713Z</time>
      </trkpt>
      <trkpt lat="47.75923" lon="6.5725">
        <ele>335.4</ele>
        <time>2025-04-30T13:31:16.487Z</time>
      </trkpt>
      <trkpt lat="47.75943" lon="6.57237">
        <ele>335.48</ele>
        <time>2025-04-30T13:31:25.266Z</time>
      </trkpt>
      <trkpt lat="47.75947" lon="6.57235">
        <ele>335.56</ele>
        <time>2025-04-30T13:31:34.046Z</time>
      </trkpt>
      <trkpt lat="47.75952" lon="6.57235">
        <ele>335.64</ele>
        <time>2025-04-30T13:31:42.827Z</time>
      </trkpt>
      <trkpt lat="47.75956" lon="6.57238">
        <ele>335.7</ele>
        <time>2025-04-30T13:31:51.609Z</time>
      </trkpt>
      <trkpt lat="47.7596" lon="6.57244">
        <ele>335.76</ele>
        <time>2025-04-30T13:32:00.392Z</time>
      </trkpt>
      <trkpt lat="47.75962" lon="6.57252">
        <ele>335.81</ele>
        <time>2025-04-30T13:32:09.176Z</time>
      </trkpt>
      <trkpt lat="47.75968" lon="6.57269">
        <ele>335.86</ele>
        <time>2025-04-30T13:32:17.963Z</time>
      </trkpt>
      <trkpt lat="47.7597" lon="6.57279">
        <ele>335.93</ele>
        <time>2025-04-30T13:32:26.752Z</time>
      </trkpt>
      <trkpt lat="47.75975" lon="6.57297">
        <ele>336</ele>
        <time>2025-04-30T13:32:35.543Z</time>
      </trkpt>
      <trkpt lat="47.75978" lon="6.57316">
        <ele>336.07</ele>
        <time>2025-04-30T13:32:44.337Z</time>
      </trkpt>
      <trkpt lat="47.75979" lon="6.57326">
        <ele>336.14</ele>
        <time>2025-04-30T13:32:53.133Z</time>
      </trkpt>
      <trkpt lat="47.7598" lon="6.57344">
        <ele>336.21</ele>
        <time>2025-04-30T13:33:01.931Z</time>
      </trkpt>
      <trkpt lat="47.7598" lon="6.57353">
        <ele>336.28</ele>
        <time>2025-04-30T13:33:10.731Z</time>
      </trkpt>
      <trkpt lat="47.7598" lon="6.57371">
        <ele>336.35</ele>
        <time>2025-04-30T13:33:19.533Z</time>
      </trkpt>
      <trkpt lat="47.75978" lon="6.5738">
        <ele>336.39</ele>
        <time>2025-04-30T13:33:28.336Z</time>
      </trkpt>
      <trkpt lat="47.75976" lon="6.57389">
        <ele>336.41</ele>
        <time>2025-04-30T13:33:37.141Z</time>
      </trkpt>
      <trkpt lat="47.75972" lon="6.57397">
        <ele>336.41</ele>
        <time>2025-04-30T13:33:45.947Z</time>
      </trkpt>
      <trkpt lat="47.75968" lon="6.57405">
        <ele>336.4</ele>
        <time>2025-04-30T13:33:54.755Z</time>
      </trkpt>
      <trkpt lat="47.75963" lon="6.57412">
        <ele>336.37</ele>
        <time>2025-04-30T13:34:03.564Z</time>
      </trkpt>
      <trkpt lat="47.75958" lon="6.57418">
        <ele>336.33</ele>
        <time>2025-04-30T13:34:12.375Z</time>
      </trkpt>
      <trkpt lat="47.75942" lon="6.57435">
        <ele>336.29</ele>
        <time>2025-04-30T13:34:21.190Z</time>
      </trkpt>
      <trkpt lat="47.75932" lon="6.57446">
        <ele>336.19</ele>
        <time>2025-04-30T13:34:30.008Z</time>
      </trkpt>
      <trkpt lat="47.7593" lon="6.57455">
        <ele>336.09</ele>
        <time>2025-04-30T13:34:38.827Z</time>
      </trkpt>
      <trkpt lat="47.75931" lon="6.57465">
        <ele>335.98</ele>
        <time>2025-04-30T13:34:47.647Z</time>
      </trkpt>
      <trkpt lat="47.75933" lon="6.57474">
        <ele>335.89</ele>
        <time>2025-04-30T13:34:56.469Z</time>
      </trkpt>
      <trkpt lat="47.75938" lon="6.57491">
        <ele>335.81</ele>
        <time>2025-04-30T13:35:05.293Z</time>
      </trkpt>
      <trkpt lat="47.7594" lon="6.575">
        <ele>335.75</ele>
        <time>2025-04-30T13:35:14.119Z</time>
      </trkpt>
      <trkpt lat="47.75953" lon="6.57545">
        <ele>335.67</ele>
        <time>2025-04-30T13:35:22.952Z</time>
      </trkpt>
      <trkpt lat="47.75969" lon="6.57607">
        <ele>335.65</ele>
        <time>2025-04-30T13:35:31.794Z</time>
      </trkpt>
      <trkpt lat="47.75973" lon="6.57624">
        <ele>335.61</ele>
        <time>2025-04-30T13:35:40.639Z</time>
      </trkpt>
      <trkpt lat="47.75983" lon="6.57686">
        <ele>335.58</ele>
        <time>2025-04-30T13:35:49.493Z</time>
      </trkpt>
      <trkpt lat="47.75982" lon="6.57711">
        <ele>335.56</ele>
        <time>2025-04-30T13:35:58.351Z</time>
      </trkpt>
      <trkpt lat="47.75982" lon="6.57719">
        <ele>335.54</ele>
        <time>2025-04-30T13:36:07.210Z</time>
      </trkpt>
      <trkpt lat="47.75981" lon="6.57728">
        <ele>335.53</ele>
        <time>2025-04-30T13:36:16.070Z</time>
      </trkpt>
      <trkpt lat="47.75979" lon="6.57737">
        <ele>335.51</ele>
        <time>2025-04-30T13:36:24.932Z</time>
      </trkpt>
      <trkpt lat="47.75977" lon="6.57745">
        <ele>335.49</ele>
        <time>2025-04-30T13:36:33.795Z</time>
      </trkpt>
      <trkpt lat="47.75974" lon="6.57752">
        <ele>335.48</ele>
        <time>2025-04-30T13:36:42.659Z</time>
      </trkpt>
      <trkpt lat="47.7597" lon="6.5776">
        <ele>335.45</ele>
        <time>2025-04-30T13:36:51.525Z</time>
      </trkpt>
      <trkpt lat="47.75945" lon="6.57807">
        <ele>335.45</ele>
        <time>2025-04-30T13:37:00.399Z</time>
      </trkpt>
      <trkpt lat="47.75942" lon="6.57814">
        <ele>335.42</ele>
        <time>2025-04-30T13:37:09.274Z</time>
      </trkpt>
      <trkpt lat="47.75939" lon="6.57821">
        <ele>335.38</ele>
        <time>2025-04-30T13:37:18.151Z</time>
      </trkpt>
      <trkpt lat="47.75936" lon="6.57828">
        <ele>335.35</ele>
        <time>2025-04-30T13:37:27.029Z</time>
      </trkpt>
      <trkpt lat="47.75933" lon="6.57836">
        <ele>335.31</ele>
        <time>2025-04-30T13:37:35.908Z</time>
      </trkpt>
      <trkpt lat="47.7593" lon="6.57843">
        <ele>335.25</ele>
        <time>2025-04-30T13:37:44.788Z</time>
      </trkpt>
      <trkpt lat="47.75921" lon="6.57867">
        <ele>335.17</ele>
        <time>2025-04-30T13:37:53.672Z</time>
      </trkpt>
      <trkpt lat="47.75898" lon="6.57913">
        <ele>335.17</ele>
        <time>2025-04-30T13:38:02.565Z</time>
      </trkpt>
      <trkpt lat="47.75864" lon="6.57957">
        <ele>335.09</ele>
        <time>2025-04-30T13:38:11.467Z</time>
      </trkpt>
      <trkpt lat="47.75837" lon="6.57997">
        <ele>334.8</ele>
        <time>2025-04-30T13:38:20.377Z</time>
      </trkpt>
      <trkpt lat="47.75819" lon="6.58025">
        <ele>334.45</ele>
        <time>2025-04-30T13:38:29.293Z</time>
      </trkpt>
      <trkpt lat="47.75778" lon="6.58089">
        <ele>334.1</ele>
        <time>2025-04-30T13:38:38.222Z</time>
      </trkpt>
      <trkpt lat="47.75773" lon="6.58095">
        <ele>334.02</ele>
        <time>2025-04-30T13:38:47.152Z</time>
      </trkpt>
      <trkpt lat="47.7575" lon="6.58115">
        <ele>333.95</ele>
        <time>2025-04-30T13:38:56.088Z</time>
      </trkpt>
      <trkpt lat="47.75732" lon="6.58128">
        <ele>333.89</ele>
        <time>2025-04-30T13:39:05.028Z</time>
      </trkpt>
      <trkpt lat="47.75709" lon="6.58144">
        <ele>333.77</ele>
        <time>2025-04-30T13:39:13.974Z</time>
      </trkpt>
      <trkpt lat="47.75703" lon="6.58147">
        <ele>333.6</ele>
        <time>2025-04-30T13:39:22.921Z</time>
      </trkpt>
      <trkpt lat="47.75684" lon="6.58154">
        <ele>333.36</ele>
        <time>2025-04-30T13:39:31.872Z</time>
      </trkpt>
      <trkpt lat="47.75666" lon="6.58157">
        <ele>333.14</ele>
        <time>2025-04-30T13:39:40.827Z</time>
      </trkpt>
      <trkpt lat="47.75659" lon="6.58157">
        <ele>332.99</ele>
        <time>2025-04-30T13:39:49.784Z</time>
      </trkpt>
      <trkpt lat="47.75647" lon="6.58156">
        <ele>332.84</ele>
        <time>2025-04-30T13:39:58.743Z</time>
      </trkpt>
      <trkpt lat="47.7564" lon="6.58156">
        <ele>332.74</ele>
        <time>2025-04-30T13:40:07.704Z</time>
      </trkpt>
      <trkpt lat="47.75634" lon="6.58156">
        <ele>332.66</ele>
        <time>2025-04-30T13:40:16.666Z</time>
      </trkpt>
      <trkpt lat="47.75628" lon="6.58155">
        <ele>332.58</ele>
        <time>2025-04-30T13:40:25.629Z</time>
      </trkpt>
      <trkpt lat="47.75609" lon="6.58153">
        <ele>332.52</ele>
        <time>2025-04-30T13:40:34.596Z</time>
      </trkpt>
      <trkpt lat="47.75565" lon="6.5815">
        <ele>332.44</ele>
        <time>2025-04-30T13:40:43.573Z</time>
      </trkpt>
      <trkpt lat="47.75541" lon="6.5815">
        <ele>332.36</ele>
        <time>2025-04-30T13:40:52.555Z</time>
      </trkpt>
      <trkpt lat="47.75536" lon="6.58151">
        <ele>332.28</ele>
        <time>2025-04-30T13:41:01.538Z</time>
      </trkpt>
      <trkpt lat="47.7553" lon="6.5815">
        <ele>332.21</ele>
        <time>2025-04-30T13:41:10.522Z</time>
      </trkpt>
      <trkpt lat="47.75526" lon="6.5815">
        <ele>332.14</ele>
        <time>2025-04-30T13:41:19.507Z</time>
      </trkpt>
      <trkpt lat="47.75522" lon="6.5815">
        <ele>332.08</ele>
        <time>2025-04-30T13:41:28.493Z</time>
      </trkpt>
      <trkpt lat="47.75521" lon="6.5815">
        <ele>332.02</ele>
        <time>2025-04-30T13:41:37.479Z</time>
      </trkpt>
    </trkseg>
  </trk>
</gpx>